<?xml version="1.0" encoding="UTF-8" standalone="no" ?>
<gpx xmlns="http://www.topografix.com/GPX/1/1" xmlns:xsi="http://www.w3.org/2001/XMLSchema-instance" xsi:schemaLocation="http://www.topografix.com/GPX/1/1 http://www.topografix.com/GPX/1/1/gpx.xsd" version="1.1" creator="VisuGPX - https://www.visugpx.com">
  <metadata>
    <name>Tournefeuille VTT électrique</name>
  </metadata>
  <trk>
    <name><![CDATA[Tournefeuille VTT électrique_1]]></name>
    <trkseg>
      <trkpt lat="43.58675" lon="1.32241">
        <ele>177.2</ele>
        <time>2022-10-26T04:57:52Z</time>
      </trkpt>
      <trkpt lat="43.58675" lon="1.32242">
        <ele>183.8</ele>
        <time>2022-10-26T04:57:53Z</time>
      </trkpt>
      <trkpt lat="43.58675" lon="1.32247">
        <ele>185</ele>
        <time>2022-10-26T04:58:27Z</time>
      </trkpt>
      <trkpt lat="43.58676" lon="1.3225">
        <ele>185</ele>
        <time>2022-10-26T04:58:28Z</time>
      </trkpt>
      <trkpt lat="43.58676" lon="1.32254">
        <ele>185</ele>
        <time>2022-10-26T04:58:29Z</time>
      </trkpt>
      <trkpt lat="43.58676" lon="1.32258">
        <ele>185</ele>
        <time>2022-10-26T04:58:30Z</time>
      </trkpt>
      <trkpt lat="43.58676" lon="1.32262">
        <ele>185</ele>
        <time>2022-10-26T04:58:31Z</time>
      </trkpt>
      <trkpt lat="43.58677" lon="1.32266">
        <ele>185</ele>
        <time>2022-10-26T04:58:32Z</time>
      </trkpt>
      <trkpt lat="43.58677" lon="1.3227">
        <ele>185</ele>
        <time>2022-10-26T04:58:33Z</time>
      </trkpt>
      <trkpt lat="43.58677" lon="1.32275">
        <ele>185</ele>
        <time>2022-10-26T04:58:34Z</time>
      </trkpt>
      <trkpt lat="43.58677" lon="1.3228">
        <ele>185</ele>
        <time>2022-10-26T04:58:35Z</time>
      </trkpt>
      <trkpt lat="43.58677" lon="1.32284">
        <ele>185</ele>
        <time>2022-10-26T04:58:36Z</time>
      </trkpt>
      <trkpt lat="43.58678" lon="1.32287">
        <ele>184.8</ele>
        <time>2022-10-26T04:58:37Z</time>
      </trkpt>
      <trkpt lat="43.58679" lon="1.32289">
        <ele>184.8</ele>
        <time>2022-10-26T04:58:38Z</time>
      </trkpt>
      <trkpt lat="43.58682" lon="1.3229">
        <ele>184.8</ele>
        <time>2022-10-26T04:58:39Z</time>
      </trkpt>
      <trkpt lat="43.58685" lon="1.32289">
        <ele>184.8</ele>
        <time>2022-10-26T04:58:40Z</time>
      </trkpt>
      <trkpt lat="43.58688" lon="1.32287">
        <ele>184.8</ele>
        <time>2022-10-26T04:58:41Z</time>
      </trkpt>
      <trkpt lat="43.58691" lon="1.32285">
        <ele>184.8</ele>
        <time>2022-10-26T04:58:42Z</time>
      </trkpt>
      <trkpt lat="43.58694" lon="1.32282">
        <ele>184.8</ele>
        <time>2022-10-26T04:58:43Z</time>
      </trkpt>
      <trkpt lat="43.58697" lon="1.3228">
        <ele>184.8</ele>
        <time>2022-10-26T04:58:44Z</time>
      </trkpt>
      <trkpt lat="43.58699" lon="1.32277">
        <ele>185</ele>
        <time>2022-10-26T04:58:45Z</time>
      </trkpt>
      <trkpt lat="43.58701" lon="1.32275">
        <ele>185.2</ele>
        <time>2022-10-26T04:58:46Z</time>
      </trkpt>
      <trkpt lat="43.58704" lon="1.32271">
        <ele>185.6</ele>
        <time>2022-10-26T04:58:47Z</time>
      </trkpt>
      <trkpt lat="43.58707" lon="1.32269">
        <ele>185.6</ele>
        <time>2022-10-26T04:58:48Z</time>
      </trkpt>
      <trkpt lat="43.5871" lon="1.32266">
        <ele>185.4</ele>
        <time>2022-10-26T04:58:49Z</time>
      </trkpt>
      <trkpt lat="43.58713" lon="1.32263">
        <ele>185.8</ele>
        <time>2022-10-26T04:58:50Z</time>
      </trkpt>
      <trkpt lat="43.58715" lon="1.32261">
        <ele>186</ele>
        <time>2022-10-26T04:58:51Z</time>
      </trkpt>
      <trkpt lat="43.58718" lon="1.32259">
        <ele>186</ele>
        <time>2022-10-26T04:58:52Z</time>
      </trkpt>
      <trkpt lat="43.5872" lon="1.32256">
        <ele>186.4</ele>
        <time>2022-10-26T04:58:53Z</time>
      </trkpt>
      <trkpt lat="43.58723" lon="1.32255">
        <ele>186.4</ele>
        <time>2022-10-26T04:58:54Z</time>
      </trkpt>
      <trkpt lat="43.58725" lon="1.32253">
        <ele>186.6</ele>
        <time>2022-10-26T04:58:55Z</time>
      </trkpt>
      <trkpt lat="43.58727" lon="1.32251">
        <ele>186.8</ele>
        <time>2022-10-26T04:58:56Z</time>
      </trkpt>
      <trkpt lat="43.5873" lon="1.32249">
        <ele>187</ele>
        <time>2022-10-26T04:58:57Z</time>
      </trkpt>
      <trkpt lat="43.58733" lon="1.32245">
        <ele>187</ele>
        <time>2022-10-26T04:58:58Z</time>
      </trkpt>
      <trkpt lat="43.58737" lon="1.32241">
        <ele>187.2</ele>
        <time>2022-10-26T04:58:59Z</time>
      </trkpt>
      <trkpt lat="43.5874" lon="1.32237">
        <ele>187.2</ele>
        <time>2022-10-26T04:59:00Z</time>
      </trkpt>
      <trkpt lat="43.58744" lon="1.32234">
        <ele>187.2</ele>
        <time>2022-10-26T04:59:01Z</time>
      </trkpt>
      <trkpt lat="43.58747" lon="1.32231">
        <ele>187.4</ele>
        <time>2022-10-26T04:59:02Z</time>
      </trkpt>
      <trkpt lat="43.5875" lon="1.32228">
        <ele>187.6</ele>
        <time>2022-10-26T04:59:03Z</time>
      </trkpt>
      <trkpt lat="43.58752" lon="1.32225">
        <ele>187.6</ele>
        <time>2022-10-26T04:59:04Z</time>
      </trkpt>
      <trkpt lat="43.58754" lon="1.32223">
        <ele>187.6</ele>
        <time>2022-10-26T04:59:05Z</time>
      </trkpt>
      <trkpt lat="43.58757" lon="1.3222">
        <ele>187.8</ele>
        <time>2022-10-26T04:59:06Z</time>
      </trkpt>
      <trkpt lat="43.58759" lon="1.32218">
        <ele>187.8</ele>
        <time>2022-10-26T04:59:07Z</time>
      </trkpt>
      <trkpt lat="43.58762" lon="1.32215">
        <ele>188</ele>
        <time>2022-10-26T04:59:08Z</time>
      </trkpt>
      <trkpt lat="43.58764" lon="1.32213">
        <ele>188</ele>
        <time>2022-10-26T04:59:09Z</time>
      </trkpt>
      <trkpt lat="43.58765" lon="1.32212">
        <ele>188.2</ele>
        <time>2022-10-26T04:59:10Z</time>
      </trkpt>
      <trkpt lat="43.58767" lon="1.32211">
        <ele>188.4</ele>
        <time>2022-10-26T04:59:11Z</time>
      </trkpt>
      <trkpt lat="43.58768" lon="1.3221">
        <ele>188.6</ele>
        <time>2022-10-26T04:59:12Z</time>
      </trkpt>
      <trkpt lat="43.5877" lon="1.32208">
        <ele>188.6</ele>
        <time>2022-10-26T04:59:13Z</time>
      </trkpt>
      <trkpt lat="43.58771" lon="1.32206">
        <ele>188.8</ele>
        <time>2022-10-26T04:59:14Z</time>
      </trkpt>
      <trkpt lat="43.58773" lon="1.32205">
        <ele>188.8</ele>
        <time>2022-10-26T04:59:15Z</time>
      </trkpt>
      <trkpt lat="43.58775" lon="1.32203">
        <ele>188.8</ele>
        <time>2022-10-26T04:59:16Z</time>
      </trkpt>
      <trkpt lat="43.58777" lon="1.32201">
        <ele>188.8</ele>
        <time>2022-10-26T04:59:17Z</time>
      </trkpt>
      <trkpt lat="43.58779" lon="1.32198">
        <ele>188.8</ele>
        <time>2022-10-26T04:59:18Z</time>
      </trkpt>
      <trkpt lat="43.58781" lon="1.32196">
        <ele>188.8</ele>
        <time>2022-10-26T04:59:19Z</time>
      </trkpt>
      <trkpt lat="43.58782" lon="1.32194">
        <ele>188.8</ele>
        <time>2022-10-26T04:59:20Z</time>
      </trkpt>
      <trkpt lat="43.58785" lon="1.32191">
        <ele>189</ele>
        <time>2022-10-26T04:59:21Z</time>
      </trkpt>
      <trkpt lat="43.58787" lon="1.32189">
        <ele>189</ele>
        <time>2022-10-26T04:59:22Z</time>
      </trkpt>
      <trkpt lat="43.58789" lon="1.32186">
        <ele>189</ele>
        <time>2022-10-26T04:59:23Z</time>
      </trkpt>
      <trkpt lat="43.58792" lon="1.32183">
        <ele>189</ele>
        <time>2022-10-26T04:59:24Z</time>
      </trkpt>
      <trkpt lat="43.58795" lon="1.32181">
        <ele>189</ele>
        <time>2022-10-26T04:59:25Z</time>
      </trkpt>
      <trkpt lat="43.58795" lon="1.32181">
        <ele>189</ele>
        <time>2022-10-26T04:59:26Z</time>
      </trkpt>
      <trkpt lat="43.58798" lon="1.32178">
        <ele>189</ele>
        <time>2022-10-26T04:59:54Z</time>
      </trkpt>
      <trkpt lat="43.58803" lon="1.32173">
        <ele>189</ele>
        <time>2022-10-26T04:59:55Z</time>
      </trkpt>
      <trkpt lat="43.58806" lon="1.32169">
        <ele>189</ele>
        <time>2022-10-26T04:59:56Z</time>
      </trkpt>
      <trkpt lat="43.58808" lon="1.32166">
        <ele>189</ele>
        <time>2022-10-26T04:59:57Z</time>
      </trkpt>
      <trkpt lat="43.5881" lon="1.32162">
        <ele>189</ele>
        <time>2022-10-26T04:59:58Z</time>
      </trkpt>
      <trkpt lat="43.58811" lon="1.32159">
        <ele>189</ele>
        <time>2022-10-26T04:59:59Z</time>
      </trkpt>
      <trkpt lat="43.58811" lon="1.32157">
        <ele>189</ele>
        <time>2022-10-26T05:00:00Z</time>
      </trkpt>
      <trkpt lat="43.58812" lon="1.32154">
        <ele>189</ele>
        <time>2022-10-26T05:00:01Z</time>
      </trkpt>
      <trkpt lat="43.58814" lon="1.3215">
        <ele>189</ele>
        <time>2022-10-26T05:00:02Z</time>
      </trkpt>
      <trkpt lat="43.58815" lon="1.32145">
        <ele>189</ele>
        <time>2022-10-26T05:00:03Z</time>
      </trkpt>
      <trkpt lat="43.58817" lon="1.3214">
        <ele>189</ele>
        <time>2022-10-26T05:00:04Z</time>
      </trkpt>
      <trkpt lat="43.58818" lon="1.32135">
        <ele>189</ele>
        <time>2022-10-26T05:00:05Z</time>
      </trkpt>
      <trkpt lat="43.58819" lon="1.3213">
        <ele>189</ele>
        <time>2022-10-26T05:00:06Z</time>
      </trkpt>
      <trkpt lat="43.58822" lon="1.32125">
        <ele>189</ele>
        <time>2022-10-26T05:00:07Z</time>
      </trkpt>
      <trkpt lat="43.58826" lon="1.32122">
        <ele>189</ele>
        <time>2022-10-26T05:00:08Z</time>
      </trkpt>
      <trkpt lat="43.5883" lon="1.32118">
        <ele>189</ele>
        <time>2022-10-26T05:00:09Z</time>
      </trkpt>
      <trkpt lat="43.58834" lon="1.32114">
        <ele>189</ele>
        <time>2022-10-26T05:00:10Z</time>
      </trkpt>
      <trkpt lat="43.58837" lon="1.3211">
        <ele>189</ele>
        <time>2022-10-26T05:00:11Z</time>
      </trkpt>
      <trkpt lat="43.58841" lon="1.32107">
        <ele>189</ele>
        <time>2022-10-26T05:00:12Z</time>
      </trkpt>
      <trkpt lat="43.58845" lon="1.32103">
        <ele>189.2</ele>
        <time>2022-10-26T05:00:13Z</time>
      </trkpt>
      <trkpt lat="43.58849" lon="1.32099">
        <ele>189.2</ele>
        <time>2022-10-26T05:00:14Z</time>
      </trkpt>
      <trkpt lat="43.58853" lon="1.32095">
        <ele>189.2</ele>
        <time>2022-10-26T05:00:15Z</time>
      </trkpt>
      <trkpt lat="43.58857" lon="1.32092">
        <ele>189.4</ele>
        <time>2022-10-26T05:00:16Z</time>
      </trkpt>
      <trkpt lat="43.5886" lon="1.32088">
        <ele>189.4</ele>
        <time>2022-10-26T05:00:17Z</time>
      </trkpt>
      <trkpt lat="43.58864" lon="1.32084">
        <ele>189.4</ele>
        <time>2022-10-26T05:00:18Z</time>
      </trkpt>
      <trkpt lat="43.58869" lon="1.32079">
        <ele>189.4</ele>
        <time>2022-10-26T05:00:19Z</time>
      </trkpt>
      <trkpt lat="43.58872" lon="1.32076">
        <ele>189.4</ele>
        <time>2022-10-26T05:00:20Z</time>
      </trkpt>
      <trkpt lat="43.58875" lon="1.32072">
        <ele>189.4</ele>
        <time>2022-10-26T05:00:21Z</time>
      </trkpt>
      <trkpt lat="43.58879" lon="1.32068">
        <ele>189.4</ele>
        <time>2022-10-26T05:00:22Z</time>
      </trkpt>
      <trkpt lat="43.58884" lon="1.32063">
        <ele>189.4</ele>
        <time>2022-10-26T05:00:23Z</time>
      </trkpt>
      <trkpt lat="43.58888" lon="1.32059">
        <ele>189.6</ele>
        <time>2022-10-26T05:00:24Z</time>
      </trkpt>
      <trkpt lat="43.58892" lon="1.32055">
        <ele>189.6</ele>
        <time>2022-10-26T05:00:25Z</time>
      </trkpt>
      <trkpt lat="43.58896" lon="1.32052">
        <ele>189.6</ele>
        <time>2022-10-26T05:00:26Z</time>
      </trkpt>
      <trkpt lat="43.589" lon="1.32047">
        <ele>189.6</ele>
        <time>2022-10-26T05:00:27Z</time>
      </trkpt>
      <trkpt lat="43.58904" lon="1.32042">
        <ele>189.8</ele>
        <time>2022-10-26T05:00:28Z</time>
      </trkpt>
      <trkpt lat="43.58908" lon="1.32038">
        <ele>189.8</ele>
        <time>2022-10-26T05:00:29Z</time>
      </trkpt>
      <trkpt lat="43.58911" lon="1.32035">
        <ele>189.8</ele>
        <time>2022-10-26T05:00:30Z</time>
      </trkpt>
      <trkpt lat="43.58915" lon="1.32029">
        <ele>190</ele>
        <time>2022-10-26T05:00:31Z</time>
      </trkpt>
      <trkpt lat="43.58919" lon="1.32025">
        <ele>190</ele>
        <time>2022-10-26T05:00:32Z</time>
      </trkpt>
      <trkpt lat="43.58923" lon="1.32021">
        <ele>190</ele>
        <time>2022-10-26T05:00:33Z</time>
      </trkpt>
      <trkpt lat="43.58926" lon="1.32017">
        <ele>190</ele>
        <time>2022-10-26T05:00:34Z</time>
      </trkpt>
      <trkpt lat="43.5893" lon="1.32013">
        <ele>190</ele>
        <time>2022-10-26T05:00:35Z</time>
      </trkpt>
      <trkpt lat="43.58934" lon="1.32009">
        <ele>190</ele>
        <time>2022-10-26T05:00:36Z</time>
      </trkpt>
      <trkpt lat="43.58938" lon="1.32008">
        <ele>190</ele>
        <time>2022-10-26T05:00:37Z</time>
      </trkpt>
      <trkpt lat="43.58942" lon="1.32008">
        <ele>190</ele>
        <time>2022-10-26T05:00:38Z</time>
      </trkpt>
      <trkpt lat="43.58946" lon="1.32007">
        <ele>190</ele>
        <time>2022-10-26T05:00:39Z</time>
      </trkpt>
      <trkpt lat="43.58949" lon="1.32006">
        <ele>190</ele>
        <time>2022-10-26T05:00:40Z</time>
      </trkpt>
      <trkpt lat="43.58953" lon="1.32004">
        <ele>190</ele>
        <time>2022-10-26T05:00:41Z</time>
      </trkpt>
      <trkpt lat="43.58957" lon="1.32001">
        <ele>190</ele>
        <time>2022-10-26T05:00:42Z</time>
      </trkpt>
      <trkpt lat="43.58961" lon="1.31999">
        <ele>190</ele>
        <time>2022-10-26T05:00:43Z</time>
      </trkpt>
      <trkpt lat="43.58965" lon="1.31997">
        <ele>190</ele>
        <time>2022-10-26T05:00:44Z</time>
      </trkpt>
      <trkpt lat="43.5897" lon="1.31994">
        <ele>190</ele>
        <time>2022-10-26T05:00:45Z</time>
      </trkpt>
      <trkpt lat="43.58974" lon="1.31992">
        <ele>190</ele>
        <time>2022-10-26T05:00:46Z</time>
      </trkpt>
      <trkpt lat="43.58979" lon="1.31989">
        <ele>190</ele>
        <time>2022-10-26T05:00:47Z</time>
      </trkpt>
      <trkpt lat="43.58983" lon="1.31985">
        <ele>190</ele>
        <time>2022-10-26T05:00:48Z</time>
      </trkpt>
      <trkpt lat="43.58987" lon="1.3198">
        <ele>190</ele>
        <time>2022-10-26T05:00:49Z</time>
      </trkpt>
      <trkpt lat="43.58991" lon="1.31976">
        <ele>190</ele>
        <time>2022-10-26T05:00:50Z</time>
      </trkpt>
      <trkpt lat="43.58995" lon="1.31972">
        <ele>190</ele>
        <time>2022-10-26T05:00:51Z</time>
      </trkpt>
      <trkpt lat="43.58999" lon="1.31968">
        <ele>190</ele>
        <time>2022-10-26T05:00:52Z</time>
      </trkpt>
      <trkpt lat="43.59003" lon="1.31963">
        <ele>190</ele>
        <time>2022-10-26T05:00:53Z</time>
      </trkpt>
      <trkpt lat="43.59007" lon="1.31959">
        <ele>190</ele>
        <time>2022-10-26T05:00:54Z</time>
      </trkpt>
      <trkpt lat="43.59012" lon="1.31955">
        <ele>190</ele>
        <time>2022-10-26T05:00:55Z</time>
      </trkpt>
      <trkpt lat="43.59016" lon="1.3195">
        <ele>190</ele>
        <time>2022-10-26T05:00:56Z</time>
      </trkpt>
      <trkpt lat="43.5902" lon="1.31946">
        <ele>190</ele>
        <time>2022-10-26T05:00:57Z</time>
      </trkpt>
      <trkpt lat="43.59024" lon="1.31942">
        <ele>190.2</ele>
        <time>2022-10-26T05:00:58Z</time>
      </trkpt>
      <trkpt lat="43.59028" lon="1.31937">
        <ele>190.2</ele>
        <time>2022-10-26T05:00:59Z</time>
      </trkpt>
      <trkpt lat="43.59031" lon="1.31932">
        <ele>190.2</ele>
        <time>2022-10-26T05:01:00Z</time>
      </trkpt>
      <trkpt lat="43.59035" lon="1.31926">
        <ele>190.2</ele>
        <time>2022-10-26T05:01:01Z</time>
      </trkpt>
      <trkpt lat="43.59038" lon="1.31921">
        <ele>190.2</ele>
        <time>2022-10-26T05:01:02Z</time>
      </trkpt>
      <trkpt lat="43.59041" lon="1.31915">
        <ele>190.2</ele>
        <time>2022-10-26T05:01:03Z</time>
      </trkpt>
      <trkpt lat="43.59044" lon="1.3191">
        <ele>190.2</ele>
        <time>2022-10-26T05:01:04Z</time>
      </trkpt>
      <trkpt lat="43.59047" lon="1.31904">
        <ele>190.2</ele>
        <time>2022-10-26T05:01:05Z</time>
      </trkpt>
      <trkpt lat="43.59051" lon="1.319">
        <ele>190.2</ele>
        <time>2022-10-26T05:01:06Z</time>
      </trkpt>
      <trkpt lat="43.59055" lon="1.31896">
        <ele>190.2</ele>
        <time>2022-10-26T05:01:07Z</time>
      </trkpt>
      <trkpt lat="43.5906" lon="1.31893">
        <ele>190.2</ele>
        <time>2022-10-26T05:01:08Z</time>
      </trkpt>
      <trkpt lat="43.59065" lon="1.3189">
        <ele>190.2</ele>
        <time>2022-10-26T05:01:09Z</time>
      </trkpt>
      <trkpt lat="43.59069" lon="1.31885">
        <ele>190.2</ele>
        <time>2022-10-26T05:01:10Z</time>
      </trkpt>
      <trkpt lat="43.59073" lon="1.3188">
        <ele>190.2</ele>
        <time>2022-10-26T05:01:11Z</time>
      </trkpt>
      <trkpt lat="43.59076" lon="1.31875">
        <ele>190.2</ele>
        <time>2022-10-26T05:01:12Z</time>
      </trkpt>
      <trkpt lat="43.5908" lon="1.31869">
        <ele>190.2</ele>
        <time>2022-10-26T05:01:13Z</time>
      </trkpt>
      <trkpt lat="43.59084" lon="1.31863">
        <ele>190.2</ele>
        <time>2022-10-26T05:01:14Z</time>
      </trkpt>
      <trkpt lat="43.59088" lon="1.31858">
        <ele>190</ele>
        <time>2022-10-26T05:01:15Z</time>
      </trkpt>
      <trkpt lat="43.59093" lon="1.31853">
        <ele>190</ele>
        <time>2022-10-26T05:01:16Z</time>
      </trkpt>
      <trkpt lat="43.59097" lon="1.31849">
        <ele>190</ele>
        <time>2022-10-26T05:01:17Z</time>
      </trkpt>
      <trkpt lat="43.59102" lon="1.31844">
        <ele>190</ele>
        <time>2022-10-26T05:01:18Z</time>
      </trkpt>
      <trkpt lat="43.59106" lon="1.3184">
        <ele>190</ele>
        <time>2022-10-26T05:01:19Z</time>
      </trkpt>
      <trkpt lat="43.59111" lon="1.31835">
        <ele>190</ele>
        <time>2022-10-26T05:01:20Z</time>
      </trkpt>
      <trkpt lat="43.59115" lon="1.31831">
        <ele>190</ele>
        <time>2022-10-26T05:01:21Z</time>
      </trkpt>
      <trkpt lat="43.5912" lon="1.31827">
        <ele>190</ele>
        <time>2022-10-26T05:01:22Z</time>
      </trkpt>
      <trkpt lat="43.59124" lon="1.31822">
        <ele>190</ele>
        <time>2022-10-26T05:01:23Z</time>
      </trkpt>
      <trkpt lat="43.59129" lon="1.31818">
        <ele>190</ele>
        <time>2022-10-26T05:01:24Z</time>
      </trkpt>
      <trkpt lat="43.59133" lon="1.31814">
        <ele>190</ele>
        <time>2022-10-26T05:01:25Z</time>
      </trkpt>
      <trkpt lat="43.59137" lon="1.3181">
        <ele>189.8</ele>
        <time>2022-10-26T05:01:26Z</time>
      </trkpt>
      <trkpt lat="43.59142" lon="1.31806">
        <ele>189.8</ele>
        <time>2022-10-26T05:01:27Z</time>
      </trkpt>
      <trkpt lat="43.59145" lon="1.31803">
        <ele>189.8</ele>
        <time>2022-10-26T05:01:28Z</time>
      </trkpt>
      <trkpt lat="43.59148" lon="1.31802">
        <ele>189.8</ele>
        <time>2022-10-26T05:01:29Z</time>
      </trkpt>
      <trkpt lat="43.59151" lon="1.31801">
        <ele>189.8</ele>
        <time>2022-10-26T05:01:30Z</time>
      </trkpt>
      <trkpt lat="43.59153" lon="1.318">
        <ele>189.8</ele>
        <time>2022-10-26T05:01:31Z</time>
      </trkpt>
      <trkpt lat="43.59156" lon="1.31798">
        <ele>189.8</ele>
        <time>2022-10-26T05:01:32Z</time>
      </trkpt>
      <trkpt lat="43.5916" lon="1.31796">
        <ele>189.8</ele>
        <time>2022-10-26T05:01:33Z</time>
      </trkpt>
      <trkpt lat="43.59163" lon="1.31794">
        <ele>189.8</ele>
        <time>2022-10-26T05:01:34Z</time>
      </trkpt>
      <trkpt lat="43.59167" lon="1.3179">
        <ele>189.8</ele>
        <time>2022-10-26T05:01:35Z</time>
      </trkpt>
      <trkpt lat="43.59171" lon="1.31787">
        <ele>189.8</ele>
        <time>2022-10-26T05:01:36Z</time>
      </trkpt>
      <trkpt lat="43.59176" lon="1.31785">
        <ele>189.8</ele>
        <time>2022-10-26T05:01:37Z</time>
      </trkpt>
      <trkpt lat="43.5918" lon="1.31783">
        <ele>189.8</ele>
        <time>2022-10-26T05:01:38Z</time>
      </trkpt>
      <trkpt lat="43.59186" lon="1.3178">
        <ele>189.8</ele>
        <time>2022-10-26T05:01:39Z</time>
      </trkpt>
      <trkpt lat="43.59191" lon="1.31778">
        <ele>189.8</ele>
        <time>2022-10-26T05:01:40Z</time>
      </trkpt>
      <trkpt lat="43.59196" lon="1.31776">
        <ele>189.8</ele>
        <time>2022-10-26T05:01:41Z</time>
      </trkpt>
      <trkpt lat="43.59201" lon="1.31774">
        <ele>189.8</ele>
        <time>2022-10-26T05:01:42Z</time>
      </trkpt>
      <trkpt lat="43.59206" lon="1.31773">
        <ele>189.8</ele>
        <time>2022-10-26T05:01:43Z</time>
      </trkpt>
      <trkpt lat="43.5921" lon="1.31771">
        <ele>189.8</ele>
        <time>2022-10-26T05:01:44Z</time>
      </trkpt>
      <trkpt lat="43.59215" lon="1.3177">
        <ele>190</ele>
        <time>2022-10-26T05:01:45Z</time>
      </trkpt>
      <trkpt lat="43.59218" lon="1.31768">
        <ele>190</ele>
        <time>2022-10-26T05:01:46Z</time>
      </trkpt>
      <trkpt lat="43.59221" lon="1.31767">
        <ele>190</ele>
        <time>2022-10-26T05:01:47Z</time>
      </trkpt>
      <trkpt lat="43.59224" lon="1.31766">
        <ele>190</ele>
        <time>2022-10-26T05:01:48Z</time>
      </trkpt>
      <trkpt lat="43.59228" lon="1.31764">
        <ele>190</ele>
        <time>2022-10-26T05:01:49Z</time>
      </trkpt>
      <trkpt lat="43.59231" lon="1.31762">
        <ele>190</ele>
        <time>2022-10-26T05:01:50Z</time>
      </trkpt>
      <trkpt lat="43.59235" lon="1.3176">
        <ele>190</ele>
        <time>2022-10-26T05:01:51Z</time>
      </trkpt>
      <trkpt lat="43.59238" lon="1.31758">
        <ele>190</ele>
        <time>2022-10-26T05:01:52Z</time>
      </trkpt>
      <trkpt lat="43.59242" lon="1.31758">
        <ele>190</ele>
        <time>2022-10-26T05:01:53Z</time>
      </trkpt>
      <trkpt lat="43.59245" lon="1.31759">
        <ele>189.8</ele>
        <time>2022-10-26T05:01:54Z</time>
      </trkpt>
      <trkpt lat="43.59248" lon="1.3176">
        <ele>189.8</ele>
        <time>2022-10-26T05:01:55Z</time>
      </trkpt>
      <trkpt lat="43.59251" lon="1.31761">
        <ele>189.8</ele>
        <time>2022-10-26T05:01:56Z</time>
      </trkpt>
      <trkpt lat="43.59255" lon="1.31763">
        <ele>189.6</ele>
        <time>2022-10-26T05:01:57Z</time>
      </trkpt>
      <trkpt lat="43.59259" lon="1.31766">
        <ele>189.6</ele>
        <time>2022-10-26T05:01:58Z</time>
      </trkpt>
      <trkpt lat="43.59263" lon="1.31768">
        <ele>189.6</ele>
        <time>2022-10-26T05:01:59Z</time>
      </trkpt>
      <trkpt lat="43.59268" lon="1.3177">
        <ele>189.6</ele>
        <time>2022-10-26T05:02:00Z</time>
      </trkpt>
      <trkpt lat="43.59272" lon="1.3177">
        <ele>189.6</ele>
        <time>2022-10-26T05:02:01Z</time>
      </trkpt>
      <trkpt lat="43.59276" lon="1.31771">
        <ele>189.4</ele>
        <time>2022-10-26T05:02:02Z</time>
      </trkpt>
      <trkpt lat="43.5928" lon="1.31772">
        <ele>189.4</ele>
        <time>2022-10-26T05:02:03Z</time>
      </trkpt>
      <trkpt lat="43.59284" lon="1.31773">
        <ele>189.4</ele>
        <time>2022-10-26T05:02:04Z</time>
      </trkpt>
      <trkpt lat="43.59289" lon="1.31775">
        <ele>189.2</ele>
        <time>2022-10-26T05:02:05Z</time>
      </trkpt>
      <trkpt lat="43.59293" lon="1.31778">
        <ele>189.2</ele>
        <time>2022-10-26T05:02:06Z</time>
      </trkpt>
      <trkpt lat="43.59296" lon="1.3178">
        <ele>189.2</ele>
        <time>2022-10-26T05:02:07Z</time>
      </trkpt>
      <trkpt lat="43.59301" lon="1.31782">
        <ele>189.4</ele>
        <time>2022-10-26T05:02:08Z</time>
      </trkpt>
      <trkpt lat="43.59306" lon="1.31785">
        <ele>189.4</ele>
        <time>2022-10-26T05:02:09Z</time>
      </trkpt>
      <trkpt lat="43.59311" lon="1.31787">
        <ele>189.4</ele>
        <time>2022-10-26T05:02:10Z</time>
      </trkpt>
      <trkpt lat="43.59317" lon="1.31788">
        <ele>189.4</ele>
        <time>2022-10-26T05:02:11Z</time>
      </trkpt>
      <trkpt lat="43.59321" lon="1.31789">
        <ele>189.4</ele>
        <time>2022-10-26T05:02:12Z</time>
      </trkpt>
      <trkpt lat="43.59325" lon="1.31789">
        <ele>189.4</ele>
        <time>2022-10-26T05:02:13Z</time>
      </trkpt>
      <trkpt lat="43.5933" lon="1.31789">
        <ele>189.4</ele>
        <time>2022-10-26T05:02:14Z</time>
      </trkpt>
      <trkpt lat="43.59334" lon="1.31787">
        <ele>189.4</ele>
        <time>2022-10-26T05:02:15Z</time>
      </trkpt>
      <trkpt lat="43.59337" lon="1.31784">
        <ele>189.4</ele>
        <time>2022-10-26T05:02:16Z</time>
      </trkpt>
      <trkpt lat="43.59339" lon="1.31782">
        <ele>189.4</ele>
        <time>2022-10-26T05:02:17Z</time>
      </trkpt>
      <trkpt lat="43.59342" lon="1.31778">
        <ele>189.4</ele>
        <time>2022-10-26T05:02:18Z</time>
      </trkpt>
      <trkpt lat="43.59344" lon="1.31776">
        <ele>189.4</ele>
        <time>2022-10-26T05:02:19Z</time>
      </trkpt>
      <trkpt lat="43.59347" lon="1.31772">
        <ele>189.4</ele>
        <time>2022-10-26T05:02:20Z</time>
      </trkpt>
      <trkpt lat="43.59351" lon="1.31769">
        <ele>189.4</ele>
        <time>2022-10-26T05:02:21Z</time>
      </trkpt>
      <trkpt lat="43.59353" lon="1.31767">
        <ele>189.4</ele>
        <time>2022-10-26T05:02:22Z</time>
      </trkpt>
      <trkpt lat="43.59356" lon="1.31765">
        <ele>189.4</ele>
        <time>2022-10-26T05:02:23Z</time>
      </trkpt>
      <trkpt lat="43.5936" lon="1.31761">
        <ele>189.6</ele>
        <time>2022-10-26T05:02:24Z</time>
      </trkpt>
      <trkpt lat="43.59363" lon="1.31758">
        <ele>189.6</ele>
        <time>2022-10-26T05:02:25Z</time>
      </trkpt>
      <trkpt lat="43.59367" lon="1.31755">
        <ele>189.6</ele>
        <time>2022-10-26T05:02:26Z</time>
      </trkpt>
      <trkpt lat="43.59371" lon="1.31752">
        <ele>189.6</ele>
        <time>2022-10-26T05:02:27Z</time>
      </trkpt>
      <trkpt lat="43.59374" lon="1.3175">
        <ele>189.6</ele>
        <time>2022-10-26T05:02:28Z</time>
      </trkpt>
      <trkpt lat="43.59379" lon="1.31746">
        <ele>189.8</ele>
        <time>2022-10-26T05:02:29Z</time>
      </trkpt>
      <trkpt lat="43.59383" lon="1.31742">
        <ele>189.8</ele>
        <time>2022-10-26T05:02:30Z</time>
      </trkpt>
      <trkpt lat="43.59386" lon="1.31739">
        <ele>189.8</ele>
        <time>2022-10-26T05:02:31Z</time>
      </trkpt>
      <trkpt lat="43.59391" lon="1.31736">
        <ele>189.8</ele>
        <time>2022-10-26T05:02:32Z</time>
      </trkpt>
      <trkpt lat="43.59396" lon="1.31735">
        <ele>189.8</ele>
        <time>2022-10-26T05:02:33Z</time>
      </trkpt>
      <trkpt lat="43.59401" lon="1.31734">
        <ele>190</ele>
        <time>2022-10-26T05:02:34Z</time>
      </trkpt>
      <trkpt lat="43.59406" lon="1.31734">
        <ele>190</ele>
        <time>2022-10-26T05:02:35Z</time>
      </trkpt>
      <trkpt lat="43.59411" lon="1.31735">
        <ele>190</ele>
        <time>2022-10-26T05:02:36Z</time>
      </trkpt>
      <trkpt lat="43.59415" lon="1.31735">
        <ele>190</ele>
        <time>2022-10-26T05:02:37Z</time>
      </trkpt>
      <trkpt lat="43.5942" lon="1.31733">
        <ele>190</ele>
        <time>2022-10-26T05:02:38Z</time>
      </trkpt>
      <trkpt lat="43.59424" lon="1.31731">
        <ele>190</ele>
        <time>2022-10-26T05:02:39Z</time>
      </trkpt>
      <trkpt lat="43.59429" lon="1.3173">
        <ele>190</ele>
        <time>2022-10-26T05:02:40Z</time>
      </trkpt>
      <trkpt lat="43.59434" lon="1.3173">
        <ele>190</ele>
        <time>2022-10-26T05:02:41Z</time>
      </trkpt>
      <trkpt lat="43.59439" lon="1.3173">
        <ele>190</ele>
        <time>2022-10-26T05:02:42Z</time>
      </trkpt>
      <trkpt lat="43.59444" lon="1.31731">
        <ele>189.8</ele>
        <time>2022-10-26T05:02:43Z</time>
      </trkpt>
      <trkpt lat="43.59448" lon="1.31731">
        <ele>189.8</ele>
        <time>2022-10-26T05:02:44Z</time>
      </trkpt>
      <trkpt lat="43.59453" lon="1.31732">
        <ele>189.8</ele>
        <time>2022-10-26T05:02:45Z</time>
      </trkpt>
      <trkpt lat="43.59458" lon="1.31732">
        <ele>189.6</ele>
        <time>2022-10-26T05:02:46Z</time>
      </trkpt>
      <trkpt lat="43.59462" lon="1.31733">
        <ele>189.6</ele>
        <time>2022-10-26T05:02:47Z</time>
      </trkpt>
      <trkpt lat="43.59467" lon="1.31733">
        <ele>189.6</ele>
        <time>2022-10-26T05:02:48Z</time>
      </trkpt>
      <trkpt lat="43.59472" lon="1.31734">
        <ele>189.6</ele>
        <time>2022-10-26T05:02:49Z</time>
      </trkpt>
      <trkpt lat="43.59475" lon="1.31733">
        <ele>189.6</ele>
        <time>2022-10-26T05:02:50Z</time>
      </trkpt>
      <trkpt lat="43.5948" lon="1.31733">
        <ele>189.4</ele>
        <time>2022-10-26T05:02:51Z</time>
      </trkpt>
      <trkpt lat="43.59484" lon="1.31734">
        <ele>189.4</ele>
        <time>2022-10-26T05:02:52Z</time>
      </trkpt>
      <trkpt lat="43.59487" lon="1.31735">
        <ele>189.2</ele>
        <time>2022-10-26T05:02:53Z</time>
      </trkpt>
      <trkpt lat="43.59489" lon="1.31738">
        <ele>189.2</ele>
        <time>2022-10-26T05:02:54Z</time>
      </trkpt>
      <trkpt lat="43.59489" lon="1.3174">
        <ele>189.2</ele>
        <time>2022-10-26T05:02:55Z</time>
      </trkpt>
      <trkpt lat="43.5949" lon="1.31743">
        <ele>189.2</ele>
        <time>2022-10-26T05:02:56Z</time>
      </trkpt>
      <trkpt lat="43.5949" lon="1.31744">
        <ele>189.2</ele>
        <time>2022-10-26T05:02:57Z</time>
      </trkpt>
      <trkpt lat="43.5949" lon="1.31745">
        <ele>189</ele>
        <time>2022-10-26T05:02:58Z</time>
      </trkpt>
      <trkpt lat="43.5949" lon="1.31745">
        <ele>189</ele>
        <time>2022-10-26T05:02:59Z</time>
      </trkpt>
      <trkpt lat="43.5949" lon="1.31748">
        <ele>187.4</ele>
        <time>2022-10-26T05:03:51Z</time>
      </trkpt>
      <trkpt lat="43.59489" lon="1.31753">
        <ele>187.2</ele>
        <time>2022-10-26T05:03:52Z</time>
      </trkpt>
      <trkpt lat="43.5949" lon="1.31757">
        <ele>187.2</ele>
        <time>2022-10-26T05:03:53Z</time>
      </trkpt>
      <trkpt lat="43.5949" lon="1.31762">
        <ele>187.2</ele>
        <time>2022-10-26T05:03:54Z</time>
      </trkpt>
      <trkpt lat="43.5949" lon="1.31766">
        <ele>187.2</ele>
        <time>2022-10-26T05:03:55Z</time>
      </trkpt>
      <trkpt lat="43.5949" lon="1.31771">
        <ele>187</ele>
        <time>2022-10-26T05:03:56Z</time>
      </trkpt>
      <trkpt lat="43.5949" lon="1.31776">
        <ele>187</ele>
        <time>2022-10-26T05:03:57Z</time>
      </trkpt>
      <trkpt lat="43.5949" lon="1.31782">
        <ele>187</ele>
        <time>2022-10-26T05:03:58Z</time>
      </trkpt>
      <trkpt lat="43.5949" lon="1.31787">
        <ele>187</ele>
        <time>2022-10-26T05:03:59Z</time>
      </trkpt>
      <trkpt lat="43.5949" lon="1.31791">
        <ele>187</ele>
        <time>2022-10-26T05:04:00Z</time>
      </trkpt>
      <trkpt lat="43.5949" lon="1.31797">
        <ele>187</ele>
        <time>2022-10-26T05:04:01Z</time>
      </trkpt>
      <trkpt lat="43.5949" lon="1.31804">
        <ele>187.2</ele>
        <time>2022-10-26T05:04:02Z</time>
      </trkpt>
      <trkpt lat="43.59489" lon="1.31811">
        <ele>187.2</ele>
        <time>2022-10-26T05:04:03Z</time>
      </trkpt>
      <trkpt lat="43.59489" lon="1.31817">
        <ele>187.2</ele>
        <time>2022-10-26T05:04:04Z</time>
      </trkpt>
      <trkpt lat="43.59488" lon="1.31822">
        <ele>187.2</ele>
        <time>2022-10-26T05:04:05Z</time>
      </trkpt>
      <trkpt lat="43.59488" lon="1.3183">
        <ele>187.2</ele>
        <time>2022-10-26T05:04:06Z</time>
      </trkpt>
      <trkpt lat="43.59488" lon="1.31837">
        <ele>187.2</ele>
        <time>2022-10-26T05:04:07Z</time>
      </trkpt>
      <trkpt lat="43.59488" lon="1.31843">
        <ele>187.2</ele>
        <time>2022-10-26T05:04:08Z</time>
      </trkpt>
      <trkpt lat="43.59488" lon="1.31848">
        <ele>187.2</ele>
        <time>2022-10-26T05:04:09Z</time>
      </trkpt>
      <trkpt lat="43.59488" lon="1.31854">
        <ele>187.4</ele>
        <time>2022-10-26T05:04:10Z</time>
      </trkpt>
      <trkpt lat="43.59488" lon="1.31862">
        <ele>187.6</ele>
        <time>2022-10-26T05:04:11Z</time>
      </trkpt>
      <trkpt lat="43.59488" lon="1.31869">
        <ele>187.6</ele>
        <time>2022-10-26T05:04:12Z</time>
      </trkpt>
      <trkpt lat="43.59487" lon="1.31874">
        <ele>187.6</ele>
        <time>2022-10-26T05:04:13Z</time>
      </trkpt>
      <trkpt lat="43.59487" lon="1.31881">
        <ele>187.6</ele>
        <time>2022-10-26T05:04:14Z</time>
      </trkpt>
      <trkpt lat="43.59488" lon="1.31889">
        <ele>187.6</ele>
        <time>2022-10-26T05:04:15Z</time>
      </trkpt>
      <trkpt lat="43.59489" lon="1.31895">
        <ele>187.6</ele>
        <time>2022-10-26T05:04:16Z</time>
      </trkpt>
      <trkpt lat="43.59491" lon="1.31902">
        <ele>187.6</ele>
        <time>2022-10-26T05:04:17Z</time>
      </trkpt>
      <trkpt lat="43.59492" lon="1.31907">
        <ele>187.4</ele>
        <time>2022-10-26T05:04:18Z</time>
      </trkpt>
      <trkpt lat="43.59494" lon="1.31913">
        <ele>187.4</ele>
        <time>2022-10-26T05:04:19Z</time>
      </trkpt>
      <trkpt lat="43.59496" lon="1.3192">
        <ele>187.4</ele>
        <time>2022-10-26T05:04:20Z</time>
      </trkpt>
      <trkpt lat="43.59499" lon="1.31926">
        <ele>187.4</ele>
        <time>2022-10-26T05:04:21Z</time>
      </trkpt>
      <trkpt lat="43.59502" lon="1.31932">
        <ele>187.4</ele>
        <time>2022-10-26T05:04:22Z</time>
      </trkpt>
      <trkpt lat="43.59504" lon="1.31937">
        <ele>187.4</ele>
        <time>2022-10-26T05:04:23Z</time>
      </trkpt>
      <trkpt lat="43.59507" lon="1.31942">
        <ele>187.8</ele>
        <time>2022-10-26T05:04:24Z</time>
      </trkpt>
      <trkpt lat="43.5951" lon="1.31948">
        <ele>187.6</ele>
        <time>2022-10-26T05:04:25Z</time>
      </trkpt>
      <trkpt lat="43.59514" lon="1.31954">
        <ele>187.6</ele>
        <time>2022-10-26T05:04:26Z</time>
      </trkpt>
      <trkpt lat="43.59516" lon="1.31959">
        <ele>187.4</ele>
        <time>2022-10-26T05:04:27Z</time>
      </trkpt>
      <trkpt lat="43.59519" lon="1.31965">
        <ele>187.6</ele>
        <time>2022-10-26T05:04:28Z</time>
      </trkpt>
      <trkpt lat="43.59522" lon="1.31971">
        <ele>187.4</ele>
        <time>2022-10-26T05:04:29Z</time>
      </trkpt>
      <trkpt lat="43.59526" lon="1.31975">
        <ele>187.4</ele>
        <time>2022-10-26T05:04:30Z</time>
      </trkpt>
      <trkpt lat="43.59531" lon="1.31978">
        <ele>187.4</ele>
        <time>2022-10-26T05:04:31Z</time>
      </trkpt>
      <trkpt lat="43.59535" lon="1.31981">
        <ele>187.4</ele>
        <time>2022-10-26T05:04:32Z</time>
      </trkpt>
      <trkpt lat="43.59539" lon="1.31983">
        <ele>187.4</ele>
        <time>2022-10-26T05:04:33Z</time>
      </trkpt>
      <trkpt lat="43.59545" lon="1.31987">
        <ele>187.4</ele>
        <time>2022-10-26T05:04:34Z</time>
      </trkpt>
      <trkpt lat="43.5955" lon="1.3199">
        <ele>187.4</ele>
        <time>2022-10-26T05:04:35Z</time>
      </trkpt>
      <trkpt lat="43.59555" lon="1.31993">
        <ele>187.4</ele>
        <time>2022-10-26T05:04:36Z</time>
      </trkpt>
      <trkpt lat="43.59559" lon="1.31994">
        <ele>187.4</ele>
        <time>2022-10-26T05:04:37Z</time>
      </trkpt>
      <trkpt lat="43.59564" lon="1.31994">
        <ele>187.4</ele>
        <time>2022-10-26T05:04:38Z</time>
      </trkpt>
      <trkpt lat="43.59569" lon="1.31993">
        <ele>187.4</ele>
        <time>2022-10-26T05:04:39Z</time>
      </trkpt>
      <trkpt lat="43.59574" lon="1.31993">
        <ele>187.4</ele>
        <time>2022-10-26T05:04:40Z</time>
      </trkpt>
      <trkpt lat="43.59579" lon="1.31994">
        <ele>187.4</ele>
        <time>2022-10-26T05:04:41Z</time>
      </trkpt>
      <trkpt lat="43.59584" lon="1.31996">
        <ele>187.4</ele>
        <time>2022-10-26T05:04:42Z</time>
      </trkpt>
      <trkpt lat="43.59587" lon="1.32001">
        <ele>187.4</ele>
        <time>2022-10-26T05:04:43Z</time>
      </trkpt>
      <trkpt lat="43.5959" lon="1.32007">
        <ele>187.4</ele>
        <time>2022-10-26T05:04:44Z</time>
      </trkpt>
      <trkpt lat="43.59592" lon="1.32013">
        <ele>187.4</ele>
        <time>2022-10-26T05:04:45Z</time>
      </trkpt>
      <trkpt lat="43.59594" lon="1.32019">
        <ele>187.4</ele>
        <time>2022-10-26T05:04:46Z</time>
      </trkpt>
      <trkpt lat="43.59597" lon="1.32023">
        <ele>187.4</ele>
        <time>2022-10-26T05:04:47Z</time>
      </trkpt>
      <trkpt lat="43.59602" lon="1.32028">
        <ele>187.4</ele>
        <time>2022-10-26T05:04:48Z</time>
      </trkpt>
      <trkpt lat="43.59607" lon="1.32032">
        <ele>187.4</ele>
        <time>2022-10-26T05:04:49Z</time>
      </trkpt>
      <trkpt lat="43.59611" lon="1.32035">
        <ele>187.4</ele>
        <time>2022-10-26T05:04:50Z</time>
      </trkpt>
      <trkpt lat="43.59616" lon="1.32038">
        <ele>187.4</ele>
        <time>2022-10-26T05:04:51Z</time>
      </trkpt>
      <trkpt lat="43.59622" lon="1.32042">
        <ele>187.4</ele>
        <time>2022-10-26T05:04:52Z</time>
      </trkpt>
      <trkpt lat="43.59627" lon="1.32046">
        <ele>187.4</ele>
        <time>2022-10-26T05:04:53Z</time>
      </trkpt>
      <trkpt lat="43.59632" lon="1.3205">
        <ele>187.4</ele>
        <time>2022-10-26T05:04:54Z</time>
      </trkpt>
      <trkpt lat="43.59636" lon="1.32053">
        <ele>187.4</ele>
        <time>2022-10-26T05:04:55Z</time>
      </trkpt>
      <trkpt lat="43.59641" lon="1.32056">
        <ele>187.4</ele>
        <time>2022-10-26T05:04:56Z</time>
      </trkpt>
      <trkpt lat="43.59646" lon="1.3206">
        <ele>187.4</ele>
        <time>2022-10-26T05:04:57Z</time>
      </trkpt>
      <trkpt lat="43.59651" lon="1.32064">
        <ele>187.4</ele>
        <time>2022-10-26T05:04:58Z</time>
      </trkpt>
      <trkpt lat="43.59656" lon="1.32067">
        <ele>187.4</ele>
        <time>2022-10-26T05:04:59Z</time>
      </trkpt>
      <trkpt lat="43.5966" lon="1.32071">
        <ele>187.4</ele>
        <time>2022-10-26T05:05:00Z</time>
      </trkpt>
      <trkpt lat="43.59665" lon="1.32074">
        <ele>187.4</ele>
        <time>2022-10-26T05:05:01Z</time>
      </trkpt>
      <trkpt lat="43.59671" lon="1.32079">
        <ele>187.6</ele>
        <time>2022-10-26T05:05:02Z</time>
      </trkpt>
      <trkpt lat="43.59676" lon="1.32083">
        <ele>187.6</ele>
        <time>2022-10-26T05:05:03Z</time>
      </trkpt>
      <trkpt lat="43.59681" lon="1.32087">
        <ele>187.6</ele>
        <time>2022-10-26T05:05:04Z</time>
      </trkpt>
      <trkpt lat="43.59686" lon="1.3209">
        <ele>187.8</ele>
        <time>2022-10-26T05:05:05Z</time>
      </trkpt>
      <trkpt lat="43.59692" lon="1.32094">
        <ele>187.8</ele>
        <time>2022-10-26T05:05:06Z</time>
      </trkpt>
      <trkpt lat="43.59698" lon="1.32098">
        <ele>187.8</ele>
        <time>2022-10-26T05:05:07Z</time>
      </trkpt>
      <trkpt lat="43.59703" lon="1.32102">
        <ele>188</ele>
        <time>2022-10-26T05:05:08Z</time>
      </trkpt>
      <trkpt lat="43.59707" lon="1.32105">
        <ele>188</ele>
        <time>2022-10-26T05:05:09Z</time>
      </trkpt>
      <trkpt lat="43.59713" lon="1.3211">
        <ele>188.2</ele>
        <time>2022-10-26T05:05:10Z</time>
      </trkpt>
      <trkpt lat="43.59718" lon="1.32114">
        <ele>188.2</ele>
        <time>2022-10-26T05:05:11Z</time>
      </trkpt>
      <trkpt lat="43.59723" lon="1.32118">
        <ele>188.2</ele>
        <time>2022-10-26T05:05:12Z</time>
      </trkpt>
      <trkpt lat="43.59729" lon="1.32122">
        <ele>188.2</ele>
        <time>2022-10-26T05:05:13Z</time>
      </trkpt>
      <trkpt lat="43.59733" lon="1.32125">
        <ele>188.2</ele>
        <time>2022-10-26T05:05:14Z</time>
      </trkpt>
      <trkpt lat="43.59739" lon="1.3213">
        <ele>188.2</ele>
        <time>2022-10-26T05:05:15Z</time>
      </trkpt>
      <trkpt lat="43.59745" lon="1.32134">
        <ele>188.2</ele>
        <time>2022-10-26T05:05:16Z</time>
      </trkpt>
      <trkpt lat="43.5975" lon="1.32137">
        <ele>188.2</ele>
        <time>2022-10-26T05:05:17Z</time>
      </trkpt>
      <trkpt lat="43.59754" lon="1.32141">
        <ele>188.2</ele>
        <time>2022-10-26T05:05:18Z</time>
      </trkpt>
      <trkpt lat="43.5976" lon="1.32144">
        <ele>188.2</ele>
        <time>2022-10-26T05:05:19Z</time>
      </trkpt>
      <trkpt lat="43.59766" lon="1.32148">
        <ele>188.2</ele>
        <time>2022-10-26T05:05:20Z</time>
      </trkpt>
      <trkpt lat="43.5977" lon="1.32149">
        <ele>188.2</ele>
        <time>2022-10-26T05:05:21Z</time>
      </trkpt>
      <trkpt lat="43.59775" lon="1.32148">
        <ele>188.2</ele>
        <time>2022-10-26T05:05:22Z</time>
      </trkpt>
      <trkpt lat="43.59779" lon="1.32148">
        <ele>188.2</ele>
        <time>2022-10-26T05:05:23Z</time>
      </trkpt>
      <trkpt lat="43.59783" lon="1.32148">
        <ele>188.2</ele>
        <time>2022-10-26T05:05:24Z</time>
      </trkpt>
      <trkpt lat="43.59788" lon="1.32151">
        <ele>188.2</ele>
        <time>2022-10-26T05:05:25Z</time>
      </trkpt>
      <trkpt lat="43.5979" lon="1.32156">
        <ele>188.2</ele>
        <time>2022-10-26T05:05:26Z</time>
      </trkpt>
      <trkpt lat="43.59791" lon="1.32162">
        <ele>188</ele>
        <time>2022-10-26T05:05:27Z</time>
      </trkpt>
      <trkpt lat="43.59794" lon="1.32166">
        <ele>188</ele>
        <time>2022-10-26T05:05:28Z</time>
      </trkpt>
      <trkpt lat="43.59797" lon="1.32171">
        <ele>188</ele>
        <time>2022-10-26T05:05:29Z</time>
      </trkpt>
      <trkpt lat="43.59803" lon="1.32175">
        <ele>188</ele>
        <time>2022-10-26T05:05:30Z</time>
      </trkpt>
      <trkpt lat="43.59807" lon="1.32179">
        <ele>188</ele>
        <time>2022-10-26T05:05:31Z</time>
      </trkpt>
      <trkpt lat="43.59811" lon="1.32184">
        <ele>188</ele>
        <time>2022-10-26T05:05:32Z</time>
      </trkpt>
      <trkpt lat="43.59815" lon="1.32188">
        <ele>188</ele>
        <time>2022-10-26T05:05:33Z</time>
      </trkpt>
      <trkpt lat="43.59819" lon="1.32194">
        <ele>188</ele>
        <time>2022-10-26T05:05:34Z</time>
      </trkpt>
      <trkpt lat="43.59823" lon="1.32199">
        <ele>188</ele>
        <time>2022-10-26T05:05:35Z</time>
      </trkpt>
      <trkpt lat="43.59828" lon="1.32204">
        <ele>188</ele>
        <time>2022-10-26T05:05:36Z</time>
      </trkpt>
      <trkpt lat="43.59832" lon="1.32207">
        <ele>188</ele>
        <time>2022-10-26T05:05:37Z</time>
      </trkpt>
      <trkpt lat="43.59839" lon="1.3221">
        <ele>188</ele>
        <time>2022-10-26T05:05:38Z</time>
      </trkpt>
      <trkpt lat="43.59845" lon="1.32213">
        <ele>187.8</ele>
        <time>2022-10-26T05:05:39Z</time>
      </trkpt>
      <trkpt lat="43.59851" lon="1.32214">
        <ele>187.8</ele>
        <time>2022-10-26T05:05:40Z</time>
      </trkpt>
      <trkpt lat="43.59855" lon="1.32215">
        <ele>187.8</ele>
        <time>2022-10-26T05:05:41Z</time>
      </trkpt>
      <trkpt lat="43.59861" lon="1.32216">
        <ele>187.8</ele>
        <time>2022-10-26T05:05:42Z</time>
      </trkpt>
      <trkpt lat="43.59868" lon="1.32217">
        <ele>187.8</ele>
        <time>2022-10-26T05:05:43Z</time>
      </trkpt>
      <trkpt lat="43.59874" lon="1.32218">
        <ele>187.8</ele>
        <time>2022-10-26T05:05:44Z</time>
      </trkpt>
      <trkpt lat="43.5988" lon="1.32218">
        <ele>187.8</ele>
        <time>2022-10-26T05:05:45Z</time>
      </trkpt>
      <trkpt lat="43.59885" lon="1.32219">
        <ele>187.8</ele>
        <time>2022-10-26T05:05:46Z</time>
      </trkpt>
      <trkpt lat="43.59891" lon="1.3222">
        <ele>187.8</ele>
        <time>2022-10-26T05:05:47Z</time>
      </trkpt>
      <trkpt lat="43.59899" lon="1.32221">
        <ele>187.8</ele>
        <time>2022-10-26T05:05:48Z</time>
      </trkpt>
      <trkpt lat="43.59905" lon="1.32222">
        <ele>187.8</ele>
        <time>2022-10-26T05:05:49Z</time>
      </trkpt>
      <trkpt lat="43.59911" lon="1.32222">
        <ele>187.8</ele>
        <time>2022-10-26T05:05:50Z</time>
      </trkpt>
      <trkpt lat="43.59916" lon="1.32223">
        <ele>187.8</ele>
        <time>2022-10-26T05:05:51Z</time>
      </trkpt>
      <trkpt lat="43.59922" lon="1.32224">
        <ele>187.8</ele>
        <time>2022-10-26T05:05:52Z</time>
      </trkpt>
      <trkpt lat="43.59929" lon="1.32225">
        <ele>187.8</ele>
        <time>2022-10-26T05:05:53Z</time>
      </trkpt>
      <trkpt lat="43.59935" lon="1.32225">
        <ele>187.8</ele>
        <time>2022-10-26T05:05:54Z</time>
      </trkpt>
      <trkpt lat="43.5994" lon="1.32226">
        <ele>187.6</ele>
        <time>2022-10-26T05:05:55Z</time>
      </trkpt>
      <trkpt lat="43.59946" lon="1.32226">
        <ele>187.6</ele>
        <time>2022-10-26T05:05:56Z</time>
      </trkpt>
      <trkpt lat="43.59951" lon="1.32227">
        <ele>187.6</ele>
        <time>2022-10-26T05:05:57Z</time>
      </trkpt>
      <trkpt lat="43.59956" lon="1.32229">
        <ele>187.6</ele>
        <time>2022-10-26T05:05:58Z</time>
      </trkpt>
      <trkpt lat="43.59962" lon="1.32231">
        <ele>187.4</ele>
        <time>2022-10-26T05:05:59Z</time>
      </trkpt>
      <trkpt lat="43.59967" lon="1.32234">
        <ele>187.4</ele>
        <time>2022-10-26T05:06:00Z</time>
      </trkpt>
      <trkpt lat="43.5997" lon="1.32236">
        <ele>187.4</ele>
        <time>2022-10-26T05:06:01Z</time>
      </trkpt>
      <trkpt lat="43.59976" lon="1.32242">
        <ele>187.4</ele>
        <time>2022-10-26T05:06:02Z</time>
      </trkpt>
      <trkpt lat="43.5998" lon="1.32246">
        <ele>187.4</ele>
        <time>2022-10-26T05:06:03Z</time>
      </trkpt>
      <trkpt lat="43.59984" lon="1.32251">
        <ele>187.4</ele>
        <time>2022-10-26T05:06:04Z</time>
      </trkpt>
      <trkpt lat="43.59987" lon="1.32255">
        <ele>187.4</ele>
        <time>2022-10-26T05:06:05Z</time>
      </trkpt>
      <trkpt lat="43.59991" lon="1.3226">
        <ele>187.4</ele>
        <time>2022-10-26T05:06:06Z</time>
      </trkpt>
      <trkpt lat="43.59995" lon="1.32263">
        <ele>187.4</ele>
        <time>2022-10-26T05:06:07Z</time>
      </trkpt>
      <trkpt lat="43.59999" lon="1.32266">
        <ele>187.4</ele>
        <time>2022-10-26T05:06:08Z</time>
      </trkpt>
      <trkpt lat="43.60003" lon="1.32269">
        <ele>187.4</ele>
        <time>2022-10-26T05:06:09Z</time>
      </trkpt>
      <trkpt lat="43.60007" lon="1.32269">
        <ele>187.4</ele>
        <time>2022-10-26T05:06:10Z</time>
      </trkpt>
      <trkpt lat="43.60012" lon="1.32269">
        <ele>187.4</ele>
        <time>2022-10-26T05:06:11Z</time>
      </trkpt>
      <trkpt lat="43.60017" lon="1.32269">
        <ele>187.4</ele>
        <time>2022-10-26T05:06:12Z</time>
      </trkpt>
      <trkpt lat="43.60022" lon="1.32269">
        <ele>187.4</ele>
        <time>2022-10-26T05:06:13Z</time>
      </trkpt>
      <trkpt lat="43.60027" lon="1.32268">
        <ele>187.4</ele>
        <time>2022-10-26T05:06:14Z</time>
      </trkpt>
      <trkpt lat="43.60031" lon="1.32267">
        <ele>187.4</ele>
        <time>2022-10-26T05:06:15Z</time>
      </trkpt>
      <trkpt lat="43.60036" lon="1.32265">
        <ele>187.4</ele>
        <time>2022-10-26T05:06:16Z</time>
      </trkpt>
      <trkpt lat="43.6004" lon="1.32263">
        <ele>187.4</ele>
        <time>2022-10-26T05:06:17Z</time>
      </trkpt>
      <trkpt lat="43.60045" lon="1.32262">
        <ele>187.4</ele>
        <time>2022-10-26T05:06:18Z</time>
      </trkpt>
      <trkpt lat="43.60048" lon="1.32264">
        <ele>187.4</ele>
        <time>2022-10-26T05:06:19Z</time>
      </trkpt>
      <trkpt lat="43.60051" lon="1.32268">
        <ele>187.4</ele>
        <time>2022-10-26T05:06:20Z</time>
      </trkpt>
      <trkpt lat="43.60052" lon="1.32273">
        <ele>187.6</ele>
        <time>2022-10-26T05:06:21Z</time>
      </trkpt>
      <trkpt lat="43.60051" lon="1.32278">
        <ele>187.4</ele>
        <time>2022-10-26T05:06:22Z</time>
      </trkpt>
      <trkpt lat="43.60051" lon="1.32283">
        <ele>187.4</ele>
        <time>2022-10-26T05:06:23Z</time>
      </trkpt>
      <trkpt lat="43.6005" lon="1.32289">
        <ele>187.4</ele>
        <time>2022-10-26T05:06:24Z</time>
      </trkpt>
      <trkpt lat="43.60051" lon="1.32296">
        <ele>187.4</ele>
        <time>2022-10-26T05:06:25Z</time>
      </trkpt>
      <trkpt lat="43.60051" lon="1.32304">
        <ele>187.4</ele>
        <time>2022-10-26T05:06:26Z</time>
      </trkpt>
      <trkpt lat="43.60052" lon="1.32311">
        <ele>187.4</ele>
        <time>2022-10-26T05:06:27Z</time>
      </trkpt>
      <trkpt lat="43.60053" lon="1.32316">
        <ele>187.4</ele>
        <time>2022-10-26T05:06:28Z</time>
      </trkpt>
      <trkpt lat="43.60054" lon="1.32324">
        <ele>187.6</ele>
        <time>2022-10-26T05:06:29Z</time>
      </trkpt>
      <trkpt lat="43.60055" lon="1.3233">
        <ele>187.6</ele>
        <time>2022-10-26T05:06:30Z</time>
      </trkpt>
      <trkpt lat="43.60057" lon="1.32335">
        <ele>187.6</ele>
        <time>2022-10-26T05:06:31Z</time>
      </trkpt>
      <trkpt lat="43.60059" lon="1.32339">
        <ele>187.6</ele>
        <time>2022-10-26T05:06:32Z</time>
      </trkpt>
      <trkpt lat="43.60063" lon="1.32344">
        <ele>187.4</ele>
        <time>2022-10-26T05:06:33Z</time>
      </trkpt>
      <trkpt lat="43.60067" lon="1.32349">
        <ele>187.4</ele>
        <time>2022-10-26T05:06:34Z</time>
      </trkpt>
      <trkpt lat="43.60071" lon="1.32353">
        <ele>187.4</ele>
        <time>2022-10-26T05:06:35Z</time>
      </trkpt>
      <trkpt lat="43.60075" lon="1.32358">
        <ele>187.4</ele>
        <time>2022-10-26T05:06:36Z</time>
      </trkpt>
      <trkpt lat="43.60079" lon="1.32362">
        <ele>187.4</ele>
        <time>2022-10-26T05:06:37Z</time>
      </trkpt>
      <trkpt lat="43.60083" lon="1.32367">
        <ele>187.2</ele>
        <time>2022-10-26T05:06:38Z</time>
      </trkpt>
      <trkpt lat="43.60089" lon="1.32374">
        <ele>187.2</ele>
        <time>2022-10-26T05:06:39Z</time>
      </trkpt>
      <trkpt lat="43.60094" lon="1.32379">
        <ele>187</ele>
        <time>2022-10-26T05:06:40Z</time>
      </trkpt>
      <trkpt lat="43.60098" lon="1.32384">
        <ele>187</ele>
        <time>2022-10-26T05:06:41Z</time>
      </trkpt>
      <trkpt lat="43.60103" lon="1.32389">
        <ele>187</ele>
        <time>2022-10-26T05:06:42Z</time>
      </trkpt>
      <trkpt lat="43.60107" lon="1.32395">
        <ele>186.8</ele>
        <time>2022-10-26T05:06:43Z</time>
      </trkpt>
      <trkpt lat="43.60112" lon="1.32401">
        <ele>186.8</ele>
        <time>2022-10-26T05:06:44Z</time>
      </trkpt>
      <trkpt lat="43.60116" lon="1.32406">
        <ele>186.6</ele>
        <time>2022-10-26T05:06:45Z</time>
      </trkpt>
      <trkpt lat="43.60121" lon="1.32412">
        <ele>186.6</ele>
        <time>2022-10-26T05:06:46Z</time>
      </trkpt>
      <trkpt lat="43.60125" lon="1.32416">
        <ele>186.6</ele>
        <time>2022-10-26T05:06:47Z</time>
      </trkpt>
      <trkpt lat="43.6013" lon="1.32422">
        <ele>186.6</ele>
        <time>2022-10-26T05:06:48Z</time>
      </trkpt>
      <trkpt lat="43.60135" lon="1.32427">
        <ele>186.4</ele>
        <time>2022-10-26T05:06:49Z</time>
      </trkpt>
      <trkpt lat="43.6014" lon="1.32433">
        <ele>186.4</ele>
        <time>2022-10-26T05:06:50Z</time>
      </trkpt>
      <trkpt lat="43.60143" lon="1.32437">
        <ele>186.4</ele>
        <time>2022-10-26T05:06:51Z</time>
      </trkpt>
      <trkpt lat="43.60149" lon="1.32444">
        <ele>186.4</ele>
        <time>2022-10-26T05:06:52Z</time>
      </trkpt>
      <trkpt lat="43.60153" lon="1.32449">
        <ele>186.2</ele>
        <time>2022-10-26T05:06:53Z</time>
      </trkpt>
      <trkpt lat="43.60158" lon="1.32455">
        <ele>186.2</ele>
        <time>2022-10-26T05:06:54Z</time>
      </trkpt>
      <trkpt lat="43.60161" lon="1.3246">
        <ele>186.2</ele>
        <time>2022-10-26T05:06:55Z</time>
      </trkpt>
      <trkpt lat="43.60166" lon="1.32465">
        <ele>186</ele>
        <time>2022-10-26T05:06:56Z</time>
      </trkpt>
      <trkpt lat="43.60171" lon="1.32471">
        <ele>186</ele>
        <time>2022-10-26T05:06:57Z</time>
      </trkpt>
      <trkpt lat="43.60176" lon="1.32475">
        <ele>186</ele>
        <time>2022-10-26T05:06:58Z</time>
      </trkpt>
      <trkpt lat="43.6018" lon="1.3248">
        <ele>186</ele>
        <time>2022-10-26T05:06:59Z</time>
      </trkpt>
      <trkpt lat="43.60184" lon="1.32485">
        <ele>186</ele>
        <time>2022-10-26T05:07:00Z</time>
      </trkpt>
      <trkpt lat="43.60188" lon="1.3249">
        <ele>185.8</ele>
        <time>2022-10-26T05:07:01Z</time>
      </trkpt>
      <trkpt lat="43.60192" lon="1.32495">
        <ele>185.8</ele>
        <time>2022-10-26T05:07:02Z</time>
      </trkpt>
      <trkpt lat="43.60196" lon="1.325">
        <ele>185.8</ele>
        <time>2022-10-26T05:07:03Z</time>
      </trkpt>
      <trkpt lat="43.60199" lon="1.32504">
        <ele>185.8</ele>
        <time>2022-10-26T05:07:04Z</time>
      </trkpt>
      <trkpt lat="43.60203" lon="1.32509">
        <ele>186</ele>
        <time>2022-10-26T05:07:05Z</time>
      </trkpt>
      <trkpt lat="43.60209" lon="1.32515">
        <ele>186</ele>
        <time>2022-10-26T05:07:06Z</time>
      </trkpt>
      <trkpt lat="43.60213" lon="1.3252">
        <ele>186</ele>
        <time>2022-10-26T05:07:07Z</time>
      </trkpt>
      <trkpt lat="43.60218" lon="1.32525">
        <ele>186</ele>
        <time>2022-10-26T05:07:08Z</time>
      </trkpt>
      <trkpt lat="43.60221" lon="1.32529">
        <ele>186</ele>
        <time>2022-10-26T05:07:09Z</time>
      </trkpt>
      <trkpt lat="43.60225" lon="1.32534">
        <ele>186</ele>
        <time>2022-10-26T05:07:10Z</time>
      </trkpt>
      <trkpt lat="43.6023" lon="1.3254">
        <ele>186</ele>
        <time>2022-10-26T05:07:11Z</time>
      </trkpt>
      <trkpt lat="43.60235" lon="1.32545">
        <ele>186</ele>
        <time>2022-10-26T05:07:12Z</time>
      </trkpt>
      <trkpt lat="43.60239" lon="1.3255">
        <ele>186</ele>
        <time>2022-10-26T05:07:13Z</time>
      </trkpt>
      <trkpt lat="43.60243" lon="1.32555">
        <ele>186</ele>
        <time>2022-10-26T05:07:14Z</time>
      </trkpt>
      <trkpt lat="43.60247" lon="1.3256">
        <ele>186</ele>
        <time>2022-10-26T05:07:15Z</time>
      </trkpt>
      <trkpt lat="43.60252" lon="1.32565">
        <ele>186</ele>
        <time>2022-10-26T05:07:16Z</time>
      </trkpt>
      <trkpt lat="43.60256" lon="1.32569">
        <ele>186</ele>
        <time>2022-10-26T05:07:17Z</time>
      </trkpt>
      <trkpt lat="43.6026" lon="1.32574">
        <ele>186</ele>
        <time>2022-10-26T05:07:18Z</time>
      </trkpt>
      <trkpt lat="43.60264" lon="1.32579">
        <ele>186</ele>
        <time>2022-10-26T05:07:19Z</time>
      </trkpt>
      <trkpt lat="43.60269" lon="1.32585">
        <ele>186.2</ele>
        <time>2022-10-26T05:07:20Z</time>
      </trkpt>
      <trkpt lat="43.60274" lon="1.3259">
        <ele>186.2</ele>
        <time>2022-10-26T05:07:21Z</time>
      </trkpt>
      <trkpt lat="43.60278" lon="1.32595">
        <ele>186.2</ele>
        <time>2022-10-26T05:07:22Z</time>
      </trkpt>
      <trkpt lat="43.60282" lon="1.326">
        <ele>186.2</ele>
        <time>2022-10-26T05:07:23Z</time>
      </trkpt>
      <trkpt lat="43.60287" lon="1.32606">
        <ele>186</ele>
        <time>2022-10-26T05:07:24Z</time>
      </trkpt>
      <trkpt lat="43.60292" lon="1.3261">
        <ele>186</ele>
        <time>2022-10-26T05:07:25Z</time>
      </trkpt>
      <trkpt lat="43.60297" lon="1.32614">
        <ele>186</ele>
        <time>2022-10-26T05:07:26Z</time>
      </trkpt>
      <trkpt lat="43.60301" lon="1.32616">
        <ele>186</ele>
        <time>2022-10-26T05:07:27Z</time>
      </trkpt>
      <trkpt lat="43.60307" lon="1.32617">
        <ele>186</ele>
        <time>2022-10-26T05:07:28Z</time>
      </trkpt>
      <trkpt lat="43.60313" lon="1.32617">
        <ele>186</ele>
        <time>2022-10-26T05:07:29Z</time>
      </trkpt>
      <trkpt lat="43.60319" lon="1.32616">
        <ele>186</ele>
        <time>2022-10-26T05:07:30Z</time>
      </trkpt>
      <trkpt lat="43.60325" lon="1.32615">
        <ele>186</ele>
        <time>2022-10-26T05:07:31Z</time>
      </trkpt>
      <trkpt lat="43.6033" lon="1.32614">
        <ele>186</ele>
        <time>2022-10-26T05:07:32Z</time>
      </trkpt>
      <trkpt lat="43.60336" lon="1.32613">
        <ele>186</ele>
        <time>2022-10-26T05:07:33Z</time>
      </trkpt>
      <trkpt lat="43.60342" lon="1.32612">
        <ele>186</ele>
        <time>2022-10-26T05:07:34Z</time>
      </trkpt>
      <trkpt lat="43.60347" lon="1.3261">
        <ele>186</ele>
        <time>2022-10-26T05:07:35Z</time>
      </trkpt>
      <trkpt lat="43.60353" lon="1.32609">
        <ele>186</ele>
        <time>2022-10-26T05:07:36Z</time>
      </trkpt>
      <trkpt lat="43.60358" lon="1.32605">
        <ele>186</ele>
        <time>2022-10-26T05:07:37Z</time>
      </trkpt>
      <trkpt lat="43.60362" lon="1.32599">
        <ele>186</ele>
        <time>2022-10-26T05:07:38Z</time>
      </trkpt>
      <trkpt lat="43.60365" lon="1.32592">
        <ele>186</ele>
        <time>2022-10-26T05:07:39Z</time>
      </trkpt>
      <trkpt lat="43.60368" lon="1.32585">
        <ele>186</ele>
        <time>2022-10-26T05:07:40Z</time>
      </trkpt>
      <trkpt lat="43.60371" lon="1.32578">
        <ele>186</ele>
        <time>2022-10-26T05:07:41Z</time>
      </trkpt>
      <trkpt lat="43.60374" lon="1.32571">
        <ele>186</ele>
        <time>2022-10-26T05:07:42Z</time>
      </trkpt>
      <trkpt lat="43.60378" lon="1.32565">
        <ele>186</ele>
        <time>2022-10-26T05:07:43Z</time>
      </trkpt>
      <trkpt lat="43.60381" lon="1.32558">
        <ele>186</ele>
        <time>2022-10-26T05:07:44Z</time>
      </trkpt>
      <trkpt lat="43.60385" lon="1.32551">
        <ele>186.2</ele>
        <time>2022-10-26T05:07:45Z</time>
      </trkpt>
      <trkpt lat="43.60388" lon="1.32544">
        <ele>186.2</ele>
        <time>2022-10-26T05:07:46Z</time>
      </trkpt>
      <trkpt lat="43.60391" lon="1.32537">
        <ele>186.2</ele>
        <time>2022-10-26T05:07:47Z</time>
      </trkpt>
      <trkpt lat="43.60394" lon="1.3253">
        <ele>186.2</ele>
        <time>2022-10-26T05:07:48Z</time>
      </trkpt>
      <trkpt lat="43.60398" lon="1.32523">
        <ele>186.2</ele>
        <time>2022-10-26T05:07:49Z</time>
      </trkpt>
      <trkpt lat="43.60401" lon="1.32517">
        <ele>186.2</ele>
        <time>2022-10-26T05:07:50Z</time>
      </trkpt>
      <trkpt lat="43.60405" lon="1.3251">
        <ele>186.2</ele>
        <time>2022-10-26T05:07:51Z</time>
      </trkpt>
      <trkpt lat="43.60408" lon="1.32503">
        <ele>186.2</ele>
        <time>2022-10-26T05:07:52Z</time>
      </trkpt>
      <trkpt lat="43.60412" lon="1.32497">
        <ele>186.2</ele>
        <time>2022-10-26T05:07:53Z</time>
      </trkpt>
      <trkpt lat="43.60415" lon="1.3249">
        <ele>186.2</ele>
        <time>2022-10-26T05:07:54Z</time>
      </trkpt>
      <trkpt lat="43.60419" lon="1.32484">
        <ele>186.2</ele>
        <time>2022-10-26T05:07:55Z</time>
      </trkpt>
      <trkpt lat="43.60422" lon="1.32477">
        <ele>186.2</ele>
        <time>2022-10-26T05:07:56Z</time>
      </trkpt>
      <trkpt lat="43.60425" lon="1.3247">
        <ele>186.2</ele>
        <time>2022-10-26T05:07:57Z</time>
      </trkpt>
      <trkpt lat="43.60429" lon="1.32464">
        <ele>186.2</ele>
        <time>2022-10-26T05:07:58Z</time>
      </trkpt>
      <trkpt lat="43.60432" lon="1.32457">
        <ele>186.2</ele>
        <time>2022-10-26T05:07:59Z</time>
      </trkpt>
      <trkpt lat="43.60435" lon="1.32451">
        <ele>186.2</ele>
        <time>2022-10-26T05:08:00Z</time>
      </trkpt>
      <trkpt lat="43.60439" lon="1.32445">
        <ele>186.2</ele>
        <time>2022-10-26T05:08:01Z</time>
      </trkpt>
      <trkpt lat="43.60442" lon="1.32439">
        <ele>186.2</ele>
        <time>2022-10-26T05:08:02Z</time>
      </trkpt>
      <trkpt lat="43.60445" lon="1.32433">
        <ele>186.2</ele>
        <time>2022-10-26T05:08:03Z</time>
      </trkpt>
      <trkpt lat="43.60448" lon="1.32427">
        <ele>186.2</ele>
        <time>2022-10-26T05:08:04Z</time>
      </trkpt>
      <trkpt lat="43.60452" lon="1.32422">
        <ele>186.2</ele>
        <time>2022-10-26T05:08:05Z</time>
      </trkpt>
      <trkpt lat="43.60455" lon="1.32415">
        <ele>186.2</ele>
        <time>2022-10-26T05:08:06Z</time>
      </trkpt>
      <trkpt lat="43.60459" lon="1.32409">
        <ele>186</ele>
        <time>2022-10-26T05:08:07Z</time>
      </trkpt>
      <trkpt lat="43.60463" lon="1.32402">
        <ele>186</ele>
        <time>2022-10-26T05:08:08Z</time>
      </trkpt>
      <trkpt lat="43.60467" lon="1.32397">
        <ele>186</ele>
        <time>2022-10-26T05:08:09Z</time>
      </trkpt>
      <trkpt lat="43.60472" lon="1.32391">
        <ele>186</ele>
        <time>2022-10-26T05:08:10Z</time>
      </trkpt>
      <trkpt lat="43.60477" lon="1.32387">
        <ele>186</ele>
        <time>2022-10-26T05:08:11Z</time>
      </trkpt>
      <trkpt lat="43.60482" lon="1.32384">
        <ele>186</ele>
        <time>2022-10-26T05:08:12Z</time>
      </trkpt>
      <trkpt lat="43.60488" lon="1.32381">
        <ele>185.8</ele>
        <time>2022-10-26T05:08:13Z</time>
      </trkpt>
      <trkpt lat="43.60493" lon="1.32378">
        <ele>185.8</ele>
        <time>2022-10-26T05:08:14Z</time>
      </trkpt>
      <trkpt lat="43.60498" lon="1.32376">
        <ele>185.8</ele>
        <time>2022-10-26T05:08:15Z</time>
      </trkpt>
      <trkpt lat="43.60503" lon="1.32375">
        <ele>185.8</ele>
        <time>2022-10-26T05:08:16Z</time>
      </trkpt>
      <trkpt lat="43.60508" lon="1.32376">
        <ele>185.8</ele>
        <time>2022-10-26T05:08:17Z</time>
      </trkpt>
      <trkpt lat="43.60512" lon="1.32379">
        <ele>185.8</ele>
        <time>2022-10-26T05:08:18Z</time>
      </trkpt>
      <trkpt lat="43.60516" lon="1.32382">
        <ele>185.8</ele>
        <time>2022-10-26T05:08:19Z</time>
      </trkpt>
      <trkpt lat="43.6052" lon="1.32386">
        <ele>185.8</ele>
        <time>2022-10-26T05:08:20Z</time>
      </trkpt>
      <trkpt lat="43.60524" lon="1.32389">
        <ele>185.8</ele>
        <time>2022-10-26T05:08:21Z</time>
      </trkpt>
      <trkpt lat="43.60529" lon="1.32391">
        <ele>185.8</ele>
        <time>2022-10-26T05:08:22Z</time>
      </trkpt>
      <trkpt lat="43.60534" lon="1.32392">
        <ele>185.8</ele>
        <time>2022-10-26T05:08:23Z</time>
      </trkpt>
      <trkpt lat="43.60538" lon="1.3239">
        <ele>185.8</ele>
        <time>2022-10-26T05:08:24Z</time>
      </trkpt>
      <trkpt lat="43.60542" lon="1.32386">
        <ele>185.8</ele>
        <time>2022-10-26T05:08:25Z</time>
      </trkpt>
      <trkpt lat="43.60546" lon="1.32382">
        <ele>185.8</ele>
        <time>2022-10-26T05:08:26Z</time>
      </trkpt>
      <trkpt lat="43.6055" lon="1.32377">
        <ele>185.8</ele>
        <time>2022-10-26T05:08:27Z</time>
      </trkpt>
      <trkpt lat="43.60554" lon="1.32372">
        <ele>185.8</ele>
        <time>2022-10-26T05:08:28Z</time>
      </trkpt>
      <trkpt lat="43.6056" lon="1.32369">
        <ele>185.8</ele>
        <time>2022-10-26T05:08:29Z</time>
      </trkpt>
      <trkpt lat="43.60565" lon="1.32367">
        <ele>185.8</ele>
        <time>2022-10-26T05:08:30Z</time>
      </trkpt>
      <trkpt lat="43.60571" lon="1.32366">
        <ele>185.6</ele>
        <time>2022-10-26T05:08:31Z</time>
      </trkpt>
      <trkpt lat="43.60577" lon="1.32365">
        <ele>185.6</ele>
        <time>2022-10-26T05:08:32Z</time>
      </trkpt>
      <trkpt lat="43.60584" lon="1.32365">
        <ele>185.6</ele>
        <time>2022-10-26T05:08:33Z</time>
      </trkpt>
      <trkpt lat="43.6059" lon="1.32366">
        <ele>185.6</ele>
        <time>2022-10-26T05:08:34Z</time>
      </trkpt>
      <trkpt lat="43.60596" lon="1.32368">
        <ele>185.4</ele>
        <time>2022-10-26T05:08:35Z</time>
      </trkpt>
      <trkpt lat="43.60601" lon="1.32373">
        <ele>185.4</ele>
        <time>2022-10-26T05:08:36Z</time>
      </trkpt>
      <trkpt lat="43.60606" lon="1.32378">
        <ele>185.4</ele>
        <time>2022-10-26T05:08:37Z</time>
      </trkpt>
      <trkpt lat="43.6061" lon="1.32383">
        <ele>185.2</ele>
        <time>2022-10-26T05:08:38Z</time>
      </trkpt>
      <trkpt lat="43.60615" lon="1.32388">
        <ele>185.2</ele>
        <time>2022-10-26T05:08:39Z</time>
      </trkpt>
      <trkpt lat="43.60619" lon="1.32393">
        <ele>185.2</ele>
        <time>2022-10-26T05:08:40Z</time>
      </trkpt>
      <trkpt lat="43.60624" lon="1.32398">
        <ele>185.2</ele>
        <time>2022-10-26T05:08:41Z</time>
      </trkpt>
      <trkpt lat="43.60629" lon="1.32404">
        <ele>185.2</ele>
        <time>2022-10-26T05:08:42Z</time>
      </trkpt>
      <trkpt lat="43.60633" lon="1.32409">
        <ele>185.2</ele>
        <time>2022-10-26T05:08:43Z</time>
      </trkpt>
      <trkpt lat="43.60638" lon="1.32414">
        <ele>185.2</ele>
        <time>2022-10-26T05:08:44Z</time>
      </trkpt>
      <trkpt lat="43.60642" lon="1.32418">
        <ele>185.2</ele>
        <time>2022-10-26T05:08:45Z</time>
      </trkpt>
      <trkpt lat="43.60647" lon="1.32423">
        <ele>185.2</ele>
        <time>2022-10-26T05:08:46Z</time>
      </trkpt>
      <trkpt lat="43.60652" lon="1.32428">
        <ele>185</ele>
        <time>2022-10-26T05:08:47Z</time>
      </trkpt>
      <trkpt lat="43.60657" lon="1.32432">
        <ele>185</ele>
        <time>2022-10-26T05:08:48Z</time>
      </trkpt>
      <trkpt lat="43.60663" lon="1.32434">
        <ele>185</ele>
        <time>2022-10-26T05:08:49Z</time>
      </trkpt>
      <trkpt lat="43.60668" lon="1.32435">
        <ele>185</ele>
        <time>2022-10-26T05:08:50Z</time>
      </trkpt>
      <trkpt lat="43.60674" lon="1.32434">
        <ele>185</ele>
        <time>2022-10-26T05:08:51Z</time>
      </trkpt>
      <trkpt lat="43.6068" lon="1.32433">
        <ele>185</ele>
        <time>2022-10-26T05:08:52Z</time>
      </trkpt>
      <trkpt lat="43.60685" lon="1.32431">
        <ele>185</ele>
        <time>2022-10-26T05:08:53Z</time>
      </trkpt>
      <trkpt lat="43.60689" lon="1.32429">
        <ele>184.8</ele>
        <time>2022-10-26T05:08:54Z</time>
      </trkpt>
      <trkpt lat="43.60692" lon="1.32426">
        <ele>184.8</ele>
        <time>2022-10-26T05:08:55Z</time>
      </trkpt>
      <trkpt lat="43.60721" lon="1.32407">
        <ele>184.8</ele>
        <time>2022-10-26T05:09:01Z</time>
      </trkpt>
      <trkpt lat="43.60728" lon="1.32403">
        <ele>184.8</ele>
        <time>2022-10-26T05:09:02Z</time>
      </trkpt>
      <trkpt lat="43.60733" lon="1.32399">
        <ele>185</ele>
        <time>2022-10-26T05:09:03Z</time>
      </trkpt>
      <trkpt lat="43.60737" lon="1.32393">
        <ele>185</ele>
        <time>2022-10-26T05:09:04Z</time>
      </trkpt>
      <trkpt lat="43.60741" lon="1.32387">
        <ele>185.2</ele>
        <time>2022-10-26T05:09:05Z</time>
      </trkpt>
      <trkpt lat="43.60744" lon="1.3238">
        <ele>185.2</ele>
        <time>2022-10-26T05:09:06Z</time>
      </trkpt>
      <trkpt lat="43.60747" lon="1.32373">
        <ele>185</ele>
        <time>2022-10-26T05:09:07Z</time>
      </trkpt>
      <trkpt lat="43.60751" lon="1.32367">
        <ele>185</ele>
        <time>2022-10-26T05:09:08Z</time>
      </trkpt>
      <trkpt lat="43.60755" lon="1.32362">
        <ele>185</ele>
        <time>2022-10-26T05:09:09Z</time>
      </trkpt>
      <trkpt lat="43.6076" lon="1.32357">
        <ele>185</ele>
        <time>2022-10-26T05:09:10Z</time>
      </trkpt>
      <trkpt lat="43.60764" lon="1.32353">
        <ele>185</ele>
        <time>2022-10-26T05:09:11Z</time>
      </trkpt>
      <trkpt lat="43.60768" lon="1.32348">
        <ele>185</ele>
        <time>2022-10-26T05:09:12Z</time>
      </trkpt>
      <trkpt lat="43.60771" lon="1.32344">
        <ele>185</ele>
        <time>2022-10-26T05:09:13Z</time>
      </trkpt>
      <trkpt lat="43.60775" lon="1.32341">
        <ele>185</ele>
        <time>2022-10-26T05:09:14Z</time>
      </trkpt>
      <trkpt lat="43.60778" lon="1.32339">
        <ele>185</ele>
        <time>2022-10-26T05:09:15Z</time>
      </trkpt>
      <trkpt lat="43.60781" lon="1.3234">
        <ele>185.2</ele>
        <time>2022-10-26T05:09:16Z</time>
      </trkpt>
      <trkpt lat="43.60784" lon="1.32341">
        <ele>185.2</ele>
        <time>2022-10-26T05:09:17Z</time>
      </trkpt>
      <trkpt lat="43.60788" lon="1.32341">
        <ele>185.2</ele>
        <time>2022-10-26T05:09:18Z</time>
      </trkpt>
      <trkpt lat="43.60792" lon="1.32342">
        <ele>185.2</ele>
        <time>2022-10-26T05:09:19Z</time>
      </trkpt>
      <trkpt lat="43.60796" lon="1.32343">
        <ele>185.2</ele>
        <time>2022-10-26T05:09:20Z</time>
      </trkpt>
      <trkpt lat="43.60801" lon="1.32343">
        <ele>185.2</ele>
        <time>2022-10-26T05:09:21Z</time>
      </trkpt>
      <trkpt lat="43.60806" lon="1.32344">
        <ele>185.2</ele>
        <time>2022-10-26T05:09:22Z</time>
      </trkpt>
      <trkpt lat="43.60811" lon="1.32344">
        <ele>185.2</ele>
        <time>2022-10-26T05:09:23Z</time>
      </trkpt>
      <trkpt lat="43.60815" lon="1.32343">
        <ele>185.2</ele>
        <time>2022-10-26T05:09:24Z</time>
      </trkpt>
      <trkpt lat="43.6082" lon="1.32342">
        <ele>185.2</ele>
        <time>2022-10-26T05:09:25Z</time>
      </trkpt>
      <trkpt lat="43.60825" lon="1.3234">
        <ele>185.2</ele>
        <time>2022-10-26T05:09:26Z</time>
      </trkpt>
      <trkpt lat="43.6083" lon="1.32339">
        <ele>185.2</ele>
        <time>2022-10-26T05:09:27Z</time>
      </trkpt>
      <trkpt lat="43.60834" lon="1.32337">
        <ele>185.2</ele>
        <time>2022-10-26T05:09:28Z</time>
      </trkpt>
      <trkpt lat="43.60838" lon="1.32335">
        <ele>185.2</ele>
        <time>2022-10-26T05:09:29Z</time>
      </trkpt>
      <trkpt lat="43.60843" lon="1.32333">
        <ele>185.2</ele>
        <time>2022-10-26T05:09:30Z</time>
      </trkpt>
      <trkpt lat="43.60847" lon="1.3233">
        <ele>185.2</ele>
        <time>2022-10-26T05:09:31Z</time>
      </trkpt>
      <trkpt lat="43.60851" lon="1.32326">
        <ele>185.2</ele>
        <time>2022-10-26T05:09:32Z</time>
      </trkpt>
      <trkpt lat="43.60856" lon="1.32323">
        <ele>185.2</ele>
        <time>2022-10-26T05:09:33Z</time>
      </trkpt>
      <trkpt lat="43.6086" lon="1.3232">
        <ele>185.4</ele>
        <time>2022-10-26T05:09:34Z</time>
      </trkpt>
      <trkpt lat="43.60865" lon="1.32318">
        <ele>185.4</ele>
        <time>2022-10-26T05:09:35Z</time>
      </trkpt>
      <trkpt lat="43.6087" lon="1.32316">
        <ele>185.4</ele>
        <time>2022-10-26T05:09:36Z</time>
      </trkpt>
      <trkpt lat="43.60875" lon="1.32316">
        <ele>185.4</ele>
        <time>2022-10-26T05:09:37Z</time>
      </trkpt>
      <trkpt lat="43.60881" lon="1.32317">
        <ele>185.4</ele>
        <time>2022-10-26T05:09:38Z</time>
      </trkpt>
      <trkpt lat="43.60886" lon="1.32319">
        <ele>185.4</ele>
        <time>2022-10-26T05:09:39Z</time>
      </trkpt>
      <trkpt lat="43.60891" lon="1.32319">
        <ele>185.4</ele>
        <time>2022-10-26T05:09:40Z</time>
      </trkpt>
      <trkpt lat="43.60897" lon="1.32317">
        <ele>185.4</ele>
        <time>2022-10-26T05:09:41Z</time>
      </trkpt>
      <trkpt lat="43.60902" lon="1.32315">
        <ele>185.4</ele>
        <time>2022-10-26T05:09:42Z</time>
      </trkpt>
      <trkpt lat="43.60907" lon="1.32313">
        <ele>185.4</ele>
        <time>2022-10-26T05:09:43Z</time>
      </trkpt>
      <trkpt lat="43.60911" lon="1.3231">
        <ele>185.4</ele>
        <time>2022-10-26T05:09:44Z</time>
      </trkpt>
      <trkpt lat="43.60915" lon="1.32308">
        <ele>185.6</ele>
        <time>2022-10-26T05:09:45Z</time>
      </trkpt>
      <trkpt lat="43.60918" lon="1.32307">
        <ele>185.6</ele>
        <time>2022-10-26T05:09:46Z</time>
      </trkpt>
      <trkpt lat="43.60922" lon="1.32305">
        <ele>185.6</ele>
        <time>2022-10-26T05:09:47Z</time>
      </trkpt>
      <trkpt lat="43.60926" lon="1.32304">
        <ele>185.8</ele>
        <time>2022-10-26T05:09:48Z</time>
      </trkpt>
      <trkpt lat="43.60929" lon="1.32303">
        <ele>185.8</ele>
        <time>2022-10-26T05:09:49Z</time>
      </trkpt>
      <trkpt lat="43.60931" lon="1.32301">
        <ele>186</ele>
        <time>2022-10-26T05:09:50Z</time>
      </trkpt>
      <trkpt lat="43.60934" lon="1.323">
        <ele>186.2</ele>
        <time>2022-10-26T05:09:51Z</time>
      </trkpt>
      <trkpt lat="43.60936" lon="1.32299">
        <ele>186.2</ele>
        <time>2022-10-26T05:09:52Z</time>
      </trkpt>
      <trkpt lat="43.60939" lon="1.32299">
        <ele>186.6</ele>
        <time>2022-10-26T05:09:53Z</time>
      </trkpt>
      <trkpt lat="43.6094" lon="1.32301">
        <ele>186.8</ele>
        <time>2022-10-26T05:09:54Z</time>
      </trkpt>
      <trkpt lat="43.60941" lon="1.32304">
        <ele>187.2</ele>
        <time>2022-10-26T05:09:55Z</time>
      </trkpt>
      <trkpt lat="43.60942" lon="1.32309">
        <ele>187.4</ele>
        <time>2022-10-26T05:09:56Z</time>
      </trkpt>
      <trkpt lat="43.60943" lon="1.32313">
        <ele>187.8</ele>
        <time>2022-10-26T05:09:57Z</time>
      </trkpt>
      <trkpt lat="43.60944" lon="1.32317">
        <ele>188</ele>
        <time>2022-10-26T05:09:58Z</time>
      </trkpt>
      <trkpt lat="43.60944" lon="1.32322">
        <ele>188.2</ele>
        <time>2022-10-26T05:09:59Z</time>
      </trkpt>
      <trkpt lat="43.60942" lon="1.32325">
        <ele>188.4</ele>
        <time>2022-10-26T05:10:00Z</time>
      </trkpt>
      <trkpt lat="43.60938" lon="1.32326">
        <ele>188.4</ele>
        <time>2022-10-26T05:10:01Z</time>
      </trkpt>
      <trkpt lat="43.60933" lon="1.32328">
        <ele>188.4</ele>
        <time>2022-10-26T05:10:02Z</time>
      </trkpt>
      <trkpt lat="43.60928" lon="1.32331">
        <ele>188.4</ele>
        <time>2022-10-26T05:10:03Z</time>
      </trkpt>
      <trkpt lat="43.60922" lon="1.32334">
        <ele>188.4</ele>
        <time>2022-10-26T05:10:04Z</time>
      </trkpt>
      <trkpt lat="43.60916" lon="1.32336">
        <ele>188.4</ele>
        <time>2022-10-26T05:10:05Z</time>
      </trkpt>
      <trkpt lat="43.60909" lon="1.3234">
        <ele>188.4</ele>
        <time>2022-10-26T05:10:06Z</time>
      </trkpt>
      <trkpt lat="43.60903" lon="1.32343">
        <ele>188.4</ele>
        <time>2022-10-26T05:10:07Z</time>
      </trkpt>
      <trkpt lat="43.60898" lon="1.32345">
        <ele>188.4</ele>
        <time>2022-10-26T05:10:08Z</time>
      </trkpt>
      <trkpt lat="43.60895" lon="1.32347">
        <ele>188</ele>
        <time>2022-10-26T05:10:09Z</time>
      </trkpt>
      <trkpt lat="43.60893" lon="1.32349">
        <ele>187.8</ele>
        <time>2022-10-26T05:10:10Z</time>
      </trkpt>
      <trkpt lat="43.60892" lon="1.3235">
        <ele>187.2</ele>
        <time>2022-10-26T05:10:11Z</time>
      </trkpt>
      <trkpt lat="43.60891" lon="1.32351">
        <ele>186.8</ele>
        <time>2022-10-26T05:10:12Z</time>
      </trkpt>
      <trkpt lat="43.60889" lon="1.32352">
        <ele>186.4</ele>
        <time>2022-10-26T05:10:13Z</time>
      </trkpt>
      <trkpt lat="43.60887" lon="1.32354">
        <ele>186.4</ele>
        <time>2022-10-26T05:10:14Z</time>
      </trkpt>
      <trkpt lat="43.60884" lon="1.32355">
        <ele>186</ele>
        <time>2022-10-26T05:10:15Z</time>
      </trkpt>
      <trkpt lat="43.60881" lon="1.32356">
        <ele>186</ele>
        <time>2022-10-26T05:10:16Z</time>
      </trkpt>
      <trkpt lat="43.60878" lon="1.32358">
        <ele>185.8</ele>
        <time>2022-10-26T05:10:17Z</time>
      </trkpt>
      <trkpt lat="43.60875" lon="1.32362">
        <ele>185.6</ele>
        <time>2022-10-26T05:10:18Z</time>
      </trkpt>
      <trkpt lat="43.60874" lon="1.32367">
        <ele>185.4</ele>
        <time>2022-10-26T05:10:19Z</time>
      </trkpt>
      <trkpt lat="43.60873" lon="1.32372">
        <ele>185.4</ele>
        <time>2022-10-26T05:10:20Z</time>
      </trkpt>
      <trkpt lat="43.60874" lon="1.32378">
        <ele>185.2</ele>
        <time>2022-10-26T05:10:21Z</time>
      </trkpt>
      <trkpt lat="43.60875" lon="1.32384">
        <ele>185</ele>
        <time>2022-10-26T05:10:22Z</time>
      </trkpt>
      <trkpt lat="43.60876" lon="1.3239">
        <ele>185</ele>
        <time>2022-10-26T05:10:23Z</time>
      </trkpt>
      <trkpt lat="43.60878" lon="1.32396">
        <ele>184.8</ele>
        <time>2022-10-26T05:10:24Z</time>
      </trkpt>
      <trkpt lat="43.60879" lon="1.32402">
        <ele>184.8</ele>
        <time>2022-10-26T05:10:25Z</time>
      </trkpt>
      <trkpt lat="43.60881" lon="1.32408">
        <ele>184.8</ele>
        <time>2022-10-26T05:10:26Z</time>
      </trkpt>
      <trkpt lat="43.60883" lon="1.32414">
        <ele>184.6</ele>
        <time>2022-10-26T05:10:27Z</time>
      </trkpt>
      <trkpt lat="43.60885" lon="1.3242">
        <ele>184.6</ele>
        <time>2022-10-26T05:10:28Z</time>
      </trkpt>
      <trkpt lat="43.60887" lon="1.32425">
        <ele>184.6</ele>
        <time>2022-10-26T05:10:29Z</time>
      </trkpt>
      <trkpt lat="43.6089" lon="1.32431">
        <ele>184.6</ele>
        <time>2022-10-26T05:10:30Z</time>
      </trkpt>
      <trkpt lat="43.60892" lon="1.32437">
        <ele>184.6</ele>
        <time>2022-10-26T05:10:31Z</time>
      </trkpt>
      <trkpt lat="43.60893" lon="1.32443">
        <ele>184.4</ele>
        <time>2022-10-26T05:10:32Z</time>
      </trkpt>
      <trkpt lat="43.60894" lon="1.3245">
        <ele>184.4</ele>
        <time>2022-10-26T05:10:33Z</time>
      </trkpt>
      <trkpt lat="43.60895" lon="1.32457">
        <ele>184.4</ele>
        <time>2022-10-26T05:10:34Z</time>
      </trkpt>
      <trkpt lat="43.60896" lon="1.32463">
        <ele>184.4</ele>
        <time>2022-10-26T05:10:35Z</time>
      </trkpt>
      <trkpt lat="43.60899" lon="1.32469">
        <ele>184.4</ele>
        <time>2022-10-26T05:10:36Z</time>
      </trkpt>
      <trkpt lat="43.60903" lon="1.32474">
        <ele>184.4</ele>
        <time>2022-10-26T05:10:37Z</time>
      </trkpt>
      <trkpt lat="43.60907" lon="1.32478">
        <ele>184.4</ele>
        <time>2022-10-26T05:10:38Z</time>
      </trkpt>
      <trkpt lat="43.60911" lon="1.32483">
        <ele>184.4</ele>
        <time>2022-10-26T05:10:39Z</time>
      </trkpt>
      <trkpt lat="43.60915" lon="1.32487">
        <ele>184.2</ele>
        <time>2022-10-26T05:10:40Z</time>
      </trkpt>
      <trkpt lat="43.60919" lon="1.32492">
        <ele>184.2</ele>
        <time>2022-10-26T05:10:41Z</time>
      </trkpt>
      <trkpt lat="43.60922" lon="1.32498">
        <ele>184.2</ele>
        <time>2022-10-26T05:10:42Z</time>
      </trkpt>
      <trkpt lat="43.60922" lon="1.32505">
        <ele>184.2</ele>
        <time>2022-10-26T05:10:43Z</time>
      </trkpt>
      <trkpt lat="43.6092" lon="1.3251">
        <ele>184.2</ele>
        <time>2022-10-26T05:10:44Z</time>
      </trkpt>
      <trkpt lat="43.60918" lon="1.32516">
        <ele>184.2</ele>
        <time>2022-10-26T05:10:45Z</time>
      </trkpt>
      <trkpt lat="43.60916" lon="1.32522">
        <ele>184</ele>
        <time>2022-10-26T05:10:46Z</time>
      </trkpt>
      <trkpt lat="43.60915" lon="1.32528">
        <ele>184</ele>
        <time>2022-10-26T05:10:47Z</time>
      </trkpt>
      <trkpt lat="43.60916" lon="1.32534">
        <ele>184</ele>
        <time>2022-10-26T05:10:48Z</time>
      </trkpt>
      <trkpt lat="43.60919" lon="1.3254">
        <ele>184</ele>
        <time>2022-10-26T05:10:49Z</time>
      </trkpt>
      <trkpt lat="43.60923" lon="1.32544">
        <ele>184</ele>
        <time>2022-10-26T05:10:50Z</time>
      </trkpt>
      <trkpt lat="43.60926" lon="1.32548">
        <ele>183.8</ele>
        <time>2022-10-26T05:10:51Z</time>
      </trkpt>
      <trkpt lat="43.6093" lon="1.32553">
        <ele>183.8</ele>
        <time>2022-10-26T05:10:52Z</time>
      </trkpt>
      <trkpt lat="43.60934" lon="1.32556">
        <ele>183.8</ele>
        <time>2022-10-26T05:10:53Z</time>
      </trkpt>
      <trkpt lat="43.60938" lon="1.32557">
        <ele>183.8</ele>
        <time>2022-10-26T05:10:54Z</time>
      </trkpt>
      <trkpt lat="43.60942" lon="1.32558">
        <ele>183.8</ele>
        <time>2022-10-26T05:10:55Z</time>
      </trkpt>
      <trkpt lat="43.60945" lon="1.3256">
        <ele>183.8</ele>
        <time>2022-10-26T05:10:56Z</time>
      </trkpt>
      <trkpt lat="43.60947" lon="1.32563">
        <ele>183.6</ele>
        <time>2022-10-26T05:10:57Z</time>
      </trkpt>
      <trkpt lat="43.60948" lon="1.32566">
        <ele>183.6</ele>
        <time>2022-10-26T05:10:58Z</time>
      </trkpt>
      <trkpt lat="43.60949" lon="1.32569">
        <ele>183.6</ele>
        <time>2022-10-26T05:10:59Z</time>
      </trkpt>
      <trkpt lat="43.60949" lon="1.32573">
        <ele>183.6</ele>
        <time>2022-10-26T05:11:00Z</time>
      </trkpt>
      <trkpt lat="43.60947" lon="1.32577">
        <ele>183.6</ele>
        <time>2022-10-26T05:11:01Z</time>
      </trkpt>
      <trkpt lat="43.60945" lon="1.32581">
        <ele>183.4</ele>
        <time>2022-10-26T05:11:02Z</time>
      </trkpt>
      <trkpt lat="43.60942" lon="1.32586">
        <ele>183.4</ele>
        <time>2022-10-26T05:11:03Z</time>
      </trkpt>
      <trkpt lat="43.60939" lon="1.3259">
        <ele>183.4</ele>
        <time>2022-10-26T05:11:04Z</time>
      </trkpt>
      <trkpt lat="43.60936" lon="1.32595">
        <ele>183.4</ele>
        <time>2022-10-26T05:11:05Z</time>
      </trkpt>
      <trkpt lat="43.60933" lon="1.326">
        <ele>183.4</ele>
        <time>2022-10-26T05:11:06Z</time>
      </trkpt>
      <trkpt lat="43.6093" lon="1.32605">
        <ele>183.4</ele>
        <time>2022-10-26T05:11:07Z</time>
      </trkpt>
      <trkpt lat="43.60926" lon="1.32609">
        <ele>183.4</ele>
        <time>2022-10-26T05:11:08Z</time>
      </trkpt>
      <trkpt lat="43.60923" lon="1.32614">
        <ele>183.4</ele>
        <time>2022-10-26T05:11:09Z</time>
      </trkpt>
      <trkpt lat="43.6092" lon="1.32619">
        <ele>183.4</ele>
        <time>2022-10-26T05:11:10Z</time>
      </trkpt>
      <trkpt lat="43.60916" lon="1.32624">
        <ele>183.4</ele>
        <time>2022-10-26T05:11:11Z</time>
      </trkpt>
      <trkpt lat="43.60912" lon="1.32628">
        <ele>183.4</ele>
        <time>2022-10-26T05:11:12Z</time>
      </trkpt>
      <trkpt lat="43.60908" lon="1.32631">
        <ele>183.4</ele>
        <time>2022-10-26T05:11:13Z</time>
      </trkpt>
      <trkpt lat="43.60903" lon="1.32633">
        <ele>183.6</ele>
        <time>2022-10-26T05:11:14Z</time>
      </trkpt>
      <trkpt lat="43.60898" lon="1.32636">
        <ele>183.6</ele>
        <time>2022-10-26T05:11:15Z</time>
      </trkpt>
      <trkpt lat="43.60893" lon="1.32638">
        <ele>183.6</ele>
        <time>2022-10-26T05:11:16Z</time>
      </trkpt>
      <trkpt lat="43.60888" lon="1.32641">
        <ele>183.6</ele>
        <time>2022-10-26T05:11:17Z</time>
      </trkpt>
      <trkpt lat="43.60884" lon="1.32645">
        <ele>183.6</ele>
        <time>2022-10-26T05:11:18Z</time>
      </trkpt>
      <trkpt lat="43.6088" lon="1.3265">
        <ele>183.6</ele>
        <time>2022-10-26T05:11:19Z</time>
      </trkpt>
      <trkpt lat="43.60875" lon="1.32655">
        <ele>183.6</ele>
        <time>2022-10-26T05:11:20Z</time>
      </trkpt>
      <trkpt lat="43.60872" lon="1.3266">
        <ele>183.6</ele>
        <time>2022-10-26T05:11:21Z</time>
      </trkpt>
      <trkpt lat="43.60868" lon="1.32666">
        <ele>183.6</ele>
        <time>2022-10-26T05:11:22Z</time>
      </trkpt>
      <trkpt lat="43.60865" lon="1.32672">
        <ele>183.6</ele>
        <time>2022-10-26T05:11:23Z</time>
      </trkpt>
      <trkpt lat="43.60862" lon="1.32679">
        <ele>183.6</ele>
        <time>2022-10-26T05:11:24Z</time>
      </trkpt>
      <trkpt lat="43.60861" lon="1.32686">
        <ele>183.6</ele>
        <time>2022-10-26T05:11:25Z</time>
      </trkpt>
      <trkpt lat="43.6086" lon="1.32694">
        <ele>183.6</ele>
        <time>2022-10-26T05:11:26Z</time>
      </trkpt>
      <trkpt lat="43.6086" lon="1.32702">
        <ele>183.6</ele>
        <time>2022-10-26T05:11:27Z</time>
      </trkpt>
      <trkpt lat="43.6086" lon="1.32709">
        <ele>183.6</ele>
        <time>2022-10-26T05:11:28Z</time>
      </trkpt>
      <trkpt lat="43.60862" lon="1.32716">
        <ele>183.6</ele>
        <time>2022-10-26T05:11:29Z</time>
      </trkpt>
      <trkpt lat="43.60864" lon="1.32723">
        <ele>183.6</ele>
        <time>2022-10-26T05:11:30Z</time>
      </trkpt>
      <trkpt lat="43.60868" lon="1.3273">
        <ele>183.6</ele>
        <time>2022-10-26T05:11:31Z</time>
      </trkpt>
      <trkpt lat="43.60872" lon="1.32735">
        <ele>183.8</ele>
        <time>2022-10-26T05:11:32Z</time>
      </trkpt>
      <trkpt lat="43.60877" lon="1.32739">
        <ele>183.8</ele>
        <time>2022-10-26T05:11:33Z</time>
      </trkpt>
      <trkpt lat="43.60882" lon="1.32743">
        <ele>183.8</ele>
        <time>2022-10-26T05:11:34Z</time>
      </trkpt>
      <trkpt lat="43.60887" lon="1.32746">
        <ele>183.8</ele>
        <time>2022-10-26T05:11:35Z</time>
      </trkpt>
      <trkpt lat="43.60893" lon="1.32748">
        <ele>183.8</ele>
        <time>2022-10-26T05:11:36Z</time>
      </trkpt>
      <trkpt lat="43.60898" lon="1.32748">
        <ele>183.8</ele>
        <time>2022-10-26T05:11:37Z</time>
      </trkpt>
      <trkpt lat="43.60904" lon="1.32748">
        <ele>183.8</ele>
        <time>2022-10-26T05:11:38Z</time>
      </trkpt>
      <trkpt lat="43.6091" lon="1.32747">
        <ele>183.8</ele>
        <time>2022-10-26T05:11:39Z</time>
      </trkpt>
      <trkpt lat="43.60916" lon="1.32747">
        <ele>183.8</ele>
        <time>2022-10-26T05:11:40Z</time>
      </trkpt>
      <trkpt lat="43.60922" lon="1.32747">
        <ele>183.8</ele>
        <time>2022-10-26T05:11:41Z</time>
      </trkpt>
      <trkpt lat="43.60928" lon="1.32749">
        <ele>183.8</ele>
        <time>2022-10-26T05:11:42Z</time>
      </trkpt>
      <trkpt lat="43.60934" lon="1.32753">
        <ele>183.8</ele>
        <time>2022-10-26T05:11:43Z</time>
      </trkpt>
      <trkpt lat="43.60939" lon="1.32757">
        <ele>183.8</ele>
        <time>2022-10-26T05:11:44Z</time>
      </trkpt>
      <trkpt lat="43.60943" lon="1.32763">
        <ele>183.6</ele>
        <time>2022-10-26T05:11:45Z</time>
      </trkpt>
      <trkpt lat="43.60948" lon="1.32768">
        <ele>183.6</ele>
        <time>2022-10-26T05:11:46Z</time>
      </trkpt>
      <trkpt lat="43.60953" lon="1.32774">
        <ele>183.6</ele>
        <time>2022-10-26T05:11:47Z</time>
      </trkpt>
      <trkpt lat="43.60957" lon="1.3278">
        <ele>183.6</ele>
        <time>2022-10-26T05:11:48Z</time>
      </trkpt>
      <trkpt lat="43.60961" lon="1.32785">
        <ele>183.6</ele>
        <time>2022-10-26T05:11:49Z</time>
      </trkpt>
      <trkpt lat="43.60966" lon="1.32791">
        <ele>183.6</ele>
        <time>2022-10-26T05:11:50Z</time>
      </trkpt>
      <trkpt lat="43.6097" lon="1.32796">
        <ele>183.6</ele>
        <time>2022-10-26T05:11:51Z</time>
      </trkpt>
      <trkpt lat="43.60974" lon="1.32801">
        <ele>183.6</ele>
        <time>2022-10-26T05:11:52Z</time>
      </trkpt>
      <trkpt lat="43.60978" lon="1.32807">
        <ele>183.6</ele>
        <time>2022-10-26T05:11:53Z</time>
      </trkpt>
      <trkpt lat="43.60983" lon="1.32812">
        <ele>183.6</ele>
        <time>2022-10-26T05:11:54Z</time>
      </trkpt>
      <trkpt lat="43.60987" lon="1.32818">
        <ele>183.6</ele>
        <time>2022-10-26T05:11:55Z</time>
      </trkpt>
      <trkpt lat="43.60991" lon="1.32823">
        <ele>183.6</ele>
        <time>2022-10-26T05:11:56Z</time>
      </trkpt>
      <trkpt lat="43.60996" lon="1.32829">
        <ele>183.6</ele>
        <time>2022-10-26T05:11:57Z</time>
      </trkpt>
      <trkpt lat="43.61" lon="1.32834">
        <ele>183.6</ele>
        <time>2022-10-26T05:11:58Z</time>
      </trkpt>
      <trkpt lat="43.61004" lon="1.3284">
        <ele>183.6</ele>
        <time>2022-10-26T05:11:59Z</time>
      </trkpt>
      <trkpt lat="43.61009" lon="1.32845">
        <ele>183.6</ele>
        <time>2022-10-26T05:12:00Z</time>
      </trkpt>
      <trkpt lat="43.61013" lon="1.32851">
        <ele>183.6</ele>
        <time>2022-10-26T05:12:01Z</time>
      </trkpt>
      <trkpt lat="43.61018" lon="1.32856">
        <ele>183.6</ele>
        <time>2022-10-26T05:12:02Z</time>
      </trkpt>
      <trkpt lat="43.61022" lon="1.32862">
        <ele>183.8</ele>
        <time>2022-10-26T05:12:03Z</time>
      </trkpt>
      <trkpt lat="43.61026" lon="1.32867">
        <ele>183.8</ele>
        <time>2022-10-26T05:12:04Z</time>
      </trkpt>
      <trkpt lat="43.61031" lon="1.32873">
        <ele>183.8</ele>
        <time>2022-10-26T05:12:05Z</time>
      </trkpt>
      <trkpt lat="43.61035" lon="1.32878">
        <ele>184</ele>
        <time>2022-10-26T05:12:06Z</time>
      </trkpt>
      <trkpt lat="43.6104" lon="1.32883">
        <ele>184</ele>
        <time>2022-10-26T05:12:07Z</time>
      </trkpt>
      <trkpt lat="43.61044" lon="1.32889">
        <ele>184</ele>
        <time>2022-10-26T05:12:08Z</time>
      </trkpt>
      <trkpt lat="43.61048" lon="1.32894">
        <ele>184.2</ele>
        <time>2022-10-26T05:12:09Z</time>
      </trkpt>
      <trkpt lat="43.61052" lon="1.32899">
        <ele>184.2</ele>
        <time>2022-10-26T05:12:10Z</time>
      </trkpt>
      <trkpt lat="43.61057" lon="1.32904">
        <ele>184.2</ele>
        <time>2022-10-26T05:12:11Z</time>
      </trkpt>
      <trkpt lat="43.61061" lon="1.3291">
        <ele>184.2</ele>
        <time>2022-10-26T05:12:12Z</time>
      </trkpt>
      <trkpt lat="43.61065" lon="1.32915">
        <ele>184.2</ele>
        <time>2022-10-26T05:12:13Z</time>
      </trkpt>
      <trkpt lat="43.61068" lon="1.32922">
        <ele>184.2</ele>
        <time>2022-10-26T05:12:14Z</time>
      </trkpt>
      <trkpt lat="43.61071" lon="1.32928">
        <ele>184.2</ele>
        <time>2022-10-26T05:12:15Z</time>
      </trkpt>
      <trkpt lat="43.61074" lon="1.32934">
        <ele>184.2</ele>
        <time>2022-10-26T05:12:16Z</time>
      </trkpt>
      <trkpt lat="43.61078" lon="1.3294">
        <ele>184.2</ele>
        <time>2022-10-26T05:12:17Z</time>
      </trkpt>
      <trkpt lat="43.61083" lon="1.32944">
        <ele>184.2</ele>
        <time>2022-10-26T05:12:18Z</time>
      </trkpt>
      <trkpt lat="43.61088" lon="1.32947">
        <ele>184.2</ele>
        <time>2022-10-26T05:12:19Z</time>
      </trkpt>
      <trkpt lat="43.61094" lon="1.3295">
        <ele>184.2</ele>
        <time>2022-10-26T05:12:20Z</time>
      </trkpt>
      <trkpt lat="43.611" lon="1.32954">
        <ele>184.2</ele>
        <time>2022-10-26T05:12:21Z</time>
      </trkpt>
      <trkpt lat="43.61105" lon="1.32958">
        <ele>184</ele>
        <time>2022-10-26T05:12:22Z</time>
      </trkpt>
      <trkpt lat="43.6111" lon="1.32964">
        <ele>184</ele>
        <time>2022-10-26T05:12:23Z</time>
      </trkpt>
      <trkpt lat="43.61115" lon="1.32971">
        <ele>184</ele>
        <time>2022-10-26T05:12:24Z</time>
      </trkpt>
      <trkpt lat="43.6112" lon="1.32978">
        <ele>184</ele>
        <time>2022-10-26T05:12:25Z</time>
      </trkpt>
      <trkpt lat="43.61125" lon="1.32985">
        <ele>183.8</ele>
        <time>2022-10-26T05:12:26Z</time>
      </trkpt>
      <trkpt lat="43.61131" lon="1.32991">
        <ele>183.6</ele>
        <time>2022-10-26T05:12:27Z</time>
      </trkpt>
      <trkpt lat="43.61136" lon="1.32998">
        <ele>183.6</ele>
        <time>2022-10-26T05:12:28Z</time>
      </trkpt>
      <trkpt lat="43.61142" lon="1.33005">
        <ele>183.4</ele>
        <time>2022-10-26T05:12:29Z</time>
      </trkpt>
      <trkpt lat="43.61147" lon="1.33011">
        <ele>183.4</ele>
        <time>2022-10-26T05:12:30Z</time>
      </trkpt>
      <trkpt lat="43.61152" lon="1.33018">
        <ele>183</ele>
        <time>2022-10-26T05:12:31Z</time>
      </trkpt>
      <trkpt lat="43.61157" lon="1.33024">
        <ele>183</ele>
        <time>2022-10-26T05:12:32Z</time>
      </trkpt>
      <trkpt lat="43.61162" lon="1.3303">
        <ele>182.8</ele>
        <time>2022-10-26T05:12:33Z</time>
      </trkpt>
      <trkpt lat="43.61167" lon="1.33036">
        <ele>182.8</ele>
        <time>2022-10-26T05:12:34Z</time>
      </trkpt>
      <trkpt lat="43.61172" lon="1.33042">
        <ele>182.6</ele>
        <time>2022-10-26T05:12:35Z</time>
      </trkpt>
      <trkpt lat="43.61177" lon="1.33048">
        <ele>182.6</ele>
        <time>2022-10-26T05:12:36Z</time>
      </trkpt>
      <trkpt lat="43.61182" lon="1.33054">
        <ele>182.6</ele>
        <time>2022-10-26T05:12:37Z</time>
      </trkpt>
      <trkpt lat="43.61187" lon="1.33059">
        <ele>182.4</ele>
        <time>2022-10-26T05:12:38Z</time>
      </trkpt>
      <trkpt lat="43.61192" lon="1.33064">
        <ele>182.4</ele>
        <time>2022-10-26T05:12:39Z</time>
      </trkpt>
      <trkpt lat="43.61197" lon="1.33069">
        <ele>182.4</ele>
        <time>2022-10-26T05:12:40Z</time>
      </trkpt>
      <trkpt lat="43.61202" lon="1.33073">
        <ele>182.2</ele>
        <time>2022-10-26T05:12:41Z</time>
      </trkpt>
      <trkpt lat="43.61207" lon="1.33078">
        <ele>182.2</ele>
        <time>2022-10-26T05:12:42Z</time>
      </trkpt>
      <trkpt lat="43.61212" lon="1.33082">
        <ele>182.2</ele>
        <time>2022-10-26T05:12:43Z</time>
      </trkpt>
      <trkpt lat="43.61217" lon="1.33087">
        <ele>182.2</ele>
        <time>2022-10-26T05:12:44Z</time>
      </trkpt>
      <trkpt lat="43.61222" lon="1.3309">
        <ele>182.2</ele>
        <time>2022-10-26T05:12:45Z</time>
      </trkpt>
      <trkpt lat="43.61227" lon="1.33093">
        <ele>182.2</ele>
        <time>2022-10-26T05:12:46Z</time>
      </trkpt>
      <trkpt lat="43.61233" lon="1.33096">
        <ele>182.4</ele>
        <time>2022-10-26T05:12:47Z</time>
      </trkpt>
      <trkpt lat="43.61238" lon="1.33099">
        <ele>182.4</ele>
        <time>2022-10-26T05:12:48Z</time>
      </trkpt>
      <trkpt lat="43.61243" lon="1.33102">
        <ele>182.4</ele>
        <time>2022-10-26T05:12:49Z</time>
      </trkpt>
      <trkpt lat="43.61247" lon="1.33106">
        <ele>182.4</ele>
        <time>2022-10-26T05:12:50Z</time>
      </trkpt>
      <trkpt lat="43.61251" lon="1.33112">
        <ele>182.6</ele>
        <time>2022-10-26T05:12:51Z</time>
      </trkpt>
      <trkpt lat="43.61255" lon="1.33118">
        <ele>182.8</ele>
        <time>2022-10-26T05:12:52Z</time>
      </trkpt>
      <trkpt lat="43.61257" lon="1.33126">
        <ele>182.8</ele>
        <time>2022-10-26T05:12:53Z</time>
      </trkpt>
      <trkpt lat="43.61259" lon="1.33133">
        <ele>182.8</ele>
        <time>2022-10-26T05:12:54Z</time>
      </trkpt>
      <trkpt lat="43.6126" lon="1.33141">
        <ele>183</ele>
        <time>2022-10-26T05:12:55Z</time>
      </trkpt>
      <trkpt lat="43.6126" lon="1.33148">
        <ele>183</ele>
        <time>2022-10-26T05:12:56Z</time>
      </trkpt>
      <trkpt lat="43.61262" lon="1.33157">
        <ele>183</ele>
        <time>2022-10-26T05:12:57Z</time>
      </trkpt>
      <trkpt lat="43.61263" lon="1.33165">
        <ele>183</ele>
        <time>2022-10-26T05:12:58Z</time>
      </trkpt>
      <trkpt lat="43.61265" lon="1.33172">
        <ele>183</ele>
        <time>2022-10-26T05:12:59Z</time>
      </trkpt>
      <trkpt lat="43.61267" lon="1.3318">
        <ele>183</ele>
        <time>2022-10-26T05:13:00Z</time>
      </trkpt>
      <trkpt lat="43.61268" lon="1.33188">
        <ele>183</ele>
        <time>2022-10-26T05:13:01Z</time>
      </trkpt>
      <trkpt lat="43.61268" lon="1.33196">
        <ele>183</ele>
        <time>2022-10-26T05:13:02Z</time>
      </trkpt>
      <trkpt lat="43.61267" lon="1.33204">
        <ele>183</ele>
        <time>2022-10-26T05:13:03Z</time>
      </trkpt>
      <trkpt lat="43.61265" lon="1.33212">
        <ele>183</ele>
        <time>2022-10-26T05:13:04Z</time>
      </trkpt>
      <trkpt lat="43.61263" lon="1.3322">
        <ele>183</ele>
        <time>2022-10-26T05:13:05Z</time>
      </trkpt>
      <trkpt lat="43.61261" lon="1.33228">
        <ele>183</ele>
        <time>2022-10-26T05:13:06Z</time>
      </trkpt>
      <trkpt lat="43.61259" lon="1.33236">
        <ele>183</ele>
        <time>2022-10-26T05:13:07Z</time>
      </trkpt>
      <trkpt lat="43.61257" lon="1.33244">
        <ele>183</ele>
        <time>2022-10-26T05:13:08Z</time>
      </trkpt>
      <trkpt lat="43.61255" lon="1.33252">
        <ele>183.2</ele>
        <time>2022-10-26T05:13:09Z</time>
      </trkpt>
      <trkpt lat="43.61252" lon="1.3326">
        <ele>183.2</ele>
        <time>2022-10-26T05:13:10Z</time>
      </trkpt>
      <trkpt lat="43.6125" lon="1.33268">
        <ele>183.2</ele>
        <time>2022-10-26T05:13:11Z</time>
      </trkpt>
      <trkpt lat="43.61248" lon="1.33276">
        <ele>183.2</ele>
        <time>2022-10-26T05:13:12Z</time>
      </trkpt>
      <trkpt lat="43.61246" lon="1.33284">
        <ele>183.2</ele>
        <time>2022-10-26T05:13:13Z</time>
      </trkpt>
      <trkpt lat="43.61244" lon="1.33293">
        <ele>183.2</ele>
        <time>2022-10-26T05:13:14Z</time>
      </trkpt>
      <trkpt lat="43.61242" lon="1.33301">
        <ele>183.2</ele>
        <time>2022-10-26T05:13:15Z</time>
      </trkpt>
      <trkpt lat="43.6124" lon="1.3331">
        <ele>183.2</ele>
        <time>2022-10-26T05:13:16Z</time>
      </trkpt>
      <trkpt lat="43.61238" lon="1.33318">
        <ele>183.2</ele>
        <time>2022-10-26T05:13:17Z</time>
      </trkpt>
      <trkpt lat="43.61236" lon="1.33327">
        <ele>183.2</ele>
        <time>2022-10-26T05:13:18Z</time>
      </trkpt>
      <trkpt lat="43.61234" lon="1.33337">
        <ele>183.2</ele>
        <time>2022-10-26T05:13:19Z</time>
      </trkpt>
      <trkpt lat="43.61232" lon="1.33346">
        <ele>183</ele>
        <time>2022-10-26T05:13:20Z</time>
      </trkpt>
      <trkpt lat="43.61229" lon="1.33356">
        <ele>183</ele>
        <time>2022-10-26T05:13:21Z</time>
      </trkpt>
      <trkpt lat="43.61227" lon="1.33365">
        <ele>183</ele>
        <time>2022-10-26T05:13:22Z</time>
      </trkpt>
      <trkpt lat="43.61225" lon="1.33374">
        <ele>182.8</ele>
        <time>2022-10-26T05:13:23Z</time>
      </trkpt>
      <trkpt lat="43.61222" lon="1.33382">
        <ele>182.6</ele>
        <time>2022-10-26T05:13:24Z</time>
      </trkpt>
      <trkpt lat="43.6122" lon="1.33391">
        <ele>182.2</ele>
        <time>2022-10-26T05:13:25Z</time>
      </trkpt>
      <trkpt lat="43.61218" lon="1.33399">
        <ele>182.2</ele>
        <time>2022-10-26T05:13:26Z</time>
      </trkpt>
      <trkpt lat="43.61215" lon="1.33408">
        <ele>182.2</ele>
        <time>2022-10-26T05:13:27Z</time>
      </trkpt>
      <trkpt lat="43.61212" lon="1.33416">
        <ele>182</ele>
        <time>2022-10-26T05:13:28Z</time>
      </trkpt>
      <trkpt lat="43.6121" lon="1.33424">
        <ele>182</ele>
        <time>2022-10-26T05:13:29Z</time>
      </trkpt>
      <trkpt lat="43.61207" lon="1.33431">
        <ele>182</ele>
        <time>2022-10-26T05:13:30Z</time>
      </trkpt>
      <trkpt lat="43.61205" lon="1.33437">
        <ele>182</ele>
        <time>2022-10-26T05:13:31Z</time>
      </trkpt>
      <trkpt lat="43.61203" lon="1.33444">
        <ele>182</ele>
        <time>2022-10-26T05:13:32Z</time>
      </trkpt>
      <trkpt lat="43.61201" lon="1.33451">
        <ele>182</ele>
        <time>2022-10-26T05:13:33Z</time>
      </trkpt>
      <trkpt lat="43.61199" lon="1.33458">
        <ele>182</ele>
        <time>2022-10-26T05:13:34Z</time>
      </trkpt>
      <trkpt lat="43.61197" lon="1.33465">
        <ele>182</ele>
        <time>2022-10-26T05:13:35Z</time>
      </trkpt>
      <trkpt lat="43.61194" lon="1.33472">
        <ele>182</ele>
        <time>2022-10-26T05:13:36Z</time>
      </trkpt>
      <trkpt lat="43.61191" lon="1.33479">
        <ele>182.2</ele>
        <time>2022-10-26T05:13:37Z</time>
      </trkpt>
      <trkpt lat="43.61189" lon="1.33486">
        <ele>182.2</ele>
        <time>2022-10-26T05:13:38Z</time>
      </trkpt>
      <trkpt lat="43.61187" lon="1.33494">
        <ele>182.4</ele>
        <time>2022-10-26T05:13:39Z</time>
      </trkpt>
      <trkpt lat="43.61184" lon="1.33502">
        <ele>182.4</ele>
        <time>2022-10-26T05:13:40Z</time>
      </trkpt>
      <trkpt lat="43.61181" lon="1.33509">
        <ele>182.6</ele>
        <time>2022-10-26T05:13:41Z</time>
      </trkpt>
      <trkpt lat="43.61179" lon="1.33517">
        <ele>182.6</ele>
        <time>2022-10-26T05:13:42Z</time>
      </trkpt>
      <trkpt lat="43.61176" lon="1.33525">
        <ele>182.6</ele>
        <time>2022-10-26T05:13:43Z</time>
      </trkpt>
      <trkpt lat="43.61174" lon="1.33533">
        <ele>182.8</ele>
        <time>2022-10-26T05:13:44Z</time>
      </trkpt>
      <trkpt lat="43.61171" lon="1.33541">
        <ele>182.8</ele>
        <time>2022-10-26T05:13:45Z</time>
      </trkpt>
      <trkpt lat="43.61168" lon="1.33549">
        <ele>182.8</ele>
        <time>2022-10-26T05:13:46Z</time>
      </trkpt>
      <trkpt lat="43.61166" lon="1.33557">
        <ele>182.8</ele>
        <time>2022-10-26T05:13:47Z</time>
      </trkpt>
      <trkpt lat="43.61163" lon="1.33564">
        <ele>182.8</ele>
        <time>2022-10-26T05:13:48Z</time>
      </trkpt>
      <trkpt lat="43.61161" lon="1.33573">
        <ele>182.8</ele>
        <time>2022-10-26T05:13:49Z</time>
      </trkpt>
      <trkpt lat="43.61158" lon="1.33581">
        <ele>182.8</ele>
        <time>2022-10-26T05:13:50Z</time>
      </trkpt>
      <trkpt lat="43.61156" lon="1.33588">
        <ele>182.8</ele>
        <time>2022-10-26T05:13:51Z</time>
      </trkpt>
      <trkpt lat="43.61153" lon="1.33596">
        <ele>182.8</ele>
        <time>2022-10-26T05:13:52Z</time>
      </trkpt>
      <trkpt lat="43.6115" lon="1.33603">
        <ele>182.8</ele>
        <time>2022-10-26T05:13:53Z</time>
      </trkpt>
      <trkpt lat="43.61146" lon="1.3361">
        <ele>182.6</ele>
        <time>2022-10-26T05:13:54Z</time>
      </trkpt>
      <trkpt lat="43.61142" lon="1.33616">
        <ele>182.6</ele>
        <time>2022-10-26T05:13:55Z</time>
      </trkpt>
      <trkpt lat="43.61137" lon="1.33621">
        <ele>182.6</ele>
        <time>2022-10-26T05:13:56Z</time>
      </trkpt>
      <trkpt lat="43.61132" lon="1.33625">
        <ele>182.4</ele>
        <time>2022-10-26T05:13:57Z</time>
      </trkpt>
      <trkpt lat="43.61126" lon="1.33629">
        <ele>182.4</ele>
        <time>2022-10-26T05:13:58Z</time>
      </trkpt>
      <trkpt lat="43.6112" lon="1.33633">
        <ele>182.4</ele>
        <time>2022-10-26T05:13:59Z</time>
      </trkpt>
      <trkpt lat="43.61115" lon="1.33638">
        <ele>182.4</ele>
        <time>2022-10-26T05:14:00Z</time>
      </trkpt>
      <trkpt lat="43.6111" lon="1.33643">
        <ele>182.4</ele>
        <time>2022-10-26T05:14:01Z</time>
      </trkpt>
      <trkpt lat="43.61105" lon="1.33649">
        <ele>182.2</ele>
        <time>2022-10-26T05:14:02Z</time>
      </trkpt>
      <trkpt lat="43.61102" lon="1.33656">
        <ele>182.2</ele>
        <time>2022-10-26T05:14:03Z</time>
      </trkpt>
      <trkpt lat="43.611" lon="1.33664">
        <ele>182.2</ele>
        <time>2022-10-26T05:14:04Z</time>
      </trkpt>
      <trkpt lat="43.61098" lon="1.33672">
        <ele>182</ele>
        <time>2022-10-26T05:14:05Z</time>
      </trkpt>
      <trkpt lat="43.61098" lon="1.3368">
        <ele>182</ele>
        <time>2022-10-26T05:14:06Z</time>
      </trkpt>
      <trkpt lat="43.611" lon="1.33688">
        <ele>182</ele>
        <time>2022-10-26T05:14:07Z</time>
      </trkpt>
      <trkpt lat="43.61102" lon="1.33696">
        <ele>181.8</ele>
        <time>2022-10-26T05:14:08Z</time>
      </trkpt>
      <trkpt lat="43.61105" lon="1.33703">
        <ele>181.8</ele>
        <time>2022-10-26T05:14:09Z</time>
      </trkpt>
      <trkpt lat="43.6111" lon="1.33709">
        <ele>181.6</ele>
        <time>2022-10-26T05:14:10Z</time>
      </trkpt>
      <trkpt lat="43.61114" lon="1.33715">
        <ele>181.6</ele>
        <time>2022-10-26T05:14:11Z</time>
      </trkpt>
      <trkpt lat="43.6112" lon="1.33719">
        <ele>181.6</ele>
        <time>2022-10-26T05:14:12Z</time>
      </trkpt>
      <trkpt lat="43.61125" lon="1.33722">
        <ele>181.6</ele>
        <time>2022-10-26T05:14:13Z</time>
      </trkpt>
      <trkpt lat="43.61131" lon="1.33724">
        <ele>181.6</ele>
        <time>2022-10-26T05:14:14Z</time>
      </trkpt>
      <trkpt lat="43.61137" lon="1.33725">
        <ele>181.6</ele>
        <time>2022-10-26T05:14:15Z</time>
      </trkpt>
      <trkpt lat="43.61143" lon="1.33726">
        <ele>181.4</ele>
        <time>2022-10-26T05:14:16Z</time>
      </trkpt>
      <trkpt lat="43.61149" lon="1.33727">
        <ele>181.4</ele>
        <time>2022-10-26T05:14:17Z</time>
      </trkpt>
      <trkpt lat="43.61155" lon="1.33728">
        <ele>181.4</ele>
        <time>2022-10-26T05:14:18Z</time>
      </trkpt>
      <trkpt lat="43.61161" lon="1.3373">
        <ele>181.4</ele>
        <time>2022-10-26T05:14:19Z</time>
      </trkpt>
      <trkpt lat="43.61167" lon="1.33733">
        <ele>181.4</ele>
        <time>2022-10-26T05:14:20Z</time>
      </trkpt>
      <trkpt lat="43.61174" lon="1.33736">
        <ele>181.4</ele>
        <time>2022-10-26T05:14:21Z</time>
      </trkpt>
      <trkpt lat="43.6118" lon="1.33739">
        <ele>181.4</ele>
        <time>2022-10-26T05:14:22Z</time>
      </trkpt>
      <trkpt lat="43.61187" lon="1.33743">
        <ele>181.4</ele>
        <time>2022-10-26T05:14:23Z</time>
      </trkpt>
      <trkpt lat="43.61193" lon="1.33748">
        <ele>181.4</ele>
        <time>2022-10-26T05:14:24Z</time>
      </trkpt>
      <trkpt lat="43.612" lon="1.33753">
        <ele>181.4</ele>
        <time>2022-10-26T05:14:25Z</time>
      </trkpt>
      <trkpt lat="43.61208" lon="1.33759">
        <ele>181.2</ele>
        <time>2022-10-26T05:14:26Z</time>
      </trkpt>
      <trkpt lat="43.61214" lon="1.33764">
        <ele>181.2</ele>
        <time>2022-10-26T05:14:27Z</time>
      </trkpt>
      <trkpt lat="43.61221" lon="1.33769">
        <ele>181</ele>
        <time>2022-10-26T05:14:28Z</time>
      </trkpt>
      <trkpt lat="43.61229" lon="1.33774">
        <ele>181</ele>
        <time>2022-10-26T05:14:29Z</time>
      </trkpt>
      <trkpt lat="43.61237" lon="1.3378">
        <ele>180.8</ele>
        <time>2022-10-26T05:14:30Z</time>
      </trkpt>
      <trkpt lat="43.61245" lon="1.33787">
        <ele>180.4</ele>
        <time>2022-10-26T05:14:31Z</time>
      </trkpt>
      <trkpt lat="43.61253" lon="1.33794">
        <ele>180.2</ele>
        <time>2022-10-26T05:14:32Z</time>
      </trkpt>
      <trkpt lat="43.6126" lon="1.338">
        <ele>180</ele>
        <time>2022-10-26T05:14:33Z</time>
      </trkpt>
      <trkpt lat="43.61267" lon="1.33808">
        <ele>179.6</ele>
        <time>2022-10-26T05:14:34Z</time>
      </trkpt>
      <trkpt lat="43.61276" lon="1.33817">
        <ele>179.2</ele>
        <time>2022-10-26T05:14:35Z</time>
      </trkpt>
      <trkpt lat="43.61285" lon="1.33824">
        <ele>178.8</ele>
        <time>2022-10-26T05:14:36Z</time>
      </trkpt>
      <trkpt lat="43.61292" lon="1.33832">
        <ele>178.4</ele>
        <time>2022-10-26T05:14:37Z</time>
      </trkpt>
      <trkpt lat="43.61299" lon="1.33838">
        <ele>178</ele>
        <time>2022-10-26T05:14:38Z</time>
      </trkpt>
      <trkpt lat="43.61307" lon="1.33848">
        <ele>177.8</ele>
        <time>2022-10-26T05:14:39Z</time>
      </trkpt>
      <trkpt lat="43.61317" lon="1.3386">
        <ele>177</ele>
        <time>2022-10-26T05:14:40Z</time>
      </trkpt>
      <trkpt lat="43.61324" lon="1.33869">
        <ele>176.8</ele>
        <time>2022-10-26T05:14:41Z</time>
      </trkpt>
      <trkpt lat="43.61332" lon="1.33879">
        <ele>176.2</ele>
        <time>2022-10-26T05:14:42Z</time>
      </trkpt>
      <trkpt lat="43.61339" lon="1.33889">
        <ele>176</ele>
        <time>2022-10-26T05:14:43Z</time>
      </trkpt>
      <trkpt lat="43.61345" lon="1.33899">
        <ele>175.6</ele>
        <time>2022-10-26T05:14:44Z</time>
      </trkpt>
      <trkpt lat="43.61351" lon="1.33909">
        <ele>174.8</ele>
        <time>2022-10-26T05:14:45Z</time>
      </trkpt>
      <trkpt lat="43.61357" lon="1.3392">
        <ele>174.6</ele>
        <time>2022-10-26T05:14:46Z</time>
      </trkpt>
      <trkpt lat="43.61361" lon="1.33931">
        <ele>174.2</ele>
        <time>2022-10-26T05:14:47Z</time>
      </trkpt>
      <trkpt lat="43.61365" lon="1.33942">
        <ele>173.8</ele>
        <time>2022-10-26T05:14:48Z</time>
      </trkpt>
      <trkpt lat="43.61369" lon="1.33955">
        <ele>173.6</ele>
        <time>2022-10-26T05:14:49Z</time>
      </trkpt>
      <trkpt lat="43.61372" lon="1.33966">
        <ele>173.4</ele>
        <time>2022-10-26T05:14:50Z</time>
      </trkpt>
      <trkpt lat="43.61374" lon="1.33978">
        <ele>172.8</ele>
        <time>2022-10-26T05:14:51Z</time>
      </trkpt>
      <trkpt lat="43.61375" lon="1.33989">
        <ele>172.6</ele>
        <time>2022-10-26T05:14:52Z</time>
      </trkpt>
      <trkpt lat="43.61376" lon="1.33999">
        <ele>172.4</ele>
        <time>2022-10-26T05:14:53Z</time>
      </trkpt>
      <trkpt lat="43.61376" lon="1.34009">
        <ele>172</ele>
        <time>2022-10-26T05:14:54Z</time>
      </trkpt>
      <trkpt lat="43.61377" lon="1.34019">
        <ele>171.8</ele>
        <time>2022-10-26T05:14:55Z</time>
      </trkpt>
      <trkpt lat="43.61377" lon="1.34029">
        <ele>171.4</ele>
        <time>2022-10-26T05:14:56Z</time>
      </trkpt>
      <trkpt lat="43.61378" lon="1.34038">
        <ele>171.2</ele>
        <time>2022-10-26T05:14:57Z</time>
      </trkpt>
      <trkpt lat="43.61379" lon="1.34047">
        <ele>171</ele>
        <time>2022-10-26T05:14:58Z</time>
      </trkpt>
      <trkpt lat="43.61381" lon="1.34055">
        <ele>170.8</ele>
        <time>2022-10-26T05:14:59Z</time>
      </trkpt>
      <trkpt lat="43.61383" lon="1.34063">
        <ele>170.4</ele>
        <time>2022-10-26T05:15:00Z</time>
      </trkpt>
      <trkpt lat="43.61385" lon="1.3407">
        <ele>170.2</ele>
        <time>2022-10-26T05:15:01Z</time>
      </trkpt>
      <trkpt lat="43.61386" lon="1.34075">
        <ele>170</ele>
        <time>2022-10-26T05:15:02Z</time>
      </trkpt>
      <trkpt lat="43.61386" lon="1.3408">
        <ele>169.8</ele>
        <time>2022-10-26T05:15:03Z</time>
      </trkpt>
      <trkpt lat="43.61387" lon="1.34084">
        <ele>169.8</ele>
        <time>2022-10-26T05:15:04Z</time>
      </trkpt>
      <trkpt lat="43.61388" lon="1.34088">
        <ele>169.4</ele>
        <time>2022-10-26T05:15:05Z</time>
      </trkpt>
      <trkpt lat="43.61391" lon="1.34091">
        <ele>169.4</ele>
        <time>2022-10-26T05:15:06Z</time>
      </trkpt>
      <trkpt lat="43.61393" lon="1.34092">
        <ele>169.2</ele>
        <time>2022-10-26T05:15:07Z</time>
      </trkpt>
      <trkpt lat="43.61394" lon="1.34092">
        <ele>169.2</ele>
        <time>2022-10-26T05:15:08Z</time>
      </trkpt>
      <trkpt lat="43.61396" lon="1.34092">
        <ele>169</ele>
        <time>2022-10-26T05:15:09Z</time>
      </trkpt>
      <trkpt lat="43.61399" lon="1.34094">
        <ele>169</ele>
        <time>2022-10-26T05:15:10Z</time>
      </trkpt>
      <trkpt lat="43.61402" lon="1.34095">
        <ele>168.8</ele>
        <time>2022-10-26T05:15:11Z</time>
      </trkpt>
      <trkpt lat="43.61406" lon="1.34095">
        <ele>168.6</ele>
        <time>2022-10-26T05:15:12Z</time>
      </trkpt>
      <trkpt lat="43.6141" lon="1.34095">
        <ele>168.4</ele>
        <time>2022-10-26T05:15:13Z</time>
      </trkpt>
      <trkpt lat="43.61413" lon="1.34095">
        <ele>168.4</ele>
        <time>2022-10-26T05:15:14Z</time>
      </trkpt>
      <trkpt lat="43.61419" lon="1.34095">
        <ele>168.2</ele>
        <time>2022-10-26T05:15:15Z</time>
      </trkpt>
      <trkpt lat="43.61423" lon="1.34094">
        <ele>168.2</ele>
        <time>2022-10-26T05:15:16Z</time>
      </trkpt>
      <trkpt lat="43.61428" lon="1.34094">
        <ele>168.2</ele>
        <time>2022-10-26T05:15:17Z</time>
      </trkpt>
      <trkpt lat="43.61431" lon="1.34093">
        <ele>168.2</ele>
        <time>2022-10-26T05:15:18Z</time>
      </trkpt>
      <trkpt lat="43.61435" lon="1.34093">
        <ele>168.2</ele>
        <time>2022-10-26T05:15:19Z</time>
      </trkpt>
      <trkpt lat="43.61439" lon="1.34091">
        <ele>168.2</ele>
        <time>2022-10-26T05:15:20Z</time>
      </trkpt>
      <trkpt lat="43.61443" lon="1.34088">
        <ele>168.2</ele>
        <time>2022-10-26T05:15:21Z</time>
      </trkpt>
      <trkpt lat="43.61446" lon="1.34083">
        <ele>168.2</ele>
        <time>2022-10-26T05:15:22Z</time>
      </trkpt>
      <trkpt lat="43.61448" lon="1.34078">
        <ele>168.4</ele>
        <time>2022-10-26T05:15:23Z</time>
      </trkpt>
      <trkpt lat="43.61451" lon="1.34073">
        <ele>168.4</ele>
        <time>2022-10-26T05:15:24Z</time>
      </trkpt>
      <trkpt lat="43.61454" lon="1.34067">
        <ele>168.4</ele>
        <time>2022-10-26T05:15:25Z</time>
      </trkpt>
      <trkpt lat="43.61456" lon="1.34062">
        <ele>168.6</ele>
        <time>2022-10-26T05:15:26Z</time>
      </trkpt>
      <trkpt lat="43.61459" lon="1.34057">
        <ele>168.6</ele>
        <time>2022-10-26T05:15:27Z</time>
      </trkpt>
      <trkpt lat="43.61462" lon="1.34054">
        <ele>168.6</ele>
        <time>2022-10-26T05:15:28Z</time>
      </trkpt>
      <trkpt lat="43.61466" lon="1.34049">
        <ele>168.8</ele>
        <time>2022-10-26T05:15:29Z</time>
      </trkpt>
      <trkpt lat="43.6147" lon="1.34046">
        <ele>168.8</ele>
        <time>2022-10-26T05:15:30Z</time>
      </trkpt>
      <trkpt lat="43.61475" lon="1.34043">
        <ele>168.8</ele>
        <time>2022-10-26T05:15:31Z</time>
      </trkpt>
      <trkpt lat="43.6148" lon="1.34041">
        <ele>169</ele>
        <time>2022-10-26T05:15:32Z</time>
      </trkpt>
      <trkpt lat="43.61485" lon="1.3404">
        <ele>169</ele>
        <time>2022-10-26T05:15:33Z</time>
      </trkpt>
      <trkpt lat="43.61489" lon="1.34039">
        <ele>169.2</ele>
        <time>2022-10-26T05:15:34Z</time>
      </trkpt>
      <trkpt lat="43.61494" lon="1.34037">
        <ele>169.4</ele>
        <time>2022-10-26T05:15:35Z</time>
      </trkpt>
      <trkpt lat="43.61499" lon="1.34036">
        <ele>169.6</ele>
        <time>2022-10-26T05:15:36Z</time>
      </trkpt>
      <trkpt lat="43.61504" lon="1.34035">
        <ele>169.8</ele>
        <time>2022-10-26T05:15:37Z</time>
      </trkpt>
      <trkpt lat="43.61508" lon="1.34034">
        <ele>169.8</ele>
        <time>2022-10-26T05:15:38Z</time>
      </trkpt>
      <trkpt lat="43.61514" lon="1.34033">
        <ele>170</ele>
        <time>2022-10-26T05:15:39Z</time>
      </trkpt>
      <trkpt lat="43.6152" lon="1.34032">
        <ele>170</ele>
        <time>2022-10-26T05:15:40Z</time>
      </trkpt>
      <trkpt lat="43.61525" lon="1.34031">
        <ele>170.2</ele>
        <time>2022-10-26T05:15:41Z</time>
      </trkpt>
      <trkpt lat="43.61529" lon="1.3403">
        <ele>170.2</ele>
        <time>2022-10-26T05:15:42Z</time>
      </trkpt>
      <trkpt lat="43.61534" lon="1.34029">
        <ele>170.6</ele>
        <time>2022-10-26T05:15:43Z</time>
      </trkpt>
      <trkpt lat="43.6154" lon="1.34028">
        <ele>170.6</ele>
        <time>2022-10-26T05:15:44Z</time>
      </trkpt>
      <trkpt lat="43.61545" lon="1.34026">
        <ele>170.8</ele>
        <time>2022-10-26T05:15:45Z</time>
      </trkpt>
      <trkpt lat="43.6155" lon="1.34025">
        <ele>170.8</ele>
        <time>2022-10-26T05:15:46Z</time>
      </trkpt>
      <trkpt lat="43.61555" lon="1.34023">
        <ele>171</ele>
        <time>2022-10-26T05:15:47Z</time>
      </trkpt>
      <trkpt lat="43.6156" lon="1.34022">
        <ele>171.2</ele>
        <time>2022-10-26T05:15:48Z</time>
      </trkpt>
      <trkpt lat="43.61565" lon="1.34021">
        <ele>171.4</ele>
        <time>2022-10-26T05:15:49Z</time>
      </trkpt>
      <trkpt lat="43.6157" lon="1.3402">
        <ele>171.6</ele>
        <time>2022-10-26T05:15:50Z</time>
      </trkpt>
      <trkpt lat="43.61575" lon="1.34019">
        <ele>171.6</ele>
        <time>2022-10-26T05:15:51Z</time>
      </trkpt>
      <trkpt lat="43.6158" lon="1.34018">
        <ele>171.8</ele>
        <time>2022-10-26T05:15:52Z</time>
      </trkpt>
      <trkpt lat="43.61584" lon="1.34017">
        <ele>172</ele>
        <time>2022-10-26T05:15:53Z</time>
      </trkpt>
      <trkpt lat="43.6159" lon="1.34017">
        <ele>172</ele>
        <time>2022-10-26T05:15:54Z</time>
      </trkpt>
      <trkpt lat="43.61595" lon="1.34016">
        <ele>172.2</ele>
        <time>2022-10-26T05:15:55Z</time>
      </trkpt>
      <trkpt lat="43.616" lon="1.34015">
        <ele>172.2</ele>
        <time>2022-10-26T05:15:56Z</time>
      </trkpt>
      <trkpt lat="43.61605" lon="1.34014">
        <ele>172.4</ele>
        <time>2022-10-26T05:15:57Z</time>
      </trkpt>
      <trkpt lat="43.61609" lon="1.34014">
        <ele>172.4</ele>
        <time>2022-10-26T05:15:58Z</time>
      </trkpt>
      <trkpt lat="43.61614" lon="1.34013">
        <ele>172.6</ele>
        <time>2022-10-26T05:15:59Z</time>
      </trkpt>
      <trkpt lat="43.6162" lon="1.34012">
        <ele>172.6</ele>
        <time>2022-10-26T05:16:00Z</time>
      </trkpt>
      <trkpt lat="43.61625" lon="1.34011">
        <ele>172.8</ele>
        <time>2022-10-26T05:16:01Z</time>
      </trkpt>
      <trkpt lat="43.6163" lon="1.34012">
        <ele>173</ele>
        <time>2022-10-26T05:16:02Z</time>
      </trkpt>
      <trkpt lat="43.61635" lon="1.34012">
        <ele>173.2</ele>
        <time>2022-10-26T05:16:03Z</time>
      </trkpt>
      <trkpt lat="43.61639" lon="1.34012">
        <ele>173.2</ele>
        <time>2022-10-26T05:16:04Z</time>
      </trkpt>
      <trkpt lat="43.61644" lon="1.34012">
        <ele>173.4</ele>
        <time>2022-10-26T05:16:05Z</time>
      </trkpt>
      <trkpt lat="43.61649" lon="1.34012">
        <ele>173.4</ele>
        <time>2022-10-26T05:16:06Z</time>
      </trkpt>
      <trkpt lat="43.61654" lon="1.34011">
        <ele>173.6</ele>
        <time>2022-10-26T05:16:07Z</time>
      </trkpt>
      <trkpt lat="43.61657" lon="1.34011">
        <ele>173.6</ele>
        <time>2022-10-26T05:16:08Z</time>
      </trkpt>
      <trkpt lat="43.61661" lon="1.3401">
        <ele>173.8</ele>
        <time>2022-10-26T05:16:09Z</time>
      </trkpt>
      <trkpt lat="43.61667" lon="1.34008">
        <ele>173.8</ele>
        <time>2022-10-26T05:16:10Z</time>
      </trkpt>
      <trkpt lat="43.61672" lon="1.34007">
        <ele>173.8</ele>
        <time>2022-10-26T05:16:11Z</time>
      </trkpt>
      <trkpt lat="43.61678" lon="1.34007">
        <ele>173.8</ele>
        <time>2022-10-26T05:16:12Z</time>
      </trkpt>
      <trkpt lat="43.61682" lon="1.34007">
        <ele>173.8</ele>
        <time>2022-10-26T05:16:13Z</time>
      </trkpt>
      <trkpt lat="43.61689" lon="1.34006">
        <ele>174</ele>
        <time>2022-10-26T05:16:14Z</time>
      </trkpt>
      <trkpt lat="43.61696" lon="1.34005">
        <ele>174</ele>
        <time>2022-10-26T05:16:15Z</time>
      </trkpt>
      <trkpt lat="43.61703" lon="1.34005">
        <ele>174</ele>
        <time>2022-10-26T05:16:16Z</time>
      </trkpt>
      <trkpt lat="43.61711" lon="1.34004">
        <ele>174</ele>
        <time>2022-10-26T05:16:17Z</time>
      </trkpt>
      <trkpt lat="43.61717" lon="1.34003">
        <ele>174</ele>
        <time>2022-10-26T05:16:18Z</time>
      </trkpt>
      <trkpt lat="43.61725" lon="1.34">
        <ele>174</ele>
        <time>2022-10-26T05:16:19Z</time>
      </trkpt>
      <trkpt lat="43.61734" lon="1.33995">
        <ele>173.8</ele>
        <time>2022-10-26T05:16:20Z</time>
      </trkpt>
      <trkpt lat="43.61743" lon="1.33992">
        <ele>173.8</ele>
        <time>2022-10-26T05:16:21Z</time>
      </trkpt>
      <trkpt lat="43.61751" lon="1.3399">
        <ele>173.6</ele>
        <time>2022-10-26T05:16:22Z</time>
      </trkpt>
      <trkpt lat="43.61757" lon="1.33992">
        <ele>173.4</ele>
        <time>2022-10-26T05:16:23Z</time>
      </trkpt>
      <trkpt lat="43.61764" lon="1.33998">
        <ele>173.2</ele>
        <time>2022-10-26T05:16:24Z</time>
      </trkpt>
      <trkpt lat="43.61769" lon="1.3401">
        <ele>173</ele>
        <time>2022-10-26T05:16:25Z</time>
      </trkpt>
      <trkpt lat="43.61772" lon="1.34022">
        <ele>172.4</ele>
        <time>2022-10-26T05:16:26Z</time>
      </trkpt>
      <trkpt lat="43.61775" lon="1.34035">
        <ele>172</ele>
        <time>2022-10-26T05:16:27Z</time>
      </trkpt>
      <trkpt lat="43.61778" lon="1.34048">
        <ele>171.8</ele>
        <time>2022-10-26T05:16:28Z</time>
      </trkpt>
      <trkpt lat="43.61781" lon="1.34058">
        <ele>171.4</ele>
        <time>2022-10-26T05:16:29Z</time>
      </trkpt>
      <trkpt lat="43.61786" lon="1.34074">
        <ele>171.2</ele>
        <time>2022-10-26T05:16:30Z</time>
      </trkpt>
      <trkpt lat="43.61789" lon="1.34088">
        <ele>170.6</ele>
        <time>2022-10-26T05:16:31Z</time>
      </trkpt>
      <trkpt lat="43.61793" lon="1.34101">
        <ele>170.4</ele>
        <time>2022-10-26T05:16:32Z</time>
      </trkpt>
      <trkpt lat="43.61795" lon="1.34111">
        <ele>170</ele>
        <time>2022-10-26T05:16:33Z</time>
      </trkpt>
      <trkpt lat="43.61798" lon="1.34126">
        <ele>169.6</ele>
        <time>2022-10-26T05:16:34Z</time>
      </trkpt>
      <trkpt lat="43.61801" lon="1.34137">
        <ele>169.2</ele>
        <time>2022-10-26T05:16:35Z</time>
      </trkpt>
      <trkpt lat="43.61806" lon="1.34148">
        <ele>168.2</ele>
        <time>2022-10-26T05:16:36Z</time>
      </trkpt>
      <trkpt lat="43.6181" lon="1.34156">
        <ele>167.8</ele>
        <time>2022-10-26T05:16:37Z</time>
      </trkpt>
      <trkpt lat="43.61817" lon="1.34165">
        <ele>167.4</ele>
        <time>2022-10-26T05:16:38Z</time>
      </trkpt>
      <trkpt lat="43.61823" lon="1.34173">
        <ele>167</ele>
        <time>2022-10-26T05:16:39Z</time>
      </trkpt>
      <trkpt lat="43.61829" lon="1.34181">
        <ele>166.2</ele>
        <time>2022-10-26T05:16:40Z</time>
      </trkpt>
      <trkpt lat="43.61835" lon="1.34189">
        <ele>166</ele>
        <time>2022-10-26T05:16:41Z</time>
      </trkpt>
      <trkpt lat="43.6184" lon="1.34197">
        <ele>165.6</ele>
        <time>2022-10-26T05:16:42Z</time>
      </trkpt>
      <trkpt lat="43.61845" lon="1.34205">
        <ele>165.6</ele>
        <time>2022-10-26T05:16:43Z</time>
      </trkpt>
      <trkpt lat="43.61851" lon="1.34212">
        <ele>165</ele>
        <time>2022-10-26T05:16:44Z</time>
      </trkpt>
      <trkpt lat="43.61857" lon="1.34219">
        <ele>164.6</ele>
        <time>2022-10-26T05:16:45Z</time>
      </trkpt>
      <trkpt lat="43.61863" lon="1.34225">
        <ele>164.4</ele>
        <time>2022-10-26T05:16:46Z</time>
      </trkpt>
      <trkpt lat="43.61869" lon="1.34232">
        <ele>164</ele>
        <time>2022-10-26T05:16:47Z</time>
      </trkpt>
      <trkpt lat="43.61874" lon="1.34239">
        <ele>163.6</ele>
        <time>2022-10-26T05:16:48Z</time>
      </trkpt>
      <trkpt lat="43.6188" lon="1.34246">
        <ele>163.4</ele>
        <time>2022-10-26T05:16:49Z</time>
      </trkpt>
      <trkpt lat="43.61886" lon="1.34253">
        <ele>163.4</ele>
        <time>2022-10-26T05:16:50Z</time>
      </trkpt>
      <trkpt lat="43.61891" lon="1.3426">
        <ele>163.2</ele>
        <time>2022-10-26T05:16:51Z</time>
      </trkpt>
      <trkpt lat="43.61897" lon="1.34267">
        <ele>163</ele>
        <time>2022-10-26T05:16:52Z</time>
      </trkpt>
      <trkpt lat="43.61902" lon="1.34274">
        <ele>162.8</ele>
        <time>2022-10-26T05:16:53Z</time>
      </trkpt>
      <trkpt lat="43.61908" lon="1.34281">
        <ele>162.6</ele>
        <time>2022-10-26T05:16:54Z</time>
      </trkpt>
      <trkpt lat="43.61914" lon="1.34287">
        <ele>162.6</ele>
        <time>2022-10-26T05:16:55Z</time>
      </trkpt>
      <trkpt lat="43.61919" lon="1.34294">
        <ele>162.4</ele>
        <time>2022-10-26T05:16:56Z</time>
      </trkpt>
      <trkpt lat="43.61925" lon="1.343">
        <ele>162.4</ele>
        <time>2022-10-26T05:16:57Z</time>
      </trkpt>
      <trkpt lat="43.61931" lon="1.34306">
        <ele>162.2</ele>
        <time>2022-10-26T05:16:58Z</time>
      </trkpt>
      <trkpt lat="43.61937" lon="1.34312">
        <ele>162.2</ele>
        <time>2022-10-26T05:16:59Z</time>
      </trkpt>
      <trkpt lat="43.61942" lon="1.34317">
        <ele>162</ele>
        <time>2022-10-26T05:17:00Z</time>
      </trkpt>
      <trkpt lat="43.61948" lon="1.34323">
        <ele>162</ele>
        <time>2022-10-26T05:17:01Z</time>
      </trkpt>
      <trkpt lat="43.61953" lon="1.34329">
        <ele>161.8</ele>
        <time>2022-10-26T05:17:02Z</time>
      </trkpt>
      <trkpt lat="43.61958" lon="1.34335">
        <ele>161.6</ele>
        <time>2022-10-26T05:17:03Z</time>
      </trkpt>
      <trkpt lat="43.61964" lon="1.3434">
        <ele>161.6</ele>
        <time>2022-10-26T05:17:04Z</time>
      </trkpt>
      <trkpt lat="43.61969" lon="1.34345">
        <ele>161.4</ele>
        <time>2022-10-26T05:17:05Z</time>
      </trkpt>
      <trkpt lat="43.61975" lon="1.3435">
        <ele>161.2</ele>
        <time>2022-10-26T05:17:06Z</time>
      </trkpt>
      <trkpt lat="43.61979" lon="1.34355">
        <ele>161</ele>
        <time>2022-10-26T05:17:07Z</time>
      </trkpt>
      <trkpt lat="43.61983" lon="1.34359">
        <ele>161</ele>
        <time>2022-10-26T05:17:08Z</time>
      </trkpt>
      <trkpt lat="43.61988" lon="1.34364">
        <ele>160.8</ele>
        <time>2022-10-26T05:17:09Z</time>
      </trkpt>
      <trkpt lat="43.61994" lon="1.3437">
        <ele>160.6</ele>
        <time>2022-10-26T05:17:10Z</time>
      </trkpt>
      <trkpt lat="43.61998" lon="1.34374">
        <ele>160.6</ele>
        <time>2022-10-26T05:17:11Z</time>
      </trkpt>
      <trkpt lat="43.62004" lon="1.34381">
        <ele>160.6</ele>
        <time>2022-10-26T05:17:12Z</time>
      </trkpt>
      <trkpt lat="43.62008" lon="1.34385">
        <ele>160.6</ele>
        <time>2022-10-26T05:17:13Z</time>
      </trkpt>
      <trkpt lat="43.62014" lon="1.34393">
        <ele>160.4</ele>
        <time>2022-10-26T05:17:14Z</time>
      </trkpt>
      <trkpt lat="43.62018" lon="1.34399">
        <ele>160.2</ele>
        <time>2022-10-26T05:17:15Z</time>
      </trkpt>
      <trkpt lat="43.62021" lon="1.34405">
        <ele>160</ele>
        <time>2022-10-26T05:17:16Z</time>
      </trkpt>
      <trkpt lat="43.62025" lon="1.34411">
        <ele>160</ele>
        <time>2022-10-26T05:17:17Z</time>
      </trkpt>
      <trkpt lat="43.62029" lon="1.34418">
        <ele>159.8</ele>
        <time>2022-10-26T05:17:18Z</time>
      </trkpt>
      <trkpt lat="43.62031" lon="1.34426">
        <ele>159.6</ele>
        <time>2022-10-26T05:17:19Z</time>
      </trkpt>
      <trkpt lat="43.62032" lon="1.34434">
        <ele>159.6</ele>
        <time>2022-10-26T05:17:20Z</time>
      </trkpt>
      <trkpt lat="43.62031" lon="1.3444">
        <ele>159.4</ele>
        <time>2022-10-26T05:17:21Z</time>
      </trkpt>
      <trkpt lat="43.62029" lon="1.34446">
        <ele>159.4</ele>
        <time>2022-10-26T05:17:22Z</time>
      </trkpt>
      <trkpt lat="43.62026" lon="1.34451">
        <ele>159.2</ele>
        <time>2022-10-26T05:17:23Z</time>
      </trkpt>
      <trkpt lat="43.62025" lon="1.34456">
        <ele>159.2</ele>
        <time>2022-10-26T05:17:24Z</time>
      </trkpt>
      <trkpt lat="43.62025" lon="1.34462">
        <ele>159.2</ele>
        <time>2022-10-26T05:17:25Z</time>
      </trkpt>
      <trkpt lat="43.62027" lon="1.34465">
        <ele>159.2</ele>
        <time>2022-10-26T05:17:26Z</time>
      </trkpt>
      <trkpt lat="43.6203" lon="1.34465">
        <ele>159</ele>
        <time>2022-10-26T05:17:27Z</time>
      </trkpt>
      <trkpt lat="43.62034" lon="1.34463">
        <ele>159</ele>
        <time>2022-10-26T05:17:28Z</time>
      </trkpt>
      <trkpt lat="43.62037" lon="1.3446">
        <ele>159</ele>
        <time>2022-10-26T05:17:29Z</time>
      </trkpt>
      <trkpt lat="43.62041" lon="1.34458">
        <ele>158.8</ele>
        <time>2022-10-26T05:17:30Z</time>
      </trkpt>
      <trkpt lat="43.62044" lon="1.34458">
        <ele>158.8</ele>
        <time>2022-10-26T05:17:31Z</time>
      </trkpt>
      <trkpt lat="43.62048" lon="1.34458">
        <ele>158.8</ele>
        <time>2022-10-26T05:17:32Z</time>
      </trkpt>
      <trkpt lat="43.62053" lon="1.34458">
        <ele>158.6</ele>
        <time>2022-10-26T05:17:33Z</time>
      </trkpt>
      <trkpt lat="43.62058" lon="1.34458">
        <ele>158.6</ele>
        <time>2022-10-26T05:17:34Z</time>
      </trkpt>
      <trkpt lat="43.62064" lon="1.34458">
        <ele>158.6</ele>
        <time>2022-10-26T05:17:35Z</time>
      </trkpt>
      <trkpt lat="43.62069" lon="1.34459">
        <ele>158.4</ele>
        <time>2022-10-26T05:17:36Z</time>
      </trkpt>
      <trkpt lat="43.62074" lon="1.34461">
        <ele>158.4</ele>
        <time>2022-10-26T05:17:37Z</time>
      </trkpt>
      <trkpt lat="43.62079" lon="1.34465">
        <ele>158.2</ele>
        <time>2022-10-26T05:17:38Z</time>
      </trkpt>
      <trkpt lat="43.62082" lon="1.34468">
        <ele>158.2</ele>
        <time>2022-10-26T05:17:39Z</time>
      </trkpt>
      <trkpt lat="43.62087" lon="1.34473">
        <ele>158.2</ele>
        <time>2022-10-26T05:17:40Z</time>
      </trkpt>
      <trkpt lat="43.62091" lon="1.34479">
        <ele>158.2</ele>
        <time>2022-10-26T05:17:41Z</time>
      </trkpt>
      <trkpt lat="43.62097" lon="1.34485">
        <ele>158.2</ele>
        <time>2022-10-26T05:17:42Z</time>
      </trkpt>
      <trkpt lat="43.62102" lon="1.34491">
        <ele>158.2</ele>
        <time>2022-10-26T05:17:43Z</time>
      </trkpt>
      <trkpt lat="43.62106" lon="1.34496">
        <ele>158.2</ele>
        <time>2022-10-26T05:17:44Z</time>
      </trkpt>
      <trkpt lat="43.6211" lon="1.345">
        <ele>158.2</ele>
        <time>2022-10-26T05:17:45Z</time>
      </trkpt>
      <trkpt lat="43.62115" lon="1.34505">
        <ele>158</ele>
        <time>2022-10-26T05:17:46Z</time>
      </trkpt>
      <trkpt lat="43.6212" lon="1.34511">
        <ele>158</ele>
        <time>2022-10-26T05:17:47Z</time>
      </trkpt>
      <trkpt lat="43.62126" lon="1.34516">
        <ele>157.8</ele>
        <time>2022-10-26T05:17:48Z</time>
      </trkpt>
      <trkpt lat="43.62131" lon="1.34521">
        <ele>157.8</ele>
        <time>2022-10-26T05:17:49Z</time>
      </trkpt>
      <trkpt lat="43.62135" lon="1.34525">
        <ele>158</ele>
        <time>2022-10-26T05:17:50Z</time>
      </trkpt>
      <trkpt lat="43.6214" lon="1.3453">
        <ele>158</ele>
        <time>2022-10-26T05:17:51Z</time>
      </trkpt>
      <trkpt lat="43.62146" lon="1.34536">
        <ele>157.8</ele>
        <time>2022-10-26T05:17:52Z</time>
      </trkpt>
      <trkpt lat="43.62151" lon="1.3454">
        <ele>157.8</ele>
        <time>2022-10-26T05:17:53Z</time>
      </trkpt>
      <trkpt lat="43.62157" lon="1.34545">
        <ele>157.8</ele>
        <time>2022-10-26T05:17:54Z</time>
      </trkpt>
      <trkpt lat="43.62162" lon="1.3455">
        <ele>157.8</ele>
        <time>2022-10-26T05:17:55Z</time>
      </trkpt>
      <trkpt lat="43.62168" lon="1.34555">
        <ele>157.8</ele>
        <time>2022-10-26T05:17:56Z</time>
      </trkpt>
      <trkpt lat="43.62173" lon="1.3456">
        <ele>157.8</ele>
        <time>2022-10-26T05:17:57Z</time>
      </trkpt>
      <trkpt lat="43.62179" lon="1.34564">
        <ele>157.6</ele>
        <time>2022-10-26T05:17:58Z</time>
      </trkpt>
      <trkpt lat="43.62184" lon="1.34567">
        <ele>157.6</ele>
        <time>2022-10-26T05:17:59Z</time>
      </trkpt>
      <trkpt lat="43.62189" lon="1.34571">
        <ele>157.6</ele>
        <time>2022-10-26T05:18:00Z</time>
      </trkpt>
      <trkpt lat="43.62196" lon="1.34576">
        <ele>157.6</ele>
        <time>2022-10-26T05:18:01Z</time>
      </trkpt>
      <trkpt lat="43.62202" lon="1.3458">
        <ele>157.6</ele>
        <time>2022-10-26T05:18:02Z</time>
      </trkpt>
      <trkpt lat="43.62208" lon="1.34584">
        <ele>157.6</ele>
        <time>2022-10-26T05:18:03Z</time>
      </trkpt>
      <trkpt lat="43.62213" lon="1.34587">
        <ele>157.6</ele>
        <time>2022-10-26T05:18:04Z</time>
      </trkpt>
      <trkpt lat="43.62219" lon="1.34592">
        <ele>157.6</ele>
        <time>2022-10-26T05:18:05Z</time>
      </trkpt>
      <trkpt lat="43.62226" lon="1.34597">
        <ele>157.4</ele>
        <time>2022-10-26T05:18:06Z</time>
      </trkpt>
      <trkpt lat="43.62232" lon="1.34601">
        <ele>157.4</ele>
        <time>2022-10-26T05:18:07Z</time>
      </trkpt>
      <trkpt lat="43.62238" lon="1.34605">
        <ele>157.4</ele>
        <time>2022-10-26T05:18:08Z</time>
      </trkpt>
      <trkpt lat="43.62242" lon="1.34608">
        <ele>157.4</ele>
        <time>2022-10-26T05:18:09Z</time>
      </trkpt>
      <trkpt lat="43.62249" lon="1.34613">
        <ele>157.4</ele>
        <time>2022-10-26T05:18:10Z</time>
      </trkpt>
      <trkpt lat="43.62256" lon="1.34616">
        <ele>157.4</ele>
        <time>2022-10-26T05:18:11Z</time>
      </trkpt>
      <trkpt lat="43.62262" lon="1.3462">
        <ele>157.4</ele>
        <time>2022-10-26T05:18:12Z</time>
      </trkpt>
      <trkpt lat="43.62268" lon="1.34623">
        <ele>157.2</ele>
        <time>2022-10-26T05:18:13Z</time>
      </trkpt>
      <trkpt lat="43.62273" lon="1.34626">
        <ele>157.2</ele>
        <time>2022-10-26T05:18:14Z</time>
      </trkpt>
      <trkpt lat="43.62279" lon="1.34629">
        <ele>157.2</ele>
        <time>2022-10-26T05:18:15Z</time>
      </trkpt>
      <trkpt lat="43.62286" lon="1.34633">
        <ele>157.2</ele>
        <time>2022-10-26T05:18:16Z</time>
      </trkpt>
      <trkpt lat="43.62292" lon="1.34636">
        <ele>157.2</ele>
        <time>2022-10-26T05:18:17Z</time>
      </trkpt>
      <trkpt lat="43.62297" lon="1.34638">
        <ele>157</ele>
        <time>2022-10-26T05:18:18Z</time>
      </trkpt>
      <trkpt lat="43.62303" lon="1.34641">
        <ele>157</ele>
        <time>2022-10-26T05:18:19Z</time>
      </trkpt>
      <trkpt lat="43.6231" lon="1.34643">
        <ele>157</ele>
        <time>2022-10-26T05:18:20Z</time>
      </trkpt>
      <trkpt lat="43.62316" lon="1.34646">
        <ele>156.8</ele>
        <time>2022-10-26T05:18:21Z</time>
      </trkpt>
      <trkpt lat="43.62322" lon="1.34649">
        <ele>156.8</ele>
        <time>2022-10-26T05:18:22Z</time>
      </trkpt>
      <trkpt lat="43.62327" lon="1.3465">
        <ele>156.8</ele>
        <time>2022-10-26T05:18:23Z</time>
      </trkpt>
      <trkpt lat="43.62333" lon="1.34653">
        <ele>156.8</ele>
        <time>2022-10-26T05:18:24Z</time>
      </trkpt>
      <trkpt lat="43.6234" lon="1.34655">
        <ele>156.8</ele>
        <time>2022-10-26T05:18:25Z</time>
      </trkpt>
      <trkpt lat="43.62346" lon="1.34658">
        <ele>156.6</ele>
        <time>2022-10-26T05:18:26Z</time>
      </trkpt>
      <trkpt lat="43.62351" lon="1.3466">
        <ele>156.6</ele>
        <time>2022-10-26T05:18:27Z</time>
      </trkpt>
      <trkpt lat="43.62357" lon="1.34663">
        <ele>156.6</ele>
        <time>2022-10-26T05:18:28Z</time>
      </trkpt>
      <trkpt lat="43.62362" lon="1.34666">
        <ele>156.6</ele>
        <time>2022-10-26T05:18:29Z</time>
      </trkpt>
      <trkpt lat="43.62366" lon="1.34669">
        <ele>156.6</ele>
        <time>2022-10-26T05:18:30Z</time>
      </trkpt>
      <trkpt lat="43.62371" lon="1.34674">
        <ele>156.6</ele>
        <time>2022-10-26T05:18:31Z</time>
      </trkpt>
      <trkpt lat="43.62375" lon="1.3468">
        <ele>156.6</ele>
        <time>2022-10-26T05:18:32Z</time>
      </trkpt>
      <trkpt lat="43.62378" lon="1.34685">
        <ele>156.6</ele>
        <time>2022-10-26T05:18:33Z</time>
      </trkpt>
      <trkpt lat="43.62384" lon="1.34692">
        <ele>156.6</ele>
        <time>2022-10-26T05:18:34Z</time>
      </trkpt>
      <trkpt lat="43.62388" lon="1.34695">
        <ele>156.4</ele>
        <time>2022-10-26T05:18:35Z</time>
      </trkpt>
      <trkpt lat="43.62393" lon="1.34697">
        <ele>156.4</ele>
        <time>2022-10-26T05:18:36Z</time>
      </trkpt>
      <trkpt lat="43.62397" lon="1.34696">
        <ele>156.4</ele>
        <time>2022-10-26T05:18:37Z</time>
      </trkpt>
      <trkpt lat="43.62401" lon="1.34693">
        <ele>156.6</ele>
        <time>2022-10-26T05:18:38Z</time>
      </trkpt>
      <trkpt lat="43.62407" lon="1.34691">
        <ele>156.6</ele>
        <time>2022-10-26T05:18:39Z</time>
      </trkpt>
      <trkpt lat="43.62413" lon="1.34689">
        <ele>156.6</ele>
        <time>2022-10-26T05:18:40Z</time>
      </trkpt>
      <trkpt lat="43.62419" lon="1.34688">
        <ele>156.6</ele>
        <time>2022-10-26T05:18:41Z</time>
      </trkpt>
      <trkpt lat="43.62426" lon="1.34687">
        <ele>156.6</ele>
        <time>2022-10-26T05:18:42Z</time>
      </trkpt>
      <trkpt lat="43.62432" lon="1.34686">
        <ele>156.6</ele>
        <time>2022-10-26T05:18:43Z</time>
      </trkpt>
      <trkpt lat="43.62438" lon="1.34686">
        <ele>156.6</ele>
        <time>2022-10-26T05:18:44Z</time>
      </trkpt>
      <trkpt lat="43.62444" lon="1.34686">
        <ele>156.6</ele>
        <time>2022-10-26T05:18:45Z</time>
      </trkpt>
      <trkpt lat="43.62449" lon="1.34686">
        <ele>156.6</ele>
        <time>2022-10-26T05:18:46Z</time>
      </trkpt>
      <trkpt lat="43.62456" lon="1.34686">
        <ele>156.6</ele>
        <time>2022-10-26T05:18:47Z</time>
      </trkpt>
      <trkpt lat="43.62461" lon="1.34686">
        <ele>156.8</ele>
        <time>2022-10-26T05:18:48Z</time>
      </trkpt>
      <trkpt lat="43.62467" lon="1.34687">
        <ele>156.8</ele>
        <time>2022-10-26T05:18:49Z</time>
      </trkpt>
      <trkpt lat="43.62473" lon="1.34688">
        <ele>156.8</ele>
        <time>2022-10-26T05:18:50Z</time>
      </trkpt>
      <trkpt lat="43.62479" lon="1.34688">
        <ele>156.8</ele>
        <time>2022-10-26T05:18:51Z</time>
      </trkpt>
      <trkpt lat="43.62483" lon="1.34689">
        <ele>156.8</ele>
        <time>2022-10-26T05:18:52Z</time>
      </trkpt>
      <trkpt lat="43.6249" lon="1.34692">
        <ele>156.8</ele>
        <time>2022-10-26T05:18:53Z</time>
      </trkpt>
      <trkpt lat="43.62495" lon="1.34697">
        <ele>156.8</ele>
        <time>2022-10-26T05:18:54Z</time>
      </trkpt>
      <trkpt lat="43.62499" lon="1.34703">
        <ele>156.8</ele>
        <time>2022-10-26T05:18:55Z</time>
      </trkpt>
      <trkpt lat="43.62502" lon="1.34709">
        <ele>156.8</ele>
        <time>2022-10-26T05:18:56Z</time>
      </trkpt>
      <trkpt lat="43.62503" lon="1.34716">
        <ele>156.8</ele>
        <time>2022-10-26T05:18:57Z</time>
      </trkpt>
      <trkpt lat="43.62504" lon="1.34721">
        <ele>156.8</ele>
        <time>2022-10-26T05:18:58Z</time>
      </trkpt>
      <trkpt lat="43.62506" lon="1.34728">
        <ele>156.6</ele>
        <time>2022-10-26T05:18:59Z</time>
      </trkpt>
      <trkpt lat="43.62507" lon="1.34733">
        <ele>156.6</ele>
        <time>2022-10-26T05:19:00Z</time>
      </trkpt>
      <trkpt lat="43.62507" lon="1.34736">
        <ele>156.6</ele>
        <time>2022-10-26T05:19:01Z</time>
      </trkpt>
      <trkpt lat="43.62507" lon="1.3474">
        <ele>156.6</ele>
        <time>2022-10-26T05:19:02Z</time>
      </trkpt>
      <trkpt lat="43.62506" lon="1.34742">
        <ele>156.4</ele>
        <time>2022-10-26T05:19:03Z</time>
      </trkpt>
      <trkpt lat="43.62506" lon="1.34743">
        <ele>156.4</ele>
        <time>2022-10-26T05:19:04Z</time>
      </trkpt>
      <trkpt lat="43.62506" lon="1.34743">
        <ele>156.2</ele>
        <time>2022-10-26T05:19:05Z</time>
      </trkpt>
      <trkpt lat="43.62506" lon="1.34743">
        <ele>156.4</ele>
        <time>2022-10-26T05:19:06Z</time>
      </trkpt>
      <trkpt lat="43.62506" lon="1.34748">
        <ele>156</ele>
        <time>2022-10-26T05:19:18Z</time>
      </trkpt>
      <trkpt lat="43.62506" lon="1.34751">
        <ele>155.8</ele>
        <time>2022-10-26T05:19:19Z</time>
      </trkpt>
      <trkpt lat="43.62507" lon="1.34755">
        <ele>155.8</ele>
        <time>2022-10-26T05:19:20Z</time>
      </trkpt>
      <trkpt lat="43.62506" lon="1.34759">
        <ele>155.8</ele>
        <time>2022-10-26T05:19:21Z</time>
      </trkpt>
      <trkpt lat="43.62504" lon="1.34764">
        <ele>155.6</ele>
        <time>2022-10-26T05:19:22Z</time>
      </trkpt>
      <trkpt lat="43.62501" lon="1.34767">
        <ele>155.6</ele>
        <time>2022-10-26T05:19:23Z</time>
      </trkpt>
      <trkpt lat="43.62499" lon="1.34768">
        <ele>155.6</ele>
        <time>2022-10-26T05:19:24Z</time>
      </trkpt>
      <trkpt lat="43.62495" lon="1.34769">
        <ele>155.4</ele>
        <time>2022-10-26T05:19:25Z</time>
      </trkpt>
      <trkpt lat="43.62491" lon="1.34769">
        <ele>155.4</ele>
        <time>2022-10-26T05:19:26Z</time>
      </trkpt>
      <trkpt lat="43.62487" lon="1.3477">
        <ele>155.2</ele>
        <time>2022-10-26T05:19:27Z</time>
      </trkpt>
      <trkpt lat="43.62482" lon="1.34771">
        <ele>155.2</ele>
        <time>2022-10-26T05:19:28Z</time>
      </trkpt>
      <trkpt lat="43.62478" lon="1.34772">
        <ele>155.2</ele>
        <time>2022-10-26T05:19:29Z</time>
      </trkpt>
      <trkpt lat="43.62474" lon="1.34773">
        <ele>155.2</ele>
        <time>2022-10-26T05:19:30Z</time>
      </trkpt>
      <trkpt lat="43.62469" lon="1.34773">
        <ele>155.4</ele>
        <time>2022-10-26T05:19:31Z</time>
      </trkpt>
      <trkpt lat="43.62465" lon="1.34773">
        <ele>155.4</ele>
        <time>2022-10-26T05:19:32Z</time>
      </trkpt>
      <trkpt lat="43.6246" lon="1.34774">
        <ele>155.4</ele>
        <time>2022-10-26T05:19:33Z</time>
      </trkpt>
      <trkpt lat="43.62457" lon="1.34776">
        <ele>155.4</ele>
        <time>2022-10-26T05:19:34Z</time>
      </trkpt>
      <trkpt lat="43.62452" lon="1.34779">
        <ele>155.4</ele>
        <time>2022-10-26T05:19:35Z</time>
      </trkpt>
      <trkpt lat="43.62448" lon="1.34782">
        <ele>155.4</ele>
        <time>2022-10-26T05:19:36Z</time>
      </trkpt>
      <trkpt lat="43.62446" lon="1.34787">
        <ele>155.6</ele>
        <time>2022-10-26T05:19:37Z</time>
      </trkpt>
      <trkpt lat="43.62442" lon="1.34791">
        <ele>155.6</ele>
        <time>2022-10-26T05:19:38Z</time>
      </trkpt>
      <trkpt lat="43.62438" lon="1.34793">
        <ele>155.6</ele>
        <time>2022-10-26T05:19:39Z</time>
      </trkpt>
      <trkpt lat="43.62433" lon="1.34795">
        <ele>155.6</ele>
        <time>2022-10-26T05:19:40Z</time>
      </trkpt>
      <trkpt lat="43.62428" lon="1.34796">
        <ele>155.8</ele>
        <time>2022-10-26T05:19:41Z</time>
      </trkpt>
      <trkpt lat="43.62423" lon="1.34798">
        <ele>155.8</ele>
        <time>2022-10-26T05:19:42Z</time>
      </trkpt>
      <trkpt lat="43.62417" lon="1.34798">
        <ele>156</ele>
        <time>2022-10-26T05:19:43Z</time>
      </trkpt>
      <trkpt lat="43.62411" lon="1.34798">
        <ele>156</ele>
        <time>2022-10-26T05:19:44Z</time>
      </trkpt>
      <trkpt lat="43.62405" lon="1.34795">
        <ele>156</ele>
        <time>2022-10-26T05:19:45Z</time>
      </trkpt>
      <trkpt lat="43.62398" lon="1.34791">
        <ele>156</ele>
        <time>2022-10-26T05:19:46Z</time>
      </trkpt>
      <trkpt lat="43.6239" lon="1.34788">
        <ele>156</ele>
        <time>2022-10-26T05:19:47Z</time>
      </trkpt>
      <trkpt lat="43.62385" lon="1.34787">
        <ele>156.2</ele>
        <time>2022-10-26T05:19:48Z</time>
      </trkpt>
      <trkpt lat="43.62378" lon="1.34785">
        <ele>156.2</ele>
        <time>2022-10-26T05:19:49Z</time>
      </trkpt>
      <trkpt lat="43.6237" lon="1.34783">
        <ele>156</ele>
        <time>2022-10-26T05:19:50Z</time>
      </trkpt>
      <trkpt lat="43.62363" lon="1.34783">
        <ele>156.2</ele>
        <time>2022-10-26T05:19:51Z</time>
      </trkpt>
      <trkpt lat="43.62356" lon="1.34782">
        <ele>156.4</ele>
        <time>2022-10-26T05:19:52Z</time>
      </trkpt>
      <trkpt lat="43.6235" lon="1.34782">
        <ele>156.4</ele>
        <time>2022-10-26T05:19:53Z</time>
      </trkpt>
      <trkpt lat="43.62343" lon="1.34785">
        <ele>156.4</ele>
        <time>2022-10-26T05:19:54Z</time>
      </trkpt>
      <trkpt lat="43.62337" lon="1.34788">
        <ele>156.4</ele>
        <time>2022-10-26T05:19:55Z</time>
      </trkpt>
      <trkpt lat="43.62332" lon="1.34792">
        <ele>156.4</ele>
        <time>2022-10-26T05:19:56Z</time>
      </trkpt>
      <trkpt lat="43.62327" lon="1.34796">
        <ele>156.6</ele>
        <time>2022-10-26T05:19:57Z</time>
      </trkpt>
      <trkpt lat="43.62322" lon="1.34801">
        <ele>156.6</ele>
        <time>2022-10-26T05:19:58Z</time>
      </trkpt>
      <trkpt lat="43.62316" lon="1.34805">
        <ele>156.6</ele>
        <time>2022-10-26T05:19:59Z</time>
      </trkpt>
      <trkpt lat="43.62312" lon="1.3481">
        <ele>156.6</ele>
        <time>2022-10-26T05:20:00Z</time>
      </trkpt>
      <trkpt lat="43.62307" lon="1.34814">
        <ele>156.6</ele>
        <time>2022-10-26T05:20:01Z</time>
      </trkpt>
      <trkpt lat="43.62302" lon="1.34819">
        <ele>156.4</ele>
        <time>2022-10-26T05:20:02Z</time>
      </trkpt>
      <trkpt lat="43.62297" lon="1.34824">
        <ele>156.4</ele>
        <time>2022-10-26T05:20:03Z</time>
      </trkpt>
      <trkpt lat="43.62292" lon="1.34829">
        <ele>156.4</ele>
        <time>2022-10-26T05:20:04Z</time>
      </trkpt>
      <trkpt lat="43.62287" lon="1.34834">
        <ele>156.4</ele>
        <time>2022-10-26T05:20:05Z</time>
      </trkpt>
      <trkpt lat="43.62282" lon="1.3484">
        <ele>156.4</ele>
        <time>2022-10-26T05:20:06Z</time>
      </trkpt>
      <trkpt lat="43.62277" lon="1.34845">
        <ele>156.4</ele>
        <time>2022-10-26T05:20:07Z</time>
      </trkpt>
      <trkpt lat="43.62273" lon="1.34849">
        <ele>156.2</ele>
        <time>2022-10-26T05:20:08Z</time>
      </trkpt>
      <trkpt lat="43.62268" lon="1.34855">
        <ele>156.2</ele>
        <time>2022-10-26T05:20:09Z</time>
      </trkpt>
      <trkpt lat="43.62264" lon="1.3486">
        <ele>156.2</ele>
        <time>2022-10-26T05:20:10Z</time>
      </trkpt>
      <trkpt lat="43.6226" lon="1.34864">
        <ele>156</ele>
        <time>2022-10-26T05:20:11Z</time>
      </trkpt>
      <trkpt lat="43.62257" lon="1.34868">
        <ele>156</ele>
        <time>2022-10-26T05:20:12Z</time>
      </trkpt>
      <trkpt lat="43.62256" lon="1.34873">
        <ele>155.8</ele>
        <time>2022-10-26T05:20:13Z</time>
      </trkpt>
      <trkpt lat="43.62254" lon="1.34878">
        <ele>155.8</ele>
        <time>2022-10-26T05:20:14Z</time>
      </trkpt>
      <trkpt lat="43.62254" lon="1.34882">
        <ele>155.8</ele>
        <time>2022-10-26T05:20:15Z</time>
      </trkpt>
      <trkpt lat="43.62253" lon="1.34886">
        <ele>155.8</ele>
        <time>2022-10-26T05:20:16Z</time>
      </trkpt>
      <trkpt lat="43.62253" lon="1.34892">
        <ele>155.8</ele>
        <time>2022-10-26T05:20:17Z</time>
      </trkpt>
      <trkpt lat="43.62254" lon="1.349">
        <ele>155.8</ele>
        <time>2022-10-26T05:20:18Z</time>
      </trkpt>
      <trkpt lat="43.62254" lon="1.34907">
        <ele>155.6</ele>
        <time>2022-10-26T05:20:19Z</time>
      </trkpt>
      <trkpt lat="43.62254" lon="1.34915">
        <ele>155.4</ele>
        <time>2022-10-26T05:20:20Z</time>
      </trkpt>
      <trkpt lat="43.62255" lon="1.34921">
        <ele>155.4</ele>
        <time>2022-10-26T05:20:21Z</time>
      </trkpt>
      <trkpt lat="43.62255" lon="1.34929">
        <ele>155.4</ele>
        <time>2022-10-26T05:20:22Z</time>
      </trkpt>
      <trkpt lat="43.62256" lon="1.34938">
        <ele>155.4</ele>
        <time>2022-10-26T05:20:23Z</time>
      </trkpt>
      <trkpt lat="43.62256" lon="1.34946">
        <ele>155.2</ele>
        <time>2022-10-26T05:20:24Z</time>
      </trkpt>
      <trkpt lat="43.62256" lon="1.34954">
        <ele>155</ele>
        <time>2022-10-26T05:20:25Z</time>
      </trkpt>
      <trkpt lat="43.62257" lon="1.34962">
        <ele>155</ele>
        <time>2022-10-26T05:20:26Z</time>
      </trkpt>
      <trkpt lat="43.62257" lon="1.3497">
        <ele>155</ele>
        <time>2022-10-26T05:20:27Z</time>
      </trkpt>
      <trkpt lat="43.62257" lon="1.34977">
        <ele>154.8</ele>
        <time>2022-10-26T05:20:28Z</time>
      </trkpt>
      <trkpt lat="43.62258" lon="1.34985">
        <ele>154.8</ele>
        <time>2022-10-26T05:20:29Z</time>
      </trkpt>
      <trkpt lat="43.62259" lon="1.34993">
        <ele>154.8</ele>
        <time>2022-10-26T05:20:30Z</time>
      </trkpt>
      <trkpt lat="43.62259" lon="1.35">
        <ele>154.8</ele>
        <time>2022-10-26T05:20:31Z</time>
      </trkpt>
      <trkpt lat="43.6226" lon="1.35008">
        <ele>154.8</ele>
        <time>2022-10-26T05:20:32Z</time>
      </trkpt>
      <trkpt lat="43.6226" lon="1.35015">
        <ele>154.8</ele>
        <time>2022-10-26T05:20:33Z</time>
      </trkpt>
      <trkpt lat="43.6226" lon="1.35023">
        <ele>154.6</ele>
        <time>2022-10-26T05:20:34Z</time>
      </trkpt>
      <trkpt lat="43.6226" lon="1.35031">
        <ele>154.8</ele>
        <time>2022-10-26T05:20:35Z</time>
      </trkpt>
      <trkpt lat="43.62261" lon="1.35039">
        <ele>154.8</ele>
        <time>2022-10-26T05:20:36Z</time>
      </trkpt>
      <trkpt lat="43.62261" lon="1.35047">
        <ele>154.8</ele>
        <time>2022-10-26T05:20:37Z</time>
      </trkpt>
      <trkpt lat="43.62261" lon="1.35055">
        <ele>154.6</ele>
        <time>2022-10-26T05:20:38Z</time>
      </trkpt>
      <trkpt lat="43.62262" lon="1.35062">
        <ele>154.6</ele>
        <time>2022-10-26T05:20:39Z</time>
      </trkpt>
      <trkpt lat="43.62262" lon="1.3507">
        <ele>154.6</ele>
        <time>2022-10-26T05:20:40Z</time>
      </trkpt>
      <trkpt lat="43.62263" lon="1.35078">
        <ele>154.6</ele>
        <time>2022-10-26T05:20:41Z</time>
      </trkpt>
      <trkpt lat="43.62263" lon="1.35085">
        <ele>154.6</ele>
        <time>2022-10-26T05:20:42Z</time>
      </trkpt>
      <trkpt lat="43.62263" lon="1.35093">
        <ele>154.6</ele>
        <time>2022-10-26T05:20:43Z</time>
      </trkpt>
      <trkpt lat="43.62264" lon="1.351">
        <ele>154.6</ele>
        <time>2022-10-26T05:20:44Z</time>
      </trkpt>
      <trkpt lat="43.62264" lon="1.35108">
        <ele>154.6</ele>
        <time>2022-10-26T05:20:45Z</time>
      </trkpt>
      <trkpt lat="43.62264" lon="1.35115">
        <ele>154.6</ele>
        <time>2022-10-26T05:20:46Z</time>
      </trkpt>
      <trkpt lat="43.62264" lon="1.35122">
        <ele>154.4</ele>
        <time>2022-10-26T05:20:47Z</time>
      </trkpt>
      <trkpt lat="43.62265" lon="1.35129">
        <ele>154.4</ele>
        <time>2022-10-26T05:20:48Z</time>
      </trkpt>
      <trkpt lat="43.62265" lon="1.35136">
        <ele>154.4</ele>
        <time>2022-10-26T05:20:49Z</time>
      </trkpt>
      <trkpt lat="43.62265" lon="1.35142">
        <ele>154.4</ele>
        <time>2022-10-26T05:20:50Z</time>
      </trkpt>
      <trkpt lat="43.62266" lon="1.35148">
        <ele>154.4</ele>
        <time>2022-10-26T05:20:51Z</time>
      </trkpt>
      <trkpt lat="43.62267" lon="1.35153">
        <ele>154.4</ele>
        <time>2022-10-26T05:20:52Z</time>
      </trkpt>
      <trkpt lat="43.62269" lon="1.35155">
        <ele>154.4</ele>
        <time>2022-10-26T05:20:53Z</time>
      </trkpt>
      <trkpt lat="43.62271" lon="1.35155">
        <ele>154.4</ele>
        <time>2022-10-26T05:20:54Z</time>
      </trkpt>
      <trkpt lat="43.62272" lon="1.35154">
        <ele>154.4</ele>
        <time>2022-10-26T05:20:55Z</time>
      </trkpt>
      <trkpt lat="43.62272" lon="1.35153">
        <ele>154.4</ele>
        <time>2022-10-26T05:20:56Z</time>
      </trkpt>
      <trkpt lat="43.62272" lon="1.35153">
        <ele>154.4</ele>
        <time>2022-10-26T05:20:57Z</time>
      </trkpt>
      <trkpt lat="43.62272" lon="1.35153">
        <ele>154.4</ele>
        <time>2022-10-26T05:20:58Z</time>
      </trkpt>
      <trkpt lat="43.6227" lon="1.35159">
        <ele>150.2</ele>
        <time>2022-10-26T05:28:07Z</time>
      </trkpt>
      <trkpt lat="43.6227" lon="1.35162">
        <ele>153</ele>
        <time>2022-10-26T05:28:08Z</time>
      </trkpt>
      <trkpt lat="43.62269" lon="1.35165">
        <ele>153</ele>
        <time>2022-10-26T05:28:09Z</time>
      </trkpt>
      <trkpt lat="43.62269" lon="1.3517">
        <ele>153</ele>
        <time>2022-10-26T05:28:10Z</time>
      </trkpt>
      <trkpt lat="43.62268" lon="1.35175">
        <ele>153</ele>
        <time>2022-10-26T05:28:11Z</time>
      </trkpt>
      <trkpt lat="43.62268" lon="1.3518">
        <ele>153</ele>
        <time>2022-10-26T05:28:12Z</time>
      </trkpt>
      <trkpt lat="43.62268" lon="1.35184">
        <ele>153</ele>
        <time>2022-10-26T05:28:13Z</time>
      </trkpt>
      <trkpt lat="43.62268" lon="1.35188">
        <ele>153</ele>
        <time>2022-10-26T05:28:14Z</time>
      </trkpt>
      <trkpt lat="43.62268" lon="1.35195">
        <ele>153.2</ele>
        <time>2022-10-26T05:28:15Z</time>
      </trkpt>
      <trkpt lat="43.62268" lon="1.352">
        <ele>153.2</ele>
        <time>2022-10-26T05:28:16Z</time>
      </trkpt>
      <trkpt lat="43.62269" lon="1.35205">
        <ele>153.4</ele>
        <time>2022-10-26T05:28:17Z</time>
      </trkpt>
      <trkpt lat="43.62269" lon="1.35205">
        <ele>153.4</ele>
        <time>2022-10-26T05:28:18Z</time>
      </trkpt>
      <trkpt lat="43.62271" lon="1.35214">
        <ele>153.4</ele>
        <time>2022-10-26T05:28:19Z</time>
      </trkpt>
      <trkpt lat="43.62274" lon="1.3522">
        <ele>153.6</ele>
        <time>2022-10-26T05:28:20Z</time>
      </trkpt>
      <trkpt lat="43.62276" lon="1.35223">
        <ele>153.6</ele>
        <time>2022-10-26T05:28:21Z</time>
      </trkpt>
      <trkpt lat="43.62279" lon="1.35225">
        <ele>153.6</ele>
        <time>2022-10-26T05:28:22Z</time>
      </trkpt>
      <trkpt lat="43.62282" lon="1.35227">
        <ele>153.6</ele>
        <time>2022-10-26T05:28:23Z</time>
      </trkpt>
      <trkpt lat="43.62282" lon="1.35227">
        <ele>153.8</ele>
        <time>2022-10-26T05:28:24Z</time>
      </trkpt>
      <trkpt lat="43.62286" lon="1.35231">
        <ele>153.8</ele>
        <time>2022-10-26T05:28:25Z</time>
      </trkpt>
      <trkpt lat="43.62287" lon="1.35233">
        <ele>153.8</ele>
        <time>2022-10-26T05:28:26Z</time>
      </trkpt>
      <trkpt lat="43.62287" lon="1.35235">
        <ele>153.8</ele>
        <time>2022-10-26T05:28:27Z</time>
      </trkpt>
      <trkpt lat="43.62287" lon="1.35238">
        <ele>153.8</ele>
        <time>2022-10-26T05:28:28Z</time>
      </trkpt>
      <trkpt lat="43.62287" lon="1.35241">
        <ele>153.8</ele>
        <time>2022-10-26T05:28:29Z</time>
      </trkpt>
      <trkpt lat="43.62287" lon="1.35243">
        <ele>153.8</ele>
        <time>2022-10-26T05:28:30Z</time>
      </trkpt>
      <trkpt lat="43.62287" lon="1.35245">
        <ele>153.8</ele>
        <time>2022-10-26T05:28:31Z</time>
      </trkpt>
      <trkpt lat="43.62287" lon="1.35245">
        <ele>153.8</ele>
        <time>2022-10-26T05:28:32Z</time>
      </trkpt>
      <trkpt lat="43.62287" lon="1.35245">
        <ele>153.8</ele>
        <time>2022-10-26T05:28:33Z</time>
      </trkpt>
      <trkpt lat="43.62287" lon="1.35245">
        <ele>153.8</ele>
        <time>2022-10-26T05:28:34Z</time>
      </trkpt>
      <trkpt lat="43.62287" lon="1.35245">
        <ele>153.8</ele>
        <time>2022-10-26T05:28:35Z</time>
      </trkpt>
      <trkpt lat="43.62293" lon="1.35174">
        <ele>132.8</ele>
        <time>2022-10-26T13:29:06Z</time>
      </trkpt>
      <trkpt lat="43.62312" lon="1.35187">
        <ele>134.6</ele>
        <time>2022-10-26T13:29:07Z</time>
      </trkpt>
      <trkpt lat="43.62305" lon="1.35188">
        <ele>135.2</ele>
        <time>2022-10-26T13:29:08Z</time>
      </trkpt>
      <trkpt lat="43.62288" lon="1.3521">
        <ele>135.4</ele>
        <time>2022-10-26T13:29:09Z</time>
      </trkpt>
      <trkpt lat="43.62286" lon="1.35208">
        <ele>135.6</ele>
        <time>2022-10-26T13:29:10Z</time>
      </trkpt>
      <trkpt lat="43.6228" lon="1.35208">
        <ele>135.4</ele>
        <time>2022-10-26T13:29:11Z</time>
      </trkpt>
      <trkpt lat="43.62276" lon="1.35207">
        <ele>135.4</ele>
        <time>2022-10-26T13:29:12Z</time>
      </trkpt>
      <trkpt lat="43.62274" lon="1.35205">
        <ele>135.4</ele>
        <time>2022-10-26T13:29:13Z</time>
      </trkpt>
      <trkpt lat="43.62271" lon="1.35203">
        <ele>135.2</ele>
        <time>2022-10-26T13:29:14Z</time>
      </trkpt>
      <trkpt lat="43.6227" lon="1.35199">
        <ele>135.4</ele>
        <time>2022-10-26T13:29:15Z</time>
      </trkpt>
      <trkpt lat="43.62269" lon="1.35195">
        <ele>135.2</ele>
        <time>2022-10-26T13:29:16Z</time>
      </trkpt>
      <trkpt lat="43.62268" lon="1.3519">
        <ele>135.4</ele>
        <time>2022-10-26T13:29:17Z</time>
      </trkpt>
      <trkpt lat="43.62267" lon="1.35186">
        <ele>135.4</ele>
        <time>2022-10-26T13:29:18Z</time>
      </trkpt>
      <trkpt lat="43.62267" lon="1.35181">
        <ele>135.4</ele>
        <time>2022-10-26T13:29:19Z</time>
      </trkpt>
      <trkpt lat="43.62266" lon="1.35176">
        <ele>135.4</ele>
        <time>2022-10-26T13:29:20Z</time>
      </trkpt>
      <trkpt lat="43.62265" lon="1.35171">
        <ele>135.4</ele>
        <time>2022-10-26T13:29:21Z</time>
      </trkpt>
      <trkpt lat="43.62265" lon="1.35167">
        <ele>135.4</ele>
        <time>2022-10-26T13:29:22Z</time>
      </trkpt>
      <trkpt lat="43.62264" lon="1.35162">
        <ele>135.4</ele>
        <time>2022-10-26T13:29:23Z</time>
      </trkpt>
      <trkpt lat="43.62265" lon="1.35158">
        <ele>135.4</ele>
        <time>2022-10-26T13:29:24Z</time>
      </trkpt>
      <trkpt lat="43.62267" lon="1.35154">
        <ele>135.4</ele>
        <time>2022-10-26T13:29:25Z</time>
      </trkpt>
      <trkpt lat="43.62268" lon="1.35151">
        <ele>135.6</ele>
        <time>2022-10-26T13:29:26Z</time>
      </trkpt>
      <trkpt lat="43.62269" lon="1.35148">
        <ele>135.6</ele>
        <time>2022-10-26T13:29:27Z</time>
      </trkpt>
      <trkpt lat="43.62269" lon="1.35147">
        <ele>135.6</ele>
        <time>2022-10-26T13:29:28Z</time>
      </trkpt>
      <trkpt lat="43.62268" lon="1.35147">
        <ele>135.6</ele>
        <time>2022-10-26T13:29:29Z</time>
      </trkpt>
      <trkpt lat="43.62267" lon="1.35147">
        <ele>135.6</ele>
        <time>2022-10-26T13:29:30Z</time>
      </trkpt>
      <trkpt lat="43.62267" lon="1.35148">
        <ele>135.8</ele>
        <time>2022-10-26T13:29:31Z</time>
      </trkpt>
      <trkpt lat="43.62275" lon="1.35143">
        <ele>138.6</ele>
        <time>2022-10-26T13:39:47Z</time>
      </trkpt>
      <trkpt lat="43.62274" lon="1.3514">
        <ele>138.6</ele>
        <time>2022-10-26T13:39:48Z</time>
      </trkpt>
      <trkpt lat="43.62274" lon="1.35136">
        <ele>138.6</ele>
        <time>2022-10-26T13:39:49Z</time>
      </trkpt>
      <trkpt lat="43.62275" lon="1.35132">
        <ele>138.6</ele>
        <time>2022-10-26T13:39:50Z</time>
      </trkpt>
      <trkpt lat="43.62275" lon="1.35128">
        <ele>138.6</ele>
        <time>2022-10-26T13:39:51Z</time>
      </trkpt>
      <trkpt lat="43.62275" lon="1.35125">
        <ele>138.6</ele>
        <time>2022-10-26T13:39:52Z</time>
      </trkpt>
      <trkpt lat="43.62274" lon="1.35122">
        <ele>138.6</ele>
        <time>2022-10-26T13:39:53Z</time>
      </trkpt>
      <trkpt lat="43.62273" lon="1.35118">
        <ele>138.6</ele>
        <time>2022-10-26T13:39:54Z</time>
      </trkpt>
      <trkpt lat="43.62272" lon="1.35115">
        <ele>138.6</ele>
        <time>2022-10-26T13:39:55Z</time>
      </trkpt>
      <trkpt lat="43.62271" lon="1.35111">
        <ele>138.4</ele>
        <time>2022-10-26T13:39:56Z</time>
      </trkpt>
      <trkpt lat="43.62271" lon="1.35106">
        <ele>138.4</ele>
        <time>2022-10-26T13:39:57Z</time>
      </trkpt>
      <trkpt lat="43.62271" lon="1.35102">
        <ele>138.4</ele>
        <time>2022-10-26T13:39:58Z</time>
      </trkpt>
      <trkpt lat="43.6227" lon="1.35097">
        <ele>138.4</ele>
        <time>2022-10-26T13:39:59Z</time>
      </trkpt>
      <trkpt lat="43.62269" lon="1.35092">
        <ele>138.6</ele>
        <time>2022-10-26T13:40:00Z</time>
      </trkpt>
      <trkpt lat="43.62269" lon="1.35087">
        <ele>138.6</ele>
        <time>2022-10-26T13:40:01Z</time>
      </trkpt>
      <trkpt lat="43.62269" lon="1.35081">
        <ele>138.6</ele>
        <time>2022-10-26T13:40:02Z</time>
      </trkpt>
      <trkpt lat="43.62268" lon="1.35076">
        <ele>138.6</ele>
        <time>2022-10-26T13:40:03Z</time>
      </trkpt>
      <trkpt lat="43.62268" lon="1.3507">
        <ele>138.8</ele>
        <time>2022-10-26T13:40:04Z</time>
      </trkpt>
      <trkpt lat="43.62267" lon="1.35064">
        <ele>139</ele>
        <time>2022-10-26T13:40:05Z</time>
      </trkpt>
      <trkpt lat="43.62267" lon="1.35058">
        <ele>139</ele>
        <time>2022-10-26T13:40:06Z</time>
      </trkpt>
      <trkpt lat="43.62267" lon="1.35052">
        <ele>139.2</ele>
        <time>2022-10-26T13:40:07Z</time>
      </trkpt>
      <trkpt lat="43.62267" lon="1.35045">
        <ele>139.4</ele>
        <time>2022-10-26T13:40:08Z</time>
      </trkpt>
      <trkpt lat="43.62266" lon="1.35039">
        <ele>139.4</ele>
        <time>2022-10-26T13:40:09Z</time>
      </trkpt>
      <trkpt lat="43.62266" lon="1.35032">
        <ele>139.4</ele>
        <time>2022-10-26T13:40:10Z</time>
      </trkpt>
      <trkpt lat="43.62266" lon="1.35026">
        <ele>139.4</ele>
        <time>2022-10-26T13:40:11Z</time>
      </trkpt>
      <trkpt lat="43.62266" lon="1.3502">
        <ele>139.6</ele>
        <time>2022-10-26T13:40:12Z</time>
      </trkpt>
      <trkpt lat="43.62265" lon="1.35015">
        <ele>139.6</ele>
        <time>2022-10-26T13:40:13Z</time>
      </trkpt>
      <trkpt lat="43.62264" lon="1.35009">
        <ele>139.6</ele>
        <time>2022-10-26T13:40:14Z</time>
      </trkpt>
      <trkpt lat="43.62264" lon="1.35004">
        <ele>139.6</ele>
        <time>2022-10-26T13:40:15Z</time>
      </trkpt>
      <trkpt lat="43.62264" lon="1.35">
        <ele>139.8</ele>
        <time>2022-10-26T13:40:16Z</time>
      </trkpt>
      <trkpt lat="43.62264" lon="1.34998">
        <ele>139.8</ele>
        <time>2022-10-26T13:40:17Z</time>
      </trkpt>
      <trkpt lat="43.62264" lon="1.34996">
        <ele>139.8</ele>
        <time>2022-10-26T13:40:18Z</time>
      </trkpt>
      <trkpt lat="43.62264" lon="1.34994">
        <ele>139.8</ele>
        <time>2022-10-26T13:40:19Z</time>
      </trkpt>
      <trkpt lat="43.62264" lon="1.34993">
        <ele>139.8</ele>
        <time>2022-10-26T13:40:20Z</time>
      </trkpt>
      <trkpt lat="43.62264" lon="1.34991">
        <ele>140</ele>
        <time>2022-10-26T13:40:21Z</time>
      </trkpt>
      <trkpt lat="43.62263" lon="1.34989">
        <ele>140</ele>
        <time>2022-10-26T13:40:22Z</time>
      </trkpt>
      <trkpt lat="43.62262" lon="1.34988">
        <ele>140</ele>
        <time>2022-10-26T13:40:23Z</time>
      </trkpt>
      <trkpt lat="43.62262" lon="1.34986">
        <ele>140.2</ele>
        <time>2022-10-26T13:40:24Z</time>
      </trkpt>
      <trkpt lat="43.62262" lon="1.34984">
        <ele>140.2</ele>
        <time>2022-10-26T13:40:25Z</time>
      </trkpt>
      <trkpt lat="43.62262" lon="1.34982">
        <ele>140.2</ele>
        <time>2022-10-26T13:40:26Z</time>
      </trkpt>
      <trkpt lat="43.62262" lon="1.34982">
        <ele>140.2</ele>
        <time>2022-10-26T13:40:27Z</time>
      </trkpt>
      <trkpt lat="43.62262" lon="1.34978">
        <ele>140.2</ele>
        <time>2022-10-26T13:40:28Z</time>
      </trkpt>
      <trkpt lat="43.62262" lon="1.34976">
        <ele>140.2</ele>
        <time>2022-10-26T13:40:29Z</time>
      </trkpt>
      <trkpt lat="43.62261" lon="1.34974">
        <ele>140.2</ele>
        <time>2022-10-26T13:40:30Z</time>
      </trkpt>
      <trkpt lat="43.62261" lon="1.34972">
        <ele>140.2</ele>
        <time>2022-10-26T13:40:31Z</time>
      </trkpt>
      <trkpt lat="43.62261" lon="1.3497">
        <ele>140.2</ele>
        <time>2022-10-26T13:40:32Z</time>
      </trkpt>
      <trkpt lat="43.62261" lon="1.34968">
        <ele>140.2</ele>
        <time>2022-10-26T13:40:33Z</time>
      </trkpt>
      <trkpt lat="43.62261" lon="1.34966">
        <ele>140.2</ele>
        <time>2022-10-26T13:40:34Z</time>
      </trkpt>
      <trkpt lat="43.62261" lon="1.34964">
        <ele>140.2</ele>
        <time>2022-10-26T13:40:35Z</time>
      </trkpt>
      <trkpt lat="43.62261" lon="1.34962">
        <ele>140.2</ele>
        <time>2022-10-26T13:40:36Z</time>
      </trkpt>
      <trkpt lat="43.6226" lon="1.3496">
        <ele>140.2</ele>
        <time>2022-10-26T13:40:37Z</time>
      </trkpt>
      <trkpt lat="43.6226" lon="1.34958">
        <ele>140.2</ele>
        <time>2022-10-26T13:40:38Z</time>
      </trkpt>
      <trkpt lat="43.6226" lon="1.34956">
        <ele>140.2</ele>
        <time>2022-10-26T13:40:39Z</time>
      </trkpt>
      <trkpt lat="43.6226" lon="1.34954">
        <ele>140.2</ele>
        <time>2022-10-26T13:40:40Z</time>
      </trkpt>
      <trkpt lat="43.6226" lon="1.34951">
        <ele>140.4</ele>
        <time>2022-10-26T13:40:41Z</time>
      </trkpt>
      <trkpt lat="43.6226" lon="1.34948">
        <ele>140.2</ele>
        <time>2022-10-26T13:40:42Z</time>
      </trkpt>
      <trkpt lat="43.6226" lon="1.34945">
        <ele>140.4</ele>
        <time>2022-10-26T13:40:43Z</time>
      </trkpt>
      <trkpt lat="43.6226" lon="1.3494">
        <ele>140.4</ele>
        <time>2022-10-26T13:40:44Z</time>
      </trkpt>
      <trkpt lat="43.6226" lon="1.34936">
        <ele>140.4</ele>
        <time>2022-10-26T13:40:45Z</time>
      </trkpt>
      <trkpt lat="43.62259" lon="1.34931">
        <ele>140.6</ele>
        <time>2022-10-26T13:40:46Z</time>
      </trkpt>
      <trkpt lat="43.62259" lon="1.34925">
        <ele>140.6</ele>
        <time>2022-10-26T13:40:47Z</time>
      </trkpt>
      <trkpt lat="43.62259" lon="1.3492">
        <ele>140.6</ele>
        <time>2022-10-26T13:40:48Z</time>
      </trkpt>
      <trkpt lat="43.62259" lon="1.34914">
        <ele>140.6</ele>
        <time>2022-10-26T13:40:49Z</time>
      </trkpt>
      <trkpt lat="43.62259" lon="1.34908">
        <ele>140.6</ele>
        <time>2022-10-26T13:40:50Z</time>
      </trkpt>
      <trkpt lat="43.62259" lon="1.34903">
        <ele>140.6</ele>
        <time>2022-10-26T13:40:51Z</time>
      </trkpt>
      <trkpt lat="43.62259" lon="1.34897">
        <ele>140.6</ele>
        <time>2022-10-26T13:40:52Z</time>
      </trkpt>
      <trkpt lat="43.62258" lon="1.34892">
        <ele>140.6</ele>
        <time>2022-10-26T13:40:53Z</time>
      </trkpt>
      <trkpt lat="43.62259" lon="1.34887">
        <ele>140.6</ele>
        <time>2022-10-26T13:40:54Z</time>
      </trkpt>
      <trkpt lat="43.62259" lon="1.34882">
        <ele>140.6</ele>
        <time>2022-10-26T13:40:55Z</time>
      </trkpt>
      <trkpt lat="43.62259" lon="1.34878">
        <ele>140.8</ele>
        <time>2022-10-26T13:40:56Z</time>
      </trkpt>
      <trkpt lat="43.6226" lon="1.34874">
        <ele>140.8</ele>
        <time>2022-10-26T13:40:57Z</time>
      </trkpt>
      <trkpt lat="43.62262" lon="1.34871">
        <ele>140.8</ele>
        <time>2022-10-26T13:40:58Z</time>
      </trkpt>
      <trkpt lat="43.62265" lon="1.34868">
        <ele>141</ele>
        <time>2022-10-26T13:40:59Z</time>
      </trkpt>
      <trkpt lat="43.62268" lon="1.34865">
        <ele>141.2</ele>
        <time>2022-10-26T13:41:00Z</time>
      </trkpt>
      <trkpt lat="43.62272" lon="1.34861">
        <ele>141.2</ele>
        <time>2022-10-26T13:41:01Z</time>
      </trkpt>
      <trkpt lat="43.62276" lon="1.34857">
        <ele>141.4</ele>
        <time>2022-10-26T13:41:02Z</time>
      </trkpt>
      <trkpt lat="43.6228" lon="1.34853">
        <ele>141.4</ele>
        <time>2022-10-26T13:41:03Z</time>
      </trkpt>
      <trkpt lat="43.62284" lon="1.34849">
        <ele>141.6</ele>
        <time>2022-10-26T13:41:04Z</time>
      </trkpt>
      <trkpt lat="43.62289" lon="1.34845">
        <ele>141.6</ele>
        <time>2022-10-26T13:41:05Z</time>
      </trkpt>
      <trkpt lat="43.62293" lon="1.34841">
        <ele>141.6</ele>
        <time>2022-10-26T13:41:06Z</time>
      </trkpt>
      <trkpt lat="43.62298" lon="1.34836">
        <ele>141.8</ele>
        <time>2022-10-26T13:41:07Z</time>
      </trkpt>
      <trkpt lat="43.62302" lon="1.34832">
        <ele>141.8</ele>
        <time>2022-10-26T13:41:08Z</time>
      </trkpt>
      <trkpt lat="43.62307" lon="1.34827">
        <ele>142</ele>
        <time>2022-10-26T13:41:09Z</time>
      </trkpt>
      <trkpt lat="43.62311" lon="1.34823">
        <ele>142.2</ele>
        <time>2022-10-26T13:41:10Z</time>
      </trkpt>
      <trkpt lat="43.62316" lon="1.34818">
        <ele>142.2</ele>
        <time>2022-10-26T13:41:11Z</time>
      </trkpt>
      <trkpt lat="43.6232" lon="1.34813">
        <ele>142.4</ele>
        <time>2022-10-26T13:41:12Z</time>
      </trkpt>
      <trkpt lat="43.62326" lon="1.34808">
        <ele>142.4</ele>
        <time>2022-10-26T13:41:13Z</time>
      </trkpt>
      <trkpt lat="43.62331" lon="1.34803">
        <ele>142.6</ele>
        <time>2022-10-26T13:41:14Z</time>
      </trkpt>
      <trkpt lat="43.62335" lon="1.348">
        <ele>142.6</ele>
        <time>2022-10-26T13:41:15Z</time>
      </trkpt>
      <trkpt lat="43.6234" lon="1.34796">
        <ele>142.8</ele>
        <time>2022-10-26T13:41:16Z</time>
      </trkpt>
      <trkpt lat="43.62346" lon="1.34792">
        <ele>142.8</ele>
        <time>2022-10-26T13:41:17Z</time>
      </trkpt>
      <trkpt lat="43.62351" lon="1.3479">
        <ele>143</ele>
        <time>2022-10-26T13:41:18Z</time>
      </trkpt>
      <trkpt lat="43.62358" lon="1.34788">
        <ele>143.2</ele>
        <time>2022-10-26T13:41:19Z</time>
      </trkpt>
      <trkpt lat="43.62363" lon="1.34787">
        <ele>143.2</ele>
        <time>2022-10-26T13:41:20Z</time>
      </trkpt>
      <trkpt lat="43.6237" lon="1.34786">
        <ele>143.2</ele>
        <time>2022-10-26T13:41:21Z</time>
      </trkpt>
      <trkpt lat="43.62376" lon="1.34785">
        <ele>143.4</ele>
        <time>2022-10-26T13:41:22Z</time>
      </trkpt>
      <trkpt lat="43.62384" lon="1.34784">
        <ele>143.6</ele>
        <time>2022-10-26T13:41:23Z</time>
      </trkpt>
      <trkpt lat="43.6239" lon="1.34784">
        <ele>143.8</ele>
        <time>2022-10-26T13:41:24Z</time>
      </trkpt>
      <trkpt lat="43.62395" lon="1.34782">
        <ele>143.8</ele>
        <time>2022-10-26T13:41:25Z</time>
      </trkpt>
      <trkpt lat="43.62402" lon="1.34782">
        <ele>144</ele>
        <time>2022-10-26T13:41:26Z</time>
      </trkpt>
      <trkpt lat="43.6241" lon="1.34781">
        <ele>144.2</ele>
        <time>2022-10-26T13:41:27Z</time>
      </trkpt>
      <trkpt lat="43.62416" lon="1.3478">
        <ele>144.2</ele>
        <time>2022-10-26T13:41:28Z</time>
      </trkpt>
      <trkpt lat="43.62421" lon="1.3478">
        <ele>144.4</ele>
        <time>2022-10-26T13:41:29Z</time>
      </trkpt>
      <trkpt lat="43.62428" lon="1.3478">
        <ele>144.6</ele>
        <time>2022-10-26T13:41:30Z</time>
      </trkpt>
      <trkpt lat="43.62436" lon="1.3478">
        <ele>144.6</ele>
        <time>2022-10-26T13:41:31Z</time>
      </trkpt>
      <trkpt lat="43.62443" lon="1.3478">
        <ele>144.6</ele>
        <time>2022-10-26T13:41:32Z</time>
      </trkpt>
      <trkpt lat="43.62449" lon="1.3478">
        <ele>144.6</ele>
        <time>2022-10-26T13:41:33Z</time>
      </trkpt>
      <trkpt lat="43.62455" lon="1.34779">
        <ele>144.8</ele>
        <time>2022-10-26T13:41:34Z</time>
      </trkpt>
      <trkpt lat="43.62461" lon="1.34779">
        <ele>144.8</ele>
        <time>2022-10-26T13:41:35Z</time>
      </trkpt>
      <trkpt lat="43.62469" lon="1.3478">
        <ele>144.8</ele>
        <time>2022-10-26T13:41:36Z</time>
      </trkpt>
      <trkpt lat="43.62476" lon="1.34781">
        <ele>144.8</ele>
        <time>2022-10-26T13:41:37Z</time>
      </trkpt>
      <trkpt lat="43.62481" lon="1.34781">
        <ele>144.8</ele>
        <time>2022-10-26T13:41:38Z</time>
      </trkpt>
      <trkpt lat="43.62487" lon="1.34782">
        <ele>144.8</ele>
        <time>2022-10-26T13:41:39Z</time>
      </trkpt>
      <trkpt lat="43.62494" lon="1.34784">
        <ele>144.8</ele>
        <time>2022-10-26T13:41:40Z</time>
      </trkpt>
      <trkpt lat="43.62499" lon="1.34785">
        <ele>144.8</ele>
        <time>2022-10-26T13:41:41Z</time>
      </trkpt>
      <trkpt lat="43.62505" lon="1.34787">
        <ele>144.6</ele>
        <time>2022-10-26T13:41:42Z</time>
      </trkpt>
      <trkpt lat="43.62509" lon="1.34789">
        <ele>144.6</ele>
        <time>2022-10-26T13:41:43Z</time>
      </trkpt>
      <trkpt lat="43.62514" lon="1.34791">
        <ele>144.6</ele>
        <time>2022-10-26T13:41:44Z</time>
      </trkpt>
      <trkpt lat="43.6252" lon="1.34792">
        <ele>144.6</ele>
        <time>2022-10-26T13:41:45Z</time>
      </trkpt>
      <trkpt lat="43.62525" lon="1.3479">
        <ele>144.4</ele>
        <time>2022-10-26T13:41:46Z</time>
      </trkpt>
      <trkpt lat="43.62529" lon="1.34786">
        <ele>144.4</ele>
        <time>2022-10-26T13:41:47Z</time>
      </trkpt>
      <trkpt lat="43.62532" lon="1.3478">
        <ele>144.2</ele>
        <time>2022-10-26T13:41:48Z</time>
      </trkpt>
      <trkpt lat="43.62534" lon="1.34774">
        <ele>144.2</ele>
        <time>2022-10-26T13:41:49Z</time>
      </trkpt>
      <trkpt lat="43.62534" lon="1.34768">
        <ele>144.2</ele>
        <time>2022-10-26T13:41:50Z</time>
      </trkpt>
      <trkpt lat="43.62534" lon="1.34761">
        <ele>144</ele>
        <time>2022-10-26T13:41:51Z</time>
      </trkpt>
      <trkpt lat="43.62534" lon="1.34755">
        <ele>144</ele>
        <time>2022-10-26T13:41:52Z</time>
      </trkpt>
      <trkpt lat="43.62534" lon="1.34751">
        <ele>144</ele>
        <time>2022-10-26T13:41:53Z</time>
      </trkpt>
      <trkpt lat="43.62534" lon="1.34747">
        <ele>144</ele>
        <time>2022-10-26T13:41:54Z</time>
      </trkpt>
      <trkpt lat="43.62534" lon="1.34745">
        <ele>144</ele>
        <time>2022-10-26T13:41:55Z</time>
      </trkpt>
      <trkpt lat="43.62534" lon="1.34745">
        <ele>144</ele>
        <time>2022-10-26T13:41:56Z</time>
      </trkpt>
      <trkpt lat="43.62534" lon="1.34745">
        <ele>143.8</ele>
        <time>2022-10-26T13:41:57Z</time>
      </trkpt>
      <trkpt lat="43.62534" lon="1.34743">
        <ele>143.8</ele>
        <time>2022-10-26T13:41:58Z</time>
      </trkpt>
      <trkpt lat="43.62534" lon="1.34735">
        <ele>143.6</ele>
        <time>2022-10-26T13:42:02Z</time>
      </trkpt>
      <trkpt lat="43.62535" lon="1.34733">
        <ele>143.6</ele>
        <time>2022-10-26T13:42:03Z</time>
      </trkpt>
      <trkpt lat="43.62535" lon="1.3473">
        <ele>143.6</ele>
        <time>2022-10-26T13:42:04Z</time>
      </trkpt>
      <trkpt lat="43.62535" lon="1.34727">
        <ele>143.6</ele>
        <time>2022-10-26T13:42:05Z</time>
      </trkpt>
      <trkpt lat="43.62535" lon="1.34724">
        <ele>143.6</ele>
        <time>2022-10-26T13:42:06Z</time>
      </trkpt>
      <trkpt lat="43.62536" lon="1.34721">
        <ele>143.6</ele>
        <time>2022-10-26T13:42:07Z</time>
      </trkpt>
      <trkpt lat="43.62536" lon="1.34718">
        <ele>143.6</ele>
        <time>2022-10-26T13:42:08Z</time>
      </trkpt>
      <trkpt lat="43.62536" lon="1.34715">
        <ele>143.6</ele>
        <time>2022-10-26T13:42:09Z</time>
      </trkpt>
      <trkpt lat="43.62536" lon="1.34712">
        <ele>143.6</ele>
        <time>2022-10-26T13:42:10Z</time>
      </trkpt>
      <trkpt lat="43.62537" lon="1.3471">
        <ele>143.4</ele>
        <time>2022-10-26T13:42:11Z</time>
      </trkpt>
      <trkpt lat="43.62539" lon="1.34708">
        <ele>143.4</ele>
        <time>2022-10-26T13:42:12Z</time>
      </trkpt>
      <trkpt lat="43.6254" lon="1.34706">
        <ele>143.4</ele>
        <time>2022-10-26T13:42:13Z</time>
      </trkpt>
      <trkpt lat="43.62541" lon="1.34704">
        <ele>143.4</ele>
        <time>2022-10-26T13:42:14Z</time>
      </trkpt>
      <trkpt lat="43.62542" lon="1.34702">
        <ele>143.4</ele>
        <time>2022-10-26T13:42:15Z</time>
      </trkpt>
      <trkpt lat="43.62542" lon="1.347">
        <ele>143.4</ele>
        <time>2022-10-26T13:42:16Z</time>
      </trkpt>
      <trkpt lat="43.62542" lon="1.34697">
        <ele>143.4</ele>
        <time>2022-10-26T13:42:17Z</time>
      </trkpt>
      <trkpt lat="43.62543" lon="1.34694">
        <ele>143.4</ele>
        <time>2022-10-26T13:42:18Z</time>
      </trkpt>
      <trkpt lat="43.62544" lon="1.34691">
        <ele>143.4</ele>
        <time>2022-10-26T13:42:19Z</time>
      </trkpt>
      <trkpt lat="43.62545" lon="1.34688">
        <ele>143.4</ele>
        <time>2022-10-26T13:42:20Z</time>
      </trkpt>
      <trkpt lat="43.62545" lon="1.34683">
        <ele>143.4</ele>
        <time>2022-10-26T13:42:21Z</time>
      </trkpt>
      <trkpt lat="43.62546" lon="1.34677">
        <ele>143.4</ele>
        <time>2022-10-26T13:42:22Z</time>
      </trkpt>
      <trkpt lat="43.62547" lon="1.34672">
        <ele>143.6</ele>
        <time>2022-10-26T13:42:23Z</time>
      </trkpt>
      <trkpt lat="43.62548" lon="1.34666">
        <ele>143.6</ele>
        <time>2022-10-26T13:42:24Z</time>
      </trkpt>
      <trkpt lat="43.6255" lon="1.34662">
        <ele>143.6</ele>
        <time>2022-10-26T13:42:25Z</time>
      </trkpt>
      <trkpt lat="43.62553" lon="1.3466">
        <ele>143.6</ele>
        <time>2022-10-26T13:42:26Z</time>
      </trkpt>
      <trkpt lat="43.62558" lon="1.3466">
        <ele>143.6</ele>
        <time>2022-10-26T13:42:27Z</time>
      </trkpt>
      <trkpt lat="43.62562" lon="1.3466">
        <ele>143.6</ele>
        <time>2022-10-26T13:42:28Z</time>
      </trkpt>
      <trkpt lat="43.62568" lon="1.3466">
        <ele>143.6</ele>
        <time>2022-10-26T13:42:29Z</time>
      </trkpt>
      <trkpt lat="43.62573" lon="1.3466">
        <ele>143.6</ele>
        <time>2022-10-26T13:42:30Z</time>
      </trkpt>
      <trkpt lat="43.62578" lon="1.3466">
        <ele>143.6</ele>
        <time>2022-10-26T13:42:31Z</time>
      </trkpt>
      <trkpt lat="43.62584" lon="1.34659">
        <ele>143.6</ele>
        <time>2022-10-26T13:42:32Z</time>
      </trkpt>
      <trkpt lat="43.6259" lon="1.34659">
        <ele>143.6</ele>
        <time>2022-10-26T13:42:33Z</time>
      </trkpt>
      <trkpt lat="43.62594" lon="1.34659">
        <ele>143.6</ele>
        <time>2022-10-26T13:42:34Z</time>
      </trkpt>
      <trkpt lat="43.626" lon="1.34659">
        <ele>143.6</ele>
        <time>2022-10-26T13:42:35Z</time>
      </trkpt>
      <trkpt lat="43.62605" lon="1.34659">
        <ele>143.6</ele>
        <time>2022-10-26T13:42:36Z</time>
      </trkpt>
      <trkpt lat="43.6261" lon="1.34659">
        <ele>143.6</ele>
        <time>2022-10-26T13:42:37Z</time>
      </trkpt>
      <trkpt lat="43.62615" lon="1.34658">
        <ele>143.6</ele>
        <time>2022-10-26T13:42:38Z</time>
      </trkpt>
      <trkpt lat="43.62621" lon="1.34658">
        <ele>143.6</ele>
        <time>2022-10-26T13:42:39Z</time>
      </trkpt>
      <trkpt lat="43.62626" lon="1.34658">
        <ele>143.6</ele>
        <time>2022-10-26T13:42:40Z</time>
      </trkpt>
      <trkpt lat="43.62631" lon="1.34658">
        <ele>143.6</ele>
        <time>2022-10-26T13:42:41Z</time>
      </trkpt>
      <trkpt lat="43.62637" lon="1.34657">
        <ele>143.6</ele>
        <time>2022-10-26T13:42:42Z</time>
      </trkpt>
      <trkpt lat="43.62642" lon="1.34656">
        <ele>143.6</ele>
        <time>2022-10-26T13:42:43Z</time>
      </trkpt>
      <trkpt lat="43.62648" lon="1.34656">
        <ele>143.6</ele>
        <time>2022-10-26T13:42:44Z</time>
      </trkpt>
      <trkpt lat="43.62653" lon="1.34656">
        <ele>143.6</ele>
        <time>2022-10-26T13:42:45Z</time>
      </trkpt>
      <trkpt lat="43.62659" lon="1.34656">
        <ele>143.6</ele>
        <time>2022-10-26T13:42:46Z</time>
      </trkpt>
      <trkpt lat="43.62665" lon="1.34655">
        <ele>143.8</ele>
        <time>2022-10-26T13:42:47Z</time>
      </trkpt>
      <trkpt lat="43.6267" lon="1.34655">
        <ele>143.8</ele>
        <time>2022-10-26T13:42:48Z</time>
      </trkpt>
      <trkpt lat="43.62676" lon="1.34655">
        <ele>143.8</ele>
        <time>2022-10-26T13:42:49Z</time>
      </trkpt>
      <trkpt lat="43.62682" lon="1.34654">
        <ele>143.8</ele>
        <time>2022-10-26T13:42:50Z</time>
      </trkpt>
      <trkpt lat="43.62689" lon="1.34654">
        <ele>143.8</ele>
        <time>2022-10-26T13:42:51Z</time>
      </trkpt>
      <trkpt lat="43.62695" lon="1.34654">
        <ele>143.8</ele>
        <time>2022-10-26T13:42:52Z</time>
      </trkpt>
      <trkpt lat="43.62701" lon="1.34653">
        <ele>143.8</ele>
        <time>2022-10-26T13:42:53Z</time>
      </trkpt>
      <trkpt lat="43.62707" lon="1.34653">
        <ele>143.8</ele>
        <time>2022-10-26T13:42:54Z</time>
      </trkpt>
      <trkpt lat="43.62713" lon="1.34653">
        <ele>143.8</ele>
        <time>2022-10-26T13:42:55Z</time>
      </trkpt>
      <trkpt lat="43.6272" lon="1.34652">
        <ele>143.8</ele>
        <time>2022-10-26T13:42:56Z</time>
      </trkpt>
      <trkpt lat="43.62726" lon="1.34651">
        <ele>143.8</ele>
        <time>2022-10-26T13:42:57Z</time>
      </trkpt>
      <trkpt lat="43.62733" lon="1.34651">
        <ele>143.8</ele>
        <time>2022-10-26T13:42:58Z</time>
      </trkpt>
      <trkpt lat="43.62739" lon="1.34651">
        <ele>143.8</ele>
        <time>2022-10-26T13:42:59Z</time>
      </trkpt>
      <trkpt lat="43.62746" lon="1.3465">
        <ele>143.8</ele>
        <time>2022-10-26T13:43:00Z</time>
      </trkpt>
      <trkpt lat="43.62752" lon="1.3465">
        <ele>143.8</ele>
        <time>2022-10-26T13:43:01Z</time>
      </trkpt>
      <trkpt lat="43.62759" lon="1.3465">
        <ele>143.8</ele>
        <time>2022-10-26T13:43:02Z</time>
      </trkpt>
      <trkpt lat="43.62765" lon="1.34649">
        <ele>143.6</ele>
        <time>2022-10-26T13:43:03Z</time>
      </trkpt>
      <trkpt lat="43.62771" lon="1.34649">
        <ele>143.6</ele>
        <time>2022-10-26T13:43:04Z</time>
      </trkpt>
      <trkpt lat="43.62777" lon="1.34649">
        <ele>143.6</ele>
        <time>2022-10-26T13:43:05Z</time>
      </trkpt>
      <trkpt lat="43.62783" lon="1.34648">
        <ele>143.6</ele>
        <time>2022-10-26T13:43:06Z</time>
      </trkpt>
      <trkpt lat="43.6279" lon="1.34648">
        <ele>143.4</ele>
        <time>2022-10-26T13:43:07Z</time>
      </trkpt>
      <trkpt lat="43.62796" lon="1.34648">
        <ele>143.4</ele>
        <time>2022-10-26T13:43:08Z</time>
      </trkpt>
      <trkpt lat="43.62802" lon="1.34647">
        <ele>143.4</ele>
        <time>2022-10-26T13:43:09Z</time>
      </trkpt>
      <trkpt lat="43.62808" lon="1.34647">
        <ele>143.4</ele>
        <time>2022-10-26T13:43:10Z</time>
      </trkpt>
      <trkpt lat="43.62814" lon="1.34646">
        <ele>143.2</ele>
        <time>2022-10-26T13:43:11Z</time>
      </trkpt>
      <trkpt lat="43.62821" lon="1.34646">
        <ele>143.2</ele>
        <time>2022-10-26T13:43:12Z</time>
      </trkpt>
      <trkpt lat="43.62825" lon="1.34646">
        <ele>143.2</ele>
        <time>2022-10-26T13:43:13Z</time>
      </trkpt>
      <trkpt lat="43.62832" lon="1.34645">
        <ele>143</ele>
        <time>2022-10-26T13:43:14Z</time>
      </trkpt>
      <trkpt lat="43.62839" lon="1.34644">
        <ele>143</ele>
        <time>2022-10-26T13:43:15Z</time>
      </trkpt>
      <trkpt lat="43.62845" lon="1.34644">
        <ele>143</ele>
        <time>2022-10-26T13:43:16Z</time>
      </trkpt>
      <trkpt lat="43.6285" lon="1.34644">
        <ele>143</ele>
        <time>2022-10-26T13:43:17Z</time>
      </trkpt>
      <trkpt lat="43.62856" lon="1.34644">
        <ele>142.8</ele>
        <time>2022-10-26T13:43:18Z</time>
      </trkpt>
      <trkpt lat="43.62862" lon="1.34644">
        <ele>142.8</ele>
        <time>2022-10-26T13:43:19Z</time>
      </trkpt>
      <trkpt lat="43.6287" lon="1.34643">
        <ele>142.8</ele>
        <time>2022-10-26T13:43:20Z</time>
      </trkpt>
      <trkpt lat="43.62876" lon="1.34643">
        <ele>142.8</ele>
        <time>2022-10-26T13:43:21Z</time>
      </trkpt>
      <trkpt lat="43.62883" lon="1.34643">
        <ele>142.6</ele>
        <time>2022-10-26T13:43:22Z</time>
      </trkpt>
      <trkpt lat="43.62888" lon="1.34642">
        <ele>142.6</ele>
        <time>2022-10-26T13:43:23Z</time>
      </trkpt>
      <trkpt lat="43.62894" lon="1.34641">
        <ele>142.6</ele>
        <time>2022-10-26T13:43:24Z</time>
      </trkpt>
      <trkpt lat="43.62901" lon="1.3464">
        <ele>142.6</ele>
        <time>2022-10-26T13:43:25Z</time>
      </trkpt>
      <trkpt lat="43.62908" lon="1.34638">
        <ele>142.6</ele>
        <time>2022-10-26T13:43:26Z</time>
      </trkpt>
      <trkpt lat="43.62913" lon="1.34636">
        <ele>142.6</ele>
        <time>2022-10-26T13:43:27Z</time>
      </trkpt>
      <trkpt lat="43.6292" lon="1.34634">
        <ele>142.6</ele>
        <time>2022-10-26T13:43:28Z</time>
      </trkpt>
      <trkpt lat="43.62926" lon="1.34632">
        <ele>142.4</ele>
        <time>2022-10-26T13:43:29Z</time>
      </trkpt>
      <trkpt lat="43.62933" lon="1.34628">
        <ele>142.6</ele>
        <time>2022-10-26T13:43:30Z</time>
      </trkpt>
      <trkpt lat="43.62939" lon="1.34625">
        <ele>142.6</ele>
        <time>2022-10-26T13:43:31Z</time>
      </trkpt>
      <trkpt lat="43.62944" lon="1.34622">
        <ele>142.6</ele>
        <time>2022-10-26T13:43:32Z</time>
      </trkpt>
      <trkpt lat="43.62949" lon="1.34618">
        <ele>142.6</ele>
        <time>2022-10-26T13:43:33Z</time>
      </trkpt>
      <trkpt lat="43.62955" lon="1.34613">
        <ele>142.4</ele>
        <time>2022-10-26T13:43:34Z</time>
      </trkpt>
      <trkpt lat="43.6296" lon="1.3461">
        <ele>142.4</ele>
        <time>2022-10-26T13:43:35Z</time>
      </trkpt>
      <trkpt lat="43.62963" lon="1.34608">
        <ele>142.4</ele>
        <time>2022-10-26T13:43:36Z</time>
      </trkpt>
      <trkpt lat="43.62968" lon="1.34607">
        <ele>142.4</ele>
        <time>2022-10-26T13:43:37Z</time>
      </trkpt>
      <trkpt lat="43.62972" lon="1.34606">
        <ele>142.4</ele>
        <time>2022-10-26T13:43:38Z</time>
      </trkpt>
      <trkpt lat="43.62976" lon="1.34603">
        <ele>142.4</ele>
        <time>2022-10-26T13:43:39Z</time>
      </trkpt>
      <trkpt lat="43.62977" lon="1.34598">
        <ele>142.4</ele>
        <time>2022-10-26T13:43:40Z</time>
      </trkpt>
      <trkpt lat="43.62978" lon="1.34592">
        <ele>142.4</ele>
        <time>2022-10-26T13:43:41Z</time>
      </trkpt>
      <trkpt lat="43.62979" lon="1.34586">
        <ele>142.4</ele>
        <time>2022-10-26T13:43:42Z</time>
      </trkpt>
      <trkpt lat="43.62979" lon="1.3458">
        <ele>142.4</ele>
        <time>2022-10-26T13:43:43Z</time>
      </trkpt>
      <trkpt lat="43.6298" lon="1.34574">
        <ele>142.2</ele>
        <time>2022-10-26T13:43:44Z</time>
      </trkpt>
      <trkpt lat="43.6298" lon="1.34567">
        <ele>142.2</ele>
        <time>2022-10-26T13:43:45Z</time>
      </trkpt>
      <trkpt lat="43.6298" lon="1.3456">
        <ele>142.2</ele>
        <time>2022-10-26T13:43:46Z</time>
      </trkpt>
      <trkpt lat="43.62981" lon="1.34552">
        <ele>142.2</ele>
        <time>2022-10-26T13:43:47Z</time>
      </trkpt>
      <trkpt lat="43.62982" lon="1.34545">
        <ele>142.2</ele>
        <time>2022-10-26T13:43:48Z</time>
      </trkpt>
      <trkpt lat="43.62982" lon="1.34537">
        <ele>142.2</ele>
        <time>2022-10-26T13:43:49Z</time>
      </trkpt>
      <trkpt lat="43.62983" lon="1.34529">
        <ele>142.2</ele>
        <time>2022-10-26T13:43:50Z</time>
      </trkpt>
      <trkpt lat="43.62983" lon="1.34521">
        <ele>142.2</ele>
        <time>2022-10-26T13:43:51Z</time>
      </trkpt>
      <trkpt lat="43.62984" lon="1.34514">
        <ele>142.2</ele>
        <time>2022-10-26T13:43:52Z</time>
      </trkpt>
      <trkpt lat="43.62985" lon="1.34506">
        <ele>142.2</ele>
        <time>2022-10-26T13:43:53Z</time>
      </trkpt>
      <trkpt lat="43.62985" lon="1.34496">
        <ele>142.2</ele>
        <time>2022-10-26T13:43:54Z</time>
      </trkpt>
      <trkpt lat="43.62986" lon="1.3449">
        <ele>142.2</ele>
        <time>2022-10-26T13:43:55Z</time>
      </trkpt>
      <trkpt lat="43.62986" lon="1.34481">
        <ele>142.4</ele>
        <time>2022-10-26T13:43:56Z</time>
      </trkpt>
      <trkpt lat="43.62987" lon="1.34473">
        <ele>142.4</ele>
        <time>2022-10-26T13:43:57Z</time>
      </trkpt>
      <trkpt lat="43.62987" lon="1.34465">
        <ele>142.4</ele>
        <time>2022-10-26T13:43:58Z</time>
      </trkpt>
      <trkpt lat="43.62987" lon="1.34456">
        <ele>142.6</ele>
        <time>2022-10-26T13:43:59Z</time>
      </trkpt>
      <trkpt lat="43.62988" lon="1.34448">
        <ele>142.6</ele>
        <time>2022-10-26T13:44:00Z</time>
      </trkpt>
      <trkpt lat="43.62989" lon="1.3444">
        <ele>142.6</ele>
        <time>2022-10-26T13:44:01Z</time>
      </trkpt>
      <trkpt lat="43.6299" lon="1.34432">
        <ele>142.8</ele>
        <time>2022-10-26T13:44:02Z</time>
      </trkpt>
      <trkpt lat="43.62991" lon="1.34423">
        <ele>142.8</ele>
        <time>2022-10-26T13:44:03Z</time>
      </trkpt>
      <trkpt lat="43.62992" lon="1.34415">
        <ele>142.8</ele>
        <time>2022-10-26T13:44:04Z</time>
      </trkpt>
      <trkpt lat="43.62995" lon="1.34407">
        <ele>142.8</ele>
        <time>2022-10-26T13:44:05Z</time>
      </trkpt>
      <trkpt lat="43.62998" lon="1.344">
        <ele>143</ele>
        <time>2022-10-26T13:44:06Z</time>
      </trkpt>
      <trkpt lat="43.63002" lon="1.34394">
        <ele>143</ele>
        <time>2022-10-26T13:44:07Z</time>
      </trkpt>
      <trkpt lat="43.63007" lon="1.3439">
        <ele>143</ele>
        <time>2022-10-26T13:44:08Z</time>
      </trkpt>
      <trkpt lat="43.63012" lon="1.34385">
        <ele>143</ele>
        <time>2022-10-26T13:44:09Z</time>
      </trkpt>
      <trkpt lat="43.63018" lon="1.34383">
        <ele>143.2</ele>
        <time>2022-10-26T13:44:10Z</time>
      </trkpt>
      <trkpt lat="43.63024" lon="1.34381">
        <ele>143.2</ele>
        <time>2022-10-26T13:44:11Z</time>
      </trkpt>
      <trkpt lat="43.6303" lon="1.34381">
        <ele>143.4</ele>
        <time>2022-10-26T13:44:12Z</time>
      </trkpt>
      <trkpt lat="43.63036" lon="1.34381">
        <ele>143.4</ele>
        <time>2022-10-26T13:44:13Z</time>
      </trkpt>
      <trkpt lat="43.63043" lon="1.34381">
        <ele>143.6</ele>
        <time>2022-10-26T13:44:14Z</time>
      </trkpt>
      <trkpt lat="43.63049" lon="1.34382">
        <ele>143.8</ele>
        <time>2022-10-26T13:44:15Z</time>
      </trkpt>
      <trkpt lat="43.63055" lon="1.34382">
        <ele>144.2</ele>
        <time>2022-10-26T13:44:16Z</time>
      </trkpt>
      <trkpt lat="43.63061" lon="1.34382">
        <ele>144.2</ele>
        <time>2022-10-26T13:44:17Z</time>
      </trkpt>
      <trkpt lat="43.63067" lon="1.34382">
        <ele>144.6</ele>
        <time>2022-10-26T13:44:18Z</time>
      </trkpt>
      <trkpt lat="43.63073" lon="1.34382">
        <ele>144.6</ele>
        <time>2022-10-26T13:44:19Z</time>
      </trkpt>
      <trkpt lat="43.6308" lon="1.34382">
        <ele>144.6</ele>
        <time>2022-10-26T13:44:20Z</time>
      </trkpt>
      <trkpt lat="43.63086" lon="1.34382">
        <ele>144.8</ele>
        <time>2022-10-26T13:44:21Z</time>
      </trkpt>
      <trkpt lat="43.63092" lon="1.34383">
        <ele>145</ele>
        <time>2022-10-26T13:44:22Z</time>
      </trkpt>
      <trkpt lat="43.63099" lon="1.34383">
        <ele>145</ele>
        <time>2022-10-26T13:44:23Z</time>
      </trkpt>
      <trkpt lat="43.63105" lon="1.34383">
        <ele>145</ele>
        <time>2022-10-26T13:44:24Z</time>
      </trkpt>
      <trkpt lat="43.63112" lon="1.34384">
        <ele>145.2</ele>
        <time>2022-10-26T13:44:25Z</time>
      </trkpt>
      <trkpt lat="43.63118" lon="1.34384">
        <ele>145.2</ele>
        <time>2022-10-26T13:44:26Z</time>
      </trkpt>
      <trkpt lat="43.63125" lon="1.34385">
        <ele>145.4</ele>
        <time>2022-10-26T13:44:27Z</time>
      </trkpt>
      <trkpt lat="43.63132" lon="1.34385">
        <ele>145.6</ele>
        <time>2022-10-26T13:44:28Z</time>
      </trkpt>
      <trkpt lat="43.63138" lon="1.34386">
        <ele>145.6</ele>
        <time>2022-10-26T13:44:29Z</time>
      </trkpt>
      <trkpt lat="43.63144" lon="1.34386">
        <ele>145.8</ele>
        <time>2022-10-26T13:44:30Z</time>
      </trkpt>
      <trkpt lat="43.63151" lon="1.34386">
        <ele>145.8</ele>
        <time>2022-10-26T13:44:31Z</time>
      </trkpt>
      <trkpt lat="43.63157" lon="1.34387">
        <ele>145.8</ele>
        <time>2022-10-26T13:44:32Z</time>
      </trkpt>
      <trkpt lat="43.63164" lon="1.34387">
        <ele>145.8</ele>
        <time>2022-10-26T13:44:33Z</time>
      </trkpt>
      <trkpt lat="43.6317" lon="1.34388">
        <ele>146</ele>
        <time>2022-10-26T13:44:34Z</time>
      </trkpt>
      <trkpt lat="43.63177" lon="1.34388">
        <ele>146</ele>
        <time>2022-10-26T13:44:35Z</time>
      </trkpt>
      <trkpt lat="43.63183" lon="1.34389">
        <ele>146</ele>
        <time>2022-10-26T13:44:36Z</time>
      </trkpt>
      <trkpt lat="43.6319" lon="1.3439">
        <ele>146</ele>
        <time>2022-10-26T13:44:37Z</time>
      </trkpt>
      <trkpt lat="43.63196" lon="1.3439">
        <ele>146</ele>
        <time>2022-10-26T13:44:38Z</time>
      </trkpt>
      <trkpt lat="43.63203" lon="1.3439">
        <ele>146.2</ele>
        <time>2022-10-26T13:44:39Z</time>
      </trkpt>
      <trkpt lat="43.63209" lon="1.3439">
        <ele>146.2</ele>
        <time>2022-10-26T13:44:40Z</time>
      </trkpt>
      <trkpt lat="43.63216" lon="1.34391">
        <ele>146.2</ele>
        <time>2022-10-26T13:44:41Z</time>
      </trkpt>
      <trkpt lat="43.63222" lon="1.3439">
        <ele>146.2</ele>
        <time>2022-10-26T13:44:42Z</time>
      </trkpt>
      <trkpt lat="43.63229" lon="1.3439">
        <ele>146.4</ele>
        <time>2022-10-26T13:44:43Z</time>
      </trkpt>
      <trkpt lat="43.63236" lon="1.3439">
        <ele>146.4</ele>
        <time>2022-10-26T13:44:44Z</time>
      </trkpt>
      <trkpt lat="43.63242" lon="1.3439">
        <ele>146.4</ele>
        <time>2022-10-26T13:44:45Z</time>
      </trkpt>
      <trkpt lat="43.63249" lon="1.34389">
        <ele>146.4</ele>
        <time>2022-10-26T13:44:46Z</time>
      </trkpt>
      <trkpt lat="43.63256" lon="1.34389">
        <ele>146.4</ele>
        <time>2022-10-26T13:44:47Z</time>
      </trkpt>
      <trkpt lat="43.63263" lon="1.34389">
        <ele>146.4</ele>
        <time>2022-10-26T13:44:48Z</time>
      </trkpt>
      <trkpt lat="43.6327" lon="1.3439">
        <ele>146.4</ele>
        <time>2022-10-26T13:44:49Z</time>
      </trkpt>
      <trkpt lat="43.63277" lon="1.3439">
        <ele>146.4</ele>
        <time>2022-10-26T13:44:50Z</time>
      </trkpt>
      <trkpt lat="43.63283" lon="1.34391">
        <ele>146.4</ele>
        <time>2022-10-26T13:44:51Z</time>
      </trkpt>
      <trkpt lat="43.6329" lon="1.34391">
        <ele>146.4</ele>
        <time>2022-10-26T13:44:52Z</time>
      </trkpt>
      <trkpt lat="43.63297" lon="1.34392">
        <ele>146.4</ele>
        <time>2022-10-26T13:44:53Z</time>
      </trkpt>
      <trkpt lat="43.63304" lon="1.34393">
        <ele>146.4</ele>
        <time>2022-10-26T13:44:54Z</time>
      </trkpt>
      <trkpt lat="43.63311" lon="1.34393">
        <ele>146.4</ele>
        <time>2022-10-26T13:44:55Z</time>
      </trkpt>
      <trkpt lat="43.63318" lon="1.34394">
        <ele>146.6</ele>
        <time>2022-10-26T13:44:56Z</time>
      </trkpt>
      <trkpt lat="43.63325" lon="1.34395">
        <ele>146.6</ele>
        <time>2022-10-26T13:44:57Z</time>
      </trkpt>
      <trkpt lat="43.63332" lon="1.34396">
        <ele>146.6</ele>
        <time>2022-10-26T13:44:58Z</time>
      </trkpt>
      <trkpt lat="43.63339" lon="1.34397">
        <ele>146.6</ele>
        <time>2022-10-26T13:44:59Z</time>
      </trkpt>
      <trkpt lat="43.63345" lon="1.34398">
        <ele>146.6</ele>
        <time>2022-10-26T13:45:00Z</time>
      </trkpt>
      <trkpt lat="43.63353" lon="1.344">
        <ele>146.6</ele>
        <time>2022-10-26T13:45:01Z</time>
      </trkpt>
      <trkpt lat="43.6336" lon="1.34402">
        <ele>146.6</ele>
        <time>2022-10-26T13:45:02Z</time>
      </trkpt>
      <trkpt lat="43.63368" lon="1.34405">
        <ele>146.6</ele>
        <time>2022-10-26T13:45:03Z</time>
      </trkpt>
      <trkpt lat="43.63374" lon="1.34408">
        <ele>146.6</ele>
        <time>2022-10-26T13:45:04Z</time>
      </trkpt>
      <trkpt lat="43.63381" lon="1.34411">
        <ele>146.6</ele>
        <time>2022-10-26T13:45:05Z</time>
      </trkpt>
      <trkpt lat="43.63388" lon="1.34415">
        <ele>146.6</ele>
        <time>2022-10-26T13:45:06Z</time>
      </trkpt>
      <trkpt lat="43.63395" lon="1.34419">
        <ele>146.6</ele>
        <time>2022-10-26T13:45:07Z</time>
      </trkpt>
      <trkpt lat="43.63403" lon="1.34422">
        <ele>146.6</ele>
        <time>2022-10-26T13:45:08Z</time>
      </trkpt>
      <trkpt lat="43.6341" lon="1.34425">
        <ele>146.4</ele>
        <time>2022-10-26T13:45:09Z</time>
      </trkpt>
      <trkpt lat="43.63418" lon="1.34429">
        <ele>146.4</ele>
        <time>2022-10-26T13:45:10Z</time>
      </trkpt>
      <trkpt lat="43.63425" lon="1.34432">
        <ele>146.4</ele>
        <time>2022-10-26T13:45:11Z</time>
      </trkpt>
      <trkpt lat="43.63433" lon="1.34436">
        <ele>146.4</ele>
        <time>2022-10-26T13:45:12Z</time>
      </trkpt>
      <trkpt lat="43.6344" lon="1.3444">
        <ele>146.2</ele>
        <time>2022-10-26T13:45:13Z</time>
      </trkpt>
      <trkpt lat="43.63447" lon="1.34444">
        <ele>146.2</ele>
        <time>2022-10-26T13:45:14Z</time>
      </trkpt>
      <trkpt lat="43.63454" lon="1.34448">
        <ele>146.2</ele>
        <time>2022-10-26T13:45:15Z</time>
      </trkpt>
      <trkpt lat="43.63462" lon="1.34452">
        <ele>146.2</ele>
        <time>2022-10-26T13:45:16Z</time>
      </trkpt>
      <trkpt lat="43.63469" lon="1.34458">
        <ele>146</ele>
        <time>2022-10-26T13:45:17Z</time>
      </trkpt>
      <trkpt lat="43.63474" lon="1.34465">
        <ele>146</ele>
        <time>2022-10-26T13:45:18Z</time>
      </trkpt>
      <trkpt lat="43.63478" lon="1.34472">
        <ele>146</ele>
        <time>2022-10-26T13:45:19Z</time>
      </trkpt>
      <trkpt lat="43.63481" lon="1.3448">
        <ele>145.8</ele>
        <time>2022-10-26T13:45:20Z</time>
      </trkpt>
      <trkpt lat="43.63481" lon="1.34487">
        <ele>145.8</ele>
        <time>2022-10-26T13:45:21Z</time>
      </trkpt>
      <trkpt lat="43.63482" lon="1.34493">
        <ele>145.6</ele>
        <time>2022-10-26T13:45:22Z</time>
      </trkpt>
      <trkpt lat="43.6348" lon="1.34501">
        <ele>145.6</ele>
        <time>2022-10-26T13:45:23Z</time>
      </trkpt>
      <trkpt lat="43.63477" lon="1.34508">
        <ele>145.4</ele>
        <time>2022-10-26T13:45:24Z</time>
      </trkpt>
      <trkpt lat="43.63472" lon="1.34517">
        <ele>145.2</ele>
        <time>2022-10-26T13:45:25Z</time>
      </trkpt>
      <trkpt lat="43.63467" lon="1.34525">
        <ele>145.2</ele>
        <time>2022-10-26T13:45:26Z</time>
      </trkpt>
      <trkpt lat="43.63462" lon="1.34533">
        <ele>145</ele>
        <time>2022-10-26T13:45:27Z</time>
      </trkpt>
      <trkpt lat="43.63458" lon="1.34542">
        <ele>145</ele>
        <time>2022-10-26T13:45:28Z</time>
      </trkpt>
      <trkpt lat="43.63453" lon="1.34552">
        <ele>144.8</ele>
        <time>2022-10-26T13:45:29Z</time>
      </trkpt>
      <trkpt lat="43.6345" lon="1.34563">
        <ele>144.8</ele>
        <time>2022-10-26T13:45:30Z</time>
      </trkpt>
      <trkpt lat="43.63449" lon="1.34574">
        <ele>144.6</ele>
        <time>2022-10-26T13:45:31Z</time>
      </trkpt>
      <trkpt lat="43.6345" lon="1.34585">
        <ele>144.4</ele>
        <time>2022-10-26T13:45:32Z</time>
      </trkpt>
      <trkpt lat="43.63453" lon="1.34595">
        <ele>144.4</ele>
        <time>2022-10-26T13:45:33Z</time>
      </trkpt>
      <trkpt lat="43.63456" lon="1.34605">
        <ele>144.2</ele>
        <time>2022-10-26T13:45:34Z</time>
      </trkpt>
      <trkpt lat="43.63461" lon="1.34613">
        <ele>144.2</ele>
        <time>2022-10-26T13:45:35Z</time>
      </trkpt>
      <trkpt lat="43.63466" lon="1.34618">
        <ele>144.2</ele>
        <time>2022-10-26T13:45:36Z</time>
      </trkpt>
      <trkpt lat="43.63472" lon="1.34622">
        <ele>144</ele>
        <time>2022-10-26T13:45:37Z</time>
      </trkpt>
      <trkpt lat="43.63479" lon="1.34622">
        <ele>144</ele>
        <time>2022-10-26T13:45:38Z</time>
      </trkpt>
      <trkpt lat="43.63486" lon="1.34622">
        <ele>144</ele>
        <time>2022-10-26T13:45:39Z</time>
      </trkpt>
      <trkpt lat="43.63493" lon="1.34621">
        <ele>144</ele>
        <time>2022-10-26T13:45:40Z</time>
      </trkpt>
      <trkpt lat="43.635" lon="1.34621">
        <ele>144</ele>
        <time>2022-10-26T13:45:41Z</time>
      </trkpt>
      <trkpt lat="43.63507" lon="1.34621">
        <ele>144</ele>
        <time>2022-10-26T13:45:42Z</time>
      </trkpt>
      <trkpt lat="43.63515" lon="1.34621">
        <ele>143.8</ele>
        <time>2022-10-26T13:45:43Z</time>
      </trkpt>
      <trkpt lat="43.63522" lon="1.34621">
        <ele>143.6</ele>
        <time>2022-10-26T13:45:44Z</time>
      </trkpt>
      <trkpt lat="43.63529" lon="1.3462">
        <ele>143.6</ele>
        <time>2022-10-26T13:45:45Z</time>
      </trkpt>
      <trkpt lat="43.63538" lon="1.3462">
        <ele>143.4</ele>
        <time>2022-10-26T13:45:46Z</time>
      </trkpt>
      <trkpt lat="43.63546" lon="1.34619">
        <ele>143.4</ele>
        <time>2022-10-26T13:45:47Z</time>
      </trkpt>
      <trkpt lat="43.63553" lon="1.34619">
        <ele>143.4</ele>
        <time>2022-10-26T13:45:48Z</time>
      </trkpt>
      <trkpt lat="43.6356" lon="1.34619">
        <ele>143.4</ele>
        <time>2022-10-26T13:45:49Z</time>
      </trkpt>
      <trkpt lat="43.63568" lon="1.34618">
        <ele>143.4</ele>
        <time>2022-10-26T13:45:50Z</time>
      </trkpt>
      <trkpt lat="43.63575" lon="1.34618">
        <ele>143.2</ele>
        <time>2022-10-26T13:45:51Z</time>
      </trkpt>
      <trkpt lat="43.63583" lon="1.34617">
        <ele>143.2</ele>
        <time>2022-10-26T13:45:52Z</time>
      </trkpt>
      <trkpt lat="43.6359" lon="1.34617">
        <ele>143.4</ele>
        <time>2022-10-26T13:45:53Z</time>
      </trkpt>
      <trkpt lat="43.63596" lon="1.34617">
        <ele>143.4</ele>
        <time>2022-10-26T13:45:54Z</time>
      </trkpt>
      <trkpt lat="43.63605" lon="1.34617">
        <ele>143.4</ele>
        <time>2022-10-26T13:45:55Z</time>
      </trkpt>
      <trkpt lat="43.63613" lon="1.34617">
        <ele>143.4</ele>
        <time>2022-10-26T13:45:56Z</time>
      </trkpt>
      <trkpt lat="43.6362" lon="1.34618">
        <ele>143.4</ele>
        <time>2022-10-26T13:45:57Z</time>
      </trkpt>
      <trkpt lat="43.63628" lon="1.34618">
        <ele>143.4</ele>
        <time>2022-10-26T13:45:58Z</time>
      </trkpt>
      <trkpt lat="43.63635" lon="1.34618">
        <ele>143.2</ele>
        <time>2022-10-26T13:45:59Z</time>
      </trkpt>
      <trkpt lat="43.63643" lon="1.34618">
        <ele>143.2</ele>
        <time>2022-10-26T13:46:00Z</time>
      </trkpt>
      <trkpt lat="43.6365" lon="1.34619">
        <ele>143.2</ele>
        <time>2022-10-26T13:46:01Z</time>
      </trkpt>
      <trkpt lat="43.63656" lon="1.34619">
        <ele>143.2</ele>
        <time>2022-10-26T13:46:02Z</time>
      </trkpt>
      <trkpt lat="43.63663" lon="1.3462">
        <ele>143.2</ele>
        <time>2022-10-26T13:46:03Z</time>
      </trkpt>
      <trkpt lat="43.6367" lon="1.3462">
        <ele>143.2</ele>
        <time>2022-10-26T13:46:04Z</time>
      </trkpt>
      <trkpt lat="43.63678" lon="1.3462">
        <ele>143.2</ele>
        <time>2022-10-26T13:46:05Z</time>
      </trkpt>
      <trkpt lat="43.63685" lon="1.34621">
        <ele>143.2</ele>
        <time>2022-10-26T13:46:06Z</time>
      </trkpt>
      <trkpt lat="43.63692" lon="1.34621">
        <ele>143</ele>
        <time>2022-10-26T13:46:07Z</time>
      </trkpt>
      <trkpt lat="43.637" lon="1.34622">
        <ele>143</ele>
        <time>2022-10-26T13:46:08Z</time>
      </trkpt>
      <trkpt lat="43.63707" lon="1.34622">
        <ele>143</ele>
        <time>2022-10-26T13:46:09Z</time>
      </trkpt>
      <trkpt lat="43.63715" lon="1.34622">
        <ele>143</ele>
        <time>2022-10-26T13:46:10Z</time>
      </trkpt>
      <trkpt lat="43.63723" lon="1.34622">
        <ele>143</ele>
        <time>2022-10-26T13:46:11Z</time>
      </trkpt>
      <trkpt lat="43.6373" lon="1.34622">
        <ele>143</ele>
        <time>2022-10-26T13:46:12Z</time>
      </trkpt>
      <trkpt lat="43.63737" lon="1.34622">
        <ele>143</ele>
        <time>2022-10-26T13:46:13Z</time>
      </trkpt>
      <trkpt lat="43.63745" lon="1.34622">
        <ele>142.8</ele>
        <time>2022-10-26T13:46:14Z</time>
      </trkpt>
      <trkpt lat="43.63752" lon="1.34622">
        <ele>142.8</ele>
        <time>2022-10-26T13:46:15Z</time>
      </trkpt>
      <trkpt lat="43.6376" lon="1.34621">
        <ele>142.8</ele>
        <time>2022-10-26T13:46:16Z</time>
      </trkpt>
      <trkpt lat="43.63767" lon="1.34621">
        <ele>142.8</ele>
        <time>2022-10-26T13:46:17Z</time>
      </trkpt>
      <trkpt lat="43.63776" lon="1.34621">
        <ele>142.8</ele>
        <time>2022-10-26T13:46:18Z</time>
      </trkpt>
      <trkpt lat="43.63783" lon="1.3462">
        <ele>142.8</ele>
        <time>2022-10-26T13:46:19Z</time>
      </trkpt>
      <trkpt lat="43.63791" lon="1.34619">
        <ele>142.8</ele>
        <time>2022-10-26T13:46:20Z</time>
      </trkpt>
      <trkpt lat="43.63797" lon="1.34618">
        <ele>142.8</ele>
        <time>2022-10-26T13:46:21Z</time>
      </trkpt>
      <trkpt lat="43.63804" lon="1.34616">
        <ele>142.6</ele>
        <time>2022-10-26T13:46:22Z</time>
      </trkpt>
      <trkpt lat="43.63811" lon="1.34614">
        <ele>142.6</ele>
        <time>2022-10-26T13:46:23Z</time>
      </trkpt>
      <trkpt lat="43.6382" lon="1.34612">
        <ele>142.6</ele>
        <time>2022-10-26T13:46:24Z</time>
      </trkpt>
      <trkpt lat="43.63826" lon="1.3461">
        <ele>142.6</ele>
        <time>2022-10-26T13:46:25Z</time>
      </trkpt>
      <trkpt lat="43.63833" lon="1.34607">
        <ele>142.6</ele>
        <time>2022-10-26T13:46:26Z</time>
      </trkpt>
      <trkpt lat="43.63841" lon="1.34604">
        <ele>142.6</ele>
        <time>2022-10-26T13:46:27Z</time>
      </trkpt>
      <trkpt lat="43.63848" lon="1.34601">
        <ele>142.6</ele>
        <time>2022-10-26T13:46:28Z</time>
      </trkpt>
      <trkpt lat="43.63854" lon="1.34599">
        <ele>142.4</ele>
        <time>2022-10-26T13:46:29Z</time>
      </trkpt>
      <trkpt lat="43.6386" lon="1.34596">
        <ele>142.4</ele>
        <time>2022-10-26T13:46:30Z</time>
      </trkpt>
      <trkpt lat="43.63866" lon="1.34593">
        <ele>142.4</ele>
        <time>2022-10-26T13:46:31Z</time>
      </trkpt>
      <trkpt lat="43.63874" lon="1.34589">
        <ele>142.4</ele>
        <time>2022-10-26T13:46:32Z</time>
      </trkpt>
      <trkpt lat="43.63879" lon="1.34586">
        <ele>142.6</ele>
        <time>2022-10-26T13:46:33Z</time>
      </trkpt>
      <trkpt lat="43.63885" lon="1.34583">
        <ele>142.6</ele>
        <time>2022-10-26T13:46:34Z</time>
      </trkpt>
      <trkpt lat="43.63891" lon="1.34579">
        <ele>142.6</ele>
        <time>2022-10-26T13:46:35Z</time>
      </trkpt>
      <trkpt lat="43.63897" lon="1.34575">
        <ele>142.6</ele>
        <time>2022-10-26T13:46:36Z</time>
      </trkpt>
      <trkpt lat="43.63903" lon="1.34571">
        <ele>142.6</ele>
        <time>2022-10-26T13:46:37Z</time>
      </trkpt>
      <trkpt lat="43.6391" lon="1.34566">
        <ele>142.6</ele>
        <time>2022-10-26T13:46:38Z</time>
      </trkpt>
      <trkpt lat="43.63916" lon="1.34562">
        <ele>142.6</ele>
        <time>2022-10-26T13:46:39Z</time>
      </trkpt>
      <trkpt lat="43.63921" lon="1.34558">
        <ele>142.6</ele>
        <time>2022-10-26T13:46:40Z</time>
      </trkpt>
      <trkpt lat="43.63926" lon="1.34553">
        <ele>142.6</ele>
        <time>2022-10-26T13:46:41Z</time>
      </trkpt>
      <trkpt lat="43.63933" lon="1.34548">
        <ele>142.6</ele>
        <time>2022-10-26T13:46:42Z</time>
      </trkpt>
      <trkpt lat="43.63939" lon="1.34543">
        <ele>142.6</ele>
        <time>2022-10-26T13:46:43Z</time>
      </trkpt>
      <trkpt lat="43.63943" lon="1.34538">
        <ele>142.6</ele>
        <time>2022-10-26T13:46:44Z</time>
      </trkpt>
      <trkpt lat="43.63948" lon="1.34533">
        <ele>142.6</ele>
        <time>2022-10-26T13:46:45Z</time>
      </trkpt>
      <trkpt lat="43.63955" lon="1.34527">
        <ele>142.6</ele>
        <time>2022-10-26T13:46:46Z</time>
      </trkpt>
      <trkpt lat="43.6396" lon="1.34521">
        <ele>142.6</ele>
        <time>2022-10-26T13:46:47Z</time>
      </trkpt>
      <trkpt lat="43.63965" lon="1.34516">
        <ele>142.6</ele>
        <time>2022-10-26T13:46:48Z</time>
      </trkpt>
      <trkpt lat="43.63968" lon="1.34512">
        <ele>142.6</ele>
        <time>2022-10-26T13:46:49Z</time>
      </trkpt>
      <trkpt lat="43.63973" lon="1.34506">
        <ele>142.6</ele>
        <time>2022-10-26T13:46:50Z</time>
      </trkpt>
      <trkpt lat="43.63979" lon="1.34499">
        <ele>142.6</ele>
        <time>2022-10-26T13:46:51Z</time>
      </trkpt>
      <trkpt lat="43.63984" lon="1.34494">
        <ele>142.8</ele>
        <time>2022-10-26T13:46:52Z</time>
      </trkpt>
      <trkpt lat="43.63987" lon="1.34489">
        <ele>142.8</ele>
        <time>2022-10-26T13:46:53Z</time>
      </trkpt>
      <trkpt lat="43.63992" lon="1.34483">
        <ele>142.8</ele>
        <time>2022-10-26T13:46:54Z</time>
      </trkpt>
      <trkpt lat="43.63997" lon="1.34478">
        <ele>143</ele>
        <time>2022-10-26T13:46:55Z</time>
      </trkpt>
      <trkpt lat="43.64003" lon="1.3447">
        <ele>143</ele>
        <time>2022-10-26T13:46:56Z</time>
      </trkpt>
      <trkpt lat="43.64008" lon="1.34464">
        <ele>143</ele>
        <time>2022-10-26T13:46:57Z</time>
      </trkpt>
      <trkpt lat="43.64011" lon="1.3446">
        <ele>143</ele>
        <time>2022-10-26T13:46:58Z</time>
      </trkpt>
      <trkpt lat="43.64016" lon="1.34454">
        <ele>143</ele>
        <time>2022-10-26T13:46:59Z</time>
      </trkpt>
      <trkpt lat="43.64021" lon="1.34449">
        <ele>143.2</ele>
        <time>2022-10-26T13:47:00Z</time>
      </trkpt>
      <trkpt lat="43.64026" lon="1.34443">
        <ele>143.2</ele>
        <time>2022-10-26T13:47:01Z</time>
      </trkpt>
      <trkpt lat="43.64028" lon="1.3444">
        <ele>143.2</ele>
        <time>2022-10-26T13:47:02Z</time>
      </trkpt>
      <trkpt lat="43.64031" lon="1.34436">
        <ele>143.2</ele>
        <time>2022-10-26T13:47:03Z</time>
      </trkpt>
      <trkpt lat="43.64033" lon="1.34432">
        <ele>143.2</ele>
        <time>2022-10-26T13:47:04Z</time>
      </trkpt>
      <trkpt lat="43.64034" lon="1.34428">
        <ele>143.4</ele>
        <time>2022-10-26T13:47:05Z</time>
      </trkpt>
      <trkpt lat="43.64034" lon="1.34425">
        <ele>143.4</ele>
        <time>2022-10-26T13:47:06Z</time>
      </trkpt>
      <trkpt lat="43.64034" lon="1.34423">
        <ele>143.4</ele>
        <time>2022-10-26T13:47:07Z</time>
      </trkpt>
      <trkpt lat="43.64036" lon="1.34421">
        <ele>143.4</ele>
        <time>2022-10-26T13:47:08Z</time>
      </trkpt>
      <trkpt lat="43.64039" lon="1.34418">
        <ele>143.4</ele>
        <time>2022-10-26T13:47:09Z</time>
      </trkpt>
      <trkpt lat="43.64041" lon="1.34414">
        <ele>143.4</ele>
        <time>2022-10-26T13:47:10Z</time>
      </trkpt>
      <trkpt lat="43.64044" lon="1.34412">
        <ele>143.4</ele>
        <time>2022-10-26T13:47:11Z</time>
      </trkpt>
      <trkpt lat="43.64047" lon="1.34408">
        <ele>143.4</ele>
        <time>2022-10-26T13:47:12Z</time>
      </trkpt>
      <trkpt lat="43.64051" lon="1.34404">
        <ele>143.2</ele>
        <time>2022-10-26T13:47:13Z</time>
      </trkpt>
      <trkpt lat="43.64055" lon="1.344">
        <ele>143.2</ele>
        <time>2022-10-26T13:47:14Z</time>
      </trkpt>
      <trkpt lat="43.64058" lon="1.34397">
        <ele>143.2</ele>
        <time>2022-10-26T13:47:15Z</time>
      </trkpt>
      <trkpt lat="43.64062" lon="1.34392">
        <ele>143.2</ele>
        <time>2022-10-26T13:47:16Z</time>
      </trkpt>
      <trkpt lat="43.64066" lon="1.34388">
        <ele>143</ele>
        <time>2022-10-26T13:47:17Z</time>
      </trkpt>
      <trkpt lat="43.6407" lon="1.34382">
        <ele>143</ele>
        <time>2022-10-26T13:47:18Z</time>
      </trkpt>
      <trkpt lat="43.64073" lon="1.34378">
        <ele>143</ele>
        <time>2022-10-26T13:47:19Z</time>
      </trkpt>
      <trkpt lat="43.64078" lon="1.34372">
        <ele>143</ele>
        <time>2022-10-26T13:47:20Z</time>
      </trkpt>
      <trkpt lat="43.64081" lon="1.34368">
        <ele>143</ele>
        <time>2022-10-26T13:47:21Z</time>
      </trkpt>
      <trkpt lat="43.64086" lon="1.34363">
        <ele>143</ele>
        <time>2022-10-26T13:47:22Z</time>
      </trkpt>
      <trkpt lat="43.64091" lon="1.34357">
        <ele>143</ele>
        <time>2022-10-26T13:47:23Z</time>
      </trkpt>
      <trkpt lat="43.64096" lon="1.34352">
        <ele>143</ele>
        <time>2022-10-26T13:47:24Z</time>
      </trkpt>
      <trkpt lat="43.641" lon="1.34347">
        <ele>143.2</ele>
        <time>2022-10-26T13:47:25Z</time>
      </trkpt>
      <trkpt lat="43.64104" lon="1.34342">
        <ele>143.2</ele>
        <time>2022-10-26T13:47:26Z</time>
      </trkpt>
      <trkpt lat="43.64109" lon="1.34337">
        <ele>143.2</ele>
        <time>2022-10-26T13:47:27Z</time>
      </trkpt>
      <trkpt lat="43.64114" lon="1.3433">
        <ele>143.4</ele>
        <time>2022-10-26T13:47:28Z</time>
      </trkpt>
      <trkpt lat="43.64119" lon="1.34324">
        <ele>143.4</ele>
        <time>2022-10-26T13:47:29Z</time>
      </trkpt>
      <trkpt lat="43.64123" lon="1.3432">
        <ele>143.4</ele>
        <time>2022-10-26T13:47:30Z</time>
      </trkpt>
      <trkpt lat="43.64127" lon="1.34314">
        <ele>143.4</ele>
        <time>2022-10-26T13:47:31Z</time>
      </trkpt>
      <trkpt lat="43.64133" lon="1.34307">
        <ele>143.6</ele>
        <time>2022-10-26T13:47:32Z</time>
      </trkpt>
      <trkpt lat="43.64138" lon="1.34301">
        <ele>143.6</ele>
        <time>2022-10-26T13:47:33Z</time>
      </trkpt>
      <trkpt lat="43.64143" lon="1.34296">
        <ele>143.6</ele>
        <time>2022-10-26T13:47:34Z</time>
      </trkpt>
      <trkpt lat="43.64147" lon="1.34292">
        <ele>143.8</ele>
        <time>2022-10-26T13:47:35Z</time>
      </trkpt>
      <trkpt lat="43.64152" lon="1.34286">
        <ele>143.8</ele>
        <time>2022-10-26T13:47:36Z</time>
      </trkpt>
      <trkpt lat="43.64158" lon="1.34279">
        <ele>144</ele>
        <time>2022-10-26T13:47:37Z</time>
      </trkpt>
      <trkpt lat="43.64163" lon="1.34273">
        <ele>144</ele>
        <time>2022-10-26T13:47:38Z</time>
      </trkpt>
      <trkpt lat="43.64168" lon="1.34268">
        <ele>144</ele>
        <time>2022-10-26T13:47:39Z</time>
      </trkpt>
      <trkpt lat="43.64172" lon="1.34263">
        <ele>144.2</ele>
        <time>2022-10-26T13:47:40Z</time>
      </trkpt>
      <trkpt lat="43.64177" lon="1.34257">
        <ele>144.2</ele>
        <time>2022-10-26T13:47:41Z</time>
      </trkpt>
      <trkpt lat="43.64182" lon="1.34252">
        <ele>144.2</ele>
        <time>2022-10-26T13:47:42Z</time>
      </trkpt>
      <trkpt lat="43.64187" lon="1.34246">
        <ele>144.4</ele>
        <time>2022-10-26T13:47:43Z</time>
      </trkpt>
      <trkpt lat="43.64192" lon="1.3424">
        <ele>144.4</ele>
        <time>2022-10-26T13:47:44Z</time>
      </trkpt>
      <trkpt lat="43.64197" lon="1.34234">
        <ele>144.6</ele>
        <time>2022-10-26T13:47:45Z</time>
      </trkpt>
      <trkpt lat="43.64202" lon="1.34228">
        <ele>144.6</ele>
        <time>2022-10-26T13:47:46Z</time>
      </trkpt>
      <trkpt lat="43.64207" lon="1.34222">
        <ele>144.6</ele>
        <time>2022-10-26T13:47:47Z</time>
      </trkpt>
      <trkpt lat="43.64212" lon="1.34215">
        <ele>144.6</ele>
        <time>2022-10-26T13:47:48Z</time>
      </trkpt>
      <trkpt lat="43.64217" lon="1.34208">
        <ele>144.8</ele>
        <time>2022-10-26T13:47:49Z</time>
      </trkpt>
      <trkpt lat="43.64221" lon="1.34202">
        <ele>145</ele>
        <time>2022-10-26T13:47:50Z</time>
      </trkpt>
      <trkpt lat="43.64226" lon="1.34194">
        <ele>145</ele>
        <time>2022-10-26T13:47:51Z</time>
      </trkpt>
      <trkpt lat="43.6423" lon="1.34187">
        <ele>145.2</ele>
        <time>2022-10-26T13:47:52Z</time>
      </trkpt>
      <trkpt lat="43.64234" lon="1.34179">
        <ele>145.2</ele>
        <time>2022-10-26T13:47:53Z</time>
      </trkpt>
      <trkpt lat="43.64238" lon="1.34171">
        <ele>145.4</ele>
        <time>2022-10-26T13:47:54Z</time>
      </trkpt>
      <trkpt lat="43.64242" lon="1.34164">
        <ele>145.4</ele>
        <time>2022-10-26T13:47:55Z</time>
      </trkpt>
      <trkpt lat="43.64246" lon="1.34156">
        <ele>145.4</ele>
        <time>2022-10-26T13:47:56Z</time>
      </trkpt>
      <trkpt lat="43.6425" lon="1.34148">
        <ele>145.4</ele>
        <time>2022-10-26T13:47:57Z</time>
      </trkpt>
      <trkpt lat="43.64254" lon="1.3414">
        <ele>145.4</ele>
        <time>2022-10-26T13:47:58Z</time>
      </trkpt>
      <trkpt lat="43.64258" lon="1.34131">
        <ele>145.4</ele>
        <time>2022-10-26T13:47:59Z</time>
      </trkpt>
      <trkpt lat="43.64261" lon="1.34123">
        <ele>145.4</ele>
        <time>2022-10-26T13:48:00Z</time>
      </trkpt>
      <trkpt lat="43.64264" lon="1.34113">
        <ele>145.4</ele>
        <time>2022-10-26T13:48:01Z</time>
      </trkpt>
      <trkpt lat="43.64268" lon="1.34105">
        <ele>145.4</ele>
        <time>2022-10-26T13:48:02Z</time>
      </trkpt>
      <trkpt lat="43.64271" lon="1.34098">
        <ele>145.4</ele>
        <time>2022-10-26T13:48:03Z</time>
      </trkpt>
      <trkpt lat="43.64275" lon="1.3409">
        <ele>145.6</ele>
        <time>2022-10-26T13:48:04Z</time>
      </trkpt>
      <trkpt lat="43.6428" lon="1.34079">
        <ele>145.6</ele>
        <time>2022-10-26T13:48:05Z</time>
      </trkpt>
      <trkpt lat="43.64284" lon="1.34071">
        <ele>145.6</ele>
        <time>2022-10-26T13:48:06Z</time>
      </trkpt>
      <trkpt lat="43.64287" lon="1.34063">
        <ele>145.6</ele>
        <time>2022-10-26T13:48:07Z</time>
      </trkpt>
      <trkpt lat="43.64291" lon="1.34056">
        <ele>145.6</ele>
        <time>2022-10-26T13:48:08Z</time>
      </trkpt>
      <trkpt lat="43.64295" lon="1.34047">
        <ele>145.6</ele>
        <time>2022-10-26T13:48:09Z</time>
      </trkpt>
      <trkpt lat="43.643" lon="1.34037">
        <ele>145.6</ele>
        <time>2022-10-26T13:48:10Z</time>
      </trkpt>
      <trkpt lat="43.64304" lon="1.34028">
        <ele>145.8</ele>
        <time>2022-10-26T13:48:11Z</time>
      </trkpt>
      <trkpt lat="43.64309" lon="1.34019">
        <ele>145.8</ele>
        <time>2022-10-26T13:48:12Z</time>
      </trkpt>
      <trkpt lat="43.64312" lon="1.34013">
        <ele>145.8</ele>
        <time>2022-10-26T13:48:13Z</time>
      </trkpt>
      <trkpt lat="43.64317" lon="1.34002">
        <ele>145.8</ele>
        <time>2022-10-26T13:48:14Z</time>
      </trkpt>
      <trkpt lat="43.64321" lon="1.33994">
        <ele>145.8</ele>
        <time>2022-10-26T13:48:15Z</time>
      </trkpt>
      <trkpt lat="43.64326" lon="1.33985">
        <ele>145.8</ele>
        <time>2022-10-26T13:48:16Z</time>
      </trkpt>
      <trkpt lat="43.6433" lon="1.33978">
        <ele>145.8</ele>
        <time>2022-10-26T13:48:17Z</time>
      </trkpt>
      <trkpt lat="43.64335" lon="1.33969">
        <ele>146</ele>
        <time>2022-10-26T13:48:18Z</time>
      </trkpt>
      <trkpt lat="43.6434" lon="1.33958">
        <ele>146</ele>
        <time>2022-10-26T13:48:19Z</time>
      </trkpt>
      <trkpt lat="43.64344" lon="1.33949">
        <ele>146</ele>
        <time>2022-10-26T13:48:20Z</time>
      </trkpt>
      <trkpt lat="43.64348" lon="1.33942">
        <ele>146</ele>
        <time>2022-10-26T13:48:21Z</time>
      </trkpt>
      <trkpt lat="43.64352" lon="1.33934">
        <ele>146</ele>
        <time>2022-10-26T13:48:22Z</time>
      </trkpt>
      <trkpt lat="43.64358" lon="1.33923">
        <ele>146</ele>
        <time>2022-10-26T13:48:23Z</time>
      </trkpt>
      <trkpt lat="43.64363" lon="1.33914">
        <ele>146</ele>
        <time>2022-10-26T13:48:24Z</time>
      </trkpt>
      <trkpt lat="43.64368" lon="1.33906">
        <ele>146.2</ele>
        <time>2022-10-26T13:48:25Z</time>
      </trkpt>
      <trkpt lat="43.64372" lon="1.339">
        <ele>146.2</ele>
        <time>2022-10-26T13:48:26Z</time>
      </trkpt>
      <trkpt lat="43.64377" lon="1.33892">
        <ele>146.2</ele>
        <time>2022-10-26T13:48:27Z</time>
      </trkpt>
      <trkpt lat="43.64383" lon="1.33882">
        <ele>146.2</ele>
        <time>2022-10-26T13:48:28Z</time>
      </trkpt>
      <trkpt lat="43.64388" lon="1.33875">
        <ele>146.2</ele>
        <time>2022-10-26T13:48:29Z</time>
      </trkpt>
      <trkpt lat="43.64391" lon="1.33868">
        <ele>146.2</ele>
        <time>2022-10-26T13:48:30Z</time>
      </trkpt>
      <trkpt lat="43.64396" lon="1.33859">
        <ele>146.2</ele>
        <time>2022-10-26T13:48:31Z</time>
      </trkpt>
      <trkpt lat="43.64401" lon="1.33849">
        <ele>146.2</ele>
        <time>2022-10-26T13:48:32Z</time>
      </trkpt>
      <trkpt lat="43.64406" lon="1.33841">
        <ele>146.2</ele>
        <time>2022-10-26T13:48:33Z</time>
      </trkpt>
      <trkpt lat="43.6441" lon="1.33833">
        <ele>146.2</ele>
        <time>2022-10-26T13:48:34Z</time>
      </trkpt>
      <trkpt lat="43.64413" lon="1.33826">
        <ele>146.2</ele>
        <time>2022-10-26T13:48:35Z</time>
      </trkpt>
      <trkpt lat="43.64417" lon="1.33818">
        <ele>146.4</ele>
        <time>2022-10-26T13:48:36Z</time>
      </trkpt>
      <trkpt lat="43.64423" lon="1.33808">
        <ele>146.4</ele>
        <time>2022-10-26T13:48:37Z</time>
      </trkpt>
      <trkpt lat="43.64428" lon="1.338">
        <ele>146.4</ele>
        <time>2022-10-26T13:48:38Z</time>
      </trkpt>
      <trkpt lat="43.64431" lon="1.33794">
        <ele>146.2</ele>
        <time>2022-10-26T13:48:39Z</time>
      </trkpt>
      <trkpt lat="43.64436" lon="1.33786">
        <ele>146.2</ele>
        <time>2022-10-26T13:48:40Z</time>
      </trkpt>
      <trkpt lat="43.64442" lon="1.33777">
        <ele>146.2</ele>
        <time>2022-10-26T13:48:41Z</time>
      </trkpt>
      <trkpt lat="43.64447" lon="1.33772">
        <ele>146.2</ele>
        <time>2022-10-26T13:48:42Z</time>
      </trkpt>
      <trkpt lat="43.64454" lon="1.33765">
        <ele>146.2</ele>
        <time>2022-10-26T13:48:43Z</time>
      </trkpt>
      <trkpt lat="43.64459" lon="1.33761">
        <ele>146</ele>
        <time>2022-10-26T13:48:44Z</time>
      </trkpt>
      <trkpt lat="43.64465" lon="1.33757">
        <ele>146</ele>
        <time>2022-10-26T13:48:45Z</time>
      </trkpt>
      <trkpt lat="43.64474" lon="1.33752">
        <ele>146</ele>
        <time>2022-10-26T13:48:46Z</time>
      </trkpt>
      <trkpt lat="43.6448" lon="1.33748">
        <ele>146</ele>
        <time>2022-10-26T13:48:47Z</time>
      </trkpt>
      <trkpt lat="43.64487" lon="1.33744">
        <ele>145.8</ele>
        <time>2022-10-26T13:48:48Z</time>
      </trkpt>
      <trkpt lat="43.64493" lon="1.33741">
        <ele>145.8</ele>
        <time>2022-10-26T13:48:49Z</time>
      </trkpt>
      <trkpt lat="43.645" lon="1.33737">
        <ele>145.8</ele>
        <time>2022-10-26T13:48:50Z</time>
      </trkpt>
      <trkpt lat="43.64508" lon="1.33731">
        <ele>145.8</ele>
        <time>2022-10-26T13:48:51Z</time>
      </trkpt>
      <trkpt lat="43.64515" lon="1.33727">
        <ele>145.8</ele>
        <time>2022-10-26T13:48:52Z</time>
      </trkpt>
      <trkpt lat="43.64522" lon="1.33723">
        <ele>145.8</ele>
        <time>2022-10-26T13:48:53Z</time>
      </trkpt>
      <trkpt lat="43.64529" lon="1.3372">
        <ele>145.8</ele>
        <time>2022-10-26T13:48:54Z</time>
      </trkpt>
      <trkpt lat="43.64536" lon="1.33716">
        <ele>145.8</ele>
        <time>2022-10-26T13:48:55Z</time>
      </trkpt>
      <trkpt lat="43.64544" lon="1.33712">
        <ele>145.8</ele>
        <time>2022-10-26T13:48:56Z</time>
      </trkpt>
      <trkpt lat="43.64551" lon="1.33708">
        <ele>145.6</ele>
        <time>2022-10-26T13:48:57Z</time>
      </trkpt>
      <trkpt lat="43.64558" lon="1.33703">
        <ele>145.6</ele>
        <time>2022-10-26T13:48:58Z</time>
      </trkpt>
      <trkpt lat="43.64565" lon="1.33699">
        <ele>145.6</ele>
        <time>2022-10-26T13:48:59Z</time>
      </trkpt>
      <trkpt lat="43.64573" lon="1.33696">
        <ele>145.6</ele>
        <time>2022-10-26T13:49:00Z</time>
      </trkpt>
      <trkpt lat="43.6458" lon="1.33692">
        <ele>145.6</ele>
        <time>2022-10-26T13:49:01Z</time>
      </trkpt>
      <trkpt lat="43.64587" lon="1.33688">
        <ele>145.4</ele>
        <time>2022-10-26T13:49:02Z</time>
      </trkpt>
      <trkpt lat="43.64595" lon="1.33684">
        <ele>145.4</ele>
        <time>2022-10-26T13:49:03Z</time>
      </trkpt>
      <trkpt lat="43.64603" lon="1.3368">
        <ele>145.2</ele>
        <time>2022-10-26T13:49:04Z</time>
      </trkpt>
      <trkpt lat="43.6461" lon="1.33676">
        <ele>145.2</ele>
        <time>2022-10-26T13:49:05Z</time>
      </trkpt>
      <trkpt lat="43.64617" lon="1.33671">
        <ele>145.2</ele>
        <time>2022-10-26T13:49:06Z</time>
      </trkpt>
      <trkpt lat="43.64624" lon="1.33667">
        <ele>145.2</ele>
        <time>2022-10-26T13:49:08Z</time>
      </trkpt>
      <trkpt lat="43.64632" lon="1.33661">
        <ele>145</ele>
        <time>2022-10-26T13:49:09Z</time>
      </trkpt>
      <trkpt lat="43.64638" lon="1.33657">
        <ele>145</ele>
        <time>2022-10-26T13:49:10Z</time>
      </trkpt>
      <trkpt lat="43.64643" lon="1.33654">
        <ele>144.8</ele>
        <time>2022-10-26T13:49:11Z</time>
      </trkpt>
      <trkpt lat="43.6465" lon="1.3365">
        <ele>144.8</ele>
        <time>2022-10-26T13:49:12Z</time>
      </trkpt>
      <trkpt lat="43.64653" lon="1.33649">
        <ele>144.8</ele>
        <time>2022-10-26T13:49:13Z</time>
      </trkpt>
      <trkpt lat="43.64655" lon="1.3365">
        <ele>144.8</ele>
        <time>2022-10-26T13:49:14Z</time>
      </trkpt>
      <trkpt lat="43.64658" lon="1.33649">
        <ele>144.6</ele>
        <time>2022-10-26T13:49:15Z</time>
      </trkpt>
      <trkpt lat="43.6466" lon="1.33648">
        <ele>144.6</ele>
        <time>2022-10-26T13:49:16Z</time>
      </trkpt>
      <trkpt lat="43.64663" lon="1.33646">
        <ele>144.4</ele>
        <time>2022-10-26T13:49:17Z</time>
      </trkpt>
      <trkpt lat="43.64666" lon="1.33645">
        <ele>144.2</ele>
        <time>2022-10-26T13:49:18Z</time>
      </trkpt>
      <trkpt lat="43.64669" lon="1.33644">
        <ele>144.2</ele>
        <time>2022-10-26T13:49:19Z</time>
      </trkpt>
      <trkpt lat="43.64674" lon="1.33645">
        <ele>144.2</ele>
        <time>2022-10-26T13:49:20Z</time>
      </trkpt>
      <trkpt lat="43.64678" lon="1.33646">
        <ele>144.2</ele>
        <time>2022-10-26T13:49:21Z</time>
      </trkpt>
      <trkpt lat="43.64682" lon="1.33646">
        <ele>144</ele>
        <time>2022-10-26T13:49:22Z</time>
      </trkpt>
      <trkpt lat="43.64686" lon="1.33646">
        <ele>143.8</ele>
        <time>2022-10-26T13:49:23Z</time>
      </trkpt>
      <trkpt lat="43.64692" lon="1.33645">
        <ele>143.6</ele>
        <time>2022-10-26T13:49:24Z</time>
      </trkpt>
      <trkpt lat="43.64698" lon="1.33646">
        <ele>143.6</ele>
        <time>2022-10-26T13:49:25Z</time>
      </trkpt>
      <trkpt lat="43.64704" lon="1.33649">
        <ele>143.4</ele>
        <time>2022-10-26T13:49:26Z</time>
      </trkpt>
      <trkpt lat="43.64709" lon="1.33653">
        <ele>143.4</ele>
        <time>2022-10-26T13:49:27Z</time>
      </trkpt>
      <trkpt lat="43.64715" lon="1.33657">
        <ele>143.2</ele>
        <time>2022-10-26T13:49:28Z</time>
      </trkpt>
      <trkpt lat="43.64722" lon="1.33664">
        <ele>143</ele>
        <time>2022-10-26T13:49:29Z</time>
      </trkpt>
      <trkpt lat="43.64729" lon="1.33669">
        <ele>143</ele>
        <time>2022-10-26T13:49:30Z</time>
      </trkpt>
      <trkpt lat="43.64735" lon="1.33674">
        <ele>142.6</ele>
        <time>2022-10-26T13:49:31Z</time>
      </trkpt>
      <trkpt lat="43.64742" lon="1.3368">
        <ele>142.8</ele>
        <time>2022-10-26T13:49:32Z</time>
      </trkpt>
      <trkpt lat="43.64749" lon="1.33686">
        <ele>142.6</ele>
        <time>2022-10-26T13:49:33Z</time>
      </trkpt>
      <trkpt lat="43.64756" lon="1.33692">
        <ele>142.4</ele>
        <time>2022-10-26T13:49:34Z</time>
      </trkpt>
      <trkpt lat="43.64764" lon="1.33697">
        <ele>142.4</ele>
        <time>2022-10-26T13:49:35Z</time>
      </trkpt>
      <trkpt lat="43.64772" lon="1.33703">
        <ele>142.2</ele>
        <time>2022-10-26T13:49:36Z</time>
      </trkpt>
      <trkpt lat="43.64779" lon="1.33709">
        <ele>142</ele>
        <time>2022-10-26T13:49:37Z</time>
      </trkpt>
      <trkpt lat="43.64785" lon="1.33715">
        <ele>142</ele>
        <time>2022-10-26T13:49:38Z</time>
      </trkpt>
      <trkpt lat="43.64792" lon="1.33721">
        <ele>141.8</ele>
        <time>2022-10-26T13:49:39Z</time>
      </trkpt>
      <trkpt lat="43.64799" lon="1.33727">
        <ele>141.6</ele>
        <time>2022-10-26T13:49:40Z</time>
      </trkpt>
      <trkpt lat="43.64806" lon="1.33733">
        <ele>141.4</ele>
        <time>2022-10-26T13:49:41Z</time>
      </trkpt>
      <trkpt lat="43.64813" lon="1.33739">
        <ele>141.4</ele>
        <time>2022-10-26T13:49:42Z</time>
      </trkpt>
      <trkpt lat="43.6482" lon="1.33746">
        <ele>141</ele>
        <time>2022-10-26T13:49:43Z</time>
      </trkpt>
      <trkpt lat="43.64827" lon="1.33751">
        <ele>140.8</ele>
        <time>2022-10-26T13:49:44Z</time>
      </trkpt>
      <trkpt lat="43.64834" lon="1.33757">
        <ele>140.6</ele>
        <time>2022-10-26T13:49:45Z</time>
      </trkpt>
      <trkpt lat="43.64839" lon="1.33761">
        <ele>140.6</ele>
        <time>2022-10-26T13:49:46Z</time>
      </trkpt>
      <trkpt lat="43.64845" lon="1.33767">
        <ele>140.4</ele>
        <time>2022-10-26T13:49:47Z</time>
      </trkpt>
      <trkpt lat="43.64852" lon="1.33773">
        <ele>140.2</ele>
        <time>2022-10-26T13:49:48Z</time>
      </trkpt>
      <trkpt lat="43.64859" lon="1.33778">
        <ele>140</ele>
        <time>2022-10-26T13:49:49Z</time>
      </trkpt>
      <trkpt lat="43.64866" lon="1.33784">
        <ele>139.8</ele>
        <time>2022-10-26T13:49:50Z</time>
      </trkpt>
      <trkpt lat="43.64872" lon="1.3379">
        <ele>139.8</ele>
        <time>2022-10-26T13:49:51Z</time>
      </trkpt>
      <trkpt lat="43.64877" lon="1.33794">
        <ele>139.6</ele>
        <time>2022-10-26T13:49:52Z</time>
      </trkpt>
      <trkpt lat="43.64885" lon="1.33801">
        <ele>139.6</ele>
        <time>2022-10-26T13:49:53Z</time>
      </trkpt>
      <trkpt lat="43.64892" lon="1.33806">
        <ele>139.6</ele>
        <time>2022-10-26T13:49:54Z</time>
      </trkpt>
      <trkpt lat="43.64898" lon="1.33812">
        <ele>139.4</ele>
        <time>2022-10-26T13:49:55Z</time>
      </trkpt>
      <trkpt lat="43.64905" lon="1.33817">
        <ele>139.4</ele>
        <time>2022-10-26T13:49:56Z</time>
      </trkpt>
      <trkpt lat="43.64911" lon="1.33823">
        <ele>139.2</ele>
        <time>2022-10-26T13:49:57Z</time>
      </trkpt>
      <trkpt lat="43.64918" lon="1.33828">
        <ele>139.2</ele>
        <time>2022-10-26T13:49:58Z</time>
      </trkpt>
      <trkpt lat="43.64924" lon="1.33833">
        <ele>139</ele>
        <time>2022-10-26T13:49:59Z</time>
      </trkpt>
      <trkpt lat="43.64931" lon="1.33839">
        <ele>138.8</ele>
        <time>2022-10-26T13:50:00Z</time>
      </trkpt>
      <trkpt lat="43.64937" lon="1.33844">
        <ele>138.8</ele>
        <time>2022-10-26T13:50:01Z</time>
      </trkpt>
      <trkpt lat="43.64943" lon="1.33849">
        <ele>138.8</ele>
        <time>2022-10-26T13:50:02Z</time>
      </trkpt>
      <trkpt lat="43.64949" lon="1.33854">
        <ele>138.8</ele>
        <time>2022-10-26T13:50:03Z</time>
      </trkpt>
      <trkpt lat="43.64954" lon="1.33859">
        <ele>138.6</ele>
        <time>2022-10-26T13:50:04Z</time>
      </trkpt>
      <trkpt lat="43.64961" lon="1.33865">
        <ele>138.6</ele>
        <time>2022-10-26T13:50:05Z</time>
      </trkpt>
      <trkpt lat="43.64967" lon="1.3387">
        <ele>138.6</ele>
        <time>2022-10-26T13:50:06Z</time>
      </trkpt>
      <trkpt lat="43.64973" lon="1.33876">
        <ele>138.4</ele>
        <time>2022-10-26T13:50:07Z</time>
      </trkpt>
      <trkpt lat="43.64979" lon="1.33881">
        <ele>138.4</ele>
        <time>2022-10-26T13:50:08Z</time>
      </trkpt>
      <trkpt lat="43.64984" lon="1.33885">
        <ele>138.4</ele>
        <time>2022-10-26T13:50:09Z</time>
      </trkpt>
      <trkpt lat="43.64991" lon="1.3389">
        <ele>138.4</ele>
        <time>2022-10-26T13:50:10Z</time>
      </trkpt>
      <trkpt lat="43.64997" lon="1.33895">
        <ele>138.4</ele>
        <time>2022-10-26T13:50:11Z</time>
      </trkpt>
      <trkpt lat="43.65003" lon="1.339">
        <ele>138.4</ele>
        <time>2022-10-26T13:50:12Z</time>
      </trkpt>
      <trkpt lat="43.65009" lon="1.33905">
        <ele>138.4</ele>
        <time>2022-10-26T13:50:13Z</time>
      </trkpt>
      <trkpt lat="43.65015" lon="1.3391">
        <ele>138.4</ele>
        <time>2022-10-26T13:50:14Z</time>
      </trkpt>
      <trkpt lat="43.65021" lon="1.33915">
        <ele>138.4</ele>
        <time>2022-10-26T13:50:15Z</time>
      </trkpt>
      <trkpt lat="43.65026" lon="1.3392">
        <ele>138.4</ele>
        <time>2022-10-26T13:50:16Z</time>
      </trkpt>
      <trkpt lat="43.65032" lon="1.33925">
        <ele>138.4</ele>
        <time>2022-10-26T13:50:17Z</time>
      </trkpt>
      <trkpt lat="43.65038" lon="1.3393">
        <ele>138.4</ele>
        <time>2022-10-26T13:50:18Z</time>
      </trkpt>
      <trkpt lat="43.65044" lon="1.33935">
        <ele>138.6</ele>
        <time>2022-10-26T13:50:19Z</time>
      </trkpt>
      <trkpt lat="43.65049" lon="1.3394">
        <ele>138.6</ele>
        <time>2022-10-26T13:50:20Z</time>
      </trkpt>
      <trkpt lat="43.65054" lon="1.33946">
        <ele>138.6</ele>
        <time>2022-10-26T13:50:21Z</time>
      </trkpt>
      <trkpt lat="43.65059" lon="1.33952">
        <ele>138.8</ele>
        <time>2022-10-26T13:50:22Z</time>
      </trkpt>
      <trkpt lat="43.65063" lon="1.33959">
        <ele>138.8</ele>
        <time>2022-10-26T13:50:23Z</time>
      </trkpt>
      <trkpt lat="43.65067" lon="1.33966">
        <ele>138.8</ele>
        <time>2022-10-26T13:50:24Z</time>
      </trkpt>
      <trkpt lat="43.6507" lon="1.33974">
        <ele>138.8</ele>
        <time>2022-10-26T13:50:25Z</time>
      </trkpt>
      <trkpt lat="43.65072" lon="1.33982">
        <ele>138.8</ele>
        <time>2022-10-26T13:50:26Z</time>
      </trkpt>
      <trkpt lat="43.65073" lon="1.33991">
        <ele>138.8</ele>
        <time>2022-10-26T13:50:27Z</time>
      </trkpt>
      <trkpt lat="43.65073" lon="1.34">
        <ele>138.8</ele>
        <time>2022-10-26T13:50:28Z</time>
      </trkpt>
      <trkpt lat="43.65075" lon="1.34008">
        <ele>138.8</ele>
        <time>2022-10-26T13:50:29Z</time>
      </trkpt>
      <trkpt lat="43.65078" lon="1.34016">
        <ele>138.8</ele>
        <time>2022-10-26T13:50:30Z</time>
      </trkpt>
      <trkpt lat="43.65079" lon="1.34025">
        <ele>138.6</ele>
        <time>2022-10-26T13:50:31Z</time>
      </trkpt>
      <trkpt lat="43.65078" lon="1.34033">
        <ele>138.6</ele>
        <time>2022-10-26T13:50:32Z</time>
      </trkpt>
      <trkpt lat="43.65075" lon="1.34039">
        <ele>138.4</ele>
        <time>2022-10-26T13:50:33Z</time>
      </trkpt>
      <trkpt lat="43.65071" lon="1.34046">
        <ele>138.4</ele>
        <time>2022-10-26T13:50:34Z</time>
      </trkpt>
      <trkpt lat="43.65066" lon="1.34055">
        <ele>138.2</ele>
        <time>2022-10-26T13:50:35Z</time>
      </trkpt>
      <trkpt lat="43.65062" lon="1.34062">
        <ele>138.2</ele>
        <time>2022-10-26T13:50:36Z</time>
      </trkpt>
      <trkpt lat="43.65059" lon="1.34069">
        <ele>138.2</ele>
        <time>2022-10-26T13:50:37Z</time>
      </trkpt>
      <trkpt lat="43.65056" lon="1.34075">
        <ele>138</ele>
        <time>2022-10-26T13:50:38Z</time>
      </trkpt>
      <trkpt lat="43.65051" lon="1.34084">
        <ele>138</ele>
        <time>2022-10-26T13:50:39Z</time>
      </trkpt>
      <trkpt lat="43.65048" lon="1.34092">
        <ele>138</ele>
        <time>2022-10-26T13:50:40Z</time>
      </trkpt>
      <trkpt lat="43.65044" lon="1.341">
        <ele>138</ele>
        <time>2022-10-26T13:50:41Z</time>
      </trkpt>
      <trkpt lat="43.65042" lon="1.34106">
        <ele>138</ele>
        <time>2022-10-26T13:50:42Z</time>
      </trkpt>
      <trkpt lat="43.65039" lon="1.34114">
        <ele>137.8</ele>
        <time>2022-10-26T13:50:43Z</time>
      </trkpt>
      <trkpt lat="43.65035" lon="1.34121">
        <ele>137.8</ele>
        <time>2022-10-26T13:50:44Z</time>
      </trkpt>
      <trkpt lat="43.65031" lon="1.34129">
        <ele>137.8</ele>
        <time>2022-10-26T13:50:45Z</time>
      </trkpt>
      <trkpt lat="43.65027" lon="1.34136">
        <ele>137.8</ele>
        <time>2022-10-26T13:50:46Z</time>
      </trkpt>
      <trkpt lat="43.65022" lon="1.34143">
        <ele>137.8</ele>
        <time>2022-10-26T13:50:47Z</time>
      </trkpt>
      <trkpt lat="43.65018" lon="1.3415">
        <ele>137.8</ele>
        <time>2022-10-26T13:50:48Z</time>
      </trkpt>
      <trkpt lat="43.65013" lon="1.34156">
        <ele>137.8</ele>
        <time>2022-10-26T13:50:49Z</time>
      </trkpt>
      <trkpt lat="43.65009" lon="1.34163">
        <ele>137.6</ele>
        <time>2022-10-26T13:50:50Z</time>
      </trkpt>
      <trkpt lat="43.65005" lon="1.3417">
        <ele>137.6</ele>
        <time>2022-10-26T13:50:51Z</time>
      </trkpt>
      <trkpt lat="43.65" lon="1.34176">
        <ele>137.8</ele>
        <time>2022-10-26T13:50:52Z</time>
      </trkpt>
      <trkpt lat="43.64996" lon="1.34183">
        <ele>137.8</ele>
        <time>2022-10-26T13:50:53Z</time>
      </trkpt>
      <trkpt lat="43.64992" lon="1.3419">
        <ele>137.6</ele>
        <time>2022-10-26T13:50:54Z</time>
      </trkpt>
      <trkpt lat="43.64988" lon="1.34197">
        <ele>137.8</ele>
        <time>2022-10-26T13:50:55Z</time>
      </trkpt>
      <trkpt lat="43.64984" lon="1.34204">
        <ele>137.8</ele>
        <time>2022-10-26T13:50:56Z</time>
      </trkpt>
      <trkpt lat="43.64979" lon="1.34212">
        <ele>138</ele>
        <time>2022-10-26T13:50:57Z</time>
      </trkpt>
      <trkpt lat="43.64975" lon="1.34219">
        <ele>138</ele>
        <time>2022-10-26T13:50:58Z</time>
      </trkpt>
      <trkpt lat="43.64971" lon="1.34226">
        <ele>138</ele>
        <time>2022-10-26T13:50:59Z</time>
      </trkpt>
      <trkpt lat="43.64967" lon="1.34233">
        <ele>138</ele>
        <time>2022-10-26T13:51:00Z</time>
      </trkpt>
      <trkpt lat="43.64963" lon="1.3424">
        <ele>138</ele>
        <time>2022-10-26T13:51:01Z</time>
      </trkpt>
      <trkpt lat="43.64959" lon="1.34247">
        <ele>138</ele>
        <time>2022-10-26T13:51:02Z</time>
      </trkpt>
      <trkpt lat="43.64955" lon="1.34255">
        <ele>137.8</ele>
        <time>2022-10-26T13:51:03Z</time>
      </trkpt>
      <trkpt lat="43.64951" lon="1.34263">
        <ele>137.8</ele>
        <time>2022-10-26T13:51:04Z</time>
      </trkpt>
      <trkpt lat="43.64946" lon="1.34272">
        <ele>137.8</ele>
        <time>2022-10-26T13:51:05Z</time>
      </trkpt>
      <trkpt lat="43.64942" lon="1.34279">
        <ele>137.8</ele>
        <time>2022-10-26T13:51:06Z</time>
      </trkpt>
      <trkpt lat="43.64939" lon="1.34285">
        <ele>137.8</ele>
        <time>2022-10-26T13:51:07Z</time>
      </trkpt>
      <trkpt lat="43.64934" lon="1.34293">
        <ele>137.6</ele>
        <time>2022-10-26T13:51:08Z</time>
      </trkpt>
      <trkpt lat="43.6493" lon="1.34301">
        <ele>137.6</ele>
        <time>2022-10-26T13:51:09Z</time>
      </trkpt>
      <trkpt lat="43.64927" lon="1.34306">
        <ele>137.6</ele>
        <time>2022-10-26T13:51:10Z</time>
      </trkpt>
      <trkpt lat="43.64923" lon="1.34314">
        <ele>137.6</ele>
        <time>2022-10-26T13:51:11Z</time>
      </trkpt>
      <trkpt lat="43.64919" lon="1.34321">
        <ele>137.6</ele>
        <time>2022-10-26T13:51:12Z</time>
      </trkpt>
      <trkpt lat="43.64914" lon="1.34329">
        <ele>137.4</ele>
        <time>2022-10-26T13:51:13Z</time>
      </trkpt>
      <trkpt lat="43.6491" lon="1.34336">
        <ele>137.4</ele>
        <time>2022-10-26T13:51:14Z</time>
      </trkpt>
      <trkpt lat="43.64906" lon="1.34343">
        <ele>137.6</ele>
        <time>2022-10-26T13:51:15Z</time>
      </trkpt>
      <trkpt lat="43.64903" lon="1.34348">
        <ele>137.6</ele>
        <time>2022-10-26T13:51:16Z</time>
      </trkpt>
      <trkpt lat="43.64899" lon="1.34355">
        <ele>137.6</ele>
        <time>2022-10-26T13:51:17Z</time>
      </trkpt>
      <trkpt lat="43.64895" lon="1.34362">
        <ele>137.6</ele>
        <time>2022-10-26T13:51:18Z</time>
      </trkpt>
      <trkpt lat="43.64891" lon="1.3437">
        <ele>137.6</ele>
        <time>2022-10-26T13:51:19Z</time>
      </trkpt>
      <trkpt lat="43.64887" lon="1.34375">
        <ele>137.6</ele>
        <time>2022-10-26T13:51:20Z</time>
      </trkpt>
      <trkpt lat="43.64883" lon="1.34382">
        <ele>137.8</ele>
        <time>2022-10-26T13:51:21Z</time>
      </trkpt>
      <trkpt lat="43.64878" lon="1.3439">
        <ele>137.8</ele>
        <time>2022-10-26T13:51:22Z</time>
      </trkpt>
      <trkpt lat="43.64874" lon="1.34396">
        <ele>137.8</ele>
        <time>2022-10-26T13:51:23Z</time>
      </trkpt>
      <trkpt lat="43.64869" lon="1.34402">
        <ele>137.8</ele>
        <time>2022-10-26T13:51:24Z</time>
      </trkpt>
      <trkpt lat="43.64865" lon="1.34406">
        <ele>138</ele>
        <time>2022-10-26T13:51:25Z</time>
      </trkpt>
      <trkpt lat="43.64861" lon="1.34413">
        <ele>138</ele>
        <time>2022-10-26T13:51:26Z</time>
      </trkpt>
      <trkpt lat="43.64857" lon="1.34422">
        <ele>138</ele>
        <time>2022-10-26T13:51:27Z</time>
      </trkpt>
      <trkpt lat="43.64854" lon="1.3443">
        <ele>138</ele>
        <time>2022-10-26T13:51:28Z</time>
      </trkpt>
      <trkpt lat="43.64853" lon="1.34436">
        <ele>138</ele>
        <time>2022-10-26T13:51:29Z</time>
      </trkpt>
      <trkpt lat="43.6485" lon="1.34444">
        <ele>138</ele>
        <time>2022-10-26T13:51:30Z</time>
      </trkpt>
      <trkpt lat="43.64847" lon="1.34453">
        <ele>138</ele>
        <time>2022-10-26T13:51:31Z</time>
      </trkpt>
      <trkpt lat="43.64843" lon="1.3446">
        <ele>138</ele>
        <time>2022-10-26T13:51:32Z</time>
      </trkpt>
      <trkpt lat="43.6484" lon="1.34468">
        <ele>138</ele>
        <time>2022-10-26T13:51:33Z</time>
      </trkpt>
      <trkpt lat="43.64837" lon="1.34473">
        <ele>138</ele>
        <time>2022-10-26T13:51:34Z</time>
      </trkpt>
      <trkpt lat="43.64833" lon="1.3448">
        <ele>138</ele>
        <time>2022-10-26T13:51:35Z</time>
      </trkpt>
      <trkpt lat="43.64828" lon="1.34489">
        <ele>138</ele>
        <time>2022-10-26T13:51:36Z</time>
      </trkpt>
      <trkpt lat="43.64825" lon="1.34496">
        <ele>138</ele>
        <time>2022-10-26T13:51:37Z</time>
      </trkpt>
      <trkpt lat="43.64821" lon="1.34503">
        <ele>138</ele>
        <time>2022-10-26T13:51:38Z</time>
      </trkpt>
      <trkpt lat="43.64818" lon="1.34509">
        <ele>138</ele>
        <time>2022-10-26T13:51:39Z</time>
      </trkpt>
      <trkpt lat="43.64814" lon="1.34517">
        <ele>138</ele>
        <time>2022-10-26T13:51:40Z</time>
      </trkpt>
      <trkpt lat="43.6481" lon="1.34526">
        <ele>137.8</ele>
        <time>2022-10-26T13:51:41Z</time>
      </trkpt>
      <trkpt lat="43.64807" lon="1.34533">
        <ele>137.8</ele>
        <time>2022-10-26T13:51:42Z</time>
      </trkpt>
      <trkpt lat="43.64804" lon="1.34539">
        <ele>137.8</ele>
        <time>2022-10-26T13:51:43Z</time>
      </trkpt>
      <trkpt lat="43.648" lon="1.34547">
        <ele>137.8</ele>
        <time>2022-10-26T13:51:44Z</time>
      </trkpt>
      <trkpt lat="43.64796" lon="1.34555">
        <ele>137.8</ele>
        <time>2022-10-26T13:51:45Z</time>
      </trkpt>
      <trkpt lat="43.64792" lon="1.34563">
        <ele>137.8</ele>
        <time>2022-10-26T13:51:46Z</time>
      </trkpt>
      <trkpt lat="43.64789" lon="1.3457">
        <ele>137.8</ele>
        <time>2022-10-26T13:51:47Z</time>
      </trkpt>
      <trkpt lat="43.64786" lon="1.34576">
        <ele>137.8</ele>
        <time>2022-10-26T13:51:48Z</time>
      </trkpt>
      <trkpt lat="43.64782" lon="1.34584">
        <ele>137.6</ele>
        <time>2022-10-26T13:51:49Z</time>
      </trkpt>
      <trkpt lat="43.64778" lon="1.34592">
        <ele>137.6</ele>
        <time>2022-10-26T13:51:50Z</time>
      </trkpt>
      <trkpt lat="43.64775" lon="1.346">
        <ele>137.6</ele>
        <time>2022-10-26T13:51:51Z</time>
      </trkpt>
      <trkpt lat="43.64771" lon="1.34606">
        <ele>137.6</ele>
        <time>2022-10-26T13:51:52Z</time>
      </trkpt>
      <trkpt lat="43.64768" lon="1.34614">
        <ele>137.6</ele>
        <time>2022-10-26T13:51:53Z</time>
      </trkpt>
      <trkpt lat="43.64763" lon="1.34623">
        <ele>137.6</ele>
        <time>2022-10-26T13:51:54Z</time>
      </trkpt>
      <trkpt lat="43.64759" lon="1.3463">
        <ele>137.4</ele>
        <time>2022-10-26T13:51:55Z</time>
      </trkpt>
      <trkpt lat="43.64755" lon="1.34638">
        <ele>137.4</ele>
        <time>2022-10-26T13:51:56Z</time>
      </trkpt>
      <trkpt lat="43.64752" lon="1.34644">
        <ele>137.4</ele>
        <time>2022-10-26T13:51:57Z</time>
      </trkpt>
      <trkpt lat="43.64748" lon="1.34652">
        <ele>137.4</ele>
        <time>2022-10-26T13:51:58Z</time>
      </trkpt>
      <trkpt lat="43.64743" lon="1.34661">
        <ele>137.2</ele>
        <time>2022-10-26T13:51:59Z</time>
      </trkpt>
      <trkpt lat="43.64738" lon="1.34669">
        <ele>137.2</ele>
        <time>2022-10-26T13:52:00Z</time>
      </trkpt>
      <trkpt lat="43.64733" lon="1.34675">
        <ele>137.2</ele>
        <time>2022-10-26T13:52:01Z</time>
      </trkpt>
      <trkpt lat="43.64729" lon="1.3468">
        <ele>137.2</ele>
        <time>2022-10-26T13:52:02Z</time>
      </trkpt>
      <trkpt lat="43.64722" lon="1.34688">
        <ele>137</ele>
        <time>2022-10-26T13:52:03Z</time>
      </trkpt>
      <trkpt lat="43.64717" lon="1.34694">
        <ele>137</ele>
        <time>2022-10-26T13:52:04Z</time>
      </trkpt>
      <trkpt lat="43.64712" lon="1.347">
        <ele>137</ele>
        <time>2022-10-26T13:52:05Z</time>
      </trkpt>
      <trkpt lat="43.64708" lon="1.34706">
        <ele>136.8</ele>
        <time>2022-10-26T13:52:06Z</time>
      </trkpt>
      <trkpt lat="43.64703" lon="1.34712">
        <ele>136.8</ele>
        <time>2022-10-26T13:52:07Z</time>
      </trkpt>
      <trkpt lat="43.64698" lon="1.34721">
        <ele>136.8</ele>
        <time>2022-10-26T13:52:08Z</time>
      </trkpt>
      <trkpt lat="43.64695" lon="1.3473">
        <ele>136.6</ele>
        <time>2022-10-26T13:52:09Z</time>
      </trkpt>
      <trkpt lat="43.64692" lon="1.34738">
        <ele>136.6</ele>
        <time>2022-10-26T13:52:10Z</time>
      </trkpt>
      <trkpt lat="43.6469" lon="1.34744">
        <ele>136.6</ele>
        <time>2022-10-26T13:52:11Z</time>
      </trkpt>
      <trkpt lat="43.64686" lon="1.34754">
        <ele>136.4</ele>
        <time>2022-10-26T13:52:12Z</time>
      </trkpt>
      <trkpt lat="43.64683" lon="1.34762">
        <ele>136.4</ele>
        <time>2022-10-26T13:52:13Z</time>
      </trkpt>
      <trkpt lat="43.64681" lon="1.34769">
        <ele>136.4</ele>
        <time>2022-10-26T13:52:14Z</time>
      </trkpt>
      <trkpt lat="43.64677" lon="1.34777">
        <ele>136.6</ele>
        <time>2022-10-26T13:52:15Z</time>
      </trkpt>
      <trkpt lat="43.64674" lon="1.34785">
        <ele>136.6</ele>
        <time>2022-10-26T13:52:16Z</time>
      </trkpt>
      <trkpt lat="43.6467" lon="1.34794">
        <ele>136.6</ele>
        <time>2022-10-26T13:52:17Z</time>
      </trkpt>
      <trkpt lat="43.64667" lon="1.34802">
        <ele>136.6</ele>
        <time>2022-10-26T13:52:18Z</time>
      </trkpt>
      <trkpt lat="43.64664" lon="1.3481">
        <ele>136.6</ele>
        <time>2022-10-26T13:52:19Z</time>
      </trkpt>
      <trkpt lat="43.64661" lon="1.34816">
        <ele>136.6</ele>
        <time>2022-10-26T13:52:20Z</time>
      </trkpt>
      <trkpt lat="43.64659" lon="1.34825">
        <ele>136.6</ele>
        <time>2022-10-26T13:52:21Z</time>
      </trkpt>
      <trkpt lat="43.64656" lon="1.34833">
        <ele>136.4</ele>
        <time>2022-10-26T13:52:22Z</time>
      </trkpt>
      <trkpt lat="43.64654" lon="1.34844">
        <ele>136.4</ele>
        <time>2022-10-26T13:52:23Z</time>
      </trkpt>
      <trkpt lat="43.64652" lon="1.34851">
        <ele>136.6</ele>
        <time>2022-10-26T13:52:24Z</time>
      </trkpt>
      <trkpt lat="43.6465" lon="1.34859">
        <ele>136.6</ele>
        <time>2022-10-26T13:52:25Z</time>
      </trkpt>
      <trkpt lat="43.64647" lon="1.34869">
        <ele>136.6</ele>
        <time>2022-10-26T13:52:26Z</time>
      </trkpt>
      <trkpt lat="43.64644" lon="1.34877">
        <ele>136.6</ele>
        <time>2022-10-26T13:52:27Z</time>
      </trkpt>
      <trkpt lat="43.64641" lon="1.34885">
        <ele>136.6</ele>
        <time>2022-10-26T13:52:28Z</time>
      </trkpt>
      <trkpt lat="43.64638" lon="1.34891">
        <ele>136.6</ele>
        <time>2022-10-26T13:52:29Z</time>
      </trkpt>
      <trkpt lat="43.64635" lon="1.34898">
        <ele>136.6</ele>
        <time>2022-10-26T13:52:30Z</time>
      </trkpt>
      <trkpt lat="43.64632" lon="1.34906">
        <ele>136.6</ele>
        <time>2022-10-26T13:52:31Z</time>
      </trkpt>
      <trkpt lat="43.64627" lon="1.34916">
        <ele>136.6</ele>
        <time>2022-10-26T13:52:32Z</time>
      </trkpt>
      <trkpt lat="43.64624" lon="1.34922">
        <ele>136.6</ele>
        <time>2022-10-26T13:52:33Z</time>
      </trkpt>
      <trkpt lat="43.6462" lon="1.34929">
        <ele>136.6</ele>
        <time>2022-10-26T13:52:34Z</time>
      </trkpt>
      <trkpt lat="43.64616" lon="1.34938">
        <ele>136.6</ele>
        <time>2022-10-26T13:52:35Z</time>
      </trkpt>
      <trkpt lat="43.64612" lon="1.34945">
        <ele>136.6</ele>
        <time>2022-10-26T13:52:36Z</time>
      </trkpt>
      <trkpt lat="43.64609" lon="1.34953">
        <ele>136.6</ele>
        <time>2022-10-26T13:52:37Z</time>
      </trkpt>
      <trkpt lat="43.64606" lon="1.34959">
        <ele>136.6</ele>
        <time>2022-10-26T13:52:38Z</time>
      </trkpt>
      <trkpt lat="43.64602" lon="1.34966">
        <ele>136.6</ele>
        <time>2022-10-26T13:52:39Z</time>
      </trkpt>
      <trkpt lat="43.64597" lon="1.34975">
        <ele>136.6</ele>
        <time>2022-10-26T13:52:40Z</time>
      </trkpt>
      <trkpt lat="43.64594" lon="1.34982">
        <ele>136.6</ele>
        <time>2022-10-26T13:52:41Z</time>
      </trkpt>
      <trkpt lat="43.6459" lon="1.34989">
        <ele>136.6</ele>
        <time>2022-10-26T13:52:42Z</time>
      </trkpt>
      <trkpt lat="43.64587" lon="1.34995">
        <ele>136.6</ele>
        <time>2022-10-26T13:52:43Z</time>
      </trkpt>
      <trkpt lat="43.64583" lon="1.35002">
        <ele>136.6</ele>
        <time>2022-10-26T13:52:44Z</time>
      </trkpt>
      <trkpt lat="43.64579" lon="1.35011">
        <ele>136.8</ele>
        <time>2022-10-26T13:52:45Z</time>
      </trkpt>
      <trkpt lat="43.64576" lon="1.35018">
        <ele>136.8</ele>
        <time>2022-10-26T13:52:46Z</time>
      </trkpt>
      <trkpt lat="43.64573" lon="1.35024">
        <ele>136.8</ele>
        <time>2022-10-26T13:52:47Z</time>
      </trkpt>
      <trkpt lat="43.6457" lon="1.35031">
        <ele>136.8</ele>
        <time>2022-10-26T13:52:48Z</time>
      </trkpt>
      <trkpt lat="43.64566" lon="1.35039">
        <ele>136.8</ele>
        <time>2022-10-26T13:52:49Z</time>
      </trkpt>
      <trkpt lat="43.64564" lon="1.35046">
        <ele>136.8</ele>
        <time>2022-10-26T13:52:50Z</time>
      </trkpt>
      <trkpt lat="43.64562" lon="1.35052">
        <ele>136.8</ele>
        <time>2022-10-26T13:52:51Z</time>
      </trkpt>
      <trkpt lat="43.64561" lon="1.35056">
        <ele>136.8</ele>
        <time>2022-10-26T13:52:52Z</time>
      </trkpt>
      <trkpt lat="43.64561" lon="1.3506">
        <ele>136.8</ele>
        <time>2022-10-26T13:52:53Z</time>
      </trkpt>
      <trkpt lat="43.64561" lon="1.35064">
        <ele>136.8</ele>
        <time>2022-10-26T13:52:54Z</time>
      </trkpt>
      <trkpt lat="43.64562" lon="1.35065">
        <ele>136.8</ele>
        <time>2022-10-26T13:52:55Z</time>
      </trkpt>
      <trkpt lat="43.64564" lon="1.35065">
        <ele>136.8</ele>
        <time>2022-10-26T13:52:56Z</time>
      </trkpt>
      <trkpt lat="43.64566" lon="1.35066">
        <ele>136.8</ele>
        <time>2022-10-26T13:52:57Z</time>
      </trkpt>
      <trkpt lat="43.64569" lon="1.35066">
        <ele>136.8</ele>
        <time>2022-10-26T13:52:58Z</time>
      </trkpt>
      <trkpt lat="43.64574" lon="1.35066">
        <ele>136.8</ele>
        <time>2022-10-26T13:52:59Z</time>
      </trkpt>
      <trkpt lat="43.64578" lon="1.35066">
        <ele>136.8</ele>
        <time>2022-10-26T13:53:00Z</time>
      </trkpt>
      <trkpt lat="43.64582" lon="1.35067">
        <ele>136.8</ele>
        <time>2022-10-26T13:53:01Z</time>
      </trkpt>
      <trkpt lat="43.64586" lon="1.3507">
        <ele>136.6</ele>
        <time>2022-10-26T13:53:02Z</time>
      </trkpt>
      <trkpt lat="43.6459" lon="1.35076">
        <ele>136.6</ele>
        <time>2022-10-26T13:53:03Z</time>
      </trkpt>
      <trkpt lat="43.64594" lon="1.35083">
        <ele>136.4</ele>
        <time>2022-10-26T13:53:04Z</time>
      </trkpt>
      <trkpt lat="43.64595" lon="1.35089">
        <ele>136.4</ele>
        <time>2022-10-26T13:53:05Z</time>
      </trkpt>
      <trkpt lat="43.64596" lon="1.35097">
        <ele>136.4</ele>
        <time>2022-10-26T13:53:06Z</time>
      </trkpt>
      <trkpt lat="43.64596" lon="1.35105">
        <ele>136.2</ele>
        <time>2022-10-26T13:53:07Z</time>
      </trkpt>
      <trkpt lat="43.64594" lon="1.35113">
        <ele>136.2</ele>
        <time>2022-10-26T13:53:08Z</time>
      </trkpt>
      <trkpt lat="43.64591" lon="1.35118">
        <ele>136.2</ele>
        <time>2022-10-26T13:53:09Z</time>
      </trkpt>
      <trkpt lat="43.64587" lon="1.35124">
        <ele>136.2</ele>
        <time>2022-10-26T13:53:10Z</time>
      </trkpt>
      <trkpt lat="43.64583" lon="1.35129">
        <ele>136.2</ele>
        <time>2022-10-26T13:53:11Z</time>
      </trkpt>
      <trkpt lat="43.64579" lon="1.35134">
        <ele>136.2</ele>
        <time>2022-10-26T13:53:12Z</time>
      </trkpt>
      <trkpt lat="43.64577" lon="1.35141">
        <ele>136</ele>
        <time>2022-10-26T13:53:13Z</time>
      </trkpt>
      <trkpt lat="43.64575" lon="1.35149">
        <ele>136</ele>
        <time>2022-10-26T13:53:14Z</time>
      </trkpt>
      <trkpt lat="43.64574" lon="1.35157">
        <ele>136</ele>
        <time>2022-10-26T13:53:15Z</time>
      </trkpt>
      <trkpt lat="43.64573" lon="1.35166">
        <ele>136</ele>
        <time>2022-10-26T13:53:16Z</time>
      </trkpt>
      <trkpt lat="43.64572" lon="1.35175">
        <ele>136</ele>
        <time>2022-10-26T13:53:17Z</time>
      </trkpt>
      <trkpt lat="43.64571" lon="1.35184">
        <ele>136</ele>
        <time>2022-10-26T13:53:18Z</time>
      </trkpt>
      <trkpt lat="43.6457" lon="1.35194">
        <ele>136</ele>
        <time>2022-10-26T13:53:19Z</time>
      </trkpt>
      <trkpt lat="43.64569" lon="1.35204">
        <ele>136</ele>
        <time>2022-10-26T13:53:20Z</time>
      </trkpt>
      <trkpt lat="43.64569" lon="1.35214">
        <ele>136</ele>
        <time>2022-10-26T13:53:21Z</time>
      </trkpt>
      <trkpt lat="43.64568" lon="1.35225">
        <ele>136</ele>
        <time>2022-10-26T13:53:22Z</time>
      </trkpt>
      <trkpt lat="43.64567" lon="1.35236">
        <ele>135.8</ele>
        <time>2022-10-26T13:53:23Z</time>
      </trkpt>
      <trkpt lat="43.64566" lon="1.35247">
        <ele>135.8</ele>
        <time>2022-10-26T13:53:24Z</time>
      </trkpt>
      <trkpt lat="43.64565" lon="1.35258">
        <ele>135.6</ele>
        <time>2022-10-26T13:53:25Z</time>
      </trkpt>
      <trkpt lat="43.64564" lon="1.3527">
        <ele>135.4</ele>
        <time>2022-10-26T13:53:26Z</time>
      </trkpt>
      <trkpt lat="43.64563" lon="1.35281">
        <ele>135.4</ele>
        <time>2022-10-26T13:53:27Z</time>
      </trkpt>
      <trkpt lat="43.64562" lon="1.35292">
        <ele>135</ele>
        <time>2022-10-26T13:53:28Z</time>
      </trkpt>
      <trkpt lat="43.64561" lon="1.35303">
        <ele>134.8</ele>
        <time>2022-10-26T13:53:29Z</time>
      </trkpt>
      <trkpt lat="43.6456" lon="1.35314">
        <ele>134.4</ele>
        <time>2022-10-26T13:53:30Z</time>
      </trkpt>
      <trkpt lat="43.64558" lon="1.35325">
        <ele>133.8</ele>
        <time>2022-10-26T13:53:31Z</time>
      </trkpt>
      <trkpt lat="43.64557" lon="1.35335">
        <ele>133.6</ele>
        <time>2022-10-26T13:53:32Z</time>
      </trkpt>
      <trkpt lat="43.64557" lon="1.35345">
        <ele>133.4</ele>
        <time>2022-10-26T13:53:33Z</time>
      </trkpt>
      <trkpt lat="43.64556" lon="1.35355">
        <ele>133.2</ele>
        <time>2022-10-26T13:53:34Z</time>
      </trkpt>
      <trkpt lat="43.64555" lon="1.35365">
        <ele>133</ele>
        <time>2022-10-26T13:53:35Z</time>
      </trkpt>
      <trkpt lat="43.64554" lon="1.35377">
        <ele>133</ele>
        <time>2022-10-26T13:53:36Z</time>
      </trkpt>
      <trkpt lat="43.64553" lon="1.35387">
        <ele>132.8</ele>
        <time>2022-10-26T13:53:37Z</time>
      </trkpt>
      <trkpt lat="43.64552" lon="1.35397">
        <ele>132.8</ele>
        <time>2022-10-26T13:53:38Z</time>
      </trkpt>
      <trkpt lat="43.64551" lon="1.35407">
        <ele>132.6</ele>
        <time>2022-10-26T13:53:39Z</time>
      </trkpt>
      <trkpt lat="43.6455" lon="1.35416">
        <ele>132.6</ele>
        <time>2022-10-26T13:53:40Z</time>
      </trkpt>
      <trkpt lat="43.64549" lon="1.35424">
        <ele>132.6</ele>
        <time>2022-10-26T13:53:41Z</time>
      </trkpt>
      <trkpt lat="43.64549" lon="1.35432">
        <ele>132.4</ele>
        <time>2022-10-26T13:53:42Z</time>
      </trkpt>
      <trkpt lat="43.64548" lon="1.35442">
        <ele>132.4</ele>
        <time>2022-10-26T13:53:43Z</time>
      </trkpt>
      <trkpt lat="43.64546" lon="1.35452">
        <ele>132.2</ele>
        <time>2022-10-26T13:53:44Z</time>
      </trkpt>
      <trkpt lat="43.64545" lon="1.35461">
        <ele>132.2</ele>
        <time>2022-10-26T13:53:45Z</time>
      </trkpt>
      <trkpt lat="43.64544" lon="1.35469">
        <ele>132.2</ele>
        <time>2022-10-26T13:53:46Z</time>
      </trkpt>
      <trkpt lat="43.64543" lon="1.35478">
        <ele>132.2</ele>
        <time>2022-10-26T13:53:47Z</time>
      </trkpt>
      <trkpt lat="43.64543" lon="1.35487">
        <ele>132.2</ele>
        <time>2022-10-26T13:53:48Z</time>
      </trkpt>
      <trkpt lat="43.64542" lon="1.35497">
        <ele>132</ele>
        <time>2022-10-26T13:53:49Z</time>
      </trkpt>
      <trkpt lat="43.6454" lon="1.35506">
        <ele>132</ele>
        <time>2022-10-26T13:53:50Z</time>
      </trkpt>
      <trkpt lat="43.6454" lon="1.35515">
        <ele>131.8</ele>
        <time>2022-10-26T13:53:51Z</time>
      </trkpt>
      <trkpt lat="43.64538" lon="1.35524">
        <ele>131.8</ele>
        <time>2022-10-26T13:53:52Z</time>
      </trkpt>
      <trkpt lat="43.64537" lon="1.35533">
        <ele>131.8</ele>
        <time>2022-10-26T13:53:53Z</time>
      </trkpt>
      <trkpt lat="43.64535" lon="1.35542">
        <ele>131.6</ele>
        <time>2022-10-26T13:53:54Z</time>
      </trkpt>
      <trkpt lat="43.64534" lon="1.35552">
        <ele>131.6</ele>
        <time>2022-10-26T13:53:55Z</time>
      </trkpt>
      <trkpt lat="43.64533" lon="1.35561">
        <ele>131.6</ele>
        <time>2022-10-26T13:53:56Z</time>
      </trkpt>
      <trkpt lat="43.64531" lon="1.3557">
        <ele>131.4</ele>
        <time>2022-10-26T13:53:57Z</time>
      </trkpt>
      <trkpt lat="43.6453" lon="1.35579">
        <ele>131.4</ele>
        <time>2022-10-26T13:53:58Z</time>
      </trkpt>
      <trkpt lat="43.64528" lon="1.35588">
        <ele>131.4</ele>
        <time>2022-10-26T13:53:59Z</time>
      </trkpt>
      <trkpt lat="43.64527" lon="1.35597">
        <ele>131.4</ele>
        <time>2022-10-26T13:54:00Z</time>
      </trkpt>
      <trkpt lat="43.64525" lon="1.35605">
        <ele>131.4</ele>
        <time>2022-10-26T13:54:01Z</time>
      </trkpt>
      <trkpt lat="43.64523" lon="1.35614">
        <ele>131.4</ele>
        <time>2022-10-26T13:54:02Z</time>
      </trkpt>
      <trkpt lat="43.64521" lon="1.35622">
        <ele>131.4</ele>
        <time>2022-10-26T13:54:03Z</time>
      </trkpt>
      <trkpt lat="43.6452" lon="1.35631">
        <ele>131.4</ele>
        <time>2022-10-26T13:54:04Z</time>
      </trkpt>
      <trkpt lat="43.64518" lon="1.3564">
        <ele>131.4</ele>
        <time>2022-10-26T13:54:05Z</time>
      </trkpt>
      <trkpt lat="43.64516" lon="1.35648">
        <ele>131.2</ele>
        <time>2022-10-26T13:54:06Z</time>
      </trkpt>
      <trkpt lat="43.64514" lon="1.35658">
        <ele>131.2</ele>
        <time>2022-10-26T13:54:07Z</time>
      </trkpt>
      <trkpt lat="43.64513" lon="1.35665">
        <ele>131.2</ele>
        <time>2022-10-26T13:54:08Z</time>
      </trkpt>
      <trkpt lat="43.64511" lon="1.35673">
        <ele>131.2</ele>
        <time>2022-10-26T13:54:09Z</time>
      </trkpt>
      <trkpt lat="43.6451" lon="1.35682">
        <ele>131.2</ele>
        <time>2022-10-26T13:54:10Z</time>
      </trkpt>
      <trkpt lat="43.64508" lon="1.3569">
        <ele>131.2</ele>
        <time>2022-10-26T13:54:11Z</time>
      </trkpt>
      <trkpt lat="43.64506" lon="1.35701">
        <ele>131.2</ele>
        <time>2022-10-26T13:54:12Z</time>
      </trkpt>
      <trkpt lat="43.64504" lon="1.35709">
        <ele>131.2</ele>
        <time>2022-10-26T13:54:13Z</time>
      </trkpt>
      <trkpt lat="43.64503" lon="1.35716">
        <ele>131.2</ele>
        <time>2022-10-26T13:54:14Z</time>
      </trkpt>
      <trkpt lat="43.64502" lon="1.35724">
        <ele>131.2</ele>
        <time>2022-10-26T13:54:15Z</time>
      </trkpt>
      <trkpt lat="43.645" lon="1.35733">
        <ele>131.2</ele>
        <time>2022-10-26T13:54:16Z</time>
      </trkpt>
      <trkpt lat="43.64499" lon="1.35743">
        <ele>131.2</ele>
        <time>2022-10-26T13:54:17Z</time>
      </trkpt>
      <trkpt lat="43.64497" lon="1.35752">
        <ele>131.2</ele>
        <time>2022-10-26T13:54:18Z</time>
      </trkpt>
      <trkpt lat="43.64496" lon="1.35759">
        <ele>131.2</ele>
        <time>2022-10-26T13:54:19Z</time>
      </trkpt>
      <trkpt lat="43.64494" lon="1.35769">
        <ele>131.2</ele>
        <time>2022-10-26T13:54:20Z</time>
      </trkpt>
      <trkpt lat="43.64492" lon="1.35778">
        <ele>131.2</ele>
        <time>2022-10-26T13:54:21Z</time>
      </trkpt>
      <trkpt lat="43.6449" lon="1.35786">
        <ele>131.4</ele>
        <time>2022-10-26T13:54:22Z</time>
      </trkpt>
      <trkpt lat="43.64489" lon="1.35794">
        <ele>131.4</ele>
        <time>2022-10-26T13:54:23Z</time>
      </trkpt>
      <trkpt lat="43.64487" lon="1.35802">
        <ele>131.4</ele>
        <time>2022-10-26T13:54:24Z</time>
      </trkpt>
      <trkpt lat="43.64485" lon="1.3581">
        <ele>131.6</ele>
        <time>2022-10-26T13:54:25Z</time>
      </trkpt>
      <trkpt lat="43.64485" lon="1.3582">
        <ele>131.6</ele>
        <time>2022-10-26T13:54:26Z</time>
      </trkpt>
      <trkpt lat="43.64476" lon="1.35851">
        <ele>131.8</ele>
        <time>2022-10-26T13:54:31Z</time>
      </trkpt>
      <trkpt lat="43.64471" lon="1.35858">
        <ele>131.8</ele>
        <time>2022-10-26T13:54:32Z</time>
      </trkpt>
      <trkpt lat="43.6447" lon="1.35866">
        <ele>132</ele>
        <time>2022-10-26T13:54:33Z</time>
      </trkpt>
      <trkpt lat="43.64469" lon="1.35873">
        <ele>132</ele>
        <time>2022-10-26T13:54:34Z</time>
      </trkpt>
      <trkpt lat="43.64468" lon="1.35881">
        <ele>132</ele>
        <time>2022-10-26T13:54:35Z</time>
      </trkpt>
      <trkpt lat="43.64467" lon="1.35889">
        <ele>132</ele>
        <time>2022-10-26T13:54:36Z</time>
      </trkpt>
      <trkpt lat="43.64466" lon="1.35896">
        <ele>132</ele>
        <time>2022-10-26T13:54:37Z</time>
      </trkpt>
      <trkpt lat="43.64465" lon="1.35904">
        <ele>132</ele>
        <time>2022-10-26T13:54:38Z</time>
      </trkpt>
      <trkpt lat="43.64464" lon="1.35913">
        <ele>132</ele>
        <time>2022-10-26T13:54:39Z</time>
      </trkpt>
      <trkpt lat="43.64463" lon="1.35918">
        <ele>132</ele>
        <time>2022-10-26T13:54:40Z</time>
      </trkpt>
      <trkpt lat="43.64462" lon="1.35927">
        <ele>132</ele>
        <time>2022-10-26T13:54:41Z</time>
      </trkpt>
      <trkpt lat="43.64461" lon="1.35932">
        <ele>132</ele>
        <time>2022-10-26T13:54:42Z</time>
      </trkpt>
      <trkpt lat="43.6446" lon="1.35939">
        <ele>132</ele>
        <time>2022-10-26T13:54:43Z</time>
      </trkpt>
      <trkpt lat="43.64459" lon="1.35947">
        <ele>132</ele>
        <time>2022-10-26T13:54:44Z</time>
      </trkpt>
      <trkpt lat="43.64457" lon="1.35954">
        <ele>132</ele>
        <time>2022-10-26T13:54:45Z</time>
      </trkpt>
      <trkpt lat="43.64456" lon="1.35959">
        <ele>132</ele>
        <time>2022-10-26T13:54:46Z</time>
      </trkpt>
      <trkpt lat="43.64455" lon="1.35965">
        <ele>132.2</ele>
        <time>2022-10-26T13:54:47Z</time>
      </trkpt>
      <trkpt lat="43.64454" lon="1.35971">
        <ele>132.2</ele>
        <time>2022-10-26T13:54:48Z</time>
      </trkpt>
      <trkpt lat="43.64453" lon="1.35978">
        <ele>132.4</ele>
        <time>2022-10-26T13:54:49Z</time>
      </trkpt>
      <trkpt lat="43.64452" lon="1.35985">
        <ele>132.4</ele>
        <time>2022-10-26T13:54:50Z</time>
      </trkpt>
      <trkpt lat="43.64452" lon="1.3599">
        <ele>132.6</ele>
        <time>2022-10-26T13:54:51Z</time>
      </trkpt>
      <trkpt lat="43.64451" lon="1.35996">
        <ele>132.6</ele>
        <time>2022-10-26T13:54:52Z</time>
      </trkpt>
      <trkpt lat="43.6445" lon="1.36003">
        <ele>132.8</ele>
        <time>2022-10-26T13:54:53Z</time>
      </trkpt>
      <trkpt lat="43.64449" lon="1.3601">
        <ele>133</ele>
        <time>2022-10-26T13:54:54Z</time>
      </trkpt>
      <trkpt lat="43.64449" lon="1.36015">
        <ele>133.2</ele>
        <time>2022-10-26T13:54:55Z</time>
      </trkpt>
      <trkpt lat="43.64448" lon="1.36021">
        <ele>133.6</ele>
        <time>2022-10-26T13:54:56Z</time>
      </trkpt>
      <trkpt lat="43.64447" lon="1.36027">
        <ele>133.6</ele>
        <time>2022-10-26T13:54:57Z</time>
      </trkpt>
      <trkpt lat="43.64446" lon="1.36035">
        <ele>133.6</ele>
        <time>2022-10-26T13:54:58Z</time>
      </trkpt>
      <trkpt lat="43.64446" lon="1.36042">
        <ele>133.8</ele>
        <time>2022-10-26T13:54:59Z</time>
      </trkpt>
      <trkpt lat="43.64445" lon="1.36047">
        <ele>134</ele>
        <time>2022-10-26T13:55:00Z</time>
      </trkpt>
      <trkpt lat="43.64444" lon="1.36054">
        <ele>134</ele>
        <time>2022-10-26T13:55:01Z</time>
      </trkpt>
      <trkpt lat="43.64443" lon="1.3606">
        <ele>134.2</ele>
        <time>2022-10-26T13:55:02Z</time>
      </trkpt>
      <trkpt lat="43.64443" lon="1.36067">
        <ele>134.4</ele>
        <time>2022-10-26T13:55:03Z</time>
      </trkpt>
      <trkpt lat="43.64443" lon="1.36074">
        <ele>134.4</ele>
        <time>2022-10-26T13:55:04Z</time>
      </trkpt>
      <trkpt lat="43.64443" lon="1.3608">
        <ele>134.4</ele>
        <time>2022-10-26T13:55:05Z</time>
      </trkpt>
      <trkpt lat="43.64443" lon="1.36086">
        <ele>134.4</ele>
        <time>2022-10-26T13:55:06Z</time>
      </trkpt>
      <trkpt lat="43.64443" lon="1.36095">
        <ele>134.6</ele>
        <time>2022-10-26T13:55:07Z</time>
      </trkpt>
      <trkpt lat="43.64443" lon="1.361">
        <ele>134.6</ele>
        <time>2022-10-26T13:55:08Z</time>
      </trkpt>
      <trkpt lat="43.64443" lon="1.36107">
        <ele>134.8</ele>
        <time>2022-10-26T13:55:09Z</time>
      </trkpt>
      <trkpt lat="43.64443" lon="1.36114">
        <ele>134.8</ele>
        <time>2022-10-26T13:55:10Z</time>
      </trkpt>
      <trkpt lat="43.64443" lon="1.3612">
        <ele>135</ele>
        <time>2022-10-26T13:55:11Z</time>
      </trkpt>
      <trkpt lat="43.64443" lon="1.36127">
        <ele>135</ele>
        <time>2022-10-26T13:55:12Z</time>
      </trkpt>
      <trkpt lat="43.64443" lon="1.36135">
        <ele>135.2</ele>
        <time>2022-10-26T13:55:13Z</time>
      </trkpt>
      <trkpt lat="43.64444" lon="1.36142">
        <ele>135.4</ele>
        <time>2022-10-26T13:55:14Z</time>
      </trkpt>
      <trkpt lat="43.64444" lon="1.36147">
        <ele>135.4</ele>
        <time>2022-10-26T13:55:15Z</time>
      </trkpt>
      <trkpt lat="43.64445" lon="1.36154">
        <ele>135.6</ele>
        <time>2022-10-26T13:55:16Z</time>
      </trkpt>
      <trkpt lat="43.64446" lon="1.36161">
        <ele>135.6</ele>
        <time>2022-10-26T13:55:17Z</time>
      </trkpt>
      <trkpt lat="43.64447" lon="1.36169">
        <ele>135.6</ele>
        <time>2022-10-26T13:55:18Z</time>
      </trkpt>
      <trkpt lat="43.64448" lon="1.36174">
        <ele>135.8</ele>
        <time>2022-10-26T13:55:19Z</time>
      </trkpt>
      <trkpt lat="43.6445" lon="1.36181">
        <ele>135.8</ele>
        <time>2022-10-26T13:55:20Z</time>
      </trkpt>
      <trkpt lat="43.64451" lon="1.36189">
        <ele>136</ele>
        <time>2022-10-26T13:55:21Z</time>
      </trkpt>
      <trkpt lat="43.64454" lon="1.36195">
        <ele>136</ele>
        <time>2022-10-26T13:55:22Z</time>
      </trkpt>
      <trkpt lat="43.64456" lon="1.36198">
        <ele>136</ele>
        <time>2022-10-26T13:55:23Z</time>
      </trkpt>
      <trkpt lat="43.6446" lon="1.36203">
        <ele>136</ele>
        <time>2022-10-26T13:55:24Z</time>
      </trkpt>
      <trkpt lat="43.64464" lon="1.36206">
        <ele>136</ele>
        <time>2022-10-26T13:55:25Z</time>
      </trkpt>
      <trkpt lat="43.64468" lon="1.36211">
        <ele>136</ele>
        <time>2022-10-26T13:55:26Z</time>
      </trkpt>
      <trkpt lat="43.64472" lon="1.36216">
        <ele>136</ele>
        <time>2022-10-26T13:55:27Z</time>
      </trkpt>
      <trkpt lat="43.64475" lon="1.3622">
        <ele>136.2</ele>
        <time>2022-10-26T13:55:28Z</time>
      </trkpt>
      <trkpt lat="43.64479" lon="1.36224">
        <ele>136.4</ele>
        <time>2022-10-26T13:55:29Z</time>
      </trkpt>
      <trkpt lat="43.64482" lon="1.36229">
        <ele>136.4</ele>
        <time>2022-10-26T13:55:30Z</time>
      </trkpt>
      <trkpt lat="43.64484" lon="1.36235">
        <ele>136.6</ele>
        <time>2022-10-26T13:55:31Z</time>
      </trkpt>
      <trkpt lat="43.64486" lon="1.36237">
        <ele>136.6</ele>
        <time>2022-10-26T13:55:32Z</time>
      </trkpt>
      <trkpt lat="43.64488" lon="1.36238">
        <ele>136.6</ele>
        <time>2022-10-26T13:55:33Z</time>
      </trkpt>
      <trkpt lat="43.6449" lon="1.36241">
        <ele>136.6</ele>
        <time>2022-10-26T13:55:34Z</time>
      </trkpt>
      <trkpt lat="43.64492" lon="1.36247">
        <ele>136.6</ele>
        <time>2022-10-26T13:55:35Z</time>
      </trkpt>
      <trkpt lat="43.64492" lon="1.36253">
        <ele>136.8</ele>
        <time>2022-10-26T13:55:36Z</time>
      </trkpt>
      <trkpt lat="43.64493" lon="1.36257">
        <ele>136.8</ele>
        <time>2022-10-26T13:55:37Z</time>
      </trkpt>
      <trkpt lat="43.64494" lon="1.36264">
        <ele>136.8</ele>
        <time>2022-10-26T13:55:38Z</time>
      </trkpt>
      <trkpt lat="43.64495" lon="1.36271">
        <ele>136.8</ele>
        <time>2022-10-26T13:55:39Z</time>
      </trkpt>
      <trkpt lat="43.64496" lon="1.36279">
        <ele>136.8</ele>
        <time>2022-10-26T13:55:40Z</time>
      </trkpt>
      <trkpt lat="43.64497" lon="1.36286">
        <ele>136.6</ele>
        <time>2022-10-26T13:55:41Z</time>
      </trkpt>
      <trkpt lat="43.64498" lon="1.36293">
        <ele>136.6</ele>
        <time>2022-10-26T13:55:42Z</time>
      </trkpt>
      <trkpt lat="43.64499" lon="1.363">
        <ele>136.6</ele>
        <time>2022-10-26T13:55:43Z</time>
      </trkpt>
      <trkpt lat="43.64501" lon="1.36309">
        <ele>136.6</ele>
        <time>2022-10-26T13:55:44Z</time>
      </trkpt>
      <trkpt lat="43.64502" lon="1.36317">
        <ele>136.4</ele>
        <time>2022-10-26T13:55:45Z</time>
      </trkpt>
      <trkpt lat="43.64504" lon="1.36325">
        <ele>136.4</ele>
        <time>2022-10-26T13:55:46Z</time>
      </trkpt>
      <trkpt lat="43.64505" lon="1.36333">
        <ele>136.2</ele>
        <time>2022-10-26T13:55:47Z</time>
      </trkpt>
      <trkpt lat="43.64507" lon="1.36342">
        <ele>136.2</ele>
        <time>2022-10-26T13:55:48Z</time>
      </trkpt>
      <trkpt lat="43.64509" lon="1.36352">
        <ele>136.2</ele>
        <time>2022-10-26T13:55:49Z</time>
      </trkpt>
      <trkpt lat="43.6451" lon="1.36359">
        <ele>136</ele>
        <time>2022-10-26T13:55:50Z</time>
      </trkpt>
      <trkpt lat="43.64512" lon="1.36369">
        <ele>136</ele>
        <time>2022-10-26T13:55:51Z</time>
      </trkpt>
      <trkpt lat="43.64513" lon="1.36376">
        <ele>136</ele>
        <time>2022-10-26T13:55:52Z</time>
      </trkpt>
      <trkpt lat="43.64515" lon="1.36384">
        <ele>136</ele>
        <time>2022-10-26T13:55:53Z</time>
      </trkpt>
      <trkpt lat="43.64517" lon="1.36394">
        <ele>135.8</ele>
        <time>2022-10-26T13:55:54Z</time>
      </trkpt>
      <trkpt lat="43.6452" lon="1.36403">
        <ele>135.8</ele>
        <time>2022-10-26T13:55:55Z</time>
      </trkpt>
      <trkpt lat="43.64523" lon="1.36409">
        <ele>135.8</ele>
        <time>2022-10-26T13:55:56Z</time>
      </trkpt>
      <trkpt lat="43.64526" lon="1.36416">
        <ele>135.8</ele>
        <time>2022-10-26T13:55:57Z</time>
      </trkpt>
      <trkpt lat="43.64529" lon="1.36424">
        <ele>135.8</ele>
        <time>2022-10-26T13:55:58Z</time>
      </trkpt>
      <trkpt lat="43.64532" lon="1.36432">
        <ele>135.6</ele>
        <time>2022-10-26T13:55:59Z</time>
      </trkpt>
      <trkpt lat="43.64536" lon="1.36441">
        <ele>135.8</ele>
        <time>2022-10-26T13:56:00Z</time>
      </trkpt>
      <trkpt lat="43.64538" lon="1.36447">
        <ele>135.8</ele>
        <time>2022-10-26T13:56:01Z</time>
      </trkpt>
      <trkpt lat="43.64542" lon="1.36453">
        <ele>135.8</ele>
        <time>2022-10-26T13:56:02Z</time>
      </trkpt>
      <trkpt lat="43.64549" lon="1.36459">
        <ele>135.8</ele>
        <time>2022-10-26T13:56:03Z</time>
      </trkpt>
      <trkpt lat="43.64554" lon="1.36463">
        <ele>135.8</ele>
        <time>2022-10-26T13:56:04Z</time>
      </trkpt>
      <trkpt lat="43.64559" lon="1.36465">
        <ele>135.8</ele>
        <time>2022-10-26T13:56:05Z</time>
      </trkpt>
      <trkpt lat="43.64565" lon="1.36466">
        <ele>135.8</ele>
        <time>2022-10-26T13:56:06Z</time>
      </trkpt>
      <trkpt lat="43.64572" lon="1.36466">
        <ele>135.8</ele>
        <time>2022-10-26T13:56:07Z</time>
      </trkpt>
      <trkpt lat="43.6458" lon="1.36464">
        <ele>135.8</ele>
        <time>2022-10-26T13:56:08Z</time>
      </trkpt>
      <trkpt lat="43.64587" lon="1.36463">
        <ele>136</ele>
        <time>2022-10-26T13:56:09Z</time>
      </trkpt>
      <trkpt lat="43.64594" lon="1.36462">
        <ele>136</ele>
        <time>2022-10-26T13:56:10Z</time>
      </trkpt>
      <trkpt lat="43.64599" lon="1.36461">
        <ele>136</ele>
        <time>2022-10-26T13:56:11Z</time>
      </trkpt>
      <trkpt lat="43.64606" lon="1.3646">
        <ele>136</ele>
        <time>2022-10-26T13:56:12Z</time>
      </trkpt>
      <trkpt lat="43.64615" lon="1.36459">
        <ele>135.8</ele>
        <time>2022-10-26T13:56:13Z</time>
      </trkpt>
      <trkpt lat="43.64621" lon="1.36459">
        <ele>135.8</ele>
        <time>2022-10-26T13:56:14Z</time>
      </trkpt>
      <trkpt lat="43.64627" lon="1.36459">
        <ele>135.8</ele>
        <time>2022-10-26T13:56:15Z</time>
      </trkpt>
      <trkpt lat="43.64635" lon="1.3646">
        <ele>135.6</ele>
        <time>2022-10-26T13:56:16Z</time>
      </trkpt>
      <trkpt lat="43.64642" lon="1.36461">
        <ele>135.6</ele>
        <time>2022-10-26T13:56:17Z</time>
      </trkpt>
      <trkpt lat="43.6465" lon="1.36464">
        <ele>135.6</ele>
        <time>2022-10-26T13:56:18Z</time>
      </trkpt>
      <trkpt lat="43.64658" lon="1.36465">
        <ele>135.4</ele>
        <time>2022-10-26T13:56:19Z</time>
      </trkpt>
      <trkpt lat="43.64663" lon="1.36466">
        <ele>135.4</ele>
        <time>2022-10-26T13:56:20Z</time>
      </trkpt>
      <trkpt lat="43.64671" lon="1.36467">
        <ele>135.2</ele>
        <time>2022-10-26T13:56:21Z</time>
      </trkpt>
      <trkpt lat="43.64678" lon="1.36468">
        <ele>135.2</ele>
        <time>2022-10-26T13:56:22Z</time>
      </trkpt>
      <trkpt lat="43.64686" lon="1.3647">
        <ele>135.2</ele>
        <time>2022-10-26T13:56:23Z</time>
      </trkpt>
      <trkpt lat="43.64692" lon="1.36472">
        <ele>135.2</ele>
        <time>2022-10-26T13:56:24Z</time>
      </trkpt>
      <trkpt lat="43.64699" lon="1.36473">
        <ele>135</ele>
        <time>2022-10-26T13:56:25Z</time>
      </trkpt>
      <trkpt lat="43.64708" lon="1.36475">
        <ele>135</ele>
        <time>2022-10-26T13:56:26Z</time>
      </trkpt>
      <trkpt lat="43.64714" lon="1.36476">
        <ele>135</ele>
        <time>2022-10-26T13:56:27Z</time>
      </trkpt>
      <trkpt lat="43.64721" lon="1.36478">
        <ele>135</ele>
        <time>2022-10-26T13:56:28Z</time>
      </trkpt>
      <trkpt lat="43.64728" lon="1.36479">
        <ele>135</ele>
        <time>2022-10-26T13:56:29Z</time>
      </trkpt>
      <trkpt lat="43.64735" lon="1.36481">
        <ele>134.8</ele>
        <time>2022-10-26T13:56:30Z</time>
      </trkpt>
      <trkpt lat="43.64744" lon="1.36483">
        <ele>134.8</ele>
        <time>2022-10-26T13:56:31Z</time>
      </trkpt>
      <trkpt lat="43.6475" lon="1.36484">
        <ele>134.8</ele>
        <time>2022-10-26T13:56:32Z</time>
      </trkpt>
      <trkpt lat="43.64758" lon="1.36485">
        <ele>134.8</ele>
        <time>2022-10-26T13:56:33Z</time>
      </trkpt>
      <trkpt lat="43.64764" lon="1.36485">
        <ele>134.8</ele>
        <time>2022-10-26T13:56:34Z</time>
      </trkpt>
      <trkpt lat="43.64772" lon="1.36484">
        <ele>134.6</ele>
        <time>2022-10-26T13:56:35Z</time>
      </trkpt>
      <trkpt lat="43.64779" lon="1.36483">
        <ele>134.6</ele>
        <time>2022-10-26T13:56:36Z</time>
      </trkpt>
      <trkpt lat="43.64788" lon="1.36482">
        <ele>134.6</ele>
        <time>2022-10-26T13:56:37Z</time>
      </trkpt>
      <trkpt lat="43.64793" lon="1.36482">
        <ele>134.6</ele>
        <time>2022-10-26T13:56:38Z</time>
      </trkpt>
      <trkpt lat="43.64801" lon="1.36481">
        <ele>134.6</ele>
        <time>2022-10-26T13:56:39Z</time>
      </trkpt>
      <trkpt lat="43.64809" lon="1.3648">
        <ele>134.6</ele>
        <time>2022-10-26T13:56:40Z</time>
      </trkpt>
      <trkpt lat="43.64815" lon="1.36479">
        <ele>134.6</ele>
        <time>2022-10-26T13:56:41Z</time>
      </trkpt>
      <trkpt lat="43.64824" lon="1.36478">
        <ele>134.6</ele>
        <time>2022-10-26T13:56:42Z</time>
      </trkpt>
      <trkpt lat="43.6483" lon="1.36477">
        <ele>134.6</ele>
        <time>2022-10-26T13:56:43Z</time>
      </trkpt>
      <trkpt lat="43.64837" lon="1.36476">
        <ele>134.6</ele>
        <time>2022-10-26T13:56:44Z</time>
      </trkpt>
      <trkpt lat="43.64846" lon="1.36475">
        <ele>134.6</ele>
        <time>2022-10-26T13:56:45Z</time>
      </trkpt>
      <trkpt lat="43.64853" lon="1.36473">
        <ele>134.6</ele>
        <time>2022-10-26T13:56:46Z</time>
      </trkpt>
      <trkpt lat="43.64859" lon="1.36471">
        <ele>134.6</ele>
        <time>2022-10-26T13:56:47Z</time>
      </trkpt>
      <trkpt lat="43.64866" lon="1.36468">
        <ele>134.6</ele>
        <time>2022-10-26T13:56:48Z</time>
      </trkpt>
      <trkpt lat="43.64873" lon="1.36465">
        <ele>134.6</ele>
        <time>2022-10-26T13:56:49Z</time>
      </trkpt>
      <trkpt lat="43.6488" lon="1.3646">
        <ele>134.6</ele>
        <time>2022-10-26T13:56:50Z</time>
      </trkpt>
      <trkpt lat="43.64889" lon="1.36456">
        <ele>134.6</ele>
        <time>2022-10-26T13:56:51Z</time>
      </trkpt>
      <trkpt lat="43.64895" lon="1.36452">
        <ele>134.6</ele>
        <time>2022-10-26T13:56:52Z</time>
      </trkpt>
      <trkpt lat="43.64901" lon="1.3645">
        <ele>134.8</ele>
        <time>2022-10-26T13:56:53Z</time>
      </trkpt>
      <trkpt lat="43.64909" lon="1.36445">
        <ele>134.8</ele>
        <time>2022-10-26T13:56:54Z</time>
      </trkpt>
      <trkpt lat="43.64916" lon="1.36442">
        <ele>134.8</ele>
        <time>2022-10-26T13:56:55Z</time>
      </trkpt>
      <trkpt lat="43.64923" lon="1.36438">
        <ele>134.8</ele>
        <time>2022-10-26T13:56:56Z</time>
      </trkpt>
      <trkpt lat="43.64929" lon="1.36435">
        <ele>134.8</ele>
        <time>2022-10-26T13:56:57Z</time>
      </trkpt>
      <trkpt lat="43.64936" lon="1.36431">
        <ele>134.8</ele>
        <time>2022-10-26T13:56:58Z</time>
      </trkpt>
      <trkpt lat="43.64943" lon="1.36427">
        <ele>134.8</ele>
        <time>2022-10-26T13:56:59Z</time>
      </trkpt>
      <trkpt lat="43.6495" lon="1.36423">
        <ele>134.8</ele>
        <time>2022-10-26T13:57:00Z</time>
      </trkpt>
      <trkpt lat="43.64959" lon="1.36418">
        <ele>134.8</ele>
        <time>2022-10-26T13:57:01Z</time>
      </trkpt>
      <trkpt lat="43.64965" lon="1.36415">
        <ele>134.8</ele>
        <time>2022-10-26T13:57:02Z</time>
      </trkpt>
      <trkpt lat="43.64972" lon="1.36411">
        <ele>134.8</ele>
        <time>2022-10-26T13:57:03Z</time>
      </trkpt>
      <trkpt lat="43.64979" lon="1.36408">
        <ele>134.8</ele>
        <time>2022-10-26T13:57:04Z</time>
      </trkpt>
      <trkpt lat="43.64988" lon="1.36405">
        <ele>134.8</ele>
        <time>2022-10-26T13:57:05Z</time>
      </trkpt>
      <trkpt lat="43.64994" lon="1.36404">
        <ele>134.8</ele>
        <time>2022-10-26T13:57:06Z</time>
      </trkpt>
      <trkpt lat="43.65001" lon="1.36405">
        <ele>134.8</ele>
        <time>2022-10-26T13:57:07Z</time>
      </trkpt>
      <trkpt lat="43.65009" lon="1.36406">
        <ele>134.6</ele>
        <time>2022-10-26T13:57:08Z</time>
      </trkpt>
      <trkpt lat="43.65015" lon="1.36407">
        <ele>134.6</ele>
        <time>2022-10-26T13:57:09Z</time>
      </trkpt>
      <trkpt lat="43.65022" lon="1.36409">
        <ele>134.6</ele>
        <time>2022-10-26T13:57:10Z</time>
      </trkpt>
      <trkpt lat="43.65029" lon="1.3641">
        <ele>134.6</ele>
        <time>2022-10-26T13:57:11Z</time>
      </trkpt>
      <trkpt lat="43.65035" lon="1.36412">
        <ele>134.4</ele>
        <time>2022-10-26T13:57:12Z</time>
      </trkpt>
      <trkpt lat="43.65042" lon="1.36413">
        <ele>134.6</ele>
        <time>2022-10-26T13:57:13Z</time>
      </trkpt>
      <trkpt lat="43.65048" lon="1.36414">
        <ele>134.4</ele>
        <time>2022-10-26T13:57:14Z</time>
      </trkpt>
      <trkpt lat="43.65055" lon="1.36415">
        <ele>134.4</ele>
        <time>2022-10-26T13:57:15Z</time>
      </trkpt>
      <trkpt lat="43.65062" lon="1.36416">
        <ele>134.4</ele>
        <time>2022-10-26T13:57:16Z</time>
      </trkpt>
      <trkpt lat="43.65068" lon="1.36416">
        <ele>134.6</ele>
        <time>2022-10-26T13:57:17Z</time>
      </trkpt>
      <trkpt lat="43.65077" lon="1.36417">
        <ele>134.8</ele>
        <time>2022-10-26T13:57:18Z</time>
      </trkpt>
      <trkpt lat="43.65082" lon="1.36417">
        <ele>134.8</ele>
        <time>2022-10-26T13:57:19Z</time>
      </trkpt>
      <trkpt lat="43.6509" lon="1.36417">
        <ele>134.8</ele>
        <time>2022-10-26T13:57:20Z</time>
      </trkpt>
      <trkpt lat="43.65096" lon="1.36417">
        <ele>134.8</ele>
        <time>2022-10-26T13:57:21Z</time>
      </trkpt>
      <trkpt lat="43.65103" lon="1.36417">
        <ele>135</ele>
        <time>2022-10-26T13:57:22Z</time>
      </trkpt>
      <trkpt lat="43.6511" lon="1.36416">
        <ele>135</ele>
        <time>2022-10-26T13:57:23Z</time>
      </trkpt>
      <trkpt lat="43.65118" lon="1.36416">
        <ele>135</ele>
        <time>2022-10-26T13:57:24Z</time>
      </trkpt>
      <trkpt lat="43.65125" lon="1.36416">
        <ele>135</ele>
        <time>2022-10-26T13:57:25Z</time>
      </trkpt>
      <trkpt lat="43.6513" lon="1.36416">
        <ele>135</ele>
        <time>2022-10-26T13:57:26Z</time>
      </trkpt>
      <trkpt lat="43.65137" lon="1.36416">
        <ele>135</ele>
        <time>2022-10-26T13:57:27Z</time>
      </trkpt>
      <trkpt lat="43.65145" lon="1.36416">
        <ele>135</ele>
        <time>2022-10-26T13:57:28Z</time>
      </trkpt>
      <trkpt lat="43.65152" lon="1.36417">
        <ele>135.2</ele>
        <time>2022-10-26T13:57:29Z</time>
      </trkpt>
      <trkpt lat="43.65157" lon="1.36417">
        <ele>135.2</ele>
        <time>2022-10-26T13:57:30Z</time>
      </trkpt>
      <trkpt lat="43.65164" lon="1.36417">
        <ele>135.4</ele>
        <time>2022-10-26T13:57:31Z</time>
      </trkpt>
      <trkpt lat="43.65171" lon="1.36418">
        <ele>135.4</ele>
        <time>2022-10-26T13:57:32Z</time>
      </trkpt>
      <trkpt lat="43.65178" lon="1.36418">
        <ele>135.6</ele>
        <time>2022-10-26T13:57:33Z</time>
      </trkpt>
      <trkpt lat="43.65186" lon="1.36418">
        <ele>135.8</ele>
        <time>2022-10-26T13:57:34Z</time>
      </trkpt>
      <trkpt lat="43.65191" lon="1.36418">
        <ele>135.8</ele>
        <time>2022-10-26T13:57:35Z</time>
      </trkpt>
      <trkpt lat="43.65198" lon="1.36418">
        <ele>135.8</ele>
        <time>2022-10-26T13:57:36Z</time>
      </trkpt>
      <trkpt lat="43.65205" lon="1.36418">
        <ele>136</ele>
        <time>2022-10-26T13:57:37Z</time>
      </trkpt>
      <trkpt lat="43.65214" lon="1.36418">
        <ele>136</ele>
        <time>2022-10-26T13:57:38Z</time>
      </trkpt>
      <trkpt lat="43.65221" lon="1.36419">
        <ele>136</ele>
        <time>2022-10-26T13:57:39Z</time>
      </trkpt>
      <trkpt lat="43.65226" lon="1.3642">
        <ele>136</ele>
        <time>2022-10-26T13:57:40Z</time>
      </trkpt>
      <trkpt lat="43.65233" lon="1.3642">
        <ele>136.2</ele>
        <time>2022-10-26T13:57:41Z</time>
      </trkpt>
      <trkpt lat="43.6524" lon="1.36421">
        <ele>136.2</ele>
        <time>2022-10-26T13:57:42Z</time>
      </trkpt>
      <trkpt lat="43.65248" lon="1.36421">
        <ele>136.2</ele>
        <time>2022-10-26T13:57:43Z</time>
      </trkpt>
      <trkpt lat="43.65254" lon="1.36421">
        <ele>136.2</ele>
        <time>2022-10-26T13:57:44Z</time>
      </trkpt>
      <trkpt lat="43.65261" lon="1.36422">
        <ele>136.2</ele>
        <time>2022-10-26T13:57:45Z</time>
      </trkpt>
      <trkpt lat="43.65269" lon="1.36423">
        <ele>136.2</ele>
        <time>2022-10-26T13:57:46Z</time>
      </trkpt>
      <trkpt lat="43.65275" lon="1.36423">
        <ele>136.2</ele>
        <time>2022-10-26T13:57:47Z</time>
      </trkpt>
      <trkpt lat="43.65281" lon="1.36424">
        <ele>136.2</ele>
        <time>2022-10-26T13:57:48Z</time>
      </trkpt>
      <trkpt lat="43.65288" lon="1.36424">
        <ele>136.2</ele>
        <time>2022-10-26T13:57:49Z</time>
      </trkpt>
      <trkpt lat="43.65295" lon="1.36424">
        <ele>136.2</ele>
        <time>2022-10-26T13:57:50Z</time>
      </trkpt>
      <trkpt lat="43.65302" lon="1.36423">
        <ele>136</ele>
        <time>2022-10-26T13:57:51Z</time>
      </trkpt>
      <trkpt lat="43.6531" lon="1.36423">
        <ele>136</ele>
        <time>2022-10-26T13:57:52Z</time>
      </trkpt>
      <trkpt lat="43.65317" lon="1.36422">
        <ele>136</ele>
        <time>2022-10-26T13:57:53Z</time>
      </trkpt>
      <trkpt lat="43.65324" lon="1.36421">
        <ele>136</ele>
        <time>2022-10-26T13:57:54Z</time>
      </trkpt>
      <trkpt lat="43.65331" lon="1.36419">
        <ele>136</ele>
        <time>2022-10-26T13:57:55Z</time>
      </trkpt>
      <trkpt lat="43.65339" lon="1.36417">
        <ele>136</ele>
        <time>2022-10-26T13:57:56Z</time>
      </trkpt>
      <trkpt lat="43.65345" lon="1.36415">
        <ele>136</ele>
        <time>2022-10-26T13:57:57Z</time>
      </trkpt>
      <trkpt lat="43.65351" lon="1.36414">
        <ele>136</ele>
        <time>2022-10-26T13:57:58Z</time>
      </trkpt>
      <trkpt lat="43.65357" lon="1.36412">
        <ele>136</ele>
        <time>2022-10-26T13:57:59Z</time>
      </trkpt>
      <trkpt lat="43.65365" lon="1.36409">
        <ele>136</ele>
        <time>2022-10-26T13:58:00Z</time>
      </trkpt>
      <trkpt lat="43.65372" lon="1.36406">
        <ele>136</ele>
        <time>2022-10-26T13:58:01Z</time>
      </trkpt>
      <trkpt lat="43.65377" lon="1.36404">
        <ele>136</ele>
        <time>2022-10-26T13:58:02Z</time>
      </trkpt>
      <trkpt lat="43.65383" lon="1.364">
        <ele>136</ele>
        <time>2022-10-26T13:58:03Z</time>
      </trkpt>
      <trkpt lat="43.6539" lon="1.36397">
        <ele>136</ele>
        <time>2022-10-26T13:58:04Z</time>
      </trkpt>
      <trkpt lat="43.65396" lon="1.36394">
        <ele>136.2</ele>
        <time>2022-10-26T13:58:05Z</time>
      </trkpt>
      <trkpt lat="43.65404" lon="1.36391">
        <ele>136.2</ele>
        <time>2022-10-26T13:58:06Z</time>
      </trkpt>
      <trkpt lat="43.65411" lon="1.36387">
        <ele>136.4</ele>
        <time>2022-10-26T13:58:07Z</time>
      </trkpt>
      <trkpt lat="43.65416" lon="1.36385">
        <ele>136.4</ele>
        <time>2022-10-26T13:58:08Z</time>
      </trkpt>
      <trkpt lat="43.65422" lon="1.36382">
        <ele>136.4</ele>
        <time>2022-10-26T13:58:09Z</time>
      </trkpt>
      <trkpt lat="43.6543" lon="1.36378">
        <ele>136.4</ele>
        <time>2022-10-26T13:58:10Z</time>
      </trkpt>
      <trkpt lat="43.65437" lon="1.36375">
        <ele>136.4</ele>
        <time>2022-10-26T13:58:11Z</time>
      </trkpt>
      <trkpt lat="43.65442" lon="1.36372">
        <ele>136.4</ele>
        <time>2022-10-26T13:58:12Z</time>
      </trkpt>
      <trkpt lat="43.65448" lon="1.36369">
        <ele>136.4</ele>
        <time>2022-10-26T13:58:13Z</time>
      </trkpt>
      <trkpt lat="43.65455" lon="1.36366">
        <ele>136.6</ele>
        <time>2022-10-26T13:58:14Z</time>
      </trkpt>
      <trkpt lat="43.65461" lon="1.36362">
        <ele>136.6</ele>
        <time>2022-10-26T13:58:15Z</time>
      </trkpt>
      <trkpt lat="43.65469" lon="1.36358">
        <ele>136.6</ele>
        <time>2022-10-26T13:58:16Z</time>
      </trkpt>
      <trkpt lat="43.65475" lon="1.36356">
        <ele>136.6</ele>
        <time>2022-10-26T13:58:17Z</time>
      </trkpt>
      <trkpt lat="43.65481" lon="1.36352">
        <ele>136.6</ele>
        <time>2022-10-26T13:58:18Z</time>
      </trkpt>
      <trkpt lat="43.65486" lon="1.36346">
        <ele>136.6</ele>
        <time>2022-10-26T13:58:19Z</time>
      </trkpt>
      <trkpt lat="43.6549" lon="1.36336">
        <ele>136.6</ele>
        <time>2022-10-26T13:58:20Z</time>
      </trkpt>
      <trkpt lat="43.6549" lon="1.36327">
        <ele>136.6</ele>
        <time>2022-10-26T13:58:21Z</time>
      </trkpt>
      <trkpt lat="43.65489" lon="1.36319">
        <ele>136.6</ele>
        <time>2022-10-26T13:58:22Z</time>
      </trkpt>
      <trkpt lat="43.65488" lon="1.3631">
        <ele>136.6</ele>
        <time>2022-10-26T13:58:23Z</time>
      </trkpt>
      <trkpt lat="43.65487" lon="1.36298">
        <ele>136.6</ele>
        <time>2022-10-26T13:58:24Z</time>
      </trkpt>
      <trkpt lat="43.65486" lon="1.36288">
        <ele>136.6</ele>
        <time>2022-10-26T13:58:25Z</time>
      </trkpt>
      <trkpt lat="43.65485" lon="1.36279">
        <ele>136.6</ele>
        <time>2022-10-26T13:58:26Z</time>
      </trkpt>
      <trkpt lat="43.65484" lon="1.36269">
        <ele>136.6</ele>
        <time>2022-10-26T13:58:27Z</time>
      </trkpt>
      <trkpt lat="43.65484" lon="1.36258">
        <ele>136.6</ele>
        <time>2022-10-26T13:58:28Z</time>
      </trkpt>
      <trkpt lat="43.65482" lon="1.36245">
        <ele>136.4</ele>
        <time>2022-10-26T13:58:29Z</time>
      </trkpt>
      <trkpt lat="43.65481" lon="1.36233">
        <ele>136.4</ele>
        <time>2022-10-26T13:58:30Z</time>
      </trkpt>
      <trkpt lat="43.65481" lon="1.36225">
        <ele>136.6</ele>
        <time>2022-10-26T13:58:31Z</time>
      </trkpt>
      <trkpt lat="43.6548" lon="1.36214">
        <ele>136.6</ele>
        <time>2022-10-26T13:58:32Z</time>
      </trkpt>
      <trkpt lat="43.65479" lon="1.36203">
        <ele>136.6</ele>
        <time>2022-10-26T13:58:33Z</time>
      </trkpt>
      <trkpt lat="43.65477" lon="1.36192">
        <ele>136.4</ele>
        <time>2022-10-26T13:58:34Z</time>
      </trkpt>
      <trkpt lat="43.65477" lon="1.36181">
        <ele>136.4</ele>
        <time>2022-10-26T13:58:35Z</time>
      </trkpt>
      <trkpt lat="43.65476" lon="1.36171">
        <ele>136.2</ele>
        <time>2022-10-26T13:58:36Z</time>
      </trkpt>
      <trkpt lat="43.65475" lon="1.3616">
        <ele>136.2</ele>
        <time>2022-10-26T13:58:37Z</time>
      </trkpt>
      <trkpt lat="43.65475" lon="1.3615">
        <ele>136</ele>
        <time>2022-10-26T13:58:38Z</time>
      </trkpt>
      <trkpt lat="43.65474" lon="1.3614">
        <ele>136</ele>
        <time>2022-10-26T13:58:39Z</time>
      </trkpt>
      <trkpt lat="43.65474" lon="1.36131">
        <ele>135.8</ele>
        <time>2022-10-26T13:58:40Z</time>
      </trkpt>
      <trkpt lat="43.65473" lon="1.36121">
        <ele>135.8</ele>
        <time>2022-10-26T13:58:41Z</time>
      </trkpt>
      <trkpt lat="43.65472" lon="1.36113">
        <ele>135.8</ele>
        <time>2022-10-26T13:58:42Z</time>
      </trkpt>
      <trkpt lat="43.65471" lon="1.36105">
        <ele>135.6</ele>
        <time>2022-10-26T13:58:43Z</time>
      </trkpt>
      <trkpt lat="43.65471" lon="1.36098">
        <ele>135.6</ele>
        <time>2022-10-26T13:58:44Z</time>
      </trkpt>
      <trkpt lat="43.65473" lon="1.36093">
        <ele>135.6</ele>
        <time>2022-10-26T13:58:45Z</time>
      </trkpt>
      <trkpt lat="43.65475" lon="1.36089">
        <ele>135.6</ele>
        <time>2022-10-26T13:58:46Z</time>
      </trkpt>
      <trkpt lat="43.65479" lon="1.36086">
        <ele>135.4</ele>
        <time>2022-10-26T13:58:47Z</time>
      </trkpt>
      <trkpt lat="43.65482" lon="1.36084">
        <ele>135.4</ele>
        <time>2022-10-26T13:58:48Z</time>
      </trkpt>
      <trkpt lat="43.65485" lon="1.36084">
        <ele>135.4</ele>
        <time>2022-10-26T13:58:49Z</time>
      </trkpt>
      <trkpt lat="43.65489" lon="1.36083">
        <ele>135.2</ele>
        <time>2022-10-26T13:58:50Z</time>
      </trkpt>
      <trkpt lat="43.65494" lon="1.36082">
        <ele>135.2</ele>
        <time>2022-10-26T13:58:51Z</time>
      </trkpt>
      <trkpt lat="43.65499" lon="1.36081">
        <ele>135.2</ele>
        <time>2022-10-26T13:58:52Z</time>
      </trkpt>
      <trkpt lat="43.65504" lon="1.3608">
        <ele>135.2</ele>
        <time>2022-10-26T13:58:53Z</time>
      </trkpt>
      <trkpt lat="43.65508" lon="1.36079">
        <ele>135</ele>
        <time>2022-10-26T13:58:54Z</time>
      </trkpt>
      <trkpt lat="43.65512" lon="1.36076">
        <ele>135</ele>
        <time>2022-10-26T13:58:55Z</time>
      </trkpt>
      <trkpt lat="43.65514" lon="1.36069">
        <ele>134.8</ele>
        <time>2022-10-26T13:58:56Z</time>
      </trkpt>
      <trkpt lat="43.65516" lon="1.36061">
        <ele>134.8</ele>
        <time>2022-10-26T13:58:57Z</time>
      </trkpt>
      <trkpt lat="43.65517" lon="1.36053">
        <ele>134.8</ele>
        <time>2022-10-26T13:58:58Z</time>
      </trkpt>
      <trkpt lat="43.6552" lon="1.36048">
        <ele>134.8</ele>
        <time>2022-10-26T13:58:59Z</time>
      </trkpt>
      <trkpt lat="43.65525" lon="1.36043">
        <ele>134.8</ele>
        <time>2022-10-26T13:59:00Z</time>
      </trkpt>
      <trkpt lat="43.6553" lon="1.36038">
        <ele>134.8</ele>
        <time>2022-10-26T13:59:01Z</time>
      </trkpt>
      <trkpt lat="43.65536" lon="1.36032">
        <ele>134.8</ele>
        <time>2022-10-26T13:59:02Z</time>
      </trkpt>
      <trkpt lat="43.65541" lon="1.36027">
        <ele>134.8</ele>
        <time>2022-10-26T13:59:03Z</time>
      </trkpt>
      <trkpt lat="43.65546" lon="1.36023">
        <ele>134.8</ele>
        <time>2022-10-26T13:59:04Z</time>
      </trkpt>
      <trkpt lat="43.65551" lon="1.36017">
        <ele>134.8</ele>
        <time>2022-10-26T13:59:05Z</time>
      </trkpt>
      <trkpt lat="43.65557" lon="1.36012">
        <ele>135</ele>
        <time>2022-10-26T13:59:06Z</time>
      </trkpt>
      <trkpt lat="43.65564" lon="1.36006">
        <ele>135</ele>
        <time>2022-10-26T13:59:07Z</time>
      </trkpt>
      <trkpt lat="43.65568" lon="1.36001">
        <ele>135</ele>
        <time>2022-10-26T13:59:08Z</time>
      </trkpt>
      <trkpt lat="43.65574" lon="1.35995">
        <ele>135</ele>
        <time>2022-10-26T13:59:09Z</time>
      </trkpt>
      <trkpt lat="43.65581" lon="1.35988">
        <ele>135</ele>
        <time>2022-10-26T13:59:10Z</time>
      </trkpt>
      <trkpt lat="43.65587" lon="1.35983">
        <ele>135</ele>
        <time>2022-10-26T13:59:11Z</time>
      </trkpt>
      <trkpt lat="43.65592" lon="1.35978">
        <ele>135</ele>
        <time>2022-10-26T13:59:12Z</time>
      </trkpt>
      <trkpt lat="43.65598" lon="1.35973">
        <ele>135</ele>
        <time>2022-10-26T13:59:13Z</time>
      </trkpt>
      <trkpt lat="43.65605" lon="1.35967">
        <ele>135</ele>
        <time>2022-10-26T13:59:14Z</time>
      </trkpt>
      <trkpt lat="43.65611" lon="1.35961">
        <ele>135</ele>
        <time>2022-10-26T13:59:15Z</time>
      </trkpt>
      <trkpt lat="43.65617" lon="1.35956">
        <ele>135</ele>
        <time>2022-10-26T13:59:16Z</time>
      </trkpt>
      <trkpt lat="43.65623" lon="1.35949">
        <ele>135</ele>
        <time>2022-10-26T13:59:17Z</time>
      </trkpt>
      <trkpt lat="43.65629" lon="1.35943">
        <ele>135.2</ele>
        <time>2022-10-26T13:59:18Z</time>
      </trkpt>
      <trkpt lat="43.65635" lon="1.35937">
        <ele>135.2</ele>
        <time>2022-10-26T13:59:19Z</time>
      </trkpt>
      <trkpt lat="43.65641" lon="1.35931">
        <ele>135.2</ele>
        <time>2022-10-26T13:59:20Z</time>
      </trkpt>
      <trkpt lat="43.65647" lon="1.35925">
        <ele>135.2</ele>
        <time>2022-10-26T13:59:21Z</time>
      </trkpt>
      <trkpt lat="43.65653" lon="1.35919">
        <ele>135.2</ele>
        <time>2022-10-26T13:59:22Z</time>
      </trkpt>
      <trkpt lat="43.65659" lon="1.35913">
        <ele>135.2</ele>
        <time>2022-10-26T13:59:23Z</time>
      </trkpt>
      <trkpt lat="43.65665" lon="1.35907">
        <ele>135.2</ele>
        <time>2022-10-26T13:59:24Z</time>
      </trkpt>
      <trkpt lat="43.65671" lon="1.35901">
        <ele>135.2</ele>
        <time>2022-10-26T13:59:25Z</time>
      </trkpt>
      <trkpt lat="43.65677" lon="1.35895">
        <ele>135.2</ele>
        <time>2022-10-26T13:59:26Z</time>
      </trkpt>
      <trkpt lat="43.65685" lon="1.35889">
        <ele>135.2</ele>
        <time>2022-10-26T13:59:27Z</time>
      </trkpt>
      <trkpt lat="43.6569" lon="1.35886">
        <ele>135.4</ele>
        <time>2022-10-26T13:59:28Z</time>
      </trkpt>
      <trkpt lat="43.65696" lon="1.35882">
        <ele>135.4</ele>
        <time>2022-10-26T13:59:29Z</time>
      </trkpt>
      <trkpt lat="43.65704" lon="1.35878">
        <ele>135.4</ele>
        <time>2022-10-26T13:59:30Z</time>
      </trkpt>
      <trkpt lat="43.6571" lon="1.35876">
        <ele>135.4</ele>
        <time>2022-10-26T13:59:31Z</time>
      </trkpt>
      <trkpt lat="43.65715" lon="1.35875">
        <ele>135.4</ele>
        <time>2022-10-26T13:59:32Z</time>
      </trkpt>
      <trkpt lat="43.65721" lon="1.35874">
        <ele>135.4</ele>
        <time>2022-10-26T13:59:33Z</time>
      </trkpt>
      <trkpt lat="43.65726" lon="1.35873">
        <ele>135.4</ele>
        <time>2022-10-26T13:59:34Z</time>
      </trkpt>
      <trkpt lat="43.65732" lon="1.35872">
        <ele>135.4</ele>
        <time>2022-10-26T13:59:35Z</time>
      </trkpt>
      <trkpt lat="43.6574" lon="1.35871">
        <ele>135.4</ele>
        <time>2022-10-26T13:59:36Z</time>
      </trkpt>
      <trkpt lat="43.65745" lon="1.35871">
        <ele>135.4</ele>
        <time>2022-10-26T13:59:37Z</time>
      </trkpt>
      <trkpt lat="43.65751" lon="1.3587">
        <ele>135.4</ele>
        <time>2022-10-26T13:59:38Z</time>
      </trkpt>
      <trkpt lat="43.65757" lon="1.3587">
        <ele>135.4</ele>
        <time>2022-10-26T13:59:39Z</time>
      </trkpt>
      <trkpt lat="43.65764" lon="1.35869">
        <ele>135.4</ele>
        <time>2022-10-26T13:59:40Z</time>
      </trkpt>
      <trkpt lat="43.6577" lon="1.35868">
        <ele>135.2</ele>
        <time>2022-10-26T13:59:41Z</time>
      </trkpt>
      <trkpt lat="43.65777" lon="1.35868">
        <ele>135.2</ele>
        <time>2022-10-26T13:59:42Z</time>
      </trkpt>
      <trkpt lat="43.65783" lon="1.35867">
        <ele>135.2</ele>
        <time>2022-10-26T13:59:43Z</time>
      </trkpt>
      <trkpt lat="43.6579" lon="1.35867">
        <ele>135.2</ele>
        <time>2022-10-26T13:59:44Z</time>
      </trkpt>
      <trkpt lat="43.65798" lon="1.35866">
        <ele>135.2</ele>
        <time>2022-10-26T13:59:45Z</time>
      </trkpt>
      <trkpt lat="43.65805" lon="1.35865">
        <ele>135.2</ele>
        <time>2022-10-26T13:59:46Z</time>
      </trkpt>
      <trkpt lat="43.6581" lon="1.35865">
        <ele>135.2</ele>
        <time>2022-10-26T13:59:47Z</time>
      </trkpt>
      <trkpt lat="43.65816" lon="1.35864">
        <ele>135.2</ele>
        <time>2022-10-26T13:59:48Z</time>
      </trkpt>
      <trkpt lat="43.65823" lon="1.35863">
        <ele>135</ele>
        <time>2022-10-26T13:59:49Z</time>
      </trkpt>
      <trkpt lat="43.65832" lon="1.35862">
        <ele>135</ele>
        <time>2022-10-26T13:59:50Z</time>
      </trkpt>
      <trkpt lat="43.65837" lon="1.35862">
        <ele>135</ele>
        <time>2022-10-26T13:59:51Z</time>
      </trkpt>
      <trkpt lat="43.65844" lon="1.35861">
        <ele>135</ele>
        <time>2022-10-26T13:59:52Z</time>
      </trkpt>
      <trkpt lat="43.65853" lon="1.3586">
        <ele>135</ele>
        <time>2022-10-26T13:59:53Z</time>
      </trkpt>
      <trkpt lat="43.6586" lon="1.3586">
        <ele>134.8</ele>
        <time>2022-10-26T13:59:54Z</time>
      </trkpt>
      <trkpt lat="43.65865" lon="1.35859">
        <ele>134.8</ele>
        <time>2022-10-26T13:59:55Z</time>
      </trkpt>
      <trkpt lat="43.65872" lon="1.35858">
        <ele>134.8</ele>
        <time>2022-10-26T13:59:56Z</time>
      </trkpt>
      <trkpt lat="43.65879" lon="1.35857">
        <ele>134.8</ele>
        <time>2022-10-26T13:59:57Z</time>
      </trkpt>
      <trkpt lat="43.65886" lon="1.35856">
        <ele>134.8</ele>
        <time>2022-10-26T13:59:58Z</time>
      </trkpt>
      <trkpt lat="43.65893" lon="1.35855">
        <ele>134.8</ele>
        <time>2022-10-26T13:59:59Z</time>
      </trkpt>
      <trkpt lat="43.659" lon="1.35853">
        <ele>134.8</ele>
        <time>2022-10-26T14:00:00Z</time>
      </trkpt>
      <trkpt lat="43.65907" lon="1.35852">
        <ele>134.8</ele>
        <time>2022-10-26T14:00:01Z</time>
      </trkpt>
      <trkpt lat="43.65914" lon="1.35851">
        <ele>134.8</ele>
        <time>2022-10-26T14:00:02Z</time>
      </trkpt>
      <trkpt lat="43.65922" lon="1.35849">
        <ele>135</ele>
        <time>2022-10-26T14:00:03Z</time>
      </trkpt>
      <trkpt lat="43.65929" lon="1.35848">
        <ele>135</ele>
        <time>2022-10-26T14:00:04Z</time>
      </trkpt>
      <trkpt lat="43.65935" lon="1.35847">
        <ele>135</ele>
        <time>2022-10-26T14:00:05Z</time>
      </trkpt>
      <trkpt lat="43.65942" lon="1.35846">
        <ele>135</ele>
        <time>2022-10-26T14:00:06Z</time>
      </trkpt>
      <trkpt lat="43.6595" lon="1.35846">
        <ele>135</ele>
        <time>2022-10-26T14:00:07Z</time>
      </trkpt>
      <trkpt lat="43.65955" lon="1.35846">
        <ele>135</ele>
        <time>2022-10-26T14:00:08Z</time>
      </trkpt>
      <trkpt lat="43.65964" lon="1.35845">
        <ele>135</ele>
        <time>2022-10-26T14:00:09Z</time>
      </trkpt>
      <trkpt lat="43.65969" lon="1.35844">
        <ele>134.8</ele>
        <time>2022-10-26T14:00:10Z</time>
      </trkpt>
      <trkpt lat="43.65976" lon="1.35844">
        <ele>134.8</ele>
        <time>2022-10-26T14:00:11Z</time>
      </trkpt>
      <trkpt lat="43.65984" lon="1.35842">
        <ele>134.8</ele>
        <time>2022-10-26T14:00:12Z</time>
      </trkpt>
      <trkpt lat="43.65991" lon="1.35841">
        <ele>134.8</ele>
        <time>2022-10-26T14:00:13Z</time>
      </trkpt>
      <trkpt lat="43.65997" lon="1.3584">
        <ele>134.8</ele>
        <time>2022-10-26T14:00:14Z</time>
      </trkpt>
      <trkpt lat="43.66004" lon="1.35839">
        <ele>134.8</ele>
        <time>2022-10-26T14:00:15Z</time>
      </trkpt>
      <trkpt lat="43.66011" lon="1.35838">
        <ele>134.8</ele>
        <time>2022-10-26T14:00:16Z</time>
      </trkpt>
      <trkpt lat="43.66018" lon="1.35838">
        <ele>134.8</ele>
        <time>2022-10-26T14:00:17Z</time>
      </trkpt>
      <trkpt lat="43.66026" lon="1.35836">
        <ele>134.8</ele>
        <time>2022-10-26T14:00:18Z</time>
      </trkpt>
      <trkpt lat="43.66032" lon="1.35835">
        <ele>134.8</ele>
        <time>2022-10-26T14:00:19Z</time>
      </trkpt>
      <trkpt lat="43.66039" lon="1.35834">
        <ele>134.8</ele>
        <time>2022-10-26T14:00:20Z</time>
      </trkpt>
      <trkpt lat="43.66046" lon="1.35833">
        <ele>134.8</ele>
        <time>2022-10-26T14:00:21Z</time>
      </trkpt>
      <trkpt lat="43.66053" lon="1.35833">
        <ele>134.8</ele>
        <time>2022-10-26T14:00:22Z</time>
      </trkpt>
      <trkpt lat="43.66061" lon="1.35832">
        <ele>134.8</ele>
        <time>2022-10-26T14:00:23Z</time>
      </trkpt>
      <trkpt lat="43.66066" lon="1.35831">
        <ele>134.8</ele>
        <time>2022-10-26T14:00:24Z</time>
      </trkpt>
      <trkpt lat="43.66073" lon="1.3583">
        <ele>134.8</ele>
        <time>2022-10-26T14:00:25Z</time>
      </trkpt>
      <trkpt lat="43.6608" lon="1.35829">
        <ele>134.8</ele>
        <time>2022-10-26T14:00:26Z</time>
      </trkpt>
      <trkpt lat="43.66088" lon="1.35828">
        <ele>134.8</ele>
        <time>2022-10-26T14:00:27Z</time>
      </trkpt>
      <trkpt lat="43.66095" lon="1.35826">
        <ele>134.8</ele>
        <time>2022-10-26T14:00:28Z</time>
      </trkpt>
      <trkpt lat="43.661" lon="1.35825">
        <ele>134.8</ele>
        <time>2022-10-26T14:00:29Z</time>
      </trkpt>
      <trkpt lat="43.66106" lon="1.35823">
        <ele>134.8</ele>
        <time>2022-10-26T14:00:30Z</time>
      </trkpt>
      <trkpt lat="43.66113" lon="1.35819">
        <ele>134.8</ele>
        <time>2022-10-26T14:00:31Z</time>
      </trkpt>
      <trkpt lat="43.66119" lon="1.35813">
        <ele>134.8</ele>
        <time>2022-10-26T14:00:32Z</time>
      </trkpt>
      <trkpt lat="43.66122" lon="1.35808">
        <ele>134.8</ele>
        <time>2022-10-26T14:00:33Z</time>
      </trkpt>
      <trkpt lat="43.66126" lon="1.358">
        <ele>134.8</ele>
        <time>2022-10-26T14:00:34Z</time>
      </trkpt>
      <trkpt lat="43.66128" lon="1.35789">
        <ele>134.8</ele>
        <time>2022-10-26T14:00:35Z</time>
      </trkpt>
      <trkpt lat="43.6613" lon="1.35782">
        <ele>134.8</ele>
        <time>2022-10-26T14:00:36Z</time>
      </trkpt>
      <trkpt lat="43.66133" lon="1.35772">
        <ele>134.8</ele>
        <time>2022-10-26T14:00:37Z</time>
      </trkpt>
      <trkpt lat="43.66135" lon="1.35765">
        <ele>134.8</ele>
        <time>2022-10-26T14:00:38Z</time>
      </trkpt>
      <trkpt lat="43.66138" lon="1.35757">
        <ele>135</ele>
        <time>2022-10-26T14:00:39Z</time>
      </trkpt>
      <trkpt lat="43.66141" lon="1.35749">
        <ele>134.8</ele>
        <time>2022-10-26T14:00:40Z</time>
      </trkpt>
      <trkpt lat="43.66145" lon="1.35741">
        <ele>134.8</ele>
        <time>2022-10-26T14:00:41Z</time>
      </trkpt>
      <trkpt lat="43.66148" lon="1.35732">
        <ele>134.8</ele>
        <time>2022-10-26T14:00:42Z</time>
      </trkpt>
      <trkpt lat="43.6615" lon="1.35724">
        <ele>134.8</ele>
        <time>2022-10-26T14:00:43Z</time>
      </trkpt>
      <trkpt lat="43.66152" lon="1.35716">
        <ele>134.8</ele>
        <time>2022-10-26T14:00:44Z</time>
      </trkpt>
      <trkpt lat="43.66154" lon="1.35707">
        <ele>134.8</ele>
        <time>2022-10-26T14:00:45Z</time>
      </trkpt>
      <trkpt lat="43.66156" lon="1.35699">
        <ele>134.8</ele>
        <time>2022-10-26T14:00:46Z</time>
      </trkpt>
      <trkpt lat="43.66158" lon="1.3569">
        <ele>134.8</ele>
        <time>2022-10-26T14:00:47Z</time>
      </trkpt>
      <trkpt lat="43.66161" lon="1.35683">
        <ele>134.8</ele>
        <time>2022-10-26T14:00:48Z</time>
      </trkpt>
      <trkpt lat="43.66165" lon="1.35676">
        <ele>134.8</ele>
        <time>2022-10-26T14:00:49Z</time>
      </trkpt>
      <trkpt lat="43.66169" lon="1.3567">
        <ele>135</ele>
        <time>2022-10-26T14:00:50Z</time>
      </trkpt>
      <trkpt lat="43.66174" lon="1.35664">
        <ele>135</ele>
        <time>2022-10-26T14:00:51Z</time>
      </trkpt>
      <trkpt lat="43.66179" lon="1.35659">
        <ele>135</ele>
        <time>2022-10-26T14:00:52Z</time>
      </trkpt>
      <trkpt lat="43.66184" lon="1.35652">
        <ele>135</ele>
        <time>2022-10-26T14:00:53Z</time>
      </trkpt>
      <trkpt lat="43.66188" lon="1.35645">
        <ele>135</ele>
        <time>2022-10-26T14:00:54Z</time>
      </trkpt>
      <trkpt lat="43.66191" lon="1.35637">
        <ele>135</ele>
        <time>2022-10-26T14:00:55Z</time>
      </trkpt>
      <trkpt lat="43.66194" lon="1.35627">
        <ele>135.2</ele>
        <time>2022-10-26T14:00:56Z</time>
      </trkpt>
      <trkpt lat="43.66195" lon="1.35617">
        <ele>135.2</ele>
        <time>2022-10-26T14:00:57Z</time>
      </trkpt>
      <trkpt lat="43.66195" lon="1.3561">
        <ele>135.2</ele>
        <time>2022-10-26T14:00:58Z</time>
      </trkpt>
      <trkpt lat="43.66195" lon="1.356">
        <ele>135.2</ele>
        <time>2022-10-26T14:00:59Z</time>
      </trkpt>
      <trkpt lat="43.66194" lon="1.35591">
        <ele>135.4</ele>
        <time>2022-10-26T14:01:00Z</time>
      </trkpt>
      <trkpt lat="43.6619" lon="1.3558">
        <ele>135.4</ele>
        <time>2022-10-26T14:01:01Z</time>
      </trkpt>
      <trkpt lat="43.66188" lon="1.35573">
        <ele>135.4</ele>
        <time>2022-10-26T14:01:02Z</time>
      </trkpt>
      <trkpt lat="43.66184" lon="1.35565">
        <ele>135.4</ele>
        <time>2022-10-26T14:01:03Z</time>
      </trkpt>
      <trkpt lat="43.6618" lon="1.35556">
        <ele>135.4</ele>
        <time>2022-10-26T14:01:04Z</time>
      </trkpt>
      <trkpt lat="43.66177" lon="1.35548">
        <ele>135.4</ele>
        <time>2022-10-26T14:01:05Z</time>
      </trkpt>
      <trkpt lat="43.66173" lon="1.35537">
        <ele>135.4</ele>
        <time>2022-10-26T14:01:06Z</time>
      </trkpt>
      <trkpt lat="43.6617" lon="1.3553">
        <ele>135.4</ele>
        <time>2022-10-26T14:01:07Z</time>
      </trkpt>
      <trkpt lat="43.66167" lon="1.35521">
        <ele>135.4</ele>
        <time>2022-10-26T14:01:08Z</time>
      </trkpt>
      <trkpt lat="43.66164" lon="1.35513">
        <ele>135.4</ele>
        <time>2022-10-26T14:01:09Z</time>
      </trkpt>
      <trkpt lat="43.6616" lon="1.35502">
        <ele>135.4</ele>
        <time>2022-10-26T14:01:10Z</time>
      </trkpt>
      <trkpt lat="43.66157" lon="1.35494">
        <ele>135.4</ele>
        <time>2022-10-26T14:01:11Z</time>
      </trkpt>
      <trkpt lat="43.66155" lon="1.35487">
        <ele>135.4</ele>
        <time>2022-10-26T14:01:12Z</time>
      </trkpt>
      <trkpt lat="43.66152" lon="1.35478">
        <ele>135.4</ele>
        <time>2022-10-26T14:01:13Z</time>
      </trkpt>
      <trkpt lat="43.66149" lon="1.35468">
        <ele>135.4</ele>
        <time>2022-10-26T14:01:14Z</time>
      </trkpt>
      <trkpt lat="43.66147" lon="1.35459">
        <ele>135.4</ele>
        <time>2022-10-26T14:01:15Z</time>
      </trkpt>
      <trkpt lat="43.66145" lon="1.35452">
        <ele>135.4</ele>
        <time>2022-10-26T14:01:16Z</time>
      </trkpt>
      <trkpt lat="43.66142" lon="1.35443">
        <ele>135.4</ele>
        <time>2022-10-26T14:01:17Z</time>
      </trkpt>
      <trkpt lat="43.66139" lon="1.35432">
        <ele>135.4</ele>
        <time>2022-10-26T14:01:18Z</time>
      </trkpt>
      <trkpt lat="43.66138" lon="1.35425">
        <ele>135.4</ele>
        <time>2022-10-26T14:01:19Z</time>
      </trkpt>
      <trkpt lat="43.66135" lon="1.35415">
        <ele>135.4</ele>
        <time>2022-10-26T14:01:20Z</time>
      </trkpt>
      <trkpt lat="43.66133" lon="1.35408">
        <ele>135.4</ele>
        <time>2022-10-26T14:01:21Z</time>
      </trkpt>
      <trkpt lat="43.6613" lon="1.35399">
        <ele>135.8</ele>
        <time>2022-10-26T14:01:22Z</time>
      </trkpt>
      <trkpt lat="43.66128" lon="1.3539">
        <ele>135.8</ele>
        <time>2022-10-26T14:01:23Z</time>
      </trkpt>
      <trkpt lat="43.66126" lon="1.35381">
        <ele>136</ele>
        <time>2022-10-26T14:01:24Z</time>
      </trkpt>
      <trkpt lat="43.66123" lon="1.35372">
        <ele>136</ele>
        <time>2022-10-26T14:01:25Z</time>
      </trkpt>
      <trkpt lat="43.66121" lon="1.35363">
        <ele>136</ele>
        <time>2022-10-26T14:01:26Z</time>
      </trkpt>
      <trkpt lat="43.66119" lon="1.35354">
        <ele>135.8</ele>
        <time>2022-10-26T14:01:27Z</time>
      </trkpt>
      <trkpt lat="43.66118" lon="1.35344">
        <ele>136</ele>
        <time>2022-10-26T14:01:28Z</time>
      </trkpt>
      <trkpt lat="43.66116" lon="1.35334">
        <ele>136</ele>
        <time>2022-10-26T14:01:29Z</time>
      </trkpt>
      <trkpt lat="43.66114" lon="1.35324">
        <ele>136</ele>
        <time>2022-10-26T14:01:30Z</time>
      </trkpt>
      <trkpt lat="43.66112" lon="1.35314">
        <ele>136</ele>
        <time>2022-10-26T14:01:31Z</time>
      </trkpt>
      <trkpt lat="43.66111" lon="1.35304">
        <ele>136</ele>
        <time>2022-10-26T14:01:32Z</time>
      </trkpt>
      <trkpt lat="43.66109" lon="1.35292">
        <ele>136</ele>
        <time>2022-10-26T14:01:33Z</time>
      </trkpt>
      <trkpt lat="43.66107" lon="1.35284">
        <ele>136</ele>
        <time>2022-10-26T14:01:34Z</time>
      </trkpt>
      <trkpt lat="43.66106" lon="1.35272">
        <ele>136</ele>
        <time>2022-10-26T14:01:35Z</time>
      </trkpt>
      <trkpt lat="43.66105" lon="1.35264">
        <ele>136</ele>
        <time>2022-10-26T14:01:36Z</time>
      </trkpt>
      <trkpt lat="43.66103" lon="1.35254">
        <ele>136</ele>
        <time>2022-10-26T14:01:37Z</time>
      </trkpt>
      <trkpt lat="43.66102" lon="1.35244">
        <ele>135.8</ele>
        <time>2022-10-26T14:01:38Z</time>
      </trkpt>
      <trkpt lat="43.661" lon="1.35233">
        <ele>136</ele>
        <time>2022-10-26T14:01:39Z</time>
      </trkpt>
      <trkpt lat="43.66099" lon="1.35225">
        <ele>136</ele>
        <time>2022-10-26T14:01:40Z</time>
      </trkpt>
      <trkpt lat="43.66098" lon="1.35216">
        <ele>136</ele>
        <time>2022-10-26T14:01:41Z</time>
      </trkpt>
      <trkpt lat="43.66096" lon="1.35204">
        <ele>136</ele>
        <time>2022-10-26T14:01:42Z</time>
      </trkpt>
      <trkpt lat="43.66095" lon="1.35196">
        <ele>136</ele>
        <time>2022-10-26T14:01:43Z</time>
      </trkpt>
      <trkpt lat="43.66094" lon="1.35187">
        <ele>136</ele>
        <time>2022-10-26T14:01:44Z</time>
      </trkpt>
      <trkpt lat="43.66093" lon="1.35177">
        <ele>136</ele>
        <time>2022-10-26T14:01:45Z</time>
      </trkpt>
      <trkpt lat="43.66092" lon="1.35167">
        <ele>136</ele>
        <time>2022-10-26T14:01:46Z</time>
      </trkpt>
      <trkpt lat="43.66091" lon="1.35157">
        <ele>136</ele>
        <time>2022-10-26T14:01:47Z</time>
      </trkpt>
      <trkpt lat="43.66089" lon="1.35147">
        <ele>136</ele>
        <time>2022-10-26T14:01:48Z</time>
      </trkpt>
      <trkpt lat="43.66088" lon="1.35138">
        <ele>136</ele>
        <time>2022-10-26T14:01:49Z</time>
      </trkpt>
      <trkpt lat="43.66087" lon="1.35128">
        <ele>136.2</ele>
        <time>2022-10-26T14:01:50Z</time>
      </trkpt>
      <trkpt lat="43.66086" lon="1.35118">
        <ele>136.2</ele>
        <time>2022-10-26T14:01:51Z</time>
      </trkpt>
      <trkpt lat="43.66085" lon="1.35108">
        <ele>136.2</ele>
        <time>2022-10-26T14:01:52Z</time>
      </trkpt>
      <trkpt lat="43.66084" lon="1.35099">
        <ele>136</ele>
        <time>2022-10-26T14:01:53Z</time>
      </trkpt>
      <trkpt lat="43.66082" lon="1.35089">
        <ele>136</ele>
        <time>2022-10-26T14:01:54Z</time>
      </trkpt>
      <trkpt lat="43.66081" lon="1.35079">
        <ele>136</ele>
        <time>2022-10-26T14:01:55Z</time>
      </trkpt>
      <trkpt lat="43.6608" lon="1.35069">
        <ele>136.2</ele>
        <time>2022-10-26T14:01:56Z</time>
      </trkpt>
      <trkpt lat="43.66079" lon="1.3506">
        <ele>136.2</ele>
        <time>2022-10-26T14:01:57Z</time>
      </trkpt>
      <trkpt lat="43.66078" lon="1.3505">
        <ele>136.2</ele>
        <time>2022-10-26T14:01:58Z</time>
      </trkpt>
      <trkpt lat="43.66077" lon="1.35041">
        <ele>136.2</ele>
        <time>2022-10-26T14:01:59Z</time>
      </trkpt>
      <trkpt lat="43.66075" lon="1.35031">
        <ele>136.2</ele>
        <time>2022-10-26T14:02:00Z</time>
      </trkpt>
      <trkpt lat="43.66074" lon="1.35021">
        <ele>136.4</ele>
        <time>2022-10-26T14:02:01Z</time>
      </trkpt>
      <trkpt lat="43.66073" lon="1.35011">
        <ele>136.4</ele>
        <time>2022-10-26T14:02:02Z</time>
      </trkpt>
      <trkpt lat="43.66072" lon="1.35002">
        <ele>136.4</ele>
        <time>2022-10-26T14:02:03Z</time>
      </trkpt>
      <trkpt lat="43.66071" lon="1.34992">
        <ele>136.4</ele>
        <time>2022-10-26T14:02:04Z</time>
      </trkpt>
      <trkpt lat="43.6607" lon="1.34983">
        <ele>136.4</ele>
        <time>2022-10-26T14:02:05Z</time>
      </trkpt>
      <trkpt lat="43.66068" lon="1.34974">
        <ele>136.6</ele>
        <time>2022-10-26T14:02:06Z</time>
      </trkpt>
      <trkpt lat="43.66067" lon="1.34964">
        <ele>136.6</ele>
        <time>2022-10-26T14:02:07Z</time>
      </trkpt>
      <trkpt lat="43.66066" lon="1.34955">
        <ele>136.6</ele>
        <time>2022-10-26T14:02:08Z</time>
      </trkpt>
      <trkpt lat="43.66065" lon="1.34946">
        <ele>136.6</ele>
        <time>2022-10-26T14:02:09Z</time>
      </trkpt>
      <trkpt lat="43.66064" lon="1.34937">
        <ele>136.6</ele>
        <time>2022-10-26T14:02:10Z</time>
      </trkpt>
      <trkpt lat="43.66064" lon="1.34928">
        <ele>136.8</ele>
        <time>2022-10-26T14:02:11Z</time>
      </trkpt>
      <trkpt lat="43.66062" lon="1.34919">
        <ele>137</ele>
        <time>2022-10-26T14:02:12Z</time>
      </trkpt>
      <trkpt lat="43.66061" lon="1.34909">
        <ele>137</ele>
        <time>2022-10-26T14:02:13Z</time>
      </trkpt>
      <trkpt lat="43.6606" lon="1.34902">
        <ele>137</ele>
        <time>2022-10-26T14:02:14Z</time>
      </trkpt>
      <trkpt lat="43.66059" lon="1.34892">
        <ele>137</ele>
        <time>2022-10-26T14:02:15Z</time>
      </trkpt>
      <trkpt lat="43.66058" lon="1.34883">
        <ele>137.2</ele>
        <time>2022-10-26T14:02:16Z</time>
      </trkpt>
      <trkpt lat="43.66057" lon="1.34874">
        <ele>137.2</ele>
        <time>2022-10-26T14:02:17Z</time>
      </trkpt>
      <trkpt lat="43.66056" lon="1.34865">
        <ele>137.2</ele>
        <time>2022-10-26T14:02:18Z</time>
      </trkpt>
      <trkpt lat="43.66055" lon="1.34857">
        <ele>137.2</ele>
        <time>2022-10-26T14:02:19Z</time>
      </trkpt>
      <trkpt lat="43.66053" lon="1.34849">
        <ele>137.4</ele>
        <time>2022-10-26T14:02:20Z</time>
      </trkpt>
      <trkpt lat="43.6605" lon="1.34842">
        <ele>137.4</ele>
        <time>2022-10-26T14:02:21Z</time>
      </trkpt>
      <trkpt lat="43.66046" lon="1.34836">
        <ele>137.6</ele>
        <time>2022-10-26T14:02:22Z</time>
      </trkpt>
      <trkpt lat="43.66043" lon="1.34832">
        <ele>137.6</ele>
        <time>2022-10-26T14:02:23Z</time>
      </trkpt>
      <trkpt lat="43.6604" lon="1.34827">
        <ele>137.6</ele>
        <time>2022-10-26T14:02:24Z</time>
      </trkpt>
      <trkpt lat="43.66037" lon="1.3482">
        <ele>137.8</ele>
        <time>2022-10-26T14:02:25Z</time>
      </trkpt>
      <trkpt lat="43.66035" lon="1.34815">
        <ele>137.8</ele>
        <time>2022-10-26T14:02:26Z</time>
      </trkpt>
      <trkpt lat="43.66033" lon="1.34809">
        <ele>137.8</ele>
        <time>2022-10-26T14:02:27Z</time>
      </trkpt>
      <trkpt lat="43.6603" lon="1.34803">
        <ele>137.8</ele>
        <time>2022-10-26T14:02:28Z</time>
      </trkpt>
      <trkpt lat="43.66028" lon="1.34798">
        <ele>137.8</ele>
        <time>2022-10-26T14:02:29Z</time>
      </trkpt>
      <trkpt lat="43.66026" lon="1.34793">
        <ele>138</ele>
        <time>2022-10-26T14:02:30Z</time>
      </trkpt>
      <trkpt lat="43.66025" lon="1.34788">
        <ele>138.2</ele>
        <time>2022-10-26T14:02:31Z</time>
      </trkpt>
      <trkpt lat="43.66026" lon="1.34782">
        <ele>138.2</ele>
        <time>2022-10-26T14:02:32Z</time>
      </trkpt>
      <trkpt lat="43.66028" lon="1.34777">
        <ele>138.2</ele>
        <time>2022-10-26T14:02:33Z</time>
      </trkpt>
      <trkpt lat="43.66029" lon="1.34771">
        <ele>138.2</ele>
        <time>2022-10-26T14:02:34Z</time>
      </trkpt>
      <trkpt lat="43.66031" lon="1.34764">
        <ele>138.2</ele>
        <time>2022-10-26T14:02:35Z</time>
      </trkpt>
      <trkpt lat="43.66033" lon="1.34757">
        <ele>138.2</ele>
        <time>2022-10-26T14:02:36Z</time>
      </trkpt>
      <trkpt lat="43.66035" lon="1.3475">
        <ele>138.2</ele>
        <time>2022-10-26T14:02:37Z</time>
      </trkpt>
      <trkpt lat="43.66037" lon="1.34743">
        <ele>138.2</ele>
        <time>2022-10-26T14:02:38Z</time>
      </trkpt>
      <trkpt lat="43.66039" lon="1.34736">
        <ele>138.2</ele>
        <time>2022-10-26T14:02:39Z</time>
      </trkpt>
      <trkpt lat="43.6604" lon="1.34728">
        <ele>138.4</ele>
        <time>2022-10-26T14:02:40Z</time>
      </trkpt>
      <trkpt lat="43.6604" lon="1.34718">
        <ele>138.4</ele>
        <time>2022-10-26T14:02:41Z</time>
      </trkpt>
      <trkpt lat="43.66039" lon="1.34712">
        <ele>138.4</ele>
        <time>2022-10-26T14:02:42Z</time>
      </trkpt>
      <trkpt lat="43.66037" lon="1.34704">
        <ele>138.4</ele>
        <time>2022-10-26T14:02:43Z</time>
      </trkpt>
      <trkpt lat="43.66036" lon="1.34695">
        <ele>138.4</ele>
        <time>2022-10-26T14:02:44Z</time>
      </trkpt>
      <trkpt lat="43.66035" lon="1.34686">
        <ele>138.4</ele>
        <time>2022-10-26T14:02:45Z</time>
      </trkpt>
      <trkpt lat="43.66034" lon="1.34679">
        <ele>138.4</ele>
        <time>2022-10-26T14:02:46Z</time>
      </trkpt>
      <trkpt lat="43.66033" lon="1.3467">
        <ele>138.4</ele>
        <time>2022-10-26T14:02:47Z</time>
      </trkpt>
      <trkpt lat="43.66032" lon="1.34662">
        <ele>138.6</ele>
        <time>2022-10-26T14:02:48Z</time>
      </trkpt>
      <trkpt lat="43.66031" lon="1.34653">
        <ele>138.6</ele>
        <time>2022-10-26T14:02:49Z</time>
      </trkpt>
      <trkpt lat="43.6603" lon="1.34642">
        <ele>138.8</ele>
        <time>2022-10-26T14:02:50Z</time>
      </trkpt>
      <trkpt lat="43.66028" lon="1.34635">
        <ele>138.8</ele>
        <time>2022-10-26T14:02:51Z</time>
      </trkpt>
      <trkpt lat="43.66027" lon="1.34627">
        <ele>138.8</ele>
        <time>2022-10-26T14:02:52Z</time>
      </trkpt>
      <trkpt lat="43.66025" lon="1.34616">
        <ele>138.8</ele>
        <time>2022-10-26T14:02:53Z</time>
      </trkpt>
      <trkpt lat="43.66023" lon="1.34609">
        <ele>139</ele>
        <time>2022-10-26T14:02:54Z</time>
      </trkpt>
      <trkpt lat="43.66021" lon="1.34599">
        <ele>139</ele>
        <time>2022-10-26T14:02:55Z</time>
      </trkpt>
      <trkpt lat="43.66018" lon="1.3459">
        <ele>139.2</ele>
        <time>2022-10-26T14:02:56Z</time>
      </trkpt>
      <trkpt lat="43.66016" lon="1.34581">
        <ele>139.2</ele>
        <time>2022-10-26T14:02:57Z</time>
      </trkpt>
      <trkpt lat="43.66013" lon="1.34572">
        <ele>139.2</ele>
        <time>2022-10-26T14:02:58Z</time>
      </trkpt>
      <trkpt lat="43.6601" lon="1.34563">
        <ele>139.2</ele>
        <time>2022-10-26T14:02:59Z</time>
      </trkpt>
      <trkpt lat="43.66006" lon="1.34552">
        <ele>139.2</ele>
        <time>2022-10-26T14:03:00Z</time>
      </trkpt>
      <trkpt lat="43.66004" lon="1.34545">
        <ele>139.4</ele>
        <time>2022-10-26T14:03:01Z</time>
      </trkpt>
      <trkpt lat="43.66" lon="1.34537">
        <ele>139.4</ele>
        <time>2022-10-26T14:03:02Z</time>
      </trkpt>
      <trkpt lat="43.65995" lon="1.34527">
        <ele>139.4</ele>
        <time>2022-10-26T14:03:03Z</time>
      </trkpt>
      <trkpt lat="43.65991" lon="1.34518">
        <ele>139.4</ele>
        <time>2022-10-26T14:03:04Z</time>
      </trkpt>
      <trkpt lat="43.65988" lon="1.34512">
        <ele>139.4</ele>
        <time>2022-10-26T14:03:05Z</time>
      </trkpt>
      <trkpt lat="43.65984" lon="1.34504">
        <ele>139.4</ele>
        <time>2022-10-26T14:03:06Z</time>
      </trkpt>
      <trkpt lat="43.6598" lon="1.34496">
        <ele>139.4</ele>
        <time>2022-10-26T14:03:07Z</time>
      </trkpt>
      <trkpt lat="43.65975" lon="1.34488">
        <ele>139.4</ele>
        <time>2022-10-26T14:03:08Z</time>
      </trkpt>
      <trkpt lat="43.6597" lon="1.34481">
        <ele>139.4</ele>
        <time>2022-10-26T14:03:09Z</time>
      </trkpt>
      <trkpt lat="43.65965" lon="1.34474">
        <ele>139.4</ele>
        <time>2022-10-26T14:03:10Z</time>
      </trkpt>
      <trkpt lat="43.6596" lon="1.34468">
        <ele>139.4</ele>
        <time>2022-10-26T14:03:11Z</time>
      </trkpt>
      <trkpt lat="43.65954" lon="1.34462">
        <ele>139.4</ele>
        <time>2022-10-26T14:03:12Z</time>
      </trkpt>
      <trkpt lat="43.65948" lon="1.34456">
        <ele>139.4</ele>
        <time>2022-10-26T14:03:13Z</time>
      </trkpt>
      <trkpt lat="43.65943" lon="1.3445">
        <ele>139.4</ele>
        <time>2022-10-26T14:03:14Z</time>
      </trkpt>
      <trkpt lat="43.65937" lon="1.34444">
        <ele>139.4</ele>
        <time>2022-10-26T14:03:15Z</time>
      </trkpt>
      <trkpt lat="43.65931" lon="1.34438">
        <ele>139.4</ele>
        <time>2022-10-26T14:03:16Z</time>
      </trkpt>
      <trkpt lat="43.65925" lon="1.34433">
        <ele>139.4</ele>
        <time>2022-10-26T14:03:17Z</time>
      </trkpt>
      <trkpt lat="43.65918" lon="1.34427">
        <ele>139.2</ele>
        <time>2022-10-26T14:03:18Z</time>
      </trkpt>
      <trkpt lat="43.65913" lon="1.34423">
        <ele>139.2</ele>
        <time>2022-10-26T14:03:19Z</time>
      </trkpt>
      <trkpt lat="43.65907" lon="1.34418">
        <ele>139.2</ele>
        <time>2022-10-26T14:03:20Z</time>
      </trkpt>
      <trkpt lat="43.65899" lon="1.34411">
        <ele>139.2</ele>
        <time>2022-10-26T14:03:21Z</time>
      </trkpt>
      <trkpt lat="43.65894" lon="1.34407">
        <ele>139.2</ele>
        <time>2022-10-26T14:03:22Z</time>
      </trkpt>
      <trkpt lat="43.65888" lon="1.34401">
        <ele>139</ele>
        <time>2022-10-26T14:03:23Z</time>
      </trkpt>
      <trkpt lat="43.65882" lon="1.34396">
        <ele>139</ele>
        <time>2022-10-26T14:03:24Z</time>
      </trkpt>
      <trkpt lat="43.65875" lon="1.34391">
        <ele>139</ele>
        <time>2022-10-26T14:03:25Z</time>
      </trkpt>
      <trkpt lat="43.65868" lon="1.34384">
        <ele>139</ele>
        <time>2022-10-26T14:03:26Z</time>
      </trkpt>
      <trkpt lat="43.65863" lon="1.3438">
        <ele>138.8</ele>
        <time>2022-10-26T14:03:27Z</time>
      </trkpt>
      <trkpt lat="43.65856" lon="1.34374">
        <ele>138.8</ele>
        <time>2022-10-26T14:03:28Z</time>
      </trkpt>
      <trkpt lat="43.6585" lon="1.34368">
        <ele>138.8</ele>
        <time>2022-10-26T14:03:29Z</time>
      </trkpt>
      <trkpt lat="43.65845" lon="1.34361">
        <ele>139</ele>
        <time>2022-10-26T14:03:30Z</time>
      </trkpt>
      <trkpt lat="43.65839" lon="1.34353">
        <ele>138.8</ele>
        <time>2022-10-26T14:03:31Z</time>
      </trkpt>
      <trkpt lat="43.65834" lon="1.34345">
        <ele>138.8</ele>
        <time>2022-10-26T14:03:32Z</time>
      </trkpt>
      <trkpt lat="43.6583" lon="1.34336">
        <ele>138.8</ele>
        <time>2022-10-26T14:03:33Z</time>
      </trkpt>
      <trkpt lat="43.65825" lon="1.34327">
        <ele>138.6</ele>
        <time>2022-10-26T14:03:34Z</time>
      </trkpt>
      <trkpt lat="43.65821" lon="1.34318">
        <ele>138.6</ele>
        <time>2022-10-26T14:03:35Z</time>
      </trkpt>
      <trkpt lat="43.65817" lon="1.3431">
        <ele>138.6</ele>
        <time>2022-10-26T14:03:36Z</time>
      </trkpt>
      <trkpt lat="43.65814" lon="1.34301">
        <ele>138.4</ele>
        <time>2022-10-26T14:03:37Z</time>
      </trkpt>
      <trkpt lat="43.6581" lon="1.34292">
        <ele>138.2</ele>
        <time>2022-10-26T14:03:38Z</time>
      </trkpt>
      <trkpt lat="43.65807" lon="1.34283">
        <ele>138.2</ele>
        <time>2022-10-26T14:03:39Z</time>
      </trkpt>
      <trkpt lat="43.65804" lon="1.34274">
        <ele>138.2</ele>
        <time>2022-10-26T14:03:40Z</time>
      </trkpt>
      <trkpt lat="43.65802" lon="1.34265">
        <ele>138</ele>
        <time>2022-10-26T14:03:41Z</time>
      </trkpt>
      <trkpt lat="43.658" lon="1.34256">
        <ele>138</ele>
        <time>2022-10-26T14:03:42Z</time>
      </trkpt>
      <trkpt lat="43.65798" lon="1.34247">
        <ele>138</ele>
        <time>2022-10-26T14:03:43Z</time>
      </trkpt>
      <trkpt lat="43.65797" lon="1.34237">
        <ele>138</ele>
        <time>2022-10-26T14:03:44Z</time>
      </trkpt>
      <trkpt lat="43.65796" lon="1.34228">
        <ele>138</ele>
        <time>2022-10-26T14:03:45Z</time>
      </trkpt>
      <trkpt lat="43.65795" lon="1.34216">
        <ele>138</ele>
        <time>2022-10-26T14:03:46Z</time>
      </trkpt>
      <trkpt lat="43.65794" lon="1.34209">
        <ele>138</ele>
        <time>2022-10-26T14:03:47Z</time>
      </trkpt>
      <trkpt lat="43.65793" lon="1.342">
        <ele>138</ele>
        <time>2022-10-26T14:03:48Z</time>
      </trkpt>
      <trkpt lat="43.65792" lon="1.34189">
        <ele>138</ele>
        <time>2022-10-26T14:03:49Z</time>
      </trkpt>
      <trkpt lat="43.65791" lon="1.34181">
        <ele>138</ele>
        <time>2022-10-26T14:03:50Z</time>
      </trkpt>
      <trkpt lat="43.65791" lon="1.34172">
        <ele>138</ele>
        <time>2022-10-26T14:03:51Z</time>
      </trkpt>
      <trkpt lat="43.6579" lon="1.34163">
        <ele>138.2</ele>
        <time>2022-10-26T14:03:52Z</time>
      </trkpt>
      <trkpt lat="43.65789" lon="1.34153">
        <ele>138.2</ele>
        <time>2022-10-26T14:03:53Z</time>
      </trkpt>
      <trkpt lat="43.65788" lon="1.34141">
        <ele>138.2</ele>
        <time>2022-10-26T14:03:54Z</time>
      </trkpt>
      <trkpt lat="43.65787" lon="1.34133">
        <ele>138.4</ele>
        <time>2022-10-26T14:03:55Z</time>
      </trkpt>
      <trkpt lat="43.65786" lon="1.34124">
        <ele>138.4</ele>
        <time>2022-10-26T14:03:56Z</time>
      </trkpt>
      <trkpt lat="43.65785" lon="1.34114">
        <ele>138.4</ele>
        <time>2022-10-26T14:03:57Z</time>
      </trkpt>
      <trkpt lat="43.65783" lon="1.34103">
        <ele>138.4</ele>
        <time>2022-10-26T14:03:58Z</time>
      </trkpt>
      <trkpt lat="43.65782" lon="1.34093">
        <ele>138.4</ele>
        <time>2022-10-26T14:03:59Z</time>
      </trkpt>
      <trkpt lat="43.65781" lon="1.34081">
        <ele>138.6</ele>
        <time>2022-10-26T14:04:00Z</time>
      </trkpt>
      <trkpt lat="43.6578" lon="1.34073">
        <ele>138.6</ele>
        <time>2022-10-26T14:04:01Z</time>
      </trkpt>
      <trkpt lat="43.65778" lon="1.34062">
        <ele>138.6</ele>
        <time>2022-10-26T14:04:02Z</time>
      </trkpt>
      <trkpt lat="43.65776" lon="1.3405">
        <ele>138.6</ele>
        <time>2022-10-26T14:04:03Z</time>
      </trkpt>
      <trkpt lat="43.65776" lon="1.34042">
        <ele>138.6</ele>
        <time>2022-10-26T14:04:04Z</time>
      </trkpt>
      <trkpt lat="43.65775" lon="1.34031">
        <ele>138.4</ele>
        <time>2022-10-26T14:04:05Z</time>
      </trkpt>
      <trkpt lat="43.65774" lon="1.34021">
        <ele>138.4</ele>
        <time>2022-10-26T14:04:06Z</time>
      </trkpt>
      <trkpt lat="43.65773" lon="1.3401">
        <ele>138.4</ele>
        <time>2022-10-26T14:04:07Z</time>
      </trkpt>
      <trkpt lat="43.65772" lon="1.34">
        <ele>138.2</ele>
        <time>2022-10-26T14:04:08Z</time>
      </trkpt>
      <trkpt lat="43.65772" lon="1.33988">
        <ele>138.2</ele>
        <time>2022-10-26T14:04:09Z</time>
      </trkpt>
      <trkpt lat="43.65771" lon="1.33979">
        <ele>138.2</ele>
        <time>2022-10-26T14:04:10Z</time>
      </trkpt>
      <trkpt lat="43.6577" lon="1.33969">
        <ele>138.2</ele>
        <time>2022-10-26T14:04:11Z</time>
      </trkpt>
      <trkpt lat="43.65769" lon="1.33958">
        <ele>138.2</ele>
        <time>2022-10-26T14:04:12Z</time>
      </trkpt>
      <trkpt lat="43.65768" lon="1.33948">
        <ele>138.2</ele>
        <time>2022-10-26T14:04:13Z</time>
      </trkpt>
      <trkpt lat="43.65767" lon="1.33936">
        <ele>138</ele>
        <time>2022-10-26T14:04:14Z</time>
      </trkpt>
      <trkpt lat="43.65766" lon="1.33928">
        <ele>138</ele>
        <time>2022-10-26T14:04:15Z</time>
      </trkpt>
      <trkpt lat="43.65765" lon="1.33918">
        <ele>138</ele>
        <time>2022-10-26T14:04:16Z</time>
      </trkpt>
      <trkpt lat="43.65765" lon="1.33908">
        <ele>138</ele>
        <time>2022-10-26T14:04:17Z</time>
      </trkpt>
      <trkpt lat="43.65764" lon="1.33898">
        <ele>138</ele>
        <time>2022-10-26T14:04:18Z</time>
      </trkpt>
      <trkpt lat="43.65763" lon="1.33888">
        <ele>138.2</ele>
        <time>2022-10-26T14:04:19Z</time>
      </trkpt>
      <trkpt lat="43.65762" lon="1.33877">
        <ele>138.2</ele>
        <time>2022-10-26T14:04:20Z</time>
      </trkpt>
      <trkpt lat="43.65762" lon="1.33869">
        <ele>138.2</ele>
        <time>2022-10-26T14:04:21Z</time>
      </trkpt>
      <trkpt lat="43.65761" lon="1.3386">
        <ele>138.2</ele>
        <time>2022-10-26T14:04:22Z</time>
      </trkpt>
      <trkpt lat="43.6576" lon="1.33851">
        <ele>138.2</ele>
        <time>2022-10-26T14:04:23Z</time>
      </trkpt>
      <trkpt lat="43.65759" lon="1.33839">
        <ele>138.2</ele>
        <time>2022-10-26T14:04:24Z</time>
      </trkpt>
      <trkpt lat="43.65759" lon="1.33832">
        <ele>138.2</ele>
        <time>2022-10-26T14:04:25Z</time>
      </trkpt>
      <trkpt lat="43.65759" lon="1.33823">
        <ele>138.4</ele>
        <time>2022-10-26T14:04:26Z</time>
      </trkpt>
      <trkpt lat="43.65758" lon="1.33813">
        <ele>138.6</ele>
        <time>2022-10-26T14:04:27Z</time>
      </trkpt>
      <trkpt lat="43.65758" lon="1.33804">
        <ele>138.6</ele>
        <time>2022-10-26T14:04:28Z</time>
      </trkpt>
      <trkpt lat="43.65759" lon="1.33792">
        <ele>138.6</ele>
        <time>2022-10-26T14:04:29Z</time>
      </trkpt>
      <trkpt lat="43.65759" lon="1.33785">
        <ele>138.6</ele>
        <time>2022-10-26T14:04:30Z</time>
      </trkpt>
      <trkpt lat="43.6576" lon="1.33775">
        <ele>138.8</ele>
        <time>2022-10-26T14:04:31Z</time>
      </trkpt>
      <trkpt lat="43.6576" lon="1.33766">
        <ele>138.8</ele>
        <time>2022-10-26T14:04:32Z</time>
      </trkpt>
      <trkpt lat="43.65761" lon="1.33756">
        <ele>138.8</ele>
        <time>2022-10-26T14:04:33Z</time>
      </trkpt>
      <trkpt lat="43.65762" lon="1.33746">
        <ele>138.8</ele>
        <time>2022-10-26T14:04:34Z</time>
      </trkpt>
      <trkpt lat="43.65763" lon="1.33736">
        <ele>138.8</ele>
        <time>2022-10-26T14:04:35Z</time>
      </trkpt>
      <trkpt lat="43.65765" lon="1.33726">
        <ele>138.8</ele>
        <time>2022-10-26T14:04:36Z</time>
      </trkpt>
      <trkpt lat="43.65767" lon="1.33716">
        <ele>138.8</ele>
        <time>2022-10-26T14:04:37Z</time>
      </trkpt>
      <trkpt lat="43.6577" lon="1.33704">
        <ele>138.8</ele>
        <time>2022-10-26T14:04:38Z</time>
      </trkpt>
      <trkpt lat="43.65772" lon="1.33696">
        <ele>138.8</ele>
        <time>2022-10-26T14:04:39Z</time>
      </trkpt>
      <trkpt lat="43.65775" lon="1.33687">
        <ele>138.8</ele>
        <time>2022-10-26T14:04:40Z</time>
      </trkpt>
      <trkpt lat="43.65779" lon="1.33676">
        <ele>138.8</ele>
        <time>2022-10-26T14:04:41Z</time>
      </trkpt>
      <trkpt lat="43.65782" lon="1.33669">
        <ele>138.8</ele>
        <time>2022-10-26T14:04:42Z</time>
      </trkpt>
      <trkpt lat="43.65786" lon="1.3366">
        <ele>138.8</ele>
        <time>2022-10-26T14:04:43Z</time>
      </trkpt>
      <trkpt lat="43.6579" lon="1.33652">
        <ele>138.8</ele>
        <time>2022-10-26T14:04:44Z</time>
      </trkpt>
      <trkpt lat="43.65794" lon="1.33643">
        <ele>138.8</ele>
        <time>2022-10-26T14:04:45Z</time>
      </trkpt>
      <trkpt lat="43.65798" lon="1.33635">
        <ele>138.8</ele>
        <time>2022-10-26T14:04:46Z</time>
      </trkpt>
      <trkpt lat="43.65804" lon="1.33625">
        <ele>138.8</ele>
        <time>2022-10-26T14:04:47Z</time>
      </trkpt>
      <trkpt lat="43.65808" lon="1.33619">
        <ele>139</ele>
        <time>2022-10-26T14:04:48Z</time>
      </trkpt>
      <trkpt lat="43.65813" lon="1.33611">
        <ele>139</ele>
        <time>2022-10-26T14:04:49Z</time>
      </trkpt>
      <trkpt lat="43.65818" lon="1.33603">
        <ele>138.8</ele>
        <time>2022-10-26T14:04:50Z</time>
      </trkpt>
      <trkpt lat="43.65823" lon="1.33594">
        <ele>138.8</ele>
        <time>2022-10-26T14:04:51Z</time>
      </trkpt>
      <trkpt lat="43.65827" lon="1.33586">
        <ele>139</ele>
        <time>2022-10-26T14:04:52Z</time>
      </trkpt>
      <trkpt lat="43.65832" lon="1.33577">
        <ele>138.8</ele>
        <time>2022-10-26T14:04:53Z</time>
      </trkpt>
      <trkpt lat="43.65836" lon="1.33569">
        <ele>138.8</ele>
        <time>2022-10-26T14:04:54Z</time>
      </trkpt>
      <trkpt lat="43.65841" lon="1.3356">
        <ele>138.8</ele>
        <time>2022-10-26T14:04:55Z</time>
      </trkpt>
      <trkpt lat="43.65845" lon="1.33551">
        <ele>138.8</ele>
        <time>2022-10-26T14:04:56Z</time>
      </trkpt>
      <trkpt lat="43.65848" lon="1.33543">
        <ele>138.8</ele>
        <time>2022-10-26T14:04:57Z</time>
      </trkpt>
      <trkpt lat="43.65851" lon="1.33535">
        <ele>139</ele>
        <time>2022-10-26T14:04:58Z</time>
      </trkpt>
      <trkpt lat="43.65854" lon="1.33527">
        <ele>139</ele>
        <time>2022-10-26T14:04:59Z</time>
      </trkpt>
      <trkpt lat="43.65855" lon="1.3352">
        <ele>138.8</ele>
        <time>2022-10-26T14:05:00Z</time>
      </trkpt>
      <trkpt lat="43.65858" lon="1.33514">
        <ele>139</ele>
        <time>2022-10-26T14:05:01Z</time>
      </trkpt>
      <trkpt lat="43.6586" lon="1.33507">
        <ele>138.8</ele>
        <time>2022-10-26T14:05:02Z</time>
      </trkpt>
      <trkpt lat="43.65863" lon="1.335">
        <ele>138.8</ele>
        <time>2022-10-26T14:05:03Z</time>
      </trkpt>
      <trkpt lat="43.65866" lon="1.33492">
        <ele>138.6</ele>
        <time>2022-10-26T14:05:04Z</time>
      </trkpt>
      <trkpt lat="43.65869" lon="1.33483">
        <ele>138.6</ele>
        <time>2022-10-26T14:05:05Z</time>
      </trkpt>
      <trkpt lat="43.65872" lon="1.33477">
        <ele>138.6</ele>
        <time>2022-10-26T14:05:06Z</time>
      </trkpt>
      <trkpt lat="43.65876" lon="1.33469">
        <ele>138.6</ele>
        <time>2022-10-26T14:05:07Z</time>
      </trkpt>
      <trkpt lat="43.6588" lon="1.33463">
        <ele>138.4</ele>
        <time>2022-10-26T14:05:08Z</time>
      </trkpt>
      <trkpt lat="43.65884" lon="1.33456">
        <ele>138.4</ele>
        <time>2022-10-26T14:05:09Z</time>
      </trkpt>
      <trkpt lat="43.6589" lon="1.3345">
        <ele>138.4</ele>
        <time>2022-10-26T14:05:10Z</time>
      </trkpt>
      <trkpt lat="43.65896" lon="1.33442">
        <ele>138.4</ele>
        <time>2022-10-26T14:05:11Z</time>
      </trkpt>
      <trkpt lat="43.65899" lon="1.33436">
        <ele>138.4</ele>
        <time>2022-10-26T14:05:12Z</time>
      </trkpt>
      <trkpt lat="43.65904" lon="1.33428">
        <ele>138.4</ele>
        <time>2022-10-26T14:05:13Z</time>
      </trkpt>
      <trkpt lat="43.65908" lon="1.3342">
        <ele>138.6</ele>
        <time>2022-10-26T14:05:14Z</time>
      </trkpt>
      <trkpt lat="43.65912" lon="1.33412">
        <ele>138.6</ele>
        <time>2022-10-26T14:05:15Z</time>
      </trkpt>
      <trkpt lat="43.65916" lon="1.33404">
        <ele>138.6</ele>
        <time>2022-10-26T14:05:16Z</time>
      </trkpt>
      <trkpt lat="43.6592" lon="1.33395">
        <ele>138.6</ele>
        <time>2022-10-26T14:05:17Z</time>
      </trkpt>
      <trkpt lat="43.65923" lon="1.33386">
        <ele>138.6</ele>
        <time>2022-10-26T14:05:18Z</time>
      </trkpt>
      <trkpt lat="43.65927" lon="1.33375">
        <ele>138.6</ele>
        <time>2022-10-26T14:05:19Z</time>
      </trkpt>
      <trkpt lat="43.6593" lon="1.33368">
        <ele>138.6</ele>
        <time>2022-10-26T14:05:20Z</time>
      </trkpt>
      <trkpt lat="43.65933" lon="1.33359">
        <ele>138.6</ele>
        <time>2022-10-26T14:05:21Z</time>
      </trkpt>
      <trkpt lat="43.65936" lon="1.3335">
        <ele>138.6</ele>
        <time>2022-10-26T14:05:22Z</time>
      </trkpt>
      <trkpt lat="43.6594" lon="1.33341">
        <ele>138.6</ele>
        <time>2022-10-26T14:05:23Z</time>
      </trkpt>
      <trkpt lat="43.65943" lon="1.33332">
        <ele>138.8</ele>
        <time>2022-10-26T14:05:24Z</time>
      </trkpt>
      <trkpt lat="43.65947" lon="1.33322">
        <ele>138.8</ele>
        <time>2022-10-26T14:05:25Z</time>
      </trkpt>
      <trkpt lat="43.6595" lon="1.33315">
        <ele>138.8</ele>
        <time>2022-10-26T14:05:26Z</time>
      </trkpt>
      <trkpt lat="43.65955" lon="1.33307">
        <ele>138.8</ele>
        <time>2022-10-26T14:05:27Z</time>
      </trkpt>
      <trkpt lat="43.65959" lon="1.33299">
        <ele>139</ele>
        <time>2022-10-26T14:05:28Z</time>
      </trkpt>
      <trkpt lat="43.65963" lon="1.33291">
        <ele>139</ele>
        <time>2022-10-26T14:05:29Z</time>
      </trkpt>
      <trkpt lat="43.65968" lon="1.33282">
        <ele>139</ele>
        <time>2022-10-26T14:05:30Z</time>
      </trkpt>
      <trkpt lat="43.65973" lon="1.33273">
        <ele>139</ele>
        <time>2022-10-26T14:05:31Z</time>
      </trkpt>
      <trkpt lat="43.65979" lon="1.33264">
        <ele>139</ele>
        <time>2022-10-26T14:05:32Z</time>
      </trkpt>
      <trkpt lat="43.65984" lon="1.33254">
        <ele>139</ele>
        <time>2022-10-26T14:05:33Z</time>
      </trkpt>
      <trkpt lat="43.65989" lon="1.33244">
        <ele>139</ele>
        <time>2022-10-26T14:05:34Z</time>
      </trkpt>
      <trkpt lat="43.65994" lon="1.33232">
        <ele>138.8</ele>
        <time>2022-10-26T14:05:35Z</time>
      </trkpt>
      <trkpt lat="43.65997" lon="1.33224">
        <ele>138.8</ele>
        <time>2022-10-26T14:05:36Z</time>
      </trkpt>
      <trkpt lat="43.66" lon="1.33213">
        <ele>138.6</ele>
        <time>2022-10-26T14:05:37Z</time>
      </trkpt>
      <trkpt lat="43.66004" lon="1.33203">
        <ele>138.4</ele>
        <time>2022-10-26T14:05:38Z</time>
      </trkpt>
      <trkpt lat="43.66008" lon="1.33193">
        <ele>138.2</ele>
        <time>2022-10-26T14:05:39Z</time>
      </trkpt>
      <trkpt lat="43.66012" lon="1.33183">
        <ele>138</ele>
        <time>2022-10-26T14:05:40Z</time>
      </trkpt>
      <trkpt lat="43.66016" lon="1.33173">
        <ele>137.8</ele>
        <time>2022-10-26T14:05:41Z</time>
      </trkpt>
      <trkpt lat="43.66019" lon="1.33163">
        <ele>137.6</ele>
        <time>2022-10-26T14:05:42Z</time>
      </trkpt>
      <trkpt lat="43.66023" lon="1.33153">
        <ele>137.6</ele>
        <time>2022-10-26T14:05:43Z</time>
      </trkpt>
      <trkpt lat="43.66027" lon="1.3314">
        <ele>137.4</ele>
        <time>2022-10-26T14:05:44Z</time>
      </trkpt>
      <trkpt lat="43.66029" lon="1.33132">
        <ele>137.4</ele>
        <time>2022-10-26T14:05:45Z</time>
      </trkpt>
      <trkpt lat="43.66033" lon="1.33121">
        <ele>137.4</ele>
        <time>2022-10-26T14:05:46Z</time>
      </trkpt>
      <trkpt lat="43.66037" lon="1.33108">
        <ele>137.2</ele>
        <time>2022-10-26T14:05:47Z</time>
      </trkpt>
      <trkpt lat="43.66039" lon="1.33099">
        <ele>137</ele>
        <time>2022-10-26T14:05:48Z</time>
      </trkpt>
      <trkpt lat="43.66043" lon="1.33088">
        <ele>137</ele>
        <time>2022-10-26T14:05:49Z</time>
      </trkpt>
      <trkpt lat="43.66046" lon="1.33077">
        <ele>136.8</ele>
        <time>2022-10-26T14:05:50Z</time>
      </trkpt>
      <trkpt lat="43.66049" lon="1.33066">
        <ele>136.8</ele>
        <time>2022-10-26T14:05:51Z</time>
      </trkpt>
      <trkpt lat="43.66051" lon="1.33055">
        <ele>136.6</ele>
        <time>2022-10-26T14:05:52Z</time>
      </trkpt>
      <trkpt lat="43.66055" lon="1.33042">
        <ele>136.4</ele>
        <time>2022-10-26T14:05:53Z</time>
      </trkpt>
      <trkpt lat="43.66057" lon="1.33033">
        <ele>136.4</ele>
        <time>2022-10-26T14:05:54Z</time>
      </trkpt>
      <trkpt lat="43.6606" lon="1.33021">
        <ele>136.2</ele>
        <time>2022-10-26T14:05:55Z</time>
      </trkpt>
      <trkpt lat="43.66063" lon="1.3301">
        <ele>136</ele>
        <time>2022-10-26T14:05:56Z</time>
      </trkpt>
      <trkpt lat="43.66065" lon="1.32999">
        <ele>136</ele>
        <time>2022-10-26T14:05:57Z</time>
      </trkpt>
      <trkpt lat="43.66068" lon="1.32987">
        <ele>135.8</ele>
        <time>2022-10-26T14:05:58Z</time>
      </trkpt>
      <trkpt lat="43.6607" lon="1.32976">
        <ele>135.4</ele>
        <time>2022-10-26T14:05:59Z</time>
      </trkpt>
      <trkpt lat="43.66072" lon="1.32964">
        <ele>135.6</ele>
        <time>2022-10-26T14:06:00Z</time>
      </trkpt>
      <trkpt lat="43.66075" lon="1.32949">
        <ele>135.4</ele>
        <time>2022-10-26T14:06:01Z</time>
      </trkpt>
      <trkpt lat="43.66077" lon="1.3294">
        <ele>135.2</ele>
        <time>2022-10-26T14:06:02Z</time>
      </trkpt>
      <trkpt lat="43.66079" lon="1.32927">
        <ele>135.2</ele>
        <time>2022-10-26T14:06:03Z</time>
      </trkpt>
      <trkpt lat="43.66081" lon="1.32915">
        <ele>135</ele>
        <time>2022-10-26T14:06:04Z</time>
      </trkpt>
      <trkpt lat="43.66083" lon="1.32903">
        <ele>135</ele>
        <time>2022-10-26T14:06:05Z</time>
      </trkpt>
      <trkpt lat="43.66085" lon="1.32888">
        <ele>134.6</ele>
        <time>2022-10-26T14:06:06Z</time>
      </trkpt>
      <trkpt lat="43.66086" lon="1.32877">
        <ele>134.4</ele>
        <time>2022-10-26T14:06:07Z</time>
      </trkpt>
      <trkpt lat="43.66088" lon="1.32865">
        <ele>134.2</ele>
        <time>2022-10-26T14:06:08Z</time>
      </trkpt>
      <trkpt lat="43.66089" lon="1.32853">
        <ele>134</ele>
        <time>2022-10-26T14:06:09Z</time>
      </trkpt>
      <trkpt lat="43.66091" lon="1.3284">
        <ele>133.8</ele>
        <time>2022-10-26T14:06:10Z</time>
      </trkpt>
      <trkpt lat="43.66092" lon="1.32828">
        <ele>133.6</ele>
        <time>2022-10-26T14:06:11Z</time>
      </trkpt>
      <trkpt lat="43.66093" lon="1.32814">
        <ele>133.6</ele>
        <time>2022-10-26T14:06:12Z</time>
      </trkpt>
      <trkpt lat="43.66094" lon="1.32804">
        <ele>133.4</ele>
        <time>2022-10-26T14:06:13Z</time>
      </trkpt>
      <trkpt lat="43.66094" lon="1.32792">
        <ele>133.4</ele>
        <time>2022-10-26T14:06:14Z</time>
      </trkpt>
      <trkpt lat="43.66094" lon="1.32778">
        <ele>133.2</ele>
        <time>2022-10-26T14:06:15Z</time>
      </trkpt>
      <trkpt lat="43.66094" lon="1.32769">
        <ele>133</ele>
        <time>2022-10-26T14:06:16Z</time>
      </trkpt>
      <trkpt lat="43.66096" lon="1.32758">
        <ele>133</ele>
        <time>2022-10-26T14:06:17Z</time>
      </trkpt>
      <trkpt lat="43.66097" lon="1.32748">
        <ele>132.8</ele>
        <time>2022-10-26T14:06:18Z</time>
      </trkpt>
      <trkpt lat="43.66099" lon="1.32737">
        <ele>132.8</ele>
        <time>2022-10-26T14:06:19Z</time>
      </trkpt>
      <trkpt lat="43.661" lon="1.32727">
        <ele>132.8</ele>
        <time>2022-10-26T14:06:20Z</time>
      </trkpt>
      <trkpt lat="43.66102" lon="1.32717">
        <ele>132.8</ele>
        <time>2022-10-26T14:06:21Z</time>
      </trkpt>
      <trkpt lat="43.66103" lon="1.32707">
        <ele>132.8</ele>
        <time>2022-10-26T14:06:22Z</time>
      </trkpt>
      <trkpt lat="43.66104" lon="1.32697">
        <ele>132.8</ele>
        <time>2022-10-26T14:06:23Z</time>
      </trkpt>
      <trkpt lat="43.66106" lon="1.32687">
        <ele>132.8</ele>
        <time>2022-10-26T14:06:24Z</time>
      </trkpt>
      <trkpt lat="43.66107" lon="1.32677">
        <ele>132.8</ele>
        <time>2022-10-26T14:06:25Z</time>
      </trkpt>
      <trkpt lat="43.66109" lon="1.32667">
        <ele>132.8</ele>
        <time>2022-10-26T14:06:26Z</time>
      </trkpt>
      <trkpt lat="43.66111" lon="1.32656">
        <ele>132.8</ele>
        <time>2022-10-26T14:06:27Z</time>
      </trkpt>
      <trkpt lat="43.66112" lon="1.32648">
        <ele>132.8</ele>
        <time>2022-10-26T14:06:28Z</time>
      </trkpt>
      <trkpt lat="43.66114" lon="1.32639">
        <ele>133</ele>
        <time>2022-10-26T14:06:29Z</time>
      </trkpt>
      <trkpt lat="43.66115" lon="1.3263">
        <ele>133.2</ele>
        <time>2022-10-26T14:06:30Z</time>
      </trkpt>
      <trkpt lat="43.66117" lon="1.32619">
        <ele>133.2</ele>
        <time>2022-10-26T14:06:31Z</time>
      </trkpt>
      <trkpt lat="43.66118" lon="1.32612">
        <ele>133.4</ele>
        <time>2022-10-26T14:06:32Z</time>
      </trkpt>
      <trkpt lat="43.66119" lon="1.32603">
        <ele>133.4</ele>
        <time>2022-10-26T14:06:33Z</time>
      </trkpt>
      <trkpt lat="43.66121" lon="1.32594">
        <ele>133.6</ele>
        <time>2022-10-26T14:06:34Z</time>
      </trkpt>
      <trkpt lat="43.66122" lon="1.32586">
        <ele>133.8</ele>
        <time>2022-10-26T14:06:35Z</time>
      </trkpt>
      <trkpt lat="43.66123" lon="1.32578">
        <ele>134</ele>
        <time>2022-10-26T14:06:36Z</time>
      </trkpt>
      <trkpt lat="43.66124" lon="1.3257">
        <ele>134.2</ele>
        <time>2022-10-26T14:06:37Z</time>
      </trkpt>
      <trkpt lat="43.66125" lon="1.32562">
        <ele>134.2</ele>
        <time>2022-10-26T14:06:38Z</time>
      </trkpt>
      <trkpt lat="43.66126" lon="1.32553">
        <ele>134.4</ele>
        <time>2022-10-26T14:06:39Z</time>
      </trkpt>
      <trkpt lat="43.66126" lon="1.32548">
        <ele>134.6</ele>
        <time>2022-10-26T14:06:40Z</time>
      </trkpt>
      <trkpt lat="43.66125" lon="1.32541">
        <ele>134.8</ele>
        <time>2022-10-26T14:06:41Z</time>
      </trkpt>
      <trkpt lat="43.66124" lon="1.32535">
        <ele>135</ele>
        <time>2022-10-26T14:06:42Z</time>
      </trkpt>
      <trkpt lat="43.66122" lon="1.32531">
        <ele>135.2</ele>
        <time>2022-10-26T14:06:43Z</time>
      </trkpt>
      <trkpt lat="43.66119" lon="1.32526">
        <ele>135.4</ele>
        <time>2022-10-26T14:06:44Z</time>
      </trkpt>
      <trkpt lat="43.66117" lon="1.32525">
        <ele>135.4</ele>
        <time>2022-10-26T14:06:45Z</time>
      </trkpt>
      <trkpt lat="43.66113" lon="1.32525">
        <ele>135.8</ele>
        <time>2022-10-26T14:06:46Z</time>
      </trkpt>
      <trkpt lat="43.66108" lon="1.32526">
        <ele>136</ele>
        <time>2022-10-26T14:06:47Z</time>
      </trkpt>
      <trkpt lat="43.66104" lon="1.32528">
        <ele>136.2</ele>
        <time>2022-10-26T14:06:48Z</time>
      </trkpt>
      <trkpt lat="43.66099" lon="1.32529">
        <ele>136.4</ele>
        <time>2022-10-26T14:06:49Z</time>
      </trkpt>
      <trkpt lat="43.66093" lon="1.32531">
        <ele>136.6</ele>
        <time>2022-10-26T14:06:50Z</time>
      </trkpt>
      <trkpt lat="43.66088" lon="1.32532">
        <ele>136.6</ele>
        <time>2022-10-26T14:06:51Z</time>
      </trkpt>
      <trkpt lat="43.66083" lon="1.32533">
        <ele>136.8</ele>
        <time>2022-10-26T14:06:52Z</time>
      </trkpt>
      <trkpt lat="43.66076" lon="1.32534">
        <ele>136.8</ele>
        <time>2022-10-26T14:06:53Z</time>
      </trkpt>
      <trkpt lat="43.66071" lon="1.32535">
        <ele>137</ele>
        <time>2022-10-26T14:06:54Z</time>
      </trkpt>
      <trkpt lat="43.66065" lon="1.32537">
        <ele>137</ele>
        <time>2022-10-26T14:06:55Z</time>
      </trkpt>
      <trkpt lat="43.66059" lon="1.32538">
        <ele>137</ele>
        <time>2022-10-26T14:06:56Z</time>
      </trkpt>
      <trkpt lat="43.66053" lon="1.3254">
        <ele>137.2</ele>
        <time>2022-10-26T14:06:57Z</time>
      </trkpt>
      <trkpt lat="43.66047" lon="1.32542">
        <ele>137.2</ele>
        <time>2022-10-26T14:06:58Z</time>
      </trkpt>
      <trkpt lat="43.66039" lon="1.32545">
        <ele>137.2</ele>
        <time>2022-10-26T14:06:59Z</time>
      </trkpt>
      <trkpt lat="43.66034" lon="1.32546">
        <ele>137.2</ele>
        <time>2022-10-26T14:07:00Z</time>
      </trkpt>
      <trkpt lat="43.66028" lon="1.32548">
        <ele>137.2</ele>
        <time>2022-10-26T14:07:01Z</time>
      </trkpt>
      <trkpt lat="43.66021" lon="1.32551">
        <ele>137.2</ele>
        <time>2022-10-26T14:07:02Z</time>
      </trkpt>
      <trkpt lat="43.66014" lon="1.32554">
        <ele>137.2</ele>
        <time>2022-10-26T14:07:03Z</time>
      </trkpt>
      <trkpt lat="43.66006" lon="1.32557">
        <ele>137.2</ele>
        <time>2022-10-26T14:07:04Z</time>
      </trkpt>
      <trkpt lat="43.66" lon="1.3256">
        <ele>137</ele>
        <time>2022-10-26T14:07:05Z</time>
      </trkpt>
      <trkpt lat="43.65994" lon="1.32564">
        <ele>137</ele>
        <time>2022-10-26T14:07:06Z</time>
      </trkpt>
      <trkpt lat="43.65987" lon="1.32568">
        <ele>137</ele>
        <time>2022-10-26T14:07:07Z</time>
      </trkpt>
      <trkpt lat="43.6598" lon="1.32573">
        <ele>136.8</ele>
        <time>2022-10-26T14:07:08Z</time>
      </trkpt>
      <trkpt lat="43.65973" lon="1.32577">
        <ele>136.8</ele>
        <time>2022-10-26T14:07:09Z</time>
      </trkpt>
      <trkpt lat="43.65966" lon="1.32582">
        <ele>136.8</ele>
        <time>2022-10-26T14:07:10Z</time>
      </trkpt>
      <trkpt lat="43.65959" lon="1.32586">
        <ele>136.8</ele>
        <time>2022-10-26T14:07:11Z</time>
      </trkpt>
      <trkpt lat="43.65952" lon="1.3259">
        <ele>136.6</ele>
        <time>2022-10-26T14:07:12Z</time>
      </trkpt>
      <trkpt lat="43.65945" lon="1.32593">
        <ele>136.6</ele>
        <time>2022-10-26T14:07:13Z</time>
      </trkpt>
      <trkpt lat="43.65937" lon="1.32598">
        <ele>136.6</ele>
        <time>2022-10-26T14:07:14Z</time>
      </trkpt>
      <trkpt lat="43.65931" lon="1.32601">
        <ele>136.6</ele>
        <time>2022-10-26T14:07:15Z</time>
      </trkpt>
      <trkpt lat="43.65923" lon="1.32604">
        <ele>136.6</ele>
        <time>2022-10-26T14:07:16Z</time>
      </trkpt>
      <trkpt lat="43.65916" lon="1.32608">
        <ele>136.6</ele>
        <time>2022-10-26T14:07:17Z</time>
      </trkpt>
      <trkpt lat="43.65907" lon="1.32612">
        <ele>136.6</ele>
        <time>2022-10-26T14:07:18Z</time>
      </trkpt>
      <trkpt lat="43.65901" lon="1.32615">
        <ele>136.4</ele>
        <time>2022-10-26T14:07:19Z</time>
      </trkpt>
      <trkpt lat="43.65893" lon="1.32619">
        <ele>136</ele>
        <time>2022-10-26T14:07:20Z</time>
      </trkpt>
      <trkpt lat="43.65884" lon="1.32623">
        <ele>135.8</ele>
        <time>2022-10-26T14:07:21Z</time>
      </trkpt>
      <trkpt lat="43.65878" lon="1.32626">
        <ele>135.6</ele>
        <time>2022-10-26T14:07:22Z</time>
      </trkpt>
      <trkpt lat="43.6587" lon="1.32629">
        <ele>135.4</ele>
        <time>2022-10-26T14:07:23Z</time>
      </trkpt>
      <trkpt lat="43.65862" lon="1.32632">
        <ele>135.2</ele>
        <time>2022-10-26T14:07:24Z</time>
      </trkpt>
      <trkpt lat="43.65855" lon="1.32636">
        <ele>135.2</ele>
        <time>2022-10-26T14:07:25Z</time>
      </trkpt>
      <trkpt lat="43.65848" lon="1.32639">
        <ele>135</ele>
        <time>2022-10-26T14:07:26Z</time>
      </trkpt>
      <trkpt lat="43.65839" lon="1.32644">
        <ele>135</ele>
        <time>2022-10-26T14:07:27Z</time>
      </trkpt>
      <trkpt lat="43.65833" lon="1.32647">
        <ele>134.8</ele>
        <time>2022-10-26T14:07:28Z</time>
      </trkpt>
      <trkpt lat="43.65827" lon="1.32651">
        <ele>134.8</ele>
        <time>2022-10-26T14:07:29Z</time>
      </trkpt>
      <trkpt lat="43.65821" lon="1.32655">
        <ele>134.8</ele>
        <time>2022-10-26T14:07:30Z</time>
      </trkpt>
      <trkpt lat="43.65813" lon="1.3266">
        <ele>134.6</ele>
        <time>2022-10-26T14:07:31Z</time>
      </trkpt>
      <trkpt lat="43.65806" lon="1.32664">
        <ele>134.6</ele>
        <time>2022-10-26T14:07:32Z</time>
      </trkpt>
      <trkpt lat="43.65801" lon="1.32666">
        <ele>134.6</ele>
        <time>2022-10-26T14:07:33Z</time>
      </trkpt>
      <trkpt lat="43.65794" lon="1.3267">
        <ele>134.4</ele>
        <time>2022-10-26T14:07:34Z</time>
      </trkpt>
      <trkpt lat="43.65786" lon="1.32674">
        <ele>134.4</ele>
        <time>2022-10-26T14:07:35Z</time>
      </trkpt>
      <trkpt lat="43.6578" lon="1.32677">
        <ele>134.4</ele>
        <time>2022-10-26T14:07:36Z</time>
      </trkpt>
      <trkpt lat="43.65772" lon="1.32681">
        <ele>134.4</ele>
        <time>2022-10-26T14:07:37Z</time>
      </trkpt>
      <trkpt lat="43.65767" lon="1.32684">
        <ele>134.2</ele>
        <time>2022-10-26T14:07:38Z</time>
      </trkpt>
      <trkpt lat="43.6576" lon="1.32687">
        <ele>134.2</ele>
        <time>2022-10-26T14:07:39Z</time>
      </trkpt>
      <trkpt lat="43.65753" lon="1.3269">
        <ele>134.2</ele>
        <time>2022-10-26T14:07:40Z</time>
      </trkpt>
      <trkpt lat="43.65746" lon="1.32695">
        <ele>134.2</ele>
        <time>2022-10-26T14:07:41Z</time>
      </trkpt>
      <trkpt lat="43.65739" lon="1.32698">
        <ele>134.2</ele>
        <time>2022-10-26T14:07:42Z</time>
      </trkpt>
      <trkpt lat="43.65734" lon="1.32701">
        <ele>134.2</ele>
        <time>2022-10-26T14:07:43Z</time>
      </trkpt>
      <trkpt lat="43.65728" lon="1.32705">
        <ele>134.2</ele>
        <time>2022-10-26T14:07:44Z</time>
      </trkpt>
      <trkpt lat="43.65721" lon="1.32709">
        <ele>134.2</ele>
        <time>2022-10-26T14:07:45Z</time>
      </trkpt>
      <trkpt lat="43.65715" lon="1.32712">
        <ele>134.2</ele>
        <time>2022-10-26T14:07:46Z</time>
      </trkpt>
      <trkpt lat="43.65709" lon="1.32716">
        <ele>134.2</ele>
        <time>2022-10-26T14:07:47Z</time>
      </trkpt>
      <trkpt lat="43.65703" lon="1.32719">
        <ele>134.2</ele>
        <time>2022-10-26T14:07:48Z</time>
      </trkpt>
      <trkpt lat="43.65696" lon="1.32722">
        <ele>134.2</ele>
        <time>2022-10-26T14:07:49Z</time>
      </trkpt>
      <trkpt lat="43.6569" lon="1.32726">
        <ele>134.2</ele>
        <time>2022-10-26T14:07:50Z</time>
      </trkpt>
      <trkpt lat="43.65683" lon="1.3273">
        <ele>134.2</ele>
        <time>2022-10-26T14:07:51Z</time>
      </trkpt>
      <trkpt lat="43.65678" lon="1.32732">
        <ele>134</ele>
        <time>2022-10-26T14:07:52Z</time>
      </trkpt>
      <trkpt lat="43.65673" lon="1.32734">
        <ele>134</ele>
        <time>2022-10-26T14:07:53Z</time>
      </trkpt>
      <trkpt lat="43.65667" lon="1.32737">
        <ele>134</ele>
        <time>2022-10-26T14:07:54Z</time>
      </trkpt>
      <trkpt lat="43.65662" lon="1.3274">
        <ele>133.8</ele>
        <time>2022-10-26T14:07:55Z</time>
      </trkpt>
      <trkpt lat="43.65657" lon="1.32743">
        <ele>133.8</ele>
        <time>2022-10-26T14:07:56Z</time>
      </trkpt>
      <trkpt lat="43.65653" lon="1.32746">
        <ele>133.8</ele>
        <time>2022-10-26T14:07:57Z</time>
      </trkpt>
      <trkpt lat="43.65648" lon="1.32748">
        <ele>133.8</ele>
        <time>2022-10-26T14:07:58Z</time>
      </trkpt>
      <trkpt lat="43.65643" lon="1.32751">
        <ele>133.6</ele>
        <time>2022-10-26T14:07:59Z</time>
      </trkpt>
      <trkpt lat="43.65638" lon="1.32753">
        <ele>133.6</ele>
        <time>2022-10-26T14:08:00Z</time>
      </trkpt>
      <trkpt lat="43.65634" lon="1.32754">
        <ele>133.6</ele>
        <time>2022-10-26T14:08:01Z</time>
      </trkpt>
      <trkpt lat="43.65631" lon="1.32754">
        <ele>133.4</ele>
        <time>2022-10-26T14:08:02Z</time>
      </trkpt>
      <trkpt lat="43.65629" lon="1.32755">
        <ele>133.4</ele>
        <time>2022-10-26T14:08:03Z</time>
      </trkpt>
      <trkpt lat="43.65629" lon="1.32756">
        <ele>133.2</ele>
        <time>2022-10-26T14:08:04Z</time>
      </trkpt>
      <trkpt lat="43.6563" lon="1.32757">
        <ele>133.2</ele>
        <time>2022-10-26T14:08:05Z</time>
      </trkpt>
      <trkpt lat="43.65631" lon="1.32756">
        <ele>133.4</ele>
        <time>2022-10-26T14:08:06Z</time>
      </trkpt>
      <trkpt lat="43.65633" lon="1.32755">
        <ele>133.2</ele>
        <time>2022-10-26T14:08:07Z</time>
      </trkpt>
      <trkpt lat="43.65636" lon="1.32753">
        <ele>133.2</ele>
        <time>2022-10-26T14:08:08Z</time>
      </trkpt>
      <trkpt lat="43.65638" lon="1.32752">
        <ele>133.2</ele>
        <time>2022-10-26T14:08:09Z</time>
      </trkpt>
      <trkpt lat="43.65641" lon="1.32751">
        <ele>133</ele>
        <time>2022-10-26T14:08:10Z</time>
      </trkpt>
      <trkpt lat="43.65644" lon="1.3275">
        <ele>133</ele>
        <time>2022-10-26T14:08:11Z</time>
      </trkpt>
      <trkpt lat="43.65647" lon="1.32749">
        <ele>133</ele>
        <time>2022-10-26T14:08:12Z</time>
      </trkpt>
      <trkpt lat="43.65651" lon="1.32748">
        <ele>132.8</ele>
        <time>2022-10-26T14:08:13Z</time>
      </trkpt>
      <trkpt lat="43.65655" lon="1.32746">
        <ele>132.8</ele>
        <time>2022-10-26T14:08:14Z</time>
      </trkpt>
      <trkpt lat="43.65657" lon="1.32743">
        <ele>132.6</ele>
        <time>2022-10-26T14:08:15Z</time>
      </trkpt>
      <trkpt lat="43.65659" lon="1.3274">
        <ele>132.6</ele>
        <time>2022-10-26T14:08:16Z</time>
      </trkpt>
      <trkpt lat="43.65659" lon="1.32735">
        <ele>132.6</ele>
        <time>2022-10-26T14:08:17Z</time>
      </trkpt>
      <trkpt lat="43.65657" lon="1.32732">
        <ele>132.4</ele>
        <time>2022-10-26T14:08:18Z</time>
      </trkpt>
      <trkpt lat="43.65653" lon="1.32729">
        <ele>132.2</ele>
        <time>2022-10-26T14:08:19Z</time>
      </trkpt>
      <trkpt lat="43.65649" lon="1.32727">
        <ele>132.2</ele>
        <time>2022-10-26T14:08:20Z</time>
      </trkpt>
      <trkpt lat="43.65645" lon="1.32726">
        <ele>132</ele>
        <time>2022-10-26T14:08:21Z</time>
      </trkpt>
      <trkpt lat="43.6564" lon="1.32724">
        <ele>132</ele>
        <time>2022-10-26T14:08:22Z</time>
      </trkpt>
      <trkpt lat="43.65634" lon="1.32722">
        <ele>131.8</ele>
        <time>2022-10-26T14:08:23Z</time>
      </trkpt>
      <trkpt lat="43.65629" lon="1.3272">
        <ele>131.8</ele>
        <time>2022-10-26T14:08:24Z</time>
      </trkpt>
      <trkpt lat="43.65624" lon="1.32718">
        <ele>131.6</ele>
        <time>2022-10-26T14:08:25Z</time>
      </trkpt>
      <trkpt lat="43.65619" lon="1.32715">
        <ele>131.4</ele>
        <time>2022-10-26T14:08:26Z</time>
      </trkpt>
      <trkpt lat="43.65614" lon="1.32713">
        <ele>131.4</ele>
        <time>2022-10-26T14:08:27Z</time>
      </trkpt>
      <trkpt lat="43.65609" lon="1.32711">
        <ele>131.4</ele>
        <time>2022-10-26T14:08:28Z</time>
      </trkpt>
      <trkpt lat="43.65604" lon="1.32708">
        <ele>131.4</ele>
        <time>2022-10-26T14:08:29Z</time>
      </trkpt>
      <trkpt lat="43.65599" lon="1.32705">
        <ele>131.4</ele>
        <time>2022-10-26T14:08:30Z</time>
      </trkpt>
      <trkpt lat="43.65594" lon="1.32703">
        <ele>131.4</ele>
        <time>2022-10-26T14:08:31Z</time>
      </trkpt>
      <trkpt lat="43.65588" lon="1.32701">
        <ele>131.4</ele>
        <time>2022-10-26T14:08:32Z</time>
      </trkpt>
      <trkpt lat="43.65583" lon="1.32699">
        <ele>131.2</ele>
        <time>2022-10-26T14:08:33Z</time>
      </trkpt>
      <trkpt lat="43.65578" lon="1.32697">
        <ele>131.4</ele>
        <time>2022-10-26T14:08:34Z</time>
      </trkpt>
      <trkpt lat="43.65572" lon="1.32696">
        <ele>131.4</ele>
        <time>2022-10-26T14:08:35Z</time>
      </trkpt>
      <trkpt lat="43.65566" lon="1.32694">
        <ele>131.4</ele>
        <time>2022-10-26T14:08:36Z</time>
      </trkpt>
      <trkpt lat="43.65561" lon="1.32692">
        <ele>131.4</ele>
        <time>2022-10-26T14:08:37Z</time>
      </trkpt>
      <trkpt lat="43.65555" lon="1.3269">
        <ele>131.4</ele>
        <time>2022-10-26T14:08:38Z</time>
      </trkpt>
      <trkpt lat="43.65551" lon="1.32689">
        <ele>131.2</ele>
        <time>2022-10-26T14:08:39Z</time>
      </trkpt>
      <trkpt lat="43.65546" lon="1.32688">
        <ele>131.2</ele>
        <time>2022-10-26T14:08:40Z</time>
      </trkpt>
      <trkpt lat="43.6554" lon="1.32687">
        <ele>131.4</ele>
        <time>2022-10-26T14:08:41Z</time>
      </trkpt>
      <trkpt lat="43.65536" lon="1.32686">
        <ele>131.4</ele>
        <time>2022-10-26T14:08:42Z</time>
      </trkpt>
      <trkpt lat="43.65531" lon="1.32684">
        <ele>131.4</ele>
        <time>2022-10-26T14:08:43Z</time>
      </trkpt>
      <trkpt lat="43.65526" lon="1.32682">
        <ele>131.2</ele>
        <time>2022-10-26T14:08:44Z</time>
      </trkpt>
      <trkpt lat="43.65521" lon="1.32679">
        <ele>131.4</ele>
        <time>2022-10-26T14:08:45Z</time>
      </trkpt>
      <trkpt lat="43.65516" lon="1.32677">
        <ele>131.4</ele>
        <time>2022-10-26T14:08:46Z</time>
      </trkpt>
      <trkpt lat="43.65511" lon="1.32675">
        <ele>131.4</ele>
        <time>2022-10-26T14:08:47Z</time>
      </trkpt>
      <trkpt lat="43.65506" lon="1.32672">
        <ele>131.4</ele>
        <time>2022-10-26T14:08:48Z</time>
      </trkpt>
      <trkpt lat="43.655" lon="1.3267">
        <ele>131.4</ele>
        <time>2022-10-26T14:08:49Z</time>
      </trkpt>
      <trkpt lat="43.65495" lon="1.32668">
        <ele>131.4</ele>
        <time>2022-10-26T14:08:50Z</time>
      </trkpt>
      <trkpt lat="43.6549" lon="1.32665">
        <ele>131.4</ele>
        <time>2022-10-26T14:08:51Z</time>
      </trkpt>
      <trkpt lat="43.65483" lon="1.32662">
        <ele>131.6</ele>
        <time>2022-10-26T14:08:52Z</time>
      </trkpt>
      <trkpt lat="43.65479" lon="1.32661">
        <ele>131.6</ele>
        <time>2022-10-26T14:08:53Z</time>
      </trkpt>
      <trkpt lat="43.65474" lon="1.32659">
        <ele>131.8</ele>
        <time>2022-10-26T14:08:54Z</time>
      </trkpt>
      <trkpt lat="43.65468" lon="1.32656">
        <ele>131.8</ele>
        <time>2022-10-26T14:08:55Z</time>
      </trkpt>
      <trkpt lat="43.65463" lon="1.32653">
        <ele>132</ele>
        <time>2022-10-26T14:08:56Z</time>
      </trkpt>
      <trkpt lat="43.65459" lon="1.32651">
        <ele>132</ele>
        <time>2022-10-26T14:08:57Z</time>
      </trkpt>
      <trkpt lat="43.65454" lon="1.32648">
        <ele>132</ele>
        <time>2022-10-26T14:08:58Z</time>
      </trkpt>
      <trkpt lat="43.65449" lon="1.32645">
        <ele>132</ele>
        <time>2022-10-26T14:08:59Z</time>
      </trkpt>
      <trkpt lat="43.65444" lon="1.32641">
        <ele>132</ele>
        <time>2022-10-26T14:09:00Z</time>
      </trkpt>
      <trkpt lat="43.65438" lon="1.32637">
        <ele>132.2</ele>
        <time>2022-10-26T14:09:01Z</time>
      </trkpt>
      <trkpt lat="43.65434" lon="1.32633">
        <ele>132.2</ele>
        <time>2022-10-26T14:09:02Z</time>
      </trkpt>
      <trkpt lat="43.65431" lon="1.32629">
        <ele>132.4</ele>
        <time>2022-10-26T14:09:03Z</time>
      </trkpt>
      <trkpt lat="43.65427" lon="1.32624">
        <ele>132.6</ele>
        <time>2022-10-26T14:09:04Z</time>
      </trkpt>
      <trkpt lat="43.65422" lon="1.32618">
        <ele>132.8</ele>
        <time>2022-10-26T14:09:05Z</time>
      </trkpt>
      <trkpt lat="43.65419" lon="1.32612">
        <ele>133</ele>
        <time>2022-10-26T14:09:06Z</time>
      </trkpt>
      <trkpt lat="43.65416" lon="1.32608">
        <ele>133.2</ele>
        <time>2022-10-26T14:09:07Z</time>
      </trkpt>
      <trkpt lat="43.65413" lon="1.32602">
        <ele>133.4</ele>
        <time>2022-10-26T14:09:08Z</time>
      </trkpt>
      <trkpt lat="43.6541" lon="1.32596">
        <ele>133.4</ele>
        <time>2022-10-26T14:09:09Z</time>
      </trkpt>
      <trkpt lat="43.65407" lon="1.3259">
        <ele>133.4</ele>
        <time>2022-10-26T14:09:10Z</time>
      </trkpt>
      <trkpt lat="43.65405" lon="1.32581">
        <ele>133.6</ele>
        <time>2022-10-26T14:09:11Z</time>
      </trkpt>
      <trkpt lat="43.65403" lon="1.32576">
        <ele>133.6</ele>
        <time>2022-10-26T14:09:12Z</time>
      </trkpt>
      <trkpt lat="43.65402" lon="1.32569">
        <ele>133.8</ele>
        <time>2022-10-26T14:09:13Z</time>
      </trkpt>
      <trkpt lat="43.654" lon="1.32561">
        <ele>133.8</ele>
        <time>2022-10-26T14:09:14Z</time>
      </trkpt>
      <trkpt lat="43.65399" lon="1.32554">
        <ele>134</ele>
        <time>2022-10-26T14:09:15Z</time>
      </trkpt>
      <trkpt lat="43.65397" lon="1.32547">
        <ele>134.2</ele>
        <time>2022-10-26T14:09:16Z</time>
      </trkpt>
      <trkpt lat="43.65396" lon="1.32542">
        <ele>134.2</ele>
        <time>2022-10-26T14:09:17Z</time>
      </trkpt>
      <trkpt lat="43.65394" lon="1.32535">
        <ele>134.4</ele>
        <time>2022-10-26T14:09:18Z</time>
      </trkpt>
      <trkpt lat="43.65392" lon="1.32529">
        <ele>134.4</ele>
        <time>2022-10-26T14:09:19Z</time>
      </trkpt>
      <trkpt lat="43.65391" lon="1.32525">
        <ele>134.6</ele>
        <time>2022-10-26T14:09:20Z</time>
      </trkpt>
      <trkpt lat="43.65389" lon="1.32522">
        <ele>134.6</ele>
        <time>2022-10-26T14:09:21Z</time>
      </trkpt>
      <trkpt lat="43.65389" lon="1.32521">
        <ele>134.8</ele>
        <time>2022-10-26T14:09:22Z</time>
      </trkpt>
      <trkpt lat="43.65388" lon="1.32519">
        <ele>135</ele>
        <time>2022-10-26T14:09:23Z</time>
      </trkpt>
      <trkpt lat="43.65388" lon="1.32517">
        <ele>135</ele>
        <time>2022-10-26T14:09:24Z</time>
      </trkpt>
      <trkpt lat="43.65388" lon="1.32515">
        <ele>135.2</ele>
        <time>2022-10-26T14:09:25Z</time>
      </trkpt>
      <trkpt lat="43.65387" lon="1.32513">
        <ele>135.2</ele>
        <time>2022-10-26T14:09:26Z</time>
      </trkpt>
      <trkpt lat="43.65386" lon="1.32509">
        <ele>135.2</ele>
        <time>2022-10-26T14:09:27Z</time>
      </trkpt>
      <trkpt lat="43.65385" lon="1.32504">
        <ele>135.2</ele>
        <time>2022-10-26T14:09:28Z</time>
      </trkpt>
      <trkpt lat="43.65384" lon="1.32499">
        <ele>135.2</ele>
        <time>2022-10-26T14:09:29Z</time>
      </trkpt>
      <trkpt lat="43.65383" lon="1.32494">
        <ele>135.2</ele>
        <time>2022-10-26T14:09:30Z</time>
      </trkpt>
      <trkpt lat="43.65381" lon="1.32487">
        <ele>135.2</ele>
        <time>2022-10-26T14:09:31Z</time>
      </trkpt>
      <trkpt lat="43.65378" lon="1.32481">
        <ele>135.2</ele>
        <time>2022-10-26T14:09:32Z</time>
      </trkpt>
      <trkpt lat="43.65376" lon="1.32473">
        <ele>135.2</ele>
        <time>2022-10-26T14:09:33Z</time>
      </trkpt>
      <trkpt lat="43.65375" lon="1.32467">
        <ele>135.2</ele>
        <time>2022-10-26T14:09:34Z</time>
      </trkpt>
      <trkpt lat="43.65372" lon="1.32459">
        <ele>135.2</ele>
        <time>2022-10-26T14:09:35Z</time>
      </trkpt>
      <trkpt lat="43.6537" lon="1.32453">
        <ele>135.2</ele>
        <time>2022-10-26T14:09:36Z</time>
      </trkpt>
      <trkpt lat="43.65367" lon="1.32445">
        <ele>135.2</ele>
        <time>2022-10-26T14:09:37Z</time>
      </trkpt>
      <trkpt lat="43.65365" lon="1.32438">
        <ele>135.2</ele>
        <time>2022-10-26T14:09:38Z</time>
      </trkpt>
      <trkpt lat="43.65362" lon="1.32431">
        <ele>135.2</ele>
        <time>2022-10-26T14:09:39Z</time>
      </trkpt>
      <trkpt lat="43.6536" lon="1.32425">
        <ele>135.2</ele>
        <time>2022-10-26T14:09:40Z</time>
      </trkpt>
      <trkpt lat="43.65358" lon="1.32418">
        <ele>135.2</ele>
        <time>2022-10-26T14:09:41Z</time>
      </trkpt>
      <trkpt lat="43.65355" lon="1.32409">
        <ele>135.2</ele>
        <time>2022-10-26T14:09:42Z</time>
      </trkpt>
      <trkpt lat="43.65352" lon="1.32402">
        <ele>135.2</ele>
        <time>2022-10-26T14:09:43Z</time>
      </trkpt>
      <trkpt lat="43.6535" lon="1.32395">
        <ele>135.2</ele>
        <time>2022-10-26T14:09:44Z</time>
      </trkpt>
      <trkpt lat="43.65347" lon="1.32389">
        <ele>135.2</ele>
        <time>2022-10-26T14:09:45Z</time>
      </trkpt>
      <trkpt lat="43.65344" lon="1.32382">
        <ele>135.4</ele>
        <time>2022-10-26T14:09:46Z</time>
      </trkpt>
      <trkpt lat="43.65341" lon="1.32374">
        <ele>135.4</ele>
        <time>2022-10-26T14:09:47Z</time>
      </trkpt>
      <trkpt lat="43.65338" lon="1.32368">
        <ele>135.2</ele>
        <time>2022-10-26T14:09:48Z</time>
      </trkpt>
      <trkpt lat="43.65337" lon="1.32364">
        <ele>135.2</ele>
        <time>2022-10-26T14:09:49Z</time>
      </trkpt>
      <trkpt lat="43.65336" lon="1.32361">
        <ele>135.2</ele>
        <time>2022-10-26T14:09:50Z</time>
      </trkpt>
      <trkpt lat="43.65335" lon="1.32359">
        <ele>135.2</ele>
        <time>2022-10-26T14:09:51Z</time>
      </trkpt>
      <trkpt lat="43.65334" lon="1.32359">
        <ele>135.2</ele>
        <time>2022-10-26T14:09:52Z</time>
      </trkpt>
      <trkpt lat="43.65334" lon="1.32359">
        <ele>135.2</ele>
        <time>2022-10-26T14:09:53Z</time>
      </trkpt>
      <trkpt lat="43.65334" lon="1.32359">
        <ele>135.2</ele>
        <time>2022-10-26T14:09:54Z</time>
      </trkpt>
      <trkpt lat="43.6533" lon="1.32359">
        <ele>133.2</ele>
        <time>2022-10-26T14:12:01Z</time>
      </trkpt>
      <trkpt lat="43.65328" lon="1.32359">
        <ele>133.2</ele>
        <time>2022-10-26T14:12:02Z</time>
      </trkpt>
      <trkpt lat="43.65326" lon="1.3236">
        <ele>133.2</ele>
        <time>2022-10-26T14:12:03Z</time>
      </trkpt>
      <trkpt lat="43.65324" lon="1.32362">
        <ele>133.2</ele>
        <time>2022-10-26T14:12:04Z</time>
      </trkpt>
      <trkpt lat="43.65321" lon="1.32365">
        <ele>133.2</ele>
        <time>2022-10-26T14:12:05Z</time>
      </trkpt>
      <trkpt lat="43.65317" lon="1.32367">
        <ele>133.2</ele>
        <time>2022-10-26T14:12:06Z</time>
      </trkpt>
      <trkpt lat="43.65315" lon="1.3237">
        <ele>133.2</ele>
        <time>2022-10-26T14:12:07Z</time>
      </trkpt>
      <trkpt lat="43.65311" lon="1.32373">
        <ele>133.4</ele>
        <time>2022-10-26T14:12:08Z</time>
      </trkpt>
      <trkpt lat="43.65307" lon="1.32377">
        <ele>133.4</ele>
        <time>2022-10-26T14:12:09Z</time>
      </trkpt>
      <trkpt lat="43.65302" lon="1.32381">
        <ele>133.6</ele>
        <time>2022-10-26T14:12:10Z</time>
      </trkpt>
      <trkpt lat="43.65298" lon="1.32384">
        <ele>133.6</ele>
        <time>2022-10-26T14:12:11Z</time>
      </trkpt>
      <trkpt lat="43.65294" lon="1.32387">
        <ele>133.6</ele>
        <time>2022-10-26T14:12:12Z</time>
      </trkpt>
      <trkpt lat="43.6529" lon="1.3239">
        <ele>133.6</ele>
        <time>2022-10-26T14:12:13Z</time>
      </trkpt>
      <trkpt lat="43.65284" lon="1.32394">
        <ele>133.6</ele>
        <time>2022-10-26T14:12:14Z</time>
      </trkpt>
      <trkpt lat="43.65279" lon="1.32399">
        <ele>133.6</ele>
        <time>2022-10-26T14:12:15Z</time>
      </trkpt>
      <trkpt lat="43.65274" lon="1.32403">
        <ele>133.6</ele>
        <time>2022-10-26T14:12:16Z</time>
      </trkpt>
      <trkpt lat="43.6527" lon="1.32406">
        <ele>133.8</ele>
        <time>2022-10-26T14:12:17Z</time>
      </trkpt>
      <trkpt lat="43.65264" lon="1.32411">
        <ele>133.6</ele>
        <time>2022-10-26T14:12:18Z</time>
      </trkpt>
      <trkpt lat="43.65257" lon="1.32416">
        <ele>133.6</ele>
        <time>2022-10-26T14:12:19Z</time>
      </trkpt>
      <trkpt lat="43.65251" lon="1.3242">
        <ele>133.6</ele>
        <time>2022-10-26T14:12:20Z</time>
      </trkpt>
      <trkpt lat="43.65245" lon="1.32423">
        <ele>133.6</ele>
        <time>2022-10-26T14:12:21Z</time>
      </trkpt>
      <trkpt lat="43.65239" lon="1.32424">
        <ele>133.6</ele>
        <time>2022-10-26T14:12:22Z</time>
      </trkpt>
      <trkpt lat="43.65231" lon="1.32422">
        <ele>133.6</ele>
        <time>2022-10-26T14:12:23Z</time>
      </trkpt>
      <trkpt lat="43.65224" lon="1.32419">
        <ele>133.6</ele>
        <time>2022-10-26T14:12:24Z</time>
      </trkpt>
      <trkpt lat="43.65217" lon="1.32416">
        <ele>133.6</ele>
        <time>2022-10-26T14:12:25Z</time>
      </trkpt>
      <trkpt lat="43.6521" lon="1.32414">
        <ele>133.6</ele>
        <time>2022-10-26T14:12:26Z</time>
      </trkpt>
      <trkpt lat="43.65202" lon="1.32412">
        <ele>133.4</ele>
        <time>2022-10-26T14:12:27Z</time>
      </trkpt>
      <trkpt lat="43.65193" lon="1.32411">
        <ele>133.4</ele>
        <time>2022-10-26T14:12:28Z</time>
      </trkpt>
      <trkpt lat="43.65187" lon="1.32408">
        <ele>133.2</ele>
        <time>2022-10-26T14:12:29Z</time>
      </trkpt>
      <trkpt lat="43.65181" lon="1.32403">
        <ele>133.2</ele>
        <time>2022-10-26T14:12:30Z</time>
      </trkpt>
      <trkpt lat="43.65178" lon="1.32398">
        <ele>133</ele>
        <time>2022-10-26T14:12:31Z</time>
      </trkpt>
      <trkpt lat="43.65174" lon="1.32391">
        <ele>132.8</ele>
        <time>2022-10-26T14:12:32Z</time>
      </trkpt>
      <trkpt lat="43.6517" lon="1.32384">
        <ele>132.8</ele>
        <time>2022-10-26T14:12:33Z</time>
      </trkpt>
      <trkpt lat="43.65166" lon="1.32379">
        <ele>132.8</ele>
        <time>2022-10-26T14:12:34Z</time>
      </trkpt>
      <trkpt lat="43.65163" lon="1.32373">
        <ele>132.6</ele>
        <time>2022-10-26T14:12:35Z</time>
      </trkpt>
      <trkpt lat="43.6516" lon="1.32368">
        <ele>132.6</ele>
        <time>2022-10-26T14:12:36Z</time>
      </trkpt>
      <trkpt lat="43.65156" lon="1.32362">
        <ele>132.6</ele>
        <time>2022-10-26T14:12:37Z</time>
      </trkpt>
      <trkpt lat="43.65154" lon="1.32355">
        <ele>132.6</ele>
        <time>2022-10-26T14:12:38Z</time>
      </trkpt>
      <trkpt lat="43.65152" lon="1.32347">
        <ele>132.8</ele>
        <time>2022-10-26T14:12:39Z</time>
      </trkpt>
      <trkpt lat="43.65151" lon="1.32341">
        <ele>132.8</ele>
        <time>2022-10-26T14:12:40Z</time>
      </trkpt>
      <trkpt lat="43.65149" lon="1.32333">
        <ele>132.8</ele>
        <time>2022-10-26T14:12:41Z</time>
      </trkpt>
      <trkpt lat="43.65145" lon="1.32321">
        <ele>132.8</ele>
        <time>2022-10-26T14:12:42Z</time>
      </trkpt>
      <trkpt lat="43.65142" lon="1.32313">
        <ele>133.2</ele>
        <time>2022-10-26T14:12:43Z</time>
      </trkpt>
      <trkpt lat="43.65138" lon="1.32306">
        <ele>133.2</ele>
        <time>2022-10-26T14:12:44Z</time>
      </trkpt>
      <trkpt lat="43.65136" lon="1.323">
        <ele>133.2</ele>
        <time>2022-10-26T14:12:45Z</time>
      </trkpt>
      <trkpt lat="43.65132" lon="1.32291">
        <ele>133</ele>
        <time>2022-10-26T14:12:46Z</time>
      </trkpt>
      <trkpt lat="43.65128" lon="1.32284">
        <ele>133</ele>
        <time>2022-10-26T14:12:47Z</time>
      </trkpt>
      <trkpt lat="43.65126" lon="1.32276">
        <ele>133</ele>
        <time>2022-10-26T14:12:48Z</time>
      </trkpt>
      <trkpt lat="43.65125" lon="1.32269">
        <ele>133</ele>
        <time>2022-10-26T14:12:49Z</time>
      </trkpt>
      <trkpt lat="43.65123" lon="1.3226">
        <ele>133</ele>
        <time>2022-10-26T14:12:50Z</time>
      </trkpt>
      <trkpt lat="43.6512" lon="1.3225">
        <ele>133.2</ele>
        <time>2022-10-26T14:12:51Z</time>
      </trkpt>
      <trkpt lat="43.65118" lon="1.32242">
        <ele>133</ele>
        <time>2022-10-26T14:12:52Z</time>
      </trkpt>
      <trkpt lat="43.65115" lon="1.32234">
        <ele>133.2</ele>
        <time>2022-10-26T14:12:53Z</time>
      </trkpt>
      <trkpt lat="43.65113" lon="1.32228">
        <ele>133.2</ele>
        <time>2022-10-26T14:12:54Z</time>
      </trkpt>
      <trkpt lat="43.65111" lon="1.3222">
        <ele>133.2</ele>
        <time>2022-10-26T14:12:55Z</time>
      </trkpt>
      <trkpt lat="43.65109" lon="1.32211">
        <ele>133.2</ele>
        <time>2022-10-26T14:12:56Z</time>
      </trkpt>
      <trkpt lat="43.65108" lon="1.32204">
        <ele>133.4</ele>
        <time>2022-10-26T14:12:57Z</time>
      </trkpt>
      <trkpt lat="43.6511" lon="1.322">
        <ele>133.4</ele>
        <time>2022-10-26T14:12:58Z</time>
      </trkpt>
      <trkpt lat="43.65113" lon="1.32197">
        <ele>133.6</ele>
        <time>2022-10-26T14:12:59Z</time>
      </trkpt>
      <trkpt lat="43.65117" lon="1.32198">
        <ele>133.6</ele>
        <time>2022-10-26T14:13:00Z</time>
      </trkpt>
      <trkpt lat="43.6512" lon="1.32199">
        <ele>133.6</ele>
        <time>2022-10-26T14:13:01Z</time>
      </trkpt>
      <trkpt lat="43.65123" lon="1.322">
        <ele>133.8</ele>
        <time>2022-10-26T14:13:02Z</time>
      </trkpt>
      <trkpt lat="43.65125" lon="1.322">
        <ele>133.8</ele>
        <time>2022-10-26T14:13:03Z</time>
      </trkpt>
      <trkpt lat="43.65128" lon="1.322">
        <ele>134</ele>
        <time>2022-10-26T14:13:04Z</time>
      </trkpt>
      <trkpt lat="43.65131" lon="1.32199">
        <ele>134</ele>
        <time>2022-10-26T14:13:05Z</time>
      </trkpt>
      <trkpt lat="43.65132" lon="1.32199">
        <ele>134</ele>
        <time>2022-10-26T14:13:06Z</time>
      </trkpt>
      <trkpt lat="43.65133" lon="1.32198">
        <ele>134.2</ele>
        <time>2022-10-26T14:13:07Z</time>
      </trkpt>
      <trkpt lat="43.65134" lon="1.32196">
        <ele>134.2</ele>
        <time>2022-10-26T14:13:08Z</time>
      </trkpt>
      <trkpt lat="43.65136" lon="1.32195">
        <ele>134.2</ele>
        <time>2022-10-26T14:13:09Z</time>
      </trkpt>
      <trkpt lat="43.65138" lon="1.32195">
        <ele>134.4</ele>
        <time>2022-10-26T14:13:10Z</time>
      </trkpt>
      <trkpt lat="43.65139" lon="1.32196">
        <ele>134.4</ele>
        <time>2022-10-26T14:13:11Z</time>
      </trkpt>
      <trkpt lat="43.65141" lon="1.32197">
        <ele>134.4</ele>
        <time>2022-10-26T14:13:12Z</time>
      </trkpt>
      <trkpt lat="43.65143" lon="1.32196">
        <ele>134.4</ele>
        <time>2022-10-26T14:13:13Z</time>
      </trkpt>
      <trkpt lat="43.65145" lon="1.32194">
        <ele>134.6</ele>
        <time>2022-10-26T14:13:14Z</time>
      </trkpt>
      <trkpt lat="43.65146" lon="1.32193">
        <ele>134.6</ele>
        <time>2022-10-26T14:13:15Z</time>
      </trkpt>
      <trkpt lat="43.65147" lon="1.32193">
        <ele>134.6</ele>
        <time>2022-10-26T14:13:16Z</time>
      </trkpt>
      <trkpt lat="43.6515" lon="1.32194">
        <ele>134.6</ele>
        <time>2022-10-26T14:13:17Z</time>
      </trkpt>
      <trkpt lat="43.65152" lon="1.32194">
        <ele>134.8</ele>
        <time>2022-10-26T14:13:18Z</time>
      </trkpt>
      <trkpt lat="43.65156" lon="1.32196">
        <ele>134.8</ele>
        <time>2022-10-26T14:13:19Z</time>
      </trkpt>
      <trkpt lat="43.6516" lon="1.32198">
        <ele>134.8</ele>
        <time>2022-10-26T14:13:20Z</time>
      </trkpt>
      <trkpt lat="43.65164" lon="1.32199">
        <ele>134.8</ele>
        <time>2022-10-26T14:13:21Z</time>
      </trkpt>
      <trkpt lat="43.65167" lon="1.32198">
        <ele>134.8</ele>
        <time>2022-10-26T14:13:22Z</time>
      </trkpt>
      <trkpt lat="43.65171" lon="1.32196">
        <ele>135</ele>
        <time>2022-10-26T14:13:23Z</time>
      </trkpt>
      <trkpt lat="43.65174" lon="1.32191">
        <ele>135</ele>
        <time>2022-10-26T14:13:24Z</time>
      </trkpt>
      <trkpt lat="43.65177" lon="1.32186">
        <ele>135</ele>
        <time>2022-10-26T14:13:25Z</time>
      </trkpt>
      <trkpt lat="43.65179" lon="1.32181">
        <ele>134.8</ele>
        <time>2022-10-26T14:13:26Z</time>
      </trkpt>
      <trkpt lat="43.65181" lon="1.32174">
        <ele>134.8</ele>
        <time>2022-10-26T14:13:27Z</time>
      </trkpt>
      <trkpt lat="43.65183" lon="1.32167">
        <ele>134.8</ele>
        <time>2022-10-26T14:13:28Z</time>
      </trkpt>
      <trkpt lat="43.65185" lon="1.3216">
        <ele>134.8</ele>
        <time>2022-10-26T14:13:29Z</time>
      </trkpt>
      <trkpt lat="43.65188" lon="1.32153">
        <ele>134.8</ele>
        <time>2022-10-26T14:13:30Z</time>
      </trkpt>
      <trkpt lat="43.6519" lon="1.32146">
        <ele>135</ele>
        <time>2022-10-26T14:13:31Z</time>
      </trkpt>
      <trkpt lat="43.65192" lon="1.32141">
        <ele>135.2</ele>
        <time>2022-10-26T14:13:32Z</time>
      </trkpt>
      <trkpt lat="43.65194" lon="1.32133">
        <ele>135.2</ele>
        <time>2022-10-26T14:13:33Z</time>
      </trkpt>
      <trkpt lat="43.65196" lon="1.32126">
        <ele>135.2</ele>
        <time>2022-10-26T14:13:34Z</time>
      </trkpt>
      <trkpt lat="43.65199" lon="1.32119">
        <ele>135.4</ele>
        <time>2022-10-26T14:13:35Z</time>
      </trkpt>
      <trkpt lat="43.652" lon="1.32113">
        <ele>135.4</ele>
        <time>2022-10-26T14:13:36Z</time>
      </trkpt>
      <trkpt lat="43.65203" lon="1.32105">
        <ele>135.8</ele>
        <time>2022-10-26T14:13:37Z</time>
      </trkpt>
      <trkpt lat="43.65205" lon="1.32097">
        <ele>136</ele>
        <time>2022-10-26T14:13:38Z</time>
      </trkpt>
      <trkpt lat="43.65206" lon="1.3209">
        <ele>136</ele>
        <time>2022-10-26T14:13:39Z</time>
      </trkpt>
      <trkpt lat="43.65208" lon="1.32084">
        <ele>136.2</ele>
        <time>2022-10-26T14:13:40Z</time>
      </trkpt>
      <trkpt lat="43.6521" lon="1.32076">
        <ele>136.2</ele>
        <time>2022-10-26T14:13:41Z</time>
      </trkpt>
      <trkpt lat="43.65212" lon="1.32068">
        <ele>136.4</ele>
        <time>2022-10-26T14:13:42Z</time>
      </trkpt>
      <trkpt lat="43.65215" lon="1.32061">
        <ele>136.4</ele>
        <time>2022-10-26T14:13:43Z</time>
      </trkpt>
      <trkpt lat="43.65217" lon="1.32054">
        <ele>136.6</ele>
        <time>2022-10-26T14:13:44Z</time>
      </trkpt>
      <trkpt lat="43.65219" lon="1.32048">
        <ele>136.6</ele>
        <time>2022-10-26T14:13:45Z</time>
      </trkpt>
      <trkpt lat="43.65222" lon="1.3204">
        <ele>136.8</ele>
        <time>2022-10-26T14:13:46Z</time>
      </trkpt>
      <trkpt lat="43.65224" lon="1.32032">
        <ele>136.8</ele>
        <time>2022-10-26T14:13:47Z</time>
      </trkpt>
      <trkpt lat="43.65227" lon="1.32025">
        <ele>137</ele>
        <time>2022-10-26T14:13:48Z</time>
      </trkpt>
      <trkpt lat="43.65229" lon="1.3202">
        <ele>137</ele>
        <time>2022-10-26T14:13:49Z</time>
      </trkpt>
      <trkpt lat="43.65232" lon="1.32014">
        <ele>137.2</ele>
        <time>2022-10-26T14:13:50Z</time>
      </trkpt>
      <trkpt lat="43.65237" lon="1.32009">
        <ele>137.2</ele>
        <time>2022-10-26T14:13:51Z</time>
      </trkpt>
      <trkpt lat="43.6524" lon="1.32006">
        <ele>137.4</ele>
        <time>2022-10-26T14:13:52Z</time>
      </trkpt>
      <trkpt lat="43.65244" lon="1.32002">
        <ele>137.6</ele>
        <time>2022-10-26T14:13:53Z</time>
      </trkpt>
      <trkpt lat="43.65247" lon="1.32">
        <ele>137.8</ele>
        <time>2022-10-26T14:13:54Z</time>
      </trkpt>
      <trkpt lat="43.65249" lon="1.31997">
        <ele>137.8</ele>
        <time>2022-10-26T14:13:55Z</time>
      </trkpt>
      <trkpt lat="43.65251" lon="1.31992">
        <ele>138</ele>
        <time>2022-10-26T14:13:56Z</time>
      </trkpt>
      <trkpt lat="43.65252" lon="1.31988">
        <ele>138</ele>
        <time>2022-10-26T14:13:57Z</time>
      </trkpt>
      <trkpt lat="43.65254" lon="1.31983">
        <ele>138</ele>
        <time>2022-10-26T14:13:58Z</time>
      </trkpt>
      <trkpt lat="43.65255" lon="1.31978">
        <ele>138</ele>
        <time>2022-10-26T14:13:59Z</time>
      </trkpt>
      <trkpt lat="43.65258" lon="1.31972">
        <ele>138.2</ele>
        <time>2022-10-26T14:14:00Z</time>
      </trkpt>
      <trkpt lat="43.65259" lon="1.31967">
        <ele>138.2</ele>
        <time>2022-10-26T14:14:01Z</time>
      </trkpt>
      <trkpt lat="43.65261" lon="1.31961">
        <ele>138.2</ele>
        <time>2022-10-26T14:14:02Z</time>
      </trkpt>
      <trkpt lat="43.65262" lon="1.31956">
        <ele>138.2</ele>
        <time>2022-10-26T14:14:03Z</time>
      </trkpt>
      <trkpt lat="43.65263" lon="1.31949">
        <ele>138.4</ele>
        <time>2022-10-26T14:14:04Z</time>
      </trkpt>
      <trkpt lat="43.65265" lon="1.31943">
        <ele>138.4</ele>
        <time>2022-10-26T14:14:05Z</time>
      </trkpt>
      <trkpt lat="43.65266" lon="1.31935">
        <ele>138.4</ele>
        <time>2022-10-26T14:14:06Z</time>
      </trkpt>
      <trkpt lat="43.65267" lon="1.31928">
        <ele>138.4</ele>
        <time>2022-10-26T14:14:07Z</time>
      </trkpt>
      <trkpt lat="43.65267" lon="1.31923">
        <ele>138.6</ele>
        <time>2022-10-26T14:14:08Z</time>
      </trkpt>
      <trkpt lat="43.65268" lon="1.31916">
        <ele>138.6</ele>
        <time>2022-10-26T14:14:09Z</time>
      </trkpt>
      <trkpt lat="43.6527" lon="1.31909">
        <ele>138.8</ele>
        <time>2022-10-26T14:14:10Z</time>
      </trkpt>
      <trkpt lat="43.65272" lon="1.31904">
        <ele>139</ele>
        <time>2022-10-26T14:14:11Z</time>
      </trkpt>
      <trkpt lat="43.65273" lon="1.31898">
        <ele>139</ele>
        <time>2022-10-26T14:14:12Z</time>
      </trkpt>
      <trkpt lat="43.65275" lon="1.31893">
        <ele>139.2</ele>
        <time>2022-10-26T14:14:13Z</time>
      </trkpt>
      <trkpt lat="43.65275" lon="1.31886">
        <ele>139.2</ele>
        <time>2022-10-26T14:14:14Z</time>
      </trkpt>
      <trkpt lat="43.65275" lon="1.31878">
        <ele>139.4</ele>
        <time>2022-10-26T14:14:15Z</time>
      </trkpt>
      <trkpt lat="43.65275" lon="1.31872">
        <ele>139.4</ele>
        <time>2022-10-26T14:14:16Z</time>
      </trkpt>
      <trkpt lat="43.65275" lon="1.31865">
        <ele>139.6</ele>
        <time>2022-10-26T14:14:17Z</time>
      </trkpt>
      <trkpt lat="43.65276" lon="1.3186">
        <ele>139.6</ele>
        <time>2022-10-26T14:14:18Z</time>
      </trkpt>
      <trkpt lat="43.65277" lon="1.31853">
        <ele>139.8</ele>
        <time>2022-10-26T14:14:19Z</time>
      </trkpt>
      <trkpt lat="43.65278" lon="1.31845">
        <ele>139.8</ele>
        <time>2022-10-26T14:14:20Z</time>
      </trkpt>
      <trkpt lat="43.6528" lon="1.31838">
        <ele>139.8</ele>
        <time>2022-10-26T14:14:21Z</time>
      </trkpt>
      <trkpt lat="43.65281" lon="1.31831">
        <ele>140</ele>
        <time>2022-10-26T14:14:22Z</time>
      </trkpt>
      <trkpt lat="43.65282" lon="1.31826">
        <ele>140</ele>
        <time>2022-10-26T14:14:23Z</time>
      </trkpt>
      <trkpt lat="43.65284" lon="1.31818">
        <ele>140.2</ele>
        <time>2022-10-26T14:14:24Z</time>
      </trkpt>
      <trkpt lat="43.65285" lon="1.31811">
        <ele>140.4</ele>
        <time>2022-10-26T14:14:25Z</time>
      </trkpt>
      <trkpt lat="43.65287" lon="1.31804">
        <ele>140.4</ele>
        <time>2022-10-26T14:14:26Z</time>
      </trkpt>
      <trkpt lat="43.65289" lon="1.31798">
        <ele>140.4</ele>
        <time>2022-10-26T14:14:27Z</time>
      </trkpt>
      <trkpt lat="43.65291" lon="1.31792">
        <ele>140.6</ele>
        <time>2022-10-26T14:14:28Z</time>
      </trkpt>
      <trkpt lat="43.65293" lon="1.31783">
        <ele>140.8</ele>
        <time>2022-10-26T14:14:29Z</time>
      </trkpt>
      <trkpt lat="43.65295" lon="1.31776">
        <ele>141.2</ele>
        <time>2022-10-26T14:14:30Z</time>
      </trkpt>
      <trkpt lat="43.65297" lon="1.31769">
        <ele>141.2</ele>
        <time>2022-10-26T14:14:31Z</time>
      </trkpt>
      <trkpt lat="43.653" lon="1.31762">
        <ele>141.4</ele>
        <time>2022-10-26T14:14:32Z</time>
      </trkpt>
      <trkpt lat="43.65302" lon="1.31756">
        <ele>141.4</ele>
        <time>2022-10-26T14:14:33Z</time>
      </trkpt>
      <trkpt lat="43.65305" lon="1.31748">
        <ele>141.6</ele>
        <time>2022-10-26T14:14:34Z</time>
      </trkpt>
      <trkpt lat="43.65308" lon="1.31742">
        <ele>141.6</ele>
        <time>2022-10-26T14:14:35Z</time>
      </trkpt>
      <trkpt lat="43.65312" lon="1.31737">
        <ele>141.8</ele>
        <time>2022-10-26T14:14:36Z</time>
      </trkpt>
      <trkpt lat="43.65316" lon="1.31733">
        <ele>142</ele>
        <time>2022-10-26T14:14:37Z</time>
      </trkpt>
      <trkpt lat="43.65322" lon="1.31728">
        <ele>142</ele>
        <time>2022-10-26T14:14:38Z</time>
      </trkpt>
      <trkpt lat="43.65326" lon="1.31725">
        <ele>142.2</ele>
        <time>2022-10-26T14:14:39Z</time>
      </trkpt>
      <trkpt lat="43.65332" lon="1.31722">
        <ele>142.4</ele>
        <time>2022-10-26T14:14:40Z</time>
      </trkpt>
      <trkpt lat="43.65336" lon="1.3172">
        <ele>142.6</ele>
        <time>2022-10-26T14:14:41Z</time>
      </trkpt>
      <trkpt lat="43.65341" lon="1.31718">
        <ele>142.8</ele>
        <time>2022-10-26T14:14:42Z</time>
      </trkpt>
      <trkpt lat="43.65348" lon="1.31716">
        <ele>142.8</ele>
        <time>2022-10-26T14:14:43Z</time>
      </trkpt>
      <trkpt lat="43.65353" lon="1.31715">
        <ele>143</ele>
        <time>2022-10-26T14:14:44Z</time>
      </trkpt>
      <trkpt lat="43.65359" lon="1.31712">
        <ele>143.2</ele>
        <time>2022-10-26T14:14:45Z</time>
      </trkpt>
      <trkpt lat="43.65363" lon="1.31709">
        <ele>143.2</ele>
        <time>2022-10-26T14:14:46Z</time>
      </trkpt>
      <trkpt lat="43.65369" lon="1.31704">
        <ele>143.2</ele>
        <time>2022-10-26T14:14:47Z</time>
      </trkpt>
      <trkpt lat="43.65372" lon="1.31699">
        <ele>143.4</ele>
        <time>2022-10-26T14:14:48Z</time>
      </trkpt>
      <trkpt lat="43.65376" lon="1.31692">
        <ele>143.4</ele>
        <time>2022-10-26T14:14:49Z</time>
      </trkpt>
      <trkpt lat="43.65379" lon="1.31687">
        <ele>143.6</ele>
        <time>2022-10-26T14:14:50Z</time>
      </trkpt>
      <trkpt lat="43.65382" lon="1.3168">
        <ele>143.6</ele>
        <time>2022-10-26T14:14:51Z</time>
      </trkpt>
      <trkpt lat="43.65385" lon="1.31672">
        <ele>143.6</ele>
        <time>2022-10-26T14:14:52Z</time>
      </trkpt>
      <trkpt lat="43.65387" lon="1.31665">
        <ele>143.8</ele>
        <time>2022-10-26T14:14:53Z</time>
      </trkpt>
      <trkpt lat="43.65389" lon="1.31658">
        <ele>143.8</ele>
        <time>2022-10-26T14:14:54Z</time>
      </trkpt>
      <trkpt lat="43.6539" lon="1.31652">
        <ele>143.8</ele>
        <time>2022-10-26T14:14:55Z</time>
      </trkpt>
      <trkpt lat="43.65392" lon="1.31645">
        <ele>144</ele>
        <time>2022-10-26T14:14:56Z</time>
      </trkpt>
      <trkpt lat="43.65394" lon="1.31637">
        <ele>144</ele>
        <time>2022-10-26T14:14:57Z</time>
      </trkpt>
      <trkpt lat="43.65396" lon="1.3163">
        <ele>144.2</ele>
        <time>2022-10-26T14:14:58Z</time>
      </trkpt>
      <trkpt lat="43.65398" lon="1.31623">
        <ele>144.2</ele>
        <time>2022-10-26T14:14:59Z</time>
      </trkpt>
      <trkpt lat="43.654" lon="1.31618">
        <ele>144.2</ele>
        <time>2022-10-26T14:15:00Z</time>
      </trkpt>
      <trkpt lat="43.65402" lon="1.31611">
        <ele>144.4</ele>
        <time>2022-10-26T14:15:01Z</time>
      </trkpt>
      <trkpt lat="43.65404" lon="1.31603">
        <ele>144.4</ele>
        <time>2022-10-26T14:15:02Z</time>
      </trkpt>
      <trkpt lat="43.65405" lon="1.31597">
        <ele>144.6</ele>
        <time>2022-10-26T14:15:03Z</time>
      </trkpt>
      <trkpt lat="43.65407" lon="1.3159">
        <ele>144.6</ele>
        <time>2022-10-26T14:15:04Z</time>
      </trkpt>
      <trkpt lat="43.65409" lon="1.31585">
        <ele>145</ele>
        <time>2022-10-26T14:15:05Z</time>
      </trkpt>
      <trkpt lat="43.65411" lon="1.31577">
        <ele>145</ele>
        <time>2022-10-26T14:15:06Z</time>
      </trkpt>
      <trkpt lat="43.65412" lon="1.31571">
        <ele>145.2</ele>
        <time>2022-10-26T14:15:07Z</time>
      </trkpt>
      <trkpt lat="43.65414" lon="1.31564">
        <ele>145.4</ele>
        <time>2022-10-26T14:15:08Z</time>
      </trkpt>
      <trkpt lat="43.65415" lon="1.31559">
        <ele>145.4</ele>
        <time>2022-10-26T14:15:09Z</time>
      </trkpt>
      <trkpt lat="43.65416" lon="1.31553">
        <ele>145.6</ele>
        <time>2022-10-26T14:15:10Z</time>
      </trkpt>
      <trkpt lat="43.65418" lon="1.31545">
        <ele>145.8</ele>
        <time>2022-10-26T14:15:11Z</time>
      </trkpt>
      <trkpt lat="43.65419" lon="1.31539">
        <ele>146.2</ele>
        <time>2022-10-26T14:15:12Z</time>
      </trkpt>
      <trkpt lat="43.6542" lon="1.31534">
        <ele>146.2</ele>
        <time>2022-10-26T14:15:13Z</time>
      </trkpt>
      <trkpt lat="43.65421" lon="1.31529">
        <ele>146.4</ele>
        <time>2022-10-26T14:15:14Z</time>
      </trkpt>
      <trkpt lat="43.65422" lon="1.31524">
        <ele>146.8</ele>
        <time>2022-10-26T14:15:15Z</time>
      </trkpt>
      <trkpt lat="43.65423" lon="1.31518">
        <ele>146.8</ele>
        <time>2022-10-26T14:15:16Z</time>
      </trkpt>
      <trkpt lat="43.65423" lon="1.31513">
        <ele>147.2</ele>
        <time>2022-10-26T14:15:17Z</time>
      </trkpt>
      <trkpt lat="43.65423" lon="1.31509">
        <ele>147.2</ele>
        <time>2022-10-26T14:15:18Z</time>
      </trkpt>
      <trkpt lat="43.65421" lon="1.31504">
        <ele>147.6</ele>
        <time>2022-10-26T14:15:19Z</time>
      </trkpt>
      <trkpt lat="43.65418" lon="1.315">
        <ele>148</ele>
        <time>2022-10-26T14:15:20Z</time>
      </trkpt>
      <trkpt lat="43.65414" lon="1.31496">
        <ele>148.2</ele>
        <time>2022-10-26T14:15:21Z</time>
      </trkpt>
      <trkpt lat="43.65411" lon="1.31493">
        <ele>148.4</ele>
        <time>2022-10-26T14:15:22Z</time>
      </trkpt>
      <trkpt lat="43.65408" lon="1.31491">
        <ele>148.6</ele>
        <time>2022-10-26T14:15:23Z</time>
      </trkpt>
      <trkpt lat="43.65404" lon="1.31489">
        <ele>149</ele>
        <time>2022-10-26T14:15:24Z</time>
      </trkpt>
      <trkpt lat="43.65399" lon="1.31486">
        <ele>149.2</ele>
        <time>2022-10-26T14:15:25Z</time>
      </trkpt>
      <trkpt lat="43.65395" lon="1.31484">
        <ele>149.4</ele>
        <time>2022-10-26T14:15:26Z</time>
      </trkpt>
      <trkpt lat="43.65392" lon="1.31481">
        <ele>149.4</ele>
        <time>2022-10-26T14:15:27Z</time>
      </trkpt>
      <trkpt lat="43.6539" lon="1.3148">
        <ele>149.6</ele>
        <time>2022-10-26T14:15:28Z</time>
      </trkpt>
      <trkpt lat="43.65389" lon="1.31478">
        <ele>149.6</ele>
        <time>2022-10-26T14:15:29Z</time>
      </trkpt>
      <trkpt lat="43.65389" lon="1.31476">
        <ele>149.8</ele>
        <time>2022-10-26T14:15:30Z</time>
      </trkpt>
      <trkpt lat="43.6539" lon="1.31475">
        <ele>149.8</ele>
        <time>2022-10-26T14:15:31Z</time>
      </trkpt>
      <trkpt lat="43.6539" lon="1.31474">
        <ele>150</ele>
        <time>2022-10-26T14:15:32Z</time>
      </trkpt>
      <trkpt lat="43.65391" lon="1.31473">
        <ele>150.2</ele>
        <time>2022-10-26T14:15:33Z</time>
      </trkpt>
      <trkpt lat="43.65391" lon="1.3147">
        <ele>150.6</ele>
        <time>2022-10-26T14:15:34Z</time>
      </trkpt>
      <trkpt lat="43.65392" lon="1.31467">
        <ele>150.6</ele>
        <time>2022-10-26T14:15:35Z</time>
      </trkpt>
      <trkpt lat="43.65392" lon="1.31463">
        <ele>150.8</ele>
        <time>2022-10-26T14:15:36Z</time>
      </trkpt>
      <trkpt lat="43.65393" lon="1.3146">
        <ele>151</ele>
        <time>2022-10-26T14:15:37Z</time>
      </trkpt>
      <trkpt lat="43.65394" lon="1.31457">
        <ele>151.2</ele>
        <time>2022-10-26T14:15:38Z</time>
      </trkpt>
      <trkpt lat="43.65395" lon="1.31453">
        <ele>151.4</ele>
        <time>2022-10-26T14:15:39Z</time>
      </trkpt>
      <trkpt lat="43.65396" lon="1.31449">
        <ele>151.4</ele>
        <time>2022-10-26T14:15:40Z</time>
      </trkpt>
      <trkpt lat="43.65397" lon="1.31446">
        <ele>151.6</ele>
        <time>2022-10-26T14:15:41Z</time>
      </trkpt>
      <trkpt lat="43.65398" lon="1.31442">
        <ele>151.8</ele>
        <time>2022-10-26T14:15:42Z</time>
      </trkpt>
      <trkpt lat="43.65398" lon="1.31439">
        <ele>152</ele>
        <time>2022-10-26T14:15:43Z</time>
      </trkpt>
      <trkpt lat="43.654" lon="1.31434">
        <ele>152.2</ele>
        <time>2022-10-26T14:15:44Z</time>
      </trkpt>
      <trkpt lat="43.65401" lon="1.3143">
        <ele>152.4</ele>
        <time>2022-10-26T14:15:45Z</time>
      </trkpt>
      <trkpt lat="43.65401" lon="1.31426">
        <ele>152.6</ele>
        <time>2022-10-26T14:15:46Z</time>
      </trkpt>
      <trkpt lat="43.65402" lon="1.31422">
        <ele>152.8</ele>
        <time>2022-10-26T14:15:47Z</time>
      </trkpt>
      <trkpt lat="43.65403" lon="1.31417">
        <ele>153</ele>
        <time>2022-10-26T14:15:48Z</time>
      </trkpt>
      <trkpt lat="43.65403" lon="1.31413">
        <ele>153.2</ele>
        <time>2022-10-26T14:15:49Z</time>
      </trkpt>
      <trkpt lat="43.65404" lon="1.31409">
        <ele>153.6</ele>
        <time>2022-10-26T14:15:50Z</time>
      </trkpt>
      <trkpt lat="43.65403" lon="1.31405">
        <ele>153.8</ele>
        <time>2022-10-26T14:15:51Z</time>
      </trkpt>
      <trkpt lat="43.65402" lon="1.314">
        <ele>154.4</ele>
        <time>2022-10-26T14:15:52Z</time>
      </trkpt>
      <trkpt lat="43.654" lon="1.31394">
        <ele>154.6</ele>
        <time>2022-10-26T14:15:53Z</time>
      </trkpt>
      <trkpt lat="43.65398" lon="1.31388">
        <ele>154.6</ele>
        <time>2022-10-26T14:15:54Z</time>
      </trkpt>
      <trkpt lat="43.65395" lon="1.31384">
        <ele>155</ele>
        <time>2022-10-26T14:15:55Z</time>
      </trkpt>
      <trkpt lat="43.65392" lon="1.3138">
        <ele>155.2</ele>
        <time>2022-10-26T14:15:56Z</time>
      </trkpt>
      <trkpt lat="43.65389" lon="1.31376">
        <ele>155.6</ele>
        <time>2022-10-26T14:15:57Z</time>
      </trkpt>
      <trkpt lat="43.65385" lon="1.31372">
        <ele>155.6</ele>
        <time>2022-10-26T14:15:58Z</time>
      </trkpt>
      <trkpt lat="43.65382" lon="1.31368">
        <ele>155.8</ele>
        <time>2022-10-26T14:15:59Z</time>
      </trkpt>
      <trkpt lat="43.65378" lon="1.31364">
        <ele>156</ele>
        <time>2022-10-26T14:16:00Z</time>
      </trkpt>
      <trkpt lat="43.65375" lon="1.3136">
        <ele>156</ele>
        <time>2022-10-26T14:16:01Z</time>
      </trkpt>
      <trkpt lat="43.6537" lon="1.31356">
        <ele>156.2</ele>
        <time>2022-10-26T14:16:02Z</time>
      </trkpt>
      <trkpt lat="43.65366" lon="1.31352">
        <ele>156.2</ele>
        <time>2022-10-26T14:16:03Z</time>
      </trkpt>
      <trkpt lat="43.65361" lon="1.31349">
        <ele>156.2</ele>
        <time>2022-10-26T14:16:04Z</time>
      </trkpt>
      <trkpt lat="43.65358" lon="1.31346">
        <ele>156.4</ele>
        <time>2022-10-26T14:16:05Z</time>
      </trkpt>
      <trkpt lat="43.65353" lon="1.31343">
        <ele>156.4</ele>
        <time>2022-10-26T14:16:06Z</time>
      </trkpt>
      <trkpt lat="43.65347" lon="1.31341">
        <ele>156.6</ele>
        <time>2022-10-26T14:16:07Z</time>
      </trkpt>
      <trkpt lat="43.65342" lon="1.31338">
        <ele>156.6</ele>
        <time>2022-10-26T14:16:08Z</time>
      </trkpt>
      <trkpt lat="43.65338" lon="1.31336">
        <ele>156.8</ele>
        <time>2022-10-26T14:16:09Z</time>
      </trkpt>
      <trkpt lat="43.65333" lon="1.31333">
        <ele>156.8</ele>
        <time>2022-10-26T14:16:10Z</time>
      </trkpt>
      <trkpt lat="43.65328" lon="1.3133">
        <ele>157</ele>
        <time>2022-10-26T14:16:11Z</time>
      </trkpt>
      <trkpt lat="43.65323" lon="1.31326">
        <ele>157</ele>
        <time>2022-10-26T14:16:12Z</time>
      </trkpt>
      <trkpt lat="43.65321" lon="1.31321">
        <ele>157.2</ele>
        <time>2022-10-26T14:16:13Z</time>
      </trkpt>
      <trkpt lat="43.6532" lon="1.31316">
        <ele>157.2</ele>
        <time>2022-10-26T14:16:14Z</time>
      </trkpt>
      <trkpt lat="43.6532" lon="1.3131">
        <ele>157.2</ele>
        <time>2022-10-26T14:16:15Z</time>
      </trkpt>
      <trkpt lat="43.65321" lon="1.31304">
        <ele>157.4</ele>
        <time>2022-10-26T14:16:16Z</time>
      </trkpt>
      <trkpt lat="43.65321" lon="1.31299">
        <ele>157.4</ele>
        <time>2022-10-26T14:16:17Z</time>
      </trkpt>
      <trkpt lat="43.65323" lon="1.31294">
        <ele>157.8</ele>
        <time>2022-10-26T14:16:18Z</time>
      </trkpt>
      <trkpt lat="43.65325" lon="1.31291">
        <ele>158.2</ele>
        <time>2022-10-26T14:16:19Z</time>
      </trkpt>
      <trkpt lat="43.65328" lon="1.3129">
        <ele>158.4</ele>
        <time>2022-10-26T14:16:20Z</time>
      </trkpt>
      <trkpt lat="43.65332" lon="1.3129">
        <ele>158.6</ele>
        <time>2022-10-26T14:16:21Z</time>
      </trkpt>
      <trkpt lat="43.65335" lon="1.3129">
        <ele>158.8</ele>
        <time>2022-10-26T14:16:22Z</time>
      </trkpt>
      <trkpt lat="43.65338" lon="1.31292">
        <ele>159.2</ele>
        <time>2022-10-26T14:16:23Z</time>
      </trkpt>
      <trkpt lat="43.65339" lon="1.31293">
        <ele>159.4</ele>
        <time>2022-10-26T14:16:24Z</time>
      </trkpt>
      <trkpt lat="43.65342" lon="1.31294">
        <ele>159.6</ele>
        <time>2022-10-26T14:16:25Z</time>
      </trkpt>
      <trkpt lat="43.65344" lon="1.31294">
        <ele>160</ele>
        <time>2022-10-26T14:16:26Z</time>
      </trkpt>
      <trkpt lat="43.65346" lon="1.31294">
        <ele>160</ele>
        <time>2022-10-26T14:16:27Z</time>
      </trkpt>
      <trkpt lat="43.65348" lon="1.31291">
        <ele>160.2</ele>
        <time>2022-10-26T14:16:28Z</time>
      </trkpt>
      <trkpt lat="43.6535" lon="1.31288">
        <ele>160.4</ele>
        <time>2022-10-26T14:16:29Z</time>
      </trkpt>
      <trkpt lat="43.65351" lon="1.31283">
        <ele>160.4</ele>
        <time>2022-10-26T14:16:30Z</time>
      </trkpt>
      <trkpt lat="43.65351" lon="1.31278">
        <ele>160.8</ele>
        <time>2022-10-26T14:16:31Z</time>
      </trkpt>
      <trkpt lat="43.65352" lon="1.31274">
        <ele>161</ele>
        <time>2022-10-26T14:16:32Z</time>
      </trkpt>
      <trkpt lat="43.65353" lon="1.3127">
        <ele>161.4</ele>
        <time>2022-10-26T14:16:33Z</time>
      </trkpt>
      <trkpt lat="43.65354" lon="1.31265">
        <ele>161.4</ele>
        <time>2022-10-26T14:16:34Z</time>
      </trkpt>
      <trkpt lat="43.65355" lon="1.31258">
        <ele>161.6</ele>
        <time>2022-10-26T14:16:35Z</time>
      </trkpt>
      <trkpt lat="43.65356" lon="1.31253">
        <ele>161.8</ele>
        <time>2022-10-26T14:16:36Z</time>
      </trkpt>
      <trkpt lat="43.65358" lon="1.31248">
        <ele>162</ele>
        <time>2022-10-26T14:16:37Z</time>
      </trkpt>
      <trkpt lat="43.65359" lon="1.31243">
        <ele>162.4</ele>
        <time>2022-10-26T14:16:38Z</time>
      </trkpt>
      <trkpt lat="43.6536" lon="1.31237">
        <ele>162.6</ele>
        <time>2022-10-26T14:16:39Z</time>
      </trkpt>
      <trkpt lat="43.65363" lon="1.3123">
        <ele>162.8</ele>
        <time>2022-10-26T14:16:40Z</time>
      </trkpt>
      <trkpt lat="43.65364" lon="1.31224">
        <ele>163</ele>
        <time>2022-10-26T14:16:41Z</time>
      </trkpt>
      <trkpt lat="43.65366" lon="1.31219">
        <ele>163.4</ele>
        <time>2022-10-26T14:16:42Z</time>
      </trkpt>
      <trkpt lat="43.65368" lon="1.31213">
        <ele>163.4</ele>
        <time>2022-10-26T14:16:43Z</time>
      </trkpt>
      <trkpt lat="43.65371" lon="1.31205">
        <ele>163.6</ele>
        <time>2022-10-26T14:16:44Z</time>
      </trkpt>
      <trkpt lat="43.65373" lon="1.31199">
        <ele>163.8</ele>
        <time>2022-10-26T14:16:45Z</time>
      </trkpt>
      <trkpt lat="43.65375" lon="1.31193">
        <ele>163.8</ele>
        <time>2022-10-26T14:16:46Z</time>
      </trkpt>
      <trkpt lat="43.65378" lon="1.31188">
        <ele>164</ele>
        <time>2022-10-26T14:16:47Z</time>
      </trkpt>
      <trkpt lat="43.65381" lon="1.31183">
        <ele>164.2</ele>
        <time>2022-10-26T14:16:48Z</time>
      </trkpt>
      <trkpt lat="43.65386" lon="1.31178">
        <ele>164.4</ele>
        <time>2022-10-26T14:16:49Z</time>
      </trkpt>
      <trkpt lat="43.6539" lon="1.31172">
        <ele>164.6</ele>
        <time>2022-10-26T14:16:50Z</time>
      </trkpt>
      <trkpt lat="43.65393" lon="1.31166">
        <ele>164.6</ele>
        <time>2022-10-26T14:16:51Z</time>
      </trkpt>
      <trkpt lat="43.65395" lon="1.3116">
        <ele>164.8</ele>
        <time>2022-10-26T14:16:52Z</time>
      </trkpt>
      <trkpt lat="43.65396" lon="1.31152">
        <ele>164.8</ele>
        <time>2022-10-26T14:16:53Z</time>
      </trkpt>
      <trkpt lat="43.65395" lon="1.31145">
        <ele>165</ele>
        <time>2022-10-26T14:16:54Z</time>
      </trkpt>
      <trkpt lat="43.65393" lon="1.3114">
        <ele>165</ele>
        <time>2022-10-26T14:16:55Z</time>
      </trkpt>
      <trkpt lat="43.6539" lon="1.31136">
        <ele>165</ele>
        <time>2022-10-26T14:16:56Z</time>
      </trkpt>
      <trkpt lat="43.65386" lon="1.31132">
        <ele>165.2</ele>
        <time>2022-10-26T14:16:57Z</time>
      </trkpt>
      <trkpt lat="43.65382" lon="1.31126">
        <ele>165.2</ele>
        <time>2022-10-26T14:16:58Z</time>
      </trkpt>
      <trkpt lat="43.65378" lon="1.31122">
        <ele>165.4</ele>
        <time>2022-10-26T14:16:59Z</time>
      </trkpt>
      <trkpt lat="43.65374" lon="1.31117">
        <ele>165.4</ele>
        <time>2022-10-26T14:17:00Z</time>
      </trkpt>
      <trkpt lat="43.65371" lon="1.31111">
        <ele>165.6</ele>
        <time>2022-10-26T14:17:01Z</time>
      </trkpt>
      <trkpt lat="43.6537" lon="1.31106">
        <ele>165.6</ele>
        <time>2022-10-26T14:17:02Z</time>
      </trkpt>
      <trkpt lat="43.6537" lon="1.31099">
        <ele>165.8</ele>
        <time>2022-10-26T14:17:03Z</time>
      </trkpt>
      <trkpt lat="43.65371" lon="1.31093">
        <ele>165.8</ele>
        <time>2022-10-26T14:17:04Z</time>
      </trkpt>
      <trkpt lat="43.65373" lon="1.31086">
        <ele>165.8</ele>
        <time>2022-10-26T14:17:05Z</time>
      </trkpt>
      <trkpt lat="43.65374" lon="1.31081">
        <ele>166</ele>
        <time>2022-10-26T14:17:06Z</time>
      </trkpt>
      <trkpt lat="43.65377" lon="1.31074">
        <ele>166.2</ele>
        <time>2022-10-26T14:17:07Z</time>
      </trkpt>
      <trkpt lat="43.65378" lon="1.31068">
        <ele>166.2</ele>
        <time>2022-10-26T14:17:08Z</time>
      </trkpt>
      <trkpt lat="43.6538" lon="1.31061">
        <ele>166.4</ele>
        <time>2022-10-26T14:17:09Z</time>
      </trkpt>
      <trkpt lat="43.65381" lon="1.31056">
        <ele>166.6</ele>
        <time>2022-10-26T14:17:10Z</time>
      </trkpt>
      <trkpt lat="43.65381" lon="1.3105">
        <ele>166.6</ele>
        <time>2022-10-26T14:17:11Z</time>
      </trkpt>
      <trkpt lat="43.65381" lon="1.31044">
        <ele>166.6</ele>
        <time>2022-10-26T14:17:12Z</time>
      </trkpt>
      <trkpt lat="43.65379" lon="1.31038">
        <ele>166.8</ele>
        <time>2022-10-26T14:17:13Z</time>
      </trkpt>
      <trkpt lat="43.65377" lon="1.31034">
        <ele>167</ele>
        <time>2022-10-26T14:17:14Z</time>
      </trkpt>
      <trkpt lat="43.65375" lon="1.31031">
        <ele>167.2</ele>
        <time>2022-10-26T14:17:15Z</time>
      </trkpt>
      <trkpt lat="43.65373" lon="1.31027">
        <ele>167.4</ele>
        <time>2022-10-26T14:17:16Z</time>
      </trkpt>
      <trkpt lat="43.6537" lon="1.31024">
        <ele>167.6</ele>
        <time>2022-10-26T14:17:17Z</time>
      </trkpt>
      <trkpt lat="43.65367" lon="1.3102">
        <ele>167.8</ele>
        <time>2022-10-26T14:17:18Z</time>
      </trkpt>
      <trkpt lat="43.65365" lon="1.31017">
        <ele>168</ele>
        <time>2022-10-26T14:17:19Z</time>
      </trkpt>
      <trkpt lat="43.65363" lon="1.31013">
        <ele>168.6</ele>
        <time>2022-10-26T14:17:20Z</time>
      </trkpt>
      <trkpt lat="43.6536" lon="1.31009">
        <ele>168.6</ele>
        <time>2022-10-26T14:17:21Z</time>
      </trkpt>
      <trkpt lat="43.65357" lon="1.31006">
        <ele>169</ele>
        <time>2022-10-26T14:17:22Z</time>
      </trkpt>
      <trkpt lat="43.65354" lon="1.31002">
        <ele>169.2</ele>
        <time>2022-10-26T14:17:23Z</time>
      </trkpt>
      <trkpt lat="43.65351" lon="1.30999">
        <ele>169.2</ele>
        <time>2022-10-26T14:17:24Z</time>
      </trkpt>
      <trkpt lat="43.65348" lon="1.30996">
        <ele>169.6</ele>
        <time>2022-10-26T14:17:25Z</time>
      </trkpt>
      <trkpt lat="43.65344" lon="1.30991">
        <ele>169.8</ele>
        <time>2022-10-26T14:17:26Z</time>
      </trkpt>
      <trkpt lat="43.65341" lon="1.30987">
        <ele>170</ele>
        <time>2022-10-26T14:17:27Z</time>
      </trkpt>
      <trkpt lat="43.65338" lon="1.30983">
        <ele>170</ele>
        <time>2022-10-26T14:17:28Z</time>
      </trkpt>
      <trkpt lat="43.65335" lon="1.30979">
        <ele>170.4</ele>
        <time>2022-10-26T14:17:29Z</time>
      </trkpt>
      <trkpt lat="43.65331" lon="1.30975">
        <ele>170.6</ele>
        <time>2022-10-26T14:17:30Z</time>
      </trkpt>
      <trkpt lat="43.65326" lon="1.30972">
        <ele>170.8</ele>
        <time>2022-10-26T14:17:31Z</time>
      </trkpt>
      <trkpt lat="43.65322" lon="1.30969">
        <ele>170.8</ele>
        <time>2022-10-26T14:17:32Z</time>
      </trkpt>
      <trkpt lat="43.65317" lon="1.30967">
        <ele>171</ele>
        <time>2022-10-26T14:17:33Z</time>
      </trkpt>
      <trkpt lat="43.65313" lon="1.30965">
        <ele>171</ele>
        <time>2022-10-26T14:17:34Z</time>
      </trkpt>
      <trkpt lat="43.65307" lon="1.30962">
        <ele>171.2</ele>
        <time>2022-10-26T14:17:35Z</time>
      </trkpt>
      <trkpt lat="43.65303" lon="1.30959">
        <ele>171.4</ele>
        <time>2022-10-26T14:17:36Z</time>
      </trkpt>
      <trkpt lat="43.65298" lon="1.30957">
        <ele>171.4</ele>
        <time>2022-10-26T14:17:37Z</time>
      </trkpt>
      <trkpt lat="43.65294" lon="1.30954">
        <ele>171.6</ele>
        <time>2022-10-26T14:17:38Z</time>
      </trkpt>
      <trkpt lat="43.65289" lon="1.3095">
        <ele>171.6</ele>
        <time>2022-10-26T14:17:39Z</time>
      </trkpt>
      <trkpt lat="43.65285" lon="1.30946">
        <ele>171.6</ele>
        <time>2022-10-26T14:17:40Z</time>
      </trkpt>
      <trkpt lat="43.6528" lon="1.30941">
        <ele>171.8</ele>
        <time>2022-10-26T14:17:41Z</time>
      </trkpt>
      <trkpt lat="43.65277" lon="1.30937">
        <ele>172</ele>
        <time>2022-10-26T14:17:42Z</time>
      </trkpt>
      <trkpt lat="43.65273" lon="1.30932">
        <ele>172</ele>
        <time>2022-10-26T14:17:43Z</time>
      </trkpt>
      <trkpt lat="43.65269" lon="1.30925">
        <ele>172</ele>
        <time>2022-10-26T14:17:44Z</time>
      </trkpt>
      <trkpt lat="43.65266" lon="1.3092">
        <ele>172</ele>
        <time>2022-10-26T14:17:45Z</time>
      </trkpt>
      <trkpt lat="43.65263" lon="1.30913">
        <ele>172.2</ele>
        <time>2022-10-26T14:17:46Z</time>
      </trkpt>
      <trkpt lat="43.65262" lon="1.30908">
        <ele>172.2</ele>
        <time>2022-10-26T14:17:47Z</time>
      </trkpt>
      <trkpt lat="43.65263" lon="1.30901">
        <ele>172.2</ele>
        <time>2022-10-26T14:17:48Z</time>
      </trkpt>
      <trkpt lat="43.65266" lon="1.30893">
        <ele>172.2</ele>
        <time>2022-10-26T14:17:49Z</time>
      </trkpt>
      <trkpt lat="43.65269" lon="1.30887">
        <ele>172.2</ele>
        <time>2022-10-26T14:17:50Z</time>
      </trkpt>
      <trkpt lat="43.65273" lon="1.3088">
        <ele>172.2</ele>
        <time>2022-10-26T14:17:51Z</time>
      </trkpt>
      <trkpt lat="43.65276" lon="1.30875">
        <ele>172.2</ele>
        <time>2022-10-26T14:17:52Z</time>
      </trkpt>
      <trkpt lat="43.65279" lon="1.30868">
        <ele>172.2</ele>
        <time>2022-10-26T14:17:53Z</time>
      </trkpt>
      <trkpt lat="43.65284" lon="1.30861">
        <ele>172.4</ele>
        <time>2022-10-26T14:17:54Z</time>
      </trkpt>
      <trkpt lat="43.65288" lon="1.30854">
        <ele>172.4</ele>
        <time>2022-10-26T14:17:55Z</time>
      </trkpt>
      <trkpt lat="43.65291" lon="1.30848">
        <ele>172.4</ele>
        <time>2022-10-26T14:17:56Z</time>
      </trkpt>
      <trkpt lat="43.65295" lon="1.30841">
        <ele>172.4</ele>
        <time>2022-10-26T14:17:57Z</time>
      </trkpt>
      <trkpt lat="43.653" lon="1.30833">
        <ele>172.4</ele>
        <time>2022-10-26T14:17:58Z</time>
      </trkpt>
      <trkpt lat="43.65304" lon="1.30826">
        <ele>172.4</ele>
        <time>2022-10-26T14:17:59Z</time>
      </trkpt>
      <trkpt lat="43.65308" lon="1.30818">
        <ele>172.4</ele>
        <time>2022-10-26T14:18:00Z</time>
      </trkpt>
      <trkpt lat="43.65311" lon="1.30813">
        <ele>172.4</ele>
        <time>2022-10-26T14:18:01Z</time>
      </trkpt>
      <trkpt lat="43.65315" lon="1.30805">
        <ele>172.4</ele>
        <time>2022-10-26T14:18:02Z</time>
      </trkpt>
      <trkpt lat="43.6532" lon="1.30796">
        <ele>172.4</ele>
        <time>2022-10-26T14:18:03Z</time>
      </trkpt>
      <trkpt lat="43.65324" lon="1.30789">
        <ele>172.4</ele>
        <time>2022-10-26T14:18:04Z</time>
      </trkpt>
      <trkpt lat="43.65328" lon="1.30782">
        <ele>172.4</ele>
        <time>2022-10-26T14:18:05Z</time>
      </trkpt>
      <trkpt lat="43.65331" lon="1.30776">
        <ele>172.4</ele>
        <time>2022-10-26T14:18:06Z</time>
      </trkpt>
      <trkpt lat="43.65335" lon="1.30767">
        <ele>172.4</ele>
        <time>2022-10-26T14:18:07Z</time>
      </trkpt>
      <trkpt lat="43.65338" lon="1.3076">
        <ele>172.4</ele>
        <time>2022-10-26T14:18:08Z</time>
      </trkpt>
      <trkpt lat="43.65342" lon="1.30753">
        <ele>172.6</ele>
        <time>2022-10-26T14:18:09Z</time>
      </trkpt>
      <trkpt lat="43.65344" lon="1.30747">
        <ele>172.6</ele>
        <time>2022-10-26T14:18:10Z</time>
      </trkpt>
      <trkpt lat="43.65348" lon="1.3074">
        <ele>172.6</ele>
        <time>2022-10-26T14:18:11Z</time>
      </trkpt>
      <trkpt lat="43.65351" lon="1.3073">
        <ele>172.6</ele>
        <time>2022-10-26T14:18:12Z</time>
      </trkpt>
      <trkpt lat="43.65354" lon="1.30722">
        <ele>172.6</ele>
        <time>2022-10-26T14:18:13Z</time>
      </trkpt>
      <trkpt lat="43.65357" lon="1.30714">
        <ele>172.8</ele>
        <time>2022-10-26T14:18:14Z</time>
      </trkpt>
      <trkpt lat="43.6536" lon="1.30708">
        <ele>172.8</ele>
        <time>2022-10-26T14:18:15Z</time>
      </trkpt>
      <trkpt lat="43.65363" lon="1.307">
        <ele>173</ele>
        <time>2022-10-26T14:18:16Z</time>
      </trkpt>
      <trkpt lat="43.65368" lon="1.3069">
        <ele>173</ele>
        <time>2022-10-26T14:18:17Z</time>
      </trkpt>
      <trkpt lat="43.65371" lon="1.30682">
        <ele>173</ele>
        <time>2022-10-26T14:18:18Z</time>
      </trkpt>
      <trkpt lat="43.65374" lon="1.30676">
        <ele>173</ele>
        <time>2022-10-26T14:18:19Z</time>
      </trkpt>
      <trkpt lat="43.65378" lon="1.30668">
        <ele>173</ele>
        <time>2022-10-26T14:18:20Z</time>
      </trkpt>
      <trkpt lat="43.65382" lon="1.30658">
        <ele>173</ele>
        <time>2022-10-26T14:18:21Z</time>
      </trkpt>
      <trkpt lat="43.65385" lon="1.30652">
        <ele>173.2</ele>
        <time>2022-10-26T14:18:22Z</time>
      </trkpt>
      <trkpt lat="43.65389" lon="1.30642">
        <ele>173.2</ele>
        <time>2022-10-26T14:18:23Z</time>
      </trkpt>
      <trkpt lat="43.65392" lon="1.30636">
        <ele>173.2</ele>
        <time>2022-10-26T14:18:24Z</time>
      </trkpt>
      <trkpt lat="43.65395" lon="1.30628">
        <ele>173.2</ele>
        <time>2022-10-26T14:18:25Z</time>
      </trkpt>
      <trkpt lat="43.65399" lon="1.30618">
        <ele>173.2</ele>
        <time>2022-10-26T14:18:26Z</time>
      </trkpt>
      <trkpt lat="43.65403" lon="1.3061">
        <ele>173.2</ele>
        <time>2022-10-26T14:18:27Z</time>
      </trkpt>
      <trkpt lat="43.65406" lon="1.30602">
        <ele>173.2</ele>
        <time>2022-10-26T14:18:28Z</time>
      </trkpt>
      <trkpt lat="43.65409" lon="1.30596">
        <ele>173.2</ele>
        <time>2022-10-26T14:18:29Z</time>
      </trkpt>
      <trkpt lat="43.65413" lon="1.30587">
        <ele>173.2</ele>
        <time>2022-10-26T14:18:30Z</time>
      </trkpt>
      <trkpt lat="43.65418" lon="1.30577">
        <ele>173.2</ele>
        <time>2022-10-26T14:18:31Z</time>
      </trkpt>
      <trkpt lat="43.65421" lon="1.30568">
        <ele>173.2</ele>
        <time>2022-10-26T14:18:32Z</time>
      </trkpt>
      <trkpt lat="43.65424" lon="1.30561">
        <ele>173.2</ele>
        <time>2022-10-26T14:18:33Z</time>
      </trkpt>
      <trkpt lat="43.65428" lon="1.30553">
        <ele>173.2</ele>
        <time>2022-10-26T14:18:34Z</time>
      </trkpt>
      <trkpt lat="43.65433" lon="1.30542">
        <ele>173.2</ele>
        <time>2022-10-26T14:18:35Z</time>
      </trkpt>
      <trkpt lat="43.65437" lon="1.30533">
        <ele>173</ele>
        <time>2022-10-26T14:18:36Z</time>
      </trkpt>
      <trkpt lat="43.65441" lon="1.30523">
        <ele>173</ele>
        <time>2022-10-26T14:18:37Z</time>
      </trkpt>
      <trkpt lat="43.65444" lon="1.30516">
        <ele>173</ele>
        <time>2022-10-26T14:18:38Z</time>
      </trkpt>
      <trkpt lat="43.65448" lon="1.30507">
        <ele>173</ele>
        <time>2022-10-26T14:18:39Z</time>
      </trkpt>
      <trkpt lat="43.65453" lon="1.30496">
        <ele>173</ele>
        <time>2022-10-26T14:18:40Z</time>
      </trkpt>
      <trkpt lat="43.65457" lon="1.30487">
        <ele>173</ele>
        <time>2022-10-26T14:18:41Z</time>
      </trkpt>
      <trkpt lat="43.65461" lon="1.30478">
        <ele>173</ele>
        <time>2022-10-26T14:18:42Z</time>
      </trkpt>
      <trkpt lat="43.65464" lon="1.30471">
        <ele>173</ele>
        <time>2022-10-26T14:18:43Z</time>
      </trkpt>
      <trkpt lat="43.65468" lon="1.30462">
        <ele>173</ele>
        <time>2022-10-26T14:18:44Z</time>
      </trkpt>
      <trkpt lat="43.65473" lon="1.30451">
        <ele>172.8</ele>
        <time>2022-10-26T14:18:45Z</time>
      </trkpt>
      <trkpt lat="43.65476" lon="1.30442">
        <ele>172.8</ele>
        <time>2022-10-26T14:18:46Z</time>
      </trkpt>
      <trkpt lat="43.65479" lon="1.30435">
        <ele>172.8</ele>
        <time>2022-10-26T14:18:47Z</time>
      </trkpt>
      <trkpt lat="43.65483" lon="1.30426">
        <ele>172.8</ele>
        <time>2022-10-26T14:18:48Z</time>
      </trkpt>
      <trkpt lat="43.65488" lon="1.30416">
        <ele>172.8</ele>
        <time>2022-10-26T14:18:49Z</time>
      </trkpt>
      <trkpt lat="43.65492" lon="1.30407">
        <ele>172.8</ele>
        <time>2022-10-26T14:18:50Z</time>
      </trkpt>
      <trkpt lat="43.65496" lon="1.30398">
        <ele>172.8</ele>
        <time>2022-10-26T14:18:51Z</time>
      </trkpt>
      <trkpt lat="43.65499" lon="1.3039">
        <ele>172.8</ele>
        <time>2022-10-26T14:18:52Z</time>
      </trkpt>
      <trkpt lat="43.65503" lon="1.30381">
        <ele>172.6</ele>
        <time>2022-10-26T14:18:53Z</time>
      </trkpt>
      <trkpt lat="43.65507" lon="1.30373">
        <ele>172.6</ele>
        <time>2022-10-26T14:18:54Z</time>
      </trkpt>
      <trkpt lat="43.65512" lon="1.30362">
        <ele>172.6</ele>
        <time>2022-10-26T14:18:55Z</time>
      </trkpt>
      <trkpt lat="43.65515" lon="1.30355">
        <ele>172.6</ele>
        <time>2022-10-26T14:18:56Z</time>
      </trkpt>
      <trkpt lat="43.65519" lon="1.30347">
        <ele>172.6</ele>
        <time>2022-10-26T14:18:57Z</time>
      </trkpt>
      <trkpt lat="43.65523" lon="1.30337">
        <ele>172.6</ele>
        <time>2022-10-26T14:18:58Z</time>
      </trkpt>
      <trkpt lat="43.65527" lon="1.30329">
        <ele>172.6</ele>
        <time>2022-10-26T14:18:59Z</time>
      </trkpt>
      <trkpt lat="43.6553" lon="1.30321">
        <ele>172.6</ele>
        <time>2022-10-26T14:19:00Z</time>
      </trkpt>
      <trkpt lat="43.65533" lon="1.30314">
        <ele>172.6</ele>
        <time>2022-10-26T14:19:01Z</time>
      </trkpt>
      <trkpt lat="43.65536" lon="1.30306">
        <ele>172.8</ele>
        <time>2022-10-26T14:19:02Z</time>
      </trkpt>
      <trkpt lat="43.6554" lon="1.30298">
        <ele>172.8</ele>
        <time>2022-10-26T14:19:03Z</time>
      </trkpt>
      <trkpt lat="43.65544" lon="1.3029">
        <ele>172.8</ele>
        <time>2022-10-26T14:19:04Z</time>
      </trkpt>
      <trkpt lat="43.65549" lon="1.30281">
        <ele>172.8</ele>
        <time>2022-10-26T14:19:05Z</time>
      </trkpt>
      <trkpt lat="43.65552" lon="1.30275">
        <ele>173</ele>
        <time>2022-10-26T14:19:06Z</time>
      </trkpt>
      <trkpt lat="43.65557" lon="1.30268">
        <ele>173</ele>
        <time>2022-10-26T14:19:07Z</time>
      </trkpt>
      <trkpt lat="43.65562" lon="1.30259">
        <ele>173</ele>
        <time>2022-10-26T14:19:08Z</time>
      </trkpt>
      <trkpt lat="43.65566" lon="1.30251">
        <ele>173.2</ele>
        <time>2022-10-26T14:19:09Z</time>
      </trkpt>
      <trkpt lat="43.65569" lon="1.30245">
        <ele>173.2</ele>
        <time>2022-10-26T14:19:10Z</time>
      </trkpt>
      <trkpt lat="43.65573" lon="1.30238">
        <ele>173.2</ele>
        <time>2022-10-26T14:19:11Z</time>
      </trkpt>
      <trkpt lat="43.65578" lon="1.30229">
        <ele>173.2</ele>
        <time>2022-10-26T14:19:12Z</time>
      </trkpt>
      <trkpt lat="43.65583" lon="1.30221">
        <ele>173.4</ele>
        <time>2022-10-26T14:19:13Z</time>
      </trkpt>
      <trkpt lat="43.65587" lon="1.30214">
        <ele>173.6</ele>
        <time>2022-10-26T14:19:14Z</time>
      </trkpt>
      <trkpt lat="43.6559" lon="1.30208">
        <ele>173.6</ele>
        <time>2022-10-26T14:19:15Z</time>
      </trkpt>
      <trkpt lat="43.65595" lon="1.302">
        <ele>173.6</ele>
        <time>2022-10-26T14:19:16Z</time>
      </trkpt>
      <trkpt lat="43.656" lon="1.30191">
        <ele>173.6</ele>
        <time>2022-10-26T14:19:17Z</time>
      </trkpt>
      <trkpt lat="43.65604" lon="1.30184">
        <ele>173.8</ele>
        <time>2022-10-26T14:19:18Z</time>
      </trkpt>
      <trkpt lat="43.65607" lon="1.30178">
        <ele>173.8</ele>
        <time>2022-10-26T14:19:19Z</time>
      </trkpt>
      <trkpt lat="43.65612" lon="1.30172">
        <ele>173.8</ele>
        <time>2022-10-26T14:19:20Z</time>
      </trkpt>
      <trkpt lat="43.65617" lon="1.30163">
        <ele>173.8</ele>
        <time>2022-10-26T14:19:21Z</time>
      </trkpt>
      <trkpt lat="43.65621" lon="1.30156">
        <ele>173.8</ele>
        <time>2022-10-26T14:19:22Z</time>
      </trkpt>
      <trkpt lat="43.65625" lon="1.30148">
        <ele>173.8</ele>
        <time>2022-10-26T14:19:23Z</time>
      </trkpt>
      <trkpt lat="43.65629" lon="1.30142">
        <ele>173.8</ele>
        <time>2022-10-26T14:19:24Z</time>
      </trkpt>
      <trkpt lat="43.65633" lon="1.30135">
        <ele>173.8</ele>
        <time>2022-10-26T14:19:25Z</time>
      </trkpt>
      <trkpt lat="43.65638" lon="1.30125">
        <ele>173.6</ele>
        <time>2022-10-26T14:19:26Z</time>
      </trkpt>
      <trkpt lat="43.65643" lon="1.30117">
        <ele>173.6</ele>
        <time>2022-10-26T14:19:27Z</time>
      </trkpt>
      <trkpt lat="43.65647" lon="1.30109">
        <ele>173.6</ele>
        <time>2022-10-26T14:19:28Z</time>
      </trkpt>
      <trkpt lat="43.6565" lon="1.30103">
        <ele>173.6</ele>
        <time>2022-10-26T14:19:29Z</time>
      </trkpt>
      <trkpt lat="43.65653" lon="1.30095">
        <ele>173.8</ele>
        <time>2022-10-26T14:19:30Z</time>
      </trkpt>
      <trkpt lat="43.65658" lon="1.30085">
        <ele>173.8</ele>
        <time>2022-10-26T14:19:31Z</time>
      </trkpt>
      <trkpt lat="43.65662" lon="1.30077">
        <ele>173.8</ele>
        <time>2022-10-26T14:19:32Z</time>
      </trkpt>
      <trkpt lat="43.65665" lon="1.3007">
        <ele>173.8</ele>
        <time>2022-10-26T14:19:33Z</time>
      </trkpt>
      <trkpt lat="43.65669" lon="1.30062">
        <ele>173.8</ele>
        <time>2022-10-26T14:19:34Z</time>
      </trkpt>
      <trkpt lat="43.65673" lon="1.30051">
        <ele>173.8</ele>
        <time>2022-10-26T14:19:35Z</time>
      </trkpt>
      <trkpt lat="43.65677" lon="1.30043">
        <ele>173.8</ele>
        <time>2022-10-26T14:19:36Z</time>
      </trkpt>
      <trkpt lat="43.6568" lon="1.30034">
        <ele>173.8</ele>
        <time>2022-10-26T14:19:37Z</time>
      </trkpt>
      <trkpt lat="43.65683" lon="1.30027">
        <ele>173.8</ele>
        <time>2022-10-26T14:19:38Z</time>
      </trkpt>
      <trkpt lat="43.65687" lon="1.30018">
        <ele>173.6</ele>
        <time>2022-10-26T14:19:39Z</time>
      </trkpt>
      <trkpt lat="43.65692" lon="1.30007">
        <ele>173.6</ele>
        <time>2022-10-26T14:19:40Z</time>
      </trkpt>
      <trkpt lat="43.65696" lon="1.29998">
        <ele>173.6</ele>
        <time>2022-10-26T14:19:41Z</time>
      </trkpt>
      <trkpt lat="43.657" lon="1.29992">
        <ele>173.6</ele>
        <time>2022-10-26T14:19:42Z</time>
      </trkpt>
      <trkpt lat="43.65704" lon="1.29984">
        <ele>173.6</ele>
        <time>2022-10-26T14:19:43Z</time>
      </trkpt>
      <trkpt lat="43.6571" lon="1.29975">
        <ele>173.6</ele>
        <time>2022-10-26T14:19:44Z</time>
      </trkpt>
      <trkpt lat="43.65714" lon="1.29968">
        <ele>173.6</ele>
        <time>2022-10-26T14:19:45Z</time>
      </trkpt>
      <trkpt lat="43.65718" lon="1.29961">
        <ele>173.6</ele>
        <time>2022-10-26T14:19:46Z</time>
      </trkpt>
      <trkpt lat="43.65722" lon="1.29955">
        <ele>173.4</ele>
        <time>2022-10-26T14:19:47Z</time>
      </trkpt>
      <trkpt lat="43.65726" lon="1.29948">
        <ele>173.4</ele>
        <time>2022-10-26T14:19:48Z</time>
      </trkpt>
      <trkpt lat="43.65731" lon="1.2994">
        <ele>173.6</ele>
        <time>2022-10-26T14:19:49Z</time>
      </trkpt>
      <trkpt lat="43.65734" lon="1.29933">
        <ele>173.6</ele>
        <time>2022-10-26T14:19:50Z</time>
      </trkpt>
      <trkpt lat="43.65738" lon="1.29925">
        <ele>173.6</ele>
        <time>2022-10-26T14:19:51Z</time>
      </trkpt>
      <trkpt lat="43.6574" lon="1.29917">
        <ele>173.6</ele>
        <time>2022-10-26T14:19:52Z</time>
      </trkpt>
      <trkpt lat="43.65741" lon="1.29908">
        <ele>173.6</ele>
        <time>2022-10-26T14:19:53Z</time>
      </trkpt>
      <trkpt lat="43.65741" lon="1.29898">
        <ele>173.6</ele>
        <time>2022-10-26T14:19:54Z</time>
      </trkpt>
      <trkpt lat="43.6574" lon="1.29888">
        <ele>173.6</ele>
        <time>2022-10-26T14:19:55Z</time>
      </trkpt>
      <trkpt lat="43.65738" lon="1.29877">
        <ele>173.6</ele>
        <time>2022-10-26T14:19:56Z</time>
      </trkpt>
      <trkpt lat="43.65736" lon="1.29869">
        <ele>173.6</ele>
        <time>2022-10-26T14:19:57Z</time>
      </trkpt>
      <trkpt lat="43.65733" lon="1.2986">
        <ele>173.4</ele>
        <time>2022-10-26T14:19:58Z</time>
      </trkpt>
      <trkpt lat="43.6573" lon="1.29848">
        <ele>173.4</ele>
        <time>2022-10-26T14:19:59Z</time>
      </trkpt>
      <trkpt lat="43.65727" lon="1.29839">
        <ele>173.4</ele>
        <time>2022-10-26T14:20:00Z</time>
      </trkpt>
      <trkpt lat="43.65724" lon="1.2983">
        <ele>173.4</ele>
        <time>2022-10-26T14:20:01Z</time>
      </trkpt>
      <trkpt lat="43.65722" lon="1.29822">
        <ele>173.4</ele>
        <time>2022-10-26T14:20:02Z</time>
      </trkpt>
      <trkpt lat="43.65719" lon="1.29811">
        <ele>173.4</ele>
        <time>2022-10-26T14:20:03Z</time>
      </trkpt>
      <trkpt lat="43.65717" lon="1.29801">
        <ele>173.4</ele>
        <time>2022-10-26T14:20:04Z</time>
      </trkpt>
      <trkpt lat="43.65714" lon="1.29792">
        <ele>173.4</ele>
        <time>2022-10-26T14:20:05Z</time>
      </trkpt>
      <trkpt lat="43.65712" lon="1.29784">
        <ele>173.4</ele>
        <time>2022-10-26T14:20:06Z</time>
      </trkpt>
      <trkpt lat="43.6571" lon="1.29774">
        <ele>173.4</ele>
        <time>2022-10-26T14:20:07Z</time>
      </trkpt>
      <trkpt lat="43.65707" lon="1.29762">
        <ele>173.4</ele>
        <time>2022-10-26T14:20:08Z</time>
      </trkpt>
      <trkpt lat="43.65704" lon="1.29752">
        <ele>173.4</ele>
        <time>2022-10-26T14:20:09Z</time>
      </trkpt>
      <trkpt lat="43.65701" lon="1.29742">
        <ele>173.6</ele>
        <time>2022-10-26T14:20:10Z</time>
      </trkpt>
      <trkpt lat="43.65699" lon="1.29734">
        <ele>173.6</ele>
        <time>2022-10-26T14:20:11Z</time>
      </trkpt>
      <trkpt lat="43.65696" lon="1.29724">
        <ele>173.6</ele>
        <time>2022-10-26T14:20:12Z</time>
      </trkpt>
      <trkpt lat="43.65692" lon="1.29712">
        <ele>173.4</ele>
        <time>2022-10-26T14:20:13Z</time>
      </trkpt>
      <trkpt lat="43.6569" lon="1.29701">
        <ele>173.4</ele>
        <time>2022-10-26T14:20:14Z</time>
      </trkpt>
      <trkpt lat="43.65688" lon="1.29691">
        <ele>173.4</ele>
        <time>2022-10-26T14:20:15Z</time>
      </trkpt>
      <trkpt lat="43.65686" lon="1.29683">
        <ele>173.2</ele>
        <time>2022-10-26T14:20:16Z</time>
      </trkpt>
      <trkpt lat="43.65684" lon="1.29671">
        <ele>173.2</ele>
        <time>2022-10-26T14:20:17Z</time>
      </trkpt>
      <trkpt lat="43.65682" lon="1.2966">
        <ele>173.2</ele>
        <time>2022-10-26T14:20:18Z</time>
      </trkpt>
      <trkpt lat="43.6568" lon="1.2965">
        <ele>173.2</ele>
        <time>2022-10-26T14:20:19Z</time>
      </trkpt>
      <trkpt lat="43.65678" lon="1.29642">
        <ele>173.2</ele>
        <time>2022-10-26T14:20:20Z</time>
      </trkpt>
      <trkpt lat="43.65676" lon="1.29632">
        <ele>173.2</ele>
        <time>2022-10-26T14:20:21Z</time>
      </trkpt>
      <trkpt lat="43.65674" lon="1.29619">
        <ele>173.2</ele>
        <time>2022-10-26T14:20:22Z</time>
      </trkpt>
      <trkpt lat="43.65672" lon="1.29609">
        <ele>173.2</ele>
        <time>2022-10-26T14:20:23Z</time>
      </trkpt>
      <trkpt lat="43.6567" lon="1.29598">
        <ele>173.2</ele>
        <time>2022-10-26T14:20:24Z</time>
      </trkpt>
      <trkpt lat="43.65671" lon="1.29589">
        <ele>173</ele>
        <time>2022-10-26T14:20:25Z</time>
      </trkpt>
      <trkpt lat="43.65672" lon="1.29578">
        <ele>173</ele>
        <time>2022-10-26T14:20:26Z</time>
      </trkpt>
      <trkpt lat="43.65676" lon="1.29568">
        <ele>173</ele>
        <time>2022-10-26T14:20:27Z</time>
      </trkpt>
      <trkpt lat="43.65682" lon="1.29561">
        <ele>173</ele>
        <time>2022-10-26T14:20:28Z</time>
      </trkpt>
      <trkpt lat="43.65686" lon="1.29557">
        <ele>172.8</ele>
        <time>2022-10-26T14:20:29Z</time>
      </trkpt>
      <trkpt lat="43.65693" lon="1.29553">
        <ele>172.8</ele>
        <time>2022-10-26T14:20:30Z</time>
      </trkpt>
      <trkpt lat="43.65699" lon="1.29549">
        <ele>172.6</ele>
        <time>2022-10-26T14:20:31Z</time>
      </trkpt>
      <trkpt lat="43.65707" lon="1.29544">
        <ele>172.4</ele>
        <time>2022-10-26T14:20:32Z</time>
      </trkpt>
      <trkpt lat="43.65713" lon="1.2954">
        <ele>172.4</ele>
        <time>2022-10-26T14:20:33Z</time>
      </trkpt>
      <trkpt lat="43.65719" lon="1.29537">
        <ele>172.4</ele>
        <time>2022-10-26T14:20:34Z</time>
      </trkpt>
      <trkpt lat="43.65725" lon="1.29534">
        <ele>172.4</ele>
        <time>2022-10-26T14:20:35Z</time>
      </trkpt>
      <trkpt lat="43.65732" lon="1.29529">
        <ele>172.2</ele>
        <time>2022-10-26T14:20:36Z</time>
      </trkpt>
      <trkpt lat="43.65738" lon="1.29525">
        <ele>172.2</ele>
        <time>2022-10-26T14:20:37Z</time>
      </trkpt>
      <trkpt lat="43.65744" lon="1.29522">
        <ele>172.2</ele>
        <time>2022-10-26T14:20:38Z</time>
      </trkpt>
      <trkpt lat="43.6575" lon="1.29519">
        <ele>172.2</ele>
        <time>2022-10-26T14:20:39Z</time>
      </trkpt>
      <trkpt lat="43.65756" lon="1.29515">
        <ele>172.2</ele>
        <time>2022-10-26T14:20:40Z</time>
      </trkpt>
      <trkpt lat="43.65764" lon="1.2951">
        <ele>172</ele>
        <time>2022-10-26T14:20:41Z</time>
      </trkpt>
      <trkpt lat="43.65771" lon="1.29505">
        <ele>172</ele>
        <time>2022-10-26T14:20:42Z</time>
      </trkpt>
      <trkpt lat="43.65777" lon="1.29502">
        <ele>172</ele>
        <time>2022-10-26T14:20:43Z</time>
      </trkpt>
      <trkpt lat="43.65783" lon="1.29498">
        <ele>171.8</ele>
        <time>2022-10-26T14:20:44Z</time>
      </trkpt>
      <trkpt lat="43.6579" lon="1.29495">
        <ele>171.8</ele>
        <time>2022-10-26T14:20:45Z</time>
      </trkpt>
      <trkpt lat="43.65796" lon="1.2949">
        <ele>171.8</ele>
        <time>2022-10-26T14:20:46Z</time>
      </trkpt>
      <trkpt lat="43.658" lon="1.29484">
        <ele>171.8</ele>
        <time>2022-10-26T14:20:47Z</time>
      </trkpt>
      <trkpt lat="43.65801" lon="1.29477">
        <ele>171.8</ele>
        <time>2022-10-26T14:20:48Z</time>
      </trkpt>
      <trkpt lat="43.65802" lon="1.29468">
        <ele>171.8</ele>
        <time>2022-10-26T14:20:49Z</time>
      </trkpt>
      <trkpt lat="43.65801" lon="1.29456">
        <ele>171.8</ele>
        <time>2022-10-26T14:20:50Z</time>
      </trkpt>
      <trkpt lat="43.658" lon="1.29447">
        <ele>171.8</ele>
        <time>2022-10-26T14:20:51Z</time>
      </trkpt>
      <trkpt lat="43.65798" lon="1.29439">
        <ele>171.8</ele>
        <time>2022-10-26T14:20:52Z</time>
      </trkpt>
      <trkpt lat="43.65797" lon="1.2943">
        <ele>171.8</ele>
        <time>2022-10-26T14:20:53Z</time>
      </trkpt>
      <trkpt lat="43.65796" lon="1.29421">
        <ele>171.8</ele>
        <time>2022-10-26T14:20:54Z</time>
      </trkpt>
      <trkpt lat="43.65794" lon="1.2941">
        <ele>171.8</ele>
        <time>2022-10-26T14:20:55Z</time>
      </trkpt>
      <trkpt lat="43.65793" lon="1.29401">
        <ele>171.8</ele>
        <time>2022-10-26T14:20:56Z</time>
      </trkpt>
      <trkpt lat="43.65791" lon="1.29391">
        <ele>171.8</ele>
        <time>2022-10-26T14:20:57Z</time>
      </trkpt>
      <trkpt lat="43.6579" lon="1.29384">
        <ele>171.8</ele>
        <time>2022-10-26T14:20:58Z</time>
      </trkpt>
      <trkpt lat="43.65789" lon="1.29373">
        <ele>171.8</ele>
        <time>2022-10-26T14:20:59Z</time>
      </trkpt>
      <trkpt lat="43.65787" lon="1.29364">
        <ele>171.8</ele>
        <time>2022-10-26T14:21:00Z</time>
      </trkpt>
      <trkpt lat="43.65786" lon="1.29355">
        <ele>171.8</ele>
        <time>2022-10-26T14:21:01Z</time>
      </trkpt>
      <trkpt lat="43.65785" lon="1.29349">
        <ele>171.8</ele>
        <time>2022-10-26T14:21:02Z</time>
      </trkpt>
      <trkpt lat="43.65783" lon="1.2934">
        <ele>171.8</ele>
        <time>2022-10-26T14:21:03Z</time>
      </trkpt>
      <trkpt lat="43.65782" lon="1.2933">
        <ele>171.8</ele>
        <time>2022-10-26T14:21:04Z</time>
      </trkpt>
      <trkpt lat="43.65781" lon="1.29321">
        <ele>172</ele>
        <time>2022-10-26T14:21:05Z</time>
      </trkpt>
      <trkpt lat="43.6578" lon="1.29312">
        <ele>172</ele>
        <time>2022-10-26T14:21:06Z</time>
      </trkpt>
      <trkpt lat="43.65779" lon="1.29305">
        <ele>172.2</ele>
        <time>2022-10-26T14:21:07Z</time>
      </trkpt>
      <trkpt lat="43.65778" lon="1.29294">
        <ele>172.2</ele>
        <time>2022-10-26T14:21:08Z</time>
      </trkpt>
      <trkpt lat="43.65778" lon="1.29285">
        <ele>172.2</ele>
        <time>2022-10-26T14:21:09Z</time>
      </trkpt>
      <trkpt lat="43.65777" lon="1.29276">
        <ele>172.4</ele>
        <time>2022-10-26T14:21:10Z</time>
      </trkpt>
      <trkpt lat="43.65777" lon="1.29269">
        <ele>172.6</ele>
        <time>2022-10-26T14:21:11Z</time>
      </trkpt>
      <trkpt lat="43.65777" lon="1.29261">
        <ele>172.6</ele>
        <time>2022-10-26T14:21:12Z</time>
      </trkpt>
      <trkpt lat="43.65778" lon="1.2925">
        <ele>172.8</ele>
        <time>2022-10-26T14:21:13Z</time>
      </trkpt>
      <trkpt lat="43.65778" lon="1.29241">
        <ele>172.8</ele>
        <time>2022-10-26T14:21:14Z</time>
      </trkpt>
      <trkpt lat="43.65779" lon="1.29231">
        <ele>172.8</ele>
        <time>2022-10-26T14:21:15Z</time>
      </trkpt>
      <trkpt lat="43.6578" lon="1.29222">
        <ele>173</ele>
        <time>2022-10-26T14:21:16Z</time>
      </trkpt>
      <trkpt lat="43.6578" lon="1.29214">
        <ele>173</ele>
        <time>2022-10-26T14:21:17Z</time>
      </trkpt>
      <trkpt lat="43.6578" lon="1.29203">
        <ele>173.2</ele>
        <time>2022-10-26T14:21:18Z</time>
      </trkpt>
      <trkpt lat="43.6578" lon="1.29193">
        <ele>173.2</ele>
        <time>2022-10-26T14:21:19Z</time>
      </trkpt>
      <trkpt lat="43.65779" lon="1.29184">
        <ele>173.2</ele>
        <time>2022-10-26T14:21:20Z</time>
      </trkpt>
      <trkpt lat="43.65778" lon="1.29177">
        <ele>173.2</ele>
        <time>2022-10-26T14:21:21Z</time>
      </trkpt>
      <trkpt lat="43.65777" lon="1.29166">
        <ele>173.2</ele>
        <time>2022-10-26T14:21:22Z</time>
      </trkpt>
      <trkpt lat="43.65775" lon="1.29157">
        <ele>173.2</ele>
        <time>2022-10-26T14:21:23Z</time>
      </trkpt>
      <trkpt lat="43.65774" lon="1.29147">
        <ele>173.4</ele>
        <time>2022-10-26T14:21:24Z</time>
      </trkpt>
      <trkpt lat="43.65773" lon="1.2914">
        <ele>173.4</ele>
        <time>2022-10-26T14:21:25Z</time>
      </trkpt>
      <trkpt lat="43.65771" lon="1.29132">
        <ele>173.4</ele>
        <time>2022-10-26T14:21:26Z</time>
      </trkpt>
      <trkpt lat="43.6577" lon="1.29121">
        <ele>173.4</ele>
        <time>2022-10-26T14:21:27Z</time>
      </trkpt>
      <trkpt lat="43.65768" lon="1.29112">
        <ele>173.4</ele>
        <time>2022-10-26T14:21:28Z</time>
      </trkpt>
      <trkpt lat="43.65767" lon="1.29103">
        <ele>173.4</ele>
        <time>2022-10-26T14:21:29Z</time>
      </trkpt>
      <trkpt lat="43.65765" lon="1.29095">
        <ele>173.4</ele>
        <time>2022-10-26T14:21:30Z</time>
      </trkpt>
      <trkpt lat="43.65764" lon="1.29084">
        <ele>173.6</ele>
        <time>2022-10-26T14:21:31Z</time>
      </trkpt>
      <trkpt lat="43.65762" lon="1.29075">
        <ele>173.6</ele>
        <time>2022-10-26T14:21:32Z</time>
      </trkpt>
      <trkpt lat="43.6576" lon="1.29065">
        <ele>173.6</ele>
        <time>2022-10-26T14:21:33Z</time>
      </trkpt>
      <trkpt lat="43.65759" lon="1.29058">
        <ele>173.6</ele>
        <time>2022-10-26T14:21:34Z</time>
      </trkpt>
      <trkpt lat="43.65757" lon="1.29046">
        <ele>173.6</ele>
        <time>2022-10-26T14:21:35Z</time>
      </trkpt>
      <trkpt lat="43.65755" lon="1.29036">
        <ele>173.4</ele>
        <time>2022-10-26T14:21:36Z</time>
      </trkpt>
      <trkpt lat="43.65753" lon="1.29026">
        <ele>173.4</ele>
        <time>2022-10-26T14:21:37Z</time>
      </trkpt>
      <trkpt lat="43.65751" lon="1.29016">
        <ele>173.4</ele>
        <time>2022-10-26T14:21:38Z</time>
      </trkpt>
      <trkpt lat="43.6575" lon="1.29007">
        <ele>173.4</ele>
        <time>2022-10-26T14:21:39Z</time>
      </trkpt>
      <trkpt lat="43.65748" lon="1.28998">
        <ele>173.2</ele>
        <time>2022-10-26T14:21:40Z</time>
      </trkpt>
      <trkpt lat="43.65746" lon="1.28985">
        <ele>173.2</ele>
        <time>2022-10-26T14:21:41Z</time>
      </trkpt>
      <trkpt lat="43.65744" lon="1.28975">
        <ele>173</ele>
        <time>2022-10-26T14:21:42Z</time>
      </trkpt>
      <trkpt lat="43.65742" lon="1.28966">
        <ele>172.8</ele>
        <time>2022-10-26T14:21:43Z</time>
      </trkpt>
      <trkpt lat="43.6574" lon="1.28958">
        <ele>172.6</ele>
        <time>2022-10-26T14:21:44Z</time>
      </trkpt>
      <trkpt lat="43.65739" lon="1.28947">
        <ele>172.6</ele>
        <time>2022-10-26T14:21:45Z</time>
      </trkpt>
      <trkpt lat="43.65737" lon="1.28939">
        <ele>172.4</ele>
        <time>2022-10-26T14:21:46Z</time>
      </trkpt>
      <trkpt lat="43.65736" lon="1.2893">
        <ele>172.2</ele>
        <time>2022-10-26T14:21:47Z</time>
      </trkpt>
      <trkpt lat="43.65735" lon="1.28922">
        <ele>172.4</ele>
        <time>2022-10-26T14:21:48Z</time>
      </trkpt>
      <trkpt lat="43.65734" lon="1.28915">
        <ele>172.2</ele>
        <time>2022-10-26T14:21:49Z</time>
      </trkpt>
      <trkpt lat="43.65732" lon="1.28906">
        <ele>172.2</ele>
        <time>2022-10-26T14:21:50Z</time>
      </trkpt>
      <trkpt lat="43.65731" lon="1.28897">
        <ele>172</ele>
        <time>2022-10-26T14:21:51Z</time>
      </trkpt>
      <trkpt lat="43.65729" lon="1.28888">
        <ele>172</ele>
        <time>2022-10-26T14:21:52Z</time>
      </trkpt>
      <trkpt lat="43.65728" lon="1.28881">
        <ele>172</ele>
        <time>2022-10-26T14:21:53Z</time>
      </trkpt>
      <trkpt lat="43.65727" lon="1.28871">
        <ele>172</ele>
        <time>2022-10-26T14:21:54Z</time>
      </trkpt>
      <trkpt lat="43.65726" lon="1.28863">
        <ele>172</ele>
        <time>2022-10-26T14:21:55Z</time>
      </trkpt>
      <trkpt lat="43.65725" lon="1.28855">
        <ele>172.2</ele>
        <time>2022-10-26T14:21:56Z</time>
      </trkpt>
      <trkpt lat="43.65724" lon="1.28848">
        <ele>172.2</ele>
        <time>2022-10-26T14:21:57Z</time>
      </trkpt>
      <trkpt lat="43.65722" lon="1.28839">
        <ele>172.2</ele>
        <time>2022-10-26T14:21:58Z</time>
      </trkpt>
      <trkpt lat="43.65721" lon="1.2883">
        <ele>172.4</ele>
        <time>2022-10-26T14:21:59Z</time>
      </trkpt>
      <trkpt lat="43.65719" lon="1.28819">
        <ele>172.4</ele>
        <time>2022-10-26T14:22:00Z</time>
      </trkpt>
      <trkpt lat="43.65717" lon="1.28808">
        <ele>172.6</ele>
        <time>2022-10-26T14:22:01Z</time>
      </trkpt>
      <trkpt lat="43.65715" lon="1.28798">
        <ele>172.6</ele>
        <time>2022-10-26T14:22:02Z</time>
      </trkpt>
      <trkpt lat="43.65714" lon="1.28791">
        <ele>172.6</ele>
        <time>2022-10-26T14:22:03Z</time>
      </trkpt>
      <trkpt lat="43.65713" lon="1.28781">
        <ele>172.8</ele>
        <time>2022-10-26T14:22:04Z</time>
      </trkpt>
      <trkpt lat="43.65712" lon="1.28773">
        <ele>172.8</ele>
        <time>2022-10-26T14:22:05Z</time>
      </trkpt>
      <trkpt lat="43.65711" lon="1.28766">
        <ele>172.8</ele>
        <time>2022-10-26T14:22:06Z</time>
      </trkpt>
      <trkpt lat="43.6571" lon="1.28759">
        <ele>172.8</ele>
        <time>2022-10-26T14:22:07Z</time>
      </trkpt>
      <trkpt lat="43.65709" lon="1.28754">
        <ele>172.8</ele>
        <time>2022-10-26T14:22:08Z</time>
      </trkpt>
      <trkpt lat="43.65706" lon="1.28748">
        <ele>172.8</ele>
        <time>2022-10-26T14:22:09Z</time>
      </trkpt>
      <trkpt lat="43.65702" lon="1.28743">
        <ele>172.8</ele>
        <time>2022-10-26T14:22:10Z</time>
      </trkpt>
      <trkpt lat="43.65699" lon="1.28737">
        <ele>173</ele>
        <time>2022-10-26T14:22:11Z</time>
      </trkpt>
      <trkpt lat="43.65696" lon="1.28731">
        <ele>173</ele>
        <time>2022-10-26T14:22:12Z</time>
      </trkpt>
      <trkpt lat="43.65693" lon="1.28724">
        <ele>173</ele>
        <time>2022-10-26T14:22:13Z</time>
      </trkpt>
      <trkpt lat="43.6569" lon="1.28718">
        <ele>173</ele>
        <time>2022-10-26T14:22:14Z</time>
      </trkpt>
      <trkpt lat="43.65687" lon="1.28712">
        <ele>173.2</ele>
        <time>2022-10-26T14:22:15Z</time>
      </trkpt>
      <trkpt lat="43.65683" lon="1.28706">
        <ele>173.4</ele>
        <time>2022-10-26T14:22:16Z</time>
      </trkpt>
      <trkpt lat="43.6568" lon="1.287">
        <ele>173.4</ele>
        <time>2022-10-26T14:22:17Z</time>
      </trkpt>
      <trkpt lat="43.65677" lon="1.28692">
        <ele>173.6</ele>
        <time>2022-10-26T14:22:18Z</time>
      </trkpt>
      <trkpt lat="43.65674" lon="1.28686">
        <ele>173.6</ele>
        <time>2022-10-26T14:22:19Z</time>
      </trkpt>
      <trkpt lat="43.6567" lon="1.28679">
        <ele>173.6</ele>
        <time>2022-10-26T14:22:20Z</time>
      </trkpt>
      <trkpt lat="43.65667" lon="1.28674">
        <ele>173.6</ele>
        <time>2022-10-26T14:22:21Z</time>
      </trkpt>
      <trkpt lat="43.65663" lon="1.28667">
        <ele>173.8</ele>
        <time>2022-10-26T14:22:22Z</time>
      </trkpt>
      <trkpt lat="43.65659" lon="1.28658">
        <ele>174</ele>
        <time>2022-10-26T14:22:23Z</time>
      </trkpt>
      <trkpt lat="43.65656" lon="1.28651">
        <ele>174</ele>
        <time>2022-10-26T14:22:24Z</time>
      </trkpt>
      <trkpt lat="43.65652" lon="1.28644">
        <ele>174.2</ele>
        <time>2022-10-26T14:22:25Z</time>
      </trkpt>
      <trkpt lat="43.65649" lon="1.28638">
        <ele>174.2</ele>
        <time>2022-10-26T14:22:26Z</time>
      </trkpt>
      <trkpt lat="43.65644" lon="1.28629">
        <ele>174.2</ele>
        <time>2022-10-26T14:22:27Z</time>
      </trkpt>
      <trkpt lat="43.6564" lon="1.28622">
        <ele>174.2</ele>
        <time>2022-10-26T14:22:28Z</time>
      </trkpt>
      <trkpt lat="43.65636" lon="1.28614">
        <ele>174.2</ele>
        <time>2022-10-26T14:22:29Z</time>
      </trkpt>
      <trkpt lat="43.65632" lon="1.28607">
        <ele>174.2</ele>
        <time>2022-10-26T14:22:30Z</time>
      </trkpt>
      <trkpt lat="43.65629" lon="1.28601">
        <ele>174.4</ele>
        <time>2022-10-26T14:22:31Z</time>
      </trkpt>
      <trkpt lat="43.65624" lon="1.28591">
        <ele>174.6</ele>
        <time>2022-10-26T14:22:32Z</time>
      </trkpt>
      <trkpt lat="43.6562" lon="1.28584">
        <ele>174.6</ele>
        <time>2022-10-26T14:22:33Z</time>
      </trkpt>
      <trkpt lat="43.65616" lon="1.28576">
        <ele>174.6</ele>
        <time>2022-10-26T14:22:34Z</time>
      </trkpt>
      <trkpt lat="43.65613" lon="1.2857">
        <ele>174.6</ele>
        <time>2022-10-26T14:22:35Z</time>
      </trkpt>
      <trkpt lat="43.65608" lon="1.2856">
        <ele>174.4</ele>
        <time>2022-10-26T14:22:36Z</time>
      </trkpt>
      <trkpt lat="43.65603" lon="1.28552">
        <ele>174.4</ele>
        <time>2022-10-26T14:22:37Z</time>
      </trkpt>
      <trkpt lat="43.65599" lon="1.28544">
        <ele>174.4</ele>
        <time>2022-10-26T14:22:38Z</time>
      </trkpt>
      <trkpt lat="43.65595" lon="1.28536">
        <ele>174.4</ele>
        <time>2022-10-26T14:22:39Z</time>
      </trkpt>
      <trkpt lat="43.65591" lon="1.2853">
        <ele>174.4</ele>
        <time>2022-10-26T14:22:40Z</time>
      </trkpt>
      <trkpt lat="43.65587" lon="1.28522">
        <ele>174.2</ele>
        <time>2022-10-26T14:22:41Z</time>
      </trkpt>
      <trkpt lat="43.65583" lon="1.28514">
        <ele>174.2</ele>
        <time>2022-10-26T14:22:42Z</time>
      </trkpt>
      <trkpt lat="43.65578" lon="1.28504">
        <ele>174.2</ele>
        <time>2022-10-26T14:22:43Z</time>
      </trkpt>
      <trkpt lat="43.65575" lon="1.28498">
        <ele>174.2</ele>
        <time>2022-10-26T14:22:44Z</time>
      </trkpt>
      <trkpt lat="43.65571" lon="1.2849">
        <ele>174.2</ele>
        <time>2022-10-26T14:22:45Z</time>
      </trkpt>
      <trkpt lat="43.65566" lon="1.2848">
        <ele>174.4</ele>
        <time>2022-10-26T14:22:46Z</time>
      </trkpt>
      <trkpt lat="43.65562" lon="1.28473">
        <ele>174.4</ele>
        <time>2022-10-26T14:22:47Z</time>
      </trkpt>
      <trkpt lat="43.65558" lon="1.28465">
        <ele>174.6</ele>
        <time>2022-10-26T14:22:48Z</time>
      </trkpt>
      <trkpt lat="43.65554" lon="1.28458">
        <ele>174.6</ele>
        <time>2022-10-26T14:22:49Z</time>
      </trkpt>
      <trkpt lat="43.65549" lon="1.28449">
        <ele>174.6</ele>
        <time>2022-10-26T14:22:50Z</time>
      </trkpt>
      <trkpt lat="43.65545" lon="1.28441">
        <ele>174.6</ele>
        <time>2022-10-26T14:22:51Z</time>
      </trkpt>
      <trkpt lat="43.65541" lon="1.28433">
        <ele>174.6</ele>
        <time>2022-10-26T14:22:52Z</time>
      </trkpt>
      <trkpt lat="43.65537" lon="1.28425">
        <ele>174.6</ele>
        <time>2022-10-26T14:22:53Z</time>
      </trkpt>
      <trkpt lat="43.65534" lon="1.28419">
        <ele>174.6</ele>
        <time>2022-10-26T14:22:54Z</time>
      </trkpt>
      <trkpt lat="43.65529" lon="1.2841">
        <ele>174.6</ele>
        <time>2022-10-26T14:22:55Z</time>
      </trkpt>
      <trkpt lat="43.65525" lon="1.28403">
        <ele>174.6</ele>
        <time>2022-10-26T14:22:56Z</time>
      </trkpt>
      <trkpt lat="43.65521" lon="1.28396">
        <ele>174.8</ele>
        <time>2022-10-26T14:22:57Z</time>
      </trkpt>
      <trkpt lat="43.65518" lon="1.2839">
        <ele>174.6</ele>
        <time>2022-10-26T14:22:58Z</time>
      </trkpt>
      <trkpt lat="43.65514" lon="1.28383">
        <ele>174.6</ele>
        <time>2022-10-26T14:22:59Z</time>
      </trkpt>
      <trkpt lat="43.65509" lon="1.28374">
        <ele>174.6</ele>
        <time>2022-10-26T14:23:00Z</time>
      </trkpt>
      <trkpt lat="43.65505" lon="1.28366">
        <ele>174.6</ele>
        <time>2022-10-26T14:23:01Z</time>
      </trkpt>
      <trkpt lat="43.65502" lon="1.28358">
        <ele>174.6</ele>
        <time>2022-10-26T14:23:02Z</time>
      </trkpt>
      <trkpt lat="43.65498" lon="1.28352">
        <ele>174.6</ele>
        <time>2022-10-26T14:23:03Z</time>
      </trkpt>
      <trkpt lat="43.65494" lon="1.28343">
        <ele>174.8</ele>
        <time>2022-10-26T14:23:04Z</time>
      </trkpt>
      <trkpt lat="43.6549" lon="1.28336">
        <ele>174.8</ele>
        <time>2022-10-26T14:23:05Z</time>
      </trkpt>
      <trkpt lat="43.65486" lon="1.28328">
        <ele>174.8</ele>
        <time>2022-10-26T14:23:06Z</time>
      </trkpt>
      <trkpt lat="43.65483" lon="1.28322">
        <ele>174.8</ele>
        <time>2022-10-26T14:23:07Z</time>
      </trkpt>
      <trkpt lat="43.65479" lon="1.28315">
        <ele>174.8</ele>
        <time>2022-10-26T14:23:08Z</time>
      </trkpt>
      <trkpt lat="43.65474" lon="1.28307">
        <ele>174.8</ele>
        <time>2022-10-26T14:23:09Z</time>
      </trkpt>
      <trkpt lat="43.65471" lon="1.28299">
        <ele>174.6</ele>
        <time>2022-10-26T14:23:10Z</time>
      </trkpt>
      <trkpt lat="43.65468" lon="1.28291">
        <ele>174.6</ele>
        <time>2022-10-26T14:23:11Z</time>
      </trkpt>
      <trkpt lat="43.65466" lon="1.28283">
        <ele>174.6</ele>
        <time>2022-10-26T14:23:12Z</time>
      </trkpt>
      <trkpt lat="43.65463" lon="1.28275">
        <ele>174.6</ele>
        <time>2022-10-26T14:23:13Z</time>
      </trkpt>
      <trkpt lat="43.6546" lon="1.28267">
        <ele>174.6</ele>
        <time>2022-10-26T14:23:14Z</time>
      </trkpt>
      <trkpt lat="43.65456" lon="1.2826">
        <ele>174.6</ele>
        <time>2022-10-26T14:23:15Z</time>
      </trkpt>
      <trkpt lat="43.65453" lon="1.28254">
        <ele>174.6</ele>
        <time>2022-10-26T14:23:16Z</time>
      </trkpt>
      <trkpt lat="43.65449" lon="1.28247">
        <ele>174.6</ele>
        <time>2022-10-26T14:23:17Z</time>
      </trkpt>
      <trkpt lat="43.65444" lon="1.28239">
        <ele>174.6</ele>
        <time>2022-10-26T14:23:18Z</time>
      </trkpt>
      <trkpt lat="43.6544" lon="1.28232">
        <ele>174.6</ele>
        <time>2022-10-26T14:23:19Z</time>
      </trkpt>
      <trkpt lat="43.65436" lon="1.28225">
        <ele>174.6</ele>
        <time>2022-10-26T14:23:20Z</time>
      </trkpt>
      <trkpt lat="43.65432" lon="1.28218">
        <ele>174.6</ele>
        <time>2022-10-26T14:23:21Z</time>
      </trkpt>
      <trkpt lat="43.65429" lon="1.28212">
        <ele>174.6</ele>
        <time>2022-10-26T14:23:22Z</time>
      </trkpt>
      <trkpt lat="43.65424" lon="1.28204">
        <ele>174.8</ele>
        <time>2022-10-26T14:23:23Z</time>
      </trkpt>
      <trkpt lat="43.6542" lon="1.28197">
        <ele>174.6</ele>
        <time>2022-10-26T14:23:24Z</time>
      </trkpt>
      <trkpt lat="43.65415" lon="1.2819">
        <ele>174.6</ele>
        <time>2022-10-26T14:23:25Z</time>
      </trkpt>
      <trkpt lat="43.65412" lon="1.28184">
        <ele>174.6</ele>
        <time>2022-10-26T14:23:26Z</time>
      </trkpt>
      <trkpt lat="43.65408" lon="1.28177">
        <ele>174.6</ele>
        <time>2022-10-26T14:23:27Z</time>
      </trkpt>
      <trkpt lat="43.65403" lon="1.28169">
        <ele>174.6</ele>
        <time>2022-10-26T14:23:28Z</time>
      </trkpt>
      <trkpt lat="43.65399" lon="1.28162">
        <ele>174.6</ele>
        <time>2022-10-26T14:23:29Z</time>
      </trkpt>
      <trkpt lat="43.65395" lon="1.28156">
        <ele>174.6</ele>
        <time>2022-10-26T14:23:30Z</time>
      </trkpt>
      <trkpt lat="43.65392" lon="1.2815">
        <ele>174.6</ele>
        <time>2022-10-26T14:23:31Z</time>
      </trkpt>
      <trkpt lat="43.65387" lon="1.28142">
        <ele>174.6</ele>
        <time>2022-10-26T14:23:32Z</time>
      </trkpt>
      <trkpt lat="43.65384" lon="1.28136">
        <ele>174.6</ele>
        <time>2022-10-26T14:23:33Z</time>
      </trkpt>
      <trkpt lat="43.6538" lon="1.2813">
        <ele>174.6</ele>
        <time>2022-10-26T14:23:34Z</time>
      </trkpt>
      <trkpt lat="43.65376" lon="1.28126">
        <ele>174.6</ele>
        <time>2022-10-26T14:23:35Z</time>
      </trkpt>
      <trkpt lat="43.65372" lon="1.28122">
        <ele>174.6</ele>
        <time>2022-10-26T14:23:36Z</time>
      </trkpt>
      <trkpt lat="43.65367" lon="1.2812">
        <ele>174.8</ele>
        <time>2022-10-26T14:23:37Z</time>
      </trkpt>
      <trkpt lat="43.65362" lon="1.28122">
        <ele>175</ele>
        <time>2022-10-26T14:23:38Z</time>
      </trkpt>
      <trkpt lat="43.6536" lon="1.28126">
        <ele>175</ele>
        <time>2022-10-26T14:23:39Z</time>
      </trkpt>
      <trkpt lat="43.65356" lon="1.2813">
        <ele>175</ele>
        <time>2022-10-26T14:23:40Z</time>
      </trkpt>
      <trkpt lat="43.65353" lon="1.28135">
        <ele>175</ele>
        <time>2022-10-26T14:23:41Z</time>
      </trkpt>
      <trkpt lat="43.65348" lon="1.2814">
        <ele>175</ele>
        <time>2022-10-26T14:23:42Z</time>
      </trkpt>
      <trkpt lat="43.65344" lon="1.28145">
        <ele>175</ele>
        <time>2022-10-26T14:23:43Z</time>
      </trkpt>
      <trkpt lat="43.65341" lon="1.28148">
        <ele>175</ele>
        <time>2022-10-26T14:23:44Z</time>
      </trkpt>
      <trkpt lat="43.65337" lon="1.28153">
        <ele>175</ele>
        <time>2022-10-26T14:23:45Z</time>
      </trkpt>
      <trkpt lat="43.65332" lon="1.28158">
        <ele>175</ele>
        <time>2022-10-26T14:23:46Z</time>
      </trkpt>
      <trkpt lat="43.65328" lon="1.28162">
        <ele>175</ele>
        <time>2022-10-26T14:23:47Z</time>
      </trkpt>
      <trkpt lat="43.65323" lon="1.28167">
        <ele>175</ele>
        <time>2022-10-26T14:23:48Z</time>
      </trkpt>
      <trkpt lat="43.65319" lon="1.28171">
        <ele>175</ele>
        <time>2022-10-26T14:23:49Z</time>
      </trkpt>
      <trkpt lat="43.65315" lon="1.28176">
        <ele>174.8</ele>
        <time>2022-10-26T14:23:50Z</time>
      </trkpt>
      <trkpt lat="43.6531" lon="1.28181">
        <ele>174.8</ele>
        <time>2022-10-26T14:23:51Z</time>
      </trkpt>
      <trkpt lat="43.65306" lon="1.28185">
        <ele>175</ele>
        <time>2022-10-26T14:23:52Z</time>
      </trkpt>
      <trkpt lat="43.65301" lon="1.2819">
        <ele>175</ele>
        <time>2022-10-26T14:23:53Z</time>
      </trkpt>
      <trkpt lat="43.65297" lon="1.28194">
        <ele>175.4</ele>
        <time>2022-10-26T14:23:54Z</time>
      </trkpt>
      <trkpt lat="43.65292" lon="1.28198">
        <ele>175.4</ele>
        <time>2022-10-26T14:23:55Z</time>
      </trkpt>
      <trkpt lat="43.65288" lon="1.28203">
        <ele>175.4</ele>
        <time>2022-10-26T14:23:56Z</time>
      </trkpt>
      <trkpt lat="43.65283" lon="1.28207">
        <ele>175.4</ele>
        <time>2022-10-26T14:23:57Z</time>
      </trkpt>
      <trkpt lat="43.65278" lon="1.28212">
        <ele>175.4</ele>
        <time>2022-10-26T14:23:58Z</time>
      </trkpt>
      <trkpt lat="43.65273" lon="1.28216">
        <ele>175.4</ele>
        <time>2022-10-26T14:23:59Z</time>
      </trkpt>
      <trkpt lat="43.65269" lon="1.2822">
        <ele>175.4</ele>
        <time>2022-10-26T14:24:00Z</time>
      </trkpt>
      <trkpt lat="43.65264" lon="1.28224">
        <ele>175.4</ele>
        <time>2022-10-26T14:24:01Z</time>
      </trkpt>
      <trkpt lat="43.65259" lon="1.28229">
        <ele>175.4</ele>
        <time>2022-10-26T14:24:02Z</time>
      </trkpt>
      <trkpt lat="43.65255" lon="1.28234">
        <ele>175.4</ele>
        <time>2022-10-26T14:24:03Z</time>
      </trkpt>
      <trkpt lat="43.6525" lon="1.28238">
        <ele>175.4</ele>
        <time>2022-10-26T14:24:04Z</time>
      </trkpt>
      <trkpt lat="43.65246" lon="1.28243">
        <ele>175.4</ele>
        <time>2022-10-26T14:24:05Z</time>
      </trkpt>
      <trkpt lat="43.65241" lon="1.28247">
        <ele>175.4</ele>
        <time>2022-10-26T14:24:06Z</time>
      </trkpt>
      <trkpt lat="43.65237" lon="1.28252">
        <ele>175.4</ele>
        <time>2022-10-26T14:24:07Z</time>
      </trkpt>
      <trkpt lat="43.65233" lon="1.28255">
        <ele>175.4</ele>
        <time>2022-10-26T14:24:08Z</time>
      </trkpt>
      <trkpt lat="43.65228" lon="1.28261">
        <ele>175.4</ele>
        <time>2022-10-26T14:24:09Z</time>
      </trkpt>
      <trkpt lat="43.65224" lon="1.28266">
        <ele>175.4</ele>
        <time>2022-10-26T14:24:10Z</time>
      </trkpt>
      <trkpt lat="43.6522" lon="1.28271">
        <ele>175.4</ele>
        <time>2022-10-26T14:24:11Z</time>
      </trkpt>
      <trkpt lat="43.65216" lon="1.28276">
        <ele>175.4</ele>
        <time>2022-10-26T14:24:12Z</time>
      </trkpt>
      <trkpt lat="43.65212" lon="1.28282">
        <ele>175.4</ele>
        <time>2022-10-26T14:24:13Z</time>
      </trkpt>
      <trkpt lat="43.65208" lon="1.28287">
        <ele>175.4</ele>
        <time>2022-10-26T14:24:14Z</time>
      </trkpt>
      <trkpt lat="43.65204" lon="1.28292">
        <ele>175.4</ele>
        <time>2022-10-26T14:24:15Z</time>
      </trkpt>
      <trkpt lat="43.652" lon="1.28298">
        <ele>175.4</ele>
        <time>2022-10-26T14:24:16Z</time>
      </trkpt>
      <trkpt lat="43.65197" lon="1.28302">
        <ele>175.4</ele>
        <time>2022-10-26T14:24:17Z</time>
      </trkpt>
      <trkpt lat="43.65193" lon="1.28309">
        <ele>175.4</ele>
        <time>2022-10-26T14:24:18Z</time>
      </trkpt>
      <trkpt lat="43.6519" lon="1.28315">
        <ele>175.4</ele>
        <time>2022-10-26T14:24:19Z</time>
      </trkpt>
      <trkpt lat="43.65186" lon="1.28321">
        <ele>175.4</ele>
        <time>2022-10-26T14:24:20Z</time>
      </trkpt>
      <trkpt lat="43.65182" lon="1.28327">
        <ele>175.4</ele>
        <time>2022-10-26T14:24:21Z</time>
      </trkpt>
      <trkpt lat="43.65179" lon="1.28332">
        <ele>175.4</ele>
        <time>2022-10-26T14:24:22Z</time>
      </trkpt>
      <trkpt lat="43.65174" lon="1.2834">
        <ele>175.4</ele>
        <time>2022-10-26T14:24:23Z</time>
      </trkpt>
      <trkpt lat="43.65171" lon="1.28346">
        <ele>175.4</ele>
        <time>2022-10-26T14:24:24Z</time>
      </trkpt>
      <trkpt lat="43.65167" lon="1.28352">
        <ele>175.6</ele>
        <time>2022-10-26T14:24:25Z</time>
      </trkpt>
      <trkpt lat="43.65163" lon="1.28358">
        <ele>175.6</ele>
        <time>2022-10-26T14:24:26Z</time>
      </trkpt>
      <trkpt lat="43.6516" lon="1.28364">
        <ele>175.6</ele>
        <time>2022-10-26T14:24:27Z</time>
      </trkpt>
      <trkpt lat="43.65156" lon="1.2837">
        <ele>175.6</ele>
        <time>2022-10-26T14:24:28Z</time>
      </trkpt>
      <trkpt lat="43.65152" lon="1.28377">
        <ele>175.6</ele>
        <time>2022-10-26T14:24:29Z</time>
      </trkpt>
      <trkpt lat="43.65149" lon="1.28383">
        <ele>175.6</ele>
        <time>2022-10-26T14:24:30Z</time>
      </trkpt>
      <trkpt lat="43.65145" lon="1.28389">
        <ele>175.6</ele>
        <time>2022-10-26T14:24:31Z</time>
      </trkpt>
      <trkpt lat="43.65142" lon="1.28396">
        <ele>175.6</ele>
        <time>2022-10-26T14:24:32Z</time>
      </trkpt>
      <trkpt lat="43.65139" lon="1.28403">
        <ele>175.6</ele>
        <time>2022-10-26T14:24:33Z</time>
      </trkpt>
      <trkpt lat="43.65135" lon="1.28409">
        <ele>175.4</ele>
        <time>2022-10-26T14:24:34Z</time>
      </trkpt>
      <trkpt lat="43.65132" lon="1.28416">
        <ele>175.4</ele>
        <time>2022-10-26T14:24:35Z</time>
      </trkpt>
      <trkpt lat="43.65128" lon="1.28422">
        <ele>175.4</ele>
        <time>2022-10-26T14:24:36Z</time>
      </trkpt>
      <trkpt lat="43.65125" lon="1.28429">
        <ele>175.4</ele>
        <time>2022-10-26T14:24:37Z</time>
      </trkpt>
      <trkpt lat="43.65121" lon="1.28435">
        <ele>175.4</ele>
        <time>2022-10-26T14:24:38Z</time>
      </trkpt>
      <trkpt lat="43.65118" lon="1.28442">
        <ele>175</ele>
        <time>2022-10-26T14:24:39Z</time>
      </trkpt>
      <trkpt lat="43.65114" lon="1.28449">
        <ele>175</ele>
        <time>2022-10-26T14:24:40Z</time>
      </trkpt>
      <trkpt lat="43.6511" lon="1.28455">
        <ele>174.8</ele>
        <time>2022-10-26T14:24:41Z</time>
      </trkpt>
      <trkpt lat="43.65107" lon="1.28462">
        <ele>175</ele>
        <time>2022-10-26T14:24:42Z</time>
      </trkpt>
      <trkpt lat="43.65103" lon="1.28469">
        <ele>175</ele>
        <time>2022-10-26T14:24:43Z</time>
      </trkpt>
      <trkpt lat="43.651" lon="1.28474">
        <ele>175</ele>
        <time>2022-10-26T14:24:44Z</time>
      </trkpt>
      <trkpt lat="43.65097" lon="1.28481">
        <ele>175</ele>
        <time>2022-10-26T14:24:45Z</time>
      </trkpt>
      <trkpt lat="43.65093" lon="1.28489">
        <ele>174.8</ele>
        <time>2022-10-26T14:24:46Z</time>
      </trkpt>
      <trkpt lat="43.65089" lon="1.28496">
        <ele>174.8</ele>
        <time>2022-10-26T14:24:47Z</time>
      </trkpt>
      <trkpt lat="43.65086" lon="1.28503">
        <ele>174.6</ele>
        <time>2022-10-26T14:24:48Z</time>
      </trkpt>
      <trkpt lat="43.65082" lon="1.2851">
        <ele>174.6</ele>
        <time>2022-10-26T14:24:49Z</time>
      </trkpt>
      <trkpt lat="43.6508" lon="1.28516">
        <ele>174.6</ele>
        <time>2022-10-26T14:24:50Z</time>
      </trkpt>
      <trkpt lat="43.65075" lon="1.28524">
        <ele>174.6</ele>
        <time>2022-10-26T14:24:51Z</time>
      </trkpt>
      <trkpt lat="43.65072" lon="1.28531">
        <ele>174.6</ele>
        <time>2022-10-26T14:24:52Z</time>
      </trkpt>
      <trkpt lat="43.65068" lon="1.28538">
        <ele>174.6</ele>
        <time>2022-10-26T14:24:53Z</time>
      </trkpt>
      <trkpt lat="43.65064" lon="1.28544">
        <ele>174.6</ele>
        <time>2022-10-26T14:24:54Z</time>
      </trkpt>
      <trkpt lat="43.65061" lon="1.28551">
        <ele>174.4</ele>
        <time>2022-10-26T14:24:55Z</time>
      </trkpt>
      <trkpt lat="43.65057" lon="1.28558">
        <ele>174.4</ele>
        <time>2022-10-26T14:24:56Z</time>
      </trkpt>
      <trkpt lat="43.65053" lon="1.28563">
        <ele>174.4</ele>
        <time>2022-10-26T14:24:57Z</time>
      </trkpt>
      <trkpt lat="43.65048" lon="1.28568">
        <ele>174.4</ele>
        <time>2022-10-26T14:24:58Z</time>
      </trkpt>
      <trkpt lat="43.65043" lon="1.2857">
        <ele>174.6</ele>
        <time>2022-10-26T14:24:59Z</time>
      </trkpt>
      <trkpt lat="43.65038" lon="1.28572">
        <ele>174.6</ele>
        <time>2022-10-26T14:25:00Z</time>
      </trkpt>
      <trkpt lat="43.65032" lon="1.28574">
        <ele>174.6</ele>
        <time>2022-10-26T14:25:01Z</time>
      </trkpt>
      <trkpt lat="43.65026" lon="1.28576">
        <ele>174.6</ele>
        <time>2022-10-26T14:25:02Z</time>
      </trkpt>
      <trkpt lat="43.65021" lon="1.28579">
        <ele>174.6</ele>
        <time>2022-10-26T14:25:03Z</time>
      </trkpt>
      <trkpt lat="43.65016" lon="1.28581">
        <ele>174.4</ele>
        <time>2022-10-26T14:25:04Z</time>
      </trkpt>
      <trkpt lat="43.6501" lon="1.28583">
        <ele>174.4</ele>
        <time>2022-10-26T14:25:05Z</time>
      </trkpt>
      <trkpt lat="43.65005" lon="1.28584">
        <ele>174.4</ele>
        <time>2022-10-26T14:25:06Z</time>
      </trkpt>
      <trkpt lat="43.64999" lon="1.28586">
        <ele>174.4</ele>
        <time>2022-10-26T14:25:07Z</time>
      </trkpt>
      <trkpt lat="43.64995" lon="1.28588">
        <ele>174.2</ele>
        <time>2022-10-26T14:25:08Z</time>
      </trkpt>
      <trkpt lat="43.64989" lon="1.2859">
        <ele>174.2</ele>
        <time>2022-10-26T14:25:09Z</time>
      </trkpt>
      <trkpt lat="43.64983" lon="1.28592">
        <ele>174.2</ele>
        <time>2022-10-26T14:25:10Z</time>
      </trkpt>
      <trkpt lat="43.64978" lon="1.28595">
        <ele>174.4</ele>
        <time>2022-10-26T14:25:11Z</time>
      </trkpt>
      <trkpt lat="43.64973" lon="1.28597">
        <ele>174.4</ele>
        <time>2022-10-26T14:25:12Z</time>
      </trkpt>
      <trkpt lat="43.64967" lon="1.28599">
        <ele>174.4</ele>
        <time>2022-10-26T14:25:13Z</time>
      </trkpt>
      <trkpt lat="43.64962" lon="1.28601">
        <ele>174.2</ele>
        <time>2022-10-26T14:25:14Z</time>
      </trkpt>
      <trkpt lat="43.64956" lon="1.28604">
        <ele>174</ele>
        <time>2022-10-26T14:25:15Z</time>
      </trkpt>
      <trkpt lat="43.64951" lon="1.28606">
        <ele>174</ele>
        <time>2022-10-26T14:25:16Z</time>
      </trkpt>
      <trkpt lat="43.64946" lon="1.28608">
        <ele>174.2</ele>
        <time>2022-10-26T14:25:17Z</time>
      </trkpt>
      <trkpt lat="43.64941" lon="1.2861">
        <ele>174.4</ele>
        <time>2022-10-26T14:25:18Z</time>
      </trkpt>
      <trkpt lat="43.64935" lon="1.28612">
        <ele>174.6</ele>
        <time>2022-10-26T14:25:19Z</time>
      </trkpt>
      <trkpt lat="43.6493" lon="1.28614">
        <ele>174.6</ele>
        <time>2022-10-26T14:25:20Z</time>
      </trkpt>
      <trkpt lat="43.64924" lon="1.28616">
        <ele>174.6</ele>
        <time>2022-10-26T14:25:21Z</time>
      </trkpt>
      <trkpt lat="43.64919" lon="1.28619">
        <ele>174.4</ele>
        <time>2022-10-26T14:25:22Z</time>
      </trkpt>
      <trkpt lat="43.64913" lon="1.28621">
        <ele>174.4</ele>
        <time>2022-10-26T14:25:23Z</time>
      </trkpt>
      <trkpt lat="43.64908" lon="1.28624">
        <ele>174.4</ele>
        <time>2022-10-26T14:25:24Z</time>
      </trkpt>
      <trkpt lat="43.64902" lon="1.28626">
        <ele>174.4</ele>
        <time>2022-10-26T14:25:25Z</time>
      </trkpt>
      <trkpt lat="43.64898" lon="1.28628">
        <ele>174.6</ele>
        <time>2022-10-26T14:25:26Z</time>
      </trkpt>
      <trkpt lat="43.64891" lon="1.28631">
        <ele>174.8</ele>
        <time>2022-10-26T14:25:27Z</time>
      </trkpt>
      <trkpt lat="43.64886" lon="1.28634">
        <ele>174.8</ele>
        <time>2022-10-26T14:25:28Z</time>
      </trkpt>
      <trkpt lat="43.64881" lon="1.28637">
        <ele>174.8</ele>
        <time>2022-10-26T14:25:29Z</time>
      </trkpt>
      <trkpt lat="43.64876" lon="1.2864">
        <ele>174.8</ele>
        <time>2022-10-26T14:25:30Z</time>
      </trkpt>
      <trkpt lat="43.64871" lon="1.28644">
        <ele>174.8</ele>
        <time>2022-10-26T14:25:31Z</time>
      </trkpt>
      <trkpt lat="43.64866" lon="1.28647">
        <ele>174.8</ele>
        <time>2022-10-26T14:25:32Z</time>
      </trkpt>
      <trkpt lat="43.6486" lon="1.2865">
        <ele>174.8</ele>
        <time>2022-10-26T14:25:33Z</time>
      </trkpt>
      <trkpt lat="43.64855" lon="1.28653">
        <ele>174.8</ele>
        <time>2022-10-26T14:25:34Z</time>
      </trkpt>
      <trkpt lat="43.6485" lon="1.28656">
        <ele>174.8</ele>
        <time>2022-10-26T14:25:35Z</time>
      </trkpt>
      <trkpt lat="43.64845" lon="1.28659">
        <ele>174.8</ele>
        <time>2022-10-26T14:25:36Z</time>
      </trkpt>
      <trkpt lat="43.6484" lon="1.28662">
        <ele>174.8</ele>
        <time>2022-10-26T14:25:37Z</time>
      </trkpt>
      <trkpt lat="43.64835" lon="1.28665">
        <ele>174.8</ele>
        <time>2022-10-26T14:25:38Z</time>
      </trkpt>
      <trkpt lat="43.6483" lon="1.28667">
        <ele>174.8</ele>
        <time>2022-10-26T14:25:39Z</time>
      </trkpt>
      <trkpt lat="43.64827" lon="1.28668">
        <ele>174.6</ele>
        <time>2022-10-26T14:25:40Z</time>
      </trkpt>
      <trkpt lat="43.64823" lon="1.28667">
        <ele>174.6</ele>
        <time>2022-10-26T14:25:41Z</time>
      </trkpt>
      <trkpt lat="43.64821" lon="1.28664">
        <ele>174.6</ele>
        <time>2022-10-26T14:25:42Z</time>
      </trkpt>
      <trkpt lat="43.6482" lon="1.2866">
        <ele>174.6</ele>
        <time>2022-10-26T14:25:43Z</time>
      </trkpt>
      <trkpt lat="43.6482" lon="1.28654">
        <ele>174.4</ele>
        <time>2022-10-26T14:25:44Z</time>
      </trkpt>
      <trkpt lat="43.64819" lon="1.28648">
        <ele>174.4</ele>
        <time>2022-10-26T14:25:45Z</time>
      </trkpt>
      <trkpt lat="43.64819" lon="1.28642">
        <ele>174.4</ele>
        <time>2022-10-26T14:25:46Z</time>
      </trkpt>
      <trkpt lat="43.64818" lon="1.28635">
        <ele>174.2</ele>
        <time>2022-10-26T14:25:47Z</time>
      </trkpt>
      <trkpt lat="43.64818" lon="1.28627">
        <ele>174</ele>
        <time>2022-10-26T14:25:48Z</time>
      </trkpt>
      <trkpt lat="43.64817" lon="1.2862">
        <ele>174</ele>
        <time>2022-10-26T14:25:49Z</time>
      </trkpt>
      <trkpt lat="43.64817" lon="1.28613">
        <ele>174</ele>
        <time>2022-10-26T14:25:50Z</time>
      </trkpt>
      <trkpt lat="43.64816" lon="1.28605">
        <ele>174</ele>
        <time>2022-10-26T14:25:51Z</time>
      </trkpt>
      <trkpt lat="43.64815" lon="1.28597">
        <ele>174</ele>
        <time>2022-10-26T14:25:52Z</time>
      </trkpt>
      <trkpt lat="43.64814" lon="1.28589">
        <ele>174</ele>
        <time>2022-10-26T14:25:53Z</time>
      </trkpt>
      <trkpt lat="43.64813" lon="1.28581">
        <ele>174</ele>
        <time>2022-10-26T14:25:54Z</time>
      </trkpt>
      <trkpt lat="43.64812" lon="1.28573">
        <ele>174</ele>
        <time>2022-10-26T14:25:55Z</time>
      </trkpt>
      <trkpt lat="43.6481" lon="1.28565">
        <ele>174</ele>
        <time>2022-10-26T14:25:56Z</time>
      </trkpt>
      <trkpt lat="43.64809" lon="1.28556">
        <ele>174</ele>
        <time>2022-10-26T14:25:57Z</time>
      </trkpt>
      <trkpt lat="43.64808" lon="1.28548">
        <ele>174.2</ele>
        <time>2022-10-26T14:25:58Z</time>
      </trkpt>
      <trkpt lat="43.64806" lon="1.2854">
        <ele>174.2</ele>
        <time>2022-10-26T14:25:59Z</time>
      </trkpt>
      <trkpt lat="43.64805" lon="1.28531">
        <ele>174.2</ele>
        <time>2022-10-26T14:26:00Z</time>
      </trkpt>
      <trkpt lat="43.64803" lon="1.28523">
        <ele>174.4</ele>
        <time>2022-10-26T14:26:01Z</time>
      </trkpt>
      <trkpt lat="43.64802" lon="1.28515">
        <ele>174.4</ele>
        <time>2022-10-26T14:26:02Z</time>
      </trkpt>
      <trkpt lat="43.64801" lon="1.28508">
        <ele>174.6</ele>
        <time>2022-10-26T14:26:03Z</time>
      </trkpt>
      <trkpt lat="43.64799" lon="1.28498">
        <ele>174.6</ele>
        <time>2022-10-26T14:26:04Z</time>
      </trkpt>
      <trkpt lat="43.64797" lon="1.2849">
        <ele>174.6</ele>
        <time>2022-10-26T14:26:05Z</time>
      </trkpt>
      <trkpt lat="43.64795" lon="1.28482">
        <ele>174.8</ele>
        <time>2022-10-26T14:26:06Z</time>
      </trkpt>
      <trkpt lat="43.64793" lon="1.28473">
        <ele>174.8</ele>
        <time>2022-10-26T14:26:07Z</time>
      </trkpt>
      <trkpt lat="43.64792" lon="1.28465">
        <ele>174.8</ele>
        <time>2022-10-26T14:26:08Z</time>
      </trkpt>
      <trkpt lat="43.6479" lon="1.28457">
        <ele>174.8</ele>
        <time>2022-10-26T14:26:09Z</time>
      </trkpt>
      <trkpt lat="43.64789" lon="1.28449">
        <ele>174.8</ele>
        <time>2022-10-26T14:26:10Z</time>
      </trkpt>
      <trkpt lat="43.64787" lon="1.2844">
        <ele>175</ele>
        <time>2022-10-26T14:26:11Z</time>
      </trkpt>
      <trkpt lat="43.64785" lon="1.28433">
        <ele>175</ele>
        <time>2022-10-26T14:26:12Z</time>
      </trkpt>
      <trkpt lat="43.64784" lon="1.28424">
        <ele>175</ele>
        <time>2022-10-26T14:26:13Z</time>
      </trkpt>
      <trkpt lat="43.64782" lon="1.28414">
        <ele>175</ele>
        <time>2022-10-26T14:26:14Z</time>
      </trkpt>
      <trkpt lat="43.64781" lon="1.28405">
        <ele>175</ele>
        <time>2022-10-26T14:26:15Z</time>
      </trkpt>
      <trkpt lat="43.64781" lon="1.28395">
        <ele>175</ele>
        <time>2022-10-26T14:26:16Z</time>
      </trkpt>
      <trkpt lat="43.6478" lon="1.28386">
        <ele>175</ele>
        <time>2022-10-26T14:26:17Z</time>
      </trkpt>
      <trkpt lat="43.6478" lon="1.28377">
        <ele>175</ele>
        <time>2022-10-26T14:26:18Z</time>
      </trkpt>
      <trkpt lat="43.64779" lon="1.28367">
        <ele>175</ele>
        <time>2022-10-26T14:26:19Z</time>
      </trkpt>
      <trkpt lat="43.64778" lon="1.28358">
        <ele>175.2</ele>
        <time>2022-10-26T14:26:20Z</time>
      </trkpt>
      <trkpt lat="43.64778" lon="1.28349">
        <ele>175.2</ele>
        <time>2022-10-26T14:26:21Z</time>
      </trkpt>
      <trkpt lat="43.64777" lon="1.2834">
        <ele>175.2</ele>
        <time>2022-10-26T14:26:22Z</time>
      </trkpt>
      <trkpt lat="43.64776" lon="1.2833">
        <ele>175.2</ele>
        <time>2022-10-26T14:26:23Z</time>
      </trkpt>
      <trkpt lat="43.64775" lon="1.28321">
        <ele>175.2</ele>
        <time>2022-10-26T14:26:24Z</time>
      </trkpt>
      <trkpt lat="43.64774" lon="1.28311">
        <ele>175.2</ele>
        <time>2022-10-26T14:26:25Z</time>
      </trkpt>
      <trkpt lat="43.64772" lon="1.28301">
        <ele>175.2</ele>
        <time>2022-10-26T14:26:26Z</time>
      </trkpt>
      <trkpt lat="43.64771" lon="1.28292">
        <ele>175.2</ele>
        <time>2022-10-26T14:26:27Z</time>
      </trkpt>
      <trkpt lat="43.64769" lon="1.28282">
        <ele>175.2</ele>
        <time>2022-10-26T14:26:28Z</time>
      </trkpt>
      <trkpt lat="43.64768" lon="1.28272">
        <ele>175.2</ele>
        <time>2022-10-26T14:26:29Z</time>
      </trkpt>
      <trkpt lat="43.64768" lon="1.28262">
        <ele>175.2</ele>
        <time>2022-10-26T14:26:30Z</time>
      </trkpt>
      <trkpt lat="43.64768" lon="1.28254">
        <ele>175.2</ele>
        <time>2022-10-26T14:26:31Z</time>
      </trkpt>
      <trkpt lat="43.64767" lon="1.28241">
        <ele>175.2</ele>
        <time>2022-10-26T14:26:32Z</time>
      </trkpt>
      <trkpt lat="43.64768" lon="1.28231">
        <ele>175.2</ele>
        <time>2022-10-26T14:26:33Z</time>
      </trkpt>
      <trkpt lat="43.64768" lon="1.28221">
        <ele>175.2</ele>
        <time>2022-10-26T14:26:34Z</time>
      </trkpt>
      <trkpt lat="43.64768" lon="1.2821">
        <ele>175.2</ele>
        <time>2022-10-26T14:26:35Z</time>
      </trkpt>
      <trkpt lat="43.64769" lon="1.282">
        <ele>175.2</ele>
        <time>2022-10-26T14:26:36Z</time>
      </trkpt>
      <trkpt lat="43.6477" lon="1.2819">
        <ele>175.2</ele>
        <time>2022-10-26T14:26:37Z</time>
      </trkpt>
      <trkpt lat="43.64771" lon="1.28179">
        <ele>175.2</ele>
        <time>2022-10-26T14:26:38Z</time>
      </trkpt>
      <trkpt lat="43.64771" lon="1.28169">
        <ele>175.2</ele>
        <time>2022-10-26T14:26:39Z</time>
      </trkpt>
      <trkpt lat="43.64771" lon="1.28158">
        <ele>175.2</ele>
        <time>2022-10-26T14:26:40Z</time>
      </trkpt>
      <trkpt lat="43.64771" lon="1.28148">
        <ele>175.2</ele>
        <time>2022-10-26T14:26:41Z</time>
      </trkpt>
      <trkpt lat="43.6477" lon="1.28138">
        <ele>175.2</ele>
        <time>2022-10-26T14:26:42Z</time>
      </trkpt>
      <trkpt lat="43.6477" lon="1.28128">
        <ele>175.2</ele>
        <time>2022-10-26T14:26:43Z</time>
      </trkpt>
      <trkpt lat="43.64769" lon="1.28119">
        <ele>175.2</ele>
        <time>2022-10-26T14:26:44Z</time>
      </trkpt>
      <trkpt lat="43.64768" lon="1.2811">
        <ele>175.2</ele>
        <time>2022-10-26T14:26:45Z</time>
      </trkpt>
      <trkpt lat="43.64768" lon="1.28101">
        <ele>175.2</ele>
        <time>2022-10-26T14:26:46Z</time>
      </trkpt>
      <trkpt lat="43.64767" lon="1.28092">
        <ele>175.2</ele>
        <time>2022-10-26T14:26:47Z</time>
      </trkpt>
      <trkpt lat="43.64766" lon="1.28083">
        <ele>175.2</ele>
        <time>2022-10-26T14:26:48Z</time>
      </trkpt>
      <trkpt lat="43.64766" lon="1.28076">
        <ele>175</ele>
        <time>2022-10-26T14:26:49Z</time>
      </trkpt>
      <trkpt lat="43.64764" lon="1.28067">
        <ele>175</ele>
        <time>2022-10-26T14:26:50Z</time>
      </trkpt>
      <trkpt lat="43.64763" lon="1.28061">
        <ele>175</ele>
        <time>2022-10-26T14:26:51Z</time>
      </trkpt>
      <trkpt lat="43.6476" lon="1.28056">
        <ele>175.2</ele>
        <time>2022-10-26T14:26:52Z</time>
      </trkpt>
      <trkpt lat="43.64757" lon="1.28055">
        <ele>175</ele>
        <time>2022-10-26T14:26:53Z</time>
      </trkpt>
      <trkpt lat="43.64753" lon="1.28057">
        <ele>175</ele>
        <time>2022-10-26T14:26:54Z</time>
      </trkpt>
      <trkpt lat="43.6475" lon="1.28062">
        <ele>175</ele>
        <time>2022-10-26T14:26:55Z</time>
      </trkpt>
      <trkpt lat="43.64748" lon="1.28068">
        <ele>175</ele>
        <time>2022-10-26T14:26:56Z</time>
      </trkpt>
      <trkpt lat="43.64746" lon="1.28074">
        <ele>175</ele>
        <time>2022-10-26T14:26:57Z</time>
      </trkpt>
      <trkpt lat="43.64744" lon="1.2808">
        <ele>175</ele>
        <time>2022-10-26T14:26:58Z</time>
      </trkpt>
      <trkpt lat="43.64742" lon="1.28085">
        <ele>175</ele>
        <time>2022-10-26T14:26:59Z</time>
      </trkpt>
      <trkpt lat="43.64738" lon="1.28092">
        <ele>175</ele>
        <time>2022-10-26T14:27:00Z</time>
      </trkpt>
      <trkpt lat="43.64735" lon="1.28099">
        <ele>174.8</ele>
        <time>2022-10-26T14:27:01Z</time>
      </trkpt>
      <trkpt lat="43.64731" lon="1.28105">
        <ele>174.8</ele>
        <time>2022-10-26T14:27:02Z</time>
      </trkpt>
      <trkpt lat="43.64727" lon="1.28111">
        <ele>174.8</ele>
        <time>2022-10-26T14:27:03Z</time>
      </trkpt>
      <trkpt lat="43.64724" lon="1.28118">
        <ele>174.8</ele>
        <time>2022-10-26T14:27:04Z</time>
      </trkpt>
      <trkpt lat="43.64721" lon="1.28124">
        <ele>174.8</ele>
        <time>2022-10-26T14:27:05Z</time>
      </trkpt>
      <trkpt lat="43.64717" lon="1.28131">
        <ele>174.8</ele>
        <time>2022-10-26T14:27:06Z</time>
      </trkpt>
      <trkpt lat="43.64713" lon="1.28137">
        <ele>174.8</ele>
        <time>2022-10-26T14:27:07Z</time>
      </trkpt>
      <trkpt lat="43.64709" lon="1.28143">
        <ele>174.8</ele>
        <time>2022-10-26T14:27:08Z</time>
      </trkpt>
      <trkpt lat="43.64705" lon="1.28149">
        <ele>174.8</ele>
        <time>2022-10-26T14:27:09Z</time>
      </trkpt>
      <trkpt lat="43.64702" lon="1.28156">
        <ele>174.8</ele>
        <time>2022-10-26T14:27:10Z</time>
      </trkpt>
      <trkpt lat="43.64698" lon="1.28163">
        <ele>175</ele>
        <time>2022-10-26T14:27:11Z</time>
      </trkpt>
      <trkpt lat="43.64694" lon="1.28169">
        <ele>175.2</ele>
        <time>2022-10-26T14:27:12Z</time>
      </trkpt>
      <trkpt lat="43.6469" lon="1.28176">
        <ele>175.2</ele>
        <time>2022-10-26T14:27:13Z</time>
      </trkpt>
      <trkpt lat="43.64686" lon="1.28182">
        <ele>175.2</ele>
        <time>2022-10-26T14:27:14Z</time>
      </trkpt>
      <trkpt lat="43.64682" lon="1.28188">
        <ele>175.2</ele>
        <time>2022-10-26T14:27:15Z</time>
      </trkpt>
      <trkpt lat="43.64677" lon="1.28194">
        <ele>175.2</ele>
        <time>2022-10-26T14:27:16Z</time>
      </trkpt>
      <trkpt lat="43.64672" lon="1.282">
        <ele>175.2</ele>
        <time>2022-10-26T14:27:17Z</time>
      </trkpt>
      <trkpt lat="43.64668" lon="1.28206">
        <ele>175.2</ele>
        <time>2022-10-26T14:27:18Z</time>
      </trkpt>
      <trkpt lat="43.64663" lon="1.28212">
        <ele>175.2</ele>
        <time>2022-10-26T14:27:19Z</time>
      </trkpt>
      <trkpt lat="43.64659" lon="1.28218">
        <ele>175.2</ele>
        <time>2022-10-26T14:27:20Z</time>
      </trkpt>
      <trkpt lat="43.64654" lon="1.28224">
        <ele>175.2</ele>
        <time>2022-10-26T14:27:21Z</time>
      </trkpt>
      <trkpt lat="43.6465" lon="1.28231">
        <ele>175.2</ele>
        <time>2022-10-26T14:27:22Z</time>
      </trkpt>
      <trkpt lat="43.64646" lon="1.28237">
        <ele>175.2</ele>
        <time>2022-10-26T14:27:23Z</time>
      </trkpt>
      <trkpt lat="43.64642" lon="1.28243">
        <ele>175.2</ele>
        <time>2022-10-26T14:27:24Z</time>
      </trkpt>
      <trkpt lat="43.64638" lon="1.28249">
        <ele>175.2</ele>
        <time>2022-10-26T14:27:25Z</time>
      </trkpt>
      <trkpt lat="43.64634" lon="1.28254">
        <ele>175.2</ele>
        <time>2022-10-26T14:27:26Z</time>
      </trkpt>
      <trkpt lat="43.6463" lon="1.28259">
        <ele>175</ele>
        <time>2022-10-26T14:27:27Z</time>
      </trkpt>
      <trkpt lat="43.64626" lon="1.28264">
        <ele>175</ele>
        <time>2022-10-26T14:27:28Z</time>
      </trkpt>
      <trkpt lat="43.64621" lon="1.28269">
        <ele>175</ele>
        <time>2022-10-26T14:27:29Z</time>
      </trkpt>
      <trkpt lat="43.64617" lon="1.28274">
        <ele>175</ele>
        <time>2022-10-26T14:27:30Z</time>
      </trkpt>
      <trkpt lat="43.64613" lon="1.28279">
        <ele>175</ele>
        <time>2022-10-26T14:27:31Z</time>
      </trkpt>
      <trkpt lat="43.64608" lon="1.28284">
        <ele>175</ele>
        <time>2022-10-26T14:27:32Z</time>
      </trkpt>
      <trkpt lat="43.64603" lon="1.28288">
        <ele>175</ele>
        <time>2022-10-26T14:27:33Z</time>
      </trkpt>
      <trkpt lat="43.64599" lon="1.28293">
        <ele>175</ele>
        <time>2022-10-26T14:27:34Z</time>
      </trkpt>
      <trkpt lat="43.64594" lon="1.28298">
        <ele>175</ele>
        <time>2022-10-26T14:27:35Z</time>
      </trkpt>
      <trkpt lat="43.64589" lon="1.28303">
        <ele>175</ele>
        <time>2022-10-26T14:27:36Z</time>
      </trkpt>
      <trkpt lat="43.64584" lon="1.28308">
        <ele>175.2</ele>
        <time>2022-10-26T14:27:37Z</time>
      </trkpt>
      <trkpt lat="43.64579" lon="1.28312">
        <ele>175.2</ele>
        <time>2022-10-26T14:27:38Z</time>
      </trkpt>
      <trkpt lat="43.64574" lon="1.28316">
        <ele>175.2</ele>
        <time>2022-10-26T14:27:39Z</time>
      </trkpt>
      <trkpt lat="43.64569" lon="1.28321">
        <ele>175.2</ele>
        <time>2022-10-26T14:27:40Z</time>
      </trkpt>
      <trkpt lat="43.64564" lon="1.28326">
        <ele>175.2</ele>
        <time>2022-10-26T14:27:41Z</time>
      </trkpt>
      <trkpt lat="43.64559" lon="1.28332">
        <ele>175.2</ele>
        <time>2022-10-26T14:27:42Z</time>
      </trkpt>
      <trkpt lat="43.64556" lon="1.28336">
        <ele>175.2</ele>
        <time>2022-10-26T14:27:43Z</time>
      </trkpt>
      <trkpt lat="43.6455" lon="1.28344">
        <ele>175.2</ele>
        <time>2022-10-26T14:27:44Z</time>
      </trkpt>
      <trkpt lat="43.64546" lon="1.2835">
        <ele>175.2</ele>
        <time>2022-10-26T14:27:45Z</time>
      </trkpt>
      <trkpt lat="43.64542" lon="1.28357">
        <ele>175.2</ele>
        <time>2022-10-26T14:27:46Z</time>
      </trkpt>
      <trkpt lat="43.64538" lon="1.28363">
        <ele>175.2</ele>
        <time>2022-10-26T14:27:47Z</time>
      </trkpt>
      <trkpt lat="43.64533" lon="1.28369">
        <ele>175.2</ele>
        <time>2022-10-26T14:27:48Z</time>
      </trkpt>
      <trkpt lat="43.64529" lon="1.28375">
        <ele>175.2</ele>
        <time>2022-10-26T14:27:49Z</time>
      </trkpt>
      <trkpt lat="43.64524" lon="1.28381">
        <ele>175.4</ele>
        <time>2022-10-26T14:27:50Z</time>
      </trkpt>
      <trkpt lat="43.6452" lon="1.28387">
        <ele>175.4</ele>
        <time>2022-10-26T14:27:51Z</time>
      </trkpt>
      <trkpt lat="43.64516" lon="1.28393">
        <ele>175.4</ele>
        <time>2022-10-26T14:27:52Z</time>
      </trkpt>
      <trkpt lat="43.64512" lon="1.28399">
        <ele>175.4</ele>
        <time>2022-10-26T14:27:53Z</time>
      </trkpt>
      <trkpt lat="43.64508" lon="1.28404">
        <ele>175.4</ele>
        <time>2022-10-26T14:27:54Z</time>
      </trkpt>
      <trkpt lat="43.64503" lon="1.28411">
        <ele>175.2</ele>
        <time>2022-10-26T14:27:55Z</time>
      </trkpt>
      <trkpt lat="43.64498" lon="1.28417">
        <ele>175.2</ele>
        <time>2022-10-26T14:27:56Z</time>
      </trkpt>
      <trkpt lat="43.64493" lon="1.28423">
        <ele>175.2</ele>
        <time>2022-10-26T14:27:57Z</time>
      </trkpt>
      <trkpt lat="43.64488" lon="1.28429">
        <ele>175.2</ele>
        <time>2022-10-26T14:27:58Z</time>
      </trkpt>
      <trkpt lat="43.64483" lon="1.28434">
        <ele>175.2</ele>
        <time>2022-10-26T14:27:59Z</time>
      </trkpt>
      <trkpt lat="43.64478" lon="1.28439">
        <ele>175.2</ele>
        <time>2022-10-26T14:28:00Z</time>
      </trkpt>
      <trkpt lat="43.64473" lon="1.28443">
        <ele>175</ele>
        <time>2022-10-26T14:28:01Z</time>
      </trkpt>
      <trkpt lat="43.64467" lon="1.28448">
        <ele>175</ele>
        <time>2022-10-26T14:28:02Z</time>
      </trkpt>
      <trkpt lat="43.64462" lon="1.28452">
        <ele>175</ele>
        <time>2022-10-26T14:28:03Z</time>
      </trkpt>
      <trkpt lat="43.64456" lon="1.28457">
        <ele>175</ele>
        <time>2022-10-26T14:28:04Z</time>
      </trkpt>
      <trkpt lat="43.64451" lon="1.28461">
        <ele>174.8</ele>
        <time>2022-10-26T14:28:05Z</time>
      </trkpt>
      <trkpt lat="43.64446" lon="1.28465">
        <ele>174.8</ele>
        <time>2022-10-26T14:28:06Z</time>
      </trkpt>
      <trkpt lat="43.64441" lon="1.28468">
        <ele>174.8</ele>
        <time>2022-10-26T14:28:07Z</time>
      </trkpt>
      <trkpt lat="43.64437" lon="1.28472">
        <ele>174.8</ele>
        <time>2022-10-26T14:28:08Z</time>
      </trkpt>
      <trkpt lat="43.64432" lon="1.28475">
        <ele>174.8</ele>
        <time>2022-10-26T14:28:09Z</time>
      </trkpt>
      <trkpt lat="43.64428" lon="1.28479">
        <ele>174.8</ele>
        <time>2022-10-26T14:28:10Z</time>
      </trkpt>
      <trkpt lat="43.64423" lon="1.28483">
        <ele>174.8</ele>
        <time>2022-10-26T14:28:11Z</time>
      </trkpt>
      <trkpt lat="43.64418" lon="1.28486">
        <ele>174.8</ele>
        <time>2022-10-26T14:28:12Z</time>
      </trkpt>
      <trkpt lat="43.64413" lon="1.2849">
        <ele>174.8</ele>
        <time>2022-10-26T14:28:13Z</time>
      </trkpt>
      <trkpt lat="43.64408" lon="1.28494">
        <ele>174.8</ele>
        <time>2022-10-26T14:28:14Z</time>
      </trkpt>
      <trkpt lat="43.64403" lon="1.28497">
        <ele>175</ele>
        <time>2022-10-26T14:28:15Z</time>
      </trkpt>
      <trkpt lat="43.64399" lon="1.285">
        <ele>174.8</ele>
        <time>2022-10-26T14:28:16Z</time>
      </trkpt>
      <trkpt lat="43.64394" lon="1.28504">
        <ele>174.8</ele>
        <time>2022-10-26T14:28:17Z</time>
      </trkpt>
      <trkpt lat="43.64388" lon="1.28508">
        <ele>175</ele>
        <time>2022-10-26T14:28:18Z</time>
      </trkpt>
      <trkpt lat="43.64383" lon="1.28511">
        <ele>174.8</ele>
        <time>2022-10-26T14:28:19Z</time>
      </trkpt>
      <trkpt lat="43.64378" lon="1.28514">
        <ele>175</ele>
        <time>2022-10-26T14:28:20Z</time>
      </trkpt>
      <trkpt lat="43.64374" lon="1.28517">
        <ele>175</ele>
        <time>2022-10-26T14:28:21Z</time>
      </trkpt>
      <trkpt lat="43.6437" lon="1.2852">
        <ele>175</ele>
        <time>2022-10-26T14:28:22Z</time>
      </trkpt>
      <trkpt lat="43.64366" lon="1.28522">
        <ele>175</ele>
        <time>2022-10-26T14:28:23Z</time>
      </trkpt>
      <trkpt lat="43.64362" lon="1.28525">
        <ele>175</ele>
        <time>2022-10-26T14:28:24Z</time>
      </trkpt>
      <trkpt lat="43.64358" lon="1.28527">
        <ele>174.8</ele>
        <time>2022-10-26T14:28:25Z</time>
      </trkpt>
      <trkpt lat="43.64354" lon="1.2853">
        <ele>174.8</ele>
        <time>2022-10-26T14:28:26Z</time>
      </trkpt>
      <trkpt lat="43.64348" lon="1.28533">
        <ele>174.8</ele>
        <time>2022-10-26T14:28:27Z</time>
      </trkpt>
      <trkpt lat="43.64344" lon="1.28536">
        <ele>174.8</ele>
        <time>2022-10-26T14:28:28Z</time>
      </trkpt>
      <trkpt lat="43.64339" lon="1.28539">
        <ele>175</ele>
        <time>2022-10-26T14:28:29Z</time>
      </trkpt>
      <trkpt lat="43.64334" lon="1.28543">
        <ele>175</ele>
        <time>2022-10-26T14:28:30Z</time>
      </trkpt>
      <trkpt lat="43.64329" lon="1.28546">
        <ele>174.8</ele>
        <time>2022-10-26T14:28:31Z</time>
      </trkpt>
      <trkpt lat="43.64323" lon="1.28549">
        <ele>174.8</ele>
        <time>2022-10-26T14:28:32Z</time>
      </trkpt>
      <trkpt lat="43.64318" lon="1.28552">
        <ele>175</ele>
        <time>2022-10-26T14:28:33Z</time>
      </trkpt>
      <trkpt lat="43.64313" lon="1.28555">
        <ele>174.6</ele>
        <time>2022-10-26T14:28:34Z</time>
      </trkpt>
      <trkpt lat="43.64307" lon="1.28559">
        <ele>174.8</ele>
        <time>2022-10-26T14:28:35Z</time>
      </trkpt>
      <trkpt lat="43.64302" lon="1.28562">
        <ele>174.8</ele>
        <time>2022-10-26T14:28:36Z</time>
      </trkpt>
      <trkpt lat="43.64296" lon="1.28566">
        <ele>174.8</ele>
        <time>2022-10-26T14:28:37Z</time>
      </trkpt>
      <trkpt lat="43.6429" lon="1.28569">
        <ele>174.8</ele>
        <time>2022-10-26T14:28:38Z</time>
      </trkpt>
      <trkpt lat="43.64284" lon="1.28572">
        <ele>175</ele>
        <time>2022-10-26T14:28:39Z</time>
      </trkpt>
      <trkpt lat="43.64277" lon="1.28574">
        <ele>175</ele>
        <time>2022-10-26T14:28:40Z</time>
      </trkpt>
      <trkpt lat="43.64271" lon="1.28577">
        <ele>175</ele>
        <time>2022-10-26T14:28:41Z</time>
      </trkpt>
      <trkpt lat="43.64265" lon="1.28579">
        <ele>175</ele>
        <time>2022-10-26T14:28:42Z</time>
      </trkpt>
      <trkpt lat="43.64259" lon="1.2858">
        <ele>175</ele>
        <time>2022-10-26T14:28:43Z</time>
      </trkpt>
      <trkpt lat="43.64252" lon="1.28581">
        <ele>175</ele>
        <time>2022-10-26T14:28:44Z</time>
      </trkpt>
      <trkpt lat="43.64248" lon="1.28583">
        <ele>175</ele>
        <time>2022-10-26T14:28:45Z</time>
      </trkpt>
      <trkpt lat="43.6424" lon="1.28585">
        <ele>175</ele>
        <time>2022-10-26T14:28:46Z</time>
      </trkpt>
      <trkpt lat="43.64235" lon="1.28586">
        <ele>174.8</ele>
        <time>2022-10-26T14:28:47Z</time>
      </trkpt>
      <trkpt lat="43.64229" lon="1.28587">
        <ele>174.8</ele>
        <time>2022-10-26T14:28:48Z</time>
      </trkpt>
      <trkpt lat="43.64223" lon="1.28588">
        <ele>174.6</ele>
        <time>2022-10-26T14:28:49Z</time>
      </trkpt>
      <trkpt lat="43.64217" lon="1.28589">
        <ele>174.6</ele>
        <time>2022-10-26T14:28:50Z</time>
      </trkpt>
      <trkpt lat="43.64212" lon="1.2859">
        <ele>174.4</ele>
        <time>2022-10-26T14:28:51Z</time>
      </trkpt>
      <trkpt lat="43.64206" lon="1.28591">
        <ele>174.4</ele>
        <time>2022-10-26T14:28:52Z</time>
      </trkpt>
      <trkpt lat="43.642" lon="1.28593">
        <ele>174.2</ele>
        <time>2022-10-26T14:28:53Z</time>
      </trkpt>
      <trkpt lat="43.64193" lon="1.28594">
        <ele>174.2</ele>
        <time>2022-10-26T14:28:54Z</time>
      </trkpt>
      <trkpt lat="43.64187" lon="1.28595">
        <ele>174</ele>
        <time>2022-10-26T14:28:55Z</time>
      </trkpt>
      <trkpt lat="43.6418" lon="1.28597">
        <ele>174</ele>
        <time>2022-10-26T14:28:56Z</time>
      </trkpt>
      <trkpt lat="43.64173" lon="1.28599">
        <ele>174</ele>
        <time>2022-10-26T14:28:57Z</time>
      </trkpt>
      <trkpt lat="43.64168" lon="1.286">
        <ele>174</ele>
        <time>2022-10-26T14:28:58Z</time>
      </trkpt>
      <trkpt lat="43.6416" lon="1.28602">
        <ele>174</ele>
        <time>2022-10-26T14:28:59Z</time>
      </trkpt>
      <trkpt lat="43.64153" lon="1.28603">
        <ele>173.8</ele>
        <time>2022-10-26T14:29:00Z</time>
      </trkpt>
      <trkpt lat="43.64147" lon="1.28604">
        <ele>173.8</ele>
        <time>2022-10-26T14:29:01Z</time>
      </trkpt>
      <trkpt lat="43.64142" lon="1.28605">
        <ele>173.8</ele>
        <time>2022-10-26T14:29:02Z</time>
      </trkpt>
      <trkpt lat="43.64136" lon="1.28607">
        <ele>173.6</ele>
        <time>2022-10-26T14:29:03Z</time>
      </trkpt>
      <trkpt lat="43.64128" lon="1.28609">
        <ele>173.6</ele>
        <time>2022-10-26T14:29:04Z</time>
      </trkpt>
      <trkpt lat="43.64121" lon="1.2861">
        <ele>173.4</ele>
        <time>2022-10-26T14:29:05Z</time>
      </trkpt>
      <trkpt lat="43.64115" lon="1.28612">
        <ele>173.2</ele>
        <time>2022-10-26T14:29:06Z</time>
      </trkpt>
      <trkpt lat="43.64108" lon="1.28613">
        <ele>173</ele>
        <time>2022-10-26T14:29:07Z</time>
      </trkpt>
      <trkpt lat="43.64103" lon="1.28612">
        <ele>173</ele>
        <time>2022-10-26T14:29:08Z</time>
      </trkpt>
      <trkpt lat="43.64095" lon="1.28612">
        <ele>172.8</ele>
        <time>2022-10-26T14:29:09Z</time>
      </trkpt>
      <trkpt lat="43.64088" lon="1.28611">
        <ele>172.6</ele>
        <time>2022-10-26T14:29:10Z</time>
      </trkpt>
      <trkpt lat="43.64082" lon="1.28611">
        <ele>172.6</ele>
        <time>2022-10-26T14:29:11Z</time>
      </trkpt>
      <trkpt lat="43.64075" lon="1.2861">
        <ele>172.4</ele>
        <time>2022-10-26T14:29:12Z</time>
      </trkpt>
      <trkpt lat="43.6407" lon="1.28607">
        <ele>172.4</ele>
        <time>2022-10-26T14:29:13Z</time>
      </trkpt>
      <trkpt lat="43.64065" lon="1.28605">
        <ele>172.2</ele>
        <time>2022-10-26T14:29:14Z</time>
      </trkpt>
      <trkpt lat="43.6406" lon="1.28604">
        <ele>172</ele>
        <time>2022-10-26T14:29:15Z</time>
      </trkpt>
      <trkpt lat="43.64056" lon="1.28603">
        <ele>171.8</ele>
        <time>2022-10-26T14:29:16Z</time>
      </trkpt>
      <trkpt lat="43.64053" lon="1.28603">
        <ele>171.2</ele>
        <time>2022-10-26T14:29:17Z</time>
      </trkpt>
      <trkpt lat="43.64048" lon="1.28604">
        <ele>171.2</ele>
        <time>2022-10-26T14:29:18Z</time>
      </trkpt>
      <trkpt lat="43.64044" lon="1.28607">
        <ele>171</ele>
        <time>2022-10-26T14:29:19Z</time>
      </trkpt>
      <trkpt lat="43.64041" lon="1.28609">
        <ele>170.8</ele>
        <time>2022-10-26T14:29:20Z</time>
      </trkpt>
      <trkpt lat="43.64038" lon="1.28611">
        <ele>170.8</ele>
        <time>2022-10-26T14:29:21Z</time>
      </trkpt>
      <trkpt lat="43.64033" lon="1.28614">
        <ele>170.8</ele>
        <time>2022-10-26T14:29:22Z</time>
      </trkpt>
      <trkpt lat="43.64029" lon="1.28615">
        <ele>170.8</ele>
        <time>2022-10-26T14:29:23Z</time>
      </trkpt>
      <trkpt lat="43.64026" lon="1.28618">
        <ele>170.8</ele>
        <time>2022-10-26T14:29:24Z</time>
      </trkpt>
      <trkpt lat="43.64022" lon="1.2862">
        <ele>170.8</ele>
        <time>2022-10-26T14:29:25Z</time>
      </trkpt>
      <trkpt lat="43.6402" lon="1.28621">
        <ele>170.4</ele>
        <time>2022-10-26T14:29:26Z</time>
      </trkpt>
      <trkpt lat="43.64015" lon="1.28622">
        <ele>170.4</ele>
        <time>2022-10-26T14:29:27Z</time>
      </trkpt>
      <trkpt lat="43.64011" lon="1.28623">
        <ele>170.4</ele>
        <time>2022-10-26T14:29:28Z</time>
      </trkpt>
      <trkpt lat="43.64007" lon="1.28624">
        <ele>170.8</ele>
        <time>2022-10-26T14:29:29Z</time>
      </trkpt>
      <trkpt lat="43.64003" lon="1.28625">
        <ele>170.8</ele>
        <time>2022-10-26T14:29:30Z</time>
      </trkpt>
      <trkpt lat="43.63999" lon="1.28626">
        <ele>171</ele>
        <time>2022-10-26T14:29:31Z</time>
      </trkpt>
      <trkpt lat="43.63994" lon="1.28628">
        <ele>171.2</ele>
        <time>2022-10-26T14:29:32Z</time>
      </trkpt>
      <trkpt lat="43.6399" lon="1.28629">
        <ele>171.6</ele>
        <time>2022-10-26T14:29:33Z</time>
      </trkpt>
      <trkpt lat="43.63986" lon="1.28631">
        <ele>171.6</ele>
        <time>2022-10-26T14:29:34Z</time>
      </trkpt>
      <trkpt lat="43.63983" lon="1.28632">
        <ele>171.6</ele>
        <time>2022-10-26T14:29:35Z</time>
      </trkpt>
      <trkpt lat="43.63981" lon="1.28634">
        <ele>171.8</ele>
        <time>2022-10-26T14:29:36Z</time>
      </trkpt>
      <trkpt lat="43.63977" lon="1.28635">
        <ele>171.8</ele>
        <time>2022-10-26T14:29:37Z</time>
      </trkpt>
      <trkpt lat="43.63973" lon="1.28635">
        <ele>172</ele>
        <time>2022-10-26T14:29:38Z</time>
      </trkpt>
      <trkpt lat="43.63968" lon="1.28637">
        <ele>172</ele>
        <time>2022-10-26T14:29:39Z</time>
      </trkpt>
      <trkpt lat="43.63963" lon="1.28639">
        <ele>172.4</ele>
        <time>2022-10-26T14:29:40Z</time>
      </trkpt>
      <trkpt lat="43.63958" lon="1.28641">
        <ele>172.6</ele>
        <time>2022-10-26T14:29:41Z</time>
      </trkpt>
      <trkpt lat="43.63951" lon="1.28644">
        <ele>172.8</ele>
        <time>2022-10-26T14:29:42Z</time>
      </trkpt>
      <trkpt lat="43.63947" lon="1.28646">
        <ele>173</ele>
        <time>2022-10-26T14:29:43Z</time>
      </trkpt>
      <trkpt lat="43.63945" lon="1.28649">
        <ele>173</ele>
        <time>2022-10-26T14:29:44Z</time>
      </trkpt>
      <trkpt lat="43.63942" lon="1.28651">
        <ele>173.2</ele>
        <time>2022-10-26T14:29:45Z</time>
      </trkpt>
      <trkpt lat="43.63938" lon="1.28652">
        <ele>173.2</ele>
        <time>2022-10-26T14:29:46Z</time>
      </trkpt>
      <trkpt lat="43.63933" lon="1.28655">
        <ele>173.4</ele>
        <time>2022-10-26T14:29:47Z</time>
      </trkpt>
      <trkpt lat="43.6393" lon="1.28658">
        <ele>173.4</ele>
        <time>2022-10-26T14:29:48Z</time>
      </trkpt>
      <trkpt lat="43.63926" lon="1.2866">
        <ele>173.6</ele>
        <time>2022-10-26T14:29:49Z</time>
      </trkpt>
      <trkpt lat="43.63922" lon="1.28663">
        <ele>173.6</ele>
        <time>2022-10-26T14:29:50Z</time>
      </trkpt>
      <trkpt lat="43.63919" lon="1.28666">
        <ele>173.8</ele>
        <time>2022-10-26T14:29:51Z</time>
      </trkpt>
      <trkpt lat="43.63915" lon="1.28669">
        <ele>173.8</ele>
        <time>2022-10-26T14:29:52Z</time>
      </trkpt>
      <trkpt lat="43.63912" lon="1.28672">
        <ele>174</ele>
        <time>2022-10-26T14:29:53Z</time>
      </trkpt>
      <trkpt lat="43.63908" lon="1.28676">
        <ele>174.2</ele>
        <time>2022-10-26T14:29:54Z</time>
      </trkpt>
      <trkpt lat="43.63904" lon="1.28679">
        <ele>174.4</ele>
        <time>2022-10-26T14:29:55Z</time>
      </trkpt>
      <trkpt lat="43.639" lon="1.28683">
        <ele>174.4</ele>
        <time>2022-10-26T14:29:56Z</time>
      </trkpt>
      <trkpt lat="43.63897" lon="1.28686">
        <ele>174.4</ele>
        <time>2022-10-26T14:29:57Z</time>
      </trkpt>
      <trkpt lat="43.63893" lon="1.2869">
        <ele>174.6</ele>
        <time>2022-10-26T14:29:58Z</time>
      </trkpt>
      <trkpt lat="43.6389" lon="1.28694">
        <ele>174.6</ele>
        <time>2022-10-26T14:29:59Z</time>
      </trkpt>
      <trkpt lat="43.63887" lon="1.28698">
        <ele>174.6</ele>
        <time>2022-10-26T14:30:00Z</time>
      </trkpt>
      <trkpt lat="43.63884" lon="1.28703">
        <ele>174.8</ele>
        <time>2022-10-26T14:30:01Z</time>
      </trkpt>
      <trkpt lat="43.63881" lon="1.28707">
        <ele>175</ele>
        <time>2022-10-26T14:30:02Z</time>
      </trkpt>
      <trkpt lat="43.63878" lon="1.28712">
        <ele>175</ele>
        <time>2022-10-26T14:30:03Z</time>
      </trkpt>
      <trkpt lat="43.63875" lon="1.28717">
        <ele>175.2</ele>
        <time>2022-10-26T14:30:04Z</time>
      </trkpt>
      <trkpt lat="43.63872" lon="1.28724">
        <ele>175.2</ele>
        <time>2022-10-26T14:30:05Z</time>
      </trkpt>
      <trkpt lat="43.63871" lon="1.28731">
        <ele>175.2</ele>
        <time>2022-10-26T14:30:06Z</time>
      </trkpt>
      <trkpt lat="43.6387" lon="1.28737">
        <ele>175.4</ele>
        <time>2022-10-26T14:30:07Z</time>
      </trkpt>
      <trkpt lat="43.63869" lon="1.28744">
        <ele>175.4</ele>
        <time>2022-10-26T14:30:08Z</time>
      </trkpt>
      <trkpt lat="43.63868" lon="1.2875">
        <ele>175.6</ele>
        <time>2022-10-26T14:30:09Z</time>
      </trkpt>
      <trkpt lat="43.63867" lon="1.28756">
        <ele>175.6</ele>
        <time>2022-10-26T14:30:10Z</time>
      </trkpt>
      <trkpt lat="43.63865" lon="1.28763">
        <ele>175.6</ele>
        <time>2022-10-26T14:30:11Z</time>
      </trkpt>
      <trkpt lat="43.63864" lon="1.2877">
        <ele>175.6</ele>
        <time>2022-10-26T14:30:12Z</time>
      </trkpt>
      <trkpt lat="43.63863" lon="1.28776">
        <ele>175.6</ele>
        <time>2022-10-26T14:30:13Z</time>
      </trkpt>
      <trkpt lat="43.63861" lon="1.28782">
        <ele>175.6</ele>
        <time>2022-10-26T14:30:14Z</time>
      </trkpt>
      <trkpt lat="43.63859" lon="1.28786">
        <ele>175.8</ele>
        <time>2022-10-26T14:30:15Z</time>
      </trkpt>
      <trkpt lat="43.63856" lon="1.2879">
        <ele>175.8</ele>
        <time>2022-10-26T14:30:16Z</time>
      </trkpt>
      <trkpt lat="43.63853" lon="1.28792">
        <ele>175.8</ele>
        <time>2022-10-26T14:30:17Z</time>
      </trkpt>
      <trkpt lat="43.63851" lon="1.28793">
        <ele>175.8</ele>
        <time>2022-10-26T14:30:18Z</time>
      </trkpt>
      <trkpt lat="43.63849" lon="1.28791">
        <ele>175.8</ele>
        <time>2022-10-26T14:30:19Z</time>
      </trkpt>
      <trkpt lat="43.63847" lon="1.28787">
        <ele>175.8</ele>
        <time>2022-10-26T14:30:20Z</time>
      </trkpt>
      <trkpt lat="43.63847" lon="1.28782">
        <ele>175.8</ele>
        <time>2022-10-26T14:30:21Z</time>
      </trkpt>
      <trkpt lat="43.63847" lon="1.28776">
        <ele>175.8</ele>
        <time>2022-10-26T14:30:22Z</time>
      </trkpt>
      <trkpt lat="43.63846" lon="1.2877">
        <ele>175.8</ele>
        <time>2022-10-26T14:30:23Z</time>
      </trkpt>
      <trkpt lat="43.63846" lon="1.28764">
        <ele>175.8</ele>
        <time>2022-10-26T14:30:24Z</time>
      </trkpt>
      <trkpt lat="43.63845" lon="1.28757">
        <ele>175.8</ele>
        <time>2022-10-26T14:30:25Z</time>
      </trkpt>
      <trkpt lat="43.63845" lon="1.28752">
        <ele>175.8</ele>
        <time>2022-10-26T14:30:26Z</time>
      </trkpt>
      <trkpt lat="43.63844" lon="1.28745">
        <ele>175.8</ele>
        <time>2022-10-26T14:30:27Z</time>
      </trkpt>
      <trkpt lat="43.63843" lon="1.28737">
        <ele>175.8</ele>
        <time>2022-10-26T14:30:28Z</time>
      </trkpt>
      <trkpt lat="43.63843" lon="1.28729">
        <ele>175.8</ele>
        <time>2022-10-26T14:30:29Z</time>
      </trkpt>
      <trkpt lat="43.63842" lon="1.28721">
        <ele>175.8</ele>
        <time>2022-10-26T14:30:30Z</time>
      </trkpt>
      <trkpt lat="43.63841" lon="1.28714">
        <ele>175.8</ele>
        <time>2022-10-26T14:30:31Z</time>
      </trkpt>
      <trkpt lat="43.6384" lon="1.28706">
        <ele>175.8</ele>
        <time>2022-10-26T14:30:32Z</time>
      </trkpt>
      <trkpt lat="43.6384" lon="1.28698">
        <ele>175.8</ele>
        <time>2022-10-26T14:30:33Z</time>
      </trkpt>
      <trkpt lat="43.63839" lon="1.28689">
        <ele>175.8</ele>
        <time>2022-10-26T14:30:34Z</time>
      </trkpt>
      <trkpt lat="43.63839" lon="1.28681">
        <ele>175.8</ele>
        <time>2022-10-26T14:30:35Z</time>
      </trkpt>
      <trkpt lat="43.63839" lon="1.28672">
        <ele>175.8</ele>
        <time>2022-10-26T14:30:36Z</time>
      </trkpt>
      <trkpt lat="43.63838" lon="1.28663">
        <ele>175.8</ele>
        <time>2022-10-26T14:30:37Z</time>
      </trkpt>
      <trkpt lat="43.63838" lon="1.28654">
        <ele>175.8</ele>
        <time>2022-10-26T14:30:38Z</time>
      </trkpt>
      <trkpt lat="43.63837" lon="1.28646">
        <ele>175.8</ele>
        <time>2022-10-26T14:30:39Z</time>
      </trkpt>
      <trkpt lat="43.63837" lon="1.28637">
        <ele>175.8</ele>
        <time>2022-10-26T14:30:40Z</time>
      </trkpt>
      <trkpt lat="43.63836" lon="1.28627">
        <ele>175.8</ele>
        <time>2022-10-26T14:30:41Z</time>
      </trkpt>
      <trkpt lat="43.63835" lon="1.28618">
        <ele>175.8</ele>
        <time>2022-10-26T14:30:42Z</time>
      </trkpt>
      <trkpt lat="43.63835" lon="1.28609">
        <ele>175.8</ele>
        <time>2022-10-26T14:30:43Z</time>
      </trkpt>
      <trkpt lat="43.63835" lon="1.286">
        <ele>175.8</ele>
        <time>2022-10-26T14:30:44Z</time>
      </trkpt>
      <trkpt lat="43.63835" lon="1.28593">
        <ele>175.8</ele>
        <time>2022-10-26T14:30:45Z</time>
      </trkpt>
      <trkpt lat="43.63834" lon="1.28583">
        <ele>175.8</ele>
        <time>2022-10-26T14:30:46Z</time>
      </trkpt>
      <trkpt lat="43.63834" lon="1.28573">
        <ele>175.8</ele>
        <time>2022-10-26T14:30:47Z</time>
      </trkpt>
      <trkpt lat="43.63834" lon="1.28564">
        <ele>175.8</ele>
        <time>2022-10-26T14:30:48Z</time>
      </trkpt>
      <trkpt lat="43.63833" lon="1.28555">
        <ele>175.8</ele>
        <time>2022-10-26T14:30:49Z</time>
      </trkpt>
      <trkpt lat="43.63833" lon="1.28548">
        <ele>175.8</ele>
        <time>2022-10-26T14:30:50Z</time>
      </trkpt>
      <trkpt lat="43.63832" lon="1.28537">
        <ele>175.8</ele>
        <time>2022-10-26T14:30:51Z</time>
      </trkpt>
      <trkpt lat="43.63831" lon="1.28527">
        <ele>175.8</ele>
        <time>2022-10-26T14:30:52Z</time>
      </trkpt>
      <trkpt lat="43.63831" lon="1.28519">
        <ele>175.8</ele>
        <time>2022-10-26T14:30:53Z</time>
      </trkpt>
      <trkpt lat="43.63831" lon="1.2851">
        <ele>175.8</ele>
        <time>2022-10-26T14:30:54Z</time>
      </trkpt>
      <trkpt lat="43.63831" lon="1.28501">
        <ele>175.8</ele>
        <time>2022-10-26T14:30:55Z</time>
      </trkpt>
      <trkpt lat="43.63831" lon="1.28492">
        <ele>175.8</ele>
        <time>2022-10-26T14:30:56Z</time>
      </trkpt>
      <trkpt lat="43.6383" lon="1.28483">
        <ele>175.8</ele>
        <time>2022-10-26T14:30:57Z</time>
      </trkpt>
      <trkpt lat="43.6383" lon="1.28474">
        <ele>175.8</ele>
        <time>2022-10-26T14:30:58Z</time>
      </trkpt>
      <trkpt lat="43.6383" lon="1.28467">
        <ele>175.8</ele>
        <time>2022-10-26T14:30:59Z</time>
      </trkpt>
      <trkpt lat="43.63829" lon="1.28456">
        <ele>175.8</ele>
        <time>2022-10-26T14:31:00Z</time>
      </trkpt>
      <trkpt lat="43.63829" lon="1.28447">
        <ele>175.8</ele>
        <time>2022-10-26T14:31:01Z</time>
      </trkpt>
      <trkpt lat="43.63829" lon="1.28438">
        <ele>175.8</ele>
        <time>2022-10-26T14:31:02Z</time>
      </trkpt>
      <trkpt lat="43.63828" lon="1.28429">
        <ele>175.6</ele>
        <time>2022-10-26T14:31:03Z</time>
      </trkpt>
      <trkpt lat="43.63828" lon="1.2842">
        <ele>175.6</ele>
        <time>2022-10-26T14:31:04Z</time>
      </trkpt>
      <trkpt lat="43.63827" lon="1.28411">
        <ele>175.6</ele>
        <time>2022-10-26T14:31:05Z</time>
      </trkpt>
      <trkpt lat="43.63827" lon="1.28402">
        <ele>175.6</ele>
        <time>2022-10-26T14:31:06Z</time>
      </trkpt>
      <trkpt lat="43.63827" lon="1.28394">
        <ele>175.6</ele>
        <time>2022-10-26T14:31:07Z</time>
      </trkpt>
      <trkpt lat="43.63827" lon="1.28385">
        <ele>175.6</ele>
        <time>2022-10-26T14:31:08Z</time>
      </trkpt>
      <trkpt lat="43.63827" lon="1.28374">
        <ele>175.4</ele>
        <time>2022-10-26T14:31:09Z</time>
      </trkpt>
      <trkpt lat="43.63826" lon="1.28365">
        <ele>175.4</ele>
        <time>2022-10-26T14:31:10Z</time>
      </trkpt>
      <trkpt lat="43.63825" lon="1.28356">
        <ele>175.4</ele>
        <time>2022-10-26T14:31:11Z</time>
      </trkpt>
      <trkpt lat="43.63824" lon="1.28347">
        <ele>175.4</ele>
        <time>2022-10-26T14:31:12Z</time>
      </trkpt>
      <trkpt lat="43.63823" lon="1.28339">
        <ele>175.4</ele>
        <time>2022-10-26T14:31:13Z</time>
      </trkpt>
      <trkpt lat="43.63822" lon="1.28331">
        <ele>175.4</ele>
        <time>2022-10-26T14:31:14Z</time>
      </trkpt>
      <trkpt lat="43.6382" lon="1.2832">
        <ele>175.4</ele>
        <time>2022-10-26T14:31:15Z</time>
      </trkpt>
      <trkpt lat="43.63818" lon="1.28311">
        <ele>175.4</ele>
        <time>2022-10-26T14:31:16Z</time>
      </trkpt>
      <trkpt lat="43.63816" lon="1.28302">
        <ele>175.2</ele>
        <time>2022-10-26T14:31:17Z</time>
      </trkpt>
      <trkpt lat="43.63814" lon="1.28295">
        <ele>175.2</ele>
        <time>2022-10-26T14:31:18Z</time>
      </trkpt>
      <trkpt lat="43.63811" lon="1.28283">
        <ele>175.2</ele>
        <time>2022-10-26T14:31:19Z</time>
      </trkpt>
      <trkpt lat="43.63809" lon="1.28273">
        <ele>175.2</ele>
        <time>2022-10-26T14:31:20Z</time>
      </trkpt>
      <trkpt lat="43.63808" lon="1.28263">
        <ele>175.2</ele>
        <time>2022-10-26T14:31:21Z</time>
      </trkpt>
      <trkpt lat="43.63806" lon="1.28254">
        <ele>175.2</ele>
        <time>2022-10-26T14:31:22Z</time>
      </trkpt>
      <trkpt lat="43.63804" lon="1.28244">
        <ele>175.2</ele>
        <time>2022-10-26T14:31:23Z</time>
      </trkpt>
      <trkpt lat="43.63803" lon="1.28235">
        <ele>175</ele>
        <time>2022-10-26T14:31:24Z</time>
      </trkpt>
      <trkpt lat="43.63801" lon="1.28226">
        <ele>175</ele>
        <time>2022-10-26T14:31:25Z</time>
      </trkpt>
      <trkpt lat="43.638" lon="1.28216">
        <ele>174.8</ele>
        <time>2022-10-26T14:31:26Z</time>
      </trkpt>
      <trkpt lat="43.63799" lon="1.28209">
        <ele>174.8</ele>
        <time>2022-10-26T14:31:27Z</time>
      </trkpt>
      <trkpt lat="43.63797" lon="1.282">
        <ele>174.6</ele>
        <time>2022-10-26T14:31:28Z</time>
      </trkpt>
      <trkpt lat="43.63796" lon="1.28189">
        <ele>174.6</ele>
        <time>2022-10-26T14:31:29Z</time>
      </trkpt>
      <trkpt lat="43.63795" lon="1.2818">
        <ele>174.6</ele>
        <time>2022-10-26T14:31:30Z</time>
      </trkpt>
      <trkpt lat="43.63794" lon="1.28171">
        <ele>174.4</ele>
        <time>2022-10-26T14:31:31Z</time>
      </trkpt>
      <trkpt lat="43.63794" lon="1.28162">
        <ele>174.4</ele>
        <time>2022-10-26T14:31:32Z</time>
      </trkpt>
      <trkpt lat="43.63793" lon="1.28154">
        <ele>174.4</ele>
        <time>2022-10-26T14:31:33Z</time>
      </trkpt>
      <trkpt lat="43.63792" lon="1.28144">
        <ele>174.4</ele>
        <time>2022-10-26T14:31:34Z</time>
      </trkpt>
      <trkpt lat="43.63792" lon="1.28135">
        <ele>174.4</ele>
        <time>2022-10-26T14:31:35Z</time>
      </trkpt>
      <trkpt lat="43.63791" lon="1.28125">
        <ele>174.4</ele>
        <time>2022-10-26T14:31:36Z</time>
      </trkpt>
      <trkpt lat="43.63791" lon="1.28117">
        <ele>174.4</ele>
        <time>2022-10-26T14:31:37Z</time>
      </trkpt>
      <trkpt lat="43.63791" lon="1.28106">
        <ele>174.2</ele>
        <time>2022-10-26T14:31:38Z</time>
      </trkpt>
      <trkpt lat="43.6379" lon="1.28097">
        <ele>174.2</ele>
        <time>2022-10-26T14:31:39Z</time>
      </trkpt>
      <trkpt lat="43.6379" lon="1.28088">
        <ele>174.2</ele>
        <time>2022-10-26T14:31:40Z</time>
      </trkpt>
      <trkpt lat="43.6379" lon="1.2808">
        <ele>174.2</ele>
        <time>2022-10-26T14:31:41Z</time>
      </trkpt>
      <trkpt lat="43.63789" lon="1.28072">
        <ele>174.2</ele>
        <time>2022-10-26T14:31:42Z</time>
      </trkpt>
      <trkpt lat="43.6379" lon="1.28063">
        <ele>174.2</ele>
        <time>2022-10-26T14:31:43Z</time>
      </trkpt>
      <trkpt lat="43.63789" lon="1.28053">
        <ele>174.4</ele>
        <time>2022-10-26T14:31:44Z</time>
      </trkpt>
      <trkpt lat="43.63789" lon="1.28045">
        <ele>174</ele>
        <time>2022-10-26T14:31:45Z</time>
      </trkpt>
      <trkpt lat="43.63788" lon="1.28038">
        <ele>174</ele>
        <time>2022-10-26T14:31:46Z</time>
      </trkpt>
      <trkpt lat="43.63788" lon="1.28027">
        <ele>174.2</ele>
        <time>2022-10-26T14:31:47Z</time>
      </trkpt>
      <trkpt lat="43.63788" lon="1.28018">
        <ele>173.8</ele>
        <time>2022-10-26T14:31:48Z</time>
      </trkpt>
      <trkpt lat="43.63788" lon="1.28008">
        <ele>173.8</ele>
        <time>2022-10-26T14:31:49Z</time>
      </trkpt>
      <trkpt lat="43.63789" lon="1.28001">
        <ele>174</ele>
        <time>2022-10-26T14:31:50Z</time>
      </trkpt>
      <trkpt lat="43.63791" lon="1.27992">
        <ele>174</ele>
        <time>2022-10-26T14:31:51Z</time>
      </trkpt>
      <trkpt lat="43.63793" lon="1.27982">
        <ele>173.8</ele>
        <time>2022-10-26T14:31:52Z</time>
      </trkpt>
      <trkpt lat="43.63794" lon="1.27973">
        <ele>173.8</ele>
        <time>2022-10-26T14:31:53Z</time>
      </trkpt>
      <trkpt lat="43.63796" lon="1.27964">
        <ele>174</ele>
        <time>2022-10-26T14:31:54Z</time>
      </trkpt>
      <trkpt lat="43.63797" lon="1.27955">
        <ele>174.2</ele>
        <time>2022-10-26T14:31:55Z</time>
      </trkpt>
      <trkpt lat="43.63797" lon="1.27947">
        <ele>174.2</ele>
        <time>2022-10-26T14:31:56Z</time>
      </trkpt>
      <trkpt lat="43.63797" lon="1.27936">
        <ele>174.2</ele>
        <time>2022-10-26T14:31:57Z</time>
      </trkpt>
      <trkpt lat="43.63796" lon="1.27927">
        <ele>174.2</ele>
        <time>2022-10-26T14:31:58Z</time>
      </trkpt>
      <trkpt lat="43.63796" lon="1.27918">
        <ele>174.2</ele>
        <time>2022-10-26T14:31:59Z</time>
      </trkpt>
      <trkpt lat="43.63795" lon="1.2791">
        <ele>174.2</ele>
        <time>2022-10-26T14:32:00Z</time>
      </trkpt>
      <trkpt lat="43.63794" lon="1.27899">
        <ele>174.2</ele>
        <time>2022-10-26T14:32:01Z</time>
      </trkpt>
      <trkpt lat="43.63793" lon="1.2789">
        <ele>174.2</ele>
        <time>2022-10-26T14:32:02Z</time>
      </trkpt>
      <trkpt lat="43.63792" lon="1.27881">
        <ele>174.2</ele>
        <time>2022-10-26T14:32:03Z</time>
      </trkpt>
      <trkpt lat="43.63791" lon="1.27872">
        <ele>174</ele>
        <time>2022-10-26T14:32:04Z</time>
      </trkpt>
      <trkpt lat="43.6379" lon="1.27863">
        <ele>174</ele>
        <time>2022-10-26T14:32:05Z</time>
      </trkpt>
      <trkpt lat="43.6379" lon="1.27855">
        <ele>174</ele>
        <time>2022-10-26T14:32:06Z</time>
      </trkpt>
      <trkpt lat="43.63789" lon="1.27846">
        <ele>174.2</ele>
        <time>2022-10-26T14:32:07Z</time>
      </trkpt>
      <trkpt lat="43.63788" lon="1.27836">
        <ele>174.2</ele>
        <time>2022-10-26T14:32:08Z</time>
      </trkpt>
      <trkpt lat="43.63787" lon="1.27829">
        <ele>174</ele>
        <time>2022-10-26T14:32:09Z</time>
      </trkpt>
      <trkpt lat="43.63786" lon="1.27821">
        <ele>174</ele>
        <time>2022-10-26T14:32:10Z</time>
      </trkpt>
      <trkpt lat="43.63785" lon="1.27811">
        <ele>174</ele>
        <time>2022-10-26T14:32:11Z</time>
      </trkpt>
      <trkpt lat="43.63784" lon="1.27802">
        <ele>174</ele>
        <time>2022-10-26T14:32:12Z</time>
      </trkpt>
      <trkpt lat="43.63784" lon="1.27794">
        <ele>174.2</ele>
        <time>2022-10-26T14:32:13Z</time>
      </trkpt>
      <trkpt lat="43.63783" lon="1.27786">
        <ele>174.2</ele>
        <time>2022-10-26T14:32:14Z</time>
      </trkpt>
      <trkpt lat="43.63782" lon="1.27778">
        <ele>174.2</ele>
        <time>2022-10-26T14:32:15Z</time>
      </trkpt>
      <trkpt lat="43.63782" lon="1.2777">
        <ele>174.2</ele>
        <time>2022-10-26T14:32:16Z</time>
      </trkpt>
      <trkpt lat="43.63781" lon="1.27762">
        <ele>174.2</ele>
        <time>2022-10-26T14:32:17Z</time>
      </trkpt>
      <trkpt lat="43.63781" lon="1.27753">
        <ele>174.2</ele>
        <time>2022-10-26T14:32:18Z</time>
      </trkpt>
      <trkpt lat="43.6378" lon="1.27747">
        <ele>174.2</ele>
        <time>2022-10-26T14:32:19Z</time>
      </trkpt>
      <trkpt lat="43.63779" lon="1.27737">
        <ele>174.2</ele>
        <time>2022-10-26T14:32:20Z</time>
      </trkpt>
      <trkpt lat="43.63778" lon="1.27728">
        <ele>174.4</ele>
        <time>2022-10-26T14:32:21Z</time>
      </trkpt>
      <trkpt lat="43.63778" lon="1.27719">
        <ele>174.4</ele>
        <time>2022-10-26T14:32:22Z</time>
      </trkpt>
      <trkpt lat="43.63777" lon="1.27712">
        <ele>174.4</ele>
        <time>2022-10-26T14:32:23Z</time>
      </trkpt>
      <trkpt lat="43.63776" lon="1.27701">
        <ele>174.4</ele>
        <time>2022-10-26T14:32:24Z</time>
      </trkpt>
      <trkpt lat="43.63775" lon="1.27692">
        <ele>174.4</ele>
        <time>2022-10-26T14:32:25Z</time>
      </trkpt>
      <trkpt lat="43.63774" lon="1.27683">
        <ele>174.4</ele>
        <time>2022-10-26T14:32:26Z</time>
      </trkpt>
      <trkpt lat="43.63773" lon="1.27674">
        <ele>174.4</ele>
        <time>2022-10-26T14:32:27Z</time>
      </trkpt>
      <trkpt lat="43.63773" lon="1.27666">
        <ele>174.4</ele>
        <time>2022-10-26T14:32:28Z</time>
      </trkpt>
      <trkpt lat="43.63771" lon="1.27656">
        <ele>174.4</ele>
        <time>2022-10-26T14:32:29Z</time>
      </trkpt>
      <trkpt lat="43.6377" lon="1.27646">
        <ele>174.6</ele>
        <time>2022-10-26T14:32:30Z</time>
      </trkpt>
      <trkpt lat="43.63769" lon="1.27637">
        <ele>174.4</ele>
        <time>2022-10-26T14:32:31Z</time>
      </trkpt>
      <trkpt lat="43.63768" lon="1.2763">
        <ele>174.6</ele>
        <time>2022-10-26T14:32:32Z</time>
      </trkpt>
      <trkpt lat="43.63768" lon="1.2762">
        <ele>174.6</ele>
        <time>2022-10-26T14:32:33Z</time>
      </trkpt>
      <trkpt lat="43.63767" lon="1.27611">
        <ele>174.6</ele>
        <time>2022-10-26T14:32:34Z</time>
      </trkpt>
      <trkpt lat="43.63767" lon="1.27602">
        <ele>174.8</ele>
        <time>2022-10-26T14:32:35Z</time>
      </trkpt>
      <trkpt lat="43.63766" lon="1.27593">
        <ele>174.8</ele>
        <time>2022-10-26T14:32:36Z</time>
      </trkpt>
      <trkpt lat="43.63765" lon="1.27586">
        <ele>175</ele>
        <time>2022-10-26T14:32:37Z</time>
      </trkpt>
      <trkpt lat="43.63764" lon="1.27575">
        <ele>175</ele>
        <time>2022-10-26T14:32:38Z</time>
      </trkpt>
      <trkpt lat="43.63764" lon="1.27567">
        <ele>175</ele>
        <time>2022-10-26T14:32:39Z</time>
      </trkpt>
      <trkpt lat="43.63763" lon="1.27558">
        <ele>175</ele>
        <time>2022-10-26T14:32:40Z</time>
      </trkpt>
      <trkpt lat="43.63762" lon="1.27552">
        <ele>175</ele>
        <time>2022-10-26T14:32:41Z</time>
      </trkpt>
      <trkpt lat="43.63762" lon="1.27541">
        <ele>175</ele>
        <time>2022-10-26T14:32:42Z</time>
      </trkpt>
      <trkpt lat="43.63761" lon="1.27533">
        <ele>175</ele>
        <time>2022-10-26T14:32:43Z</time>
      </trkpt>
      <trkpt lat="43.6376" lon="1.27524">
        <ele>175</ele>
        <time>2022-10-26T14:32:44Z</time>
      </trkpt>
      <trkpt lat="43.6376" lon="1.27516">
        <ele>175</ele>
        <time>2022-10-26T14:32:45Z</time>
      </trkpt>
      <trkpt lat="43.63759" lon="1.27507">
        <ele>175</ele>
        <time>2022-10-26T14:32:46Z</time>
      </trkpt>
      <trkpt lat="43.63758" lon="1.275">
        <ele>175</ele>
        <time>2022-10-26T14:32:47Z</time>
      </trkpt>
      <trkpt lat="43.63757" lon="1.2749">
        <ele>175</ele>
        <time>2022-10-26T14:32:48Z</time>
      </trkpt>
      <trkpt lat="43.63757" lon="1.27481">
        <ele>175.2</ele>
        <time>2022-10-26T14:32:49Z</time>
      </trkpt>
      <trkpt lat="43.63756" lon="1.27472">
        <ele>175.2</ele>
        <time>2022-10-26T14:32:50Z</time>
      </trkpt>
      <trkpt lat="43.63755" lon="1.27465">
        <ele>175.4</ele>
        <time>2022-10-26T14:32:51Z</time>
      </trkpt>
      <trkpt lat="43.63754" lon="1.27455">
        <ele>175.4</ele>
        <time>2022-10-26T14:32:52Z</time>
      </trkpt>
      <trkpt lat="43.63753" lon="1.27446">
        <ele>175.6</ele>
        <time>2022-10-26T14:32:53Z</time>
      </trkpt>
      <trkpt lat="43.63752" lon="1.27437">
        <ele>175.6</ele>
        <time>2022-10-26T14:32:54Z</time>
      </trkpt>
      <trkpt lat="43.63751" lon="1.27428">
        <ele>175.6</ele>
        <time>2022-10-26T14:32:55Z</time>
      </trkpt>
      <trkpt lat="43.63751" lon="1.2742">
        <ele>175.6</ele>
        <time>2022-10-26T14:32:56Z</time>
      </trkpt>
      <trkpt lat="43.6375" lon="1.2741">
        <ele>175.6</ele>
        <time>2022-10-26T14:32:57Z</time>
      </trkpt>
      <trkpt lat="43.63749" lon="1.27401">
        <ele>175.8</ele>
        <time>2022-10-26T14:32:58Z</time>
      </trkpt>
      <trkpt lat="43.63749" lon="1.27392">
        <ele>175.8</ele>
        <time>2022-10-26T14:32:59Z</time>
      </trkpt>
      <trkpt lat="43.63748" lon="1.27385">
        <ele>175.8</ele>
        <time>2022-10-26T14:33:00Z</time>
      </trkpt>
      <trkpt lat="43.63748" lon="1.27374">
        <ele>175.8</ele>
        <time>2022-10-26T14:33:01Z</time>
      </trkpt>
      <trkpt lat="43.63748" lon="1.27366">
        <ele>175.8</ele>
        <time>2022-10-26T14:33:02Z</time>
      </trkpt>
      <trkpt lat="43.63748" lon="1.27357">
        <ele>175.8</ele>
        <time>2022-10-26T14:33:03Z</time>
      </trkpt>
      <trkpt lat="43.63748" lon="1.27348">
        <ele>175.8</ele>
        <time>2022-10-26T14:33:04Z</time>
      </trkpt>
      <trkpt lat="43.63748" lon="1.27341">
        <ele>175.8</ele>
        <time>2022-10-26T14:33:05Z</time>
      </trkpt>
      <trkpt lat="43.63748" lon="1.27331">
        <ele>175.8</ele>
        <time>2022-10-26T14:33:06Z</time>
      </trkpt>
      <trkpt lat="43.63748" lon="1.27322">
        <ele>175.8</ele>
        <time>2022-10-26T14:33:07Z</time>
      </trkpt>
      <trkpt lat="43.63748" lon="1.27314">
        <ele>175.8</ele>
        <time>2022-10-26T14:33:08Z</time>
      </trkpt>
      <trkpt lat="43.63748" lon="1.27305">
        <ele>175.8</ele>
        <time>2022-10-26T14:33:09Z</time>
      </trkpt>
      <trkpt lat="43.63748" lon="1.27296">
        <ele>175.8</ele>
        <time>2022-10-26T14:33:10Z</time>
      </trkpt>
      <trkpt lat="43.63748" lon="1.27288">
        <ele>175.8</ele>
        <time>2022-10-26T14:33:11Z</time>
      </trkpt>
      <trkpt lat="43.63748" lon="1.27279">
        <ele>175.8</ele>
        <time>2022-10-26T14:33:12Z</time>
      </trkpt>
      <trkpt lat="43.63748" lon="1.27271">
        <ele>175.8</ele>
        <time>2022-10-26T14:33:13Z</time>
      </trkpt>
      <trkpt lat="43.63748" lon="1.27263">
        <ele>175.8</ele>
        <time>2022-10-26T14:33:14Z</time>
      </trkpt>
      <trkpt lat="43.63748" lon="1.27255">
        <ele>175.8</ele>
        <time>2022-10-26T14:33:15Z</time>
      </trkpt>
      <trkpt lat="43.63748" lon="1.27247">
        <ele>175.8</ele>
        <time>2022-10-26T14:33:16Z</time>
      </trkpt>
      <trkpt lat="43.63748" lon="1.27238">
        <ele>176</ele>
        <time>2022-10-26T14:33:17Z</time>
      </trkpt>
      <trkpt lat="43.63748" lon="1.2723">
        <ele>176</ele>
        <time>2022-10-26T14:33:18Z</time>
      </trkpt>
      <trkpt lat="43.63747" lon="1.27221">
        <ele>176</ele>
        <time>2022-10-26T14:33:19Z</time>
      </trkpt>
      <trkpt lat="43.63747" lon="1.27213">
        <ele>176</ele>
        <time>2022-10-26T14:33:20Z</time>
      </trkpt>
      <trkpt lat="43.63746" lon="1.27205">
        <ele>176</ele>
        <time>2022-10-26T14:33:21Z</time>
      </trkpt>
      <trkpt lat="43.63746" lon="1.27197">
        <ele>176</ele>
        <time>2022-10-26T14:33:22Z</time>
      </trkpt>
      <trkpt lat="43.63746" lon="1.2719">
        <ele>176.2</ele>
        <time>2022-10-26T14:33:23Z</time>
      </trkpt>
      <trkpt lat="43.63746" lon="1.27182">
        <ele>176.2</ele>
        <time>2022-10-26T14:33:24Z</time>
      </trkpt>
      <trkpt lat="43.63746" lon="1.27174">
        <ele>176.2</ele>
        <time>2022-10-26T14:33:25Z</time>
      </trkpt>
      <trkpt lat="43.63746" lon="1.27166">
        <ele>176.4</ele>
        <time>2022-10-26T14:33:26Z</time>
      </trkpt>
      <trkpt lat="43.63745" lon="1.27158">
        <ele>176.4</ele>
        <time>2022-10-26T14:33:27Z</time>
      </trkpt>
      <trkpt lat="43.63745" lon="1.2715">
        <ele>176.4</ele>
        <time>2022-10-26T14:33:28Z</time>
      </trkpt>
      <trkpt lat="43.63745" lon="1.27142">
        <ele>176.4</ele>
        <time>2022-10-26T14:33:29Z</time>
      </trkpt>
      <trkpt lat="43.63745" lon="1.27134">
        <ele>176.4</ele>
        <time>2022-10-26T14:33:30Z</time>
      </trkpt>
      <trkpt lat="43.63745" lon="1.27127">
        <ele>176.2</ele>
        <time>2022-10-26T14:33:31Z</time>
      </trkpt>
      <trkpt lat="43.63745" lon="1.27118">
        <ele>176.2</ele>
        <time>2022-10-26T14:33:32Z</time>
      </trkpt>
      <trkpt lat="43.63745" lon="1.27111">
        <ele>176.2</ele>
        <time>2022-10-26T14:33:33Z</time>
      </trkpt>
      <trkpt lat="43.63746" lon="1.27103">
        <ele>176.2</ele>
        <time>2022-10-26T14:33:34Z</time>
      </trkpt>
      <trkpt lat="43.63747" lon="1.27095">
        <ele>176.2</ele>
        <time>2022-10-26T14:33:35Z</time>
      </trkpt>
      <trkpt lat="43.63748" lon="1.27087">
        <ele>176.2</ele>
        <time>2022-10-26T14:33:36Z</time>
      </trkpt>
      <trkpt lat="43.63749" lon="1.27078">
        <ele>176.2</ele>
        <time>2022-10-26T14:33:37Z</time>
      </trkpt>
      <trkpt lat="43.6375" lon="1.2707">
        <ele>176</ele>
        <time>2022-10-26T14:33:38Z</time>
      </trkpt>
      <trkpt lat="43.63752" lon="1.27062">
        <ele>176</ele>
        <time>2022-10-26T14:33:39Z</time>
      </trkpt>
      <trkpt lat="43.63754" lon="1.27054">
        <ele>176</ele>
        <time>2022-10-26T14:33:40Z</time>
      </trkpt>
      <trkpt lat="43.63756" lon="1.27046">
        <ele>176.2</ele>
        <time>2022-10-26T14:33:41Z</time>
      </trkpt>
      <trkpt lat="43.63758" lon="1.27038">
        <ele>176.2</ele>
        <time>2022-10-26T14:33:42Z</time>
      </trkpt>
      <trkpt lat="43.6376" lon="1.2703">
        <ele>176.2</ele>
        <time>2022-10-26T14:33:43Z</time>
      </trkpt>
      <trkpt lat="43.63763" lon="1.27021">
        <ele>176.4</ele>
        <time>2022-10-26T14:33:44Z</time>
      </trkpt>
      <trkpt lat="43.63765" lon="1.27013">
        <ele>176.4</ele>
        <time>2022-10-26T14:33:45Z</time>
      </trkpt>
      <trkpt lat="43.63767" lon="1.27005">
        <ele>176.4</ele>
        <time>2022-10-26T14:33:46Z</time>
      </trkpt>
      <trkpt lat="43.6377" lon="1.26997">
        <ele>176.4</ele>
        <time>2022-10-26T14:33:47Z</time>
      </trkpt>
      <trkpt lat="43.63772" lon="1.26989">
        <ele>176.6</ele>
        <time>2022-10-26T14:33:48Z</time>
      </trkpt>
      <trkpt lat="43.63775" lon="1.26981">
        <ele>176.6</ele>
        <time>2022-10-26T14:33:49Z</time>
      </trkpt>
      <trkpt lat="43.63777" lon="1.26973">
        <ele>176.6</ele>
        <time>2022-10-26T14:33:50Z</time>
      </trkpt>
      <trkpt lat="43.6378" lon="1.26965">
        <ele>176.6</ele>
        <time>2022-10-26T14:33:51Z</time>
      </trkpt>
      <trkpt lat="43.63782" lon="1.26958">
        <ele>176.6</ele>
        <time>2022-10-26T14:33:52Z</time>
      </trkpt>
      <trkpt lat="43.63785" lon="1.2695">
        <ele>176.4</ele>
        <time>2022-10-26T14:33:53Z</time>
      </trkpt>
      <trkpt lat="43.63787" lon="1.26943">
        <ele>176.6</ele>
        <time>2022-10-26T14:33:54Z</time>
      </trkpt>
      <trkpt lat="43.6379" lon="1.26936">
        <ele>176.6</ele>
        <time>2022-10-26T14:33:55Z</time>
      </trkpt>
      <trkpt lat="43.63793" lon="1.26929">
        <ele>176.6</ele>
        <time>2022-10-26T14:33:56Z</time>
      </trkpt>
      <trkpt lat="43.63796" lon="1.26922">
        <ele>176.6</ele>
        <time>2022-10-26T14:33:57Z</time>
      </trkpt>
      <trkpt lat="43.63799" lon="1.26915">
        <ele>176.6</ele>
        <time>2022-10-26T14:33:58Z</time>
      </trkpt>
      <trkpt lat="43.63802" lon="1.26908">
        <ele>176.8</ele>
        <time>2022-10-26T14:33:59Z</time>
      </trkpt>
      <trkpt lat="43.63806" lon="1.26899">
        <ele>176.8</ele>
        <time>2022-10-26T14:34:00Z</time>
      </trkpt>
      <trkpt lat="43.63809" lon="1.26892">
        <ele>177</ele>
        <time>2022-10-26T14:34:01Z</time>
      </trkpt>
      <trkpt lat="43.63812" lon="1.26885">
        <ele>177</ele>
        <time>2022-10-26T14:34:02Z</time>
      </trkpt>
      <trkpt lat="43.63815" lon="1.26879">
        <ele>177.2</ele>
        <time>2022-10-26T14:34:03Z</time>
      </trkpt>
      <trkpt lat="43.63818" lon="1.26871">
        <ele>177.2</ele>
        <time>2022-10-26T14:34:04Z</time>
      </trkpt>
      <trkpt lat="43.63821" lon="1.26862">
        <ele>177.2</ele>
        <time>2022-10-26T14:34:05Z</time>
      </trkpt>
      <trkpt lat="43.63823" lon="1.26856">
        <ele>177.2</ele>
        <time>2022-10-26T14:34:06Z</time>
      </trkpt>
      <trkpt lat="43.63826" lon="1.26848">
        <ele>177.2</ele>
        <time>2022-10-26T14:34:07Z</time>
      </trkpt>
      <trkpt lat="43.63829" lon="1.2684">
        <ele>177.2</ele>
        <time>2022-10-26T14:34:08Z</time>
      </trkpt>
      <trkpt lat="43.63832" lon="1.26832">
        <ele>177.2</ele>
        <time>2022-10-26T14:34:09Z</time>
      </trkpt>
      <trkpt lat="43.63835" lon="1.26823">
        <ele>177.2</ele>
        <time>2022-10-26T14:34:10Z</time>
      </trkpt>
      <trkpt lat="43.63838" lon="1.26815">
        <ele>177.2</ele>
        <time>2022-10-26T14:34:11Z</time>
      </trkpt>
      <trkpt lat="43.6384" lon="1.26809">
        <ele>177.2</ele>
        <time>2022-10-26T14:34:12Z</time>
      </trkpt>
      <trkpt lat="43.63843" lon="1.26804">
        <ele>177.2</ele>
        <time>2022-10-26T14:34:13Z</time>
      </trkpt>
      <trkpt lat="43.63844" lon="1.26799">
        <ele>177.2</ele>
        <time>2022-10-26T14:34:14Z</time>
      </trkpt>
      <trkpt lat="43.63845" lon="1.26795">
        <ele>177.2</ele>
        <time>2022-10-26T14:34:15Z</time>
      </trkpt>
      <trkpt lat="43.63845" lon="1.26794">
        <ele>177.2</ele>
        <time>2022-10-26T14:34:16Z</time>
      </trkpt>
      <trkpt lat="43.63845" lon="1.26794">
        <ele>177.2</ele>
        <time>2022-10-26T14:34:17Z</time>
      </trkpt>
      <trkpt lat="43.63845" lon="1.26794">
        <ele>177.2</ele>
        <time>2022-10-26T14:34:18Z</time>
      </trkpt>
      <trkpt lat="43.63845" lon="1.26794">
        <ele>177.2</ele>
        <time>2022-10-26T14:34:19Z</time>
      </trkpt>
      <trkpt lat="43.63846" lon="1.26791">
        <ele>177.6</ele>
        <time>2022-10-26T14:36:00Z</time>
      </trkpt>
      <trkpt lat="43.63847" lon="1.26788">
        <ele>177.6</ele>
        <time>2022-10-26T14:36:01Z</time>
      </trkpt>
      <trkpt lat="43.63849" lon="1.26785">
        <ele>177.8</ele>
        <time>2022-10-26T14:36:02Z</time>
      </trkpt>
      <trkpt lat="43.63851" lon="1.26781">
        <ele>177.8</ele>
        <time>2022-10-26T14:36:03Z</time>
      </trkpt>
      <trkpt lat="43.63853" lon="1.26778">
        <ele>177.8</ele>
        <time>2022-10-26T14:36:04Z</time>
      </trkpt>
      <trkpt lat="43.63856" lon="1.26773">
        <ele>177.8</ele>
        <time>2022-10-26T14:36:05Z</time>
      </trkpt>
      <trkpt lat="43.63859" lon="1.26768">
        <ele>177.6</ele>
        <time>2022-10-26T14:36:06Z</time>
      </trkpt>
      <trkpt lat="43.63861" lon="1.26762">
        <ele>177.6</ele>
        <time>2022-10-26T14:36:07Z</time>
      </trkpt>
      <trkpt lat="43.63864" lon="1.26756">
        <ele>177.6</ele>
        <time>2022-10-26T14:36:08Z</time>
      </trkpt>
      <trkpt lat="43.63866" lon="1.2675">
        <ele>177.6</ele>
        <time>2022-10-26T14:36:09Z</time>
      </trkpt>
      <trkpt lat="43.63869" lon="1.26743">
        <ele>177.4</ele>
        <time>2022-10-26T14:36:10Z</time>
      </trkpt>
      <trkpt lat="43.63872" lon="1.26737">
        <ele>177.4</ele>
        <time>2022-10-26T14:36:11Z</time>
      </trkpt>
      <trkpt lat="43.63875" lon="1.26729">
        <ele>177.4</ele>
        <time>2022-10-26T14:36:12Z</time>
      </trkpt>
      <trkpt lat="43.63879" lon="1.26721">
        <ele>177.4</ele>
        <time>2022-10-26T14:36:13Z</time>
      </trkpt>
      <trkpt lat="43.63882" lon="1.26713">
        <ele>177.6</ele>
        <time>2022-10-26T14:36:14Z</time>
      </trkpt>
      <trkpt lat="43.63885" lon="1.26706">
        <ele>177.6</ele>
        <time>2022-10-26T14:36:15Z</time>
      </trkpt>
      <trkpt lat="43.63888" lon="1.267">
        <ele>177.6</ele>
        <time>2022-10-26T14:36:16Z</time>
      </trkpt>
      <trkpt lat="43.63892" lon="1.26693">
        <ele>177.6</ele>
        <time>2022-10-26T14:36:17Z</time>
      </trkpt>
      <trkpt lat="43.63896" lon="1.26683">
        <ele>177.6</ele>
        <time>2022-10-26T14:36:18Z</time>
      </trkpt>
      <trkpt lat="43.63899" lon="1.26676">
        <ele>177.6</ele>
        <time>2022-10-26T14:36:19Z</time>
      </trkpt>
      <trkpt lat="43.63903" lon="1.26668">
        <ele>177.6</ele>
        <time>2022-10-26T14:36:20Z</time>
      </trkpt>
      <trkpt lat="43.63906" lon="1.26661">
        <ele>177.6</ele>
        <time>2022-10-26T14:36:21Z</time>
      </trkpt>
      <trkpt lat="43.6391" lon="1.26651">
        <ele>177.6</ele>
        <time>2022-10-26T14:36:22Z</time>
      </trkpt>
      <trkpt lat="43.63912" lon="1.26644">
        <ele>177.8</ele>
        <time>2022-10-26T14:36:23Z</time>
      </trkpt>
      <trkpt lat="43.63916" lon="1.26634">
        <ele>177.8</ele>
        <time>2022-10-26T14:36:24Z</time>
      </trkpt>
      <trkpt lat="43.63919" lon="1.26627">
        <ele>177.8</ele>
        <time>2022-10-26T14:36:25Z</time>
      </trkpt>
      <trkpt lat="43.63922" lon="1.26618">
        <ele>177.8</ele>
        <time>2022-10-26T14:36:26Z</time>
      </trkpt>
      <trkpt lat="43.63926" lon="1.26608">
        <ele>177.8</ele>
        <time>2022-10-26T14:36:27Z</time>
      </trkpt>
      <trkpt lat="43.63929" lon="1.266">
        <ele>177.8</ele>
        <time>2022-10-26T14:36:28Z</time>
      </trkpt>
      <trkpt lat="43.63932" lon="1.26592">
        <ele>178</ele>
        <time>2022-10-26T14:36:29Z</time>
      </trkpt>
      <trkpt lat="43.63935" lon="1.26586">
        <ele>178</ele>
        <time>2022-10-26T14:36:30Z</time>
      </trkpt>
      <trkpt lat="43.63938" lon="1.26578">
        <ele>178</ele>
        <time>2022-10-26T14:36:31Z</time>
      </trkpt>
      <trkpt lat="43.63941" lon="1.26569">
        <ele>178</ele>
        <time>2022-10-26T14:36:32Z</time>
      </trkpt>
      <trkpt lat="43.63944" lon="1.26562">
        <ele>178</ele>
        <time>2022-10-26T14:36:33Z</time>
      </trkpt>
      <trkpt lat="43.63947" lon="1.26555">
        <ele>178</ele>
        <time>2022-10-26T14:36:34Z</time>
      </trkpt>
      <trkpt lat="43.63949" lon="1.2655">
        <ele>178</ele>
        <time>2022-10-26T14:36:35Z</time>
      </trkpt>
      <trkpt lat="43.63953" lon="1.2654">
        <ele>178</ele>
        <time>2022-10-26T14:36:36Z</time>
      </trkpt>
      <trkpt lat="43.63956" lon="1.26533">
        <ele>178</ele>
        <time>2022-10-26T14:36:37Z</time>
      </trkpt>
      <trkpt lat="43.63959" lon="1.26525">
        <ele>178.2</ele>
        <time>2022-10-26T14:36:38Z</time>
      </trkpt>
      <trkpt lat="43.63962" lon="1.26519">
        <ele>178.2</ele>
        <time>2022-10-26T14:36:39Z</time>
      </trkpt>
      <trkpt lat="43.63965" lon="1.26511">
        <ele>178.2</ele>
        <time>2022-10-26T14:36:40Z</time>
      </trkpt>
      <trkpt lat="43.63969" lon="1.26502">
        <ele>178.2</ele>
        <time>2022-10-26T14:36:41Z</time>
      </trkpt>
      <trkpt lat="43.63972" lon="1.26494">
        <ele>178.2</ele>
        <time>2022-10-26T14:36:42Z</time>
      </trkpt>
      <trkpt lat="43.63975" lon="1.26486">
        <ele>178.2</ele>
        <time>2022-10-26T14:36:43Z</time>
      </trkpt>
      <trkpt lat="43.63977" lon="1.2648">
        <ele>178.2</ele>
        <time>2022-10-26T14:36:44Z</time>
      </trkpt>
      <trkpt lat="43.63981" lon="1.26472">
        <ele>178.2</ele>
        <time>2022-10-26T14:36:45Z</time>
      </trkpt>
      <trkpt lat="43.63984" lon="1.26462">
        <ele>178.2</ele>
        <time>2022-10-26T14:36:46Z</time>
      </trkpt>
      <trkpt lat="43.63988" lon="1.26454">
        <ele>178.2</ele>
        <time>2022-10-26T14:36:47Z</time>
      </trkpt>
      <trkpt lat="43.63991" lon="1.26446">
        <ele>178.2</ele>
        <time>2022-10-26T14:36:48Z</time>
      </trkpt>
      <trkpt lat="43.63993" lon="1.26439">
        <ele>178.2</ele>
        <time>2022-10-26T14:36:49Z</time>
      </trkpt>
      <trkpt lat="43.63997" lon="1.2643">
        <ele>178.2</ele>
        <time>2022-10-26T14:36:50Z</time>
      </trkpt>
      <trkpt lat="43.64" lon="1.26422">
        <ele>178.2</ele>
        <time>2022-10-26T14:36:51Z</time>
      </trkpt>
      <trkpt lat="43.64004" lon="1.26414">
        <ele>178.2</ele>
        <time>2022-10-26T14:36:52Z</time>
      </trkpt>
      <trkpt lat="43.64006" lon="1.26408">
        <ele>178.2</ele>
        <time>2022-10-26T14:36:53Z</time>
      </trkpt>
      <trkpt lat="43.6401" lon="1.26401">
        <ele>178.2</ele>
        <time>2022-10-26T14:36:54Z</time>
      </trkpt>
      <trkpt lat="43.64014" lon="1.26393">
        <ele>178.2</ele>
        <time>2022-10-26T14:36:55Z</time>
      </trkpt>
      <trkpt lat="43.64018" lon="1.26386">
        <ele>178.2</ele>
        <time>2022-10-26T14:36:56Z</time>
      </trkpt>
      <trkpt lat="43.64023" lon="1.2638">
        <ele>178.4</ele>
        <time>2022-10-26T14:36:57Z</time>
      </trkpt>
      <trkpt lat="43.64027" lon="1.26375">
        <ele>178</ele>
        <time>2022-10-26T14:36:58Z</time>
      </trkpt>
      <trkpt lat="43.64031" lon="1.26369">
        <ele>178</ele>
        <time>2022-10-26T14:36:59Z</time>
      </trkpt>
      <trkpt lat="43.64037" lon="1.26361">
        <ele>177.8</ele>
        <time>2022-10-26T14:37:00Z</time>
      </trkpt>
      <trkpt lat="43.64042" lon="1.26354">
        <ele>177.8</ele>
        <time>2022-10-26T14:37:01Z</time>
      </trkpt>
      <trkpt lat="43.64046" lon="1.26348">
        <ele>177.8</ele>
        <time>2022-10-26T14:37:02Z</time>
      </trkpt>
      <trkpt lat="43.6405" lon="1.26342">
        <ele>177.8</ele>
        <time>2022-10-26T14:37:03Z</time>
      </trkpt>
      <trkpt lat="43.64055" lon="1.26334">
        <ele>177.8</ele>
        <time>2022-10-26T14:37:04Z</time>
      </trkpt>
      <trkpt lat="43.6406" lon="1.26327">
        <ele>177.8</ele>
        <time>2022-10-26T14:37:05Z</time>
      </trkpt>
      <trkpt lat="43.64064" lon="1.2632">
        <ele>177.8</ele>
        <time>2022-10-26T14:37:06Z</time>
      </trkpt>
      <trkpt lat="43.64067" lon="1.26314">
        <ele>177.8</ele>
        <time>2022-10-26T14:37:07Z</time>
      </trkpt>
      <trkpt lat="43.64071" lon="1.26308">
        <ele>177.8</ele>
        <time>2022-10-26T14:37:08Z</time>
      </trkpt>
      <trkpt lat="43.64076" lon="1.263">
        <ele>177.8</ele>
        <time>2022-10-26T14:37:09Z</time>
      </trkpt>
      <trkpt lat="43.64079" lon="1.26293">
        <ele>177.6</ele>
        <time>2022-10-26T14:37:10Z</time>
      </trkpt>
      <trkpt lat="43.64083" lon="1.26287">
        <ele>177.6</ele>
        <time>2022-10-26T14:37:11Z</time>
      </trkpt>
      <trkpt lat="43.64086" lon="1.26282">
        <ele>177.6</ele>
        <time>2022-10-26T14:37:12Z</time>
      </trkpt>
      <trkpt lat="43.6409" lon="1.26276">
        <ele>177.6</ele>
        <time>2022-10-26T14:37:13Z</time>
      </trkpt>
      <trkpt lat="43.64095" lon="1.26269">
        <ele>177.6</ele>
        <time>2022-10-26T14:37:14Z</time>
      </trkpt>
      <trkpt lat="43.64098" lon="1.26264">
        <ele>177.6</ele>
        <time>2022-10-26T14:37:15Z</time>
      </trkpt>
      <trkpt lat="43.64102" lon="1.26259">
        <ele>177.6</ele>
        <time>2022-10-26T14:37:16Z</time>
      </trkpt>
      <trkpt lat="43.64104" lon="1.26255">
        <ele>177.6</ele>
        <time>2022-10-26T14:37:17Z</time>
      </trkpt>
      <trkpt lat="43.64108" lon="1.26249">
        <ele>177.6</ele>
        <time>2022-10-26T14:37:18Z</time>
      </trkpt>
      <trkpt lat="43.64111" lon="1.26244">
        <ele>177.6</ele>
        <time>2022-10-26T14:37:19Z</time>
      </trkpt>
      <trkpt lat="43.64115" lon="1.26239">
        <ele>177.6</ele>
        <time>2022-10-26T14:37:20Z</time>
      </trkpt>
      <trkpt lat="43.64117" lon="1.26235">
        <ele>177.6</ele>
        <time>2022-10-26T14:37:21Z</time>
      </trkpt>
      <trkpt lat="43.6412" lon="1.2623">
        <ele>177.6</ele>
        <time>2022-10-26T14:37:22Z</time>
      </trkpt>
      <trkpt lat="43.64122" lon="1.26225">
        <ele>177.6</ele>
        <time>2022-10-26T14:37:23Z</time>
      </trkpt>
      <trkpt lat="43.64125" lon="1.26221">
        <ele>177.6</ele>
        <time>2022-10-26T14:37:24Z</time>
      </trkpt>
      <trkpt lat="43.64127" lon="1.26217">
        <ele>177.4</ele>
        <time>2022-10-26T14:37:25Z</time>
      </trkpt>
      <trkpt lat="43.64128" lon="1.26214">
        <ele>177.4</ele>
        <time>2022-10-26T14:37:26Z</time>
      </trkpt>
      <trkpt lat="43.64129" lon="1.26209">
        <ele>177.4</ele>
        <time>2022-10-26T14:37:27Z</time>
      </trkpt>
      <trkpt lat="43.64128" lon="1.26205">
        <ele>177.4</ele>
        <time>2022-10-26T14:37:28Z</time>
      </trkpt>
      <trkpt lat="43.64127" lon="1.26201">
        <ele>177.2</ele>
        <time>2022-10-26T14:37:29Z</time>
      </trkpt>
      <trkpt lat="43.64125" lon="1.26197">
        <ele>177.2</ele>
        <time>2022-10-26T14:37:30Z</time>
      </trkpt>
      <trkpt lat="43.64123" lon="1.26191">
        <ele>177</ele>
        <time>2022-10-26T14:37:31Z</time>
      </trkpt>
      <trkpt lat="43.64121" lon="1.26185">
        <ele>177</ele>
        <time>2022-10-26T14:37:32Z</time>
      </trkpt>
      <trkpt lat="43.64118" lon="1.26178">
        <ele>177</ele>
        <time>2022-10-26T14:37:33Z</time>
      </trkpt>
      <trkpt lat="43.64116" lon="1.26172">
        <ele>177</ele>
        <time>2022-10-26T14:37:34Z</time>
      </trkpt>
      <trkpt lat="43.64113" lon="1.26164">
        <ele>176.8</ele>
        <time>2022-10-26T14:37:35Z</time>
      </trkpt>
      <trkpt lat="43.64111" lon="1.26158">
        <ele>177</ele>
        <time>2022-10-26T14:37:36Z</time>
      </trkpt>
      <trkpt lat="43.64109" lon="1.26149">
        <ele>177</ele>
        <time>2022-10-26T14:37:37Z</time>
      </trkpt>
      <trkpt lat="43.64107" lon="1.26142">
        <ele>177.2</ele>
        <time>2022-10-26T14:37:38Z</time>
      </trkpt>
      <trkpt lat="43.64106" lon="1.26135">
        <ele>177.2</ele>
        <time>2022-10-26T14:37:39Z</time>
      </trkpt>
      <trkpt lat="43.64104" lon="1.26128">
        <ele>177.2</ele>
        <time>2022-10-26T14:37:40Z</time>
      </trkpt>
      <trkpt lat="43.64101" lon="1.2612">
        <ele>177.2</ele>
        <time>2022-10-26T14:37:41Z</time>
      </trkpt>
      <trkpt lat="43.64096" lon="1.2611">
        <ele>177.4</ele>
        <time>2022-10-26T14:37:42Z</time>
      </trkpt>
      <trkpt lat="43.64091" lon="1.26103">
        <ele>177.4</ele>
        <time>2022-10-26T14:37:43Z</time>
      </trkpt>
      <trkpt lat="43.64087" lon="1.26097">
        <ele>177.4</ele>
        <time>2022-10-26T14:37:44Z</time>
      </trkpt>
      <trkpt lat="43.64085" lon="1.26091">
        <ele>177.4</ele>
        <time>2022-10-26T14:37:45Z</time>
      </trkpt>
      <trkpt lat="43.6408" lon="1.26083">
        <ele>177.4</ele>
        <time>2022-10-26T14:37:46Z</time>
      </trkpt>
      <trkpt lat="43.64076" lon="1.26076">
        <ele>177.4</ele>
        <time>2022-10-26T14:37:47Z</time>
      </trkpt>
      <trkpt lat="43.64071" lon="1.26069">
        <ele>177.4</ele>
        <time>2022-10-26T14:37:48Z</time>
      </trkpt>
      <trkpt lat="43.64066" lon="1.26061">
        <ele>177.6</ele>
        <time>2022-10-26T14:37:49Z</time>
      </trkpt>
      <trkpt lat="43.64062" lon="1.26054">
        <ele>177.6</ele>
        <time>2022-10-26T14:37:50Z</time>
      </trkpt>
      <trkpt lat="43.64058" lon="1.26047">
        <ele>177.6</ele>
        <time>2022-10-26T14:37:51Z</time>
      </trkpt>
      <trkpt lat="43.64054" lon="1.2604">
        <ele>177.6</ele>
        <time>2022-10-26T14:37:52Z</time>
      </trkpt>
      <trkpt lat="43.6405" lon="1.26032">
        <ele>177.6</ele>
        <time>2022-10-26T14:37:53Z</time>
      </trkpt>
      <trkpt lat="43.64047" lon="1.26026">
        <ele>177.6</ele>
        <time>2022-10-26T14:37:54Z</time>
      </trkpt>
      <trkpt lat="43.64044" lon="1.26019">
        <ele>177.6</ele>
        <time>2022-10-26T14:37:55Z</time>
      </trkpt>
      <trkpt lat="43.6404" lon="1.26012">
        <ele>177.6</ele>
        <time>2022-10-26T14:37:56Z</time>
      </trkpt>
      <trkpt lat="43.64036" lon="1.26007">
        <ele>177.8</ele>
        <time>2022-10-26T14:37:57Z</time>
      </trkpt>
      <trkpt lat="43.64032" lon="1.26002">
        <ele>178</ele>
        <time>2022-10-26T14:37:58Z</time>
      </trkpt>
      <trkpt lat="43.64028" lon="1.25996">
        <ele>178.2</ele>
        <time>2022-10-26T14:37:59Z</time>
      </trkpt>
      <trkpt lat="43.64024" lon="1.25988">
        <ele>178.2</ele>
        <time>2022-10-26T14:38:00Z</time>
      </trkpt>
      <trkpt lat="43.6402" lon="1.25981">
        <ele>178.2</ele>
        <time>2022-10-26T14:38:01Z</time>
      </trkpt>
      <trkpt lat="43.64016" lon="1.25974">
        <ele>178.2</ele>
        <time>2022-10-26T14:38:02Z</time>
      </trkpt>
      <trkpt lat="43.64013" lon="1.25969">
        <ele>178</ele>
        <time>2022-10-26T14:38:03Z</time>
      </trkpt>
      <trkpt lat="43.64009" lon="1.25964">
        <ele>177.8</ele>
        <time>2022-10-26T14:38:04Z</time>
      </trkpt>
      <trkpt lat="43.64005" lon="1.25956">
        <ele>178</ele>
        <time>2022-10-26T14:38:05Z</time>
      </trkpt>
      <trkpt lat="43.64001" lon="1.25949">
        <ele>178</ele>
        <time>2022-10-26T14:38:06Z</time>
      </trkpt>
      <trkpt lat="43.63996" lon="1.25941">
        <ele>178</ele>
        <time>2022-10-26T14:38:07Z</time>
      </trkpt>
      <trkpt lat="43.63994" lon="1.25935">
        <ele>178</ele>
        <time>2022-10-26T14:38:08Z</time>
      </trkpt>
      <trkpt lat="43.63989" lon="1.25927">
        <ele>178</ele>
        <time>2022-10-26T14:38:09Z</time>
      </trkpt>
      <trkpt lat="43.63987" lon="1.25921">
        <ele>178</ele>
        <time>2022-10-26T14:38:10Z</time>
      </trkpt>
      <trkpt lat="43.63983" lon="1.25915">
        <ele>178</ele>
        <time>2022-10-26T14:38:11Z</time>
      </trkpt>
      <trkpt lat="43.63981" lon="1.25909">
        <ele>178</ele>
        <time>2022-10-26T14:38:12Z</time>
      </trkpt>
      <trkpt lat="43.63978" lon="1.25904">
        <ele>178</ele>
        <time>2022-10-26T14:38:13Z</time>
      </trkpt>
      <trkpt lat="43.63973" lon="1.25898">
        <ele>178</ele>
        <time>2022-10-26T14:38:14Z</time>
      </trkpt>
      <trkpt lat="43.63968" lon="1.2589">
        <ele>178.2</ele>
        <time>2022-10-26T14:38:15Z</time>
      </trkpt>
      <trkpt lat="43.63964" lon="1.25884">
        <ele>178.2</ele>
        <time>2022-10-26T14:38:16Z</time>
      </trkpt>
      <trkpt lat="43.63962" lon="1.25876">
        <ele>178.2</ele>
        <time>2022-10-26T14:38:17Z</time>
      </trkpt>
      <trkpt lat="43.63961" lon="1.25871">
        <ele>178.2</ele>
        <time>2022-10-26T14:38:18Z</time>
      </trkpt>
      <trkpt lat="43.63959" lon="1.25863">
        <ele>178.2</ele>
        <time>2022-10-26T14:38:19Z</time>
      </trkpt>
      <trkpt lat="43.63955" lon="1.25853">
        <ele>178.2</ele>
        <time>2022-10-26T14:38:20Z</time>
      </trkpt>
      <trkpt lat="43.63952" lon="1.25846">
        <ele>178.2</ele>
        <time>2022-10-26T14:38:21Z</time>
      </trkpt>
      <trkpt lat="43.63949" lon="1.25837">
        <ele>178.2</ele>
        <time>2022-10-26T14:38:22Z</time>
      </trkpt>
      <trkpt lat="43.63948" lon="1.2583">
        <ele>178.2</ele>
        <time>2022-10-26T14:38:23Z</time>
      </trkpt>
      <trkpt lat="43.63947" lon="1.2582">
        <ele>178.2</ele>
        <time>2022-10-26T14:38:24Z</time>
      </trkpt>
      <trkpt lat="43.63946" lon="1.25812">
        <ele>178.2</ele>
        <time>2022-10-26T14:38:25Z</time>
      </trkpt>
      <trkpt lat="43.63944" lon="1.25803">
        <ele>178.2</ele>
        <time>2022-10-26T14:38:26Z</time>
      </trkpt>
      <trkpt lat="43.63942" lon="1.25795">
        <ele>178</ele>
        <time>2022-10-26T14:38:27Z</time>
      </trkpt>
      <trkpt lat="43.63941" lon="1.25787">
        <ele>178</ele>
        <time>2022-10-26T14:38:28Z</time>
      </trkpt>
      <trkpt lat="43.63941" lon="1.25778">
        <ele>178</ele>
        <time>2022-10-26T14:38:29Z</time>
      </trkpt>
      <trkpt lat="43.63939" lon="1.25769">
        <ele>178</ele>
        <time>2022-10-26T14:38:30Z</time>
      </trkpt>
      <trkpt lat="43.63938" lon="1.25761">
        <ele>177.8</ele>
        <time>2022-10-26T14:38:31Z</time>
      </trkpt>
      <trkpt lat="43.63937" lon="1.25753">
        <ele>177.8</ele>
        <time>2022-10-26T14:38:32Z</time>
      </trkpt>
      <trkpt lat="43.63936" lon="1.25745">
        <ele>177.8</ele>
        <time>2022-10-26T14:38:33Z</time>
      </trkpt>
      <trkpt lat="43.63933" lon="1.25735">
        <ele>177.8</ele>
        <time>2022-10-26T14:38:34Z</time>
      </trkpt>
      <trkpt lat="43.63933" lon="1.25727">
        <ele>177.8</ele>
        <time>2022-10-26T14:38:35Z</time>
      </trkpt>
      <trkpt lat="43.63932" lon="1.2572">
        <ele>177.8</ele>
        <time>2022-10-26T14:38:36Z</time>
      </trkpt>
      <trkpt lat="43.63931" lon="1.25711">
        <ele>178</ele>
        <time>2022-10-26T14:38:37Z</time>
      </trkpt>
      <trkpt lat="43.63928" lon="1.25701">
        <ele>178</ele>
        <time>2022-10-26T14:38:38Z</time>
      </trkpt>
      <trkpt lat="43.63926" lon="1.25692">
        <ele>178</ele>
        <time>2022-10-26T14:38:39Z</time>
      </trkpt>
      <trkpt lat="43.63923" lon="1.25683">
        <ele>178</ele>
        <time>2022-10-26T14:38:40Z</time>
      </trkpt>
      <trkpt lat="43.63923" lon="1.25676">
        <ele>178.2</ele>
        <time>2022-10-26T14:38:41Z</time>
      </trkpt>
      <trkpt lat="43.63922" lon="1.25666">
        <ele>178.2</ele>
        <time>2022-10-26T14:38:42Z</time>
      </trkpt>
      <trkpt lat="43.63921" lon="1.25656">
        <ele>178.2</ele>
        <time>2022-10-26T14:38:43Z</time>
      </trkpt>
      <trkpt lat="43.6392" lon="1.25646">
        <ele>178.2</ele>
        <time>2022-10-26T14:38:44Z</time>
      </trkpt>
      <trkpt lat="43.63919" lon="1.25638">
        <ele>178.2</ele>
        <time>2022-10-26T14:38:45Z</time>
      </trkpt>
      <trkpt lat="43.63918" lon="1.25632">
        <ele>178.2</ele>
        <time>2022-10-26T14:38:46Z</time>
      </trkpt>
      <trkpt lat="43.63916" lon="1.25622">
        <ele>178.2</ele>
        <time>2022-10-26T14:38:47Z</time>
      </trkpt>
      <trkpt lat="43.63915" lon="1.25613">
        <ele>178.2</ele>
        <time>2022-10-26T14:38:48Z</time>
      </trkpt>
      <trkpt lat="43.63914" lon="1.25604">
        <ele>178</ele>
        <time>2022-10-26T14:38:49Z</time>
      </trkpt>
      <trkpt lat="43.63912" lon="1.25596">
        <ele>178</ele>
        <time>2022-10-26T14:38:50Z</time>
      </trkpt>
      <trkpt lat="43.6391" lon="1.25587">
        <ele>178</ele>
        <time>2022-10-26T14:38:51Z</time>
      </trkpt>
      <trkpt lat="43.63907" lon="1.25579">
        <ele>178</ele>
        <time>2022-10-26T14:38:52Z</time>
      </trkpt>
      <trkpt lat="43.63906" lon="1.25572">
        <ele>178.4</ele>
        <time>2022-10-26T14:38:53Z</time>
      </trkpt>
      <trkpt lat="43.63904" lon="1.25564">
        <ele>178.2</ele>
        <time>2022-10-26T14:38:54Z</time>
      </trkpt>
      <trkpt lat="43.63904" lon="1.25558">
        <ele>178.4</ele>
        <time>2022-10-26T14:38:55Z</time>
      </trkpt>
      <trkpt lat="43.63905" lon="1.25551">
        <ele>178.4</ele>
        <time>2022-10-26T14:38:56Z</time>
      </trkpt>
      <trkpt lat="43.63907" lon="1.2554">
        <ele>178.4</ele>
        <time>2022-10-26T14:38:57Z</time>
      </trkpt>
      <trkpt lat="43.63909" lon="1.25532">
        <ele>178.6</ele>
        <time>2022-10-26T14:38:58Z</time>
      </trkpt>
      <trkpt lat="43.63911" lon="1.25525">
        <ele>178.4</ele>
        <time>2022-10-26T14:38:59Z</time>
      </trkpt>
      <trkpt lat="43.63914" lon="1.25518">
        <ele>178.2</ele>
        <time>2022-10-26T14:39:00Z</time>
      </trkpt>
      <trkpt lat="43.63916" lon="1.25506">
        <ele>178.2</ele>
        <time>2022-10-26T14:39:01Z</time>
      </trkpt>
      <trkpt lat="43.63917" lon="1.25498">
        <ele>178.2</ele>
        <time>2022-10-26T14:39:02Z</time>
      </trkpt>
      <trkpt lat="43.63916" lon="1.25488">
        <ele>178.2</ele>
        <time>2022-10-26T14:39:03Z</time>
      </trkpt>
      <trkpt lat="43.63915" lon="1.25481">
        <ele>178.2</ele>
        <time>2022-10-26T14:39:04Z</time>
      </trkpt>
      <trkpt lat="43.63915" lon="1.25472">
        <ele>178.2</ele>
        <time>2022-10-26T14:39:05Z</time>
      </trkpt>
      <trkpt lat="43.63916" lon="1.2546">
        <ele>178.2</ele>
        <time>2022-10-26T14:39:06Z</time>
      </trkpt>
      <trkpt lat="43.63918" lon="1.25451">
        <ele>178.2</ele>
        <time>2022-10-26T14:39:07Z</time>
      </trkpt>
      <trkpt lat="43.6392" lon="1.25441">
        <ele>178.2</ele>
        <time>2022-10-26T14:39:08Z</time>
      </trkpt>
      <trkpt lat="43.63919" lon="1.25433">
        <ele>178.2</ele>
        <time>2022-10-26T14:39:09Z</time>
      </trkpt>
      <trkpt lat="43.6392" lon="1.25422">
        <ele>178.2</ele>
        <time>2022-10-26T14:39:10Z</time>
      </trkpt>
      <trkpt lat="43.63921" lon="1.25414">
        <ele>178.2</ele>
        <time>2022-10-26T14:39:11Z</time>
      </trkpt>
      <trkpt lat="43.63922" lon="1.25406">
        <ele>178.2</ele>
        <time>2022-10-26T14:39:12Z</time>
      </trkpt>
      <trkpt lat="43.63921" lon="1.25401">
        <ele>178.2</ele>
        <time>2022-10-26T14:39:13Z</time>
      </trkpt>
      <trkpt lat="43.6392" lon="1.25393">
        <ele>178.2</ele>
        <time>2022-10-26T14:39:14Z</time>
      </trkpt>
      <trkpt lat="43.6392" lon="1.25384">
        <ele>178.2</ele>
        <time>2022-10-26T14:39:15Z</time>
      </trkpt>
      <trkpt lat="43.6392" lon="1.25377">
        <ele>178.2</ele>
        <time>2022-10-26T14:39:16Z</time>
      </trkpt>
      <trkpt lat="43.63921" lon="1.25369">
        <ele>178.2</ele>
        <time>2022-10-26T14:39:17Z</time>
      </trkpt>
      <trkpt lat="43.63921" lon="1.25361">
        <ele>178.2</ele>
        <time>2022-10-26T14:39:18Z</time>
      </trkpt>
      <trkpt lat="43.63922" lon="1.25353">
        <ele>178.2</ele>
        <time>2022-10-26T14:39:19Z</time>
      </trkpt>
      <trkpt lat="43.63923" lon="1.25342">
        <ele>178.2</ele>
        <time>2022-10-26T14:39:20Z</time>
      </trkpt>
      <trkpt lat="43.63924" lon="1.25335">
        <ele>178.4</ele>
        <time>2022-10-26T14:39:21Z</time>
      </trkpt>
      <trkpt lat="43.63924" lon="1.25329">
        <ele>178.4</ele>
        <time>2022-10-26T14:39:22Z</time>
      </trkpt>
      <trkpt lat="43.63924" lon="1.25321">
        <ele>178.4</ele>
        <time>2022-10-26T14:39:23Z</time>
      </trkpt>
      <trkpt lat="43.63923" lon="1.25312">
        <ele>178.6</ele>
        <time>2022-10-26T14:39:24Z</time>
      </trkpt>
      <trkpt lat="43.63923" lon="1.25304">
        <ele>178.6</ele>
        <time>2022-10-26T14:39:25Z</time>
      </trkpt>
      <trkpt lat="43.63923" lon="1.25298">
        <ele>178.6</ele>
        <time>2022-10-26T14:39:26Z</time>
      </trkpt>
      <trkpt lat="43.63922" lon="1.25291">
        <ele>178.6</ele>
        <time>2022-10-26T14:39:27Z</time>
      </trkpt>
      <trkpt lat="43.63921" lon="1.25284">
        <ele>178.8</ele>
        <time>2022-10-26T14:39:28Z</time>
      </trkpt>
      <trkpt lat="43.6392" lon="1.25275">
        <ele>178.8</ele>
        <time>2022-10-26T14:39:29Z</time>
      </trkpt>
      <trkpt lat="43.63921" lon="1.25267">
        <ele>178.8</ele>
        <time>2022-10-26T14:39:30Z</time>
      </trkpt>
      <trkpt lat="43.63922" lon="1.2526">
        <ele>178.8</ele>
        <time>2022-10-26T14:39:31Z</time>
      </trkpt>
      <trkpt lat="43.63922" lon="1.25254">
        <ele>178.8</ele>
        <time>2022-10-26T14:39:32Z</time>
      </trkpt>
      <trkpt lat="43.63921" lon="1.25244">
        <ele>178.6</ele>
        <time>2022-10-26T14:39:33Z</time>
      </trkpt>
      <trkpt lat="43.6392" lon="1.25235">
        <ele>178.6</ele>
        <time>2022-10-26T14:39:34Z</time>
      </trkpt>
      <trkpt lat="43.63919" lon="1.25226">
        <ele>178.8</ele>
        <time>2022-10-26T14:39:35Z</time>
      </trkpt>
      <trkpt lat="43.63918" lon="1.25217">
        <ele>178.8</ele>
        <time>2022-10-26T14:39:36Z</time>
      </trkpt>
      <trkpt lat="43.63918" lon="1.25208">
        <ele>178.8</ele>
        <time>2022-10-26T14:39:37Z</time>
      </trkpt>
      <trkpt lat="43.63915" lon="1.25198">
        <ele>179</ele>
        <time>2022-10-26T14:39:38Z</time>
      </trkpt>
      <trkpt lat="43.63912" lon="1.25189">
        <ele>179.2</ele>
        <time>2022-10-26T14:39:39Z</time>
      </trkpt>
      <trkpt lat="43.63909" lon="1.25181">
        <ele>179</ele>
        <time>2022-10-26T14:39:40Z</time>
      </trkpt>
      <trkpt lat="43.63906" lon="1.25175">
        <ele>179.2</ele>
        <time>2022-10-26T14:39:41Z</time>
      </trkpt>
      <trkpt lat="43.63904" lon="1.25167">
        <ele>179.2</ele>
        <time>2022-10-26T14:39:42Z</time>
      </trkpt>
      <trkpt lat="43.63901" lon="1.25158">
        <ele>179.2</ele>
        <time>2022-10-26T14:39:43Z</time>
      </trkpt>
      <trkpt lat="43.63897" lon="1.25151">
        <ele>179.2</ele>
        <time>2022-10-26T14:39:44Z</time>
      </trkpt>
      <trkpt lat="43.63893" lon="1.25144">
        <ele>179.2</ele>
        <time>2022-10-26T14:39:45Z</time>
      </trkpt>
      <trkpt lat="43.63891" lon="1.25139">
        <ele>179.2</ele>
        <time>2022-10-26T14:39:46Z</time>
      </trkpt>
      <trkpt lat="43.63887" lon="1.25131">
        <ele>179</ele>
        <time>2022-10-26T14:39:47Z</time>
      </trkpt>
      <trkpt lat="43.63883" lon="1.25123">
        <ele>179</ele>
        <time>2022-10-26T14:39:48Z</time>
      </trkpt>
      <trkpt lat="43.63879" lon="1.25116">
        <ele>179</ele>
        <time>2022-10-26T14:39:49Z</time>
      </trkpt>
      <trkpt lat="43.63875" lon="1.25111">
        <ele>179</ele>
        <time>2022-10-26T14:39:50Z</time>
      </trkpt>
      <trkpt lat="43.63871" lon="1.25105">
        <ele>179</ele>
        <time>2022-10-26T14:39:51Z</time>
      </trkpt>
      <trkpt lat="43.63866" lon="1.25098">
        <ele>178.8</ele>
        <time>2022-10-26T14:39:52Z</time>
      </trkpt>
      <trkpt lat="43.63861" lon="1.25093">
        <ele>178.8</ele>
        <time>2022-10-26T14:39:53Z</time>
      </trkpt>
      <trkpt lat="43.63857" lon="1.25088">
        <ele>178.8</ele>
        <time>2022-10-26T14:39:54Z</time>
      </trkpt>
      <trkpt lat="43.63853" lon="1.25084">
        <ele>179</ele>
        <time>2022-10-26T14:39:55Z</time>
      </trkpt>
      <trkpt lat="43.63848" lon="1.25079">
        <ele>178.8</ele>
        <time>2022-10-26T14:39:56Z</time>
      </trkpt>
      <trkpt lat="43.63843" lon="1.25073">
        <ele>178.8</ele>
        <time>2022-10-26T14:39:57Z</time>
      </trkpt>
      <trkpt lat="43.63839" lon="1.25069">
        <ele>179</ele>
        <time>2022-10-26T14:39:58Z</time>
      </trkpt>
      <trkpt lat="43.63834" lon="1.25064">
        <ele>179</ele>
        <time>2022-10-26T14:39:59Z</time>
      </trkpt>
      <trkpt lat="43.63831" lon="1.25059">
        <ele>179.2</ele>
        <time>2022-10-26T14:40:00Z</time>
      </trkpt>
      <trkpt lat="43.63827" lon="1.25054">
        <ele>179.2</ele>
        <time>2022-10-26T14:40:01Z</time>
      </trkpt>
      <trkpt lat="43.63823" lon="1.25047">
        <ele>179.2</ele>
        <time>2022-10-26T14:40:02Z</time>
      </trkpt>
      <trkpt lat="43.6382" lon="1.2504">
        <ele>179.2</ele>
        <time>2022-10-26T14:40:03Z</time>
      </trkpt>
      <trkpt lat="43.63818" lon="1.25035">
        <ele>179.2</ele>
        <time>2022-10-26T14:40:04Z</time>
      </trkpt>
      <trkpt lat="43.63816" lon="1.25028">
        <ele>179.2</ele>
        <time>2022-10-26T14:40:05Z</time>
      </trkpt>
      <trkpt lat="43.63815" lon="1.25019">
        <ele>179.2</ele>
        <time>2022-10-26T14:40:06Z</time>
      </trkpt>
      <trkpt lat="43.63815" lon="1.25011">
        <ele>179.2</ele>
        <time>2022-10-26T14:40:07Z</time>
      </trkpt>
      <trkpt lat="43.63815" lon="1.25004">
        <ele>179.2</ele>
        <time>2022-10-26T14:40:08Z</time>
      </trkpt>
      <trkpt lat="43.63815" lon="1.24999">
        <ele>179.2</ele>
        <time>2022-10-26T14:40:09Z</time>
      </trkpt>
      <trkpt lat="43.63815" lon="1.24992">
        <ele>179.2</ele>
        <time>2022-10-26T14:40:10Z</time>
      </trkpt>
      <trkpt lat="43.63815" lon="1.24986">
        <ele>179.2</ele>
        <time>2022-10-26T14:40:11Z</time>
      </trkpt>
      <trkpt lat="43.63814" lon="1.24979">
        <ele>179.2</ele>
        <time>2022-10-26T14:40:12Z</time>
      </trkpt>
      <trkpt lat="43.63813" lon="1.24973">
        <ele>179.2</ele>
        <time>2022-10-26T14:40:13Z</time>
      </trkpt>
      <trkpt lat="43.63813" lon="1.24968">
        <ele>179.2</ele>
        <time>2022-10-26T14:40:14Z</time>
      </trkpt>
      <trkpt lat="43.63814" lon="1.24961">
        <ele>179</ele>
        <time>2022-10-26T14:40:15Z</time>
      </trkpt>
      <trkpt lat="43.63813" lon="1.24957">
        <ele>179.2</ele>
        <time>2022-10-26T14:40:16Z</time>
      </trkpt>
      <trkpt lat="43.63812" lon="1.24951">
        <ele>179.2</ele>
        <time>2022-10-26T14:40:17Z</time>
      </trkpt>
      <trkpt lat="43.63811" lon="1.24944">
        <ele>179</ele>
        <time>2022-10-26T14:40:18Z</time>
      </trkpt>
      <trkpt lat="43.6381" lon="1.24939">
        <ele>179</ele>
        <time>2022-10-26T14:40:19Z</time>
      </trkpt>
      <trkpt lat="43.63809" lon="1.24933">
        <ele>179.2</ele>
        <time>2022-10-26T14:40:20Z</time>
      </trkpt>
      <trkpt lat="43.63808" lon="1.24928">
        <ele>179.2</ele>
        <time>2022-10-26T14:40:21Z</time>
      </trkpt>
      <trkpt lat="43.63807" lon="1.24921">
        <ele>179.2</ele>
        <time>2022-10-26T14:40:22Z</time>
      </trkpt>
      <trkpt lat="43.63807" lon="1.24916">
        <ele>179.2</ele>
        <time>2022-10-26T14:40:23Z</time>
      </trkpt>
      <trkpt lat="43.63807" lon="1.24909">
        <ele>179.2</ele>
        <time>2022-10-26T14:40:24Z</time>
      </trkpt>
      <trkpt lat="43.63806" lon="1.24902">
        <ele>179.2</ele>
        <time>2022-10-26T14:40:25Z</time>
      </trkpt>
      <trkpt lat="43.63806" lon="1.24893">
        <ele>179.2</ele>
        <time>2022-10-26T14:40:26Z</time>
      </trkpt>
      <trkpt lat="43.63806" lon="1.24884">
        <ele>179.2</ele>
        <time>2022-10-26T14:40:27Z</time>
      </trkpt>
      <trkpt lat="43.63805" lon="1.24879">
        <ele>179.2</ele>
        <time>2022-10-26T14:40:28Z</time>
      </trkpt>
      <trkpt lat="43.63804" lon="1.24872">
        <ele>179.2</ele>
        <time>2022-10-26T14:40:29Z</time>
      </trkpt>
      <trkpt lat="43.63804" lon="1.24862">
        <ele>179.2</ele>
        <time>2022-10-26T14:40:30Z</time>
      </trkpt>
      <trkpt lat="43.63805" lon="1.24854">
        <ele>179.2</ele>
        <time>2022-10-26T14:40:31Z</time>
      </trkpt>
      <trkpt lat="43.63806" lon="1.24847">
        <ele>179.2</ele>
        <time>2022-10-26T14:40:32Z</time>
      </trkpt>
      <trkpt lat="43.63807" lon="1.2484">
        <ele>179.2</ele>
        <time>2022-10-26T14:40:33Z</time>
      </trkpt>
      <trkpt lat="43.63808" lon="1.24833">
        <ele>179.2</ele>
        <time>2022-10-26T14:40:34Z</time>
      </trkpt>
      <trkpt lat="43.63809" lon="1.24827">
        <ele>179.2</ele>
        <time>2022-10-26T14:40:35Z</time>
      </trkpt>
      <trkpt lat="43.6381" lon="1.2482">
        <ele>179.2</ele>
        <time>2022-10-26T14:40:36Z</time>
      </trkpt>
      <trkpt lat="43.6381" lon="1.24814">
        <ele>179.2</ele>
        <time>2022-10-26T14:40:37Z</time>
      </trkpt>
      <trkpt lat="43.63811" lon="1.24808">
        <ele>179.2</ele>
        <time>2022-10-26T14:40:38Z</time>
      </trkpt>
      <trkpt lat="43.63811" lon="1.24803">
        <ele>179.2</ele>
        <time>2022-10-26T14:40:39Z</time>
      </trkpt>
      <trkpt lat="43.63811" lon="1.24798">
        <ele>179.2</ele>
        <time>2022-10-26T14:40:40Z</time>
      </trkpt>
      <trkpt lat="43.63811" lon="1.24791">
        <ele>179.2</ele>
        <time>2022-10-26T14:40:41Z</time>
      </trkpt>
      <trkpt lat="43.63812" lon="1.24785">
        <ele>179.4</ele>
        <time>2022-10-26T14:40:42Z</time>
      </trkpt>
      <trkpt lat="43.63811" lon="1.24778">
        <ele>179.4</ele>
        <time>2022-10-26T14:40:43Z</time>
      </trkpt>
      <trkpt lat="43.63812" lon="1.24772">
        <ele>179.2</ele>
        <time>2022-10-26T14:40:44Z</time>
      </trkpt>
      <trkpt lat="43.63814" lon="1.24766">
        <ele>179.2</ele>
        <time>2022-10-26T14:40:45Z</time>
      </trkpt>
      <trkpt lat="43.63816" lon="1.24762">
        <ele>179.2</ele>
        <time>2022-10-26T14:40:46Z</time>
      </trkpt>
      <trkpt lat="43.63818" lon="1.24755">
        <ele>179.2</ele>
        <time>2022-10-26T14:40:47Z</time>
      </trkpt>
      <trkpt lat="43.63821" lon="1.24745">
        <ele>179.2</ele>
        <time>2022-10-26T14:40:48Z</time>
      </trkpt>
      <trkpt lat="43.63822" lon="1.24737">
        <ele>179.2</ele>
        <time>2022-10-26T14:40:49Z</time>
      </trkpt>
      <trkpt lat="43.63824" lon="1.2473">
        <ele>179.2</ele>
        <time>2022-10-26T14:40:50Z</time>
      </trkpt>
      <trkpt lat="43.63826" lon="1.24724">
        <ele>179.2</ele>
        <time>2022-10-26T14:40:51Z</time>
      </trkpt>
      <trkpt lat="43.63827" lon="1.24717">
        <ele>179.2</ele>
        <time>2022-10-26T14:40:52Z</time>
      </trkpt>
      <trkpt lat="43.63827" lon="1.24709">
        <ele>179.2</ele>
        <time>2022-10-26T14:40:53Z</time>
      </trkpt>
      <trkpt lat="43.63825" lon="1.24702">
        <ele>179.2</ele>
        <time>2022-10-26T14:40:54Z</time>
      </trkpt>
      <trkpt lat="43.63824" lon="1.24696">
        <ele>179.2</ele>
        <time>2022-10-26T14:40:55Z</time>
      </trkpt>
      <trkpt lat="43.63822" lon="1.24687">
        <ele>179.2</ele>
        <time>2022-10-26T14:40:56Z</time>
      </trkpt>
      <trkpt lat="43.6382" lon="1.24679">
        <ele>179.2</ele>
        <time>2022-10-26T14:40:57Z</time>
      </trkpt>
      <trkpt lat="43.63819" lon="1.24673">
        <ele>179.4</ele>
        <time>2022-10-26T14:40:58Z</time>
      </trkpt>
      <trkpt lat="43.63818" lon="1.24666">
        <ele>179.4</ele>
        <time>2022-10-26T14:40:59Z</time>
      </trkpt>
      <trkpt lat="43.63818" lon="1.24658">
        <ele>179.4</ele>
        <time>2022-10-26T14:41:00Z</time>
      </trkpt>
      <trkpt lat="43.63818" lon="1.24651">
        <ele>179.4</ele>
        <time>2022-10-26T14:41:01Z</time>
      </trkpt>
      <trkpt lat="43.6382" lon="1.24643">
        <ele>179.8</ele>
        <time>2022-10-26T14:41:02Z</time>
      </trkpt>
      <trkpt lat="43.63822" lon="1.24635">
        <ele>180</ele>
        <time>2022-10-26T14:41:03Z</time>
      </trkpt>
      <trkpt lat="43.63823" lon="1.24626">
        <ele>180.2</ele>
        <time>2022-10-26T14:41:04Z</time>
      </trkpt>
      <trkpt lat="43.63823" lon="1.2462">
        <ele>180.2</ele>
        <time>2022-10-26T14:41:05Z</time>
      </trkpt>
      <trkpt lat="43.63825" lon="1.24613">
        <ele>180.2</ele>
        <time>2022-10-26T14:41:06Z</time>
      </trkpt>
      <trkpt lat="43.63828" lon="1.24605">
        <ele>179.8</ele>
        <time>2022-10-26T14:41:07Z</time>
      </trkpt>
      <trkpt lat="43.63831" lon="1.24599">
        <ele>179.8</ele>
        <time>2022-10-26T14:41:08Z</time>
      </trkpt>
      <trkpt lat="43.63834" lon="1.24595">
        <ele>179.8</ele>
        <time>2022-10-26T14:41:09Z</time>
      </trkpt>
      <trkpt lat="43.63837" lon="1.24591">
        <ele>179.8</ele>
        <time>2022-10-26T14:41:10Z</time>
      </trkpt>
      <trkpt lat="43.63842" lon="1.24586">
        <ele>179.8</ele>
        <time>2022-10-26T14:41:11Z</time>
      </trkpt>
      <trkpt lat="43.63847" lon="1.24579">
        <ele>179.8</ele>
        <time>2022-10-26T14:41:12Z</time>
      </trkpt>
      <trkpt lat="43.63851" lon="1.24574">
        <ele>179.8</ele>
        <time>2022-10-26T14:41:13Z</time>
      </trkpt>
      <trkpt lat="43.63855" lon="1.24571">
        <ele>179.8</ele>
        <time>2022-10-26T14:41:14Z</time>
      </trkpt>
      <trkpt lat="43.6386" lon="1.24565">
        <ele>179.8</ele>
        <time>2022-10-26T14:41:15Z</time>
      </trkpt>
      <trkpt lat="43.63866" lon="1.24559">
        <ele>179.8</ele>
        <time>2022-10-26T14:41:16Z</time>
      </trkpt>
      <trkpt lat="43.6387" lon="1.24555">
        <ele>179.8</ele>
        <time>2022-10-26T14:41:17Z</time>
      </trkpt>
      <trkpt lat="43.63874" lon="1.24551">
        <ele>179.8</ele>
        <time>2022-10-26T14:41:18Z</time>
      </trkpt>
      <trkpt lat="43.63877" lon="1.24548">
        <ele>180</ele>
        <time>2022-10-26T14:41:19Z</time>
      </trkpt>
      <trkpt lat="43.63878" lon="1.24543">
        <ele>180</ele>
        <time>2022-10-26T14:41:20Z</time>
      </trkpt>
      <trkpt lat="43.63876" lon="1.24539">
        <ele>180</ele>
        <time>2022-10-26T14:41:21Z</time>
      </trkpt>
      <trkpt lat="43.63872" lon="1.24536">
        <ele>180.2</ele>
        <time>2022-10-26T14:41:22Z</time>
      </trkpt>
      <trkpt lat="43.63867" lon="1.24535">
        <ele>180.2</ele>
        <time>2022-10-26T14:41:23Z</time>
      </trkpt>
      <trkpt lat="43.63863" lon="1.24534">
        <ele>180.4</ele>
        <time>2022-10-26T14:41:24Z</time>
      </trkpt>
      <trkpt lat="43.63857" lon="1.24531">
        <ele>180.4</ele>
        <time>2022-10-26T14:41:25Z</time>
      </trkpt>
      <trkpt lat="43.63851" lon="1.24529">
        <ele>180.6</ele>
        <time>2022-10-26T14:41:26Z</time>
      </trkpt>
      <trkpt lat="43.63847" lon="1.24527">
        <ele>180.6</ele>
        <time>2022-10-26T14:41:27Z</time>
      </trkpt>
      <trkpt lat="43.63842" lon="1.24525">
        <ele>180.6</ele>
        <time>2022-10-26T14:41:28Z</time>
      </trkpt>
      <trkpt lat="43.63837" lon="1.24523">
        <ele>180.6</ele>
        <time>2022-10-26T14:41:29Z</time>
      </trkpt>
      <trkpt lat="43.63832" lon="1.2452">
        <ele>180.6</ele>
        <time>2022-10-26T14:41:30Z</time>
      </trkpt>
      <trkpt lat="43.63826" lon="1.24518">
        <ele>180.6</ele>
        <time>2022-10-26T14:41:31Z</time>
      </trkpt>
      <trkpt lat="43.6382" lon="1.24515">
        <ele>180.8</ele>
        <time>2022-10-26T14:41:32Z</time>
      </trkpt>
      <trkpt lat="43.63815" lon="1.24513">
        <ele>180.8</ele>
        <time>2022-10-26T14:41:33Z</time>
      </trkpt>
      <trkpt lat="43.6381" lon="1.24511">
        <ele>180.8</ele>
        <time>2022-10-26T14:41:34Z</time>
      </trkpt>
      <trkpt lat="43.63803" lon="1.24508">
        <ele>180.8</ele>
        <time>2022-10-26T14:41:35Z</time>
      </trkpt>
      <trkpt lat="43.63797" lon="1.24505">
        <ele>181</ele>
        <time>2022-10-26T14:41:36Z</time>
      </trkpt>
      <trkpt lat="43.63792" lon="1.24503">
        <ele>181</ele>
        <time>2022-10-26T14:41:37Z</time>
      </trkpt>
      <trkpt lat="43.63788" lon="1.24499">
        <ele>181</ele>
        <time>2022-10-26T14:41:38Z</time>
      </trkpt>
      <trkpt lat="43.63783" lon="1.24494">
        <ele>181.2</ele>
        <time>2022-10-26T14:41:39Z</time>
      </trkpt>
      <trkpt lat="43.6378" lon="1.24488">
        <ele>181.2</ele>
        <time>2022-10-26T14:41:40Z</time>
      </trkpt>
      <trkpt lat="43.63777" lon="1.24483">
        <ele>181.2</ele>
        <time>2022-10-26T14:41:41Z</time>
      </trkpt>
      <trkpt lat="43.63774" lon="1.24477">
        <ele>181.2</ele>
        <time>2022-10-26T14:41:42Z</time>
      </trkpt>
      <trkpt lat="43.6377" lon="1.24473">
        <ele>180.8</ele>
        <time>2022-10-26T14:41:43Z</time>
      </trkpt>
      <trkpt lat="43.63764" lon="1.24468">
        <ele>180.8</ele>
        <time>2022-10-26T14:41:44Z</time>
      </trkpt>
      <trkpt lat="43.6376" lon="1.24464">
        <ele>180.6</ele>
        <time>2022-10-26T14:41:45Z</time>
      </trkpt>
      <trkpt lat="43.63755" lon="1.24459">
        <ele>180.6</ele>
        <time>2022-10-26T14:41:46Z</time>
      </trkpt>
      <trkpt lat="43.63752" lon="1.24456">
        <ele>180.4</ele>
        <time>2022-10-26T14:41:47Z</time>
      </trkpt>
      <trkpt lat="43.63747" lon="1.24452">
        <ele>180.4</ele>
        <time>2022-10-26T14:41:48Z</time>
      </trkpt>
      <trkpt lat="43.63741" lon="1.24447">
        <ele>180.2</ele>
        <time>2022-10-26T14:41:49Z</time>
      </trkpt>
      <trkpt lat="43.63735" lon="1.24443">
        <ele>180</ele>
        <time>2022-10-26T14:41:50Z</time>
      </trkpt>
      <trkpt lat="43.63732" lon="1.24438">
        <ele>180</ele>
        <time>2022-10-26T14:41:51Z</time>
      </trkpt>
      <trkpt lat="43.63728" lon="1.24432">
        <ele>180</ele>
        <time>2022-10-26T14:41:52Z</time>
      </trkpt>
      <trkpt lat="43.63725" lon="1.24424">
        <ele>180</ele>
        <time>2022-10-26T14:41:53Z</time>
      </trkpt>
      <trkpt lat="43.63721" lon="1.24416">
        <ele>180.4</ele>
        <time>2022-10-26T14:41:54Z</time>
      </trkpt>
      <trkpt lat="43.63718" lon="1.24409">
        <ele>180.2</ele>
        <time>2022-10-26T14:41:55Z</time>
      </trkpt>
      <trkpt lat="43.63714" lon="1.24402">
        <ele>180.2</ele>
        <time>2022-10-26T14:41:56Z</time>
      </trkpt>
      <trkpt lat="43.6371" lon="1.24395">
        <ele>180.2</ele>
        <time>2022-10-26T14:41:57Z</time>
      </trkpt>
      <trkpt lat="43.63706" lon="1.24387">
        <ele>180.2</ele>
        <time>2022-10-26T14:41:58Z</time>
      </trkpt>
      <trkpt lat="43.63704" lon="1.24379">
        <ele>180.2</ele>
        <time>2022-10-26T14:41:59Z</time>
      </trkpt>
      <trkpt lat="43.63702" lon="1.24371">
        <ele>180.2</ele>
        <time>2022-10-26T14:42:00Z</time>
      </trkpt>
      <trkpt lat="43.637" lon="1.24365">
        <ele>180.2</ele>
        <time>2022-10-26T14:42:01Z</time>
      </trkpt>
      <trkpt lat="43.63698" lon="1.24357">
        <ele>180.2</ele>
        <time>2022-10-26T14:42:02Z</time>
      </trkpt>
      <trkpt lat="43.63696" lon="1.24348">
        <ele>180.2</ele>
        <time>2022-10-26T14:42:03Z</time>
      </trkpt>
      <trkpt lat="43.63694" lon="1.24338">
        <ele>180.2</ele>
        <time>2022-10-26T14:42:04Z</time>
      </trkpt>
      <trkpt lat="43.63692" lon="1.24331">
        <ele>180.2</ele>
        <time>2022-10-26T14:42:05Z</time>
      </trkpt>
      <trkpt lat="43.63691" lon="1.24324">
        <ele>180.4</ele>
        <time>2022-10-26T14:42:06Z</time>
      </trkpt>
      <trkpt lat="43.6369" lon="1.24316">
        <ele>180.4</ele>
        <time>2022-10-26T14:42:07Z</time>
      </trkpt>
      <trkpt lat="43.63689" lon="1.24308">
        <ele>180.6</ele>
        <time>2022-10-26T14:42:08Z</time>
      </trkpt>
      <trkpt lat="43.63687" lon="1.24299">
        <ele>180.6</ele>
        <time>2022-10-26T14:42:09Z</time>
      </trkpt>
      <trkpt lat="43.63686" lon="1.24292">
        <ele>180.6</ele>
        <time>2022-10-26T14:42:10Z</time>
      </trkpt>
      <trkpt lat="43.63684" lon="1.24284">
        <ele>180.8</ele>
        <time>2022-10-26T14:42:11Z</time>
      </trkpt>
      <trkpt lat="43.63679" lon="1.24275">
        <ele>180.8</ele>
        <time>2022-10-26T14:42:12Z</time>
      </trkpt>
      <trkpt lat="43.63676" lon="1.2427">
        <ele>180.8</ele>
        <time>2022-10-26T14:42:13Z</time>
      </trkpt>
      <trkpt lat="43.63673" lon="1.24266">
        <ele>180.8</ele>
        <time>2022-10-26T14:42:14Z</time>
      </trkpt>
      <trkpt lat="43.6367" lon="1.2426">
        <ele>180.8</ele>
        <time>2022-10-26T14:42:15Z</time>
      </trkpt>
      <trkpt lat="43.63666" lon="1.24253">
        <ele>180.8</ele>
        <time>2022-10-26T14:42:16Z</time>
      </trkpt>
      <trkpt lat="43.63661" lon="1.24246">
        <ele>181</ele>
        <time>2022-10-26T14:42:17Z</time>
      </trkpt>
      <trkpt lat="43.63657" lon="1.2424">
        <ele>181</ele>
        <time>2022-10-26T14:42:18Z</time>
      </trkpt>
      <trkpt lat="43.63654" lon="1.24235">
        <ele>181.2</ele>
        <time>2022-10-26T14:42:19Z</time>
      </trkpt>
      <trkpt lat="43.6365" lon="1.24229">
        <ele>181.2</ele>
        <time>2022-10-26T14:42:20Z</time>
      </trkpt>
      <trkpt lat="43.63647" lon="1.24221">
        <ele>181.4</ele>
        <time>2022-10-26T14:42:21Z</time>
      </trkpt>
      <trkpt lat="43.63645" lon="1.24215">
        <ele>181.4</ele>
        <time>2022-10-26T14:42:22Z</time>
      </trkpt>
      <trkpt lat="43.63643" lon="1.2421">
        <ele>181.4</ele>
        <time>2022-10-26T14:42:23Z</time>
      </trkpt>
      <trkpt lat="43.63642" lon="1.24207">
        <ele>181.4</ele>
        <time>2022-10-26T14:42:24Z</time>
      </trkpt>
      <trkpt lat="43.63642" lon="1.24204">
        <ele>181.4</ele>
        <time>2022-10-26T14:42:25Z</time>
      </trkpt>
      <trkpt lat="43.63641" lon="1.24203">
        <ele>181.4</ele>
        <time>2022-10-26T14:42:26Z</time>
      </trkpt>
      <trkpt lat="43.63641" lon="1.24203">
        <ele>181.4</ele>
        <time>2022-10-26T14:42:27Z</time>
      </trkpt>
      <trkpt lat="43.63641" lon="1.24203">
        <ele>181.4</ele>
        <time>2022-10-26T14:42:28Z</time>
      </trkpt>
      <trkpt lat="43.6364" lon="1.24195">
        <ele>181.2</ele>
        <time>2022-10-26T14:42:41Z</time>
      </trkpt>
      <trkpt lat="43.6364" lon="1.24192">
        <ele>181.2</ele>
        <time>2022-10-26T14:42:42Z</time>
      </trkpt>
      <trkpt lat="43.63639" lon="1.24189">
        <ele>181.2</ele>
        <time>2022-10-26T14:42:43Z</time>
      </trkpt>
      <trkpt lat="43.63639" lon="1.24186">
        <ele>181</ele>
        <time>2022-10-26T14:42:44Z</time>
      </trkpt>
      <trkpt lat="43.63639" lon="1.24181">
        <ele>181</ele>
        <time>2022-10-26T14:42:45Z</time>
      </trkpt>
      <trkpt lat="43.6364" lon="1.24176">
        <ele>181</ele>
        <time>2022-10-26T14:42:46Z</time>
      </trkpt>
      <trkpt lat="43.6364" lon="1.24171">
        <ele>181</ele>
        <time>2022-10-26T14:42:47Z</time>
      </trkpt>
      <trkpt lat="43.63641" lon="1.24166">
        <ele>181</ele>
        <time>2022-10-26T14:42:48Z</time>
      </trkpt>
      <trkpt lat="43.63643" lon="1.24161">
        <ele>181</ele>
        <time>2022-10-26T14:42:49Z</time>
      </trkpt>
      <trkpt lat="43.63644" lon="1.24156">
        <ele>181</ele>
        <time>2022-10-26T14:42:50Z</time>
      </trkpt>
      <trkpt lat="43.63644" lon="1.24149">
        <ele>181</ele>
        <time>2022-10-26T14:42:51Z</time>
      </trkpt>
      <trkpt lat="43.63644" lon="1.24145">
        <ele>181</ele>
        <time>2022-10-26T14:42:52Z</time>
      </trkpt>
      <trkpt lat="43.63644" lon="1.24139">
        <ele>181</ele>
        <time>2022-10-26T14:42:53Z</time>
      </trkpt>
      <trkpt lat="43.63644" lon="1.24131">
        <ele>181</ele>
        <time>2022-10-26T14:42:54Z</time>
      </trkpt>
      <trkpt lat="43.63644" lon="1.24125">
        <ele>180.8</ele>
        <time>2022-10-26T14:42:55Z</time>
      </trkpt>
      <trkpt lat="43.63642" lon="1.24118">
        <ele>181</ele>
        <time>2022-10-26T14:42:56Z</time>
      </trkpt>
      <trkpt lat="43.63642" lon="1.24114">
        <ele>181</ele>
        <time>2022-10-26T14:42:57Z</time>
      </trkpt>
      <trkpt lat="43.6364" lon="1.24109">
        <ele>181</ele>
        <time>2022-10-26T14:42:58Z</time>
      </trkpt>
      <trkpt lat="43.63639" lon="1.24103">
        <ele>181</ele>
        <time>2022-10-26T14:42:59Z</time>
      </trkpt>
      <trkpt lat="43.63638" lon="1.24098">
        <ele>181</ele>
        <time>2022-10-26T14:43:00Z</time>
      </trkpt>
      <trkpt lat="43.63638" lon="1.24093">
        <ele>181</ele>
        <time>2022-10-26T14:43:01Z</time>
      </trkpt>
      <trkpt lat="43.63639" lon="1.24089">
        <ele>181</ele>
        <time>2022-10-26T14:43:02Z</time>
      </trkpt>
      <trkpt lat="43.63641" lon="1.24084">
        <ele>181</ele>
        <time>2022-10-26T14:43:03Z</time>
      </trkpt>
      <trkpt lat="43.63643" lon="1.2408">
        <ele>181</ele>
        <time>2022-10-26T14:43:04Z</time>
      </trkpt>
      <trkpt lat="43.63645" lon="1.24077">
        <ele>181</ele>
        <time>2022-10-26T14:43:05Z</time>
      </trkpt>
      <trkpt lat="43.63647" lon="1.24073">
        <ele>181</ele>
        <time>2022-10-26T14:43:06Z</time>
      </trkpt>
      <trkpt lat="43.63648" lon="1.2407">
        <ele>181</ele>
        <time>2022-10-26T14:43:07Z</time>
      </trkpt>
      <trkpt lat="43.6365" lon="1.24068">
        <ele>181</ele>
        <time>2022-10-26T14:43:08Z</time>
      </trkpt>
      <trkpt lat="43.63651" lon="1.24065">
        <ele>181.2</ele>
        <time>2022-10-26T14:43:09Z</time>
      </trkpt>
      <trkpt lat="43.63651" lon="1.24062">
        <ele>181.2</ele>
        <time>2022-10-26T14:43:10Z</time>
      </trkpt>
      <trkpt lat="43.63652" lon="1.24059">
        <ele>181.2</ele>
        <time>2022-10-26T14:43:11Z</time>
      </trkpt>
      <trkpt lat="43.63653" lon="1.24055">
        <ele>181</ele>
        <time>2022-10-26T14:43:12Z</time>
      </trkpt>
      <trkpt lat="43.63654" lon="1.24049">
        <ele>181</ele>
        <time>2022-10-26T14:43:13Z</time>
      </trkpt>
      <trkpt lat="43.63656" lon="1.24044">
        <ele>181</ele>
        <time>2022-10-26T14:43:14Z</time>
      </trkpt>
      <trkpt lat="43.63658" lon="1.24039">
        <ele>181</ele>
        <time>2022-10-26T14:43:15Z</time>
      </trkpt>
      <trkpt lat="43.6366" lon="1.24035">
        <ele>181</ele>
        <time>2022-10-26T14:43:16Z</time>
      </trkpt>
      <trkpt lat="43.63662" lon="1.2403">
        <ele>181</ele>
        <time>2022-10-26T14:43:17Z</time>
      </trkpt>
      <trkpt lat="43.63665" lon="1.24024">
        <ele>181</ele>
        <time>2022-10-26T14:43:18Z</time>
      </trkpt>
      <trkpt lat="43.63668" lon="1.24017">
        <ele>180.8</ele>
        <time>2022-10-26T14:43:19Z</time>
      </trkpt>
      <trkpt lat="43.6367" lon="1.24009">
        <ele>180.8</ele>
        <time>2022-10-26T14:43:20Z</time>
      </trkpt>
      <trkpt lat="43.63673" lon="1.24004">
        <ele>180.8</ele>
        <time>2022-10-26T14:43:21Z</time>
      </trkpt>
      <trkpt lat="43.63676" lon="1.23999">
        <ele>181</ele>
        <time>2022-10-26T14:43:22Z</time>
      </trkpt>
      <trkpt lat="43.63679" lon="1.23992">
        <ele>181</ele>
        <time>2022-10-26T14:43:23Z</time>
      </trkpt>
      <trkpt lat="43.63683" lon="1.23986">
        <ele>181.2</ele>
        <time>2022-10-26T14:43:24Z</time>
      </trkpt>
      <trkpt lat="43.63686" lon="1.23981">
        <ele>181.2</ele>
        <time>2022-10-26T14:43:25Z</time>
      </trkpt>
      <trkpt lat="43.63689" lon="1.23973">
        <ele>181.2</ele>
        <time>2022-10-26T14:43:26Z</time>
      </trkpt>
      <trkpt lat="43.63693" lon="1.23962">
        <ele>181.4</ele>
        <time>2022-10-26T14:43:27Z</time>
      </trkpt>
      <trkpt lat="43.63695" lon="1.23955">
        <ele>181.4</ele>
        <time>2022-10-26T14:43:28Z</time>
      </trkpt>
      <trkpt lat="43.63698" lon="1.23945">
        <ele>181.4</ele>
        <time>2022-10-26T14:43:29Z</time>
      </trkpt>
      <trkpt lat="43.637" lon="1.23938">
        <ele>181.6</ele>
        <time>2022-10-26T14:43:30Z</time>
      </trkpt>
      <trkpt lat="43.63703" lon="1.2393">
        <ele>181.8</ele>
        <time>2022-10-26T14:43:31Z</time>
      </trkpt>
      <trkpt lat="43.63706" lon="1.23923">
        <ele>182</ele>
        <time>2022-10-26T14:43:32Z</time>
      </trkpt>
      <trkpt lat="43.6371" lon="1.23915">
        <ele>182</ele>
        <time>2022-10-26T14:43:33Z</time>
      </trkpt>
      <trkpt lat="43.63713" lon="1.23908">
        <ele>182</ele>
        <time>2022-10-26T14:43:34Z</time>
      </trkpt>
      <trkpt lat="43.63716" lon="1.23902">
        <ele>182</ele>
        <time>2022-10-26T14:43:35Z</time>
      </trkpt>
      <trkpt lat="43.6372" lon="1.23896">
        <ele>182</ele>
        <time>2022-10-26T14:43:36Z</time>
      </trkpt>
      <trkpt lat="43.63725" lon="1.23889">
        <ele>182.2</ele>
        <time>2022-10-26T14:43:37Z</time>
      </trkpt>
      <trkpt lat="43.63729" lon="1.23883">
        <ele>182.4</ele>
        <time>2022-10-26T14:43:38Z</time>
      </trkpt>
      <trkpt lat="43.63732" lon="1.23878">
        <ele>182.4</ele>
        <time>2022-10-26T14:43:39Z</time>
      </trkpt>
      <trkpt lat="43.63736" lon="1.23873">
        <ele>182.4</ele>
        <time>2022-10-26T14:43:40Z</time>
      </trkpt>
      <trkpt lat="43.6374" lon="1.23867">
        <ele>182.4</ele>
        <time>2022-10-26T14:43:41Z</time>
      </trkpt>
      <trkpt lat="43.63744" lon="1.23862">
        <ele>182.4</ele>
        <time>2022-10-26T14:43:42Z</time>
      </trkpt>
      <trkpt lat="43.6375" lon="1.23855">
        <ele>182.4</ele>
        <time>2022-10-26T14:43:43Z</time>
      </trkpt>
      <trkpt lat="43.63754" lon="1.23848">
        <ele>182.4</ele>
        <time>2022-10-26T14:43:44Z</time>
      </trkpt>
      <trkpt lat="43.63758" lon="1.23842">
        <ele>182.4</ele>
        <time>2022-10-26T14:43:45Z</time>
      </trkpt>
      <trkpt lat="43.63762" lon="1.23836">
        <ele>182.4</ele>
        <time>2022-10-26T14:43:46Z</time>
      </trkpt>
      <trkpt lat="43.63765" lon="1.23828">
        <ele>182.6</ele>
        <time>2022-10-26T14:43:47Z</time>
      </trkpt>
      <trkpt lat="43.63766" lon="1.23823">
        <ele>182.8</ele>
        <time>2022-10-26T14:43:48Z</time>
      </trkpt>
      <trkpt lat="43.63768" lon="1.23816">
        <ele>183</ele>
        <time>2022-10-26T14:43:49Z</time>
      </trkpt>
      <trkpt lat="43.63769" lon="1.23809">
        <ele>183.2</ele>
        <time>2022-10-26T14:43:50Z</time>
      </trkpt>
      <trkpt lat="43.6377" lon="1.23801">
        <ele>183.4</ele>
        <time>2022-10-26T14:43:51Z</time>
      </trkpt>
      <trkpt lat="43.6377" lon="1.23794">
        <ele>183.4</ele>
        <time>2022-10-26T14:43:52Z</time>
      </trkpt>
      <trkpt lat="43.6377" lon="1.23788">
        <ele>183.4</ele>
        <time>2022-10-26T14:43:53Z</time>
      </trkpt>
      <trkpt lat="43.63769" lon="1.23781">
        <ele>183.4</ele>
        <time>2022-10-26T14:43:54Z</time>
      </trkpt>
      <trkpt lat="43.63769" lon="1.23773">
        <ele>183.4</ele>
        <time>2022-10-26T14:43:55Z</time>
      </trkpt>
      <trkpt lat="43.63769" lon="1.23769">
        <ele>183.4</ele>
        <time>2022-10-26T14:43:56Z</time>
      </trkpt>
      <trkpt lat="43.6377" lon="1.23762">
        <ele>183.4</ele>
        <time>2022-10-26T14:43:57Z</time>
      </trkpt>
      <trkpt lat="43.6377" lon="1.23756">
        <ele>183.4</ele>
        <time>2022-10-26T14:43:58Z</time>
      </trkpt>
      <trkpt lat="43.63771" lon="1.23748">
        <ele>183.4</ele>
        <time>2022-10-26T14:43:59Z</time>
      </trkpt>
      <trkpt lat="43.63772" lon="1.23741">
        <ele>183.4</ele>
        <time>2022-10-26T14:44:00Z</time>
      </trkpt>
      <trkpt lat="43.63774" lon="1.23733">
        <ele>183.4</ele>
        <time>2022-10-26T14:44:01Z</time>
      </trkpt>
      <trkpt lat="43.63775" lon="1.23726">
        <ele>183.4</ele>
        <time>2022-10-26T14:44:02Z</time>
      </trkpt>
      <trkpt lat="43.63775" lon="1.23719">
        <ele>183.4</ele>
        <time>2022-10-26T14:44:03Z</time>
      </trkpt>
      <trkpt lat="43.63776" lon="1.23712">
        <ele>183.6</ele>
        <time>2022-10-26T14:44:04Z</time>
      </trkpt>
      <trkpt lat="43.63775" lon="1.23704">
        <ele>183.6</ele>
        <time>2022-10-26T14:44:05Z</time>
      </trkpt>
      <trkpt lat="43.63775" lon="1.23697">
        <ele>183.6</ele>
        <time>2022-10-26T14:44:06Z</time>
      </trkpt>
      <trkpt lat="43.63774" lon="1.23689">
        <ele>183.6</ele>
        <time>2022-10-26T14:44:07Z</time>
      </trkpt>
      <trkpt lat="43.63772" lon="1.23681">
        <ele>183.6</ele>
        <time>2022-10-26T14:44:08Z</time>
      </trkpt>
      <trkpt lat="43.6377" lon="1.23672">
        <ele>183.6</ele>
        <time>2022-10-26T14:44:09Z</time>
      </trkpt>
      <trkpt lat="43.63769" lon="1.23664">
        <ele>183.8</ele>
        <time>2022-10-26T14:44:10Z</time>
      </trkpt>
      <trkpt lat="43.63767" lon="1.23656">
        <ele>183.8</ele>
        <time>2022-10-26T14:44:11Z</time>
      </trkpt>
      <trkpt lat="43.63765" lon="1.2365">
        <ele>183.8</ele>
        <time>2022-10-26T14:44:12Z</time>
      </trkpt>
      <trkpt lat="43.6376" lon="1.23645">
        <ele>184</ele>
        <time>2022-10-26T14:44:13Z</time>
      </trkpt>
      <trkpt lat="43.63757" lon="1.23641">
        <ele>184</ele>
        <time>2022-10-26T14:44:14Z</time>
      </trkpt>
      <trkpt lat="43.63751" lon="1.23638">
        <ele>183.8</ele>
        <time>2022-10-26T14:44:15Z</time>
      </trkpt>
      <trkpt lat="43.63747" lon="1.23634">
        <ele>184.2</ele>
        <time>2022-10-26T14:44:16Z</time>
      </trkpt>
      <trkpt lat="43.63743" lon="1.23631">
        <ele>184.2</ele>
        <time>2022-10-26T14:44:17Z</time>
      </trkpt>
      <trkpt lat="43.63738" lon="1.23627">
        <ele>184</ele>
        <time>2022-10-26T14:44:18Z</time>
      </trkpt>
      <trkpt lat="43.63732" lon="1.23622">
        <ele>184.2</ele>
        <time>2022-10-26T14:44:19Z</time>
      </trkpt>
      <trkpt lat="43.63729" lon="1.23616">
        <ele>184.2</ele>
        <time>2022-10-26T14:44:20Z</time>
      </trkpt>
      <trkpt lat="43.63729" lon="1.23611">
        <ele>184.4</ele>
        <time>2022-10-26T14:44:21Z</time>
      </trkpt>
      <trkpt lat="43.6373" lon="1.23606">
        <ele>184.4</ele>
        <time>2022-10-26T14:44:22Z</time>
      </trkpt>
      <trkpt lat="43.63731" lon="1.23599">
        <ele>184.6</ele>
        <time>2022-10-26T14:44:23Z</time>
      </trkpt>
      <trkpt lat="43.63733" lon="1.23592">
        <ele>184.8</ele>
        <time>2022-10-26T14:44:24Z</time>
      </trkpt>
      <trkpt lat="43.63735" lon="1.23583">
        <ele>184.8</ele>
        <time>2022-10-26T14:44:25Z</time>
      </trkpt>
      <trkpt lat="43.63737" lon="1.23579">
        <ele>184.8</ele>
        <time>2022-10-26T14:44:26Z</time>
      </trkpt>
      <trkpt lat="43.63739" lon="1.23572">
        <ele>185</ele>
        <time>2022-10-26T14:44:27Z</time>
      </trkpt>
      <trkpt lat="43.63741" lon="1.23564">
        <ele>185</ele>
        <time>2022-10-26T14:44:28Z</time>
      </trkpt>
      <trkpt lat="43.63742" lon="1.23555">
        <ele>185</ele>
        <time>2022-10-26T14:44:29Z</time>
      </trkpt>
      <trkpt lat="43.63744" lon="1.23548">
        <ele>185.2</ele>
        <time>2022-10-26T14:44:30Z</time>
      </trkpt>
      <trkpt lat="43.63746" lon="1.23541">
        <ele>185.2</ele>
        <time>2022-10-26T14:44:31Z</time>
      </trkpt>
      <trkpt lat="43.63748" lon="1.23536">
        <ele>185.2</ele>
        <time>2022-10-26T14:44:32Z</time>
      </trkpt>
      <trkpt lat="43.6375" lon="1.2353">
        <ele>185.2</ele>
        <time>2022-10-26T14:44:33Z</time>
      </trkpt>
      <trkpt lat="43.63753" lon="1.23524">
        <ele>185.2</ele>
        <time>2022-10-26T14:44:34Z</time>
      </trkpt>
      <trkpt lat="43.63755" lon="1.2352">
        <ele>185.4</ele>
        <time>2022-10-26T14:44:35Z</time>
      </trkpt>
      <trkpt lat="43.63759" lon="1.23514">
        <ele>185.4</ele>
        <time>2022-10-26T14:44:36Z</time>
      </trkpt>
      <trkpt lat="43.63764" lon="1.23508">
        <ele>185.6</ele>
        <time>2022-10-26T14:44:37Z</time>
      </trkpt>
      <trkpt lat="43.63766" lon="1.23504">
        <ele>185.6</ele>
        <time>2022-10-26T14:44:38Z</time>
      </trkpt>
      <trkpt lat="43.6377" lon="1.23499">
        <ele>186</ele>
        <time>2022-10-26T14:44:39Z</time>
      </trkpt>
      <trkpt lat="43.63772" lon="1.23494">
        <ele>186.2</ele>
        <time>2022-10-26T14:44:40Z</time>
      </trkpt>
      <trkpt lat="43.63777" lon="1.23486">
        <ele>186.4</ele>
        <time>2022-10-26T14:44:41Z</time>
      </trkpt>
      <trkpt lat="43.63779" lon="1.2348">
        <ele>186.4</ele>
        <time>2022-10-26T14:44:42Z</time>
      </trkpt>
      <trkpt lat="43.63783" lon="1.23474">
        <ele>186.4</ele>
        <time>2022-10-26T14:44:43Z</time>
      </trkpt>
      <trkpt lat="43.63787" lon="1.23469">
        <ele>186.6</ele>
        <time>2022-10-26T14:44:44Z</time>
      </trkpt>
      <trkpt lat="43.6379" lon="1.23462">
        <ele>186.8</ele>
        <time>2022-10-26T14:44:45Z</time>
      </trkpt>
      <trkpt lat="43.63792" lon="1.23455">
        <ele>187</ele>
        <time>2022-10-26T14:44:46Z</time>
      </trkpt>
      <trkpt lat="43.63795" lon="1.23446">
        <ele>187</ele>
        <time>2022-10-26T14:44:47Z</time>
      </trkpt>
      <trkpt lat="43.63798" lon="1.23438">
        <ele>187.4</ele>
        <time>2022-10-26T14:44:48Z</time>
      </trkpt>
      <trkpt lat="43.63799" lon="1.23433">
        <ele>187.4</ele>
        <time>2022-10-26T14:44:49Z</time>
      </trkpt>
      <trkpt lat="43.638" lon="1.23427">
        <ele>187.6</ele>
        <time>2022-10-26T14:44:50Z</time>
      </trkpt>
      <trkpt lat="43.63802" lon="1.2342">
        <ele>187.8</ele>
        <time>2022-10-26T14:44:51Z</time>
      </trkpt>
      <trkpt lat="43.63803" lon="1.23413">
        <ele>187.6</ele>
        <time>2022-10-26T14:44:52Z</time>
      </trkpt>
      <trkpt lat="43.63805" lon="1.23404">
        <ele>187.8</ele>
        <time>2022-10-26T14:44:53Z</time>
      </trkpt>
      <trkpt lat="43.63806" lon="1.23399">
        <ele>187.8</ele>
        <time>2022-10-26T14:44:54Z</time>
      </trkpt>
      <trkpt lat="43.63808" lon="1.23391">
        <ele>188</ele>
        <time>2022-10-26T14:44:55Z</time>
      </trkpt>
      <trkpt lat="43.6381" lon="1.23384">
        <ele>188.2</ele>
        <time>2022-10-26T14:44:56Z</time>
      </trkpt>
      <trkpt lat="43.63812" lon="1.23377">
        <ele>188.4</ele>
        <time>2022-10-26T14:44:57Z</time>
      </trkpt>
      <trkpt lat="43.63814" lon="1.23369">
        <ele>188.6</ele>
        <time>2022-10-26T14:44:58Z</time>
      </trkpt>
      <trkpt lat="43.63816" lon="1.23364">
        <ele>188.6</ele>
        <time>2022-10-26T14:44:59Z</time>
      </trkpt>
      <trkpt lat="43.63819" lon="1.23358">
        <ele>188.8</ele>
        <time>2022-10-26T14:45:00Z</time>
      </trkpt>
      <trkpt lat="43.63822" lon="1.23352">
        <ele>188.8</ele>
        <time>2022-10-26T14:45:01Z</time>
      </trkpt>
      <trkpt lat="43.63825" lon="1.23347">
        <ele>189.2</ele>
        <time>2022-10-26T14:45:02Z</time>
      </trkpt>
      <trkpt lat="43.63827" lon="1.23341">
        <ele>189.4</ele>
        <time>2022-10-26T14:45:03Z</time>
      </trkpt>
      <trkpt lat="43.63828" lon="1.23333">
        <ele>189.4</ele>
        <time>2022-10-26T14:45:04Z</time>
      </trkpt>
      <trkpt lat="43.63827" lon="1.23327">
        <ele>189.6</ele>
        <time>2022-10-26T14:45:05Z</time>
      </trkpt>
      <trkpt lat="43.63825" lon="1.23322">
        <ele>189.6</ele>
        <time>2022-10-26T14:45:06Z</time>
      </trkpt>
      <trkpt lat="43.63821" lon="1.23318">
        <ele>189.6</ele>
        <time>2022-10-26T14:45:07Z</time>
      </trkpt>
      <trkpt lat="43.63818" lon="1.23315">
        <ele>189.8</ele>
        <time>2022-10-26T14:45:08Z</time>
      </trkpt>
      <trkpt lat="43.63815" lon="1.23311">
        <ele>189.8</ele>
        <time>2022-10-26T14:45:09Z</time>
      </trkpt>
      <trkpt lat="43.63812" lon="1.23308">
        <ele>190</ele>
        <time>2022-10-26T14:45:10Z</time>
      </trkpt>
      <trkpt lat="43.63809" lon="1.23306">
        <ele>190</ele>
        <time>2022-10-26T14:45:11Z</time>
      </trkpt>
      <trkpt lat="43.63805" lon="1.23304">
        <ele>190.2</ele>
        <time>2022-10-26T14:45:12Z</time>
      </trkpt>
      <trkpt lat="43.63802" lon="1.23303">
        <ele>190.4</ele>
        <time>2022-10-26T14:45:13Z</time>
      </trkpt>
      <trkpt lat="43.63797" lon="1.23302">
        <ele>190.6</ele>
        <time>2022-10-26T14:45:14Z</time>
      </trkpt>
      <trkpt lat="43.63794" lon="1.23301">
        <ele>190.8</ele>
        <time>2022-10-26T14:45:15Z</time>
      </trkpt>
      <trkpt lat="43.6379" lon="1.233">
        <ele>190.8</ele>
        <time>2022-10-26T14:45:16Z</time>
      </trkpt>
      <trkpt lat="43.63787" lon="1.23299">
        <ele>191</ele>
        <time>2022-10-26T14:45:17Z</time>
      </trkpt>
      <trkpt lat="43.63783" lon="1.23298">
        <ele>191</ele>
        <time>2022-10-26T14:45:18Z</time>
      </trkpt>
      <trkpt lat="43.63777" lon="1.23296">
        <ele>191.2</ele>
        <time>2022-10-26T14:45:19Z</time>
      </trkpt>
      <trkpt lat="43.63773" lon="1.23294">
        <ele>191.2</ele>
        <time>2022-10-26T14:45:20Z</time>
      </trkpt>
      <trkpt lat="43.6377" lon="1.23292">
        <ele>191.4</ele>
        <time>2022-10-26T14:45:21Z</time>
      </trkpt>
      <trkpt lat="43.63769" lon="1.23289">
        <ele>191.6</ele>
        <time>2022-10-26T14:45:22Z</time>
      </trkpt>
      <trkpt lat="43.63767" lon="1.23287">
        <ele>191.8</ele>
        <time>2022-10-26T14:45:23Z</time>
      </trkpt>
      <trkpt lat="43.63764" lon="1.23284">
        <ele>192</ele>
        <time>2022-10-26T14:45:24Z</time>
      </trkpt>
      <trkpt lat="43.63762" lon="1.23281">
        <ele>192</ele>
        <time>2022-10-26T14:45:25Z</time>
      </trkpt>
      <trkpt lat="43.63758" lon="1.23278">
        <ele>192.4</ele>
        <time>2022-10-26T14:45:26Z</time>
      </trkpt>
      <trkpt lat="43.63754" lon="1.23275">
        <ele>192.6</ele>
        <time>2022-10-26T14:45:27Z</time>
      </trkpt>
      <trkpt lat="43.6375" lon="1.23271">
        <ele>193</ele>
        <time>2022-10-26T14:45:28Z</time>
      </trkpt>
      <trkpt lat="43.63745" lon="1.23268">
        <ele>193.2</ele>
        <time>2022-10-26T14:45:29Z</time>
      </trkpt>
      <trkpt lat="43.63743" lon="1.23265">
        <ele>193.4</ele>
        <time>2022-10-26T14:45:30Z</time>
      </trkpt>
      <trkpt lat="43.63741" lon="1.2326">
        <ele>193.6</ele>
        <time>2022-10-26T14:45:31Z</time>
      </trkpt>
      <trkpt lat="43.6374" lon="1.23255">
        <ele>193.6</ele>
        <time>2022-10-26T14:45:32Z</time>
      </trkpt>
      <trkpt lat="43.63739" lon="1.23249">
        <ele>193.6</ele>
        <time>2022-10-26T14:45:33Z</time>
      </trkpt>
      <trkpt lat="43.63739" lon="1.23243">
        <ele>193.8</ele>
        <time>2022-10-26T14:45:34Z</time>
      </trkpt>
      <trkpt lat="43.6374" lon="1.23237">
        <ele>193.8</ele>
        <time>2022-10-26T14:45:35Z</time>
      </trkpt>
      <trkpt lat="43.63739" lon="1.23233">
        <ele>194</ele>
        <time>2022-10-26T14:45:36Z</time>
      </trkpt>
      <trkpt lat="43.63737" lon="1.23227">
        <ele>194.2</ele>
        <time>2022-10-26T14:45:37Z</time>
      </trkpt>
      <trkpt lat="43.63736" lon="1.23221">
        <ele>194.4</ele>
        <time>2022-10-26T14:45:38Z</time>
      </trkpt>
      <trkpt lat="43.63734" lon="1.23214">
        <ele>194.6</ele>
        <time>2022-10-26T14:45:39Z</time>
      </trkpt>
      <trkpt lat="43.63731" lon="1.23208">
        <ele>194.6</ele>
        <time>2022-10-26T14:45:40Z</time>
      </trkpt>
      <trkpt lat="43.63728" lon="1.23203">
        <ele>194.8</ele>
        <time>2022-10-26T14:45:41Z</time>
      </trkpt>
      <trkpt lat="43.63725" lon="1.23199">
        <ele>194.8</ele>
        <time>2022-10-26T14:45:42Z</time>
      </trkpt>
      <trkpt lat="43.63721" lon="1.23195">
        <ele>195</ele>
        <time>2022-10-26T14:45:43Z</time>
      </trkpt>
      <trkpt lat="43.63716" lon="1.23191">
        <ele>195</ele>
        <time>2022-10-26T14:45:44Z</time>
      </trkpt>
      <trkpt lat="43.63712" lon="1.23188">
        <ele>195</ele>
        <time>2022-10-26T14:45:45Z</time>
      </trkpt>
      <trkpt lat="43.63706" lon="1.23184">
        <ele>195.2</ele>
        <time>2022-10-26T14:45:46Z</time>
      </trkpt>
      <trkpt lat="43.637" lon="1.23182">
        <ele>195.2</ele>
        <time>2022-10-26T14:45:47Z</time>
      </trkpt>
      <trkpt lat="43.63694" lon="1.2318">
        <ele>195.4</ele>
        <time>2022-10-26T14:45:48Z</time>
      </trkpt>
      <trkpt lat="43.63689" lon="1.23178">
        <ele>195.4</ele>
        <time>2022-10-26T14:45:49Z</time>
      </trkpt>
      <trkpt lat="43.63681" lon="1.23176">
        <ele>195.2</ele>
        <time>2022-10-26T14:45:50Z</time>
      </trkpt>
      <trkpt lat="43.63674" lon="1.23175">
        <ele>195.2</ele>
        <time>2022-10-26T14:45:51Z</time>
      </trkpt>
      <trkpt lat="43.63667" lon="1.23174">
        <ele>195</ele>
        <time>2022-10-26T14:45:52Z</time>
      </trkpt>
      <trkpt lat="43.6366" lon="1.23172">
        <ele>195</ele>
        <time>2022-10-26T14:45:53Z</time>
      </trkpt>
      <trkpt lat="43.63655" lon="1.2317">
        <ele>194.6</ele>
        <time>2022-10-26T14:45:54Z</time>
      </trkpt>
      <trkpt lat="43.6365" lon="1.23165">
        <ele>194.6</ele>
        <time>2022-10-26T14:45:55Z</time>
      </trkpt>
      <trkpt lat="43.63644" lon="1.23161">
        <ele>194.6</ele>
        <time>2022-10-26T14:45:56Z</time>
      </trkpt>
      <trkpt lat="43.63639" lon="1.23158">
        <ele>194.6</ele>
        <time>2022-10-26T14:45:57Z</time>
      </trkpt>
      <trkpt lat="43.63634" lon="1.23156">
        <ele>194.6</ele>
        <time>2022-10-26T14:45:58Z</time>
      </trkpt>
      <trkpt lat="43.63628" lon="1.23154">
        <ele>194.6</ele>
        <time>2022-10-26T14:45:59Z</time>
      </trkpt>
      <trkpt lat="43.63623" lon="1.23151">
        <ele>194.6</ele>
        <time>2022-10-26T14:46:00Z</time>
      </trkpt>
      <trkpt lat="43.63617" lon="1.23149">
        <ele>194.6</ele>
        <time>2022-10-26T14:46:01Z</time>
      </trkpt>
      <trkpt lat="43.63613" lon="1.23146">
        <ele>194.6</ele>
        <time>2022-10-26T14:46:02Z</time>
      </trkpt>
      <trkpt lat="43.63609" lon="1.23142">
        <ele>194.8</ele>
        <time>2022-10-26T14:46:03Z</time>
      </trkpt>
      <trkpt lat="43.63604" lon="1.23138">
        <ele>194.8</ele>
        <time>2022-10-26T14:46:04Z</time>
      </trkpt>
      <trkpt lat="43.63598" lon="1.23134">
        <ele>194.8</ele>
        <time>2022-10-26T14:46:05Z</time>
      </trkpt>
      <trkpt lat="43.63594" lon="1.2313">
        <ele>195</ele>
        <time>2022-10-26T14:46:06Z</time>
      </trkpt>
      <trkpt lat="43.63589" lon="1.23127">
        <ele>195.2</ele>
        <time>2022-10-26T14:46:07Z</time>
      </trkpt>
      <trkpt lat="43.63586" lon="1.23124">
        <ele>195.4</ele>
        <time>2022-10-26T14:46:08Z</time>
      </trkpt>
      <trkpt lat="43.63581" lon="1.23122">
        <ele>195.4</ele>
        <time>2022-10-26T14:46:09Z</time>
      </trkpt>
      <trkpt lat="43.63576" lon="1.23121">
        <ele>195.4</ele>
        <time>2022-10-26T14:46:10Z</time>
      </trkpt>
      <trkpt lat="43.6357" lon="1.2312">
        <ele>195.6</ele>
        <time>2022-10-26T14:46:11Z</time>
      </trkpt>
      <trkpt lat="43.63566" lon="1.23119">
        <ele>195.6</ele>
        <time>2022-10-26T14:46:12Z</time>
      </trkpt>
      <trkpt lat="43.63559" lon="1.23118">
        <ele>195.6</ele>
        <time>2022-10-26T14:46:13Z</time>
      </trkpt>
      <trkpt lat="43.63554" lon="1.23118">
        <ele>195.6</ele>
        <time>2022-10-26T14:46:14Z</time>
      </trkpt>
      <trkpt lat="43.63549" lon="1.23118">
        <ele>195.6</ele>
        <time>2022-10-26T14:46:15Z</time>
      </trkpt>
      <trkpt lat="43.63545" lon="1.23118">
        <ele>195.2</ele>
        <time>2022-10-26T14:46:16Z</time>
      </trkpt>
      <trkpt lat="43.63542" lon="1.23117">
        <ele>195</ele>
        <time>2022-10-26T14:46:17Z</time>
      </trkpt>
      <trkpt lat="43.63542" lon="1.23116">
        <ele>194.8</ele>
        <time>2022-10-26T14:46:18Z</time>
      </trkpt>
      <trkpt lat="43.63542" lon="1.23116">
        <ele>194.6</ele>
        <time>2022-10-26T14:46:19Z</time>
      </trkpt>
      <trkpt lat="43.63542" lon="1.23116">
        <ele>194.6</ele>
        <time>2022-10-26T14:46:20Z</time>
      </trkpt>
      <trkpt lat="43.63543" lon="1.23105">
        <ele>194</ele>
        <time>2022-10-26T14:46:34Z</time>
      </trkpt>
      <trkpt lat="43.63542" lon="1.23102">
        <ele>194</ele>
        <time>2022-10-26T14:46:35Z</time>
      </trkpt>
      <trkpt lat="43.63539" lon="1.23098">
        <ele>194</ele>
        <time>2022-10-26T14:46:36Z</time>
      </trkpt>
      <trkpt lat="43.63535" lon="1.23092">
        <ele>194</ele>
        <time>2022-10-26T14:46:37Z</time>
      </trkpt>
      <trkpt lat="43.63531" lon="1.23086">
        <ele>194</ele>
        <time>2022-10-26T14:46:38Z</time>
      </trkpt>
      <trkpt lat="43.63527" lon="1.23081">
        <ele>194</ele>
        <time>2022-10-26T14:46:39Z</time>
      </trkpt>
      <trkpt lat="43.63521" lon="1.23075">
        <ele>193.8</ele>
        <time>2022-10-26T14:46:40Z</time>
      </trkpt>
      <trkpt lat="43.63517" lon="1.23069">
        <ele>193.8</ele>
        <time>2022-10-26T14:46:41Z</time>
      </trkpt>
      <trkpt lat="43.63514" lon="1.23064">
        <ele>193.6</ele>
        <time>2022-10-26T14:46:42Z</time>
      </trkpt>
      <trkpt lat="43.6351" lon="1.23059">
        <ele>193.4</ele>
        <time>2022-10-26T14:46:43Z</time>
      </trkpt>
      <trkpt lat="43.63507" lon="1.23056">
        <ele>193.2</ele>
        <time>2022-10-26T14:46:44Z</time>
      </trkpt>
      <trkpt lat="43.63504" lon="1.23055">
        <ele>193.2</ele>
        <time>2022-10-26T14:46:45Z</time>
      </trkpt>
      <trkpt lat="43.63501" lon="1.23055">
        <ele>192.6</ele>
        <time>2022-10-26T14:46:46Z</time>
      </trkpt>
      <trkpt lat="43.63498" lon="1.23056">
        <ele>192.6</ele>
        <time>2022-10-26T14:46:47Z</time>
      </trkpt>
      <trkpt lat="43.63495" lon="1.23057">
        <ele>192.4</ele>
        <time>2022-10-26T14:46:48Z</time>
      </trkpt>
      <trkpt lat="43.63492" lon="1.23057">
        <ele>192.4</ele>
        <time>2022-10-26T14:46:49Z</time>
      </trkpt>
      <trkpt lat="43.63488" lon="1.23057">
        <ele>192.4</ele>
        <time>2022-10-26T14:46:50Z</time>
      </trkpt>
      <trkpt lat="43.63484" lon="1.23055">
        <ele>192.4</ele>
        <time>2022-10-26T14:46:51Z</time>
      </trkpt>
      <trkpt lat="43.63479" lon="1.23052">
        <ele>192.4</ele>
        <time>2022-10-26T14:46:52Z</time>
      </trkpt>
      <trkpt lat="43.63477" lon="1.23049">
        <ele>192.6</ele>
        <time>2022-10-26T14:46:53Z</time>
      </trkpt>
      <trkpt lat="43.63473" lon="1.23046">
        <ele>192.6</ele>
        <time>2022-10-26T14:46:54Z</time>
      </trkpt>
      <trkpt lat="43.63471" lon="1.23042">
        <ele>192.8</ele>
        <time>2022-10-26T14:46:55Z</time>
      </trkpt>
      <trkpt lat="43.63469" lon="1.23038">
        <ele>192.8</ele>
        <time>2022-10-26T14:46:56Z</time>
      </trkpt>
      <trkpt lat="43.63467" lon="1.23034">
        <ele>193</ele>
        <time>2022-10-26T14:46:57Z</time>
      </trkpt>
      <trkpt lat="43.63463" lon="1.23029">
        <ele>193.2</ele>
        <time>2022-10-26T14:46:58Z</time>
      </trkpt>
      <trkpt lat="43.6346" lon="1.23024">
        <ele>193.4</ele>
        <time>2022-10-26T14:46:59Z</time>
      </trkpt>
      <trkpt lat="43.63455" lon="1.2302">
        <ele>193.6</ele>
        <time>2022-10-26T14:47:00Z</time>
      </trkpt>
      <trkpt lat="43.63452" lon="1.23015">
        <ele>193.8</ele>
        <time>2022-10-26T14:47:01Z</time>
      </trkpt>
      <trkpt lat="43.63448" lon="1.23008">
        <ele>193.8</ele>
        <time>2022-10-26T14:47:02Z</time>
      </trkpt>
      <trkpt lat="43.63445" lon="1.23001">
        <ele>193.8</ele>
        <time>2022-10-26T14:47:03Z</time>
      </trkpt>
      <trkpt lat="43.63443" lon="1.22994">
        <ele>194</ele>
        <time>2022-10-26T14:47:04Z</time>
      </trkpt>
      <trkpt lat="43.63441" lon="1.22988">
        <ele>194.2</ele>
        <time>2022-10-26T14:47:05Z</time>
      </trkpt>
      <trkpt lat="43.63437" lon="1.22983">
        <ele>194.2</ele>
        <time>2022-10-26T14:47:06Z</time>
      </trkpt>
      <trkpt lat="43.63432" lon="1.22977">
        <ele>194.8</ele>
        <time>2022-10-26T14:47:07Z</time>
      </trkpt>
      <trkpt lat="43.63428" lon="1.22971">
        <ele>195</ele>
        <time>2022-10-26T14:47:08Z</time>
      </trkpt>
      <trkpt lat="43.63423" lon="1.22964">
        <ele>195</ele>
        <time>2022-10-26T14:47:09Z</time>
      </trkpt>
      <trkpt lat="43.63417" lon="1.22957">
        <ele>195.2</ele>
        <time>2022-10-26T14:47:10Z</time>
      </trkpt>
      <trkpt lat="43.63412" lon="1.22952">
        <ele>195.2</ele>
        <time>2022-10-26T14:47:11Z</time>
      </trkpt>
      <trkpt lat="43.63406" lon="1.22948">
        <ele>195.2</ele>
        <time>2022-10-26T14:47:12Z</time>
      </trkpt>
      <trkpt lat="43.634" lon="1.22943">
        <ele>195.4</ele>
        <time>2022-10-26T14:47:13Z</time>
      </trkpt>
      <trkpt lat="43.63394" lon="1.22938">
        <ele>195.4</ele>
        <time>2022-10-26T14:47:14Z</time>
      </trkpt>
      <trkpt lat="43.63389" lon="1.22931">
        <ele>195.4</ele>
        <time>2022-10-26T14:47:15Z</time>
      </trkpt>
      <trkpt lat="43.63385" lon="1.22924">
        <ele>195.4</ele>
        <time>2022-10-26T14:47:16Z</time>
      </trkpt>
      <trkpt lat="43.63381" lon="1.22918">
        <ele>195.4</ele>
        <time>2022-10-26T14:47:17Z</time>
      </trkpt>
      <trkpt lat="43.63376" lon="1.22911">
        <ele>195.2</ele>
        <time>2022-10-26T14:47:18Z</time>
      </trkpt>
      <trkpt lat="43.63372" lon="1.22905">
        <ele>195.4</ele>
        <time>2022-10-26T14:47:19Z</time>
      </trkpt>
      <trkpt lat="43.63367" lon="1.229">
        <ele>195.4</ele>
        <time>2022-10-26T14:47:20Z</time>
      </trkpt>
      <trkpt lat="43.63362" lon="1.22894">
        <ele>195.2</ele>
        <time>2022-10-26T14:47:21Z</time>
      </trkpt>
      <trkpt lat="43.63357" lon="1.22888">
        <ele>195.2</ele>
        <time>2022-10-26T14:47:22Z</time>
      </trkpt>
      <trkpt lat="43.63351" lon="1.22881">
        <ele>195.2</ele>
        <time>2022-10-26T14:47:23Z</time>
      </trkpt>
      <trkpt lat="43.63346" lon="1.22874">
        <ele>195.2</ele>
        <time>2022-10-26T14:47:24Z</time>
      </trkpt>
      <trkpt lat="43.63341" lon="1.22867">
        <ele>195.2</ele>
        <time>2022-10-26T14:47:25Z</time>
      </trkpt>
      <trkpt lat="43.63337" lon="1.2286">
        <ele>195.2</ele>
        <time>2022-10-26T14:47:26Z</time>
      </trkpt>
      <trkpt lat="43.63333" lon="1.22854">
        <ele>195.2</ele>
        <time>2022-10-26T14:47:27Z</time>
      </trkpt>
      <trkpt lat="43.63329" lon="1.22848">
        <ele>195.2</ele>
        <time>2022-10-26T14:47:28Z</time>
      </trkpt>
      <trkpt lat="43.63325" lon="1.22844">
        <ele>195.2</ele>
        <time>2022-10-26T14:47:29Z</time>
      </trkpt>
      <trkpt lat="43.63321" lon="1.22839">
        <ele>195.2</ele>
        <time>2022-10-26T14:47:30Z</time>
      </trkpt>
      <trkpt lat="43.63317" lon="1.22833">
        <ele>195.2</ele>
        <time>2022-10-26T14:47:31Z</time>
      </trkpt>
      <trkpt lat="43.63311" lon="1.22827">
        <ele>195.2</ele>
        <time>2022-10-26T14:47:32Z</time>
      </trkpt>
      <trkpt lat="43.63305" lon="1.22823">
        <ele>195.2</ele>
        <time>2022-10-26T14:47:33Z</time>
      </trkpt>
      <trkpt lat="43.63299" lon="1.22818">
        <ele>195.2</ele>
        <time>2022-10-26T14:47:34Z</time>
      </trkpt>
      <trkpt lat="43.63294" lon="1.22812">
        <ele>195.2</ele>
        <time>2022-10-26T14:47:35Z</time>
      </trkpt>
      <trkpt lat="43.63288" lon="1.22808">
        <ele>195.2</ele>
        <time>2022-10-26T14:47:36Z</time>
      </trkpt>
      <trkpt lat="43.63283" lon="1.22804">
        <ele>195.2</ele>
        <time>2022-10-26T14:47:37Z</time>
      </trkpt>
      <trkpt lat="43.63279" lon="1.228">
        <ele>195.4</ele>
        <time>2022-10-26T14:47:38Z</time>
      </trkpt>
      <trkpt lat="43.63273" lon="1.22795">
        <ele>195.4</ele>
        <time>2022-10-26T14:47:39Z</time>
      </trkpt>
      <trkpt lat="43.63267" lon="1.22791">
        <ele>195.4</ele>
        <time>2022-10-26T14:47:40Z</time>
      </trkpt>
      <trkpt lat="43.63261" lon="1.22788">
        <ele>195.4</ele>
        <time>2022-10-26T14:47:41Z</time>
      </trkpt>
      <trkpt lat="43.63256" lon="1.22786">
        <ele>195.4</ele>
        <time>2022-10-26T14:47:42Z</time>
      </trkpt>
      <trkpt lat="43.63252" lon="1.22785">
        <ele>195.4</ele>
        <time>2022-10-26T14:47:43Z</time>
      </trkpt>
      <trkpt lat="43.63247" lon="1.22782">
        <ele>195.6</ele>
        <time>2022-10-26T14:47:44Z</time>
      </trkpt>
      <trkpt lat="43.63241" lon="1.22781">
        <ele>195.6</ele>
        <time>2022-10-26T14:47:45Z</time>
      </trkpt>
      <trkpt lat="43.63236" lon="1.22779">
        <ele>195.6</ele>
        <time>2022-10-26T14:47:46Z</time>
      </trkpt>
      <trkpt lat="43.63231" lon="1.22778">
        <ele>195.6</ele>
        <time>2022-10-26T14:47:47Z</time>
      </trkpt>
      <trkpt lat="43.63225" lon="1.22777">
        <ele>195.6</ele>
        <time>2022-10-26T14:47:48Z</time>
      </trkpt>
      <trkpt lat="43.6322" lon="1.22774">
        <ele>195.8</ele>
        <time>2022-10-26T14:47:49Z</time>
      </trkpt>
      <trkpt lat="43.63215" lon="1.2277">
        <ele>195.8</ele>
        <time>2022-10-26T14:47:50Z</time>
      </trkpt>
      <trkpt lat="43.63209" lon="1.22765">
        <ele>195.8</ele>
        <time>2022-10-26T14:47:51Z</time>
      </trkpt>
      <trkpt lat="43.63204" lon="1.22762">
        <ele>196</ele>
        <time>2022-10-26T14:47:52Z</time>
      </trkpt>
      <trkpt lat="43.632" lon="1.22759">
        <ele>196</ele>
        <time>2022-10-26T14:47:53Z</time>
      </trkpt>
      <trkpt lat="43.63195" lon="1.22756">
        <ele>196</ele>
        <time>2022-10-26T14:47:54Z</time>
      </trkpt>
      <trkpt lat="43.63191" lon="1.22753">
        <ele>196</ele>
        <time>2022-10-26T14:47:55Z</time>
      </trkpt>
      <trkpt lat="43.63188" lon="1.2275">
        <ele>196</ele>
        <time>2022-10-26T14:47:56Z</time>
      </trkpt>
      <trkpt lat="43.63183" lon="1.22748">
        <ele>196</ele>
        <time>2022-10-26T14:47:57Z</time>
      </trkpt>
      <trkpt lat="43.63177" lon="1.22745">
        <ele>196</ele>
        <time>2022-10-26T14:47:58Z</time>
      </trkpt>
      <trkpt lat="43.63174" lon="1.22742">
        <ele>196.2</ele>
        <time>2022-10-26T14:47:59Z</time>
      </trkpt>
      <trkpt lat="43.63171" lon="1.22738">
        <ele>196.2</ele>
        <time>2022-10-26T14:48:00Z</time>
      </trkpt>
      <trkpt lat="43.63168" lon="1.22733">
        <ele>196.2</ele>
        <time>2022-10-26T14:48:01Z</time>
      </trkpt>
      <trkpt lat="43.63166" lon="1.22728">
        <ele>196.4</ele>
        <time>2022-10-26T14:48:02Z</time>
      </trkpt>
      <trkpt lat="43.63164" lon="1.22723">
        <ele>196.6</ele>
        <time>2022-10-26T14:48:03Z</time>
      </trkpt>
      <trkpt lat="43.63162" lon="1.22718">
        <ele>196.6</ele>
        <time>2022-10-26T14:48:04Z</time>
      </trkpt>
      <trkpt lat="43.6316" lon="1.22713">
        <ele>196.6</ele>
        <time>2022-10-26T14:48:05Z</time>
      </trkpt>
      <trkpt lat="43.63157" lon="1.22707">
        <ele>196.8</ele>
        <time>2022-10-26T14:48:06Z</time>
      </trkpt>
      <trkpt lat="43.63156" lon="1.22702">
        <ele>196.8</ele>
        <time>2022-10-26T14:48:07Z</time>
      </trkpt>
      <trkpt lat="43.63153" lon="1.22696">
        <ele>196.8</ele>
        <time>2022-10-26T14:48:08Z</time>
      </trkpt>
      <trkpt lat="43.6315" lon="1.22691">
        <ele>197</ele>
        <time>2022-10-26T14:48:09Z</time>
      </trkpt>
      <trkpt lat="43.63148" lon="1.22687">
        <ele>197</ele>
        <time>2022-10-26T14:48:10Z</time>
      </trkpt>
      <trkpt lat="43.63146" lon="1.2268">
        <ele>197</ele>
        <time>2022-10-26T14:48:11Z</time>
      </trkpt>
      <trkpt lat="43.63143" lon="1.22675">
        <ele>197.2</ele>
        <time>2022-10-26T14:48:12Z</time>
      </trkpt>
      <trkpt lat="43.63139" lon="1.22669">
        <ele>197.4</ele>
        <time>2022-10-26T14:48:13Z</time>
      </trkpt>
      <trkpt lat="43.63136" lon="1.22665">
        <ele>197.6</ele>
        <time>2022-10-26T14:48:14Z</time>
      </trkpt>
      <trkpt lat="43.63132" lon="1.22661">
        <ele>197.6</ele>
        <time>2022-10-26T14:48:15Z</time>
      </trkpt>
      <trkpt lat="43.63128" lon="1.22656">
        <ele>197.8</ele>
        <time>2022-10-26T14:48:16Z</time>
      </trkpt>
      <trkpt lat="43.63125" lon="1.2265">
        <ele>197.8</ele>
        <time>2022-10-26T14:48:17Z</time>
      </trkpt>
      <trkpt lat="43.63121" lon="1.22643">
        <ele>198</ele>
        <time>2022-10-26T14:48:18Z</time>
      </trkpt>
      <trkpt lat="43.63117" lon="1.22636">
        <ele>198.2</ele>
        <time>2022-10-26T14:48:19Z</time>
      </trkpt>
      <trkpt lat="43.63113" lon="1.22629">
        <ele>198.4</ele>
        <time>2022-10-26T14:48:20Z</time>
      </trkpt>
      <trkpt lat="43.63108" lon="1.22623">
        <ele>198.4</ele>
        <time>2022-10-26T14:48:21Z</time>
      </trkpt>
      <trkpt lat="43.63105" lon="1.22616">
        <ele>198.4</ele>
        <time>2022-10-26T14:48:22Z</time>
      </trkpt>
      <trkpt lat="43.63101" lon="1.22609">
        <ele>198.4</ele>
        <time>2022-10-26T14:48:23Z</time>
      </trkpt>
      <trkpt lat="43.63097" lon="1.22604">
        <ele>198.4</ele>
        <time>2022-10-26T14:48:24Z</time>
      </trkpt>
      <trkpt lat="43.63092" lon="1.22598">
        <ele>198.6</ele>
        <time>2022-10-26T14:48:25Z</time>
      </trkpt>
      <trkpt lat="43.63087" lon="1.22592">
        <ele>198.6</ele>
        <time>2022-10-26T14:48:26Z</time>
      </trkpt>
      <trkpt lat="43.63082" lon="1.22587">
        <ele>198.6</ele>
        <time>2022-10-26T14:48:27Z</time>
      </trkpt>
      <trkpt lat="43.63076" lon="1.22584">
        <ele>198.6</ele>
        <time>2022-10-26T14:48:28Z</time>
      </trkpt>
      <trkpt lat="43.63069" lon="1.22583">
        <ele>198.6</ele>
        <time>2022-10-26T14:48:29Z</time>
      </trkpt>
      <trkpt lat="43.63062" lon="1.22582">
        <ele>198.6</ele>
        <time>2022-10-26T14:48:30Z</time>
      </trkpt>
      <trkpt lat="43.63056" lon="1.22582">
        <ele>198.4</ele>
        <time>2022-10-26T14:48:31Z</time>
      </trkpt>
      <trkpt lat="43.63051" lon="1.22582">
        <ele>198.4</ele>
        <time>2022-10-26T14:48:32Z</time>
      </trkpt>
      <trkpt lat="43.63046" lon="1.22581">
        <ele>198.4</ele>
        <time>2022-10-26T14:48:33Z</time>
      </trkpt>
      <trkpt lat="43.6304" lon="1.22581">
        <ele>198.4</ele>
        <time>2022-10-26T14:48:34Z</time>
      </trkpt>
      <trkpt lat="43.63035" lon="1.22579">
        <ele>198.6</ele>
        <time>2022-10-26T14:48:35Z</time>
      </trkpt>
      <trkpt lat="43.63031" lon="1.22575">
        <ele>198.6</ele>
        <time>2022-10-26T14:48:36Z</time>
      </trkpt>
      <trkpt lat="43.63028" lon="1.2257">
        <ele>198.4</ele>
        <time>2022-10-26T14:48:37Z</time>
      </trkpt>
      <trkpt lat="43.63025" lon="1.22564">
        <ele>198.2</ele>
        <time>2022-10-26T14:48:38Z</time>
      </trkpt>
      <trkpt lat="43.63023" lon="1.22557">
        <ele>198.2</ele>
        <time>2022-10-26T14:48:39Z</time>
      </trkpt>
      <trkpt lat="43.6302" lon="1.22551">
        <ele>198.6</ele>
        <time>2022-10-26T14:48:40Z</time>
      </trkpt>
      <trkpt lat="43.63016" lon="1.22545">
        <ele>198.6</ele>
        <time>2022-10-26T14:48:41Z</time>
      </trkpt>
      <trkpt lat="43.63013" lon="1.22541">
        <ele>198.6</ele>
        <time>2022-10-26T14:48:42Z</time>
      </trkpt>
      <trkpt lat="43.6301" lon="1.22534">
        <ele>198.4</ele>
        <time>2022-10-26T14:48:43Z</time>
      </trkpt>
      <trkpt lat="43.63008" lon="1.22528">
        <ele>198.4</ele>
        <time>2022-10-26T14:48:44Z</time>
      </trkpt>
      <trkpt lat="43.63005" lon="1.22521">
        <ele>198.4</ele>
        <time>2022-10-26T14:48:45Z</time>
      </trkpt>
      <trkpt lat="43.63002" lon="1.22517">
        <ele>198.4</ele>
        <time>2022-10-26T14:48:46Z</time>
      </trkpt>
      <trkpt lat="43.62999" lon="1.2251">
        <ele>198.4</ele>
        <time>2022-10-26T14:48:47Z</time>
      </trkpt>
      <trkpt lat="43.62997" lon="1.22506">
        <ele>198.6</ele>
        <time>2022-10-26T14:48:48Z</time>
      </trkpt>
      <trkpt lat="43.62998" lon="1.22502">
        <ele>198.4</ele>
        <time>2022-10-26T14:48:49Z</time>
      </trkpt>
      <trkpt lat="43.62998" lon="1.22498">
        <ele>198.4</ele>
        <time>2022-10-26T14:48:50Z</time>
      </trkpt>
      <trkpt lat="43.62998" lon="1.22496">
        <ele>198.4</ele>
        <time>2022-10-26T14:48:51Z</time>
      </trkpt>
      <trkpt lat="43.62997" lon="1.22494">
        <ele>198.4</ele>
        <time>2022-10-26T14:48:52Z</time>
      </trkpt>
      <trkpt lat="43.62997" lon="1.22493">
        <ele>198.4</ele>
        <time>2022-10-26T14:48:53Z</time>
      </trkpt>
      <trkpt lat="43.62997" lon="1.22493">
        <ele>198.4</ele>
        <time>2022-10-26T14:48:54Z</time>
      </trkpt>
      <trkpt lat="43.62997" lon="1.22493">
        <ele>198.4</ele>
        <time>2022-10-26T14:48:55Z</time>
      </trkpt>
      <trkpt lat="43.63003" lon="1.22479">
        <ele>198</ele>
        <time>2022-10-26T14:50:27Z</time>
      </trkpt>
      <trkpt lat="43.63005" lon="1.22475">
        <ele>198</ele>
        <time>2022-10-26T14:50:28Z</time>
      </trkpt>
      <trkpt lat="43.63007" lon="1.22471">
        <ele>198</ele>
        <time>2022-10-26T14:50:29Z</time>
      </trkpt>
      <trkpt lat="43.63009" lon="1.22465">
        <ele>198</ele>
        <time>2022-10-26T14:50:30Z</time>
      </trkpt>
      <trkpt lat="43.63012" lon="1.22459">
        <ele>198.2</ele>
        <time>2022-10-26T14:50:31Z</time>
      </trkpt>
      <trkpt lat="43.63015" lon="1.22453">
        <ele>198.2</ele>
        <time>2022-10-26T14:50:32Z</time>
      </trkpt>
      <trkpt lat="43.63017" lon="1.22448">
        <ele>198.2</ele>
        <time>2022-10-26T14:50:33Z</time>
      </trkpt>
      <trkpt lat="43.63021" lon="1.2244">
        <ele>198.2</ele>
        <time>2022-10-26T14:50:34Z</time>
      </trkpt>
      <trkpt lat="43.63023" lon="1.22434">
        <ele>198.2</ele>
        <time>2022-10-26T14:50:35Z</time>
      </trkpt>
      <trkpt lat="43.63026" lon="1.2243">
        <ele>198.4</ele>
        <time>2022-10-26T14:50:36Z</time>
      </trkpt>
      <trkpt lat="43.63028" lon="1.22427">
        <ele>198.4</ele>
        <time>2022-10-26T14:50:37Z</time>
      </trkpt>
      <trkpt lat="43.63031" lon="1.22422">
        <ele>198.4</ele>
        <time>2022-10-26T14:50:38Z</time>
      </trkpt>
      <trkpt lat="43.63035" lon="1.22414">
        <ele>198.8</ele>
        <time>2022-10-26T14:50:39Z</time>
      </trkpt>
      <trkpt lat="43.63038" lon="1.22407">
        <ele>198.8</ele>
        <time>2022-10-26T14:50:40Z</time>
      </trkpt>
      <trkpt lat="43.63041" lon="1.22399">
        <ele>199</ele>
        <time>2022-10-26T14:50:41Z</time>
      </trkpt>
      <trkpt lat="43.63044" lon="1.2239">
        <ele>199.2</ele>
        <time>2022-10-26T14:50:42Z</time>
      </trkpt>
      <trkpt lat="43.63047" lon="1.22383">
        <ele>199.2</ele>
        <time>2022-10-26T14:50:43Z</time>
      </trkpt>
      <trkpt lat="43.63051" lon="1.22371">
        <ele>199.2</ele>
        <time>2022-10-26T14:50:44Z</time>
      </trkpt>
      <trkpt lat="43.63055" lon="1.22362">
        <ele>199.4</ele>
        <time>2022-10-26T14:50:45Z</time>
      </trkpt>
      <trkpt lat="43.63057" lon="1.22356">
        <ele>199.4</ele>
        <time>2022-10-26T14:50:46Z</time>
      </trkpt>
      <trkpt lat="43.6306" lon="1.22348">
        <ele>199.4</ele>
        <time>2022-10-26T14:50:47Z</time>
      </trkpt>
      <trkpt lat="43.63064" lon="1.22338">
        <ele>199.6</ele>
        <time>2022-10-26T14:50:48Z</time>
      </trkpt>
      <trkpt lat="43.63066" lon="1.22331">
        <ele>199.6</ele>
        <time>2022-10-26T14:50:49Z</time>
      </trkpt>
      <trkpt lat="43.63069" lon="1.22323">
        <ele>199.6</ele>
        <time>2022-10-26T14:50:50Z</time>
      </trkpt>
      <trkpt lat="43.63071" lon="1.22317">
        <ele>199.8</ele>
        <time>2022-10-26T14:50:51Z</time>
      </trkpt>
      <trkpt lat="43.63074" lon="1.2231">
        <ele>199.8</ele>
        <time>2022-10-26T14:50:52Z</time>
      </trkpt>
      <trkpt lat="43.63077" lon="1.22303">
        <ele>199.8</ele>
        <time>2022-10-26T14:50:53Z</time>
      </trkpt>
      <trkpt lat="43.63079" lon="1.22298">
        <ele>199.8</ele>
        <time>2022-10-26T14:50:54Z</time>
      </trkpt>
      <trkpt lat="43.63081" lon="1.22292">
        <ele>200</ele>
        <time>2022-10-26T14:50:55Z</time>
      </trkpt>
      <trkpt lat="43.63084" lon="1.22286">
        <ele>200.4</ele>
        <time>2022-10-26T14:50:56Z</time>
      </trkpt>
      <trkpt lat="43.63087" lon="1.22279">
        <ele>200.6</ele>
        <time>2022-10-26T14:50:57Z</time>
      </trkpt>
      <trkpt lat="43.63091" lon="1.22269">
        <ele>201</ele>
        <time>2022-10-26T14:50:58Z</time>
      </trkpt>
      <trkpt lat="43.63094" lon="1.22263">
        <ele>201</ele>
        <time>2022-10-26T14:50:59Z</time>
      </trkpt>
      <trkpt lat="43.63096" lon="1.22258">
        <ele>201.2</ele>
        <time>2022-10-26T14:51:00Z</time>
      </trkpt>
      <trkpt lat="43.63099" lon="1.22254">
        <ele>201.4</ele>
        <time>2022-10-26T14:51:01Z</time>
      </trkpt>
      <trkpt lat="43.63102" lon="1.22248">
        <ele>201.4</ele>
        <time>2022-10-26T14:51:02Z</time>
      </trkpt>
      <trkpt lat="43.63104" lon="1.22244">
        <ele>201.6</ele>
        <time>2022-10-26T14:51:03Z</time>
      </trkpt>
      <trkpt lat="43.63106" lon="1.2224">
        <ele>201.6</ele>
        <time>2022-10-26T14:51:04Z</time>
      </trkpt>
      <trkpt lat="43.63108" lon="1.22235">
        <ele>201.8</ele>
        <time>2022-10-26T14:51:05Z</time>
      </trkpt>
      <trkpt lat="43.63109" lon="1.22231">
        <ele>201.8</ele>
        <time>2022-10-26T14:51:06Z</time>
      </trkpt>
      <trkpt lat="43.63111" lon="1.22225">
        <ele>202</ele>
        <time>2022-10-26T14:51:07Z</time>
      </trkpt>
      <trkpt lat="43.63112" lon="1.22221">
        <ele>202</ele>
        <time>2022-10-26T14:51:08Z</time>
      </trkpt>
      <trkpt lat="43.63113" lon="1.22219">
        <ele>202.2</ele>
        <time>2022-10-26T14:51:09Z</time>
      </trkpt>
      <trkpt lat="43.63114" lon="1.22214">
        <ele>202.4</ele>
        <time>2022-10-26T14:51:10Z</time>
      </trkpt>
      <trkpt lat="43.63117" lon="1.2221">
        <ele>202.6</ele>
        <time>2022-10-26T14:51:11Z</time>
      </trkpt>
      <trkpt lat="43.63119" lon="1.22204">
        <ele>202.6</ele>
        <time>2022-10-26T14:51:12Z</time>
      </trkpt>
      <trkpt lat="43.63122" lon="1.22199">
        <ele>203</ele>
        <time>2022-10-26T14:51:13Z</time>
      </trkpt>
      <trkpt lat="43.63124" lon="1.22195">
        <ele>203.4</ele>
        <time>2022-10-26T14:51:14Z</time>
      </trkpt>
      <trkpt lat="43.63127" lon="1.2219">
        <ele>203.8</ele>
        <time>2022-10-26T14:51:15Z</time>
      </trkpt>
      <trkpt lat="43.63129" lon="1.22186">
        <ele>203.8</ele>
        <time>2022-10-26T14:51:16Z</time>
      </trkpt>
      <trkpt lat="43.6313" lon="1.22182">
        <ele>204.2</ele>
        <time>2022-10-26T14:51:17Z</time>
      </trkpt>
      <trkpt lat="43.63132" lon="1.22178">
        <ele>204.2</ele>
        <time>2022-10-26T14:51:18Z</time>
      </trkpt>
      <trkpt lat="43.63133" lon="1.22175">
        <ele>204.6</ele>
        <time>2022-10-26T14:51:19Z</time>
      </trkpt>
      <trkpt lat="43.63135" lon="1.22172">
        <ele>204.6</ele>
        <time>2022-10-26T14:51:20Z</time>
      </trkpt>
      <trkpt lat="43.63136" lon="1.22168">
        <ele>205.4</ele>
        <time>2022-10-26T14:51:21Z</time>
      </trkpt>
      <trkpt lat="43.63138" lon="1.22166">
        <ele>206</ele>
        <time>2022-10-26T14:51:22Z</time>
      </trkpt>
      <trkpt lat="43.63139" lon="1.22163">
        <ele>206.2</ele>
        <time>2022-10-26T14:51:23Z</time>
      </trkpt>
      <trkpt lat="43.6314" lon="1.22161">
        <ele>206.6</ele>
        <time>2022-10-26T14:51:24Z</time>
      </trkpt>
      <trkpt lat="43.63142" lon="1.22157">
        <ele>206.6</ele>
        <time>2022-10-26T14:51:25Z</time>
      </trkpt>
      <trkpt lat="43.63144" lon="1.22154">
        <ele>207.2</ele>
        <time>2022-10-26T14:51:26Z</time>
      </trkpt>
      <trkpt lat="43.63145" lon="1.22151">
        <ele>207.4</ele>
        <time>2022-10-26T14:51:27Z</time>
      </trkpt>
      <trkpt lat="43.63146" lon="1.22148">
        <ele>207.8</ele>
        <time>2022-10-26T14:51:28Z</time>
      </trkpt>
      <trkpt lat="43.63148" lon="1.22145">
        <ele>208.2</ele>
        <time>2022-10-26T14:51:29Z</time>
      </trkpt>
      <trkpt lat="43.63148" lon="1.22141">
        <ele>208.4</ele>
        <time>2022-10-26T14:51:30Z</time>
      </trkpt>
      <trkpt lat="43.63149" lon="1.22139">
        <ele>208.8</ele>
        <time>2022-10-26T14:51:31Z</time>
      </trkpt>
      <trkpt lat="43.6315" lon="1.22136">
        <ele>209.2</ele>
        <time>2022-10-26T14:51:32Z</time>
      </trkpt>
      <trkpt lat="43.63151" lon="1.22133">
        <ele>209.8</ele>
        <time>2022-10-26T14:51:33Z</time>
      </trkpt>
      <trkpt lat="43.63153" lon="1.22128">
        <ele>210.2</ele>
        <time>2022-10-26T14:51:34Z</time>
      </trkpt>
      <trkpt lat="43.63154" lon="1.22125">
        <ele>210.8</ele>
        <time>2022-10-26T14:51:35Z</time>
      </trkpt>
      <trkpt lat="43.63155" lon="1.22123">
        <ele>211</ele>
        <time>2022-10-26T14:51:36Z</time>
      </trkpt>
      <trkpt lat="43.63156" lon="1.22121">
        <ele>211.2</ele>
        <time>2022-10-26T14:51:37Z</time>
      </trkpt>
      <trkpt lat="43.63156" lon="1.22118">
        <ele>211.6</ele>
        <time>2022-10-26T14:51:38Z</time>
      </trkpt>
      <trkpt lat="43.63157" lon="1.22115">
        <ele>211.8</ele>
        <time>2022-10-26T14:51:39Z</time>
      </trkpt>
      <trkpt lat="43.63158" lon="1.22113">
        <ele>212.6</ele>
        <time>2022-10-26T14:51:40Z</time>
      </trkpt>
      <trkpt lat="43.63159" lon="1.2211">
        <ele>212.6</ele>
        <time>2022-10-26T14:51:41Z</time>
      </trkpt>
      <trkpt lat="43.6316" lon="1.22108">
        <ele>212.8</ele>
        <time>2022-10-26T14:51:42Z</time>
      </trkpt>
      <trkpt lat="43.63162" lon="1.22105">
        <ele>213</ele>
        <time>2022-10-26T14:51:43Z</time>
      </trkpt>
      <trkpt lat="43.63163" lon="1.22102">
        <ele>213.2</ele>
        <time>2022-10-26T14:51:44Z</time>
      </trkpt>
      <trkpt lat="43.63165" lon="1.22099">
        <ele>213.4</ele>
        <time>2022-10-26T14:51:45Z</time>
      </trkpt>
      <trkpt lat="43.63167" lon="1.22097">
        <ele>213.4</ele>
        <time>2022-10-26T14:51:46Z</time>
      </trkpt>
      <trkpt lat="43.63168" lon="1.22094">
        <ele>213.6</ele>
        <time>2022-10-26T14:51:47Z</time>
      </trkpt>
      <trkpt lat="43.6317" lon="1.22091">
        <ele>213.8</ele>
        <time>2022-10-26T14:51:48Z</time>
      </trkpt>
      <trkpt lat="43.63172" lon="1.22088">
        <ele>214</ele>
        <time>2022-10-26T14:51:49Z</time>
      </trkpt>
      <trkpt lat="43.63173" lon="1.22084">
        <ele>214.4</ele>
        <time>2022-10-26T14:51:50Z</time>
      </trkpt>
      <trkpt lat="43.63174" lon="1.22082">
        <ele>214.4</ele>
        <time>2022-10-26T14:51:51Z</time>
      </trkpt>
      <trkpt lat="43.63176" lon="1.22078">
        <ele>214.8</ele>
        <time>2022-10-26T14:51:52Z</time>
      </trkpt>
      <trkpt lat="43.63178" lon="1.22073">
        <ele>215</ele>
        <time>2022-10-26T14:51:53Z</time>
      </trkpt>
      <trkpt lat="43.6318" lon="1.22069">
        <ele>215.2</ele>
        <time>2022-10-26T14:51:54Z</time>
      </trkpt>
      <trkpt lat="43.63182" lon="1.22065">
        <ele>215.4</ele>
        <time>2022-10-26T14:51:55Z</time>
      </trkpt>
      <trkpt lat="43.63183" lon="1.2206">
        <ele>215.4</ele>
        <time>2022-10-26T14:51:56Z</time>
      </trkpt>
      <trkpt lat="43.63185" lon="1.22056">
        <ele>215.6</ele>
        <time>2022-10-26T14:51:57Z</time>
      </trkpt>
      <trkpt lat="43.63187" lon="1.22049">
        <ele>215.8</ele>
        <time>2022-10-26T14:51:58Z</time>
      </trkpt>
      <trkpt lat="43.63189" lon="1.22045">
        <ele>216</ele>
        <time>2022-10-26T14:51:59Z</time>
      </trkpt>
      <trkpt lat="43.63192" lon="1.2204">
        <ele>216</ele>
        <time>2022-10-26T14:52:00Z</time>
      </trkpt>
      <trkpt lat="43.63194" lon="1.22036">
        <ele>216.2</ele>
        <time>2022-10-26T14:52:01Z</time>
      </trkpt>
      <trkpt lat="43.63196" lon="1.2203">
        <ele>216.4</ele>
        <time>2022-10-26T14:52:02Z</time>
      </trkpt>
      <trkpt lat="43.63199" lon="1.22025">
        <ele>216.6</ele>
        <time>2022-10-26T14:52:03Z</time>
      </trkpt>
      <trkpt lat="43.63201" lon="1.22019">
        <ele>216.6</ele>
        <time>2022-10-26T14:52:04Z</time>
      </trkpt>
      <trkpt lat="43.63203" lon="1.22014">
        <ele>216.6</ele>
        <time>2022-10-26T14:52:05Z</time>
      </trkpt>
      <trkpt lat="43.63206" lon="1.22008">
        <ele>216.8</ele>
        <time>2022-10-26T14:52:06Z</time>
      </trkpt>
      <trkpt lat="43.63209" lon="1.22001">
        <ele>216.8</ele>
        <time>2022-10-26T14:52:07Z</time>
      </trkpt>
      <trkpt lat="43.63212" lon="1.21995">
        <ele>216.8</ele>
        <time>2022-10-26T14:52:08Z</time>
      </trkpt>
      <trkpt lat="43.63214" lon="1.21988">
        <ele>216.8</ele>
        <time>2022-10-26T14:52:09Z</time>
      </trkpt>
      <trkpt lat="43.63216" lon="1.21981">
        <ele>217</ele>
        <time>2022-10-26T14:52:10Z</time>
      </trkpt>
      <trkpt lat="43.63219" lon="1.21975">
        <ele>217</ele>
        <time>2022-10-26T14:52:11Z</time>
      </trkpt>
      <trkpt lat="43.63222" lon="1.21967">
        <ele>217.2</ele>
        <time>2022-10-26T14:52:12Z</time>
      </trkpt>
      <trkpt lat="43.63224" lon="1.21961">
        <ele>217.2</ele>
        <time>2022-10-26T14:52:13Z</time>
      </trkpt>
      <trkpt lat="43.63227" lon="1.21957">
        <ele>217.2</ele>
        <time>2022-10-26T14:52:14Z</time>
      </trkpt>
      <trkpt lat="43.63229" lon="1.21951">
        <ele>217.2</ele>
        <time>2022-10-26T14:52:15Z</time>
      </trkpt>
      <trkpt lat="43.63233" lon="1.21944">
        <ele>217.2</ele>
        <time>2022-10-26T14:52:16Z</time>
      </trkpt>
      <trkpt lat="43.63235" lon="1.21937">
        <ele>217.2</ele>
        <time>2022-10-26T14:52:17Z</time>
      </trkpt>
      <trkpt lat="43.63238" lon="1.21931">
        <ele>217.2</ele>
        <time>2022-10-26T14:52:18Z</time>
      </trkpt>
      <trkpt lat="43.63241" lon="1.21927">
        <ele>217.2</ele>
        <time>2022-10-26T14:52:19Z</time>
      </trkpt>
      <trkpt lat="43.63245" lon="1.21924">
        <ele>217.2</ele>
        <time>2022-10-26T14:52:20Z</time>
      </trkpt>
      <trkpt lat="43.6325" lon="1.21922">
        <ele>217.2</ele>
        <time>2022-10-26T14:52:21Z</time>
      </trkpt>
      <trkpt lat="43.63255" lon="1.21922">
        <ele>217.2</ele>
        <time>2022-10-26T14:52:22Z</time>
      </trkpt>
      <trkpt lat="43.63259" lon="1.21923">
        <ele>217.2</ele>
        <time>2022-10-26T14:52:23Z</time>
      </trkpt>
      <trkpt lat="43.63264" lon="1.21924">
        <ele>217.2</ele>
        <time>2022-10-26T14:52:24Z</time>
      </trkpt>
      <trkpt lat="43.63269" lon="1.21924">
        <ele>217.2</ele>
        <time>2022-10-26T14:52:25Z</time>
      </trkpt>
      <trkpt lat="43.63276" lon="1.21925">
        <ele>217.2</ele>
        <time>2022-10-26T14:52:26Z</time>
      </trkpt>
      <trkpt lat="43.63281" lon="1.21925">
        <ele>217</ele>
        <time>2022-10-26T14:52:27Z</time>
      </trkpt>
      <trkpt lat="43.63286" lon="1.21924">
        <ele>217</ele>
        <time>2022-10-26T14:52:28Z</time>
      </trkpt>
      <trkpt lat="43.6329" lon="1.21923">
        <ele>217</ele>
        <time>2022-10-26T14:52:29Z</time>
      </trkpt>
      <trkpt lat="43.63294" lon="1.21921">
        <ele>217</ele>
        <time>2022-10-26T14:52:30Z</time>
      </trkpt>
      <trkpt lat="43.63298" lon="1.21917">
        <ele>216.8</ele>
        <time>2022-10-26T14:52:31Z</time>
      </trkpt>
      <trkpt lat="43.63304" lon="1.21913">
        <ele>217</ele>
        <time>2022-10-26T14:52:32Z</time>
      </trkpt>
      <trkpt lat="43.63308" lon="1.21909">
        <ele>217</ele>
        <time>2022-10-26T14:52:33Z</time>
      </trkpt>
      <trkpt lat="43.63311" lon="1.21906">
        <ele>216.8</ele>
        <time>2022-10-26T14:52:34Z</time>
      </trkpt>
      <trkpt lat="43.63315" lon="1.21901">
        <ele>217</ele>
        <time>2022-10-26T14:52:35Z</time>
      </trkpt>
      <trkpt lat="43.6332" lon="1.21896">
        <ele>217.2</ele>
        <time>2022-10-26T14:52:36Z</time>
      </trkpt>
      <trkpt lat="43.63324" lon="1.2189">
        <ele>217.2</ele>
        <time>2022-10-26T14:52:37Z</time>
      </trkpt>
      <trkpt lat="43.63329" lon="1.21886">
        <ele>217</ele>
        <time>2022-10-26T14:52:38Z</time>
      </trkpt>
      <trkpt lat="43.63332" lon="1.21883">
        <ele>217</ele>
        <time>2022-10-26T14:52:39Z</time>
      </trkpt>
      <trkpt lat="43.63336" lon="1.21879">
        <ele>217.2</ele>
        <time>2022-10-26T14:52:40Z</time>
      </trkpt>
      <trkpt lat="43.6334" lon="1.21874">
        <ele>217.2</ele>
        <time>2022-10-26T14:52:41Z</time>
      </trkpt>
      <trkpt lat="43.63344" lon="1.2187">
        <ele>217.2</ele>
        <time>2022-10-26T14:52:42Z</time>
      </trkpt>
      <trkpt lat="43.63347" lon="1.21865">
        <ele>217.2</ele>
        <time>2022-10-26T14:52:43Z</time>
      </trkpt>
      <trkpt lat="43.63349" lon="1.2186">
        <ele>217.4</ele>
        <time>2022-10-26T14:52:44Z</time>
      </trkpt>
      <trkpt lat="43.63351" lon="1.21854">
        <ele>217.4</ele>
        <time>2022-10-26T14:52:45Z</time>
      </trkpt>
      <trkpt lat="43.63354" lon="1.21847">
        <ele>217.4</ele>
        <time>2022-10-26T14:52:46Z</time>
      </trkpt>
      <trkpt lat="43.63355" lon="1.21839">
        <ele>217.4</ele>
        <time>2022-10-26T14:52:47Z</time>
      </trkpt>
      <trkpt lat="43.63356" lon="1.21831">
        <ele>217.4</ele>
        <time>2022-10-26T14:52:48Z</time>
      </trkpt>
      <trkpt lat="43.63358" lon="1.21825">
        <ele>217.4</ele>
        <time>2022-10-26T14:52:49Z</time>
      </trkpt>
      <trkpt lat="43.63359" lon="1.21816">
        <ele>217.4</ele>
        <time>2022-10-26T14:52:50Z</time>
      </trkpt>
      <trkpt lat="43.6336" lon="1.21807">
        <ele>217.4</ele>
        <time>2022-10-26T14:52:51Z</time>
      </trkpt>
      <trkpt lat="43.63361" lon="1.21798">
        <ele>217.4</ele>
        <time>2022-10-26T14:52:52Z</time>
      </trkpt>
      <trkpt lat="43.63362" lon="1.21791">
        <ele>217.4</ele>
        <time>2022-10-26T14:52:53Z</time>
      </trkpt>
      <trkpt lat="43.63363" lon="1.21782">
        <ele>217.4</ele>
        <time>2022-10-26T14:52:54Z</time>
      </trkpt>
      <trkpt lat="43.63365" lon="1.21772">
        <ele>217.4</ele>
        <time>2022-10-26T14:52:55Z</time>
      </trkpt>
      <trkpt lat="43.63366" lon="1.21762">
        <ele>217.4</ele>
        <time>2022-10-26T14:52:56Z</time>
      </trkpt>
      <trkpt lat="43.63368" lon="1.21752">
        <ele>217.4</ele>
        <time>2022-10-26T14:52:57Z</time>
      </trkpt>
      <trkpt lat="43.63368" lon="1.21744">
        <ele>217.4</ele>
        <time>2022-10-26T14:52:58Z</time>
      </trkpt>
      <trkpt lat="43.63369" lon="1.21734">
        <ele>217.4</ele>
        <time>2022-10-26T14:52:59Z</time>
      </trkpt>
      <trkpt lat="43.6337" lon="1.21724">
        <ele>217.4</ele>
        <time>2022-10-26T14:53:00Z</time>
      </trkpt>
      <trkpt lat="43.63372" lon="1.21714">
        <ele>217.4</ele>
        <time>2022-10-26T14:53:01Z</time>
      </trkpt>
      <trkpt lat="43.63374" lon="1.21705">
        <ele>217.4</ele>
        <time>2022-10-26T14:53:02Z</time>
      </trkpt>
      <trkpt lat="43.63375" lon="1.21698">
        <ele>217.2</ele>
        <time>2022-10-26T14:53:03Z</time>
      </trkpt>
      <trkpt lat="43.63377" lon="1.21689">
        <ele>217</ele>
        <time>2022-10-26T14:53:04Z</time>
      </trkpt>
      <trkpt lat="43.63379" lon="1.21678">
        <ele>217</ele>
        <time>2022-10-26T14:53:05Z</time>
      </trkpt>
      <trkpt lat="43.63381" lon="1.21669">
        <ele>217</ele>
        <time>2022-10-26T14:53:06Z</time>
      </trkpt>
      <trkpt lat="43.63381" lon="1.21661">
        <ele>217</ele>
        <time>2022-10-26T14:53:07Z</time>
      </trkpt>
      <trkpt lat="43.63382" lon="1.21655">
        <ele>217</ele>
        <time>2022-10-26T14:53:08Z</time>
      </trkpt>
      <trkpt lat="43.63384" lon="1.21647">
        <ele>217</ele>
        <time>2022-10-26T14:53:09Z</time>
      </trkpt>
      <trkpt lat="43.63385" lon="1.21638">
        <ele>217</ele>
        <time>2022-10-26T14:53:10Z</time>
      </trkpt>
      <trkpt lat="43.63386" lon="1.21632">
        <ele>217</ele>
        <time>2022-10-26T14:53:11Z</time>
      </trkpt>
      <trkpt lat="43.63387" lon="1.21624">
        <ele>217.4</ele>
        <time>2022-10-26T14:53:12Z</time>
      </trkpt>
      <trkpt lat="43.63389" lon="1.21615">
        <ele>217.4</ele>
        <time>2022-10-26T14:53:13Z</time>
      </trkpt>
      <trkpt lat="43.63391" lon="1.21608">
        <ele>217</ele>
        <time>2022-10-26T14:53:14Z</time>
      </trkpt>
      <trkpt lat="43.63393" lon="1.21598">
        <ele>217</ele>
        <time>2022-10-26T14:53:15Z</time>
      </trkpt>
      <trkpt lat="43.63395" lon="1.21589">
        <ele>217</ele>
        <time>2022-10-26T14:53:16Z</time>
      </trkpt>
      <trkpt lat="43.63397" lon="1.21581">
        <ele>217</ele>
        <time>2022-10-26T14:53:17Z</time>
      </trkpt>
      <trkpt lat="43.63399" lon="1.21574">
        <ele>217</ele>
        <time>2022-10-26T14:53:18Z</time>
      </trkpt>
      <trkpt lat="43.634" lon="1.21566">
        <ele>217</ele>
        <time>2022-10-26T14:53:19Z</time>
      </trkpt>
      <trkpt lat="43.63399" lon="1.21556">
        <ele>217</ele>
        <time>2022-10-26T14:53:20Z</time>
      </trkpt>
      <trkpt lat="43.63396" lon="1.21549">
        <ele>216.8</ele>
        <time>2022-10-26T14:53:21Z</time>
      </trkpt>
      <trkpt lat="43.63392" lon="1.21543">
        <ele>216.8</ele>
        <time>2022-10-26T14:53:22Z</time>
      </trkpt>
      <trkpt lat="43.63388" lon="1.21539">
        <ele>216.8</ele>
        <time>2022-10-26T14:53:23Z</time>
      </trkpt>
      <trkpt lat="43.63382" lon="1.21536">
        <ele>216.8</ele>
        <time>2022-10-26T14:53:24Z</time>
      </trkpt>
      <trkpt lat="43.63377" lon="1.2153">
        <ele>216.8</ele>
        <time>2022-10-26T14:53:25Z</time>
      </trkpt>
      <trkpt lat="43.63372" lon="1.21526">
        <ele>216.6</ele>
        <time>2022-10-26T14:53:26Z</time>
      </trkpt>
      <trkpt lat="43.63368" lon="1.21522">
        <ele>216.6</ele>
        <time>2022-10-26T14:53:27Z</time>
      </trkpt>
      <trkpt lat="43.63364" lon="1.21519">
        <ele>216.6</ele>
        <time>2022-10-26T14:53:28Z</time>
      </trkpt>
      <trkpt lat="43.63359" lon="1.21515">
        <ele>216.4</ele>
        <time>2022-10-26T14:53:29Z</time>
      </trkpt>
      <trkpt lat="43.63353" lon="1.21511">
        <ele>216.4</ele>
        <time>2022-10-26T14:53:30Z</time>
      </trkpt>
      <trkpt lat="43.63348" lon="1.21507">
        <ele>216.4</ele>
        <time>2022-10-26T14:53:31Z</time>
      </trkpt>
      <trkpt lat="43.63344" lon="1.21505">
        <ele>216.2</ele>
        <time>2022-10-26T14:53:32Z</time>
      </trkpt>
      <trkpt lat="43.63342" lon="1.21504">
        <ele>216.2</ele>
        <time>2022-10-26T14:53:33Z</time>
      </trkpt>
      <trkpt lat="43.6334" lon="1.21505">
        <ele>216.2</ele>
        <time>2022-10-26T14:53:34Z</time>
      </trkpt>
      <trkpt lat="43.63337" lon="1.21508">
        <ele>216.2</ele>
        <time>2022-10-26T14:53:35Z</time>
      </trkpt>
      <trkpt lat="43.63335" lon="1.21511">
        <ele>216.2</ele>
        <time>2022-10-26T14:53:36Z</time>
      </trkpt>
      <trkpt lat="43.63333" lon="1.21516">
        <ele>216.2</ele>
        <time>2022-10-26T14:53:37Z</time>
      </trkpt>
      <trkpt lat="43.63332" lon="1.2152">
        <ele>216</ele>
        <time>2022-10-26T14:53:38Z</time>
      </trkpt>
      <trkpt lat="43.6333" lon="1.21526">
        <ele>216</ele>
        <time>2022-10-26T14:53:39Z</time>
      </trkpt>
      <trkpt lat="43.6333" lon="1.21532">
        <ele>216</ele>
        <time>2022-10-26T14:53:40Z</time>
      </trkpt>
      <trkpt lat="43.63329" lon="1.21541">
        <ele>216</ele>
        <time>2022-10-26T14:53:41Z</time>
      </trkpt>
      <trkpt lat="43.63329" lon="1.21547">
        <ele>216</ele>
        <time>2022-10-26T14:53:42Z</time>
      </trkpt>
      <trkpt lat="43.63329" lon="1.21554">
        <ele>215.8</ele>
        <time>2022-10-26T14:53:43Z</time>
      </trkpt>
      <trkpt lat="43.63329" lon="1.21561">
        <ele>215.8</ele>
        <time>2022-10-26T14:53:44Z</time>
      </trkpt>
      <trkpt lat="43.63327" lon="1.21567">
        <ele>215.8</ele>
        <time>2022-10-26T14:53:45Z</time>
      </trkpt>
      <trkpt lat="43.63325" lon="1.21572">
        <ele>215.8</ele>
        <time>2022-10-26T14:53:46Z</time>
      </trkpt>
      <trkpt lat="43.63323" lon="1.2158">
        <ele>215.8</ele>
        <time>2022-10-26T14:53:47Z</time>
      </trkpt>
      <trkpt lat="43.63322" lon="1.21586">
        <ele>215.8</ele>
        <time>2022-10-26T14:53:48Z</time>
      </trkpt>
      <trkpt lat="43.6332" lon="1.21591">
        <ele>215.6</ele>
        <time>2022-10-26T14:53:49Z</time>
      </trkpt>
      <trkpt lat="43.63318" lon="1.21597">
        <ele>215.6</ele>
        <time>2022-10-26T14:53:50Z</time>
      </trkpt>
      <trkpt lat="43.63314" lon="1.21601">
        <ele>215.6</ele>
        <time>2022-10-26T14:53:51Z</time>
      </trkpt>
      <trkpt lat="43.63313" lon="1.21606">
        <ele>215.6</ele>
        <time>2022-10-26T14:53:52Z</time>
      </trkpt>
      <trkpt lat="43.6331" lon="1.21611">
        <ele>215.6</ele>
        <time>2022-10-26T14:53:53Z</time>
      </trkpt>
      <trkpt lat="43.63308" lon="1.21618">
        <ele>215.6</ele>
        <time>2022-10-26T14:53:54Z</time>
      </trkpt>
      <trkpt lat="43.63306" lon="1.21623">
        <ele>215.6</ele>
        <time>2022-10-26T14:53:55Z</time>
      </trkpt>
      <trkpt lat="43.63305" lon="1.21629">
        <ele>215.6</ele>
        <time>2022-10-26T14:53:56Z</time>
      </trkpt>
      <trkpt lat="43.63303" lon="1.21636">
        <ele>215.6</ele>
        <time>2022-10-26T14:53:57Z</time>
      </trkpt>
      <trkpt lat="43.63301" lon="1.21642">
        <ele>215.6</ele>
        <time>2022-10-26T14:53:58Z</time>
      </trkpt>
      <trkpt lat="43.63299" lon="1.2165">
        <ele>215.8</ele>
        <time>2022-10-26T14:53:59Z</time>
      </trkpt>
      <trkpt lat="43.63297" lon="1.21659">
        <ele>215.8</ele>
        <time>2022-10-26T14:54:00Z</time>
      </trkpt>
      <trkpt lat="43.63297" lon="1.21665">
        <ele>216</ele>
        <time>2022-10-26T14:54:01Z</time>
      </trkpt>
      <trkpt lat="43.63295" lon="1.21671">
        <ele>216.2</ele>
        <time>2022-10-26T14:54:02Z</time>
      </trkpt>
      <trkpt lat="43.63293" lon="1.2168">
        <ele>216.2</ele>
        <time>2022-10-26T14:54:03Z</time>
      </trkpt>
      <trkpt lat="43.63292" lon="1.21688">
        <ele>216.2</ele>
        <time>2022-10-26T14:54:04Z</time>
      </trkpt>
      <trkpt lat="43.6329" lon="1.21695">
        <ele>216.4</ele>
        <time>2022-10-26T14:54:05Z</time>
      </trkpt>
      <trkpt lat="43.63288" lon="1.21703">
        <ele>216.4</ele>
        <time>2022-10-26T14:54:06Z</time>
      </trkpt>
      <trkpt lat="43.63286" lon="1.2171">
        <ele>216.4</ele>
        <time>2022-10-26T14:54:07Z</time>
      </trkpt>
      <trkpt lat="43.63284" lon="1.21716">
        <ele>216.4</ele>
        <time>2022-10-26T14:54:08Z</time>
      </trkpt>
      <trkpt lat="43.63283" lon="1.21721">
        <ele>216.4</ele>
        <time>2022-10-26T14:54:09Z</time>
      </trkpt>
      <trkpt lat="43.6328" lon="1.21725">
        <ele>216.4</ele>
        <time>2022-10-26T14:54:10Z</time>
      </trkpt>
      <trkpt lat="43.63278" lon="1.21728">
        <ele>216.6</ele>
        <time>2022-10-26T14:54:11Z</time>
      </trkpt>
      <trkpt lat="43.63275" lon="1.2173">
        <ele>216.6</ele>
        <time>2022-10-26T14:54:12Z</time>
      </trkpt>
      <trkpt lat="43.6327" lon="1.21728">
        <ele>216.6</ele>
        <time>2022-10-26T14:54:13Z</time>
      </trkpt>
      <trkpt lat="43.63266" lon="1.21724">
        <ele>216.6</ele>
        <time>2022-10-26T14:54:14Z</time>
      </trkpt>
      <trkpt lat="43.6326" lon="1.21722">
        <ele>216.8</ele>
        <time>2022-10-26T14:54:15Z</time>
      </trkpt>
      <trkpt lat="43.63255" lon="1.2172">
        <ele>216.8</ele>
        <time>2022-10-26T14:54:16Z</time>
      </trkpt>
      <trkpt lat="43.6325" lon="1.21718">
        <ele>216.8</ele>
        <time>2022-10-26T14:54:17Z</time>
      </trkpt>
      <trkpt lat="43.63244" lon="1.21714">
        <ele>216.8</ele>
        <time>2022-10-26T14:54:18Z</time>
      </trkpt>
      <trkpt lat="43.63238" lon="1.21711">
        <ele>216.8</ele>
        <time>2022-10-26T14:54:19Z</time>
      </trkpt>
      <trkpt lat="43.63233" lon="1.21708">
        <ele>217</ele>
        <time>2022-10-26T14:54:20Z</time>
      </trkpt>
      <trkpt lat="43.63228" lon="1.21704">
        <ele>217</ele>
        <time>2022-10-26T14:54:21Z</time>
      </trkpt>
      <trkpt lat="43.63224" lon="1.21699">
        <ele>217</ele>
        <time>2022-10-26T14:54:22Z</time>
      </trkpt>
      <trkpt lat="43.63218" lon="1.21696">
        <ele>216.8</ele>
        <time>2022-10-26T14:54:23Z</time>
      </trkpt>
      <trkpt lat="43.63214" lon="1.21693">
        <ele>217</ele>
        <time>2022-10-26T14:54:24Z</time>
      </trkpt>
      <trkpt lat="43.63209" lon="1.21689">
        <ele>217</ele>
        <time>2022-10-26T14:54:25Z</time>
      </trkpt>
      <trkpt lat="43.63205" lon="1.21685">
        <ele>217</ele>
        <time>2022-10-26T14:54:26Z</time>
      </trkpt>
      <trkpt lat="43.632" lon="1.2168">
        <ele>217</ele>
        <time>2022-10-26T14:54:27Z</time>
      </trkpt>
      <trkpt lat="43.63196" lon="1.21676">
        <ele>217</ele>
        <time>2022-10-26T14:54:28Z</time>
      </trkpt>
      <trkpt lat="43.63192" lon="1.21672">
        <ele>217</ele>
        <time>2022-10-26T14:54:29Z</time>
      </trkpt>
      <trkpt lat="43.63187" lon="1.21669">
        <ele>217</ele>
        <time>2022-10-26T14:54:30Z</time>
      </trkpt>
      <trkpt lat="43.63184" lon="1.21667">
        <ele>217.2</ele>
        <time>2022-10-26T14:54:31Z</time>
      </trkpt>
      <trkpt lat="43.63179" lon="1.21664">
        <ele>217.4</ele>
        <time>2022-10-26T14:54:32Z</time>
      </trkpt>
      <trkpt lat="43.63173" lon="1.2166">
        <ele>217.6</ele>
        <time>2022-10-26T14:54:33Z</time>
      </trkpt>
      <trkpt lat="43.6317" lon="1.21656">
        <ele>217.6</ele>
        <time>2022-10-26T14:54:34Z</time>
      </trkpt>
      <trkpt lat="43.63165" lon="1.21652">
        <ele>217.6</ele>
        <time>2022-10-26T14:54:35Z</time>
      </trkpt>
      <trkpt lat="43.63161" lon="1.21649">
        <ele>217.6</ele>
        <time>2022-10-26T14:54:36Z</time>
      </trkpt>
      <trkpt lat="43.63156" lon="1.21646">
        <ele>217.8</ele>
        <time>2022-10-26T14:54:37Z</time>
      </trkpt>
      <trkpt lat="43.63149" lon="1.2164">
        <ele>217.8</ele>
        <time>2022-10-26T14:54:38Z</time>
      </trkpt>
      <trkpt lat="43.63145" lon="1.21636">
        <ele>217.8</ele>
        <time>2022-10-26T14:54:39Z</time>
      </trkpt>
      <trkpt lat="43.63141" lon="1.21632">
        <ele>217.8</ele>
        <time>2022-10-26T14:54:40Z</time>
      </trkpt>
      <trkpt lat="43.63136" lon="1.21627">
        <ele>217.8</ele>
        <time>2022-10-26T14:54:41Z</time>
      </trkpt>
      <trkpt lat="43.63131" lon="1.21623">
        <ele>217.8</ele>
        <time>2022-10-26T14:54:42Z</time>
      </trkpt>
      <trkpt lat="43.63125" lon="1.21619">
        <ele>217.8</ele>
        <time>2022-10-26T14:54:43Z</time>
      </trkpt>
      <trkpt lat="43.6312" lon="1.21615">
        <ele>217.8</ele>
        <time>2022-10-26T14:54:44Z</time>
      </trkpt>
      <trkpt lat="43.63114" lon="1.2161">
        <ele>218</ele>
        <time>2022-10-26T14:54:45Z</time>
      </trkpt>
      <trkpt lat="43.63109" lon="1.21605">
        <ele>218</ele>
        <time>2022-10-26T14:54:46Z</time>
      </trkpt>
      <trkpt lat="43.63105" lon="1.21599">
        <ele>218</ele>
        <time>2022-10-26T14:54:47Z</time>
      </trkpt>
      <trkpt lat="43.63099" lon="1.21594">
        <ele>218.2</ele>
        <time>2022-10-26T14:54:48Z</time>
      </trkpt>
      <trkpt lat="43.63094" lon="1.2159">
        <ele>218.2</ele>
        <time>2022-10-26T14:54:49Z</time>
      </trkpt>
      <trkpt lat="43.63088" lon="1.21586">
        <ele>218.2</ele>
        <time>2022-10-26T14:54:50Z</time>
      </trkpt>
      <trkpt lat="43.63084" lon="1.21583">
        <ele>218.4</ele>
        <time>2022-10-26T14:54:51Z</time>
      </trkpt>
      <trkpt lat="43.6308" lon="1.21578">
        <ele>218.4</ele>
        <time>2022-10-26T14:54:52Z</time>
      </trkpt>
      <trkpt lat="43.63075" lon="1.21573">
        <ele>218.6</ele>
        <time>2022-10-26T14:54:53Z</time>
      </trkpt>
      <trkpt lat="43.6307" lon="1.21569">
        <ele>218.6</ele>
        <time>2022-10-26T14:54:54Z</time>
      </trkpt>
      <trkpt lat="43.63066" lon="1.21565">
        <ele>218.8</ele>
        <time>2022-10-26T14:54:55Z</time>
      </trkpt>
      <trkpt lat="43.63061" lon="1.21562">
        <ele>218.8</ele>
        <time>2022-10-26T14:54:56Z</time>
      </trkpt>
      <trkpt lat="43.63056" lon="1.21558">
        <ele>218.6</ele>
        <time>2022-10-26T14:54:57Z</time>
      </trkpt>
      <trkpt lat="43.63051" lon="1.21554">
        <ele>218.8</ele>
        <time>2022-10-26T14:54:58Z</time>
      </trkpt>
      <trkpt lat="43.63048" lon="1.21552">
        <ele>218.8</ele>
        <time>2022-10-26T14:54:59Z</time>
      </trkpt>
      <trkpt lat="43.63044" lon="1.21548">
        <ele>218.8</ele>
        <time>2022-10-26T14:55:00Z</time>
      </trkpt>
      <trkpt lat="43.6304" lon="1.21545">
        <ele>218.8</ele>
        <time>2022-10-26T14:55:01Z</time>
      </trkpt>
      <trkpt lat="43.63035" lon="1.21541">
        <ele>218.8</ele>
        <time>2022-10-26T14:55:02Z</time>
      </trkpt>
      <trkpt lat="43.63033" lon="1.21538">
        <ele>218.8</ele>
        <time>2022-10-26T14:55:03Z</time>
      </trkpt>
      <trkpt lat="43.63028" lon="1.21534">
        <ele>219</ele>
        <time>2022-10-26T14:55:04Z</time>
      </trkpt>
      <trkpt lat="43.63024" lon="1.21532">
        <ele>219</ele>
        <time>2022-10-26T14:55:05Z</time>
      </trkpt>
      <trkpt lat="43.6302" lon="1.21529">
        <ele>219</ele>
        <time>2022-10-26T14:55:06Z</time>
      </trkpt>
      <trkpt lat="43.63015" lon="1.21525">
        <ele>219</ele>
        <time>2022-10-26T14:55:07Z</time>
      </trkpt>
      <trkpt lat="43.6301" lon="1.2152">
        <ele>219</ele>
        <time>2022-10-26T14:55:08Z</time>
      </trkpt>
      <trkpt lat="43.63006" lon="1.21517">
        <ele>219.2</ele>
        <time>2022-10-26T14:55:09Z</time>
      </trkpt>
      <trkpt lat="43.63002" lon="1.21513">
        <ele>219.2</ele>
        <time>2022-10-26T14:55:10Z</time>
      </trkpt>
      <trkpt lat="43.62997" lon="1.21508">
        <ele>219.2</ele>
        <time>2022-10-26T14:55:11Z</time>
      </trkpt>
      <trkpt lat="43.62993" lon="1.21505">
        <ele>219.2</ele>
        <time>2022-10-26T14:55:12Z</time>
      </trkpt>
      <trkpt lat="43.62989" lon="1.21501">
        <ele>219.2</ele>
        <time>2022-10-26T14:55:13Z</time>
      </trkpt>
      <trkpt lat="43.62984" lon="1.21498">
        <ele>219.2</ele>
        <time>2022-10-26T14:55:14Z</time>
      </trkpt>
      <trkpt lat="43.62979" lon="1.21495">
        <ele>219.2</ele>
        <time>2022-10-26T14:55:15Z</time>
      </trkpt>
      <trkpt lat="43.62976" lon="1.21491">
        <ele>219.4</ele>
        <time>2022-10-26T14:55:16Z</time>
      </trkpt>
      <trkpt lat="43.62973" lon="1.21488">
        <ele>219.4</ele>
        <time>2022-10-26T14:55:17Z</time>
      </trkpt>
      <trkpt lat="43.62968" lon="1.21484">
        <ele>219.6</ele>
        <time>2022-10-26T14:55:18Z</time>
      </trkpt>
      <trkpt lat="43.62964" lon="1.2148">
        <ele>219.6</ele>
        <time>2022-10-26T14:55:19Z</time>
      </trkpt>
      <trkpt lat="43.62959" lon="1.21477">
        <ele>219.6</ele>
        <time>2022-10-26T14:55:20Z</time>
      </trkpt>
      <trkpt lat="43.62955" lon="1.21476">
        <ele>219.8</ele>
        <time>2022-10-26T14:55:21Z</time>
      </trkpt>
      <trkpt lat="43.6295" lon="1.21473">
        <ele>219.8</ele>
        <time>2022-10-26T14:55:22Z</time>
      </trkpt>
      <trkpt lat="43.62946" lon="1.21475">
        <ele>220</ele>
        <time>2022-10-26T14:55:23Z</time>
      </trkpt>
      <trkpt lat="43.62943" lon="1.21478">
        <ele>220</ele>
        <time>2022-10-26T14:55:24Z</time>
      </trkpt>
      <trkpt lat="43.6294" lon="1.21479">
        <ele>220</ele>
        <time>2022-10-26T14:55:25Z</time>
      </trkpt>
      <trkpt lat="43.62936" lon="1.21481">
        <ele>220.2</ele>
        <time>2022-10-26T14:55:26Z</time>
      </trkpt>
      <trkpt lat="43.62931" lon="1.2148">
        <ele>220.4</ele>
        <time>2022-10-26T14:55:27Z</time>
      </trkpt>
      <trkpt lat="43.62925" lon="1.21478">
        <ele>220.6</ele>
        <time>2022-10-26T14:55:28Z</time>
      </trkpt>
      <trkpt lat="43.62919" lon="1.21476">
        <ele>220.6</ele>
        <time>2022-10-26T14:55:29Z</time>
      </trkpt>
      <trkpt lat="43.62915" lon="1.21474">
        <ele>220.8</ele>
        <time>2022-10-26T14:55:30Z</time>
      </trkpt>
      <trkpt lat="43.62912" lon="1.21471">
        <ele>220.8</ele>
        <time>2022-10-26T14:55:31Z</time>
      </trkpt>
      <trkpt lat="43.62907" lon="1.21467">
        <ele>220.8</ele>
        <time>2022-10-26T14:55:32Z</time>
      </trkpt>
      <trkpt lat="43.62903" lon="1.21464">
        <ele>220.8</ele>
        <time>2022-10-26T14:55:33Z</time>
      </trkpt>
      <trkpt lat="43.62898" lon="1.2146">
        <ele>220.8</ele>
        <time>2022-10-26T14:55:34Z</time>
      </trkpt>
      <trkpt lat="43.62894" lon="1.21457">
        <ele>221</ele>
        <time>2022-10-26T14:55:35Z</time>
      </trkpt>
      <trkpt lat="43.62889" lon="1.21452">
        <ele>221</ele>
        <time>2022-10-26T14:55:36Z</time>
      </trkpt>
      <trkpt lat="43.62884" lon="1.21448">
        <ele>221.2</ele>
        <time>2022-10-26T14:55:37Z</time>
      </trkpt>
      <trkpt lat="43.62879" lon="1.21445">
        <ele>221.4</ele>
        <time>2022-10-26T14:55:38Z</time>
      </trkpt>
      <trkpt lat="43.62875" lon="1.21442">
        <ele>221.4</ele>
        <time>2022-10-26T14:55:39Z</time>
      </trkpt>
      <trkpt lat="43.62871" lon="1.21438">
        <ele>221.6</ele>
        <time>2022-10-26T14:55:40Z</time>
      </trkpt>
      <trkpt lat="43.62864" lon="1.21432">
        <ele>221.6</ele>
        <time>2022-10-26T14:55:41Z</time>
      </trkpt>
      <trkpt lat="43.62859" lon="1.21428">
        <ele>221.8</ele>
        <time>2022-10-26T14:55:42Z</time>
      </trkpt>
      <trkpt lat="43.62853" lon="1.21424">
        <ele>222</ele>
        <time>2022-10-26T14:55:43Z</time>
      </trkpt>
      <trkpt lat="43.62848" lon="1.2142">
        <ele>222</ele>
        <time>2022-10-26T14:55:44Z</time>
      </trkpt>
      <trkpt lat="43.62844" lon="1.21416">
        <ele>222</ele>
        <time>2022-10-26T14:55:45Z</time>
      </trkpt>
      <trkpt lat="43.62839" lon="1.21413">
        <ele>222</ele>
        <time>2022-10-26T14:55:46Z</time>
      </trkpt>
      <trkpt lat="43.62833" lon="1.21409">
        <ele>222</ele>
        <time>2022-10-26T14:55:47Z</time>
      </trkpt>
      <trkpt lat="43.62827" lon="1.21404">
        <ele>222.2</ele>
        <time>2022-10-26T14:55:48Z</time>
      </trkpt>
      <trkpt lat="43.62822" lon="1.214">
        <ele>222</ele>
        <time>2022-10-26T14:55:49Z</time>
      </trkpt>
      <trkpt lat="43.62818" lon="1.21398">
        <ele>222</ele>
        <time>2022-10-26T14:55:50Z</time>
      </trkpt>
      <trkpt lat="43.62813" lon="1.21394">
        <ele>222.2</ele>
        <time>2022-10-26T14:55:51Z</time>
      </trkpt>
      <trkpt lat="43.62807" lon="1.2139">
        <ele>222.2</ele>
        <time>2022-10-26T14:55:52Z</time>
      </trkpt>
      <trkpt lat="43.62802" lon="1.21387">
        <ele>222.2</ele>
        <time>2022-10-26T14:55:53Z</time>
      </trkpt>
      <trkpt lat="43.62797" lon="1.21384">
        <ele>222.2</ele>
        <time>2022-10-26T14:55:54Z</time>
      </trkpt>
      <trkpt lat="43.62792" lon="1.21381">
        <ele>222.2</ele>
        <time>2022-10-26T14:55:55Z</time>
      </trkpt>
      <trkpt lat="43.62787" lon="1.21376">
        <ele>222.2</ele>
        <time>2022-10-26T14:55:56Z</time>
      </trkpt>
      <trkpt lat="43.62782" lon="1.21371">
        <ele>222.2</ele>
        <time>2022-10-26T14:55:57Z</time>
      </trkpt>
      <trkpt lat="43.62778" lon="1.21367">
        <ele>222.4</ele>
        <time>2022-10-26T14:55:58Z</time>
      </trkpt>
      <trkpt lat="43.62774" lon="1.21363">
        <ele>222.6</ele>
        <time>2022-10-26T14:55:59Z</time>
      </trkpt>
      <trkpt lat="43.6277" lon="1.2136">
        <ele>222.8</ele>
        <time>2022-10-26T14:56:00Z</time>
      </trkpt>
      <trkpt lat="43.62765" lon="1.21356">
        <ele>223</ele>
        <time>2022-10-26T14:56:01Z</time>
      </trkpt>
      <trkpt lat="43.6276" lon="1.21351">
        <ele>223</ele>
        <time>2022-10-26T14:56:02Z</time>
      </trkpt>
      <trkpt lat="43.62755" lon="1.21347">
        <ele>223.2</ele>
        <time>2022-10-26T14:56:03Z</time>
      </trkpt>
      <trkpt lat="43.62751" lon="1.21344">
        <ele>223.2</ele>
        <time>2022-10-26T14:56:04Z</time>
      </trkpt>
      <trkpt lat="43.62747" lon="1.21341">
        <ele>223.4</ele>
        <time>2022-10-26T14:56:05Z</time>
      </trkpt>
      <trkpt lat="43.6274" lon="1.21337">
        <ele>223.4</ele>
        <time>2022-10-26T14:56:06Z</time>
      </trkpt>
      <trkpt lat="43.62735" lon="1.21333">
        <ele>223.4</ele>
        <time>2022-10-26T14:56:07Z</time>
      </trkpt>
      <trkpt lat="43.6273" lon="1.21329">
        <ele>223.4</ele>
        <time>2022-10-26T14:56:08Z</time>
      </trkpt>
      <trkpt lat="43.62726" lon="1.21325">
        <ele>223.6</ele>
        <time>2022-10-26T14:56:09Z</time>
      </trkpt>
      <trkpt lat="43.6272" lon="1.2132">
        <ele>223.6</ele>
        <time>2022-10-26T14:56:10Z</time>
      </trkpt>
      <trkpt lat="43.62715" lon="1.21314">
        <ele>223.8</ele>
        <time>2022-10-26T14:56:11Z</time>
      </trkpt>
      <trkpt lat="43.62711" lon="1.2131">
        <ele>223.8</ele>
        <time>2022-10-26T14:56:12Z</time>
      </trkpt>
      <trkpt lat="43.62706" lon="1.21306">
        <ele>223.8</ele>
        <time>2022-10-26T14:56:13Z</time>
      </trkpt>
      <trkpt lat="43.627" lon="1.21302">
        <ele>224</ele>
        <time>2022-10-26T14:56:14Z</time>
      </trkpt>
      <trkpt lat="43.62695" lon="1.21298">
        <ele>224</ele>
        <time>2022-10-26T14:56:15Z</time>
      </trkpt>
      <trkpt lat="43.6269" lon="1.21294">
        <ele>224</ele>
        <time>2022-10-26T14:56:16Z</time>
      </trkpt>
      <trkpt lat="43.62683" lon="1.21289">
        <ele>224</ele>
        <time>2022-10-26T14:56:17Z</time>
      </trkpt>
      <trkpt lat="43.62678" lon="1.21284">
        <ele>224.2</ele>
        <time>2022-10-26T14:56:18Z</time>
      </trkpt>
      <trkpt lat="43.62673" lon="1.2128">
        <ele>224.2</ele>
        <time>2022-10-26T14:56:19Z</time>
      </trkpt>
      <trkpt lat="43.62668" lon="1.21276">
        <ele>224.2</ele>
        <time>2022-10-26T14:56:20Z</time>
      </trkpt>
      <trkpt lat="43.62662" lon="1.21271">
        <ele>224.2</ele>
        <time>2022-10-26T14:56:21Z</time>
      </trkpt>
      <trkpt lat="43.62657" lon="1.21267">
        <ele>224.2</ele>
        <time>2022-10-26T14:56:22Z</time>
      </trkpt>
      <trkpt lat="43.62652" lon="1.21263">
        <ele>224.2</ele>
        <time>2022-10-26T14:56:23Z</time>
      </trkpt>
      <trkpt lat="43.62648" lon="1.2126">
        <ele>224.2</ele>
        <time>2022-10-26T14:56:24Z</time>
      </trkpt>
      <trkpt lat="43.62643" lon="1.21255">
        <ele>224.2</ele>
        <time>2022-10-26T14:56:25Z</time>
      </trkpt>
      <trkpt lat="43.62637" lon="1.21251">
        <ele>224.2</ele>
        <time>2022-10-26T14:56:26Z</time>
      </trkpt>
      <trkpt lat="43.62632" lon="1.21247">
        <ele>224.2</ele>
        <time>2022-10-26T14:56:27Z</time>
      </trkpt>
      <trkpt lat="43.62627" lon="1.21242">
        <ele>224.2</ele>
        <time>2022-10-26T14:56:28Z</time>
      </trkpt>
      <trkpt lat="43.62623" lon="1.21237">
        <ele>224.2</ele>
        <time>2022-10-26T14:56:29Z</time>
      </trkpt>
      <trkpt lat="43.62619" lon="1.21233">
        <ele>224.2</ele>
        <time>2022-10-26T14:56:30Z</time>
      </trkpt>
      <trkpt lat="43.62614" lon="1.21229">
        <ele>224.2</ele>
        <time>2022-10-26T14:56:31Z</time>
      </trkpt>
      <trkpt lat="43.62609" lon="1.21225">
        <ele>224.2</ele>
        <time>2022-10-26T14:56:32Z</time>
      </trkpt>
      <trkpt lat="43.62603" lon="1.21221">
        <ele>224.4</ele>
        <time>2022-10-26T14:56:33Z</time>
      </trkpt>
      <trkpt lat="43.62599" lon="1.21219">
        <ele>224.2</ele>
        <time>2022-10-26T14:56:34Z</time>
      </trkpt>
      <trkpt lat="43.62594" lon="1.21215">
        <ele>224.2</ele>
        <time>2022-10-26T14:56:35Z</time>
      </trkpt>
      <trkpt lat="43.62589" lon="1.21209">
        <ele>224.2</ele>
        <time>2022-10-26T14:56:36Z</time>
      </trkpt>
      <trkpt lat="43.62585" lon="1.21204">
        <ele>224.2</ele>
        <time>2022-10-26T14:56:37Z</time>
      </trkpt>
      <trkpt lat="43.6258" lon="1.21201">
        <ele>224.4</ele>
        <time>2022-10-26T14:56:38Z</time>
      </trkpt>
      <trkpt lat="43.62576" lon="1.21199">
        <ele>224.4</ele>
        <time>2022-10-26T14:56:39Z</time>
      </trkpt>
      <trkpt lat="43.62571" lon="1.21195">
        <ele>224.4</ele>
        <time>2022-10-26T14:56:40Z</time>
      </trkpt>
      <trkpt lat="43.62566" lon="1.21191">
        <ele>224.4</ele>
        <time>2022-10-26T14:56:41Z</time>
      </trkpt>
      <trkpt lat="43.62559" lon="1.21185">
        <ele>224.4</ele>
        <time>2022-10-26T14:56:42Z</time>
      </trkpt>
      <trkpt lat="43.62553" lon="1.2118">
        <ele>224.4</ele>
        <time>2022-10-26T14:56:43Z</time>
      </trkpt>
      <trkpt lat="43.62547" lon="1.21175">
        <ele>224.4</ele>
        <time>2022-10-26T14:56:44Z</time>
      </trkpt>
      <trkpt lat="43.62541" lon="1.21171">
        <ele>224.4</ele>
        <time>2022-10-26T14:56:45Z</time>
      </trkpt>
      <trkpt lat="43.62535" lon="1.21167">
        <ele>224.2</ele>
        <time>2022-10-26T14:56:46Z</time>
      </trkpt>
      <trkpt lat="43.62527" lon="1.21159">
        <ele>224.2</ele>
        <time>2022-10-26T14:56:47Z</time>
      </trkpt>
      <trkpt lat="43.6252" lon="1.21152">
        <ele>224.2</ele>
        <time>2022-10-26T14:56:48Z</time>
      </trkpt>
      <trkpt lat="43.62515" lon="1.21146">
        <ele>223.8</ele>
        <time>2022-10-26T14:56:49Z</time>
      </trkpt>
      <trkpt lat="43.62508" lon="1.21141">
        <ele>223.4</ele>
        <time>2022-10-26T14:56:50Z</time>
      </trkpt>
      <trkpt lat="43.62502" lon="1.21136">
        <ele>223.2</ele>
        <time>2022-10-26T14:56:51Z</time>
      </trkpt>
      <trkpt lat="43.62496" lon="1.21132">
        <ele>223</ele>
        <time>2022-10-26T14:56:52Z</time>
      </trkpt>
      <trkpt lat="43.62492" lon="1.21128">
        <ele>223</ele>
        <time>2022-10-26T14:56:53Z</time>
      </trkpt>
      <trkpt lat="43.62487" lon="1.21123">
        <ele>222.8</ele>
        <time>2022-10-26T14:56:54Z</time>
      </trkpt>
      <trkpt lat="43.62483" lon="1.2112">
        <ele>222.6</ele>
        <time>2022-10-26T14:56:55Z</time>
      </trkpt>
      <trkpt lat="43.62477" lon="1.21115">
        <ele>222.6</ele>
        <time>2022-10-26T14:56:56Z</time>
      </trkpt>
      <trkpt lat="43.62472" lon="1.2111">
        <ele>222.8</ele>
        <time>2022-10-26T14:56:57Z</time>
      </trkpt>
      <trkpt lat="43.62466" lon="1.21106">
        <ele>222.8</ele>
        <time>2022-10-26T14:56:58Z</time>
      </trkpt>
      <trkpt lat="43.62462" lon="1.21103">
        <ele>222.8</ele>
        <time>2022-10-26T14:56:59Z</time>
      </trkpt>
      <trkpt lat="43.62456" lon="1.21098">
        <ele>222.8</ele>
        <time>2022-10-26T14:57:00Z</time>
      </trkpt>
      <trkpt lat="43.62451" lon="1.21094">
        <ele>223</ele>
        <time>2022-10-26T14:57:01Z</time>
      </trkpt>
      <trkpt lat="43.62447" lon="1.2109">
        <ele>223</ele>
        <time>2022-10-26T14:57:02Z</time>
      </trkpt>
      <trkpt lat="43.62442" lon="1.21086">
        <ele>223.2</ele>
        <time>2022-10-26T14:57:03Z</time>
      </trkpt>
      <trkpt lat="43.62437" lon="1.21082">
        <ele>223.4</ele>
        <time>2022-10-26T14:57:04Z</time>
      </trkpt>
      <trkpt lat="43.62432" lon="1.21078">
        <ele>223.4</ele>
        <time>2022-10-26T14:57:05Z</time>
      </trkpt>
      <trkpt lat="43.62425" lon="1.21074">
        <ele>223.6</ele>
        <time>2022-10-26T14:57:06Z</time>
      </trkpt>
      <trkpt lat="43.62419" lon="1.2107">
        <ele>224</ele>
        <time>2022-10-26T14:57:07Z</time>
      </trkpt>
      <trkpt lat="43.62413" lon="1.21066">
        <ele>224</ele>
        <time>2022-10-26T14:57:08Z</time>
      </trkpt>
      <trkpt lat="43.62408" lon="1.21061">
        <ele>224.4</ele>
        <time>2022-10-26T14:57:09Z</time>
      </trkpt>
      <trkpt lat="43.62402" lon="1.21056">
        <ele>224.4</ele>
        <time>2022-10-26T14:57:10Z</time>
      </trkpt>
      <trkpt lat="43.62396" lon="1.21052">
        <ele>224.4</ele>
        <time>2022-10-26T14:57:11Z</time>
      </trkpt>
      <trkpt lat="43.6239" lon="1.21047">
        <ele>224.4</ele>
        <time>2022-10-26T14:57:12Z</time>
      </trkpt>
      <trkpt lat="43.62386" lon="1.21043">
        <ele>224.4</ele>
        <time>2022-10-26T14:57:13Z</time>
      </trkpt>
      <trkpt lat="43.62382" lon="1.21038">
        <ele>224.6</ele>
        <time>2022-10-26T14:57:14Z</time>
      </trkpt>
      <trkpt lat="43.62377" lon="1.21033">
        <ele>224.6</ele>
        <time>2022-10-26T14:57:15Z</time>
      </trkpt>
      <trkpt lat="43.6237" lon="1.21029">
        <ele>224.6</ele>
        <time>2022-10-26T14:57:16Z</time>
      </trkpt>
      <trkpt lat="43.62365" lon="1.21025">
        <ele>224.6</ele>
        <time>2022-10-26T14:57:17Z</time>
      </trkpt>
      <trkpt lat="43.62361" lon="1.21021">
        <ele>224.8</ele>
        <time>2022-10-26T14:57:18Z</time>
      </trkpt>
      <trkpt lat="43.62358" lon="1.21019">
        <ele>224.8</ele>
        <time>2022-10-26T14:57:19Z</time>
      </trkpt>
      <trkpt lat="43.62352" lon="1.21015">
        <ele>225</ele>
        <time>2022-10-26T14:57:20Z</time>
      </trkpt>
      <trkpt lat="43.62345" lon="1.21009">
        <ele>225</ele>
        <time>2022-10-26T14:57:21Z</time>
      </trkpt>
      <trkpt lat="43.6234" lon="1.21004">
        <ele>225</ele>
        <time>2022-10-26T14:57:22Z</time>
      </trkpt>
      <trkpt lat="43.62335" lon="1.20999">
        <ele>225</ele>
        <time>2022-10-26T14:57:23Z</time>
      </trkpt>
      <trkpt lat="43.62331" lon="1.20995">
        <ele>225</ele>
        <time>2022-10-26T14:57:24Z</time>
      </trkpt>
      <trkpt lat="43.62324" lon="1.20991">
        <ele>225</ele>
        <time>2022-10-26T14:57:25Z</time>
      </trkpt>
      <trkpt lat="43.62318" lon="1.20987">
        <ele>225</ele>
        <time>2022-10-26T14:57:26Z</time>
      </trkpt>
      <trkpt lat="43.62312" lon="1.20982">
        <ele>225</ele>
        <time>2022-10-26T14:57:27Z</time>
      </trkpt>
      <trkpt lat="43.62308" lon="1.20976">
        <ele>225.2</ele>
        <time>2022-10-26T14:57:28Z</time>
      </trkpt>
      <trkpt lat="43.62304" lon="1.20972">
        <ele>225.2</ele>
        <time>2022-10-26T14:57:29Z</time>
      </trkpt>
      <trkpt lat="43.62298" lon="1.20966">
        <ele>225.2</ele>
        <time>2022-10-26T14:57:30Z</time>
      </trkpt>
      <trkpt lat="43.62293" lon="1.20962">
        <ele>225.2</ele>
        <time>2022-10-26T14:57:31Z</time>
      </trkpt>
      <trkpt lat="43.62287" lon="1.20958">
        <ele>225.2</ele>
        <time>2022-10-26T14:57:32Z</time>
      </trkpt>
      <trkpt lat="43.62281" lon="1.20955">
        <ele>225.2</ele>
        <time>2022-10-26T14:57:33Z</time>
      </trkpt>
      <trkpt lat="43.62277" lon="1.20952">
        <ele>225.2</ele>
        <time>2022-10-26T14:57:34Z</time>
      </trkpt>
      <trkpt lat="43.62271" lon="1.20947">
        <ele>225.4</ele>
        <time>2022-10-26T14:57:35Z</time>
      </trkpt>
      <trkpt lat="43.62267" lon="1.20942">
        <ele>225.4</ele>
        <time>2022-10-26T14:57:36Z</time>
      </trkpt>
      <trkpt lat="43.62263" lon="1.20937">
        <ele>225.4</ele>
        <time>2022-10-26T14:57:37Z</time>
      </trkpt>
      <trkpt lat="43.62259" lon="1.20932">
        <ele>225.4</ele>
        <time>2022-10-26T14:57:38Z</time>
      </trkpt>
      <trkpt lat="43.62256" lon="1.20928">
        <ele>225.4</ele>
        <time>2022-10-26T14:57:39Z</time>
      </trkpt>
      <trkpt lat="43.62252" lon="1.20923">
        <ele>225.4</ele>
        <time>2022-10-26T14:57:40Z</time>
      </trkpt>
      <trkpt lat="43.62247" lon="1.20919">
        <ele>225.4</ele>
        <time>2022-10-26T14:57:41Z</time>
      </trkpt>
      <trkpt lat="43.62241" lon="1.20916">
        <ele>225.4</ele>
        <time>2022-10-26T14:57:42Z</time>
      </trkpt>
      <trkpt lat="43.62236" lon="1.20911">
        <ele>225.4</ele>
        <time>2022-10-26T14:57:43Z</time>
      </trkpt>
      <trkpt lat="43.62231" lon="1.20907">
        <ele>225.6</ele>
        <time>2022-10-26T14:57:44Z</time>
      </trkpt>
      <trkpt lat="43.62225" lon="1.20901">
        <ele>225.6</ele>
        <time>2022-10-26T14:57:45Z</time>
      </trkpt>
      <trkpt lat="43.6222" lon="1.20896">
        <ele>225.6</ele>
        <time>2022-10-26T14:57:46Z</time>
      </trkpt>
      <trkpt lat="43.62215" lon="1.20892">
        <ele>225.6</ele>
        <time>2022-10-26T14:57:47Z</time>
      </trkpt>
      <trkpt lat="43.6221" lon="1.20887">
        <ele>225.6</ele>
        <time>2022-10-26T14:57:48Z</time>
      </trkpt>
      <trkpt lat="43.62205" lon="1.20883">
        <ele>225.6</ele>
        <time>2022-10-26T14:57:49Z</time>
      </trkpt>
      <trkpt lat="43.62199" lon="1.20879">
        <ele>225.6</ele>
        <time>2022-10-26T14:57:50Z</time>
      </trkpt>
      <trkpt lat="43.62195" lon="1.20876">
        <ele>225.6</ele>
        <time>2022-10-26T14:57:51Z</time>
      </trkpt>
      <trkpt lat="43.6219" lon="1.20873">
        <ele>225.6</ele>
        <time>2022-10-26T14:57:52Z</time>
      </trkpt>
      <trkpt lat="43.62185" lon="1.20869">
        <ele>225.6</ele>
        <time>2022-10-26T14:57:53Z</time>
      </trkpt>
      <trkpt lat="43.62181" lon="1.20866">
        <ele>225.6</ele>
        <time>2022-10-26T14:57:54Z</time>
      </trkpt>
      <trkpt lat="43.62174" lon="1.20862">
        <ele>225.6</ele>
        <time>2022-10-26T14:57:55Z</time>
      </trkpt>
      <trkpt lat="43.62168" lon="1.20857">
        <ele>225.6</ele>
        <time>2022-10-26T14:57:56Z</time>
      </trkpt>
      <trkpt lat="43.62164" lon="1.20853">
        <ele>225.6</ele>
        <time>2022-10-26T14:57:57Z</time>
      </trkpt>
      <trkpt lat="43.6216" lon="1.2085">
        <ele>225.4</ele>
        <time>2022-10-26T14:57:58Z</time>
      </trkpt>
      <trkpt lat="43.62154" lon="1.20846">
        <ele>225.4</ele>
        <time>2022-10-26T14:57:59Z</time>
      </trkpt>
      <trkpt lat="43.62149" lon="1.20841">
        <ele>225.4</ele>
        <time>2022-10-26T14:58:00Z</time>
      </trkpt>
      <trkpt lat="43.62142" lon="1.20835">
        <ele>225.4</ele>
        <time>2022-10-26T14:58:01Z</time>
      </trkpt>
      <trkpt lat="43.62136" lon="1.20831">
        <ele>225.4</ele>
        <time>2022-10-26T14:58:02Z</time>
      </trkpt>
      <trkpt lat="43.62131" lon="1.20827">
        <ele>225.2</ele>
        <time>2022-10-26T14:58:03Z</time>
      </trkpt>
      <trkpt lat="43.62125" lon="1.2082">
        <ele>225.2</ele>
        <time>2022-10-26T14:58:04Z</time>
      </trkpt>
      <trkpt lat="43.6212" lon="1.20815">
        <ele>225.2</ele>
        <time>2022-10-26T14:58:05Z</time>
      </trkpt>
      <trkpt lat="43.62115" lon="1.20811">
        <ele>225.2</ele>
        <time>2022-10-26T14:58:06Z</time>
      </trkpt>
      <trkpt lat="43.6211" lon="1.20808">
        <ele>225.2</ele>
        <time>2022-10-26T14:58:07Z</time>
      </trkpt>
      <trkpt lat="43.62105" lon="1.20806">
        <ele>225.2</ele>
        <time>2022-10-26T14:58:08Z</time>
      </trkpt>
      <trkpt lat="43.621" lon="1.20801">
        <ele>225.2</ele>
        <time>2022-10-26T14:58:09Z</time>
      </trkpt>
      <trkpt lat="43.62097" lon="1.20797">
        <ele>225.2</ele>
        <time>2022-10-26T14:58:10Z</time>
      </trkpt>
      <trkpt lat="43.62092" lon="1.20794">
        <ele>225.2</ele>
        <time>2022-10-26T14:58:11Z</time>
      </trkpt>
      <trkpt lat="43.62086" lon="1.20789">
        <ele>225.2</ele>
        <time>2022-10-26T14:58:12Z</time>
      </trkpt>
      <trkpt lat="43.62079" lon="1.20783">
        <ele>225.2</ele>
        <time>2022-10-26T14:58:13Z</time>
      </trkpt>
      <trkpt lat="43.62075" lon="1.20779">
        <ele>225.2</ele>
        <time>2022-10-26T14:58:14Z</time>
      </trkpt>
      <trkpt lat="43.62069" lon="1.20773">
        <ele>225.2</ele>
        <time>2022-10-26T14:58:15Z</time>
      </trkpt>
      <trkpt lat="43.62065" lon="1.20769">
        <ele>225</ele>
        <time>2022-10-26T14:58:16Z</time>
      </trkpt>
      <trkpt lat="43.62059" lon="1.20764">
        <ele>224.6</ele>
        <time>2022-10-26T14:58:17Z</time>
      </trkpt>
      <trkpt lat="43.62054" lon="1.20759">
        <ele>224.6</ele>
        <time>2022-10-26T14:58:18Z</time>
      </trkpt>
      <trkpt lat="43.62049" lon="1.20754">
        <ele>224.2</ele>
        <time>2022-10-26T14:58:19Z</time>
      </trkpt>
      <trkpt lat="43.62042" lon="1.20749">
        <ele>224</ele>
        <time>2022-10-26T14:58:20Z</time>
      </trkpt>
      <trkpt lat="43.62037" lon="1.20744">
        <ele>223.8</ele>
        <time>2022-10-26T14:58:21Z</time>
      </trkpt>
      <trkpt lat="43.6203" lon="1.20739">
        <ele>223.6</ele>
        <time>2022-10-26T14:58:22Z</time>
      </trkpt>
      <trkpt lat="43.62026" lon="1.20735">
        <ele>222.8</ele>
        <time>2022-10-26T14:58:23Z</time>
      </trkpt>
      <trkpt lat="43.6202" lon="1.2073">
        <ele>222.2</ele>
        <time>2022-10-26T14:58:24Z</time>
      </trkpt>
      <trkpt lat="43.62013" lon="1.20725">
        <ele>221.2</ele>
        <time>2022-10-26T14:58:25Z</time>
      </trkpt>
      <trkpt lat="43.62008" lon="1.20721">
        <ele>219.8</ele>
        <time>2022-10-26T14:58:26Z</time>
      </trkpt>
      <trkpt lat="43.62003" lon="1.20715">
        <ele>219.4</ele>
        <time>2022-10-26T14:58:27Z</time>
      </trkpt>
      <trkpt lat="43.61997" lon="1.2071">
        <ele>218.4</ele>
        <time>2022-10-26T14:58:28Z</time>
      </trkpt>
      <trkpt lat="43.61991" lon="1.20706">
        <ele>217.4</ele>
        <time>2022-10-26T14:58:29Z</time>
      </trkpt>
      <trkpt lat="43.61984" lon="1.207">
        <ele>216.8</ele>
        <time>2022-10-26T14:58:30Z</time>
      </trkpt>
      <trkpt lat="43.61976" lon="1.20693">
        <ele>216.2</ele>
        <time>2022-10-26T14:58:31Z</time>
      </trkpt>
      <trkpt lat="43.61967" lon="1.20685">
        <ele>215.8</ele>
        <time>2022-10-26T14:58:32Z</time>
      </trkpt>
      <trkpt lat="43.61959" lon="1.20678">
        <ele>214.6</ele>
        <time>2022-10-26T14:58:33Z</time>
      </trkpt>
      <trkpt lat="43.61952" lon="1.20671">
        <ele>214</ele>
        <time>2022-10-26T14:58:34Z</time>
      </trkpt>
      <trkpt lat="43.61945" lon="1.20665">
        <ele>212.8</ele>
        <time>2022-10-26T14:58:35Z</time>
      </trkpt>
      <trkpt lat="43.61937" lon="1.2066">
        <ele>211.8</ele>
        <time>2022-10-26T14:58:36Z</time>
      </trkpt>
      <trkpt lat="43.61931" lon="1.20655">
        <ele>211.2</ele>
        <time>2022-10-26T14:58:37Z</time>
      </trkpt>
      <trkpt lat="43.61924" lon="1.20649">
        <ele>210</ele>
        <time>2022-10-26T14:58:38Z</time>
      </trkpt>
      <trkpt lat="43.61919" lon="1.20645">
        <ele>209.6</ele>
        <time>2022-10-26T14:58:39Z</time>
      </trkpt>
      <trkpt lat="43.61913" lon="1.2064">
        <ele>209.2</ele>
        <time>2022-10-26T14:58:40Z</time>
      </trkpt>
      <trkpt lat="43.61909" lon="1.20639">
        <ele>209</ele>
        <time>2022-10-26T14:58:41Z</time>
      </trkpt>
      <trkpt lat="43.61906" lon="1.20639">
        <ele>208.6</ele>
        <time>2022-10-26T14:58:42Z</time>
      </trkpt>
      <trkpt lat="43.61904" lon="1.20643">
        <ele>208.4</ele>
        <time>2022-10-26T14:58:43Z</time>
      </trkpt>
      <trkpt lat="43.61902" lon="1.20648">
        <ele>208.2</ele>
        <time>2022-10-26T14:58:44Z</time>
      </trkpt>
      <trkpt lat="43.61901" lon="1.20654">
        <ele>208</ele>
        <time>2022-10-26T14:58:45Z</time>
      </trkpt>
      <trkpt lat="43.61899" lon="1.2066">
        <ele>208</ele>
        <time>2022-10-26T14:58:46Z</time>
      </trkpt>
      <trkpt lat="43.61896" lon="1.20666">
        <ele>207.4</ele>
        <time>2022-10-26T14:58:47Z</time>
      </trkpt>
      <trkpt lat="43.61894" lon="1.20671">
        <ele>207.2</ele>
        <time>2022-10-26T14:58:48Z</time>
      </trkpt>
      <trkpt lat="43.61891" lon="1.20678">
        <ele>206.8</ele>
        <time>2022-10-26T14:58:49Z</time>
      </trkpt>
      <trkpt lat="43.61889" lon="1.20684">
        <ele>206.6</ele>
        <time>2022-10-26T14:58:50Z</time>
      </trkpt>
      <trkpt lat="43.61887" lon="1.20689">
        <ele>206.6</ele>
        <time>2022-10-26T14:58:51Z</time>
      </trkpt>
      <trkpt lat="43.61885" lon="1.20696">
        <ele>206.4</ele>
        <time>2022-10-26T14:58:52Z</time>
      </trkpt>
      <trkpt lat="43.61882" lon="1.20703">
        <ele>206.4</ele>
        <time>2022-10-26T14:58:53Z</time>
      </trkpt>
      <trkpt lat="43.61878" lon="1.20711">
        <ele>206.4</ele>
        <time>2022-10-26T14:58:54Z</time>
      </trkpt>
      <trkpt lat="43.61874" lon="1.20718">
        <ele>206.4</ele>
        <time>2022-10-26T14:58:55Z</time>
      </trkpt>
      <trkpt lat="43.61872" lon="1.20723">
        <ele>206.2</ele>
        <time>2022-10-26T14:58:56Z</time>
      </trkpt>
      <trkpt lat="43.61868" lon="1.2073">
        <ele>205.8</ele>
        <time>2022-10-26T14:58:57Z</time>
      </trkpt>
      <trkpt lat="43.61864" lon="1.20735">
        <ele>205.6</ele>
        <time>2022-10-26T14:58:58Z</time>
      </trkpt>
      <trkpt lat="43.6186" lon="1.20737">
        <ele>205.2</ele>
        <time>2022-10-26T14:58:59Z</time>
      </trkpt>
      <trkpt lat="43.61857" lon="1.20736">
        <ele>205</ele>
        <time>2022-10-26T14:59:00Z</time>
      </trkpt>
      <trkpt lat="43.61854" lon="1.20733">
        <ele>204.8</ele>
        <time>2022-10-26T14:59:01Z</time>
      </trkpt>
      <trkpt lat="43.6185" lon="1.20731">
        <ele>204.8</ele>
        <time>2022-10-26T14:59:02Z</time>
      </trkpt>
      <trkpt lat="43.61847" lon="1.20729">
        <ele>204.8</ele>
        <time>2022-10-26T14:59:03Z</time>
      </trkpt>
      <trkpt lat="43.61843" lon="1.20726">
        <ele>204.8</ele>
        <time>2022-10-26T14:59:04Z</time>
      </trkpt>
      <trkpt lat="43.6184" lon="1.20723">
        <ele>204.8</ele>
        <time>2022-10-26T14:59:05Z</time>
      </trkpt>
      <trkpt lat="43.61837" lon="1.20721">
        <ele>204.8</ele>
        <time>2022-10-26T14:59:06Z</time>
      </trkpt>
      <trkpt lat="43.61834" lon="1.20718">
        <ele>204.8</ele>
        <time>2022-10-26T14:59:07Z</time>
      </trkpt>
      <trkpt lat="43.61831" lon="1.20716">
        <ele>204.8</ele>
        <time>2022-10-26T14:59:08Z</time>
      </trkpt>
      <trkpt lat="43.61828" lon="1.20714">
        <ele>205</ele>
        <time>2022-10-26T14:59:09Z</time>
      </trkpt>
      <trkpt lat="43.61826" lon="1.20711">
        <ele>205.4</ele>
        <time>2022-10-26T14:59:10Z</time>
      </trkpt>
      <trkpt lat="43.61823" lon="1.2071">
        <ele>205.6</ele>
        <time>2022-10-26T14:59:11Z</time>
      </trkpt>
      <trkpt lat="43.61819" lon="1.20708">
        <ele>205.6</ele>
        <time>2022-10-26T14:59:12Z</time>
      </trkpt>
      <trkpt lat="43.61816" lon="1.20705">
        <ele>205.8</ele>
        <time>2022-10-26T14:59:13Z</time>
      </trkpt>
      <trkpt lat="43.61813" lon="1.20703">
        <ele>205.8</ele>
        <time>2022-10-26T14:59:14Z</time>
      </trkpt>
      <trkpt lat="43.61811" lon="1.20702">
        <ele>206</ele>
        <time>2022-10-26T14:59:15Z</time>
      </trkpt>
      <trkpt lat="43.61808" lon="1.20699">
        <ele>206.2</ele>
        <time>2022-10-26T14:59:16Z</time>
      </trkpt>
      <trkpt lat="43.61804" lon="1.20697">
        <ele>206.4</ele>
        <time>2022-10-26T14:59:17Z</time>
      </trkpt>
      <trkpt lat="43.61801" lon="1.20695">
        <ele>206.6</ele>
        <time>2022-10-26T14:59:18Z</time>
      </trkpt>
      <trkpt lat="43.61798" lon="1.20692">
        <ele>206.8</ele>
        <time>2022-10-26T14:59:19Z</time>
      </trkpt>
      <trkpt lat="43.61796" lon="1.20691">
        <ele>207</ele>
        <time>2022-10-26T14:59:20Z</time>
      </trkpt>
      <trkpt lat="43.61794" lon="1.20689">
        <ele>207.2</ele>
        <time>2022-10-26T14:59:21Z</time>
      </trkpt>
      <trkpt lat="43.61792" lon="1.20687">
        <ele>207.4</ele>
        <time>2022-10-26T14:59:22Z</time>
      </trkpt>
      <trkpt lat="43.6179" lon="1.20686">
        <ele>207.6</ele>
        <time>2022-10-26T14:59:23Z</time>
      </trkpt>
      <trkpt lat="43.61788" lon="1.20684">
        <ele>208</ele>
        <time>2022-10-26T14:59:24Z</time>
      </trkpt>
      <trkpt lat="43.61786" lon="1.20682">
        <ele>208.4</ele>
        <time>2022-10-26T14:59:25Z</time>
      </trkpt>
      <trkpt lat="43.61784" lon="1.20681">
        <ele>208.6</ele>
        <time>2022-10-26T14:59:26Z</time>
      </trkpt>
      <trkpt lat="43.61782" lon="1.20679">
        <ele>208.8</ele>
        <time>2022-10-26T14:59:27Z</time>
      </trkpt>
      <trkpt lat="43.61781" lon="1.20678">
        <ele>208.8</ele>
        <time>2022-10-26T14:59:28Z</time>
      </trkpt>
      <trkpt lat="43.61779" lon="1.20677">
        <ele>209</ele>
        <time>2022-10-26T14:59:29Z</time>
      </trkpt>
      <trkpt lat="43.61777" lon="1.20676">
        <ele>209.2</ele>
        <time>2022-10-26T14:59:30Z</time>
      </trkpt>
      <trkpt lat="43.61775" lon="1.20675">
        <ele>209.6</ele>
        <time>2022-10-26T14:59:31Z</time>
      </trkpt>
      <trkpt lat="43.61773" lon="1.20674">
        <ele>209.8</ele>
        <time>2022-10-26T14:59:32Z</time>
      </trkpt>
      <trkpt lat="43.61772" lon="1.20673">
        <ele>210</ele>
        <time>2022-10-26T14:59:33Z</time>
      </trkpt>
      <trkpt lat="43.6177" lon="1.20671">
        <ele>210</ele>
        <time>2022-10-26T14:59:34Z</time>
      </trkpt>
      <trkpt lat="43.61768" lon="1.2067">
        <ele>210.2</ele>
        <time>2022-10-26T14:59:35Z</time>
      </trkpt>
      <trkpt lat="43.61766" lon="1.20668">
        <ele>210.4</ele>
        <time>2022-10-26T14:59:36Z</time>
      </trkpt>
      <trkpt lat="43.61765" lon="1.20667">
        <ele>210.6</ele>
        <time>2022-10-26T14:59:37Z</time>
      </trkpt>
      <trkpt lat="43.61763" lon="1.20666">
        <ele>210.6</ele>
        <time>2022-10-26T14:59:38Z</time>
      </trkpt>
      <trkpt lat="43.6176" lon="1.20664">
        <ele>210.8</ele>
        <time>2022-10-26T14:59:39Z</time>
      </trkpt>
      <trkpt lat="43.61759" lon="1.20663">
        <ele>211</ele>
        <time>2022-10-26T14:59:40Z</time>
      </trkpt>
      <trkpt lat="43.61756" lon="1.20661">
        <ele>211.2</ele>
        <time>2022-10-26T14:59:41Z</time>
      </trkpt>
      <trkpt lat="43.61754" lon="1.2066">
        <ele>211.4</ele>
        <time>2022-10-26T14:59:42Z</time>
      </trkpt>
      <trkpt lat="43.61752" lon="1.20658">
        <ele>211.8</ele>
        <time>2022-10-26T14:59:43Z</time>
      </trkpt>
      <trkpt lat="43.6175" lon="1.20657">
        <ele>212</ele>
        <time>2022-10-26T14:59:44Z</time>
      </trkpt>
      <trkpt lat="43.61748" lon="1.20656">
        <ele>212.2</ele>
        <time>2022-10-26T14:59:45Z</time>
      </trkpt>
      <trkpt lat="43.61745" lon="1.20654">
        <ele>212.6</ele>
        <time>2022-10-26T14:59:46Z</time>
      </trkpt>
      <trkpt lat="43.61744" lon="1.20653">
        <ele>212.8</ele>
        <time>2022-10-26T14:59:47Z</time>
      </trkpt>
      <trkpt lat="43.61742" lon="1.20651">
        <ele>212.8</ele>
        <time>2022-10-26T14:59:48Z</time>
      </trkpt>
      <trkpt lat="43.6174" lon="1.20649">
        <ele>213</ele>
        <time>2022-10-26T14:59:49Z</time>
      </trkpt>
      <trkpt lat="43.61739" lon="1.20648">
        <ele>213.6</ele>
        <time>2022-10-26T14:59:50Z</time>
      </trkpt>
      <trkpt lat="43.61737" lon="1.20647">
        <ele>214</ele>
        <time>2022-10-26T14:59:51Z</time>
      </trkpt>
      <trkpt lat="43.61736" lon="1.20645">
        <ele>214.2</ele>
        <time>2022-10-26T14:59:52Z</time>
      </trkpt>
      <trkpt lat="43.61735" lon="1.20643">
        <ele>214.6</ele>
        <time>2022-10-26T14:59:53Z</time>
      </trkpt>
      <trkpt lat="43.61733" lon="1.20641">
        <ele>214.6</ele>
        <time>2022-10-26T14:59:54Z</time>
      </trkpt>
      <trkpt lat="43.61731" lon="1.2064">
        <ele>214.8</ele>
        <time>2022-10-26T14:59:55Z</time>
      </trkpt>
      <trkpt lat="43.61729" lon="1.20638">
        <ele>215</ele>
        <time>2022-10-26T14:59:56Z</time>
      </trkpt>
      <trkpt lat="43.61729" lon="1.20636">
        <ele>215.2</ele>
        <time>2022-10-26T14:59:57Z</time>
      </trkpt>
      <trkpt lat="43.61728" lon="1.20634">
        <ele>215.6</ele>
        <time>2022-10-26T14:59:58Z</time>
      </trkpt>
      <trkpt lat="43.61726" lon="1.20633">
        <ele>215.8</ele>
        <time>2022-10-26T14:59:59Z</time>
      </trkpt>
      <trkpt lat="43.61724" lon="1.20631">
        <ele>216.4</ele>
        <time>2022-10-26T15:00:00Z</time>
      </trkpt>
      <trkpt lat="43.61723" lon="1.20631">
        <ele>216.6</ele>
        <time>2022-10-26T15:00:01Z</time>
      </trkpt>
      <trkpt lat="43.61721" lon="1.2063">
        <ele>216.8</ele>
        <time>2022-10-26T15:00:02Z</time>
      </trkpt>
      <trkpt lat="43.61719" lon="1.20629">
        <ele>217</ele>
        <time>2022-10-26T15:00:03Z</time>
      </trkpt>
      <trkpt lat="43.61718" lon="1.20628">
        <ele>217.2</ele>
        <time>2022-10-26T15:00:04Z</time>
      </trkpt>
      <trkpt lat="43.61717" lon="1.20627">
        <ele>217.6</ele>
        <time>2022-10-26T15:00:05Z</time>
      </trkpt>
      <trkpt lat="43.61716" lon="1.20625">
        <ele>217.8</ele>
        <time>2022-10-26T15:00:06Z</time>
      </trkpt>
      <trkpt lat="43.61714" lon="1.20624">
        <ele>218.2</ele>
        <time>2022-10-26T15:00:07Z</time>
      </trkpt>
      <trkpt lat="43.61712" lon="1.20622">
        <ele>218.4</ele>
        <time>2022-10-26T15:00:08Z</time>
      </trkpt>
      <trkpt lat="43.6171" lon="1.20621">
        <ele>218.8</ele>
        <time>2022-10-26T15:00:09Z</time>
      </trkpt>
      <trkpt lat="43.61709" lon="1.2062">
        <ele>219</ele>
        <time>2022-10-26T15:00:10Z</time>
      </trkpt>
      <trkpt lat="43.61707" lon="1.20619">
        <ele>219.4</ele>
        <time>2022-10-26T15:00:11Z</time>
      </trkpt>
      <trkpt lat="43.61705" lon="1.20618">
        <ele>219.8</ele>
        <time>2022-10-26T15:00:12Z</time>
      </trkpt>
      <trkpt lat="43.61705" lon="1.20617">
        <ele>219.8</ele>
        <time>2022-10-26T15:00:13Z</time>
      </trkpt>
      <trkpt lat="43.61703" lon="1.20616">
        <ele>220.2</ele>
        <time>2022-10-26T15:00:14Z</time>
      </trkpt>
      <trkpt lat="43.61702" lon="1.20614">
        <ele>220.2</ele>
        <time>2022-10-26T15:00:15Z</time>
      </trkpt>
      <trkpt lat="43.617" lon="1.20611">
        <ele>220.6</ele>
        <time>2022-10-26T15:00:16Z</time>
      </trkpt>
      <trkpt lat="43.61699" lon="1.20609">
        <ele>221</ele>
        <time>2022-10-26T15:00:17Z</time>
      </trkpt>
      <trkpt lat="43.61698" lon="1.20607">
        <ele>221.2</ele>
        <time>2022-10-26T15:00:18Z</time>
      </trkpt>
      <trkpt lat="43.61695" lon="1.20606">
        <ele>221.8</ele>
        <time>2022-10-26T15:00:19Z</time>
      </trkpt>
      <trkpt lat="43.61694" lon="1.20606">
        <ele>222</ele>
        <time>2022-10-26T15:00:20Z</time>
      </trkpt>
      <trkpt lat="43.61692" lon="1.20605">
        <ele>222.4</ele>
        <time>2022-10-26T15:00:21Z</time>
      </trkpt>
      <trkpt lat="43.61689" lon="1.20604">
        <ele>222.4</ele>
        <time>2022-10-26T15:00:22Z</time>
      </trkpt>
      <trkpt lat="43.61686" lon="1.20603">
        <ele>222.6</ele>
        <time>2022-10-26T15:00:23Z</time>
      </trkpt>
      <trkpt lat="43.61684" lon="1.20601">
        <ele>222.8</ele>
        <time>2022-10-26T15:00:24Z</time>
      </trkpt>
      <trkpt lat="43.61681" lon="1.20599">
        <ele>223</ele>
        <time>2022-10-26T15:00:25Z</time>
      </trkpt>
      <trkpt lat="43.61678" lon="1.20597">
        <ele>223.2</ele>
        <time>2022-10-26T15:00:26Z</time>
      </trkpt>
      <trkpt lat="43.61675" lon="1.20595">
        <ele>223.2</ele>
        <time>2022-10-26T15:00:27Z</time>
      </trkpt>
      <trkpt lat="43.61672" lon="1.20593">
        <ele>223.4</ele>
        <time>2022-10-26T15:00:28Z</time>
      </trkpt>
      <trkpt lat="43.61669" lon="1.20589">
        <ele>223.4</ele>
        <time>2022-10-26T15:00:29Z</time>
      </trkpt>
      <trkpt lat="43.61667" lon="1.20586">
        <ele>223.6</ele>
        <time>2022-10-26T15:00:30Z</time>
      </trkpt>
      <trkpt lat="43.61665" lon="1.20583">
        <ele>223.8</ele>
        <time>2022-10-26T15:00:31Z</time>
      </trkpt>
      <trkpt lat="43.61662" lon="1.2058">
        <ele>223.8</ele>
        <time>2022-10-26T15:00:32Z</time>
      </trkpt>
      <trkpt lat="43.61659" lon="1.20578">
        <ele>224</ele>
        <time>2022-10-26T15:00:33Z</time>
      </trkpt>
      <trkpt lat="43.61655" lon="1.20576">
        <ele>224</ele>
        <time>2022-10-26T15:00:34Z</time>
      </trkpt>
      <trkpt lat="43.61651" lon="1.20574">
        <ele>224</ele>
        <time>2022-10-26T15:00:35Z</time>
      </trkpt>
      <trkpt lat="43.61647" lon="1.20571">
        <ele>224.2</ele>
        <time>2022-10-26T15:00:36Z</time>
      </trkpt>
      <trkpt lat="43.61643" lon="1.20567">
        <ele>224.2</ele>
        <time>2022-10-26T15:00:37Z</time>
      </trkpt>
      <trkpt lat="43.6164" lon="1.20563">
        <ele>224.2</ele>
        <time>2022-10-26T15:00:38Z</time>
      </trkpt>
      <trkpt lat="43.61636" lon="1.20559">
        <ele>224.4</ele>
        <time>2022-10-26T15:00:39Z</time>
      </trkpt>
      <trkpt lat="43.61632" lon="1.20554">
        <ele>224.4</ele>
        <time>2022-10-26T15:00:40Z</time>
      </trkpt>
      <trkpt lat="43.61627" lon="1.2055">
        <ele>224.2</ele>
        <time>2022-10-26T15:00:41Z</time>
      </trkpt>
      <trkpt lat="43.61622" lon="1.20548">
        <ele>224.2</ele>
        <time>2022-10-26T15:00:42Z</time>
      </trkpt>
      <trkpt lat="43.61618" lon="1.20545">
        <ele>224.2</ele>
        <time>2022-10-26T15:00:43Z</time>
      </trkpt>
      <trkpt lat="43.61612" lon="1.2054">
        <ele>224.2</ele>
        <time>2022-10-26T15:00:44Z</time>
      </trkpt>
      <trkpt lat="43.61608" lon="1.20536">
        <ele>224</ele>
        <time>2022-10-26T15:00:45Z</time>
      </trkpt>
      <trkpt lat="43.61604" lon="1.20532">
        <ele>224</ele>
        <time>2022-10-26T15:00:46Z</time>
      </trkpt>
      <trkpt lat="43.616" lon="1.20529">
        <ele>223.8</ele>
        <time>2022-10-26T15:00:47Z</time>
      </trkpt>
      <trkpt lat="43.61595" lon="1.20525">
        <ele>223.8</ele>
        <time>2022-10-26T15:00:48Z</time>
      </trkpt>
      <trkpt lat="43.61591" lon="1.2052">
        <ele>223.8</ele>
        <time>2022-10-26T15:00:49Z</time>
      </trkpt>
      <trkpt lat="43.61588" lon="1.20516">
        <ele>223.8</ele>
        <time>2022-10-26T15:00:50Z</time>
      </trkpt>
      <trkpt lat="43.61583" lon="1.20513">
        <ele>223.8</ele>
        <time>2022-10-26T15:00:51Z</time>
      </trkpt>
      <trkpt lat="43.61578" lon="1.2051">
        <ele>223.8</ele>
        <time>2022-10-26T15:00:52Z</time>
      </trkpt>
      <trkpt lat="43.61573" lon="1.20507">
        <ele>223.8</ele>
        <time>2022-10-26T15:00:53Z</time>
      </trkpt>
      <trkpt lat="43.61568" lon="1.20504">
        <ele>223.8</ele>
        <time>2022-10-26T15:00:54Z</time>
      </trkpt>
      <trkpt lat="43.61562" lon="1.205">
        <ele>223.8</ele>
        <time>2022-10-26T15:00:55Z</time>
      </trkpt>
      <trkpt lat="43.61557" lon="1.20496">
        <ele>223.8</ele>
        <time>2022-10-26T15:00:56Z</time>
      </trkpt>
      <trkpt lat="43.61551" lon="1.20492">
        <ele>223.8</ele>
        <time>2022-10-26T15:00:57Z</time>
      </trkpt>
      <trkpt lat="43.61545" lon="1.20489">
        <ele>223.8</ele>
        <time>2022-10-26T15:00:58Z</time>
      </trkpt>
      <trkpt lat="43.6154" lon="1.20485">
        <ele>223.6</ele>
        <time>2022-10-26T15:00:59Z</time>
      </trkpt>
      <trkpt lat="43.61534" lon="1.2048">
        <ele>223.6</ele>
        <time>2022-10-26T15:01:00Z</time>
      </trkpt>
      <trkpt lat="43.61528" lon="1.20474">
        <ele>223.6</ele>
        <time>2022-10-26T15:01:01Z</time>
      </trkpt>
      <trkpt lat="43.61523" lon="1.20469">
        <ele>223.4</ele>
        <time>2022-10-26T15:01:02Z</time>
      </trkpt>
      <trkpt lat="43.61516" lon="1.20463">
        <ele>222.8</ele>
        <time>2022-10-26T15:01:03Z</time>
      </trkpt>
      <trkpt lat="43.6151" lon="1.20458">
        <ele>222.8</ele>
        <time>2022-10-26T15:01:04Z</time>
      </trkpt>
      <trkpt lat="43.61503" lon="1.20453">
        <ele>222</ele>
        <time>2022-10-26T15:01:05Z</time>
      </trkpt>
      <trkpt lat="43.61496" lon="1.20448">
        <ele>220.6</ele>
        <time>2022-10-26T15:01:06Z</time>
      </trkpt>
      <trkpt lat="43.61491" lon="1.20444">
        <ele>219.8</ele>
        <time>2022-10-26T15:01:07Z</time>
      </trkpt>
      <trkpt lat="43.61486" lon="1.20439">
        <ele>218.6</ele>
        <time>2022-10-26T15:01:08Z</time>
      </trkpt>
      <trkpt lat="43.61481" lon="1.20434">
        <ele>218</ele>
        <time>2022-10-26T15:01:09Z</time>
      </trkpt>
      <trkpt lat="43.61476" lon="1.20429">
        <ele>217</ele>
        <time>2022-10-26T15:01:10Z</time>
      </trkpt>
      <trkpt lat="43.6147" lon="1.20425">
        <ele>216.6</ele>
        <time>2022-10-26T15:01:11Z</time>
      </trkpt>
      <trkpt lat="43.61464" lon="1.2042">
        <ele>216</ele>
        <time>2022-10-26T15:01:12Z</time>
      </trkpt>
      <trkpt lat="43.61458" lon="1.20414">
        <ele>215.4</ele>
        <time>2022-10-26T15:01:13Z</time>
      </trkpt>
      <trkpt lat="43.61452" lon="1.20408">
        <ele>215.2</ele>
        <time>2022-10-26T15:01:14Z</time>
      </trkpt>
      <trkpt lat="43.61445" lon="1.20403">
        <ele>213.6</ele>
        <time>2022-10-26T15:01:15Z</time>
      </trkpt>
      <trkpt lat="43.61438" lon="1.20398">
        <ele>213.2</ele>
        <time>2022-10-26T15:01:16Z</time>
      </trkpt>
      <trkpt lat="43.61433" lon="1.20393">
        <ele>212.6</ele>
        <time>2022-10-26T15:01:17Z</time>
      </trkpt>
      <trkpt lat="43.61428" lon="1.20389">
        <ele>211.4</ele>
        <time>2022-10-26T15:01:18Z</time>
      </trkpt>
      <trkpt lat="43.61424" lon="1.20385">
        <ele>210.6</ele>
        <time>2022-10-26T15:01:19Z</time>
      </trkpt>
      <trkpt lat="43.61421" lon="1.20382">
        <ele>209.8</ele>
        <time>2022-10-26T15:01:20Z</time>
      </trkpt>
      <trkpt lat="43.61418" lon="1.2038">
        <ele>209.6</ele>
        <time>2022-10-26T15:01:21Z</time>
      </trkpt>
      <trkpt lat="43.61416" lon="1.20379">
        <ele>209.4</ele>
        <time>2022-10-26T15:01:22Z</time>
      </trkpt>
      <trkpt lat="43.61414" lon="1.20377">
        <ele>208.8</ele>
        <time>2022-10-26T15:01:23Z</time>
      </trkpt>
      <trkpt lat="43.61412" lon="1.20375">
        <ele>208</ele>
        <time>2022-10-26T15:01:24Z</time>
      </trkpt>
      <trkpt lat="43.61411" lon="1.20375">
        <ele>206.8</ele>
        <time>2022-10-26T15:01:25Z</time>
      </trkpt>
      <trkpt lat="43.61411" lon="1.20375">
        <ele>205.8</ele>
        <time>2022-10-26T15:01:26Z</time>
      </trkpt>
      <trkpt lat="43.61411" lon="1.20375">
        <ele>204.4</ele>
        <time>2022-10-26T15:01:27Z</time>
      </trkpt>
      <trkpt lat="43.61406" lon="1.20376">
        <ele>201.4</ele>
        <time>2022-10-26T15:01:36Z</time>
      </trkpt>
      <trkpt lat="43.61404" lon="1.20376">
        <ele>201.4</ele>
        <time>2022-10-26T15:01:37Z</time>
      </trkpt>
      <trkpt lat="43.61402" lon="1.20376">
        <ele>201.2</ele>
        <time>2022-10-26T15:01:38Z</time>
      </trkpt>
      <trkpt lat="43.61399" lon="1.20375">
        <ele>201.2</ele>
        <time>2022-10-26T15:01:39Z</time>
      </trkpt>
      <trkpt lat="43.61397" lon="1.20372">
        <ele>201</ele>
        <time>2022-10-26T15:01:40Z</time>
      </trkpt>
      <trkpt lat="43.61394" lon="1.20369">
        <ele>200.8</ele>
        <time>2022-10-26T15:01:41Z</time>
      </trkpt>
      <trkpt lat="43.61391" lon="1.20366">
        <ele>200.8</ele>
        <time>2022-10-26T15:01:42Z</time>
      </trkpt>
      <trkpt lat="43.61387" lon="1.20363">
        <ele>200.4</ele>
        <time>2022-10-26T15:01:43Z</time>
      </trkpt>
      <trkpt lat="43.61383" lon="1.2036">
        <ele>200.2</ele>
        <time>2022-10-26T15:01:44Z</time>
      </trkpt>
      <trkpt lat="43.61378" lon="1.20357">
        <ele>200</ele>
        <time>2022-10-26T15:01:45Z</time>
      </trkpt>
      <trkpt lat="43.61372" lon="1.20353">
        <ele>199.8</ele>
        <time>2022-10-26T15:01:46Z</time>
      </trkpt>
      <trkpt lat="43.61367" lon="1.2035">
        <ele>199.6</ele>
        <time>2022-10-26T15:01:47Z</time>
      </trkpt>
      <trkpt lat="43.61362" lon="1.20348">
        <ele>199.6</ele>
        <time>2022-10-26T15:01:48Z</time>
      </trkpt>
      <trkpt lat="43.61358" lon="1.20344">
        <ele>199.6</ele>
        <time>2022-10-26T15:01:49Z</time>
      </trkpt>
      <trkpt lat="43.61354" lon="1.2034">
        <ele>199.4</ele>
        <time>2022-10-26T15:01:50Z</time>
      </trkpt>
      <trkpt lat="43.6135" lon="1.20336">
        <ele>199.4</ele>
        <time>2022-10-26T15:01:51Z</time>
      </trkpt>
      <trkpt lat="43.61345" lon="1.20333">
        <ele>199.4</ele>
        <time>2022-10-26T15:01:52Z</time>
      </trkpt>
      <trkpt lat="43.61341" lon="1.2033">
        <ele>199.4</ele>
        <time>2022-10-26T15:01:53Z</time>
      </trkpt>
      <trkpt lat="43.61337" lon="1.20327">
        <ele>199.4</ele>
        <time>2022-10-26T15:01:54Z</time>
      </trkpt>
      <trkpt lat="43.61332" lon="1.20323">
        <ele>199.4</ele>
        <time>2022-10-26T15:01:55Z</time>
      </trkpt>
      <trkpt lat="43.61326" lon="1.20318">
        <ele>199.4</ele>
        <time>2022-10-26T15:01:56Z</time>
      </trkpt>
      <trkpt lat="43.61321" lon="1.20313">
        <ele>199.4</ele>
        <time>2022-10-26T15:01:57Z</time>
      </trkpt>
      <trkpt lat="43.61316" lon="1.20309">
        <ele>199.4</ele>
        <time>2022-10-26T15:01:58Z</time>
      </trkpt>
      <trkpt lat="43.61311" lon="1.20305">
        <ele>199.6</ele>
        <time>2022-10-26T15:01:59Z</time>
      </trkpt>
      <trkpt lat="43.61305" lon="1.20301">
        <ele>199.4</ele>
        <time>2022-10-26T15:02:00Z</time>
      </trkpt>
      <trkpt lat="43.613" lon="1.20298">
        <ele>199.4</ele>
        <time>2022-10-26T15:02:01Z</time>
      </trkpt>
      <trkpt lat="43.61296" lon="1.20296">
        <ele>199.4</ele>
        <time>2022-10-26T15:02:02Z</time>
      </trkpt>
      <trkpt lat="43.61294" lon="1.20296">
        <ele>199.4</ele>
        <time>2022-10-26T15:02:03Z</time>
      </trkpt>
      <trkpt lat="43.61291" lon="1.20297">
        <ele>199.4</ele>
        <time>2022-10-26T15:02:04Z</time>
      </trkpt>
      <trkpt lat="43.61289" lon="1.203">
        <ele>199.4</ele>
        <time>2022-10-26T15:02:05Z</time>
      </trkpt>
      <trkpt lat="43.61287" lon="1.20303">
        <ele>199.2</ele>
        <time>2022-10-26T15:02:06Z</time>
      </trkpt>
      <trkpt lat="43.61284" lon="1.20306">
        <ele>199</ele>
        <time>2022-10-26T15:02:07Z</time>
      </trkpt>
      <trkpt lat="43.61281" lon="1.2031">
        <ele>199</ele>
        <time>2022-10-26T15:02:08Z</time>
      </trkpt>
      <trkpt lat="43.61279" lon="1.20314">
        <ele>199</ele>
        <time>2022-10-26T15:02:09Z</time>
      </trkpt>
      <trkpt lat="43.61276" lon="1.20319">
        <ele>199</ele>
        <time>2022-10-26T15:02:10Z</time>
      </trkpt>
      <trkpt lat="43.61274" lon="1.20324">
        <ele>199</ele>
        <time>2022-10-26T15:02:11Z</time>
      </trkpt>
      <trkpt lat="43.61273" lon="1.2033">
        <ele>199</ele>
        <time>2022-10-26T15:02:12Z</time>
      </trkpt>
      <trkpt lat="43.61269" lon="1.20334">
        <ele>199</ele>
        <time>2022-10-26T15:02:13Z</time>
      </trkpt>
      <trkpt lat="43.61265" lon="1.20339">
        <ele>198.8</ele>
        <time>2022-10-26T15:02:14Z</time>
      </trkpt>
      <trkpt lat="43.61261" lon="1.20344">
        <ele>198.8</ele>
        <time>2022-10-26T15:02:15Z</time>
      </trkpt>
      <trkpt lat="43.61256" lon="1.20349">
        <ele>198.8</ele>
        <time>2022-10-26T15:02:16Z</time>
      </trkpt>
      <trkpt lat="43.61252" lon="1.20353">
        <ele>198.8</ele>
        <time>2022-10-26T15:02:17Z</time>
      </trkpt>
      <trkpt lat="43.61247" lon="1.20358">
        <ele>198.6</ele>
        <time>2022-10-26T15:02:18Z</time>
      </trkpt>
      <trkpt lat="43.61242" lon="1.20363">
        <ele>198.6</ele>
        <time>2022-10-26T15:02:19Z</time>
      </trkpt>
      <trkpt lat="43.61238" lon="1.20369">
        <ele>198.6</ele>
        <time>2022-10-26T15:02:20Z</time>
      </trkpt>
      <trkpt lat="43.61233" lon="1.20374">
        <ele>198.6</ele>
        <time>2022-10-26T15:02:21Z</time>
      </trkpt>
      <trkpt lat="43.61228" lon="1.20379">
        <ele>198.6</ele>
        <time>2022-10-26T15:02:22Z</time>
      </trkpt>
      <trkpt lat="43.61224" lon="1.20384">
        <ele>198.6</ele>
        <time>2022-10-26T15:02:23Z</time>
      </trkpt>
      <trkpt lat="43.61218" lon="1.20389">
        <ele>198.4</ele>
        <time>2022-10-26T15:02:24Z</time>
      </trkpt>
      <trkpt lat="43.61214" lon="1.20395">
        <ele>198.4</ele>
        <time>2022-10-26T15:02:25Z</time>
      </trkpt>
      <trkpt lat="43.6121" lon="1.204">
        <ele>198.4</ele>
        <time>2022-10-26T15:02:26Z</time>
      </trkpt>
      <trkpt lat="43.61205" lon="1.20406">
        <ele>198.4</ele>
        <time>2022-10-26T15:02:27Z</time>
      </trkpt>
      <trkpt lat="43.61201" lon="1.20412">
        <ele>198.2</ele>
        <time>2022-10-26T15:02:28Z</time>
      </trkpt>
      <trkpt lat="43.61198" lon="1.20418">
        <ele>198</ele>
        <time>2022-10-26T15:02:29Z</time>
      </trkpt>
      <trkpt lat="43.61194" lon="1.20424">
        <ele>198</ele>
        <time>2022-10-26T15:02:30Z</time>
      </trkpt>
      <trkpt lat="43.6119" lon="1.2043">
        <ele>198</ele>
        <time>2022-10-26T15:02:31Z</time>
      </trkpt>
      <trkpt lat="43.61186" lon="1.20436">
        <ele>197.8</ele>
        <time>2022-10-26T15:02:32Z</time>
      </trkpt>
      <trkpt lat="43.61183" lon="1.20442">
        <ele>197.6</ele>
        <time>2022-10-26T15:02:33Z</time>
      </trkpt>
      <trkpt lat="43.6118" lon="1.20447">
        <ele>197.4</ele>
        <time>2022-10-26T15:02:34Z</time>
      </trkpt>
      <trkpt lat="43.6118" lon="1.20451">
        <ele>197.4</ele>
        <time>2022-10-26T15:02:35Z</time>
      </trkpt>
      <trkpt lat="43.61179" lon="1.20454">
        <ele>197.4</ele>
        <time>2022-10-26T15:02:36Z</time>
      </trkpt>
      <trkpt lat="43.61181" lon="1.20456">
        <ele>197.4</ele>
        <time>2022-10-26T15:02:37Z</time>
      </trkpt>
      <trkpt lat="43.61183" lon="1.20457">
        <ele>197.4</ele>
        <time>2022-10-26T15:02:38Z</time>
      </trkpt>
      <trkpt lat="43.61185" lon="1.20459">
        <ele>197.2</ele>
        <time>2022-10-26T15:02:39Z</time>
      </trkpt>
      <trkpt lat="43.61188" lon="1.2046">
        <ele>197.2</ele>
        <time>2022-10-26T15:02:40Z</time>
      </trkpt>
      <trkpt lat="43.61192" lon="1.2046">
        <ele>197.2</ele>
        <time>2022-10-26T15:02:41Z</time>
      </trkpt>
      <trkpt lat="43.61196" lon="1.20461">
        <ele>197</ele>
        <time>2022-10-26T15:02:42Z</time>
      </trkpt>
      <trkpt lat="43.612" lon="1.20463">
        <ele>196.8</ele>
        <time>2022-10-26T15:02:43Z</time>
      </trkpt>
      <trkpt lat="43.61204" lon="1.20465">
        <ele>196.8</ele>
        <time>2022-10-26T15:02:44Z</time>
      </trkpt>
      <trkpt lat="43.61208" lon="1.20468">
        <ele>196.6</ele>
        <time>2022-10-26T15:02:45Z</time>
      </trkpt>
      <trkpt lat="43.61212" lon="1.2047">
        <ele>196.6</ele>
        <time>2022-10-26T15:02:46Z</time>
      </trkpt>
      <trkpt lat="43.61217" lon="1.20473">
        <ele>196.4</ele>
        <time>2022-10-26T15:02:47Z</time>
      </trkpt>
      <trkpt lat="43.61221" lon="1.20477">
        <ele>196.4</ele>
        <time>2022-10-26T15:02:48Z</time>
      </trkpt>
      <trkpt lat="43.61226" lon="1.20481">
        <ele>196.2</ele>
        <time>2022-10-26T15:02:49Z</time>
      </trkpt>
      <trkpt lat="43.61231" lon="1.20486">
        <ele>196.2</ele>
        <time>2022-10-26T15:02:50Z</time>
      </trkpt>
      <trkpt lat="43.61235" lon="1.20491">
        <ele>196.2</ele>
        <time>2022-10-26T15:02:51Z</time>
      </trkpt>
      <trkpt lat="43.61238" lon="1.20495">
        <ele>196.2</ele>
        <time>2022-10-26T15:02:52Z</time>
      </trkpt>
      <trkpt lat="43.61242" lon="1.20499">
        <ele>196.2</ele>
        <time>2022-10-26T15:02:53Z</time>
      </trkpt>
      <trkpt lat="43.61246" lon="1.20504">
        <ele>196.2</ele>
        <time>2022-10-26T15:02:54Z</time>
      </trkpt>
      <trkpt lat="43.61248" lon="1.20509">
        <ele>196.4</ele>
        <time>2022-10-26T15:02:55Z</time>
      </trkpt>
      <trkpt lat="43.61253" lon="1.20514">
        <ele>196.4</ele>
        <time>2022-10-26T15:02:56Z</time>
      </trkpt>
      <trkpt lat="43.61258" lon="1.20518">
        <ele>196.6</ele>
        <time>2022-10-26T15:02:57Z</time>
      </trkpt>
      <trkpt lat="43.61261" lon="1.20524">
        <ele>196.8</ele>
        <time>2022-10-26T15:02:58Z</time>
      </trkpt>
      <trkpt lat="43.61265" lon="1.20529">
        <ele>196.8</ele>
        <time>2022-10-26T15:02:59Z</time>
      </trkpt>
      <trkpt lat="43.61267" lon="1.20534">
        <ele>196.8</ele>
        <time>2022-10-26T15:03:00Z</time>
      </trkpt>
      <trkpt lat="43.61271" lon="1.20539">
        <ele>196.8</ele>
        <time>2022-10-26T15:03:01Z</time>
      </trkpt>
      <trkpt lat="43.61274" lon="1.20545">
        <ele>196.8</ele>
        <time>2022-10-26T15:03:02Z</time>
      </trkpt>
      <trkpt lat="43.61278" lon="1.20551">
        <ele>196.8</ele>
        <time>2022-10-26T15:03:03Z</time>
      </trkpt>
      <trkpt lat="43.61282" lon="1.20558">
        <ele>196.8</ele>
        <time>2022-10-26T15:03:04Z</time>
      </trkpt>
      <trkpt lat="43.61287" lon="1.20565">
        <ele>196.6</ele>
        <time>2022-10-26T15:03:05Z</time>
      </trkpt>
      <trkpt lat="43.6129" lon="1.2057">
        <ele>196.6</ele>
        <time>2022-10-26T15:03:06Z</time>
      </trkpt>
      <trkpt lat="43.61294" lon="1.20575">
        <ele>196.6</ele>
        <time>2022-10-26T15:03:07Z</time>
      </trkpt>
      <trkpt lat="43.61297" lon="1.2058">
        <ele>196.6</ele>
        <time>2022-10-26T15:03:08Z</time>
      </trkpt>
      <trkpt lat="43.61301" lon="1.20585">
        <ele>196.4</ele>
        <time>2022-10-26T15:03:09Z</time>
      </trkpt>
      <trkpt lat="43.61303" lon="1.20589">
        <ele>196.4</ele>
        <time>2022-10-26T15:03:10Z</time>
      </trkpt>
      <trkpt lat="43.61305" lon="1.20593">
        <ele>196.4</ele>
        <time>2022-10-26T15:03:11Z</time>
      </trkpt>
      <trkpt lat="43.61306" lon="1.20595">
        <ele>196.2</ele>
        <time>2022-10-26T15:03:12Z</time>
      </trkpt>
      <trkpt lat="43.61308" lon="1.20596">
        <ele>196.2</ele>
        <time>2022-10-26T15:03:13Z</time>
      </trkpt>
      <trkpt lat="43.61309" lon="1.20597">
        <ele>196.2</ele>
        <time>2022-10-26T15:03:14Z</time>
      </trkpt>
      <trkpt lat="43.61309" lon="1.20598">
        <ele>196.4</ele>
        <time>2022-10-26T15:03:15Z</time>
      </trkpt>
      <trkpt lat="43.6131" lon="1.206">
        <ele>196.6</ele>
        <time>2022-10-26T15:03:16Z</time>
      </trkpt>
      <trkpt lat="43.6131" lon="1.20602">
        <ele>196.6</ele>
        <time>2022-10-26T15:03:17Z</time>
      </trkpt>
      <trkpt lat="43.61312" lon="1.20604">
        <ele>196.6</ele>
        <time>2022-10-26T15:03:18Z</time>
      </trkpt>
      <trkpt lat="43.61313" lon="1.20605">
        <ele>196.6</ele>
        <time>2022-10-26T15:03:19Z</time>
      </trkpt>
      <trkpt lat="43.61315" lon="1.20606">
        <ele>196.6</ele>
        <time>2022-10-26T15:03:20Z</time>
      </trkpt>
      <trkpt lat="43.61317" lon="1.20609">
        <ele>196.6</ele>
        <time>2022-10-26T15:03:21Z</time>
      </trkpt>
      <trkpt lat="43.6132" lon="1.20613">
        <ele>196.6</ele>
        <time>2022-10-26T15:03:22Z</time>
      </trkpt>
      <trkpt lat="43.61323" lon="1.20617">
        <ele>196.6</ele>
        <time>2022-10-26T15:03:23Z</time>
      </trkpt>
      <trkpt lat="43.61325" lon="1.20622">
        <ele>196.6</ele>
        <time>2022-10-26T15:03:24Z</time>
      </trkpt>
      <trkpt lat="43.61328" lon="1.20626">
        <ele>196.6</ele>
        <time>2022-10-26T15:03:25Z</time>
      </trkpt>
      <trkpt lat="43.61331" lon="1.20632">
        <ele>196.6</ele>
        <time>2022-10-26T15:03:26Z</time>
      </trkpt>
      <trkpt lat="43.61333" lon="1.20636">
        <ele>196.6</ele>
        <time>2022-10-26T15:03:27Z</time>
      </trkpt>
      <trkpt lat="43.61336" lon="1.20642">
        <ele>196.6</ele>
        <time>2022-10-26T15:03:28Z</time>
      </trkpt>
      <trkpt lat="43.6134" lon="1.20647">
        <ele>196.6</ele>
        <time>2022-10-26T15:03:29Z</time>
      </trkpt>
      <trkpt lat="43.61343" lon="1.20652">
        <ele>196.6</ele>
        <time>2022-10-26T15:03:30Z</time>
      </trkpt>
      <trkpt lat="43.61346" lon="1.20657">
        <ele>196.4</ele>
        <time>2022-10-26T15:03:31Z</time>
      </trkpt>
      <trkpt lat="43.61349" lon="1.20663">
        <ele>196.4</ele>
        <time>2022-10-26T15:03:32Z</time>
      </trkpt>
      <trkpt lat="43.61351" lon="1.20667">
        <ele>196.4</ele>
        <time>2022-10-26T15:03:33Z</time>
      </trkpt>
      <trkpt lat="43.61354" lon="1.20673">
        <ele>196.6</ele>
        <time>2022-10-26T15:03:34Z</time>
      </trkpt>
      <trkpt lat="43.61357" lon="1.20679">
        <ele>196.4</ele>
        <time>2022-10-26T15:03:35Z</time>
      </trkpt>
      <trkpt lat="43.6136" lon="1.20685">
        <ele>196.6</ele>
        <time>2022-10-26T15:03:36Z</time>
      </trkpt>
      <trkpt lat="43.61363" lon="1.2069">
        <ele>196.6</ele>
        <time>2022-10-26T15:03:37Z</time>
      </trkpt>
      <trkpt lat="43.61367" lon="1.20696">
        <ele>196.8</ele>
        <time>2022-10-26T15:03:38Z</time>
      </trkpt>
      <trkpt lat="43.61371" lon="1.20702">
        <ele>196.8</ele>
        <time>2022-10-26T15:03:39Z</time>
      </trkpt>
      <trkpt lat="43.61375" lon="1.20708">
        <ele>196.8</ele>
        <time>2022-10-26T15:03:40Z</time>
      </trkpt>
      <trkpt lat="43.6138" lon="1.20714">
        <ele>196.8</ele>
        <time>2022-10-26T15:03:41Z</time>
      </trkpt>
      <trkpt lat="43.61384" lon="1.2072">
        <ele>196.8</ele>
        <time>2022-10-26T15:03:42Z</time>
      </trkpt>
      <trkpt lat="43.61387" lon="1.20725">
        <ele>196.8</ele>
        <time>2022-10-26T15:03:43Z</time>
      </trkpt>
      <trkpt lat="43.61393" lon="1.20733">
        <ele>196.8</ele>
        <time>2022-10-26T15:03:44Z</time>
      </trkpt>
      <trkpt lat="43.61398" lon="1.2074">
        <ele>196.8</ele>
        <time>2022-10-26T15:03:45Z</time>
      </trkpt>
      <trkpt lat="43.61402" lon="1.20748">
        <ele>196.8</ele>
        <time>2022-10-26T15:03:46Z</time>
      </trkpt>
      <trkpt lat="43.61406" lon="1.20757">
        <ele>196.8</ele>
        <time>2022-10-26T15:03:47Z</time>
      </trkpt>
      <trkpt lat="43.6141" lon="1.20765">
        <ele>196.8</ele>
        <time>2022-10-26T15:03:48Z</time>
      </trkpt>
      <trkpt lat="43.61414" lon="1.20772">
        <ele>196.8</ele>
        <time>2022-10-26T15:03:49Z</time>
      </trkpt>
      <trkpt lat="43.61419" lon="1.20781">
        <ele>196.8</ele>
        <time>2022-10-26T15:03:50Z</time>
      </trkpt>
      <trkpt lat="43.61423" lon="1.2079">
        <ele>196.8</ele>
        <time>2022-10-26T15:03:51Z</time>
      </trkpt>
      <trkpt lat="43.61427" lon="1.20799">
        <ele>196.8</ele>
        <time>2022-10-26T15:03:52Z</time>
      </trkpt>
      <trkpt lat="43.61429" lon="1.20808">
        <ele>196.8</ele>
        <time>2022-10-26T15:03:53Z</time>
      </trkpt>
      <trkpt lat="43.61432" lon="1.20816">
        <ele>197</ele>
        <time>2022-10-26T15:03:54Z</time>
      </trkpt>
      <trkpt lat="43.61436" lon="1.20825">
        <ele>197</ele>
        <time>2022-10-26T15:03:55Z</time>
      </trkpt>
      <trkpt lat="43.61439" lon="1.20834">
        <ele>197</ele>
        <time>2022-10-26T15:03:56Z</time>
      </trkpt>
      <trkpt lat="43.61442" lon="1.20843">
        <ele>197</ele>
        <time>2022-10-26T15:03:57Z</time>
      </trkpt>
      <trkpt lat="43.61446" lon="1.20851">
        <ele>197</ele>
        <time>2022-10-26T15:03:58Z</time>
      </trkpt>
      <trkpt lat="43.61451" lon="1.2086">
        <ele>197</ele>
        <time>2022-10-26T15:03:59Z</time>
      </trkpt>
      <trkpt lat="43.61455" lon="1.20869">
        <ele>197</ele>
        <time>2022-10-26T15:04:00Z</time>
      </trkpt>
      <trkpt lat="43.6146" lon="1.20876">
        <ele>197</ele>
        <time>2022-10-26T15:04:01Z</time>
      </trkpt>
      <trkpt lat="43.61464" lon="1.20884">
        <ele>197</ele>
        <time>2022-10-26T15:04:02Z</time>
      </trkpt>
      <trkpt lat="43.61468" lon="1.20891">
        <ele>197.4</ele>
        <time>2022-10-26T15:04:03Z</time>
      </trkpt>
      <trkpt lat="43.61473" lon="1.20901">
        <ele>197.4</ele>
        <time>2022-10-26T15:04:04Z</time>
      </trkpt>
      <trkpt lat="43.61477" lon="1.20909">
        <ele>197.4</ele>
        <time>2022-10-26T15:04:05Z</time>
      </trkpt>
      <trkpt lat="43.61481" lon="1.20918">
        <ele>197.4</ele>
        <time>2022-10-26T15:04:06Z</time>
      </trkpt>
      <trkpt lat="43.61485" lon="1.20925">
        <ele>197.4</ele>
        <time>2022-10-26T15:04:07Z</time>
      </trkpt>
      <trkpt lat="43.6149" lon="1.20932">
        <ele>197.4</ele>
        <time>2022-10-26T15:04:08Z</time>
      </trkpt>
      <trkpt lat="43.61494" lon="1.2094">
        <ele>197.4</ele>
        <time>2022-10-26T15:04:09Z</time>
      </trkpt>
      <trkpt lat="43.61498" lon="1.20948">
        <ele>197.4</ele>
        <time>2022-10-26T15:04:10Z</time>
      </trkpt>
      <trkpt lat="43.61502" lon="1.20956">
        <ele>197.4</ele>
        <time>2022-10-26T15:04:11Z</time>
      </trkpt>
      <trkpt lat="43.61507" lon="1.20963">
        <ele>197</ele>
        <time>2022-10-26T15:04:12Z</time>
      </trkpt>
      <trkpt lat="43.6151" lon="1.2097">
        <ele>197</ele>
        <time>2022-10-26T15:04:13Z</time>
      </trkpt>
      <trkpt lat="43.61513" lon="1.20977">
        <ele>196.8</ele>
        <time>2022-10-26T15:04:14Z</time>
      </trkpt>
      <trkpt lat="43.61516" lon="1.20983">
        <ele>196.8</ele>
        <time>2022-10-26T15:04:15Z</time>
      </trkpt>
      <trkpt lat="43.61519" lon="1.2099">
        <ele>196.4</ele>
        <time>2022-10-26T15:04:16Z</time>
      </trkpt>
      <trkpt lat="43.61524" lon="1.20997">
        <ele>196.4</ele>
        <time>2022-10-26T15:04:17Z</time>
      </trkpt>
      <trkpt lat="43.61528" lon="1.21003">
        <ele>196.4</ele>
        <time>2022-10-26T15:04:18Z</time>
      </trkpt>
      <trkpt lat="43.61532" lon="1.2101">
        <ele>196.2</ele>
        <time>2022-10-26T15:04:19Z</time>
      </trkpt>
      <trkpt lat="43.61536" lon="1.21017">
        <ele>196.2</ele>
        <time>2022-10-26T15:04:20Z</time>
      </trkpt>
      <trkpt lat="43.6154" lon="1.21025">
        <ele>196</ele>
        <time>2022-10-26T15:04:21Z</time>
      </trkpt>
      <trkpt lat="43.61543" lon="1.21032">
        <ele>196</ele>
        <time>2022-10-26T15:04:22Z</time>
      </trkpt>
      <trkpt lat="43.61546" lon="1.2104">
        <ele>196</ele>
        <time>2022-10-26T15:04:23Z</time>
      </trkpt>
      <trkpt lat="43.61549" lon="1.21047">
        <ele>196</ele>
        <time>2022-10-26T15:04:24Z</time>
      </trkpt>
      <trkpt lat="43.61552" lon="1.21054">
        <ele>196</ele>
        <time>2022-10-26T15:04:25Z</time>
      </trkpt>
      <trkpt lat="43.61556" lon="1.21062">
        <ele>196</ele>
        <time>2022-10-26T15:04:26Z</time>
      </trkpt>
      <trkpt lat="43.6156" lon="1.21069">
        <ele>196</ele>
        <time>2022-10-26T15:04:27Z</time>
      </trkpt>
      <trkpt lat="43.61564" lon="1.21076">
        <ele>196</ele>
        <time>2022-10-26T15:04:28Z</time>
      </trkpt>
      <trkpt lat="43.61568" lon="1.21083">
        <ele>196</ele>
        <time>2022-10-26T15:04:29Z</time>
      </trkpt>
      <trkpt lat="43.61572" lon="1.2109">
        <ele>196</ele>
        <time>2022-10-26T15:04:30Z</time>
      </trkpt>
      <trkpt lat="43.61577" lon="1.21096">
        <ele>196</ele>
        <time>2022-10-26T15:04:31Z</time>
      </trkpt>
      <trkpt lat="43.61583" lon="1.21103">
        <ele>196</ele>
        <time>2022-10-26T15:04:32Z</time>
      </trkpt>
      <trkpt lat="43.61589" lon="1.2111">
        <ele>196</ele>
        <time>2022-10-26T15:04:33Z</time>
      </trkpt>
      <trkpt lat="43.61594" lon="1.21116">
        <ele>196</ele>
        <time>2022-10-26T15:04:34Z</time>
      </trkpt>
      <trkpt lat="43.616" lon="1.21123">
        <ele>196</ele>
        <time>2022-10-26T15:04:35Z</time>
      </trkpt>
      <trkpt lat="43.61606" lon="1.21129">
        <ele>196</ele>
        <time>2022-10-26T15:04:36Z</time>
      </trkpt>
      <trkpt lat="43.61612" lon="1.21135">
        <ele>196</ele>
        <time>2022-10-26T15:04:37Z</time>
      </trkpt>
      <trkpt lat="43.61618" lon="1.21142">
        <ele>195.8</ele>
        <time>2022-10-26T15:04:38Z</time>
      </trkpt>
      <trkpt lat="43.61623" lon="1.2115">
        <ele>195.8</ele>
        <time>2022-10-26T15:04:39Z</time>
      </trkpt>
      <trkpt lat="43.61628" lon="1.21158">
        <ele>195.8</ele>
        <time>2022-10-26T15:04:40Z</time>
      </trkpt>
      <trkpt lat="43.61633" lon="1.21165">
        <ele>195.8</ele>
        <time>2022-10-26T15:04:41Z</time>
      </trkpt>
      <trkpt lat="43.61638" lon="1.21171">
        <ele>195.8</ele>
        <time>2022-10-26T15:04:42Z</time>
      </trkpt>
      <trkpt lat="43.61644" lon="1.21178">
        <ele>195.8</ele>
        <time>2022-10-26T15:04:43Z</time>
      </trkpt>
      <trkpt lat="43.61648" lon="1.21185">
        <ele>195.6</ele>
        <time>2022-10-26T15:04:44Z</time>
      </trkpt>
      <trkpt lat="43.61653" lon="1.21192">
        <ele>195.6</ele>
        <time>2022-10-26T15:04:45Z</time>
      </trkpt>
      <trkpt lat="43.61659" lon="1.21199">
        <ele>195.6</ele>
        <time>2022-10-26T15:04:46Z</time>
      </trkpt>
      <trkpt lat="43.61664" lon="1.21206">
        <ele>195.6</ele>
        <time>2022-10-26T15:04:47Z</time>
      </trkpt>
      <trkpt lat="43.6167" lon="1.21212">
        <ele>195.6</ele>
        <time>2022-10-26T15:04:48Z</time>
      </trkpt>
      <trkpt lat="43.61674" lon="1.21219">
        <ele>195.6</ele>
        <time>2022-10-26T15:04:49Z</time>
      </trkpt>
      <trkpt lat="43.61679" lon="1.21226">
        <ele>195.6</ele>
        <time>2022-10-26T15:04:50Z</time>
      </trkpt>
      <trkpt lat="43.61682" lon="1.21231">
        <ele>195.6</ele>
        <time>2022-10-26T15:04:51Z</time>
      </trkpt>
      <trkpt lat="43.6169" lon="1.21238">
        <ele>195.6</ele>
        <time>2022-10-26T15:04:52Z</time>
      </trkpt>
      <trkpt lat="43.61694" lon="1.21244">
        <ele>195.6</ele>
        <time>2022-10-26T15:04:53Z</time>
      </trkpt>
      <trkpt lat="43.61698" lon="1.21248">
        <ele>195.6</ele>
        <time>2022-10-26T15:04:54Z</time>
      </trkpt>
      <trkpt lat="43.61703" lon="1.21253">
        <ele>195.6</ele>
        <time>2022-10-26T15:04:55Z</time>
      </trkpt>
      <trkpt lat="43.61708" lon="1.21258">
        <ele>195.6</ele>
        <time>2022-10-26T15:04:56Z</time>
      </trkpt>
      <trkpt lat="43.61713" lon="1.21263">
        <ele>195.6</ele>
        <time>2022-10-26T15:04:57Z</time>
      </trkpt>
      <trkpt lat="43.61718" lon="1.21268">
        <ele>196</ele>
        <time>2022-10-26T15:04:58Z</time>
      </trkpt>
      <trkpt lat="43.61724" lon="1.21273">
        <ele>195.8</ele>
        <time>2022-10-26T15:04:59Z</time>
      </trkpt>
      <trkpt lat="43.61729" lon="1.21277">
        <ele>195.8</ele>
        <time>2022-10-26T15:05:00Z</time>
      </trkpt>
      <trkpt lat="43.61734" lon="1.21281">
        <ele>196</ele>
        <time>2022-10-26T15:05:01Z</time>
      </trkpt>
      <trkpt lat="43.61739" lon="1.21286">
        <ele>196</ele>
        <time>2022-10-26T15:05:02Z</time>
      </trkpt>
      <trkpt lat="43.61743" lon="1.2129">
        <ele>196</ele>
        <time>2022-10-26T15:05:03Z</time>
      </trkpt>
      <trkpt lat="43.61748" lon="1.21295">
        <ele>196</ele>
        <time>2022-10-26T15:05:04Z</time>
      </trkpt>
      <trkpt lat="43.61753" lon="1.213">
        <ele>196.2</ele>
        <time>2022-10-26T15:05:05Z</time>
      </trkpt>
      <trkpt lat="43.61759" lon="1.21305">
        <ele>196.2</ele>
        <time>2022-10-26T15:05:06Z</time>
      </trkpt>
      <trkpt lat="43.61765" lon="1.21309">
        <ele>196.2</ele>
        <time>2022-10-26T15:05:07Z</time>
      </trkpt>
      <trkpt lat="43.6177" lon="1.21313">
        <ele>196.2</ele>
        <time>2022-10-26T15:05:08Z</time>
      </trkpt>
      <trkpt lat="43.61775" lon="1.21317">
        <ele>196.2</ele>
        <time>2022-10-26T15:05:09Z</time>
      </trkpt>
      <trkpt lat="43.61781" lon="1.21321">
        <ele>196.2</ele>
        <time>2022-10-26T15:05:10Z</time>
      </trkpt>
      <trkpt lat="43.61787" lon="1.21325">
        <ele>196.2</ele>
        <time>2022-10-26T15:05:11Z</time>
      </trkpt>
      <trkpt lat="43.61793" lon="1.2133">
        <ele>196.4</ele>
        <time>2022-10-26T15:05:12Z</time>
      </trkpt>
      <trkpt lat="43.61799" lon="1.21335">
        <ele>196.4</ele>
        <time>2022-10-26T15:05:13Z</time>
      </trkpt>
      <trkpt lat="43.61804" lon="1.21342">
        <ele>196.4</ele>
        <time>2022-10-26T15:05:14Z</time>
      </trkpt>
      <trkpt lat="43.61809" lon="1.21348">
        <ele>196.6</ele>
        <time>2022-10-26T15:05:15Z</time>
      </trkpt>
      <trkpt lat="43.61815" lon="1.21353">
        <ele>196.6</ele>
        <time>2022-10-26T15:05:16Z</time>
      </trkpt>
      <trkpt lat="43.61821" lon="1.21357">
        <ele>196.6</ele>
        <time>2022-10-26T15:05:17Z</time>
      </trkpt>
      <trkpt lat="43.61826" lon="1.2136">
        <ele>196.4</ele>
        <time>2022-10-26T15:05:18Z</time>
      </trkpt>
      <trkpt lat="43.61833" lon="1.21364">
        <ele>196.4</ele>
        <time>2022-10-26T15:05:19Z</time>
      </trkpt>
      <trkpt lat="43.61837" lon="1.21367">
        <ele>196.4</ele>
        <time>2022-10-26T15:05:20Z</time>
      </trkpt>
      <trkpt lat="43.61844" lon="1.2137">
        <ele>196.4</ele>
        <time>2022-10-26T15:05:21Z</time>
      </trkpt>
      <trkpt lat="43.61851" lon="1.21373">
        <ele>196.4</ele>
        <time>2022-10-26T15:05:22Z</time>
      </trkpt>
      <trkpt lat="43.61857" lon="1.21376">
        <ele>196.4</ele>
        <time>2022-10-26T15:05:23Z</time>
      </trkpt>
      <trkpt lat="43.61863" lon="1.21379">
        <ele>196.4</ele>
        <time>2022-10-26T15:05:24Z</time>
      </trkpt>
      <trkpt lat="43.61869" lon="1.21383">
        <ele>196.4</ele>
        <time>2022-10-26T15:05:25Z</time>
      </trkpt>
      <trkpt lat="43.61876" lon="1.21387">
        <ele>196.2</ele>
        <time>2022-10-26T15:05:26Z</time>
      </trkpt>
      <trkpt lat="43.61883" lon="1.2139">
        <ele>196.2</ele>
        <time>2022-10-26T15:05:27Z</time>
      </trkpt>
      <trkpt lat="43.61888" lon="1.21393">
        <ele>196.2</ele>
        <time>2022-10-26T15:05:28Z</time>
      </trkpt>
      <trkpt lat="43.61895" lon="1.21396">
        <ele>196.2</ele>
        <time>2022-10-26T15:05:29Z</time>
      </trkpt>
      <trkpt lat="43.619" lon="1.21398">
        <ele>196.2</ele>
        <time>2022-10-26T15:05:30Z</time>
      </trkpt>
      <trkpt lat="43.61905" lon="1.214">
        <ele>196.2</ele>
        <time>2022-10-26T15:05:31Z</time>
      </trkpt>
      <trkpt lat="43.61911" lon="1.21401">
        <ele>196.2</ele>
        <time>2022-10-26T15:05:32Z</time>
      </trkpt>
      <trkpt lat="43.61917" lon="1.21402">
        <ele>196.2</ele>
        <time>2022-10-26T15:05:33Z</time>
      </trkpt>
      <trkpt lat="43.61924" lon="1.21402">
        <ele>196.4</ele>
        <time>2022-10-26T15:05:34Z</time>
      </trkpt>
      <trkpt lat="43.6193" lon="1.21402">
        <ele>196.4</ele>
        <time>2022-10-26T15:05:35Z</time>
      </trkpt>
      <trkpt lat="43.61936" lon="1.21402">
        <ele>196.4</ele>
        <time>2022-10-26T15:05:36Z</time>
      </trkpt>
      <trkpt lat="43.6194" lon="1.21403">
        <ele>196.6</ele>
        <time>2022-10-26T15:05:37Z</time>
      </trkpt>
      <trkpt lat="43.61944" lon="1.21405">
        <ele>196.6</ele>
        <time>2022-10-26T15:05:38Z</time>
      </trkpt>
      <trkpt lat="43.61949" lon="1.21409">
        <ele>196.6</ele>
        <time>2022-10-26T15:05:39Z</time>
      </trkpt>
      <trkpt lat="43.61953" lon="1.21413">
        <ele>196.6</ele>
        <time>2022-10-26T15:05:40Z</time>
      </trkpt>
      <trkpt lat="43.61957" lon="1.21416">
        <ele>196.8</ele>
        <time>2022-10-26T15:05:41Z</time>
      </trkpt>
      <trkpt lat="43.61961" lon="1.2142">
        <ele>196.8</ele>
        <time>2022-10-26T15:05:42Z</time>
      </trkpt>
      <trkpt lat="43.61967" lon="1.21422">
        <ele>197</ele>
        <time>2022-10-26T15:05:43Z</time>
      </trkpt>
      <trkpt lat="43.61973" lon="1.21424">
        <ele>197</ele>
        <time>2022-10-26T15:05:44Z</time>
      </trkpt>
      <trkpt lat="43.61978" lon="1.21427">
        <ele>197.2</ele>
        <time>2022-10-26T15:05:45Z</time>
      </trkpt>
      <trkpt lat="43.61983" lon="1.2143">
        <ele>197.2</ele>
        <time>2022-10-26T15:05:46Z</time>
      </trkpt>
      <trkpt lat="43.61989" lon="1.21432">
        <ele>197.4</ele>
        <time>2022-10-26T15:05:47Z</time>
      </trkpt>
      <trkpt lat="43.61994" lon="1.21432">
        <ele>197.4</ele>
        <time>2022-10-26T15:05:48Z</time>
      </trkpt>
      <trkpt lat="43.62" lon="1.21434">
        <ele>197.6</ele>
        <time>2022-10-26T15:05:49Z</time>
      </trkpt>
      <trkpt lat="43.62006" lon="1.21435">
        <ele>197.6</ele>
        <time>2022-10-26T15:05:50Z</time>
      </trkpt>
      <trkpt lat="43.6201" lon="1.21436">
        <ele>197.6</ele>
        <time>2022-10-26T15:05:51Z</time>
      </trkpt>
      <trkpt lat="43.62015" lon="1.21436">
        <ele>197.8</ele>
        <time>2022-10-26T15:05:52Z</time>
      </trkpt>
      <trkpt lat="43.62019" lon="1.21438">
        <ele>198</ele>
        <time>2022-10-26T15:05:53Z</time>
      </trkpt>
      <trkpt lat="43.62021" lon="1.21441">
        <ele>198</ele>
        <time>2022-10-26T15:05:54Z</time>
      </trkpt>
      <trkpt lat="43.62021" lon="1.21443">
        <ele>198</ele>
        <time>2022-10-26T15:05:55Z</time>
      </trkpt>
      <trkpt lat="43.6202" lon="1.21446">
        <ele>198</ele>
        <time>2022-10-26T15:05:56Z</time>
      </trkpt>
      <trkpt lat="43.62018" lon="1.2145">
        <ele>198</ele>
        <time>2022-10-26T15:05:57Z</time>
      </trkpt>
      <trkpt lat="43.62015" lon="1.21454">
        <ele>198</ele>
        <time>2022-10-26T15:05:58Z</time>
      </trkpt>
      <trkpt lat="43.62011" lon="1.2146">
        <ele>198.2</ele>
        <time>2022-10-26T15:05:59Z</time>
      </trkpt>
      <trkpt lat="43.62008" lon="1.21468">
        <ele>198</ele>
        <time>2022-10-26T15:06:00Z</time>
      </trkpt>
      <trkpt lat="43.62005" lon="1.21475">
        <ele>198</ele>
        <time>2022-10-26T15:06:01Z</time>
      </trkpt>
      <trkpt lat="43.62003" lon="1.21483">
        <ele>198</ele>
        <time>2022-10-26T15:06:02Z</time>
      </trkpt>
      <trkpt lat="43.61999" lon="1.21492">
        <ele>198</ele>
        <time>2022-10-26T15:06:03Z</time>
      </trkpt>
      <trkpt lat="43.61996" lon="1.21501">
        <ele>198</ele>
        <time>2022-10-26T15:06:04Z</time>
      </trkpt>
      <trkpt lat="43.61992" lon="1.21512">
        <ele>197.8</ele>
        <time>2022-10-26T15:06:05Z</time>
      </trkpt>
      <trkpt lat="43.61988" lon="1.21522">
        <ele>197.8</ele>
        <time>2022-10-26T15:06:06Z</time>
      </trkpt>
      <trkpt lat="43.61984" lon="1.21531">
        <ele>197.6</ele>
        <time>2022-10-26T15:06:07Z</time>
      </trkpt>
      <trkpt lat="43.6198" lon="1.21539">
        <ele>197.6</ele>
        <time>2022-10-26T15:06:08Z</time>
      </trkpt>
      <trkpt lat="43.61977" lon="1.21549">
        <ele>197.2</ele>
        <time>2022-10-26T15:06:09Z</time>
      </trkpt>
      <trkpt lat="43.61976" lon="1.21557">
        <ele>197.2</ele>
        <time>2022-10-26T15:06:10Z</time>
      </trkpt>
      <trkpt lat="43.61978" lon="1.21564">
        <ele>196.4</ele>
        <time>2022-10-26T15:06:11Z</time>
      </trkpt>
      <trkpt lat="43.61981" lon="1.21569">
        <ele>195.6</ele>
        <time>2022-10-26T15:06:12Z</time>
      </trkpt>
      <trkpt lat="43.61984" lon="1.21573">
        <ele>195</ele>
        <time>2022-10-26T15:06:13Z</time>
      </trkpt>
      <trkpt lat="43.61989" lon="1.21577">
        <ele>194.2</ele>
        <time>2022-10-26T15:06:14Z</time>
      </trkpt>
      <trkpt lat="43.61995" lon="1.21582">
        <ele>194</ele>
        <time>2022-10-26T15:06:15Z</time>
      </trkpt>
      <trkpt lat="43.62" lon="1.21586">
        <ele>193.8</ele>
        <time>2022-10-26T15:06:16Z</time>
      </trkpt>
      <trkpt lat="43.62004" lon="1.21591">
        <ele>193.6</ele>
        <time>2022-10-26T15:06:17Z</time>
      </trkpt>
      <trkpt lat="43.62008" lon="1.21595">
        <ele>193.4</ele>
        <time>2022-10-26T15:06:18Z</time>
      </trkpt>
      <trkpt lat="43.62012" lon="1.21598">
        <ele>193.2</ele>
        <time>2022-10-26T15:06:19Z</time>
      </trkpt>
      <trkpt lat="43.62017" lon="1.21602">
        <ele>193.2</ele>
        <time>2022-10-26T15:06:20Z</time>
      </trkpt>
      <trkpt lat="43.6202" lon="1.21609">
        <ele>192.8</ele>
        <time>2022-10-26T15:06:21Z</time>
      </trkpt>
      <trkpt lat="43.62023" lon="1.21616">
        <ele>192.6</ele>
        <time>2022-10-26T15:06:22Z</time>
      </trkpt>
      <trkpt lat="43.62025" lon="1.21623">
        <ele>192.6</ele>
        <time>2022-10-26T15:06:23Z</time>
      </trkpt>
      <trkpt lat="43.62026" lon="1.21631">
        <ele>192.4</ele>
        <time>2022-10-26T15:06:24Z</time>
      </trkpt>
      <trkpt lat="43.62027" lon="1.21639">
        <ele>192.2</ele>
        <time>2022-10-26T15:06:25Z</time>
      </trkpt>
      <trkpt lat="43.62029" lon="1.21647">
        <ele>192.2</ele>
        <time>2022-10-26T15:06:26Z</time>
      </trkpt>
      <trkpt lat="43.62031" lon="1.21656">
        <ele>192.2</ele>
        <time>2022-10-26T15:06:27Z</time>
      </trkpt>
      <trkpt lat="43.62033" lon="1.21665">
        <ele>192</ele>
        <time>2022-10-26T15:06:28Z</time>
      </trkpt>
      <trkpt lat="43.62036" lon="1.21674">
        <ele>192</ele>
        <time>2022-10-26T15:06:29Z</time>
      </trkpt>
      <trkpt lat="43.62038" lon="1.2168">
        <ele>192</ele>
        <time>2022-10-26T15:06:30Z</time>
      </trkpt>
      <trkpt lat="43.62042" lon="1.21686">
        <ele>191.8</ele>
        <time>2022-10-26T15:06:31Z</time>
      </trkpt>
      <trkpt lat="43.62045" lon="1.21692">
        <ele>191.8</ele>
        <time>2022-10-26T15:06:32Z</time>
      </trkpt>
      <trkpt lat="43.62049" lon="1.21699">
        <ele>191.8</ele>
        <time>2022-10-26T15:06:33Z</time>
      </trkpt>
      <trkpt lat="43.62053" lon="1.21704">
        <ele>191.8</ele>
        <time>2022-10-26T15:06:34Z</time>
      </trkpt>
      <trkpt lat="43.62057" lon="1.2171">
        <ele>191.6</ele>
        <time>2022-10-26T15:06:35Z</time>
      </trkpt>
      <trkpt lat="43.62061" lon="1.21716">
        <ele>191.6</ele>
        <time>2022-10-26T15:06:36Z</time>
      </trkpt>
      <trkpt lat="43.62064" lon="1.21725">
        <ele>191.4</ele>
        <time>2022-10-26T15:06:37Z</time>
      </trkpt>
      <trkpt lat="43.62068" lon="1.21733">
        <ele>191.4</ele>
        <time>2022-10-26T15:06:38Z</time>
      </trkpt>
      <trkpt lat="43.62071" lon="1.2174">
        <ele>191.2</ele>
        <time>2022-10-26T15:06:39Z</time>
      </trkpt>
      <trkpt lat="43.62075" lon="1.21748">
        <ele>191.2</ele>
        <time>2022-10-26T15:06:40Z</time>
      </trkpt>
      <trkpt lat="43.62078" lon="1.21756">
        <ele>191.2</ele>
        <time>2022-10-26T15:06:41Z</time>
      </trkpt>
      <trkpt lat="43.62082" lon="1.21762">
        <ele>191</ele>
        <time>2022-10-26T15:06:42Z</time>
      </trkpt>
      <trkpt lat="43.62084" lon="1.2177">
        <ele>191</ele>
        <time>2022-10-26T15:06:43Z</time>
      </trkpt>
      <trkpt lat="43.62087" lon="1.21776">
        <ele>191</ele>
        <time>2022-10-26T15:06:44Z</time>
      </trkpt>
      <trkpt lat="43.62093" lon="1.21784">
        <ele>191</ele>
        <time>2022-10-26T15:06:45Z</time>
      </trkpt>
      <trkpt lat="43.62096" lon="1.21792">
        <ele>191</ele>
        <time>2022-10-26T15:06:46Z</time>
      </trkpt>
      <trkpt lat="43.621" lon="1.21798">
        <ele>191</ele>
        <time>2022-10-26T15:06:47Z</time>
      </trkpt>
      <trkpt lat="43.62105" lon="1.21804">
        <ele>191</ele>
        <time>2022-10-26T15:06:48Z</time>
      </trkpt>
      <trkpt lat="43.62109" lon="1.2181">
        <ele>190.8</ele>
        <time>2022-10-26T15:06:49Z</time>
      </trkpt>
      <trkpt lat="43.62115" lon="1.21816">
        <ele>190.8</ele>
        <time>2022-10-26T15:06:50Z</time>
      </trkpt>
      <trkpt lat="43.6212" lon="1.21822">
        <ele>190.6</ele>
        <time>2022-10-26T15:06:51Z</time>
      </trkpt>
      <trkpt lat="43.62124" lon="1.21828">
        <ele>190.6</ele>
        <time>2022-10-26T15:06:52Z</time>
      </trkpt>
      <trkpt lat="43.62128" lon="1.21837">
        <ele>190.4</ele>
        <time>2022-10-26T15:06:53Z</time>
      </trkpt>
      <trkpt lat="43.6213" lon="1.21843">
        <ele>190.4</ele>
        <time>2022-10-26T15:06:54Z</time>
      </trkpt>
      <trkpt lat="43.62133" lon="1.21851">
        <ele>190.4</ele>
        <time>2022-10-26T15:06:55Z</time>
      </trkpt>
      <trkpt lat="43.62138" lon="1.21858">
        <ele>190.4</ele>
        <time>2022-10-26T15:06:56Z</time>
      </trkpt>
      <trkpt lat="43.62142" lon="1.21864">
        <ele>190.4</ele>
        <time>2022-10-26T15:06:57Z</time>
      </trkpt>
      <trkpt lat="43.62146" lon="1.21869">
        <ele>190.4</ele>
        <time>2022-10-26T15:06:58Z</time>
      </trkpt>
      <trkpt lat="43.6215" lon="1.21875">
        <ele>190.4</ele>
        <time>2022-10-26T15:06:59Z</time>
      </trkpt>
      <trkpt lat="43.62153" lon="1.21881">
        <ele>190.4</ele>
        <time>2022-10-26T15:07:00Z</time>
      </trkpt>
      <trkpt lat="43.62156" lon="1.21888">
        <ele>190.4</ele>
        <time>2022-10-26T15:07:01Z</time>
      </trkpt>
      <trkpt lat="43.62158" lon="1.21896">
        <ele>190.2</ele>
        <time>2022-10-26T15:07:02Z</time>
      </trkpt>
      <trkpt lat="43.6216" lon="1.21903">
        <ele>190.2</ele>
        <time>2022-10-26T15:07:03Z</time>
      </trkpt>
      <trkpt lat="43.62161" lon="1.21911">
        <ele>190.2</ele>
        <time>2022-10-26T15:07:04Z</time>
      </trkpt>
      <trkpt lat="43.62163" lon="1.21919">
        <ele>190.2</ele>
        <time>2022-10-26T15:07:05Z</time>
      </trkpt>
      <trkpt lat="43.62166" lon="1.21927">
        <ele>190.2</ele>
        <time>2022-10-26T15:07:06Z</time>
      </trkpt>
      <trkpt lat="43.62168" lon="1.21934">
        <ele>190.2</ele>
        <time>2022-10-26T15:07:07Z</time>
      </trkpt>
      <trkpt lat="43.62172" lon="1.21941">
        <ele>190.2</ele>
        <time>2022-10-26T15:07:08Z</time>
      </trkpt>
      <trkpt lat="43.62176" lon="1.21946">
        <ele>190.2</ele>
        <time>2022-10-26T15:07:09Z</time>
      </trkpt>
      <trkpt lat="43.62179" lon="1.21951">
        <ele>190.2</ele>
        <time>2022-10-26T15:07:10Z</time>
      </trkpt>
      <trkpt lat="43.62181" lon="1.21956">
        <ele>190.2</ele>
        <time>2022-10-26T15:07:11Z</time>
      </trkpt>
      <trkpt lat="43.62182" lon="1.2196">
        <ele>190.2</ele>
        <time>2022-10-26T15:07:12Z</time>
      </trkpt>
      <trkpt lat="43.62179" lon="1.21963">
        <ele>190</ele>
        <time>2022-10-26T15:07:13Z</time>
      </trkpt>
      <trkpt lat="43.62176" lon="1.21967">
        <ele>190</ele>
        <time>2022-10-26T15:07:14Z</time>
      </trkpt>
      <trkpt lat="43.62174" lon="1.21972">
        <ele>190</ele>
        <time>2022-10-26T15:07:15Z</time>
      </trkpt>
      <trkpt lat="43.62171" lon="1.21977">
        <ele>190</ele>
        <time>2022-10-26T15:07:16Z</time>
      </trkpt>
      <trkpt lat="43.62168" lon="1.21983">
        <ele>189.8</ele>
        <time>2022-10-26T15:07:17Z</time>
      </trkpt>
      <trkpt lat="43.62165" lon="1.2199">
        <ele>189.8</ele>
        <time>2022-10-26T15:07:18Z</time>
      </trkpt>
      <trkpt lat="43.62161" lon="1.21996">
        <ele>189.6</ele>
        <time>2022-10-26T15:07:19Z</time>
      </trkpt>
      <trkpt lat="43.62158" lon="1.22002">
        <ele>189.4</ele>
        <time>2022-10-26T15:07:20Z</time>
      </trkpt>
      <trkpt lat="43.62154" lon="1.22009">
        <ele>189.4</ele>
        <time>2022-10-26T15:07:21Z</time>
      </trkpt>
      <trkpt lat="43.62149" lon="1.22017">
        <ele>189.2</ele>
        <time>2022-10-26T15:07:22Z</time>
      </trkpt>
      <trkpt lat="43.62145" lon="1.22022">
        <ele>189.2</ele>
        <time>2022-10-26T15:07:23Z</time>
      </trkpt>
      <trkpt lat="43.62141" lon="1.2203">
        <ele>189.2</ele>
        <time>2022-10-26T15:07:24Z</time>
      </trkpt>
      <trkpt lat="43.62136" lon="1.22037">
        <ele>189</ele>
        <time>2022-10-26T15:07:25Z</time>
      </trkpt>
      <trkpt lat="43.62132" lon="1.22045">
        <ele>189</ele>
        <time>2022-10-26T15:07:26Z</time>
      </trkpt>
      <trkpt lat="43.62128" lon="1.22053">
        <ele>189</ele>
        <time>2022-10-26T15:07:27Z</time>
      </trkpt>
      <trkpt lat="43.62124" lon="1.22062">
        <ele>188.8</ele>
        <time>2022-10-26T15:07:28Z</time>
      </trkpt>
      <trkpt lat="43.6212" lon="1.2207">
        <ele>188.6</ele>
        <time>2022-10-26T15:07:29Z</time>
      </trkpt>
      <trkpt lat="43.62116" lon="1.22079">
        <ele>188.6</ele>
        <time>2022-10-26T15:07:30Z</time>
      </trkpt>
      <trkpt lat="43.62113" lon="1.22089">
        <ele>188.4</ele>
        <time>2022-10-26T15:07:31Z</time>
      </trkpt>
      <trkpt lat="43.62109" lon="1.22098">
        <ele>188.2</ele>
        <time>2022-10-26T15:07:32Z</time>
      </trkpt>
      <trkpt lat="43.62106" lon="1.22108">
        <ele>188</ele>
        <time>2022-10-26T15:07:33Z</time>
      </trkpt>
      <trkpt lat="43.62102" lon="1.22117">
        <ele>188</ele>
        <time>2022-10-26T15:07:34Z</time>
      </trkpt>
      <trkpt lat="43.62098" lon="1.22128">
        <ele>188</ele>
        <time>2022-10-26T15:07:35Z</time>
      </trkpt>
      <trkpt lat="43.62094" lon="1.22138">
        <ele>187.8</ele>
        <time>2022-10-26T15:07:36Z</time>
      </trkpt>
      <trkpt lat="43.62089" lon="1.22149">
        <ele>187.6</ele>
        <time>2022-10-26T15:07:37Z</time>
      </trkpt>
      <trkpt lat="43.62086" lon="1.22157">
        <ele>187.6</ele>
        <time>2022-10-26T15:07:38Z</time>
      </trkpt>
      <trkpt lat="43.62081" lon="1.22167">
        <ele>187.6</ele>
        <time>2022-10-26T15:07:39Z</time>
      </trkpt>
      <trkpt lat="43.62077" lon="1.22176">
        <ele>187.6</ele>
        <time>2022-10-26T15:07:40Z</time>
      </trkpt>
      <trkpt lat="43.62073" lon="1.22186">
        <ele>187.4</ele>
        <time>2022-10-26T15:07:41Z</time>
      </trkpt>
      <trkpt lat="43.62069" lon="1.22198">
        <ele>187.4</ele>
        <time>2022-10-26T15:07:42Z</time>
      </trkpt>
      <trkpt lat="43.62066" lon="1.22206">
        <ele>187.2</ele>
        <time>2022-10-26T15:07:43Z</time>
      </trkpt>
      <trkpt lat="43.62062" lon="1.22217">
        <ele>187.2</ele>
        <time>2022-10-26T15:07:44Z</time>
      </trkpt>
      <trkpt lat="43.62058" lon="1.22227">
        <ele>187.2</ele>
        <time>2022-10-26T15:07:45Z</time>
      </trkpt>
      <trkpt lat="43.62053" lon="1.22238">
        <ele>187</ele>
        <time>2022-10-26T15:07:46Z</time>
      </trkpt>
      <trkpt lat="43.62048" lon="1.22251">
        <ele>187</ele>
        <time>2022-10-26T15:07:47Z</time>
      </trkpt>
      <trkpt lat="43.62045" lon="1.22261">
        <ele>187</ele>
        <time>2022-10-26T15:07:48Z</time>
      </trkpt>
      <trkpt lat="43.62041" lon="1.22271">
        <ele>187</ele>
        <time>2022-10-26T15:07:49Z</time>
      </trkpt>
      <trkpt lat="43.62036" lon="1.22284">
        <ele>187</ele>
        <time>2022-10-26T15:07:50Z</time>
      </trkpt>
      <trkpt lat="43.62033" lon="1.22292">
        <ele>187</ele>
        <time>2022-10-26T15:07:51Z</time>
      </trkpt>
      <trkpt lat="43.62028" lon="1.22303">
        <ele>186.8</ele>
        <time>2022-10-26T15:07:52Z</time>
      </trkpt>
      <trkpt lat="43.62024" lon="1.22313">
        <ele>186.6</ele>
        <time>2022-10-26T15:07:53Z</time>
      </trkpt>
      <trkpt lat="43.6202" lon="1.22323">
        <ele>186.6</ele>
        <time>2022-10-26T15:07:54Z</time>
      </trkpt>
      <trkpt lat="43.62016" lon="1.22333">
        <ele>186.4</ele>
        <time>2022-10-26T15:07:55Z</time>
      </trkpt>
      <trkpt lat="43.62012" lon="1.22344">
        <ele>186.4</ele>
        <time>2022-10-26T15:07:56Z</time>
      </trkpt>
      <trkpt lat="43.62008" lon="1.22354">
        <ele>186.2</ele>
        <time>2022-10-26T15:07:57Z</time>
      </trkpt>
      <trkpt lat="43.62003" lon="1.22364">
        <ele>186.2</ele>
        <time>2022-10-26T15:07:58Z</time>
      </trkpt>
      <trkpt lat="43.61998" lon="1.22375">
        <ele>186</ele>
        <time>2022-10-26T15:07:59Z</time>
      </trkpt>
      <trkpt lat="43.61994" lon="1.22386">
        <ele>185.8</ele>
        <time>2022-10-26T15:08:00Z</time>
      </trkpt>
      <trkpt lat="43.6199" lon="1.22396">
        <ele>185.6</ele>
        <time>2022-10-26T15:08:01Z</time>
      </trkpt>
      <trkpt lat="43.61985" lon="1.22407">
        <ele>185.6</ele>
        <time>2022-10-26T15:08:02Z</time>
      </trkpt>
      <trkpt lat="43.61981" lon="1.22417">
        <ele>185.6</ele>
        <time>2022-10-26T15:08:03Z</time>
      </trkpt>
      <trkpt lat="43.61976" lon="1.22428">
        <ele>185.4</ele>
        <time>2022-10-26T15:08:04Z</time>
      </trkpt>
      <trkpt lat="43.61973" lon="1.22439">
        <ele>185.4</ele>
        <time>2022-10-26T15:08:05Z</time>
      </trkpt>
      <trkpt lat="43.61969" lon="1.22449">
        <ele>185.2</ele>
        <time>2022-10-26T15:08:06Z</time>
      </trkpt>
      <trkpt lat="43.61965" lon="1.2246">
        <ele>185.2</ele>
        <time>2022-10-26T15:08:07Z</time>
      </trkpt>
      <trkpt lat="43.6196" lon="1.22472">
        <ele>185.2</ele>
        <time>2022-10-26T15:08:08Z</time>
      </trkpt>
      <trkpt lat="43.61957" lon="1.2248">
        <ele>185</ele>
        <time>2022-10-26T15:08:09Z</time>
      </trkpt>
      <trkpt lat="43.61953" lon="1.22491">
        <ele>185</ele>
        <time>2022-10-26T15:08:10Z</time>
      </trkpt>
      <trkpt lat="43.61949" lon="1.22503">
        <ele>185</ele>
        <time>2022-10-26T15:08:11Z</time>
      </trkpt>
      <trkpt lat="43.61946" lon="1.22512">
        <ele>185</ele>
        <time>2022-10-26T15:08:12Z</time>
      </trkpt>
      <trkpt lat="43.61942" lon="1.22521">
        <ele>185</ele>
        <time>2022-10-26T15:08:13Z</time>
      </trkpt>
      <trkpt lat="43.61938" lon="1.22531">
        <ele>185</ele>
        <time>2022-10-26T15:08:14Z</time>
      </trkpt>
      <trkpt lat="43.61934" lon="1.2254">
        <ele>185</ele>
        <time>2022-10-26T15:08:15Z</time>
      </trkpt>
      <trkpt lat="43.6193" lon="1.2255">
        <ele>185</ele>
        <time>2022-10-26T15:08:16Z</time>
      </trkpt>
      <trkpt lat="43.61926" lon="1.22559">
        <ele>185</ele>
        <time>2022-10-26T15:08:17Z</time>
      </trkpt>
      <trkpt lat="43.61923" lon="1.22569">
        <ele>185</ele>
        <time>2022-10-26T15:08:18Z</time>
      </trkpt>
      <trkpt lat="43.61918" lon="1.2258">
        <ele>184.8</ele>
        <time>2022-10-26T15:08:19Z</time>
      </trkpt>
      <trkpt lat="43.61915" lon="1.22587">
        <ele>184.8</ele>
        <time>2022-10-26T15:08:20Z</time>
      </trkpt>
      <trkpt lat="43.61912" lon="1.22597">
        <ele>184.6</ele>
        <time>2022-10-26T15:08:21Z</time>
      </trkpt>
      <trkpt lat="43.61908" lon="1.22606">
        <ele>184.6</ele>
        <time>2022-10-26T15:08:22Z</time>
      </trkpt>
      <trkpt lat="43.61904" lon="1.22615">
        <ele>184.6</ele>
        <time>2022-10-26T15:08:23Z</time>
      </trkpt>
      <trkpt lat="43.61901" lon="1.22624">
        <ele>184.6</ele>
        <time>2022-10-26T15:08:24Z</time>
      </trkpt>
      <trkpt lat="43.61898" lon="1.22632">
        <ele>184.6</ele>
        <time>2022-10-26T15:08:25Z</time>
      </trkpt>
      <trkpt lat="43.61894" lon="1.22641">
        <ele>184.8</ele>
        <time>2022-10-26T15:08:26Z</time>
      </trkpt>
      <trkpt lat="43.61889" lon="1.22647">
        <ele>184.8</ele>
        <time>2022-10-26T15:08:27Z</time>
      </trkpt>
      <trkpt lat="43.61884" lon="1.22652">
        <ele>184.8</ele>
        <time>2022-10-26T15:08:28Z</time>
      </trkpt>
      <trkpt lat="43.61878" lon="1.22654">
        <ele>184.8</ele>
        <time>2022-10-26T15:08:29Z</time>
      </trkpt>
      <trkpt lat="43.6187" lon="1.22655">
        <ele>184.4</ele>
        <time>2022-10-26T15:08:30Z</time>
      </trkpt>
      <trkpt lat="43.61866" lon="1.22655">
        <ele>184.6</ele>
        <time>2022-10-26T15:08:31Z</time>
      </trkpt>
      <trkpt lat="43.61859" lon="1.22654">
        <ele>184.6</ele>
        <time>2022-10-26T15:08:32Z</time>
      </trkpt>
      <trkpt lat="43.61853" lon="1.22654">
        <ele>184.6</ele>
        <time>2022-10-26T15:08:33Z</time>
      </trkpt>
      <trkpt lat="43.61848" lon="1.22654">
        <ele>184.4</ele>
        <time>2022-10-26T15:08:34Z</time>
      </trkpt>
      <trkpt lat="43.61842" lon="1.22654">
        <ele>184.4</ele>
        <time>2022-10-26T15:08:35Z</time>
      </trkpt>
      <trkpt lat="43.61836" lon="1.22654">
        <ele>184.4</ele>
        <time>2022-10-26T15:08:36Z</time>
      </trkpt>
      <trkpt lat="43.61829" lon="1.22654">
        <ele>184.4</ele>
        <time>2022-10-26T15:08:37Z</time>
      </trkpt>
      <trkpt lat="43.61823" lon="1.22655">
        <ele>184.4</ele>
        <time>2022-10-26T15:08:38Z</time>
      </trkpt>
      <trkpt lat="43.61817" lon="1.22655">
        <ele>184.4</ele>
        <time>2022-10-26T15:08:39Z</time>
      </trkpt>
      <trkpt lat="43.6181" lon="1.22655">
        <ele>184.4</ele>
        <time>2022-10-26T15:08:40Z</time>
      </trkpt>
      <trkpt lat="43.61803" lon="1.22656">
        <ele>184.4</ele>
        <time>2022-10-26T15:08:41Z</time>
      </trkpt>
      <trkpt lat="43.61798" lon="1.22656">
        <ele>184.4</ele>
        <time>2022-10-26T15:08:42Z</time>
      </trkpt>
      <trkpt lat="43.61791" lon="1.22656">
        <ele>184.4</ele>
        <time>2022-10-26T15:08:43Z</time>
      </trkpt>
      <trkpt lat="43.61785" lon="1.22656">
        <ele>184.4</ele>
        <time>2022-10-26T15:08:44Z</time>
      </trkpt>
      <trkpt lat="43.61779" lon="1.22657">
        <ele>184.4</ele>
        <time>2022-10-26T15:08:45Z</time>
      </trkpt>
      <trkpt lat="43.61771" lon="1.22657">
        <ele>184.4</ele>
        <time>2022-10-26T15:08:46Z</time>
      </trkpt>
      <trkpt lat="43.61766" lon="1.22657">
        <ele>184.4</ele>
        <time>2022-10-26T15:08:47Z</time>
      </trkpt>
      <trkpt lat="43.61759" lon="1.22658">
        <ele>184.4</ele>
        <time>2022-10-26T15:08:48Z</time>
      </trkpt>
      <trkpt lat="43.61753" lon="1.22658">
        <ele>184.2</ele>
        <time>2022-10-26T15:08:49Z</time>
      </trkpt>
      <trkpt lat="43.61746" lon="1.22658">
        <ele>184.2</ele>
        <time>2022-10-26T15:08:50Z</time>
      </trkpt>
      <trkpt lat="43.61738" lon="1.22658">
        <ele>184.2</ele>
        <time>2022-10-26T15:08:51Z</time>
      </trkpt>
      <trkpt lat="43.61733" lon="1.22658">
        <ele>184.2</ele>
        <time>2022-10-26T15:08:52Z</time>
      </trkpt>
      <trkpt lat="43.61727" lon="1.22659">
        <ele>184</ele>
        <time>2022-10-26T15:08:53Z</time>
      </trkpt>
      <trkpt lat="43.61721" lon="1.22659">
        <ele>184</ele>
        <time>2022-10-26T15:08:54Z</time>
      </trkpt>
      <trkpt lat="43.61714" lon="1.22659">
        <ele>184</ele>
        <time>2022-10-26T15:08:55Z</time>
      </trkpt>
      <trkpt lat="43.61708" lon="1.22659">
        <ele>184</ele>
        <time>2022-10-26T15:08:56Z</time>
      </trkpt>
      <trkpt lat="43.61702" lon="1.2266">
        <ele>184</ele>
        <time>2022-10-26T15:08:57Z</time>
      </trkpt>
      <trkpt lat="43.61696" lon="1.22662">
        <ele>184</ele>
        <time>2022-10-26T15:08:58Z</time>
      </trkpt>
      <trkpt lat="43.61691" lon="1.22666">
        <ele>184</ele>
        <time>2022-10-26T15:08:59Z</time>
      </trkpt>
      <trkpt lat="43.61687" lon="1.22672">
        <ele>184</ele>
        <time>2022-10-26T15:09:00Z</time>
      </trkpt>
      <trkpt lat="43.61682" lon="1.22681">
        <ele>183.8</ele>
        <time>2022-10-26T15:09:01Z</time>
      </trkpt>
      <trkpt lat="43.61679" lon="1.22686">
        <ele>184</ele>
        <time>2022-10-26T15:09:02Z</time>
      </trkpt>
      <trkpt lat="43.61675" lon="1.22694">
        <ele>184</ele>
        <time>2022-10-26T15:09:03Z</time>
      </trkpt>
      <trkpt lat="43.61671" lon="1.22701">
        <ele>184</ele>
        <time>2022-10-26T15:09:04Z</time>
      </trkpt>
      <trkpt lat="43.61667" lon="1.22708">
        <ele>183.8</ele>
        <time>2022-10-26T15:09:05Z</time>
      </trkpt>
      <trkpt lat="43.61664" lon="1.22716">
        <ele>184.2</ele>
        <time>2022-10-26T15:09:06Z</time>
      </trkpt>
      <trkpt lat="43.6166" lon="1.22723">
        <ele>183.8</ele>
        <time>2022-10-26T15:09:07Z</time>
      </trkpt>
      <trkpt lat="43.61657" lon="1.2273">
        <ele>183.8</ele>
        <time>2022-10-26T15:09:08Z</time>
      </trkpt>
      <trkpt lat="43.61653" lon="1.22737">
        <ele>183.6</ele>
        <time>2022-10-26T15:09:09Z</time>
      </trkpt>
      <trkpt lat="43.6165" lon="1.22744">
        <ele>183.6</ele>
        <time>2022-10-26T15:09:10Z</time>
      </trkpt>
      <trkpt lat="43.61646" lon="1.22751">
        <ele>183.6</ele>
        <time>2022-10-26T15:09:11Z</time>
      </trkpt>
      <trkpt lat="43.61643" lon="1.22758">
        <ele>183.6</ele>
        <time>2022-10-26T15:09:12Z</time>
      </trkpt>
      <trkpt lat="43.61639" lon="1.22765">
        <ele>183.6</ele>
        <time>2022-10-26T15:09:13Z</time>
      </trkpt>
      <trkpt lat="43.61636" lon="1.22772">
        <ele>183.6</ele>
        <time>2022-10-26T15:09:14Z</time>
      </trkpt>
      <trkpt lat="43.61632" lon="1.22779">
        <ele>183.6</ele>
        <time>2022-10-26T15:09:15Z</time>
      </trkpt>
      <trkpt lat="43.61629" lon="1.22786">
        <ele>183.6</ele>
        <time>2022-10-26T15:09:16Z</time>
      </trkpt>
      <trkpt lat="43.61626" lon="1.22794">
        <ele>183.6</ele>
        <time>2022-10-26T15:09:17Z</time>
      </trkpt>
      <trkpt lat="43.61622" lon="1.22801">
        <ele>183.4</ele>
        <time>2022-10-26T15:09:18Z</time>
      </trkpt>
      <trkpt lat="43.61619" lon="1.22809">
        <ele>183.4</ele>
        <time>2022-10-26T15:09:19Z</time>
      </trkpt>
      <trkpt lat="43.61616" lon="1.22816">
        <ele>183.4</ele>
        <time>2022-10-26T15:09:20Z</time>
      </trkpt>
      <trkpt lat="43.61614" lon="1.22824">
        <ele>183.4</ele>
        <time>2022-10-26T15:09:21Z</time>
      </trkpt>
      <trkpt lat="43.61611" lon="1.22832">
        <ele>183.4</ele>
        <time>2022-10-26T15:09:22Z</time>
      </trkpt>
      <trkpt lat="43.61608" lon="1.2284">
        <ele>183.4</ele>
        <time>2022-10-26T15:09:23Z</time>
      </trkpt>
      <trkpt lat="43.61605" lon="1.22848">
        <ele>183.4</ele>
        <time>2022-10-26T15:09:24Z</time>
      </trkpt>
      <trkpt lat="43.61602" lon="1.22856">
        <ele>183.4</ele>
        <time>2022-10-26T15:09:25Z</time>
      </trkpt>
      <trkpt lat="43.61599" lon="1.22864">
        <ele>183.4</ele>
        <time>2022-10-26T15:09:26Z</time>
      </trkpt>
      <trkpt lat="43.61596" lon="1.22872">
        <ele>183.2</ele>
        <time>2022-10-26T15:09:27Z</time>
      </trkpt>
      <trkpt lat="43.61594" lon="1.2288">
        <ele>183.2</ele>
        <time>2022-10-26T15:09:28Z</time>
      </trkpt>
      <trkpt lat="43.61591" lon="1.22888">
        <ele>183.4</ele>
        <time>2022-10-26T15:09:29Z</time>
      </trkpt>
      <trkpt lat="43.61588" lon="1.22896">
        <ele>183.4</ele>
        <time>2022-10-26T15:09:30Z</time>
      </trkpt>
      <trkpt lat="43.61586" lon="1.22905">
        <ele>183.2</ele>
        <time>2022-10-26T15:09:31Z</time>
      </trkpt>
      <trkpt lat="43.61583" lon="1.22913">
        <ele>183.2</ele>
        <time>2022-10-26T15:09:32Z</time>
      </trkpt>
      <trkpt lat="43.61581" lon="1.22921">
        <ele>183.2</ele>
        <time>2022-10-26T15:09:33Z</time>
      </trkpt>
      <trkpt lat="43.61579" lon="1.22929">
        <ele>183</ele>
        <time>2022-10-26T15:09:34Z</time>
      </trkpt>
      <trkpt lat="43.61577" lon="1.22936">
        <ele>183</ele>
        <time>2022-10-26T15:09:35Z</time>
      </trkpt>
      <trkpt lat="43.61575" lon="1.22944">
        <ele>183</ele>
        <time>2022-10-26T15:09:36Z</time>
      </trkpt>
      <trkpt lat="43.61573" lon="1.22951">
        <ele>183</ele>
        <time>2022-10-26T15:09:37Z</time>
      </trkpt>
      <trkpt lat="43.61571" lon="1.22958">
        <ele>182.8</ele>
        <time>2022-10-26T15:09:38Z</time>
      </trkpt>
      <trkpt lat="43.61569" lon="1.22966">
        <ele>182.8</ele>
        <time>2022-10-26T15:09:39Z</time>
      </trkpt>
      <trkpt lat="43.61567" lon="1.22973">
        <ele>182.8</ele>
        <time>2022-10-26T15:09:40Z</time>
      </trkpt>
      <trkpt lat="43.61566" lon="1.22981">
        <ele>182.8</ele>
        <time>2022-10-26T15:09:41Z</time>
      </trkpt>
      <trkpt lat="43.61564" lon="1.22988">
        <ele>182.6</ele>
        <time>2022-10-26T15:09:42Z</time>
      </trkpt>
      <trkpt lat="43.61561" lon="1.22995">
        <ele>182.6</ele>
        <time>2022-10-26T15:09:43Z</time>
      </trkpt>
      <trkpt lat="43.61558" lon="1.23002">
        <ele>182.6</ele>
        <time>2022-10-26T15:09:44Z</time>
      </trkpt>
      <trkpt lat="43.61556" lon="1.2301">
        <ele>182.6</ele>
        <time>2022-10-26T15:09:45Z</time>
      </trkpt>
      <trkpt lat="43.61555" lon="1.23016">
        <ele>182.6</ele>
        <time>2022-10-26T15:09:46Z</time>
      </trkpt>
      <trkpt lat="43.61554" lon="1.23023">
        <ele>182.6</ele>
        <time>2022-10-26T15:09:47Z</time>
      </trkpt>
      <trkpt lat="43.61553" lon="1.2303">
        <ele>182.6</ele>
        <time>2022-10-26T15:09:48Z</time>
      </trkpt>
      <trkpt lat="43.61551" lon="1.23038">
        <ele>182.6</ele>
        <time>2022-10-26T15:09:49Z</time>
      </trkpt>
      <trkpt lat="43.6155" lon="1.23045">
        <ele>182.6</ele>
        <time>2022-10-26T15:09:50Z</time>
      </trkpt>
      <trkpt lat="43.61549" lon="1.23053">
        <ele>182.6</ele>
        <time>2022-10-26T15:09:51Z</time>
      </trkpt>
      <trkpt lat="43.61547" lon="1.23061">
        <ele>182.6</ele>
        <time>2022-10-26T15:09:52Z</time>
      </trkpt>
      <trkpt lat="43.61546" lon="1.23069">
        <ele>182.6</ele>
        <time>2022-10-26T15:09:53Z</time>
      </trkpt>
      <trkpt lat="43.61544" lon="1.23076">
        <ele>182.6</ele>
        <time>2022-10-26T15:09:54Z</time>
      </trkpt>
      <trkpt lat="43.61542" lon="1.23084">
        <ele>182.4</ele>
        <time>2022-10-26T15:09:55Z</time>
      </trkpt>
      <trkpt lat="43.61541" lon="1.23092">
        <ele>182.4</ele>
        <time>2022-10-26T15:09:56Z</time>
      </trkpt>
      <trkpt lat="43.61539" lon="1.231">
        <ele>182.4</ele>
        <time>2022-10-26T15:09:57Z</time>
      </trkpt>
      <trkpt lat="43.61537" lon="1.23109">
        <ele>182.6</ele>
        <time>2022-10-26T15:09:58Z</time>
      </trkpt>
      <trkpt lat="43.61536" lon="1.23117">
        <ele>182.6</ele>
        <time>2022-10-26T15:09:59Z</time>
      </trkpt>
      <trkpt lat="43.61535" lon="1.23125">
        <ele>182.4</ele>
        <time>2022-10-26T15:10:00Z</time>
      </trkpt>
      <trkpt lat="43.61533" lon="1.23134">
        <ele>182.4</ele>
        <time>2022-10-26T15:10:01Z</time>
      </trkpt>
      <trkpt lat="43.61532" lon="1.23143">
        <ele>182.6</ele>
        <time>2022-10-26T15:10:02Z</time>
      </trkpt>
      <trkpt lat="43.6153" lon="1.23152">
        <ele>182.6</ele>
        <time>2022-10-26T15:10:03Z</time>
      </trkpt>
      <trkpt lat="43.61529" lon="1.2316">
        <ele>182.8</ele>
        <time>2022-10-26T15:10:04Z</time>
      </trkpt>
      <trkpt lat="43.61528" lon="1.23169">
        <ele>182.8</ele>
        <time>2022-10-26T15:10:05Z</time>
      </trkpt>
      <trkpt lat="43.61526" lon="1.23178">
        <ele>182.8</ele>
        <time>2022-10-26T15:10:06Z</time>
      </trkpt>
      <trkpt lat="43.61525" lon="1.23187">
        <ele>182.8</ele>
        <time>2022-10-26T15:10:07Z</time>
      </trkpt>
      <trkpt lat="43.61524" lon="1.23195">
        <ele>182.8</ele>
        <time>2022-10-26T15:10:08Z</time>
      </trkpt>
      <trkpt lat="43.61522" lon="1.23204">
        <ele>182.8</ele>
        <time>2022-10-26T15:10:09Z</time>
      </trkpt>
      <trkpt lat="43.61521" lon="1.23213">
        <ele>182.8</ele>
        <time>2022-10-26T15:10:10Z</time>
      </trkpt>
      <trkpt lat="43.6152" lon="1.23222">
        <ele>182.6</ele>
        <time>2022-10-26T15:10:11Z</time>
      </trkpt>
      <trkpt lat="43.61519" lon="1.23231">
        <ele>182.6</ele>
        <time>2022-10-26T15:10:12Z</time>
      </trkpt>
      <trkpt lat="43.61517" lon="1.2324">
        <ele>182.8</ele>
        <time>2022-10-26T15:10:13Z</time>
      </trkpt>
      <trkpt lat="43.61516" lon="1.23249">
        <ele>182.8</ele>
        <time>2022-10-26T15:10:14Z</time>
      </trkpt>
      <trkpt lat="43.61514" lon="1.23258">
        <ele>182.8</ele>
        <time>2022-10-26T15:10:15Z</time>
      </trkpt>
      <trkpt lat="43.61513" lon="1.23267">
        <ele>182.8</ele>
        <time>2022-10-26T15:10:16Z</time>
      </trkpt>
      <trkpt lat="43.61512" lon="1.23276">
        <ele>182.8</ele>
        <time>2022-10-26T15:10:17Z</time>
      </trkpt>
      <trkpt lat="43.6151" lon="1.23286">
        <ele>182.8</ele>
        <time>2022-10-26T15:10:18Z</time>
      </trkpt>
      <trkpt lat="43.61509" lon="1.23294">
        <ele>182.8</ele>
        <time>2022-10-26T15:10:19Z</time>
      </trkpt>
      <trkpt lat="43.61507" lon="1.23303">
        <ele>182.8</ele>
        <time>2022-10-26T15:10:20Z</time>
      </trkpt>
      <trkpt lat="43.61505" lon="1.23312">
        <ele>182.8</ele>
        <time>2022-10-26T15:10:21Z</time>
      </trkpt>
      <trkpt lat="43.61501" lon="1.23319">
        <ele>182.8</ele>
        <time>2022-10-26T15:10:22Z</time>
      </trkpt>
      <trkpt lat="43.61497" lon="1.23326">
        <ele>182.8</ele>
        <time>2022-10-26T15:10:23Z</time>
      </trkpt>
      <trkpt lat="43.61492" lon="1.23333">
        <ele>182.8</ele>
        <time>2022-10-26T15:10:24Z</time>
      </trkpt>
      <trkpt lat="43.61488" lon="1.2334">
        <ele>182.8</ele>
        <time>2022-10-26T15:10:25Z</time>
      </trkpt>
      <trkpt lat="43.61485" lon="1.23348">
        <ele>183.2</ele>
        <time>2022-10-26T15:10:26Z</time>
      </trkpt>
      <trkpt lat="43.61483" lon="1.23357">
        <ele>183.2</ele>
        <time>2022-10-26T15:10:27Z</time>
      </trkpt>
      <trkpt lat="43.61481" lon="1.23366">
        <ele>183.2</ele>
        <time>2022-10-26T15:10:28Z</time>
      </trkpt>
      <trkpt lat="43.61479" lon="1.23375">
        <ele>183.2</ele>
        <time>2022-10-26T15:10:29Z</time>
      </trkpt>
      <trkpt lat="43.61478" lon="1.23384">
        <ele>183.2</ele>
        <time>2022-10-26T15:10:30Z</time>
      </trkpt>
      <trkpt lat="43.61476" lon="1.23393">
        <ele>183.2</ele>
        <time>2022-10-26T15:10:31Z</time>
      </trkpt>
      <trkpt lat="43.61475" lon="1.23403">
        <ele>183.2</ele>
        <time>2022-10-26T15:10:32Z</time>
      </trkpt>
      <trkpt lat="43.61473" lon="1.23412">
        <ele>183.2</ele>
        <time>2022-10-26T15:10:33Z</time>
      </trkpt>
      <trkpt lat="43.61471" lon="1.23421">
        <ele>183.2</ele>
        <time>2022-10-26T15:10:34Z</time>
      </trkpt>
      <trkpt lat="43.61469" lon="1.2343">
        <ele>182.8</ele>
        <time>2022-10-26T15:10:35Z</time>
      </trkpt>
      <trkpt lat="43.61467" lon="1.23439">
        <ele>182.8</ele>
        <time>2022-10-26T15:10:36Z</time>
      </trkpt>
      <trkpt lat="43.61465" lon="1.23448">
        <ele>182.8</ele>
        <time>2022-10-26T15:10:37Z</time>
      </trkpt>
      <trkpt lat="43.61464" lon="1.23457">
        <ele>182.8</ele>
        <time>2022-10-26T15:10:38Z</time>
      </trkpt>
      <trkpt lat="43.61463" lon="1.23466">
        <ele>182.8</ele>
        <time>2022-10-26T15:10:39Z</time>
      </trkpt>
      <trkpt lat="43.61462" lon="1.23474">
        <ele>182.8</ele>
        <time>2022-10-26T15:10:40Z</time>
      </trkpt>
      <trkpt lat="43.6146" lon="1.23483">
        <ele>182.8</ele>
        <time>2022-10-26T15:10:41Z</time>
      </trkpt>
      <trkpt lat="43.61459" lon="1.23491">
        <ele>182.8</ele>
        <time>2022-10-26T15:10:42Z</time>
      </trkpt>
      <trkpt lat="43.61458" lon="1.23498">
        <ele>182.8</ele>
        <time>2022-10-26T15:10:43Z</time>
      </trkpt>
      <trkpt lat="43.61456" lon="1.23506">
        <ele>182.6</ele>
        <time>2022-10-26T15:10:44Z</time>
      </trkpt>
      <trkpt lat="43.61455" lon="1.23513">
        <ele>182.6</ele>
        <time>2022-10-26T15:10:45Z</time>
      </trkpt>
      <trkpt lat="43.61454" lon="1.23519">
        <ele>182.4</ele>
        <time>2022-10-26T15:10:46Z</time>
      </trkpt>
      <trkpt lat="43.61453" lon="1.23525">
        <ele>182.2</ele>
        <time>2022-10-26T15:10:47Z</time>
      </trkpt>
      <trkpt lat="43.61451" lon="1.23531">
        <ele>182.2</ele>
        <time>2022-10-26T15:10:48Z</time>
      </trkpt>
      <trkpt lat="43.61449" lon="1.23537">
        <ele>182.2</ele>
        <time>2022-10-26T15:10:49Z</time>
      </trkpt>
      <trkpt lat="43.61447" lon="1.23543">
        <ele>182.2</ele>
        <time>2022-10-26T15:10:50Z</time>
      </trkpt>
      <trkpt lat="43.61446" lon="1.23549">
        <ele>182.2</ele>
        <time>2022-10-26T15:10:51Z</time>
      </trkpt>
      <trkpt lat="43.61444" lon="1.23555">
        <ele>182.2</ele>
        <time>2022-10-26T15:10:52Z</time>
      </trkpt>
      <trkpt lat="43.61443" lon="1.23561">
        <ele>182.2</ele>
        <time>2022-10-26T15:10:53Z</time>
      </trkpt>
      <trkpt lat="43.61441" lon="1.23567">
        <ele>182.2</ele>
        <time>2022-10-26T15:10:54Z</time>
      </trkpt>
      <trkpt lat="43.61439" lon="1.23574">
        <ele>182.2</ele>
        <time>2022-10-26T15:10:55Z</time>
      </trkpt>
      <trkpt lat="43.61438" lon="1.23578">
        <ele>182.4</ele>
        <time>2022-10-26T15:10:56Z</time>
      </trkpt>
      <trkpt lat="43.61436" lon="1.23583">
        <ele>182.4</ele>
        <time>2022-10-26T15:10:57Z</time>
      </trkpt>
      <trkpt lat="43.61435" lon="1.23588">
        <ele>182.4</ele>
        <time>2022-10-26T15:10:58Z</time>
      </trkpt>
      <trkpt lat="43.61433" lon="1.23594">
        <ele>182.4</ele>
        <time>2022-10-26T15:10:59Z</time>
      </trkpt>
      <trkpt lat="43.61432" lon="1.236">
        <ele>182.4</ele>
        <time>2022-10-26T15:11:00Z</time>
      </trkpt>
      <trkpt lat="43.6143" lon="1.23606">
        <ele>182.8</ele>
        <time>2022-10-26T15:11:01Z</time>
      </trkpt>
      <trkpt lat="43.61428" lon="1.23612">
        <ele>182.8</ele>
        <time>2022-10-26T15:11:02Z</time>
      </trkpt>
      <trkpt lat="43.61426" lon="1.23619">
        <ele>182.8</ele>
        <time>2022-10-26T15:11:03Z</time>
      </trkpt>
      <trkpt lat="43.61424" lon="1.23626">
        <ele>183</ele>
        <time>2022-10-26T15:11:04Z</time>
      </trkpt>
      <trkpt lat="43.61422" lon="1.23633">
        <ele>183</ele>
        <time>2022-10-26T15:11:05Z</time>
      </trkpt>
      <trkpt lat="43.6142" lon="1.2364">
        <ele>183</ele>
        <time>2022-10-26T15:11:06Z</time>
      </trkpt>
      <trkpt lat="43.61418" lon="1.23647">
        <ele>183</ele>
        <time>2022-10-26T15:11:07Z</time>
      </trkpt>
      <trkpt lat="43.61416" lon="1.23655">
        <ele>183.2</ele>
        <time>2022-10-26T15:11:08Z</time>
      </trkpt>
      <trkpt lat="43.61414" lon="1.23662">
        <ele>183.2</ele>
        <time>2022-10-26T15:11:09Z</time>
      </trkpt>
      <trkpt lat="43.61412" lon="1.23669">
        <ele>183.2</ele>
        <time>2022-10-26T15:11:10Z</time>
      </trkpt>
      <trkpt lat="43.6141" lon="1.23677">
        <ele>183.2</ele>
        <time>2022-10-26T15:11:11Z</time>
      </trkpt>
      <trkpt lat="43.61408" lon="1.23685">
        <ele>183.2</ele>
        <time>2022-10-26T15:11:12Z</time>
      </trkpt>
      <trkpt lat="43.61407" lon="1.23692">
        <ele>183.2</ele>
        <time>2022-10-26T15:11:13Z</time>
      </trkpt>
      <trkpt lat="43.61407" lon="1.23699">
        <ele>183.2</ele>
        <time>2022-10-26T15:11:14Z</time>
      </trkpt>
      <trkpt lat="43.61407" lon="1.23706">
        <ele>183.2</ele>
        <time>2022-10-26T15:11:15Z</time>
      </trkpt>
      <trkpt lat="43.61408" lon="1.23712">
        <ele>183</ele>
        <time>2022-10-26T15:11:16Z</time>
      </trkpt>
      <trkpt lat="43.6141" lon="1.23716">
        <ele>183</ele>
        <time>2022-10-26T15:11:17Z</time>
      </trkpt>
      <trkpt lat="43.61413" lon="1.23719">
        <ele>183</ele>
        <time>2022-10-26T15:11:18Z</time>
      </trkpt>
      <trkpt lat="43.61417" lon="1.23722">
        <ele>183</ele>
        <time>2022-10-26T15:11:19Z</time>
      </trkpt>
      <trkpt lat="43.6142" lon="1.23725">
        <ele>183</ele>
        <time>2022-10-26T15:11:20Z</time>
      </trkpt>
      <trkpt lat="43.61422" lon="1.23727">
        <ele>183</ele>
        <time>2022-10-26T15:11:21Z</time>
      </trkpt>
      <trkpt lat="43.61425" lon="1.2373">
        <ele>183</ele>
        <time>2022-10-26T15:11:22Z</time>
      </trkpt>
      <trkpt lat="43.61426" lon="1.23732">
        <ele>183</ele>
        <time>2022-10-26T15:11:23Z</time>
      </trkpt>
      <trkpt lat="43.61428" lon="1.23735">
        <ele>182.8</ele>
        <time>2022-10-26T15:11:24Z</time>
      </trkpt>
      <trkpt lat="43.6143" lon="1.23739">
        <ele>182.8</ele>
        <time>2022-10-26T15:11:25Z</time>
      </trkpt>
      <trkpt lat="43.61432" lon="1.23742">
        <ele>182.8</ele>
        <time>2022-10-26T15:11:26Z</time>
      </trkpt>
      <trkpt lat="43.61435" lon="1.23745">
        <ele>182.8</ele>
        <time>2022-10-26T15:11:27Z</time>
      </trkpt>
      <trkpt lat="43.61438" lon="1.23749">
        <ele>182.8</ele>
        <time>2022-10-26T15:11:28Z</time>
      </trkpt>
      <trkpt lat="43.61441" lon="1.23752">
        <ele>182.8</ele>
        <time>2022-10-26T15:11:29Z</time>
      </trkpt>
      <trkpt lat="43.61444" lon="1.23754">
        <ele>182.8</ele>
        <time>2022-10-26T15:11:30Z</time>
      </trkpt>
      <trkpt lat="43.61448" lon="1.23757">
        <ele>182.8</ele>
        <time>2022-10-26T15:11:31Z</time>
      </trkpt>
      <trkpt lat="43.61451" lon="1.2376">
        <ele>182.8</ele>
        <time>2022-10-26T15:11:32Z</time>
      </trkpt>
      <trkpt lat="43.61455" lon="1.23762">
        <ele>182.8</ele>
        <time>2022-10-26T15:11:33Z</time>
      </trkpt>
      <trkpt lat="43.61459" lon="1.23765">
        <ele>183</ele>
        <time>2022-10-26T15:11:34Z</time>
      </trkpt>
      <trkpt lat="43.61463" lon="1.23768">
        <ele>183</ele>
        <time>2022-10-26T15:11:35Z</time>
      </trkpt>
      <trkpt lat="43.61468" lon="1.23771">
        <ele>183</ele>
        <time>2022-10-26T15:11:36Z</time>
      </trkpt>
      <trkpt lat="43.61473" lon="1.23775">
        <ele>183</ele>
        <time>2022-10-26T15:11:37Z</time>
      </trkpt>
      <trkpt lat="43.61478" lon="1.23778">
        <ele>183.2</ele>
        <time>2022-10-26T15:11:38Z</time>
      </trkpt>
      <trkpt lat="43.61483" lon="1.23781">
        <ele>183.2</ele>
        <time>2022-10-26T15:11:39Z</time>
      </trkpt>
      <trkpt lat="43.61489" lon="1.23784">
        <ele>183.2</ele>
        <time>2022-10-26T15:11:40Z</time>
      </trkpt>
      <trkpt lat="43.61495" lon="1.23788">
        <ele>183.2</ele>
        <time>2022-10-26T15:11:41Z</time>
      </trkpt>
      <trkpt lat="43.615" lon="1.23792">
        <ele>183.2</ele>
        <time>2022-10-26T15:11:42Z</time>
      </trkpt>
      <trkpt lat="43.61506" lon="1.23795">
        <ele>183.2</ele>
        <time>2022-10-26T15:11:43Z</time>
      </trkpt>
      <trkpt lat="43.61512" lon="1.23799">
        <ele>183.2</ele>
        <time>2022-10-26T15:11:44Z</time>
      </trkpt>
      <trkpt lat="43.61518" lon="1.23802">
        <ele>183</ele>
        <time>2022-10-26T15:11:45Z</time>
      </trkpt>
      <trkpt lat="43.61525" lon="1.23805">
        <ele>183.2</ele>
        <time>2022-10-26T15:11:46Z</time>
      </trkpt>
      <trkpt lat="43.61531" lon="1.23809">
        <ele>183.2</ele>
        <time>2022-10-26T15:11:47Z</time>
      </trkpt>
      <trkpt lat="43.61537" lon="1.23813">
        <ele>183.2</ele>
        <time>2022-10-26T15:11:48Z</time>
      </trkpt>
      <trkpt lat="43.61544" lon="1.23816">
        <ele>183</ele>
        <time>2022-10-26T15:11:49Z</time>
      </trkpt>
      <trkpt lat="43.6155" lon="1.2382">
        <ele>183.2</ele>
        <time>2022-10-26T15:11:50Z</time>
      </trkpt>
      <trkpt lat="43.61557" lon="1.23823">
        <ele>183.2</ele>
        <time>2022-10-26T15:11:51Z</time>
      </trkpt>
      <trkpt lat="43.61563" lon="1.23826">
        <ele>183.2</ele>
        <time>2022-10-26T15:11:52Z</time>
      </trkpt>
      <trkpt lat="43.6157" lon="1.23828">
        <ele>183.2</ele>
        <time>2022-10-26T15:11:53Z</time>
      </trkpt>
      <trkpt lat="43.61577" lon="1.2383">
        <ele>183.2</ele>
        <time>2022-10-26T15:11:54Z</time>
      </trkpt>
      <trkpt lat="43.61584" lon="1.23832">
        <ele>183.2</ele>
        <time>2022-10-26T15:11:55Z</time>
      </trkpt>
      <trkpt lat="43.61591" lon="1.23834">
        <ele>183.2</ele>
        <time>2022-10-26T15:11:56Z</time>
      </trkpt>
      <trkpt lat="43.61599" lon="1.23837">
        <ele>183.2</ele>
        <time>2022-10-26T15:11:57Z</time>
      </trkpt>
      <trkpt lat="43.61606" lon="1.23839">
        <ele>183.2</ele>
        <time>2022-10-26T15:11:58Z</time>
      </trkpt>
      <trkpt lat="43.61613" lon="1.23842">
        <ele>183.2</ele>
        <time>2022-10-26T15:11:59Z</time>
      </trkpt>
      <trkpt lat="43.6162" lon="1.23844">
        <ele>183.2</ele>
        <time>2022-10-26T15:12:00Z</time>
      </trkpt>
      <trkpt lat="43.61627" lon="1.23847">
        <ele>183.2</ele>
        <time>2022-10-26T15:12:01Z</time>
      </trkpt>
      <trkpt lat="43.61634" lon="1.23849">
        <ele>183</ele>
        <time>2022-10-26T15:12:02Z</time>
      </trkpt>
      <trkpt lat="43.61641" lon="1.23852">
        <ele>183</ele>
        <time>2022-10-26T15:12:03Z</time>
      </trkpt>
      <trkpt lat="43.61647" lon="1.23856">
        <ele>183</ele>
        <time>2022-10-26T15:12:04Z</time>
      </trkpt>
      <trkpt lat="43.61651" lon="1.23862">
        <ele>183</ele>
        <time>2022-10-26T15:12:05Z</time>
      </trkpt>
      <trkpt lat="43.61654" lon="1.23869">
        <ele>183</ele>
        <time>2022-10-26T15:12:06Z</time>
      </trkpt>
      <trkpt lat="43.61654" lon="1.23878">
        <ele>183</ele>
        <time>2022-10-26T15:12:07Z</time>
      </trkpt>
      <trkpt lat="43.61653" lon="1.23887">
        <ele>183</ele>
        <time>2022-10-26T15:12:08Z</time>
      </trkpt>
      <trkpt lat="43.61651" lon="1.23896">
        <ele>183</ele>
        <time>2022-10-26T15:12:09Z</time>
      </trkpt>
      <trkpt lat="43.61649" lon="1.23904">
        <ele>183</ele>
        <time>2022-10-26T15:12:10Z</time>
      </trkpt>
      <trkpt lat="43.61647" lon="1.23913">
        <ele>183</ele>
        <time>2022-10-26T15:12:11Z</time>
      </trkpt>
      <trkpt lat="43.61645" lon="1.23922">
        <ele>182.8</ele>
        <time>2022-10-26T15:12:12Z</time>
      </trkpt>
      <trkpt lat="43.61643" lon="1.23931">
        <ele>182.8</ele>
        <time>2022-10-26T15:12:13Z</time>
      </trkpt>
      <trkpt lat="43.61642" lon="1.2394">
        <ele>182.8</ele>
        <time>2022-10-26T15:12:14Z</time>
      </trkpt>
      <trkpt lat="43.6164" lon="1.23949">
        <ele>182.8</ele>
        <time>2022-10-26T15:12:15Z</time>
      </trkpt>
      <trkpt lat="43.61638" lon="1.23957">
        <ele>182.8</ele>
        <time>2022-10-26T15:12:16Z</time>
      </trkpt>
      <trkpt lat="43.61636" lon="1.23966">
        <ele>182.8</ele>
        <time>2022-10-26T15:12:17Z</time>
      </trkpt>
      <trkpt lat="43.61635" lon="1.23974">
        <ele>182.8</ele>
        <time>2022-10-26T15:12:18Z</time>
      </trkpt>
      <trkpt lat="43.61633" lon="1.23983">
        <ele>182.8</ele>
        <time>2022-10-26T15:12:19Z</time>
      </trkpt>
      <trkpt lat="43.61631" lon="1.23992">
        <ele>182.8</ele>
        <time>2022-10-26T15:12:20Z</time>
      </trkpt>
      <trkpt lat="43.6163" lon="1.24">
        <ele>182.8</ele>
        <time>2022-10-26T15:12:21Z</time>
      </trkpt>
      <trkpt lat="43.61628" lon="1.24009">
        <ele>182.8</ele>
        <time>2022-10-26T15:12:22Z</time>
      </trkpt>
      <trkpt lat="43.61627" lon="1.24018">
        <ele>183</ele>
        <time>2022-10-26T15:12:23Z</time>
      </trkpt>
      <trkpt lat="43.61626" lon="1.24028">
        <ele>182.8</ele>
        <time>2022-10-26T15:12:24Z</time>
      </trkpt>
      <trkpt lat="43.61625" lon="1.24037">
        <ele>183</ele>
        <time>2022-10-26T15:12:25Z</time>
      </trkpt>
      <trkpt lat="43.61625" lon="1.24046">
        <ele>182.8</ele>
        <time>2022-10-26T15:12:26Z</time>
      </trkpt>
      <trkpt lat="43.61625" lon="1.24055">
        <ele>182.8</ele>
        <time>2022-10-26T15:12:27Z</time>
      </trkpt>
      <trkpt lat="43.61626" lon="1.24063">
        <ele>182.8</ele>
        <time>2022-10-26T15:12:28Z</time>
      </trkpt>
      <trkpt lat="43.61628" lon="1.2407">
        <ele>182.8</ele>
        <time>2022-10-26T15:12:29Z</time>
      </trkpt>
      <trkpt lat="43.61631" lon="1.24077">
        <ele>182.8</ele>
        <time>2022-10-26T15:12:30Z</time>
      </trkpt>
      <trkpt lat="43.61635" lon="1.24082">
        <ele>182.8</ele>
        <time>2022-10-26T15:12:31Z</time>
      </trkpt>
      <trkpt lat="43.6164" lon="1.24085">
        <ele>182.8</ele>
        <time>2022-10-26T15:12:32Z</time>
      </trkpt>
      <trkpt lat="43.61646" lon="1.24086">
        <ele>182.8</ele>
        <time>2022-10-26T15:12:33Z</time>
      </trkpt>
      <trkpt lat="43.61651" lon="1.24086">
        <ele>182.8</ele>
        <time>2022-10-26T15:12:34Z</time>
      </trkpt>
      <trkpt lat="43.61657" lon="1.24086">
        <ele>182.8</ele>
        <time>2022-10-26T15:12:35Z</time>
      </trkpt>
      <trkpt lat="43.61662" lon="1.24085">
        <ele>182.6</ele>
        <time>2022-10-26T15:12:36Z</time>
      </trkpt>
      <trkpt lat="43.61668" lon="1.24085">
        <ele>182.6</ele>
        <time>2022-10-26T15:12:37Z</time>
      </trkpt>
      <trkpt lat="43.61675" lon="1.24085">
        <ele>182.6</ele>
        <time>2022-10-26T15:12:38Z</time>
      </trkpt>
      <trkpt lat="43.61681" lon="1.24087">
        <ele>182.4</ele>
        <time>2022-10-26T15:12:39Z</time>
      </trkpt>
      <trkpt lat="43.61687" lon="1.24087">
        <ele>182.4</ele>
        <time>2022-10-26T15:12:40Z</time>
      </trkpt>
      <trkpt lat="43.61693" lon="1.24089">
        <ele>182.4</ele>
        <time>2022-10-26T15:12:41Z</time>
      </trkpt>
      <trkpt lat="43.61699" lon="1.24091">
        <ele>182.4</ele>
        <time>2022-10-26T15:12:42Z</time>
      </trkpt>
      <trkpt lat="43.61704" lon="1.24095">
        <ele>182.4</ele>
        <time>2022-10-26T15:12:43Z</time>
      </trkpt>
      <trkpt lat="43.61708" lon="1.24102">
        <ele>182.4</ele>
        <time>2022-10-26T15:12:44Z</time>
      </trkpt>
      <trkpt lat="43.61709" lon="1.2411">
        <ele>182.2</ele>
        <time>2022-10-26T15:12:45Z</time>
      </trkpt>
      <trkpt lat="43.61709" lon="1.24118">
        <ele>182.2</ele>
        <time>2022-10-26T15:12:46Z</time>
      </trkpt>
      <trkpt lat="43.61708" lon="1.24125">
        <ele>182.2</ele>
        <time>2022-10-26T15:12:47Z</time>
      </trkpt>
      <trkpt lat="43.61707" lon="1.24134">
        <ele>182.2</ele>
        <time>2022-10-26T15:12:48Z</time>
      </trkpt>
      <trkpt lat="43.61706" lon="1.24143">
        <ele>182.2</ele>
        <time>2022-10-26T15:12:49Z</time>
      </trkpt>
      <trkpt lat="43.61705" lon="1.24152">
        <ele>182</ele>
        <time>2022-10-26T15:12:50Z</time>
      </trkpt>
      <trkpt lat="43.61703" lon="1.2416">
        <ele>182</ele>
        <time>2022-10-26T15:12:51Z</time>
      </trkpt>
      <trkpt lat="43.61702" lon="1.24169">
        <ele>182</ele>
        <time>2022-10-26T15:12:52Z</time>
      </trkpt>
      <trkpt lat="43.617" lon="1.24179">
        <ele>182</ele>
        <time>2022-10-26T15:12:53Z</time>
      </trkpt>
      <trkpt lat="43.61699" lon="1.24188">
        <ele>182</ele>
        <time>2022-10-26T15:12:54Z</time>
      </trkpt>
      <trkpt lat="43.61697" lon="1.24198">
        <ele>181.8</ele>
        <time>2022-10-26T15:12:55Z</time>
      </trkpt>
      <trkpt lat="43.61695" lon="1.24208">
        <ele>182</ele>
        <time>2022-10-26T15:12:56Z</time>
      </trkpt>
      <trkpt lat="43.61694" lon="1.24218">
        <ele>182</ele>
        <time>2022-10-26T15:12:57Z</time>
      </trkpt>
      <trkpt lat="43.61691" lon="1.24227">
        <ele>182.2</ele>
        <time>2022-10-26T15:12:58Z</time>
      </trkpt>
      <trkpt lat="43.61689" lon="1.24237">
        <ele>182.2</ele>
        <time>2022-10-26T15:12:59Z</time>
      </trkpt>
      <trkpt lat="43.61687" lon="1.24246">
        <ele>182.2</ele>
        <time>2022-10-26T15:13:00Z</time>
      </trkpt>
      <trkpt lat="43.61685" lon="1.24256">
        <ele>182.2</ele>
        <time>2022-10-26T15:13:01Z</time>
      </trkpt>
      <trkpt lat="43.61684" lon="1.24266">
        <ele>182.2</ele>
        <time>2022-10-26T15:13:02Z</time>
      </trkpt>
      <trkpt lat="43.61682" lon="1.24275">
        <ele>182.2</ele>
        <time>2022-10-26T15:13:03Z</time>
      </trkpt>
      <trkpt lat="43.61681" lon="1.24285">
        <ele>182.2</ele>
        <time>2022-10-26T15:13:04Z</time>
      </trkpt>
      <trkpt lat="43.61679" lon="1.24294">
        <ele>182.2</ele>
        <time>2022-10-26T15:13:05Z</time>
      </trkpt>
      <trkpt lat="43.61677" lon="1.24303">
        <ele>182.2</ele>
        <time>2022-10-26T15:13:06Z</time>
      </trkpt>
      <trkpt lat="43.61675" lon="1.24312">
        <ele>182.4</ele>
        <time>2022-10-26T15:13:07Z</time>
      </trkpt>
      <trkpt lat="43.61673" lon="1.24323">
        <ele>182.4</ele>
        <time>2022-10-26T15:13:08Z</time>
      </trkpt>
      <trkpt lat="43.61672" lon="1.24332">
        <ele>182.4</ele>
        <time>2022-10-26T15:13:09Z</time>
      </trkpt>
      <trkpt lat="43.61671" lon="1.24341">
        <ele>182.4</ele>
        <time>2022-10-26T15:13:10Z</time>
      </trkpt>
      <trkpt lat="43.6167" lon="1.2435">
        <ele>182.4</ele>
        <time>2022-10-26T15:13:11Z</time>
      </trkpt>
      <trkpt lat="43.61668" lon="1.24359">
        <ele>182.4</ele>
        <time>2022-10-26T15:13:12Z</time>
      </trkpt>
      <trkpt lat="43.61666" lon="1.24368">
        <ele>182.4</ele>
        <time>2022-10-26T15:13:13Z</time>
      </trkpt>
      <trkpt lat="43.61665" lon="1.24378">
        <ele>182.6</ele>
        <time>2022-10-26T15:13:14Z</time>
      </trkpt>
      <trkpt lat="43.61663" lon="1.24387">
        <ele>182.6</ele>
        <time>2022-10-26T15:13:15Z</time>
      </trkpt>
      <trkpt lat="43.61661" lon="1.24396">
        <ele>182.6</ele>
        <time>2022-10-26T15:13:16Z</time>
      </trkpt>
      <trkpt lat="43.6166" lon="1.24406">
        <ele>182.4</ele>
        <time>2022-10-26T15:13:17Z</time>
      </trkpt>
      <trkpt lat="43.61658" lon="1.24415">
        <ele>182.4</ele>
        <time>2022-10-26T15:13:18Z</time>
      </trkpt>
      <trkpt lat="43.61657" lon="1.24424">
        <ele>182.4</ele>
        <time>2022-10-26T15:13:19Z</time>
      </trkpt>
      <trkpt lat="43.61655" lon="1.24433">
        <ele>182.4</ele>
        <time>2022-10-26T15:13:20Z</time>
      </trkpt>
      <trkpt lat="43.61654" lon="1.24443">
        <ele>182.4</ele>
        <time>2022-10-26T15:13:21Z</time>
      </trkpt>
      <trkpt lat="43.61652" lon="1.24452">
        <ele>182.4</ele>
        <time>2022-10-26T15:13:22Z</time>
      </trkpt>
      <trkpt lat="43.6165" lon="1.24462">
        <ele>182.4</ele>
        <time>2022-10-26T15:13:23Z</time>
      </trkpt>
      <trkpt lat="43.61649" lon="1.24471">
        <ele>182.4</ele>
        <time>2022-10-26T15:13:24Z</time>
      </trkpt>
      <trkpt lat="43.61647" lon="1.24481">
        <ele>182.4</ele>
        <time>2022-10-26T15:13:25Z</time>
      </trkpt>
      <trkpt lat="43.61645" lon="1.24491">
        <ele>182.4</ele>
        <time>2022-10-26T15:13:26Z</time>
      </trkpt>
      <trkpt lat="43.61642" lon="1.245">
        <ele>182.4</ele>
        <time>2022-10-26T15:13:27Z</time>
      </trkpt>
      <trkpt lat="43.61639" lon="1.24509">
        <ele>182.4</ele>
        <time>2022-10-26T15:13:28Z</time>
      </trkpt>
      <trkpt lat="43.61636" lon="1.24518">
        <ele>182.4</ele>
        <time>2022-10-26T15:13:29Z</time>
      </trkpt>
      <trkpt lat="43.61634" lon="1.24527">
        <ele>182.2</ele>
        <time>2022-10-26T15:13:30Z</time>
      </trkpt>
      <trkpt lat="43.61631" lon="1.24536">
        <ele>182.2</ele>
        <time>2022-10-26T15:13:31Z</time>
      </trkpt>
      <trkpt lat="43.61629" lon="1.24544">
        <ele>182.2</ele>
        <time>2022-10-26T15:13:32Z</time>
      </trkpt>
      <trkpt lat="43.61626" lon="1.24553">
        <ele>182.2</ele>
        <time>2022-10-26T15:13:33Z</time>
      </trkpt>
      <trkpt lat="43.61623" lon="1.24562">
        <ele>182.2</ele>
        <time>2022-10-26T15:13:34Z</time>
      </trkpt>
      <trkpt lat="43.6162" lon="1.2457">
        <ele>182.2</ele>
        <time>2022-10-26T15:13:35Z</time>
      </trkpt>
      <trkpt lat="43.61617" lon="1.24578">
        <ele>182.2</ele>
        <time>2022-10-26T15:13:36Z</time>
      </trkpt>
      <trkpt lat="43.61615" lon="1.24587">
        <ele>182</ele>
        <time>2022-10-26T15:13:37Z</time>
      </trkpt>
      <trkpt lat="43.61612" lon="1.24595">
        <ele>182</ele>
        <time>2022-10-26T15:13:38Z</time>
      </trkpt>
      <trkpt lat="43.6161" lon="1.24603">
        <ele>182</ele>
        <time>2022-10-26T15:13:39Z</time>
      </trkpt>
      <trkpt lat="43.61608" lon="1.24612">
        <ele>182</ele>
        <time>2022-10-26T15:13:40Z</time>
      </trkpt>
      <trkpt lat="43.61606" lon="1.24621">
        <ele>182</ele>
        <time>2022-10-26T15:13:41Z</time>
      </trkpt>
      <trkpt lat="43.61604" lon="1.2463">
        <ele>182</ele>
        <time>2022-10-26T15:13:42Z</time>
      </trkpt>
      <trkpt lat="43.61603" lon="1.24639">
        <ele>182</ele>
        <time>2022-10-26T15:13:43Z</time>
      </trkpt>
      <trkpt lat="43.61601" lon="1.24649">
        <ele>182</ele>
        <time>2022-10-26T15:13:44Z</time>
      </trkpt>
      <trkpt lat="43.616" lon="1.24659">
        <ele>182</ele>
        <time>2022-10-26T15:13:45Z</time>
      </trkpt>
      <trkpt lat="43.61598" lon="1.24669">
        <ele>182</ele>
        <time>2022-10-26T15:13:46Z</time>
      </trkpt>
      <trkpt lat="43.61597" lon="1.24679">
        <ele>181.8</ele>
        <time>2022-10-26T15:13:47Z</time>
      </trkpt>
      <trkpt lat="43.61595" lon="1.2469">
        <ele>181.8</ele>
        <time>2022-10-26T15:13:48Z</time>
      </trkpt>
      <trkpt lat="43.61594" lon="1.24701">
        <ele>181.8</ele>
        <time>2022-10-26T15:13:49Z</time>
      </trkpt>
      <trkpt lat="43.61593" lon="1.24711">
        <ele>181.8</ele>
        <time>2022-10-26T15:13:50Z</time>
      </trkpt>
      <trkpt lat="43.61591" lon="1.24722">
        <ele>181.6</ele>
        <time>2022-10-26T15:13:51Z</time>
      </trkpt>
      <trkpt lat="43.61591" lon="1.24733">
        <ele>181.6</ele>
        <time>2022-10-26T15:13:52Z</time>
      </trkpt>
      <trkpt lat="43.6159" lon="1.24745">
        <ele>181.6</ele>
        <time>2022-10-26T15:13:53Z</time>
      </trkpt>
      <trkpt lat="43.61589" lon="1.24757">
        <ele>181.6</ele>
        <time>2022-10-26T15:13:54Z</time>
      </trkpt>
      <trkpt lat="43.61589" lon="1.24769">
        <ele>181.2</ele>
        <time>2022-10-26T15:13:55Z</time>
      </trkpt>
      <trkpt lat="43.61589" lon="1.24782">
        <ele>181</ele>
        <time>2022-10-26T15:13:56Z</time>
      </trkpt>
      <trkpt lat="43.61589" lon="1.24795">
        <ele>180.6</ele>
        <time>2022-10-26T15:13:57Z</time>
      </trkpt>
      <trkpt lat="43.6159" lon="1.24809">
        <ele>180.4</ele>
        <time>2022-10-26T15:13:58Z</time>
      </trkpt>
      <trkpt lat="43.6159" lon="1.24824">
        <ele>179.8</ele>
        <time>2022-10-26T15:13:59Z</time>
      </trkpt>
      <trkpt lat="43.6159" lon="1.24839">
        <ele>179.2</ele>
        <time>2022-10-26T15:14:00Z</time>
      </trkpt>
      <trkpt lat="43.61588" lon="1.24854">
        <ele>178.8</ele>
        <time>2022-10-26T15:14:01Z</time>
      </trkpt>
      <trkpt lat="43.61586" lon="1.24869">
        <ele>178.2</ele>
        <time>2022-10-26T15:14:02Z</time>
      </trkpt>
      <trkpt lat="43.61584" lon="1.24883">
        <ele>177.8</ele>
        <time>2022-10-26T15:14:03Z</time>
      </trkpt>
      <trkpt lat="43.61581" lon="1.24897">
        <ele>177</ele>
        <time>2022-10-26T15:14:04Z</time>
      </trkpt>
      <trkpt lat="43.61578" lon="1.24911">
        <ele>176.4</ele>
        <time>2022-10-26T15:14:05Z</time>
      </trkpt>
      <trkpt lat="43.61575" lon="1.24924">
        <ele>175.6</ele>
        <time>2022-10-26T15:14:06Z</time>
      </trkpt>
      <trkpt lat="43.61571" lon="1.24937">
        <ele>174.6</ele>
        <time>2022-10-26T15:14:07Z</time>
      </trkpt>
      <trkpt lat="43.61568" lon="1.24949">
        <ele>174.4</ele>
        <time>2022-10-26T15:14:08Z</time>
      </trkpt>
      <trkpt lat="43.61565" lon="1.2496">
        <ele>173.8</ele>
        <time>2022-10-26T15:14:09Z</time>
      </trkpt>
      <trkpt lat="43.61562" lon="1.24971">
        <ele>173.6</ele>
        <time>2022-10-26T15:14:10Z</time>
      </trkpt>
      <trkpt lat="43.6156" lon="1.24981">
        <ele>173</ele>
        <time>2022-10-26T15:14:11Z</time>
      </trkpt>
      <trkpt lat="43.61559" lon="1.2499">
        <ele>172.8</ele>
        <time>2022-10-26T15:14:12Z</time>
      </trkpt>
      <trkpt lat="43.61557" lon="1.24996">
        <ele>172.6</ele>
        <time>2022-10-26T15:14:13Z</time>
      </trkpt>
      <trkpt lat="43.61556" lon="1.25001">
        <ele>172.2</ele>
        <time>2022-10-26T15:14:14Z</time>
      </trkpt>
      <trkpt lat="43.61554" lon="1.25005">
        <ele>172</ele>
        <time>2022-10-26T15:14:15Z</time>
      </trkpt>
      <trkpt lat="43.61553" lon="1.2501">
        <ele>171.8</ele>
        <time>2022-10-26T15:14:16Z</time>
      </trkpt>
      <trkpt lat="43.61552" lon="1.25015">
        <ele>171.8</ele>
        <time>2022-10-26T15:14:17Z</time>
      </trkpt>
      <trkpt lat="43.61552" lon="1.25021">
        <ele>171.6</ele>
        <time>2022-10-26T15:14:18Z</time>
      </trkpt>
      <trkpt lat="43.61552" lon="1.25028">
        <ele>171.6</ele>
        <time>2022-10-26T15:14:19Z</time>
      </trkpt>
      <trkpt lat="43.61553" lon="1.25034">
        <ele>171.6</ele>
        <time>2022-10-26T15:14:20Z</time>
      </trkpt>
      <trkpt lat="43.61555" lon="1.25042">
        <ele>171.4</ele>
        <time>2022-10-26T15:14:21Z</time>
      </trkpt>
      <trkpt lat="43.61557" lon="1.25051">
        <ele>171.4</ele>
        <time>2022-10-26T15:14:22Z</time>
      </trkpt>
      <trkpt lat="43.61561" lon="1.25061">
        <ele>171.4</ele>
        <time>2022-10-26T15:14:23Z</time>
      </trkpt>
      <trkpt lat="43.61565" lon="1.2507">
        <ele>171.4</ele>
        <time>2022-10-26T15:14:24Z</time>
      </trkpt>
      <trkpt lat="43.61568" lon="1.2508">
        <ele>171</ele>
        <time>2022-10-26T15:14:25Z</time>
      </trkpt>
      <trkpt lat="43.61571" lon="1.2509">
        <ele>170.8</ele>
        <time>2022-10-26T15:14:26Z</time>
      </trkpt>
      <trkpt lat="43.61574" lon="1.251">
        <ele>170.6</ele>
        <time>2022-10-26T15:14:27Z</time>
      </trkpt>
      <trkpt lat="43.61577" lon="1.25111">
        <ele>170.2</ele>
        <time>2022-10-26T15:14:28Z</time>
      </trkpt>
      <trkpt lat="43.61578" lon="1.25122">
        <ele>170</ele>
        <time>2022-10-26T15:14:29Z</time>
      </trkpt>
      <trkpt lat="43.61578" lon="1.25133">
        <ele>169.6</ele>
        <time>2022-10-26T15:14:30Z</time>
      </trkpt>
      <trkpt lat="43.61577" lon="1.25145">
        <ele>169.2</ele>
        <time>2022-10-26T15:14:31Z</time>
      </trkpt>
      <trkpt lat="43.61576" lon="1.25156">
        <ele>168.8</ele>
        <time>2022-10-26T15:14:32Z</time>
      </trkpt>
      <trkpt lat="43.61573" lon="1.25167">
        <ele>168.4</ele>
        <time>2022-10-26T15:14:33Z</time>
      </trkpt>
      <trkpt lat="43.61571" lon="1.25178">
        <ele>168.2</ele>
        <time>2022-10-26T15:14:34Z</time>
      </trkpt>
      <trkpt lat="43.61568" lon="1.25189">
        <ele>168</ele>
        <time>2022-10-26T15:14:35Z</time>
      </trkpt>
      <trkpt lat="43.61566" lon="1.25199">
        <ele>168</ele>
        <time>2022-10-26T15:14:36Z</time>
      </trkpt>
      <trkpt lat="43.61564" lon="1.2521">
        <ele>167.6</ele>
        <time>2022-10-26T15:14:37Z</time>
      </trkpt>
      <trkpt lat="43.61563" lon="1.25221">
        <ele>167.4</ele>
        <time>2022-10-26T15:14:38Z</time>
      </trkpt>
      <trkpt lat="43.61561" lon="1.25232">
        <ele>167.2</ele>
        <time>2022-10-26T15:14:39Z</time>
      </trkpt>
      <trkpt lat="43.6156" lon="1.25243">
        <ele>166.8</ele>
        <time>2022-10-26T15:14:40Z</time>
      </trkpt>
      <trkpt lat="43.61558" lon="1.25254">
        <ele>166.6</ele>
        <time>2022-10-26T15:14:41Z</time>
      </trkpt>
      <trkpt lat="43.61557" lon="1.25265">
        <ele>166.2</ele>
        <time>2022-10-26T15:14:42Z</time>
      </trkpt>
      <trkpt lat="43.61556" lon="1.25277">
        <ele>166.2</ele>
        <time>2022-10-26T15:14:43Z</time>
      </trkpt>
      <trkpt lat="43.61555" lon="1.25288">
        <ele>165.8</ele>
        <time>2022-10-26T15:14:44Z</time>
      </trkpt>
      <trkpt lat="43.61554" lon="1.25299">
        <ele>165.6</ele>
        <time>2022-10-26T15:14:45Z</time>
      </trkpt>
      <trkpt lat="43.61554" lon="1.25311">
        <ele>165.2</ele>
        <time>2022-10-26T15:14:46Z</time>
      </trkpt>
      <trkpt lat="43.61555" lon="1.25322">
        <ele>165</ele>
        <time>2022-10-26T15:14:47Z</time>
      </trkpt>
      <trkpt lat="43.61554" lon="1.25333">
        <ele>165</ele>
        <time>2022-10-26T15:14:48Z</time>
      </trkpt>
      <trkpt lat="43.61554" lon="1.25345">
        <ele>164.8</ele>
        <time>2022-10-26T15:14:49Z</time>
      </trkpt>
      <trkpt lat="43.61554" lon="1.25356">
        <ele>164.6</ele>
        <time>2022-10-26T15:14:50Z</time>
      </trkpt>
      <trkpt lat="43.61554" lon="1.25368">
        <ele>164.4</ele>
        <time>2022-10-26T15:14:51Z</time>
      </trkpt>
      <trkpt lat="43.61553" lon="1.25379">
        <ele>164.2</ele>
        <time>2022-10-26T15:14:52Z</time>
      </trkpt>
      <trkpt lat="43.61553" lon="1.2539">
        <ele>164.2</ele>
        <time>2022-10-26T15:14:53Z</time>
      </trkpt>
      <trkpt lat="43.61554" lon="1.25402">
        <ele>163.6</ele>
        <time>2022-10-26T15:14:54Z</time>
      </trkpt>
      <trkpt lat="43.61555" lon="1.25413">
        <ele>163.4</ele>
        <time>2022-10-26T15:14:55Z</time>
      </trkpt>
      <trkpt lat="43.61556" lon="1.25424">
        <ele>163.2</ele>
        <time>2022-10-26T15:14:56Z</time>
      </trkpt>
      <trkpt lat="43.61557" lon="1.25436">
        <ele>163.2</ele>
        <time>2022-10-26T15:14:57Z</time>
      </trkpt>
      <trkpt lat="43.61559" lon="1.25447">
        <ele>163</ele>
        <time>2022-10-26T15:14:58Z</time>
      </trkpt>
      <trkpt lat="43.6156" lon="1.25458">
        <ele>162.8</ele>
        <time>2022-10-26T15:14:59Z</time>
      </trkpt>
      <trkpt lat="43.61562" lon="1.25469">
        <ele>162.6</ele>
        <time>2022-10-26T15:15:00Z</time>
      </trkpt>
      <trkpt lat="43.61563" lon="1.25481">
        <ele>162.6</ele>
        <time>2022-10-26T15:15:01Z</time>
      </trkpt>
      <trkpt lat="43.61564" lon="1.25493">
        <ele>162.4</ele>
        <time>2022-10-26T15:15:02Z</time>
      </trkpt>
      <trkpt lat="43.61565" lon="1.25515">
        <ele>162.2</ele>
        <time>2022-10-26T15:15:03Z</time>
      </trkpt>
      <trkpt lat="43.61565" lon="1.25515">
        <ele>162.2</ele>
        <time>2022-10-26T15:15:04Z</time>
      </trkpt>
      <trkpt lat="43.61565" lon="1.25529">
        <ele>162.2</ele>
        <time>2022-10-26T15:15:05Z</time>
      </trkpt>
      <trkpt lat="43.61565" lon="1.2554">
        <ele>162</ele>
        <time>2022-10-26T15:15:06Z</time>
      </trkpt>
      <trkpt lat="43.61564" lon="1.25551">
        <ele>162</ele>
        <time>2022-10-26T15:15:07Z</time>
      </trkpt>
      <trkpt lat="43.61564" lon="1.2556">
        <ele>162</ele>
        <time>2022-10-26T15:15:08Z</time>
      </trkpt>
      <trkpt lat="43.61564" lon="1.25584">
        <ele>161.8</ele>
        <time>2022-10-26T15:15:09Z</time>
      </trkpt>
      <trkpt lat="43.61564" lon="1.25595">
        <ele>161.8</ele>
        <time>2022-10-26T15:15:10Z</time>
      </trkpt>
      <trkpt lat="43.61565" lon="1.25606">
        <ele>161.6</ele>
        <time>2022-10-26T15:15:11Z</time>
      </trkpt>
      <trkpt lat="43.61565" lon="1.25606">
        <ele>161.6</ele>
        <time>2022-10-26T15:15:12Z</time>
      </trkpt>
      <trkpt lat="43.61567" lon="1.25613">
        <ele>161.4</ele>
        <time>2022-10-26T15:15:13Z</time>
      </trkpt>
      <trkpt lat="43.61571" lon="1.25636">
        <ele>161.4</ele>
        <time>2022-10-26T15:15:14Z</time>
      </trkpt>
      <trkpt lat="43.61573" lon="1.25645">
        <ele>161.4</ele>
        <time>2022-10-26T15:15:15Z</time>
      </trkpt>
      <trkpt lat="43.61573" lon="1.25645">
        <ele>161.2</ele>
        <time>2022-10-26T15:15:16Z</time>
      </trkpt>
      <trkpt lat="43.61578" lon="1.25662">
        <ele>161.2</ele>
        <time>2022-10-26T15:15:17Z</time>
      </trkpt>
      <trkpt lat="43.61578" lon="1.25662">
        <ele>161.2</ele>
        <time>2022-10-26T15:15:18Z</time>
      </trkpt>
      <trkpt lat="43.61584" lon="1.25681">
        <ele>161.2</ele>
        <time>2022-10-26T15:15:19Z</time>
      </trkpt>
      <trkpt lat="43.61584" lon="1.25681">
        <ele>161.2</ele>
        <time>2022-10-26T15:15:20Z</time>
      </trkpt>
      <trkpt lat="43.61587" lon="1.25691">
        <ele>161.2</ele>
        <time>2022-10-26T15:15:21Z</time>
      </trkpt>
      <trkpt lat="43.61592" lon="1.25706">
        <ele>161.2</ele>
        <time>2022-10-26T15:15:22Z</time>
      </trkpt>
      <trkpt lat="43.61592" lon="1.25706">
        <ele>161.2</ele>
        <time>2022-10-26T15:15:23Z</time>
      </trkpt>
      <trkpt lat="43.61594" lon="1.25712">
        <ele>161.2</ele>
        <time>2022-10-26T15:15:24Z</time>
      </trkpt>
      <trkpt lat="43.616" lon="1.25729">
        <ele>161.2</ele>
        <time>2022-10-26T15:15:25Z</time>
      </trkpt>
      <trkpt lat="43.61603" lon="1.25737">
        <ele>161.2</ele>
        <time>2022-10-26T15:15:26Z</time>
      </trkpt>
      <trkpt lat="43.61605" lon="1.25744">
        <ele>161.4</ele>
        <time>2022-10-26T15:15:27Z</time>
      </trkpt>
      <trkpt lat="43.61608" lon="1.25753">
        <ele>161.4</ele>
        <time>2022-10-26T15:15:28Z</time>
      </trkpt>
      <trkpt lat="43.61611" lon="1.25761">
        <ele>161.6</ele>
        <time>2022-10-26T15:15:29Z</time>
      </trkpt>
      <trkpt lat="43.61611" lon="1.25761">
        <ele>161.6</ele>
        <time>2022-10-26T15:15:30Z</time>
      </trkpt>
      <trkpt lat="43.61614" lon="1.25769">
        <ele>161.6</ele>
        <time>2022-10-26T15:15:31Z</time>
      </trkpt>
      <trkpt lat="43.6162" lon="1.25783">
        <ele>161.8</ele>
        <time>2022-10-26T15:15:32Z</time>
      </trkpt>
      <trkpt lat="43.61623" lon="1.25791">
        <ele>161.8</ele>
        <time>2022-10-26T15:15:33Z</time>
      </trkpt>
      <trkpt lat="43.61623" lon="1.25791">
        <ele>162</ele>
        <time>2022-10-26T15:15:34Z</time>
      </trkpt>
      <trkpt lat="43.61629" lon="1.25806">
        <ele>162</ele>
        <time>2022-10-26T15:15:35Z</time>
      </trkpt>
      <trkpt lat="43.61632" lon="1.25813">
        <ele>162.2</ele>
        <time>2022-10-26T15:15:36Z</time>
      </trkpt>
      <trkpt lat="43.61632" lon="1.25813">
        <ele>162.2</ele>
        <time>2022-10-26T15:15:37Z</time>
      </trkpt>
      <trkpt lat="43.61633" lon="1.25818">
        <ele>162.2</ele>
        <time>2022-10-26T15:15:38Z</time>
      </trkpt>
      <trkpt lat="43.61636" lon="1.25832">
        <ele>162.4</ele>
        <time>2022-10-26T15:15:39Z</time>
      </trkpt>
      <trkpt lat="43.61637" lon="1.25837">
        <ele>162.4</ele>
        <time>2022-10-26T15:15:40Z</time>
      </trkpt>
      <trkpt lat="43.61637" lon="1.25837">
        <ele>162.2</ele>
        <time>2022-10-26T15:15:41Z</time>
      </trkpt>
      <trkpt lat="43.61638" lon="1.25841">
        <ele>162.4</ele>
        <time>2022-10-26T15:15:42Z</time>
      </trkpt>
      <trkpt lat="43.61639" lon="1.2585">
        <ele>162.6</ele>
        <time>2022-10-26T15:15:43Z</time>
      </trkpt>
      <trkpt lat="43.61639" lon="1.25852">
        <ele>162.6</ele>
        <time>2022-10-26T15:15:44Z</time>
      </trkpt>
      <trkpt lat="43.61639" lon="1.25852">
        <ele>162.8</ele>
        <time>2022-10-26T15:15:45Z</time>
      </trkpt>
      <trkpt lat="43.61638" lon="1.25856">
        <ele>163</ele>
        <time>2022-10-26T15:15:46Z</time>
      </trkpt>
      <trkpt lat="43.61638" lon="1.25856">
        <ele>163</ele>
        <time>2022-10-26T15:15:47Z</time>
      </trkpt>
      <trkpt lat="43.61637" lon="1.25859">
        <ele>163.4</ele>
        <time>2022-10-26T15:15:48Z</time>
      </trkpt>
      <trkpt lat="43.61636" lon="1.2586">
        <ele>163.6</ele>
        <time>2022-10-26T15:15:49Z</time>
      </trkpt>
      <trkpt lat="43.61636" lon="1.25862">
        <ele>163.8</ele>
        <time>2022-10-26T15:15:50Z</time>
      </trkpt>
      <trkpt lat="43.61636" lon="1.25862">
        <ele>163.8</ele>
        <time>2022-10-26T15:15:51Z</time>
      </trkpt>
      <trkpt lat="43.61638" lon="1.25867">
        <ele>164</ele>
        <time>2022-10-26T15:15:52Z</time>
      </trkpt>
      <trkpt lat="43.6164" lon="1.2587">
        <ele>164.2</ele>
        <time>2022-10-26T15:15:53Z</time>
      </trkpt>
      <trkpt lat="43.61641" lon="1.25874">
        <ele>164.2</ele>
        <time>2022-10-26T15:15:54Z</time>
      </trkpt>
      <trkpt lat="43.61641" lon="1.25874">
        <ele>164.4</ele>
        <time>2022-10-26T15:15:55Z</time>
      </trkpt>
      <trkpt lat="43.61646" lon="1.25886">
        <ele>164.4</ele>
        <time>2022-10-26T15:15:56Z</time>
      </trkpt>
      <trkpt lat="43.61648" lon="1.25893">
        <ele>164.4</ele>
        <time>2022-10-26T15:15:57Z</time>
      </trkpt>
      <trkpt lat="43.6165" lon="1.25901">
        <ele>164.4</ele>
        <time>2022-10-26T15:15:58Z</time>
      </trkpt>
      <trkpt lat="43.61653" lon="1.25909">
        <ele>164.6</ele>
        <time>2022-10-26T15:15:59Z</time>
      </trkpt>
      <trkpt lat="43.61656" lon="1.25916">
        <ele>164.8</ele>
        <time>2022-10-26T15:16:00Z</time>
      </trkpt>
      <trkpt lat="43.6166" lon="1.25926">
        <ele>165</ele>
        <time>2022-10-26T15:16:01Z</time>
      </trkpt>
      <trkpt lat="43.61663" lon="1.25932">
        <ele>165</ele>
        <time>2022-10-26T15:16:02Z</time>
      </trkpt>
      <trkpt lat="43.61666" lon="1.2594">
        <ele>164.8</ele>
        <time>2022-10-26T15:16:03Z</time>
      </trkpt>
      <trkpt lat="43.6167" lon="1.25949">
        <ele>164.6</ele>
        <time>2022-10-26T15:16:04Z</time>
      </trkpt>
      <trkpt lat="43.61674" lon="1.25956">
        <ele>164.6</ele>
        <time>2022-10-26T15:16:05Z</time>
      </trkpt>
      <trkpt lat="43.6168" lon="1.25965">
        <ele>164.4</ele>
        <time>2022-10-26T15:16:06Z</time>
      </trkpt>
      <trkpt lat="43.6168" lon="1.25965">
        <ele>164.2</ele>
        <time>2022-10-26T15:16:07Z</time>
      </trkpt>
      <trkpt lat="43.61684" lon="1.25971">
        <ele>164.2</ele>
        <time>2022-10-26T15:16:08Z</time>
      </trkpt>
      <trkpt lat="43.61691" lon="1.25978">
        <ele>164</ele>
        <time>2022-10-26T15:16:09Z</time>
      </trkpt>
      <trkpt lat="43.61702" lon="1.25988">
        <ele>163.8</ele>
        <time>2022-10-26T15:16:10Z</time>
      </trkpt>
      <trkpt lat="43.61702" lon="1.25988">
        <ele>163.4</ele>
        <time>2022-10-26T15:16:11Z</time>
      </trkpt>
      <trkpt lat="43.61714" lon="1.26006">
        <ele>163</ele>
        <time>2022-10-26T15:16:12Z</time>
      </trkpt>
      <trkpt lat="43.61714" lon="1.26006">
        <ele>162.4</ele>
        <time>2022-10-26T15:16:13Z</time>
      </trkpt>
      <trkpt lat="43.61722" lon="1.26022">
        <ele>162.2</ele>
        <time>2022-10-26T15:16:14Z</time>
      </trkpt>
      <trkpt lat="43.61722" lon="1.26022">
        <ele>162</ele>
        <time>2022-10-26T15:16:15Z</time>
      </trkpt>
      <trkpt lat="43.61728" lon="1.26033">
        <ele>161.8</ele>
        <time>2022-10-26T15:16:16Z</time>
      </trkpt>
      <trkpt lat="43.61735" lon="1.26052">
        <ele>161.6</ele>
        <time>2022-10-26T15:16:17Z</time>
      </trkpt>
      <trkpt lat="43.61737" lon="1.26061">
        <ele>161.2</ele>
        <time>2022-10-26T15:16:18Z</time>
      </trkpt>
      <trkpt lat="43.61739" lon="1.26068">
        <ele>161.2</ele>
        <time>2022-10-26T15:16:19Z</time>
      </trkpt>
      <trkpt lat="43.61741" lon="1.26079">
        <ele>161</ele>
        <time>2022-10-26T15:16:20Z</time>
      </trkpt>
      <trkpt lat="43.61743" lon="1.26087">
        <ele>160.6</ele>
        <time>2022-10-26T15:16:21Z</time>
      </trkpt>
      <trkpt lat="43.61745" lon="1.26094">
        <ele>160.4</ele>
        <time>2022-10-26T15:16:22Z</time>
      </trkpt>
      <trkpt lat="43.61747" lon="1.26102">
        <ele>160</ele>
        <time>2022-10-26T15:16:23Z</time>
      </trkpt>
      <trkpt lat="43.6175" lon="1.2611">
        <ele>159.8</ele>
        <time>2022-10-26T15:16:24Z</time>
      </trkpt>
      <trkpt lat="43.61752" lon="1.26117">
        <ele>159.6</ele>
        <time>2022-10-26T15:16:25Z</time>
      </trkpt>
      <trkpt lat="43.61752" lon="1.26117">
        <ele>159.4</ele>
        <time>2022-10-26T15:16:26Z</time>
      </trkpt>
      <trkpt lat="43.61757" lon="1.26132">
        <ele>159.2</ele>
        <time>2022-10-26T15:16:27Z</time>
      </trkpt>
      <trkpt lat="43.61759" lon="1.2614">
        <ele>159</ele>
        <time>2022-10-26T15:16:28Z</time>
      </trkpt>
      <trkpt lat="43.61761" lon="1.26146">
        <ele>158.8</ele>
        <time>2022-10-26T15:16:29Z</time>
      </trkpt>
      <trkpt lat="43.61763" lon="1.26156">
        <ele>158.6</ele>
        <time>2022-10-26T15:16:30Z</time>
      </trkpt>
      <trkpt lat="43.61765" lon="1.26165">
        <ele>158.6</ele>
        <time>2022-10-26T15:16:31Z</time>
      </trkpt>
      <trkpt lat="43.61765" lon="1.26173">
        <ele>158.4</ele>
        <time>2022-10-26T15:16:32Z</time>
      </trkpt>
      <trkpt lat="43.61766" lon="1.2618">
        <ele>158.2</ele>
        <time>2022-10-26T15:16:33Z</time>
      </trkpt>
      <trkpt lat="43.61766" lon="1.2618">
        <ele>158</ele>
        <time>2022-10-26T15:16:34Z</time>
      </trkpt>
      <trkpt lat="43.61766" lon="1.26199">
        <ele>157.8</ele>
        <time>2022-10-26T15:16:35Z</time>
      </trkpt>
      <trkpt lat="43.61766" lon="1.26208">
        <ele>157.8</ele>
        <time>2022-10-26T15:16:36Z</time>
      </trkpt>
      <trkpt lat="43.61766" lon="1.26208">
        <ele>157.8</ele>
        <time>2022-10-26T15:16:37Z</time>
      </trkpt>
      <trkpt lat="43.61768" lon="1.26223">
        <ele>157.8</ele>
        <time>2022-10-26T15:16:38Z</time>
      </trkpt>
      <trkpt lat="43.61769" lon="1.26233">
        <ele>157.8</ele>
        <time>2022-10-26T15:16:39Z</time>
      </trkpt>
      <trkpt lat="43.61771" lon="1.26241">
        <ele>157.8</ele>
        <time>2022-10-26T15:16:40Z</time>
      </trkpt>
      <trkpt lat="43.61773" lon="1.26249">
        <ele>157.8</ele>
        <time>2022-10-26T15:16:41Z</time>
      </trkpt>
      <trkpt lat="43.61775" lon="1.26256">
        <ele>157.6</ele>
        <time>2022-10-26T15:16:42Z</time>
      </trkpt>
      <trkpt lat="43.61777" lon="1.26264">
        <ele>157.4</ele>
        <time>2022-10-26T15:16:43Z</time>
      </trkpt>
      <trkpt lat="43.61779" lon="1.26273">
        <ele>157.4</ele>
        <time>2022-10-26T15:16:44Z</time>
      </trkpt>
      <trkpt lat="43.61781" lon="1.26281">
        <ele>157.4</ele>
        <time>2022-10-26T15:16:45Z</time>
      </trkpt>
      <trkpt lat="43.61783" lon="1.2629">
        <ele>157.4</ele>
        <time>2022-10-26T15:16:46Z</time>
      </trkpt>
      <trkpt lat="43.61785" lon="1.26296">
        <ele>157.4</ele>
        <time>2022-10-26T15:16:47Z</time>
      </trkpt>
      <trkpt lat="43.61787" lon="1.26305">
        <ele>157.4</ele>
        <time>2022-10-26T15:16:48Z</time>
      </trkpt>
      <trkpt lat="43.61787" lon="1.26305">
        <ele>157.2</ele>
        <time>2022-10-26T15:16:49Z</time>
      </trkpt>
      <trkpt lat="43.61791" lon="1.26324">
        <ele>157.2</ele>
        <time>2022-10-26T15:16:50Z</time>
      </trkpt>
      <trkpt lat="43.61794" lon="1.26332">
        <ele>157.2</ele>
        <time>2022-10-26T15:16:51Z</time>
      </trkpt>
      <trkpt lat="43.61796" lon="1.26341">
        <ele>157.2</ele>
        <time>2022-10-26T15:16:52Z</time>
      </trkpt>
      <trkpt lat="43.61798" lon="1.2635">
        <ele>157.2</ele>
        <time>2022-10-26T15:16:53Z</time>
      </trkpt>
      <trkpt lat="43.618" lon="1.26359">
        <ele>157.2</ele>
        <time>2022-10-26T15:16:54Z</time>
      </trkpt>
      <trkpt lat="43.61802" lon="1.26368">
        <ele>157</ele>
        <time>2022-10-26T15:16:55Z</time>
      </trkpt>
      <trkpt lat="43.61804" lon="1.26377">
        <ele>157</ele>
        <time>2022-10-26T15:16:56Z</time>
      </trkpt>
      <trkpt lat="43.61806" lon="1.26385">
        <ele>156.8</ele>
        <time>2022-10-26T15:16:57Z</time>
      </trkpt>
      <trkpt lat="43.61807" lon="1.26392">
        <ele>156.8</ele>
        <time>2022-10-26T15:16:58Z</time>
      </trkpt>
      <trkpt lat="43.6181" lon="1.26403">
        <ele>156.8</ele>
        <time>2022-10-26T15:16:59Z</time>
      </trkpt>
      <trkpt lat="43.61812" lon="1.26412">
        <ele>156.6</ele>
        <time>2022-10-26T15:17:00Z</time>
      </trkpt>
      <trkpt lat="43.61814" lon="1.26421">
        <ele>156.6</ele>
        <time>2022-10-26T15:17:01Z</time>
      </trkpt>
      <trkpt lat="43.61816" lon="1.26428">
        <ele>156.6</ele>
        <time>2022-10-26T15:17:02Z</time>
      </trkpt>
      <trkpt lat="43.61819" lon="1.26438">
        <ele>156.4</ele>
        <time>2022-10-26T15:17:03Z</time>
      </trkpt>
      <trkpt lat="43.6182" lon="1.26445">
        <ele>156.4</ele>
        <time>2022-10-26T15:17:04Z</time>
      </trkpt>
      <trkpt lat="43.61823" lon="1.26456">
        <ele>156.4</ele>
        <time>2022-10-26T15:17:05Z</time>
      </trkpt>
      <trkpt lat="43.61823" lon="1.26456">
        <ele>156.2</ele>
        <time>2022-10-26T15:17:06Z</time>
      </trkpt>
      <trkpt lat="43.61826" lon="1.26472">
        <ele>156.2</ele>
        <time>2022-10-26T15:17:07Z</time>
      </trkpt>
      <trkpt lat="43.61829" lon="1.26482">
        <ele>156.2</ele>
        <time>2022-10-26T15:17:08Z</time>
      </trkpt>
      <trkpt lat="43.61831" lon="1.26491">
        <ele>156.2</ele>
        <time>2022-10-26T15:17:09Z</time>
      </trkpt>
      <trkpt lat="43.61832" lon="1.26499">
        <ele>156.2</ele>
        <time>2022-10-26T15:17:10Z</time>
      </trkpt>
      <trkpt lat="43.61833" lon="1.26506">
        <ele>156.2</ele>
        <time>2022-10-26T15:17:11Z</time>
      </trkpt>
      <trkpt lat="43.61835" lon="1.26516">
        <ele>156.4</ele>
        <time>2022-10-26T15:17:12Z</time>
      </trkpt>
      <trkpt lat="43.61835" lon="1.26516">
        <ele>156.4</ele>
        <time>2022-10-26T15:17:13Z</time>
      </trkpt>
      <trkpt lat="43.61836" lon="1.2653">
        <ele>156.4</ele>
        <time>2022-10-26T15:17:14Z</time>
      </trkpt>
      <trkpt lat="43.61837" lon="1.26535">
        <ele>156.4</ele>
        <time>2022-10-26T15:17:15Z</time>
      </trkpt>
      <trkpt lat="43.61838" lon="1.26538">
        <ele>156.4</ele>
        <time>2022-10-26T15:17:16Z</time>
      </trkpt>
      <trkpt lat="43.61838" lon="1.26538">
        <ele>156.4</ele>
        <time>2022-10-26T15:17:17Z</time>
      </trkpt>
      <trkpt lat="43.61841" lon="1.26538">
        <ele>156.4</ele>
        <time>2022-10-26T15:17:18Z</time>
      </trkpt>
      <trkpt lat="43.61843" lon="1.26535">
        <ele>156.4</ele>
        <time>2022-10-26T15:17:19Z</time>
      </trkpt>
      <trkpt lat="43.61844" lon="1.26532">
        <ele>156.6</ele>
        <time>2022-10-26T15:17:20Z</time>
      </trkpt>
      <trkpt lat="43.61846" lon="1.26526">
        <ele>156.6</ele>
        <time>2022-10-26T15:17:21Z</time>
      </trkpt>
      <trkpt lat="43.61848" lon="1.26521">
        <ele>156.6</ele>
        <time>2022-10-26T15:17:22Z</time>
      </trkpt>
      <trkpt lat="43.61849" lon="1.26515">
        <ele>156.6</ele>
        <time>2022-10-26T15:17:23Z</time>
      </trkpt>
      <trkpt lat="43.61851" lon="1.2651">
        <ele>156.6</ele>
        <time>2022-10-26T15:17:24Z</time>
      </trkpt>
      <trkpt lat="43.61852" lon="1.26504">
        <ele>156.6</ele>
        <time>2022-10-26T15:17:25Z</time>
      </trkpt>
      <trkpt lat="43.61855" lon="1.26497">
        <ele>156.6</ele>
        <time>2022-10-26T15:17:26Z</time>
      </trkpt>
      <trkpt lat="43.61857" lon="1.26488">
        <ele>156.6</ele>
        <time>2022-10-26T15:17:27Z</time>
      </trkpt>
      <trkpt lat="43.61859" lon="1.2648">
        <ele>156.4</ele>
        <time>2022-10-26T15:17:28Z</time>
      </trkpt>
      <trkpt lat="43.61861" lon="1.26473">
        <ele>156.4</ele>
        <time>2022-10-26T15:17:29Z</time>
      </trkpt>
      <trkpt lat="43.61861" lon="1.26468">
        <ele>156.4</ele>
        <time>2022-10-26T15:17:30Z</time>
      </trkpt>
      <trkpt lat="43.61861" lon="1.26468">
        <ele>156.4</ele>
        <time>2022-10-26T15:17:31Z</time>
      </trkpt>
      <trkpt lat="43.61864" lon="1.26457">
        <ele>156.2</ele>
        <time>2022-10-26T15:17:32Z</time>
      </trkpt>
      <trkpt lat="43.61865" lon="1.26454">
        <ele>156.2</ele>
        <time>2022-10-26T15:17:33Z</time>
      </trkpt>
      <trkpt lat="43.61867" lon="1.26451">
        <ele>156.2</ele>
        <time>2022-10-26T15:17:34Z</time>
      </trkpt>
      <trkpt lat="43.61868" lon="1.26448">
        <ele>156.2</ele>
        <time>2022-10-26T15:17:35Z</time>
      </trkpt>
      <trkpt lat="43.61869" lon="1.26441">
        <ele>156.2</ele>
        <time>2022-10-26T15:17:36Z</time>
      </trkpt>
      <trkpt lat="43.6187" lon="1.26435">
        <ele>156</ele>
        <time>2022-10-26T15:17:37Z</time>
      </trkpt>
      <trkpt lat="43.61871" lon="1.26429">
        <ele>156</ele>
        <time>2022-10-26T15:17:38Z</time>
      </trkpt>
      <trkpt lat="43.61872" lon="1.26421">
        <ele>156</ele>
        <time>2022-10-26T15:17:39Z</time>
      </trkpt>
      <trkpt lat="43.61873" lon="1.26415">
        <ele>156</ele>
        <time>2022-10-26T15:17:40Z</time>
      </trkpt>
      <trkpt lat="43.61874" lon="1.26408">
        <ele>156</ele>
        <time>2022-10-26T15:17:41Z</time>
      </trkpt>
      <trkpt lat="43.61875" lon="1.26402">
        <ele>156</ele>
        <time>2022-10-26T15:17:42Z</time>
      </trkpt>
      <trkpt lat="43.61877" lon="1.26394">
        <ele>156</ele>
        <time>2022-10-26T15:17:43Z</time>
      </trkpt>
      <trkpt lat="43.61878" lon="1.26387">
        <ele>156</ele>
        <time>2022-10-26T15:17:44Z</time>
      </trkpt>
      <trkpt lat="43.61881" lon="1.26378">
        <ele>156</ele>
        <time>2022-10-26T15:17:45Z</time>
      </trkpt>
      <trkpt lat="43.61885" lon="1.2637">
        <ele>156</ele>
        <time>2022-10-26T15:17:46Z</time>
      </trkpt>
      <trkpt lat="43.61888" lon="1.26363">
        <ele>156</ele>
        <time>2022-10-26T15:17:47Z</time>
      </trkpt>
      <trkpt lat="43.61891" lon="1.26358">
        <ele>156</ele>
        <time>2022-10-26T15:17:48Z</time>
      </trkpt>
      <trkpt lat="43.61894" lon="1.26354">
        <ele>156</ele>
        <time>2022-10-26T15:17:49Z</time>
      </trkpt>
      <trkpt lat="43.61894" lon="1.26354">
        <ele>156</ele>
        <time>2022-10-26T15:17:50Z</time>
      </trkpt>
      <trkpt lat="43.61903" lon="1.26344">
        <ele>156</ele>
        <time>2022-10-26T15:17:51Z</time>
      </trkpt>
      <trkpt lat="43.61907" lon="1.26338">
        <ele>156</ele>
        <time>2022-10-26T15:17:52Z</time>
      </trkpt>
      <trkpt lat="43.61912" lon="1.26334">
        <ele>156</ele>
        <time>2022-10-26T15:17:53Z</time>
      </trkpt>
      <trkpt lat="43.61916" lon="1.2633">
        <ele>156</ele>
        <time>2022-10-26T15:17:54Z</time>
      </trkpt>
      <trkpt lat="43.61922" lon="1.26325">
        <ele>156</ele>
        <time>2022-10-26T15:17:55Z</time>
      </trkpt>
      <trkpt lat="43.61927" lon="1.2632">
        <ele>156</ele>
        <time>2022-10-26T15:17:56Z</time>
      </trkpt>
      <trkpt lat="43.61932" lon="1.26315">
        <ele>156</ele>
        <time>2022-10-26T15:17:57Z</time>
      </trkpt>
      <trkpt lat="43.61938" lon="1.2631">
        <ele>156</ele>
        <time>2022-10-26T15:17:58Z</time>
      </trkpt>
      <trkpt lat="43.61938" lon="1.2631">
        <ele>156</ele>
        <time>2022-10-26T15:17:59Z</time>
      </trkpt>
      <trkpt lat="43.61947" lon="1.26304">
        <ele>156</ele>
        <time>2022-10-26T15:18:00Z</time>
      </trkpt>
      <trkpt lat="43.61952" lon="1.26302">
        <ele>156</ele>
        <time>2022-10-26T15:18:01Z</time>
      </trkpt>
      <trkpt lat="43.61955" lon="1.26301">
        <ele>156</ele>
        <time>2022-10-26T15:18:02Z</time>
      </trkpt>
      <trkpt lat="43.61959" lon="1.263">
        <ele>156</ele>
        <time>2022-10-26T15:18:03Z</time>
      </trkpt>
      <trkpt lat="43.61962" lon="1.26298">
        <ele>156.4</ele>
        <time>2022-10-26T15:18:04Z</time>
      </trkpt>
      <trkpt lat="43.61966" lon="1.26295">
        <ele>156.6</ele>
        <time>2022-10-26T15:18:05Z</time>
      </trkpt>
      <trkpt lat="43.6197" lon="1.26296">
        <ele>157</ele>
        <time>2022-10-26T15:18:06Z</time>
      </trkpt>
      <trkpt lat="43.61972" lon="1.263">
        <ele>157.2</ele>
        <time>2022-10-26T15:18:07Z</time>
      </trkpt>
      <trkpt lat="43.61975" lon="1.26305">
        <ele>157.2</ele>
        <time>2022-10-26T15:18:08Z</time>
      </trkpt>
      <trkpt lat="43.61978" lon="1.26312">
        <ele>157.4</ele>
        <time>2022-10-26T15:18:09Z</time>
      </trkpt>
      <trkpt lat="43.6198" lon="1.26318">
        <ele>157.4</ele>
        <time>2022-10-26T15:18:10Z</time>
      </trkpt>
      <trkpt lat="43.61982" lon="1.26325">
        <ele>157.8</ele>
        <time>2022-10-26T15:18:11Z</time>
      </trkpt>
      <trkpt lat="43.61984" lon="1.26334">
        <ele>157.8</ele>
        <time>2022-10-26T15:18:12Z</time>
      </trkpt>
      <trkpt lat="43.61985" lon="1.26342">
        <ele>158</ele>
        <time>2022-10-26T15:18:13Z</time>
      </trkpt>
      <trkpt lat="43.61985" lon="1.26342">
        <ele>158</ele>
        <time>2022-10-26T15:18:14Z</time>
      </trkpt>
      <trkpt lat="43.61989" lon="1.26361">
        <ele>158</ele>
        <time>2022-10-26T15:18:15Z</time>
      </trkpt>
      <trkpt lat="43.61991" lon="1.2637">
        <ele>158</ele>
        <time>2022-10-26T15:18:16Z</time>
      </trkpt>
      <trkpt lat="43.61993" lon="1.26379">
        <ele>158</ele>
        <time>2022-10-26T15:18:17Z</time>
      </trkpt>
      <trkpt lat="43.61994" lon="1.26386">
        <ele>158.2</ele>
        <time>2022-10-26T15:18:18Z</time>
      </trkpt>
      <trkpt lat="43.61997" lon="1.26397">
        <ele>158.2</ele>
        <time>2022-10-26T15:18:19Z</time>
      </trkpt>
      <trkpt lat="43.61999" lon="1.26405">
        <ele>158.2</ele>
        <time>2022-10-26T15:18:20Z</time>
      </trkpt>
      <trkpt lat="43.62001" lon="1.26413">
        <ele>158.2</ele>
        <time>2022-10-26T15:18:21Z</time>
      </trkpt>
      <trkpt lat="43.62002" lon="1.2642">
        <ele>158.2</ele>
        <time>2022-10-26T15:18:22Z</time>
      </trkpt>
      <trkpt lat="43.62004" lon="1.26432">
        <ele>158</ele>
        <time>2022-10-26T15:18:23Z</time>
      </trkpt>
      <trkpt lat="43.62005" lon="1.26442">
        <ele>158</ele>
        <time>2022-10-26T15:18:24Z</time>
      </trkpt>
      <trkpt lat="43.62007" lon="1.26452">
        <ele>157.8</ele>
        <time>2022-10-26T15:18:25Z</time>
      </trkpt>
      <trkpt lat="43.62008" lon="1.26461">
        <ele>157.8</ele>
        <time>2022-10-26T15:18:26Z</time>
      </trkpt>
      <trkpt lat="43.62009" lon="1.26469">
        <ele>157.8</ele>
        <time>2022-10-26T15:18:27Z</time>
      </trkpt>
      <trkpt lat="43.62009" lon="1.26469">
        <ele>157.8</ele>
        <time>2022-10-26T15:18:28Z</time>
      </trkpt>
      <trkpt lat="43.62012" lon="1.2649">
        <ele>157.8</ele>
        <time>2022-10-26T15:18:29Z</time>
      </trkpt>
      <trkpt lat="43.62013" lon="1.265">
        <ele>157.8</ele>
        <time>2022-10-26T15:18:30Z</time>
      </trkpt>
      <trkpt lat="43.62014" lon="1.2651">
        <ele>157.8</ele>
        <time>2022-10-26T15:18:31Z</time>
      </trkpt>
      <trkpt lat="43.62015" lon="1.26519">
        <ele>157.8</ele>
        <time>2022-10-26T15:18:32Z</time>
      </trkpt>
      <trkpt lat="43.62015" lon="1.26527">
        <ele>157.8</ele>
        <time>2022-10-26T15:18:33Z</time>
      </trkpt>
      <trkpt lat="43.62017" lon="1.26538">
        <ele>157.8</ele>
        <time>2022-10-26T15:18:34Z</time>
      </trkpt>
      <trkpt lat="43.62017" lon="1.26548">
        <ele>157.8</ele>
        <time>2022-10-26T15:18:35Z</time>
      </trkpt>
      <trkpt lat="43.62018" lon="1.26558">
        <ele>157.6</ele>
        <time>2022-10-26T15:18:36Z</time>
      </trkpt>
      <trkpt lat="43.6202" lon="1.26568">
        <ele>157.6</ele>
        <time>2022-10-26T15:18:37Z</time>
      </trkpt>
      <trkpt lat="43.62021" lon="1.26577">
        <ele>157.6</ele>
        <time>2022-10-26T15:18:38Z</time>
      </trkpt>
      <trkpt lat="43.62023" lon="1.26587">
        <ele>157.6</ele>
        <time>2022-10-26T15:18:39Z</time>
      </trkpt>
      <trkpt lat="43.62024" lon="1.26597">
        <ele>157.6</ele>
        <time>2022-10-26T15:18:40Z</time>
      </trkpt>
      <trkpt lat="43.62026" lon="1.26605">
        <ele>157.6</ele>
        <time>2022-10-26T15:18:41Z</time>
      </trkpt>
      <trkpt lat="43.62027" lon="1.26614">
        <ele>157.6</ele>
        <time>2022-10-26T15:18:42Z</time>
      </trkpt>
      <trkpt lat="43.62028" lon="1.26627">
        <ele>157.6</ele>
        <time>2022-10-26T15:18:43Z</time>
      </trkpt>
      <trkpt lat="43.6203" lon="1.26637">
        <ele>157.6</ele>
        <time>2022-10-26T15:18:44Z</time>
      </trkpt>
      <trkpt lat="43.62031" lon="1.26648">
        <ele>157.6</ele>
        <time>2022-10-26T15:18:45Z</time>
      </trkpt>
      <trkpt lat="43.62032" lon="1.26658">
        <ele>157.6</ele>
        <time>2022-10-26T15:18:46Z</time>
      </trkpt>
      <trkpt lat="43.62032" lon="1.26658">
        <ele>157.4</ele>
        <time>2022-10-26T15:18:47Z</time>
      </trkpt>
      <trkpt lat="43.62035" lon="1.26677">
        <ele>157.4</ele>
        <time>2022-10-26T15:18:48Z</time>
      </trkpt>
      <trkpt lat="43.62037" lon="1.26686">
        <ele>157.2</ele>
        <time>2022-10-26T15:18:49Z</time>
      </trkpt>
      <trkpt lat="43.62039" lon="1.26695">
        <ele>157.2</ele>
        <time>2022-10-26T15:18:50Z</time>
      </trkpt>
      <trkpt lat="43.6204" lon="1.26704">
        <ele>157.2</ele>
        <time>2022-10-26T15:18:51Z</time>
      </trkpt>
      <trkpt lat="43.62041" lon="1.26711">
        <ele>157.2</ele>
        <time>2022-10-26T15:18:52Z</time>
      </trkpt>
      <trkpt lat="43.62043" lon="1.26721">
        <ele>157.2</ele>
        <time>2022-10-26T15:18:53Z</time>
      </trkpt>
      <trkpt lat="43.62045" lon="1.26729">
        <ele>157.2</ele>
        <time>2022-10-26T15:18:54Z</time>
      </trkpt>
      <trkpt lat="43.62046" lon="1.26736">
        <ele>157.2</ele>
        <time>2022-10-26T15:18:55Z</time>
      </trkpt>
      <trkpt lat="43.62047" lon="1.26745">
        <ele>157.2</ele>
        <time>2022-10-26T15:18:56Z</time>
      </trkpt>
      <trkpt lat="43.62047" lon="1.26745">
        <ele>157.2</ele>
        <time>2022-10-26T15:18:57Z</time>
      </trkpt>
      <trkpt lat="43.62051" lon="1.26765">
        <ele>157.2</ele>
        <time>2022-10-26T15:18:58Z</time>
      </trkpt>
      <trkpt lat="43.62052" lon="1.26776">
        <ele>157.2</ele>
        <time>2022-10-26T15:18:59Z</time>
      </trkpt>
      <trkpt lat="43.62053" lon="1.26783">
        <ele>157.2</ele>
        <time>2022-10-26T15:19:00Z</time>
      </trkpt>
      <trkpt lat="43.62053" lon="1.26783">
        <ele>157.2</ele>
        <time>2022-10-26T15:19:01Z</time>
      </trkpt>
      <trkpt lat="43.62057" lon="1.26805">
        <ele>157.2</ele>
        <time>2022-10-26T15:19:02Z</time>
      </trkpt>
      <trkpt lat="43.62057" lon="1.26805">
        <ele>157.2</ele>
        <time>2022-10-26T15:19:03Z</time>
      </trkpt>
      <trkpt lat="43.62059" lon="1.26814">
        <ele>157.2</ele>
        <time>2022-10-26T15:19:04Z</time>
      </trkpt>
      <trkpt lat="43.62063" lon="1.26831">
        <ele>157.2</ele>
        <time>2022-10-26T15:19:05Z</time>
      </trkpt>
      <trkpt lat="43.62065" lon="1.26843">
        <ele>157.2</ele>
        <time>2022-10-26T15:19:06Z</time>
      </trkpt>
      <trkpt lat="43.62067" lon="1.26852">
        <ele>157</ele>
        <time>2022-10-26T15:19:07Z</time>
      </trkpt>
      <trkpt lat="43.62069" lon="1.26862">
        <ele>157</ele>
        <time>2022-10-26T15:19:08Z</time>
      </trkpt>
      <trkpt lat="43.6207" lon="1.26871">
        <ele>157</ele>
        <time>2022-10-26T15:19:09Z</time>
      </trkpt>
      <trkpt lat="43.62072" lon="1.26878">
        <ele>156.6</ele>
        <time>2022-10-26T15:19:10Z</time>
      </trkpt>
      <trkpt lat="43.62074" lon="1.26889">
        <ele>156.6</ele>
        <time>2022-10-26T15:19:11Z</time>
      </trkpt>
      <trkpt lat="43.62076" lon="1.26898">
        <ele>156.6</ele>
        <time>2022-10-26T15:19:12Z</time>
      </trkpt>
      <trkpt lat="43.62078" lon="1.26908">
        <ele>156.4</ele>
        <time>2022-10-26T15:19:13Z</time>
      </trkpt>
      <trkpt lat="43.6208" lon="1.26918">
        <ele>156.4</ele>
        <time>2022-10-26T15:19:14Z</time>
      </trkpt>
      <trkpt lat="43.62081" lon="1.26926">
        <ele>156.2</ele>
        <time>2022-10-26T15:19:15Z</time>
      </trkpt>
      <trkpt lat="43.62084" lon="1.26936">
        <ele>156.2</ele>
        <time>2022-10-26T15:19:16Z</time>
      </trkpt>
      <trkpt lat="43.62085" lon="1.26944">
        <ele>156</ele>
        <time>2022-10-26T15:19:17Z</time>
      </trkpt>
      <trkpt lat="43.62087" lon="1.26953">
        <ele>156</ele>
        <time>2022-10-26T15:19:18Z</time>
      </trkpt>
      <trkpt lat="43.62087" lon="1.2696">
        <ele>155.8</ele>
        <time>2022-10-26T15:19:19Z</time>
      </trkpt>
      <trkpt lat="43.62087" lon="1.2696">
        <ele>155.8</ele>
        <time>2022-10-26T15:19:20Z</time>
      </trkpt>
      <trkpt lat="43.6209" lon="1.26979">
        <ele>155.8</ele>
        <time>2022-10-26T15:19:21Z</time>
      </trkpt>
      <trkpt lat="43.62092" lon="1.26988">
        <ele>155.6</ele>
        <time>2022-10-26T15:19:22Z</time>
      </trkpt>
      <trkpt lat="43.62094" lon="1.26996">
        <ele>155.6</ele>
        <time>2022-10-26T15:19:23Z</time>
      </trkpt>
      <trkpt lat="43.62096" lon="1.27005">
        <ele>155.4</ele>
        <time>2022-10-26T15:19:24Z</time>
      </trkpt>
      <trkpt lat="43.62098" lon="1.27014">
        <ele>155.4</ele>
        <time>2022-10-26T15:19:25Z</time>
      </trkpt>
      <trkpt lat="43.62099" lon="1.27025">
        <ele>155.4</ele>
        <time>2022-10-26T15:19:26Z</time>
      </trkpt>
      <trkpt lat="43.62101" lon="1.27033">
        <ele>155.4</ele>
        <time>2022-10-26T15:19:27Z</time>
      </trkpt>
      <trkpt lat="43.62103" lon="1.2704">
        <ele>155.2</ele>
        <time>2022-10-26T15:19:28Z</time>
      </trkpt>
      <trkpt lat="43.62104" lon="1.2705">
        <ele>155.2</ele>
        <time>2022-10-26T15:19:29Z</time>
      </trkpt>
      <trkpt lat="43.62106" lon="1.27061">
        <ele>155.2</ele>
        <time>2022-10-26T15:19:30Z</time>
      </trkpt>
      <trkpt lat="43.62107" lon="1.2707">
        <ele>155.2</ele>
        <time>2022-10-26T15:19:31Z</time>
      </trkpt>
      <trkpt lat="43.6211" lon="1.27079">
        <ele>155.2</ele>
        <time>2022-10-26T15:19:32Z</time>
      </trkpt>
      <trkpt lat="43.62109" lon="1.27087">
        <ele>155.2</ele>
        <time>2022-10-26T15:19:33Z</time>
      </trkpt>
      <trkpt lat="43.62111" lon="1.27095">
        <ele>155.4</ele>
        <time>2022-10-26T15:19:34Z</time>
      </trkpt>
      <trkpt lat="43.62112" lon="1.27103">
        <ele>155.4</ele>
        <time>2022-10-26T15:19:35Z</time>
      </trkpt>
      <trkpt lat="43.62113" lon="1.27112">
        <ele>155.4</ele>
        <time>2022-10-26T15:19:36Z</time>
      </trkpt>
      <trkpt lat="43.62115" lon="1.2712">
        <ele>155.4</ele>
        <time>2022-10-26T15:19:37Z</time>
      </trkpt>
      <trkpt lat="43.62118" lon="1.27126">
        <ele>155.4</ele>
        <time>2022-10-26T15:19:38Z</time>
      </trkpt>
      <trkpt lat="43.6212" lon="1.27133">
        <ele>155.4</ele>
        <time>2022-10-26T15:19:39Z</time>
      </trkpt>
      <trkpt lat="43.6212" lon="1.27133">
        <ele>155.4</ele>
        <time>2022-10-26T15:19:40Z</time>
      </trkpt>
      <trkpt lat="43.62124" lon="1.27151">
        <ele>155.4</ele>
        <time>2022-10-26T15:19:41Z</time>
      </trkpt>
      <trkpt lat="43.62126" lon="1.27162">
        <ele>155.4</ele>
        <time>2022-10-26T15:19:42Z</time>
      </trkpt>
      <trkpt lat="43.62127" lon="1.27171">
        <ele>155.4</ele>
        <time>2022-10-26T15:19:43Z</time>
      </trkpt>
      <trkpt lat="43.62129" lon="1.27179">
        <ele>155.4</ele>
        <time>2022-10-26T15:19:44Z</time>
      </trkpt>
      <trkpt lat="43.62129" lon="1.27179">
        <ele>155.2</ele>
        <time>2022-10-26T15:19:45Z</time>
      </trkpt>
      <trkpt lat="43.62133" lon="1.27196">
        <ele>155</ele>
        <time>2022-10-26T15:19:46Z</time>
      </trkpt>
      <trkpt lat="43.62133" lon="1.27203">
        <ele>154.8</ele>
        <time>2022-10-26T15:19:47Z</time>
      </trkpt>
      <trkpt lat="43.62133" lon="1.2721">
        <ele>154.8</ele>
        <time>2022-10-26T15:19:48Z</time>
      </trkpt>
      <trkpt lat="43.62132" lon="1.27215">
        <ele>154.6</ele>
        <time>2022-10-26T15:19:49Z</time>
      </trkpt>
      <trkpt lat="43.62131" lon="1.27225">
        <ele>154.6</ele>
        <time>2022-10-26T15:19:50Z</time>
      </trkpt>
      <trkpt lat="43.6213" lon="1.27234">
        <ele>154.6</ele>
        <time>2022-10-26T15:19:51Z</time>
      </trkpt>
      <trkpt lat="43.62129" lon="1.27242">
        <ele>154.4</ele>
        <time>2022-10-26T15:19:52Z</time>
      </trkpt>
      <trkpt lat="43.6213" lon="1.27247">
        <ele>154.4</ele>
        <time>2022-10-26T15:19:53Z</time>
      </trkpt>
      <trkpt lat="43.6213" lon="1.27256">
        <ele>154.4</ele>
        <time>2022-10-26T15:19:54Z</time>
      </trkpt>
      <trkpt lat="43.6213" lon="1.27264">
        <ele>154.2</ele>
        <time>2022-10-26T15:19:55Z</time>
      </trkpt>
      <trkpt lat="43.6213" lon="1.27272">
        <ele>154</ele>
        <time>2022-10-26T15:19:56Z</time>
      </trkpt>
      <trkpt lat="43.62131" lon="1.27281">
        <ele>154</ele>
        <time>2022-10-26T15:19:57Z</time>
      </trkpt>
      <trkpt lat="43.62132" lon="1.27287">
        <ele>154</ele>
        <time>2022-10-26T15:19:58Z</time>
      </trkpt>
      <trkpt lat="43.62134" lon="1.27293">
        <ele>153.8</ele>
        <time>2022-10-26T15:19:59Z</time>
      </trkpt>
      <trkpt lat="43.62134" lon="1.273">
        <ele>153.8</ele>
        <time>2022-10-26T15:20:00Z</time>
      </trkpt>
      <trkpt lat="43.62133" lon="1.27309">
        <ele>153.8</ele>
        <time>2022-10-26T15:20:01Z</time>
      </trkpt>
      <trkpt lat="43.62134" lon="1.27318">
        <ele>153.8</ele>
        <time>2022-10-26T15:20:02Z</time>
      </trkpt>
      <trkpt lat="43.62135" lon="1.27327">
        <ele>153.8</ele>
        <time>2022-10-26T15:20:03Z</time>
      </trkpt>
      <trkpt lat="43.62135" lon="1.27336">
        <ele>153.6</ele>
        <time>2022-10-26T15:20:04Z</time>
      </trkpt>
      <trkpt lat="43.62136" lon="1.27346">
        <ele>153.6</ele>
        <time>2022-10-26T15:20:05Z</time>
      </trkpt>
      <trkpt lat="43.62138" lon="1.27356">
        <ele>153.6</ele>
        <time>2022-10-26T15:20:06Z</time>
      </trkpt>
      <trkpt lat="43.6214" lon="1.27363">
        <ele>153.6</ele>
        <time>2022-10-26T15:20:07Z</time>
      </trkpt>
      <trkpt lat="43.62143" lon="1.27373">
        <ele>153.6</ele>
        <time>2022-10-26T15:20:08Z</time>
      </trkpt>
      <trkpt lat="43.62145" lon="1.27382">
        <ele>153.6</ele>
        <time>2022-10-26T15:20:09Z</time>
      </trkpt>
      <trkpt lat="43.62148" lon="1.27395">
        <ele>153.6</ele>
        <time>2022-10-26T15:20:10Z</time>
      </trkpt>
      <trkpt lat="43.62151" lon="1.27403">
        <ele>153.6</ele>
        <time>2022-10-26T15:20:11Z</time>
      </trkpt>
      <trkpt lat="43.62154" lon="1.2741">
        <ele>153.6</ele>
        <time>2022-10-26T15:20:12Z</time>
      </trkpt>
      <trkpt lat="43.62154" lon="1.2741">
        <ele>153.4</ele>
        <time>2022-10-26T15:20:13Z</time>
      </trkpt>
      <trkpt lat="43.62161" lon="1.27429">
        <ele>153.4</ele>
        <time>2022-10-26T15:20:14Z</time>
      </trkpt>
      <trkpt lat="43.62164" lon="1.27438">
        <ele>153.2</ele>
        <time>2022-10-26T15:20:15Z</time>
      </trkpt>
      <trkpt lat="43.62167" lon="1.27446">
        <ele>153.2</ele>
        <time>2022-10-26T15:20:16Z</time>
      </trkpt>
      <trkpt lat="43.62169" lon="1.27453">
        <ele>153</ele>
        <time>2022-10-26T15:20:17Z</time>
      </trkpt>
      <trkpt lat="43.62172" lon="1.27465">
        <ele>153</ele>
        <time>2022-10-26T15:20:18Z</time>
      </trkpt>
      <trkpt lat="43.62175" lon="1.27473">
        <ele>153</ele>
        <time>2022-10-26T15:20:19Z</time>
      </trkpt>
      <trkpt lat="43.62177" lon="1.27482">
        <ele>153</ele>
        <time>2022-10-26T15:20:20Z</time>
      </trkpt>
      <trkpt lat="43.62179" lon="1.27489">
        <ele>152.8</ele>
        <time>2022-10-26T15:20:21Z</time>
      </trkpt>
      <trkpt lat="43.62181" lon="1.27498">
        <ele>152.8</ele>
        <time>2022-10-26T15:20:22Z</time>
      </trkpt>
      <trkpt lat="43.62183" lon="1.27508">
        <ele>152.8</ele>
        <time>2022-10-26T15:20:23Z</time>
      </trkpt>
      <trkpt lat="43.62185" lon="1.27515">
        <ele>152.8</ele>
        <time>2022-10-26T15:20:24Z</time>
      </trkpt>
      <trkpt lat="43.62187" lon="1.27522">
        <ele>152.8</ele>
        <time>2022-10-26T15:20:25Z</time>
      </trkpt>
      <trkpt lat="43.62188" lon="1.27526">
        <ele>152.6</ele>
        <time>2022-10-26T15:20:26Z</time>
      </trkpt>
      <trkpt lat="43.6219" lon="1.27531">
        <ele>152.4</ele>
        <time>2022-10-26T15:20:27Z</time>
      </trkpt>
      <trkpt lat="43.62192" lon="1.27537">
        <ele>152.4</ele>
        <time>2022-10-26T15:20:28Z</time>
      </trkpt>
      <trkpt lat="43.62194" lon="1.27543">
        <ele>152.4</ele>
        <time>2022-10-26T15:20:29Z</time>
      </trkpt>
      <trkpt lat="43.62196" lon="1.27549">
        <ele>152.4</ele>
        <time>2022-10-26T15:20:30Z</time>
      </trkpt>
      <trkpt lat="43.62198" lon="1.27556">
        <ele>152.4</ele>
        <time>2022-10-26T15:20:31Z</time>
      </trkpt>
      <trkpt lat="43.62198" lon="1.27556">
        <ele>152.4</ele>
        <time>2022-10-26T15:20:32Z</time>
      </trkpt>
      <trkpt lat="43.62203" lon="1.27569">
        <ele>152.4</ele>
        <time>2022-10-26T15:20:33Z</time>
      </trkpt>
      <trkpt lat="43.62204" lon="1.27575">
        <ele>152.4</ele>
        <time>2022-10-26T15:20:34Z</time>
      </trkpt>
      <trkpt lat="43.62207" lon="1.27581">
        <ele>152.4</ele>
        <time>2022-10-26T15:20:35Z</time>
      </trkpt>
      <trkpt lat="43.62209" lon="1.27587">
        <ele>152.2</ele>
        <time>2022-10-26T15:20:36Z</time>
      </trkpt>
      <trkpt lat="43.62209" lon="1.27587">
        <ele>152.2</ele>
        <time>2022-10-26T15:20:37Z</time>
      </trkpt>
      <trkpt lat="43.62214" lon="1.27602">
        <ele>152.2</ele>
        <time>2022-10-26T15:20:38Z</time>
      </trkpt>
      <trkpt lat="43.62216" lon="1.27608">
        <ele>152.2</ele>
        <time>2022-10-26T15:20:39Z</time>
      </trkpt>
      <trkpt lat="43.62218" lon="1.27612">
        <ele>152.2</ele>
        <time>2022-10-26T15:20:40Z</time>
      </trkpt>
      <trkpt lat="43.62221" lon="1.27617">
        <ele>152.2</ele>
        <time>2022-10-26T15:20:41Z</time>
      </trkpt>
      <trkpt lat="43.62224" lon="1.27621">
        <ele>152.2</ele>
        <time>2022-10-26T15:20:42Z</time>
      </trkpt>
      <trkpt lat="43.62225" lon="1.27625">
        <ele>152.2</ele>
        <time>2022-10-26T15:20:43Z</time>
      </trkpt>
      <trkpt lat="43.62228" lon="1.2763">
        <ele>152.2</ele>
        <time>2022-10-26T15:20:44Z</time>
      </trkpt>
      <trkpt lat="43.6223" lon="1.27635">
        <ele>152.4</ele>
        <time>2022-10-26T15:20:45Z</time>
      </trkpt>
      <trkpt lat="43.62232" lon="1.2764">
        <ele>152.4</ele>
        <time>2022-10-26T15:20:46Z</time>
      </trkpt>
      <trkpt lat="43.62234" lon="1.27647">
        <ele>152.4</ele>
        <time>2022-10-26T15:20:47Z</time>
      </trkpt>
      <trkpt lat="43.62236" lon="1.27654">
        <ele>152.6</ele>
        <time>2022-10-26T15:20:48Z</time>
      </trkpt>
      <trkpt lat="43.62237" lon="1.27661">
        <ele>152.6</ele>
        <time>2022-10-26T15:20:49Z</time>
      </trkpt>
      <trkpt lat="43.62239" lon="1.27669">
        <ele>152.6</ele>
        <time>2022-10-26T15:20:50Z</time>
      </trkpt>
      <trkpt lat="43.62239" lon="1.27669">
        <ele>152.6</ele>
        <time>2022-10-26T15:20:51Z</time>
      </trkpt>
      <trkpt lat="43.62242" lon="1.27685">
        <ele>152.6</ele>
        <time>2022-10-26T15:20:52Z</time>
      </trkpt>
      <trkpt lat="43.62245" lon="1.27694">
        <ele>152.8</ele>
        <time>2022-10-26T15:20:53Z</time>
      </trkpt>
      <trkpt lat="43.62246" lon="1.27701">
        <ele>152.8</ele>
        <time>2022-10-26T15:20:54Z</time>
      </trkpt>
      <trkpt lat="43.62247" lon="1.27709">
        <ele>152.8</ele>
        <time>2022-10-26T15:20:55Z</time>
      </trkpt>
      <trkpt lat="43.62247" lon="1.27709">
        <ele>152.8</ele>
        <time>2022-10-26T15:20:56Z</time>
      </trkpt>
      <trkpt lat="43.62251" lon="1.27725">
        <ele>152.8</ele>
        <time>2022-10-26T15:20:57Z</time>
      </trkpt>
      <trkpt lat="43.62253" lon="1.27734">
        <ele>152.8</ele>
        <time>2022-10-26T15:20:58Z</time>
      </trkpt>
      <trkpt lat="43.62254" lon="1.27741">
        <ele>152.8</ele>
        <time>2022-10-26T15:20:59Z</time>
      </trkpt>
      <trkpt lat="43.62256" lon="1.2775">
        <ele>153</ele>
        <time>2022-10-26T15:21:00Z</time>
      </trkpt>
      <trkpt lat="43.62258" lon="1.2776">
        <ele>153</ele>
        <time>2022-10-26T15:21:01Z</time>
      </trkpt>
      <trkpt lat="43.62258" lon="1.2776">
        <ele>153.2</ele>
        <time>2022-10-26T15:21:02Z</time>
      </trkpt>
      <trkpt lat="43.62263" lon="1.27777">
        <ele>153.2</ele>
        <time>2022-10-26T15:21:03Z</time>
      </trkpt>
      <trkpt lat="43.62266" lon="1.27787">
        <ele>153.2</ele>
        <time>2022-10-26T15:21:04Z</time>
      </trkpt>
      <trkpt lat="43.62268" lon="1.27796">
        <ele>153.2</ele>
        <time>2022-10-26T15:21:05Z</time>
      </trkpt>
      <trkpt lat="43.62268" lon="1.27796">
        <ele>153.2</ele>
        <time>2022-10-26T15:21:06Z</time>
      </trkpt>
      <trkpt lat="43.62273" lon="1.27817">
        <ele>153.2</ele>
        <time>2022-10-26T15:21:07Z</time>
      </trkpt>
      <trkpt lat="43.62276" lon="1.27826">
        <ele>153.2</ele>
        <time>2022-10-26T15:21:08Z</time>
      </trkpt>
      <trkpt lat="43.62277" lon="1.27833">
        <ele>153.2</ele>
        <time>2022-10-26T15:21:09Z</time>
      </trkpt>
      <trkpt lat="43.62277" lon="1.27833">
        <ele>153.2</ele>
        <time>2022-10-26T15:21:10Z</time>
      </trkpt>
      <trkpt lat="43.62282" lon="1.27854">
        <ele>153.2</ele>
        <time>2022-10-26T15:21:11Z</time>
      </trkpt>
      <trkpt lat="43.62284" lon="1.27863">
        <ele>153.2</ele>
        <time>2022-10-26T15:21:12Z</time>
      </trkpt>
      <trkpt lat="43.62285" lon="1.2787">
        <ele>153.2</ele>
        <time>2022-10-26T15:21:13Z</time>
      </trkpt>
      <trkpt lat="43.62286" lon="1.27879">
        <ele>153.2</ele>
        <time>2022-10-26T15:21:14Z</time>
      </trkpt>
      <trkpt lat="43.62288" lon="1.27887">
        <ele>153.2</ele>
        <time>2022-10-26T15:21:15Z</time>
      </trkpt>
      <trkpt lat="43.62289" lon="1.27897">
        <ele>153.2</ele>
        <time>2022-10-26T15:21:16Z</time>
      </trkpt>
      <trkpt lat="43.62291" lon="1.27905">
        <ele>153</ele>
        <time>2022-10-26T15:21:17Z</time>
      </trkpt>
      <trkpt lat="43.62293" lon="1.2791">
        <ele>153</ele>
        <time>2022-10-26T15:21:18Z</time>
      </trkpt>
      <trkpt lat="43.62294" lon="1.27918">
        <ele>153</ele>
        <time>2022-10-26T15:21:19Z</time>
      </trkpt>
      <trkpt lat="43.62293" lon="1.27925">
        <ele>153</ele>
        <time>2022-10-26T15:21:20Z</time>
      </trkpt>
      <trkpt lat="43.6229" lon="1.27928">
        <ele>153</ele>
        <time>2022-10-26T15:21:21Z</time>
      </trkpt>
      <trkpt lat="43.62287" lon="1.27931">
        <ele>153</ele>
        <time>2022-10-26T15:21:22Z</time>
      </trkpt>
      <trkpt lat="43.62282" lon="1.27933">
        <ele>153</ele>
        <time>2022-10-26T15:21:23Z</time>
      </trkpt>
      <trkpt lat="43.62277" lon="1.27936">
        <ele>153</ele>
        <time>2022-10-26T15:21:24Z</time>
      </trkpt>
      <trkpt lat="43.62271" lon="1.27942">
        <ele>153</ele>
        <time>2022-10-26T15:21:25Z</time>
      </trkpt>
      <trkpt lat="43.62265" lon="1.27948">
        <ele>153</ele>
        <time>2022-10-26T15:21:26Z</time>
      </trkpt>
      <trkpt lat="43.62261" lon="1.27954">
        <ele>153</ele>
        <time>2022-10-26T15:21:27Z</time>
      </trkpt>
      <trkpt lat="43.62257" lon="1.27959">
        <ele>153</ele>
        <time>2022-10-26T15:21:28Z</time>
      </trkpt>
      <trkpt lat="43.62252" lon="1.27966">
        <ele>152.8</ele>
        <time>2022-10-26T15:21:29Z</time>
      </trkpt>
      <trkpt lat="43.62248" lon="1.27973">
        <ele>152.8</ele>
        <time>2022-10-26T15:21:30Z</time>
      </trkpt>
      <trkpt lat="43.62244" lon="1.27983">
        <ele>152.6</ele>
        <time>2022-10-26T15:21:31Z</time>
      </trkpt>
      <trkpt lat="43.62243" lon="1.27993">
        <ele>152.4</ele>
        <time>2022-10-26T15:21:32Z</time>
      </trkpt>
      <trkpt lat="43.62242" lon="1.28001">
        <ele>152.2</ele>
        <time>2022-10-26T15:21:33Z</time>
      </trkpt>
      <trkpt lat="43.62242" lon="1.28001">
        <ele>152.2</ele>
        <time>2022-10-26T15:21:34Z</time>
      </trkpt>
      <trkpt lat="43.62239" lon="1.28023">
        <ele>152</ele>
        <time>2022-10-26T15:21:35Z</time>
      </trkpt>
      <trkpt lat="43.62237" lon="1.28032">
        <ele>151.8</ele>
        <time>2022-10-26T15:21:36Z</time>
      </trkpt>
      <trkpt lat="43.62235" lon="1.28041">
        <ele>151.6</ele>
        <time>2022-10-26T15:21:37Z</time>
      </trkpt>
      <trkpt lat="43.62233" lon="1.28048">
        <ele>151.4</ele>
        <time>2022-10-26T15:21:38Z</time>
      </trkpt>
      <trkpt lat="43.62231" lon="1.28056">
        <ele>151.2</ele>
        <time>2022-10-26T15:21:39Z</time>
      </trkpt>
      <trkpt lat="43.62229" lon="1.28066">
        <ele>151</ele>
        <time>2022-10-26T15:21:40Z</time>
      </trkpt>
      <trkpt lat="43.62227" lon="1.28076">
        <ele>151</ele>
        <time>2022-10-26T15:21:41Z</time>
      </trkpt>
      <trkpt lat="43.62226" lon="1.28085">
        <ele>150.6</ele>
        <time>2022-10-26T15:21:42Z</time>
      </trkpt>
      <trkpt lat="43.62226" lon="1.28092">
        <ele>150.4</ele>
        <time>2022-10-26T15:21:43Z</time>
      </trkpt>
      <trkpt lat="43.62225" lon="1.28102">
        <ele>150.4</ele>
        <time>2022-10-26T15:21:44Z</time>
      </trkpt>
      <trkpt lat="43.62225" lon="1.28114">
        <ele>150.2</ele>
        <time>2022-10-26T15:21:45Z</time>
      </trkpt>
      <trkpt lat="43.62226" lon="1.28123">
        <ele>150.2</ele>
        <time>2022-10-26T15:21:46Z</time>
      </trkpt>
      <trkpt lat="43.62226" lon="1.28132">
        <ele>150.2</ele>
        <time>2022-10-26T15:21:47Z</time>
      </trkpt>
      <trkpt lat="43.62226" lon="1.2814">
        <ele>150.2</ele>
        <time>2022-10-26T15:21:48Z</time>
      </trkpt>
      <trkpt lat="43.62226" lon="1.28149">
        <ele>150.2</ele>
        <time>2022-10-26T15:21:49Z</time>
      </trkpt>
      <trkpt lat="43.62225" lon="1.28158">
        <ele>150.2</ele>
        <time>2022-10-26T15:21:50Z</time>
      </trkpt>
      <trkpt lat="43.62224" lon="1.28166">
        <ele>150</ele>
        <time>2022-10-26T15:21:51Z</time>
      </trkpt>
      <trkpt lat="43.62223" lon="1.28176">
        <ele>149.8</ele>
        <time>2022-10-26T15:21:52Z</time>
      </trkpt>
      <trkpt lat="43.62222" lon="1.28184">
        <ele>149.8</ele>
        <time>2022-10-26T15:21:53Z</time>
      </trkpt>
      <trkpt lat="43.6222" lon="1.28195">
        <ele>149.8</ele>
        <time>2022-10-26T15:21:54Z</time>
      </trkpt>
      <trkpt lat="43.62219" lon="1.28204">
        <ele>149.8</ele>
        <time>2022-10-26T15:21:55Z</time>
      </trkpt>
      <trkpt lat="43.62218" lon="1.28214">
        <ele>149.8</ele>
        <time>2022-10-26T15:21:56Z</time>
      </trkpt>
      <trkpt lat="43.62217" lon="1.28221">
        <ele>149.8</ele>
        <time>2022-10-26T15:21:57Z</time>
      </trkpt>
      <trkpt lat="43.62217" lon="1.28231">
        <ele>149.6</ele>
        <time>2022-10-26T15:21:58Z</time>
      </trkpt>
      <trkpt lat="43.62216" lon="1.28242">
        <ele>149.6</ele>
        <time>2022-10-26T15:21:59Z</time>
      </trkpt>
      <trkpt lat="43.62215" lon="1.28253">
        <ele>149.6</ele>
        <time>2022-10-26T15:22:00Z</time>
      </trkpt>
      <trkpt lat="43.62214" lon="1.28263">
        <ele>149.4</ele>
        <time>2022-10-26T15:22:01Z</time>
      </trkpt>
      <trkpt lat="43.62213" lon="1.2827">
        <ele>149.4</ele>
        <time>2022-10-26T15:22:02Z</time>
      </trkpt>
      <trkpt lat="43.62213" lon="1.28282">
        <ele>149.4</ele>
        <time>2022-10-26T15:22:03Z</time>
      </trkpt>
      <trkpt lat="43.62212" lon="1.28292">
        <ele>149.2</ele>
        <time>2022-10-26T15:22:04Z</time>
      </trkpt>
      <trkpt lat="43.62211" lon="1.28301">
        <ele>149.2</ele>
        <time>2022-10-26T15:22:05Z</time>
      </trkpt>
      <trkpt lat="43.6221" lon="1.28309">
        <ele>149</ele>
        <time>2022-10-26T15:22:06Z</time>
      </trkpt>
      <trkpt lat="43.62209" lon="1.28319">
        <ele>149</ele>
        <time>2022-10-26T15:22:07Z</time>
      </trkpt>
      <trkpt lat="43.62208" lon="1.2833">
        <ele>149</ele>
        <time>2022-10-26T15:22:08Z</time>
      </trkpt>
      <trkpt lat="43.62208" lon="1.28339">
        <ele>149</ele>
        <time>2022-10-26T15:22:09Z</time>
      </trkpt>
      <trkpt lat="43.62207" lon="1.28349">
        <ele>149</ele>
        <time>2022-10-26T15:22:10Z</time>
      </trkpt>
      <trkpt lat="43.62207" lon="1.28356">
        <ele>149</ele>
        <time>2022-10-26T15:22:11Z</time>
      </trkpt>
      <trkpt lat="43.62207" lon="1.28366">
        <ele>148.8</ele>
        <time>2022-10-26T15:22:12Z</time>
      </trkpt>
      <trkpt lat="43.62207" lon="1.28377">
        <ele>148.8</ele>
        <time>2022-10-26T15:22:13Z</time>
      </trkpt>
      <trkpt lat="43.62207" lon="1.28387">
        <ele>148.8</ele>
        <time>2022-10-26T15:22:14Z</time>
      </trkpt>
      <trkpt lat="43.62206" lon="1.28396">
        <ele>148.6</ele>
        <time>2022-10-26T15:22:15Z</time>
      </trkpt>
      <trkpt lat="43.62206" lon="1.28404">
        <ele>148.6</ele>
        <time>2022-10-26T15:22:16Z</time>
      </trkpt>
      <trkpt lat="43.62206" lon="1.28413">
        <ele>148.6</ele>
        <time>2022-10-26T15:22:17Z</time>
      </trkpt>
      <trkpt lat="43.62206" lon="1.28425">
        <ele>148.6</ele>
        <time>2022-10-26T15:22:18Z</time>
      </trkpt>
      <trkpt lat="43.62206" lon="1.28434">
        <ele>148.6</ele>
        <time>2022-10-26T15:22:19Z</time>
      </trkpt>
      <trkpt lat="43.62207" lon="1.28441">
        <ele>148.4</ele>
        <time>2022-10-26T15:22:20Z</time>
      </trkpt>
      <trkpt lat="43.62207" lon="1.2845">
        <ele>148.4</ele>
        <time>2022-10-26T15:22:21Z</time>
      </trkpt>
      <trkpt lat="43.62207" lon="1.28462">
        <ele>148.4</ele>
        <time>2022-10-26T15:22:22Z</time>
      </trkpt>
      <trkpt lat="43.62208" lon="1.28471">
        <ele>148.4</ele>
        <time>2022-10-26T15:22:23Z</time>
      </trkpt>
      <trkpt lat="43.62208" lon="1.2848">
        <ele>148.4</ele>
        <time>2022-10-26T15:22:24Z</time>
      </trkpt>
      <trkpt lat="43.62208" lon="1.28487">
        <ele>148.4</ele>
        <time>2022-10-26T15:22:25Z</time>
      </trkpt>
      <trkpt lat="43.6221" lon="1.28496">
        <ele>148.4</ele>
        <time>2022-10-26T15:22:26Z</time>
      </trkpt>
      <trkpt lat="43.62211" lon="1.28507">
        <ele>148.4</ele>
        <time>2022-10-26T15:22:27Z</time>
      </trkpt>
      <trkpt lat="43.62213" lon="1.28515">
        <ele>148.6</ele>
        <time>2022-10-26T15:22:28Z</time>
      </trkpt>
      <trkpt lat="43.62216" lon="1.28524">
        <ele>148.6</ele>
        <time>2022-10-26T15:22:29Z</time>
      </trkpt>
      <trkpt lat="43.62218" lon="1.2853">
        <ele>148.4</ele>
        <time>2022-10-26T15:22:30Z</time>
      </trkpt>
      <trkpt lat="43.62221" lon="1.28538">
        <ele>148.4</ele>
        <time>2022-10-26T15:22:31Z</time>
      </trkpt>
      <trkpt lat="43.62225" lon="1.28547">
        <ele>148.4</ele>
        <time>2022-10-26T15:22:32Z</time>
      </trkpt>
      <trkpt lat="43.62225" lon="1.28547">
        <ele>148.4</ele>
        <time>2022-10-26T15:22:33Z</time>
      </trkpt>
      <trkpt lat="43.62231" lon="1.28561">
        <ele>148.4</ele>
        <time>2022-10-26T15:22:34Z</time>
      </trkpt>
      <trkpt lat="43.62234" lon="1.28566">
        <ele>148.4</ele>
        <time>2022-10-26T15:22:35Z</time>
      </trkpt>
      <trkpt lat="43.62237" lon="1.28572">
        <ele>148.4</ele>
        <time>2022-10-26T15:22:36Z</time>
      </trkpt>
      <trkpt lat="43.62241" lon="1.28578">
        <ele>148.2</ele>
        <time>2022-10-26T15:22:37Z</time>
      </trkpt>
      <trkpt lat="43.62244" lon="1.28583">
        <ele>148.2</ele>
        <time>2022-10-26T15:22:38Z</time>
      </trkpt>
      <trkpt lat="43.62248" lon="1.28587">
        <ele>148.2</ele>
        <time>2022-10-26T15:22:39Z</time>
      </trkpt>
      <trkpt lat="43.62251" lon="1.28592">
        <ele>148.4</ele>
        <time>2022-10-26T15:22:40Z</time>
      </trkpt>
      <trkpt lat="43.62254" lon="1.28597">
        <ele>148.4</ele>
        <time>2022-10-26T15:22:41Z</time>
      </trkpt>
      <trkpt lat="43.62258" lon="1.28603">
        <ele>148.4</ele>
        <time>2022-10-26T15:22:42Z</time>
      </trkpt>
      <trkpt lat="43.62262" lon="1.28609">
        <ele>148.6</ele>
        <time>2022-10-26T15:22:43Z</time>
      </trkpt>
      <trkpt lat="43.62264" lon="1.28615">
        <ele>148.6</ele>
        <time>2022-10-26T15:22:44Z</time>
      </trkpt>
      <trkpt lat="43.62266" lon="1.28621">
        <ele>148.6</ele>
        <time>2022-10-26T15:22:45Z</time>
      </trkpt>
      <trkpt lat="43.62267" lon="1.2863">
        <ele>148.8</ele>
        <time>2022-10-26T15:22:46Z</time>
      </trkpt>
      <trkpt lat="43.62267" lon="1.28637">
        <ele>148.8</ele>
        <time>2022-10-26T15:22:47Z</time>
      </trkpt>
      <trkpt lat="43.62267" lon="1.28645">
        <ele>148.8</ele>
        <time>2022-10-26T15:22:48Z</time>
      </trkpt>
      <trkpt lat="43.62266" lon="1.28652">
        <ele>148.8</ele>
        <time>2022-10-26T15:22:49Z</time>
      </trkpt>
      <trkpt lat="43.62264" lon="1.28659">
        <ele>148.8</ele>
        <time>2022-10-26T15:22:50Z</time>
      </trkpt>
      <trkpt lat="43.62263" lon="1.28666">
        <ele>148.8</ele>
        <time>2022-10-26T15:22:51Z</time>
      </trkpt>
      <trkpt lat="43.6226" lon="1.28674">
        <ele>148.8</ele>
        <time>2022-10-26T15:22:52Z</time>
      </trkpt>
      <trkpt lat="43.62257" lon="1.28681">
        <ele>148.8</ele>
        <time>2022-10-26T15:22:53Z</time>
      </trkpt>
      <trkpt lat="43.62255" lon="1.2869">
        <ele>148.8</ele>
        <time>2022-10-26T15:22:54Z</time>
      </trkpt>
      <trkpt lat="43.62254" lon="1.28699">
        <ele>148.6</ele>
        <time>2022-10-26T15:22:55Z</time>
      </trkpt>
      <trkpt lat="43.62253" lon="1.28709">
        <ele>148.4</ele>
        <time>2022-10-26T15:22:56Z</time>
      </trkpt>
      <trkpt lat="43.62253" lon="1.28718">
        <ele>148.4</ele>
        <time>2022-10-26T15:22:57Z</time>
      </trkpt>
      <trkpt lat="43.62254" lon="1.28724">
        <ele>148</ele>
        <time>2022-10-26T15:22:58Z</time>
      </trkpt>
      <trkpt lat="43.62254" lon="1.28724">
        <ele>147.6</ele>
        <time>2022-10-26T15:22:59Z</time>
      </trkpt>
      <trkpt lat="43.62255" lon="1.2873">
        <ele>147.4</ele>
        <time>2022-10-26T15:23:00Z</time>
      </trkpt>
      <trkpt lat="43.62255" lon="1.28733">
        <ele>147.2</ele>
        <time>2022-10-26T15:23:01Z</time>
      </trkpt>
      <trkpt lat="43.62255" lon="1.28737">
        <ele>147.2</ele>
        <time>2022-10-26T15:23:02Z</time>
      </trkpt>
      <trkpt lat="43.62254" lon="1.28741">
        <ele>147</ele>
        <time>2022-10-26T15:23:03Z</time>
      </trkpt>
      <trkpt lat="43.62254" lon="1.28747">
        <ele>147</ele>
        <time>2022-10-26T15:23:04Z</time>
      </trkpt>
      <trkpt lat="43.62254" lon="1.28752">
        <ele>147</ele>
        <time>2022-10-26T15:23:05Z</time>
      </trkpt>
      <trkpt lat="43.62254" lon="1.28757">
        <ele>147</ele>
        <time>2022-10-26T15:23:06Z</time>
      </trkpt>
      <trkpt lat="43.62254" lon="1.28762">
        <ele>147</ele>
        <time>2022-10-26T15:23:07Z</time>
      </trkpt>
      <trkpt lat="43.62253" lon="1.28766">
        <ele>147</ele>
        <time>2022-10-26T15:23:08Z</time>
      </trkpt>
      <trkpt lat="43.62253" lon="1.28769">
        <ele>147</ele>
        <time>2022-10-26T15:23:09Z</time>
      </trkpt>
      <trkpt lat="43.62253" lon="1.28772">
        <ele>147</ele>
        <time>2022-10-26T15:23:10Z</time>
      </trkpt>
      <trkpt lat="43.62253" lon="1.28775">
        <ele>147</ele>
        <time>2022-10-26T15:23:11Z</time>
      </trkpt>
      <trkpt lat="43.62253" lon="1.28778">
        <ele>147</ele>
        <time>2022-10-26T15:23:12Z</time>
      </trkpt>
      <trkpt lat="43.62253" lon="1.28782">
        <ele>147</ele>
        <time>2022-10-26T15:23:13Z</time>
      </trkpt>
      <trkpt lat="43.62252" lon="1.28787">
        <ele>147</ele>
        <time>2022-10-26T15:23:14Z</time>
      </trkpt>
      <trkpt lat="43.62252" lon="1.28792">
        <ele>147</ele>
        <time>2022-10-26T15:23:15Z</time>
      </trkpt>
      <trkpt lat="43.62251" lon="1.28798">
        <ele>147</ele>
        <time>2022-10-26T15:23:16Z</time>
      </trkpt>
      <trkpt lat="43.62251" lon="1.28804">
        <ele>147</ele>
        <time>2022-10-26T15:23:17Z</time>
      </trkpt>
      <trkpt lat="43.6225" lon="1.2881">
        <ele>147</ele>
        <time>2022-10-26T15:23:18Z</time>
      </trkpt>
      <trkpt lat="43.6225" lon="1.28817">
        <ele>147</ele>
        <time>2022-10-26T15:23:19Z</time>
      </trkpt>
      <trkpt lat="43.62249" lon="1.28824">
        <ele>147</ele>
        <time>2022-10-26T15:23:20Z</time>
      </trkpt>
      <trkpt lat="43.6225" lon="1.28831">
        <ele>147</ele>
        <time>2022-10-26T15:23:21Z</time>
      </trkpt>
      <trkpt lat="43.62249" lon="1.28837">
        <ele>147</ele>
        <time>2022-10-26T15:23:22Z</time>
      </trkpt>
      <trkpt lat="43.62249" lon="1.28844">
        <ele>146.8</ele>
        <time>2022-10-26T15:23:23Z</time>
      </trkpt>
      <trkpt lat="43.62249" lon="1.28844">
        <ele>146.8</ele>
        <time>2022-10-26T15:23:24Z</time>
      </trkpt>
      <trkpt lat="43.62248" lon="1.28858">
        <ele>146.8</ele>
        <time>2022-10-26T15:23:25Z</time>
      </trkpt>
      <trkpt lat="43.62248" lon="1.28865">
        <ele>146.8</ele>
        <time>2022-10-26T15:23:26Z</time>
      </trkpt>
      <trkpt lat="43.62248" lon="1.28865">
        <ele>146.8</ele>
        <time>2022-10-26T15:23:27Z</time>
      </trkpt>
      <trkpt lat="43.62248" lon="1.2888">
        <ele>146.8</ele>
        <time>2022-10-26T15:23:28Z</time>
      </trkpt>
      <trkpt lat="43.62248" lon="1.28888">
        <ele>146.8</ele>
        <time>2022-10-26T15:23:29Z</time>
      </trkpt>
      <trkpt lat="43.62248" lon="1.28888">
        <ele>146.8</ele>
        <time>2022-10-26T15:23:30Z</time>
      </trkpt>
      <trkpt lat="43.62247" lon="1.28903">
        <ele>146.8</ele>
        <time>2022-10-26T15:23:31Z</time>
      </trkpt>
      <trkpt lat="43.62246" lon="1.28911">
        <ele>146.8</ele>
        <time>2022-10-26T15:23:32Z</time>
      </trkpt>
      <trkpt lat="43.62245" lon="1.28918">
        <ele>146.8</ele>
        <time>2022-10-26T15:23:33Z</time>
      </trkpt>
      <trkpt lat="43.62245" lon="1.28924">
        <ele>146.8</ele>
        <time>2022-10-26T15:23:34Z</time>
      </trkpt>
      <trkpt lat="43.62245" lon="1.28932">
        <ele>146.8</ele>
        <time>2022-10-26T15:23:35Z</time>
      </trkpt>
      <trkpt lat="43.62245" lon="1.28939">
        <ele>146.8</ele>
        <time>2022-10-26T15:23:36Z</time>
      </trkpt>
      <trkpt lat="43.62245" lon="1.28948">
        <ele>147</ele>
        <time>2022-10-26T15:23:37Z</time>
      </trkpt>
      <trkpt lat="43.62245" lon="1.28955">
        <ele>147</ele>
        <time>2022-10-26T15:23:38Z</time>
      </trkpt>
      <trkpt lat="43.62246" lon="1.28962">
        <ele>147</ele>
        <time>2022-10-26T15:23:39Z</time>
      </trkpt>
      <trkpt lat="43.62247" lon="1.28968">
        <ele>147</ele>
        <time>2022-10-26T15:23:40Z</time>
      </trkpt>
      <trkpt lat="43.62247" lon="1.28973">
        <ele>147</ele>
        <time>2022-10-26T15:23:41Z</time>
      </trkpt>
      <trkpt lat="43.62249" lon="1.2898">
        <ele>147</ele>
        <time>2022-10-26T15:23:42Z</time>
      </trkpt>
      <trkpt lat="43.6225" lon="1.28985">
        <ele>147</ele>
        <time>2022-10-26T15:23:43Z</time>
      </trkpt>
      <trkpt lat="43.62252" lon="1.28989">
        <ele>146.8</ele>
        <time>2022-10-26T15:23:44Z</time>
      </trkpt>
      <trkpt lat="43.62253" lon="1.28994">
        <ele>146.8</ele>
        <time>2022-10-26T15:23:45Z</time>
      </trkpt>
      <trkpt lat="43.62254" lon="1.28999">
        <ele>146.8</ele>
        <time>2022-10-26T15:23:46Z</time>
      </trkpt>
      <trkpt lat="43.62255" lon="1.29004">
        <ele>146.8</ele>
        <time>2022-10-26T15:23:47Z</time>
      </trkpt>
      <trkpt lat="43.62257" lon="1.2901">
        <ele>146.8</ele>
        <time>2022-10-26T15:23:48Z</time>
      </trkpt>
      <trkpt lat="43.62258" lon="1.29014">
        <ele>146.8</ele>
        <time>2022-10-26T15:23:49Z</time>
      </trkpt>
      <trkpt lat="43.62259" lon="1.2902">
        <ele>146.8</ele>
        <time>2022-10-26T15:23:50Z</time>
      </trkpt>
      <trkpt lat="43.62261" lon="1.29026">
        <ele>146.8</ele>
        <time>2022-10-26T15:23:51Z</time>
      </trkpt>
      <trkpt lat="43.62262" lon="1.29031">
        <ele>146.8</ele>
        <time>2022-10-26T15:23:52Z</time>
      </trkpt>
      <trkpt lat="43.62265" lon="1.29036">
        <ele>146.8</ele>
        <time>2022-10-26T15:23:53Z</time>
      </trkpt>
      <trkpt lat="43.62266" lon="1.2904">
        <ele>146.8</ele>
        <time>2022-10-26T15:23:54Z</time>
      </trkpt>
      <trkpt lat="43.62268" lon="1.29044">
        <ele>146.8</ele>
        <time>2022-10-26T15:23:55Z</time>
      </trkpt>
      <trkpt lat="43.62271" lon="1.29048">
        <ele>146.8</ele>
        <time>2022-10-26T15:23:56Z</time>
      </trkpt>
      <trkpt lat="43.62273" lon="1.29051">
        <ele>147</ele>
        <time>2022-10-26T15:23:57Z</time>
      </trkpt>
      <trkpt lat="43.62275" lon="1.29055">
        <ele>147.2</ele>
        <time>2022-10-26T15:23:58Z</time>
      </trkpt>
      <trkpt lat="43.62278" lon="1.2906">
        <ele>147</ele>
        <time>2022-10-26T15:23:59Z</time>
      </trkpt>
      <trkpt lat="43.6228" lon="1.29065">
        <ele>147.2</ele>
        <time>2022-10-26T15:24:00Z</time>
      </trkpt>
      <trkpt lat="43.62282" lon="1.29071">
        <ele>147.2</ele>
        <time>2022-10-26T15:24:01Z</time>
      </trkpt>
      <trkpt lat="43.62286" lon="1.29077">
        <ele>147.2</ele>
        <time>2022-10-26T15:24:02Z</time>
      </trkpt>
      <trkpt lat="43.62289" lon="1.29082">
        <ele>147.2</ele>
        <time>2022-10-26T15:24:03Z</time>
      </trkpt>
      <trkpt lat="43.62292" lon="1.29087">
        <ele>147</ele>
        <time>2022-10-26T15:24:04Z</time>
      </trkpt>
      <trkpt lat="43.62296" lon="1.29093">
        <ele>147.2</ele>
        <time>2022-10-26T15:24:05Z</time>
      </trkpt>
      <trkpt lat="43.62299" lon="1.291">
        <ele>147.4</ele>
        <time>2022-10-26T15:24:06Z</time>
      </trkpt>
      <trkpt lat="43.62303" lon="1.29107">
        <ele>147.2</ele>
        <time>2022-10-26T15:24:07Z</time>
      </trkpt>
      <trkpt lat="43.62307" lon="1.29114">
        <ele>147</ele>
        <time>2022-10-26T15:24:08Z</time>
      </trkpt>
      <trkpt lat="43.62311" lon="1.29121">
        <ele>147</ele>
        <time>2022-10-26T15:24:09Z</time>
      </trkpt>
      <trkpt lat="43.62315" lon="1.29128">
        <ele>147</ele>
        <time>2022-10-26T15:24:10Z</time>
      </trkpt>
      <trkpt lat="43.62319" lon="1.29135">
        <ele>147</ele>
        <time>2022-10-26T15:24:11Z</time>
      </trkpt>
      <trkpt lat="43.62323" lon="1.29142">
        <ele>147</ele>
        <time>2022-10-26T15:24:12Z</time>
      </trkpt>
      <trkpt lat="43.62326" lon="1.2915">
        <ele>147</ele>
        <time>2022-10-26T15:24:13Z</time>
      </trkpt>
      <trkpt lat="43.6233" lon="1.29157">
        <ele>147.2</ele>
        <time>2022-10-26T15:24:14Z</time>
      </trkpt>
      <trkpt lat="43.62333" lon="1.29165">
        <ele>147.2</ele>
        <time>2022-10-26T15:24:15Z</time>
      </trkpt>
      <trkpt lat="43.62336" lon="1.29172">
        <ele>147</ele>
        <time>2022-10-26T15:24:16Z</time>
      </trkpt>
      <trkpt lat="43.62339" lon="1.2918">
        <ele>147.2</ele>
        <time>2022-10-26T15:24:17Z</time>
      </trkpt>
      <trkpt lat="43.62342" lon="1.29187">
        <ele>147.2</ele>
        <time>2022-10-26T15:24:18Z</time>
      </trkpt>
      <trkpt lat="43.62346" lon="1.29195">
        <ele>147.2</ele>
        <time>2022-10-26T15:24:19Z</time>
      </trkpt>
      <trkpt lat="43.62349" lon="1.29202">
        <ele>147.2</ele>
        <time>2022-10-26T15:24:20Z</time>
      </trkpt>
      <trkpt lat="43.62351" lon="1.2921">
        <ele>147.2</ele>
        <time>2022-10-26T15:24:21Z</time>
      </trkpt>
      <trkpt lat="43.62354" lon="1.29218">
        <ele>147.2</ele>
        <time>2022-10-26T15:24:22Z</time>
      </trkpt>
      <trkpt lat="43.62357" lon="1.29226">
        <ele>147.2</ele>
        <time>2022-10-26T15:24:23Z</time>
      </trkpt>
      <trkpt lat="43.62359" lon="1.29234">
        <ele>147.2</ele>
        <time>2022-10-26T15:24:24Z</time>
      </trkpt>
      <trkpt lat="43.62361" lon="1.29242">
        <ele>147.2</ele>
        <time>2022-10-26T15:24:25Z</time>
      </trkpt>
      <trkpt lat="43.62363" lon="1.2925">
        <ele>147.2</ele>
        <time>2022-10-26T15:24:26Z</time>
      </trkpt>
      <trkpt lat="43.62365" lon="1.29258">
        <ele>147.2</ele>
        <time>2022-10-26T15:24:27Z</time>
      </trkpt>
      <trkpt lat="43.62366" lon="1.29266">
        <ele>147.2</ele>
        <time>2022-10-26T15:24:28Z</time>
      </trkpt>
      <trkpt lat="43.62367" lon="1.29274">
        <ele>147.2</ele>
        <time>2022-10-26T15:24:29Z</time>
      </trkpt>
      <trkpt lat="43.62368" lon="1.29283">
        <ele>147.4</ele>
        <time>2022-10-26T15:24:30Z</time>
      </trkpt>
      <trkpt lat="43.62368" lon="1.29291">
        <ele>147.4</ele>
        <time>2022-10-26T15:24:31Z</time>
      </trkpt>
      <trkpt lat="43.62369" lon="1.293">
        <ele>147.4</ele>
        <time>2022-10-26T15:24:32Z</time>
      </trkpt>
      <trkpt lat="43.6237" lon="1.29308">
        <ele>147.4</ele>
        <time>2022-10-26T15:24:33Z</time>
      </trkpt>
      <trkpt lat="43.62371" lon="1.29316">
        <ele>147.4</ele>
        <time>2022-10-26T15:24:34Z</time>
      </trkpt>
      <trkpt lat="43.62373" lon="1.29324">
        <ele>147.6</ele>
        <time>2022-10-26T15:24:35Z</time>
      </trkpt>
      <trkpt lat="43.62374" lon="1.29331">
        <ele>147.6</ele>
        <time>2022-10-26T15:24:36Z</time>
      </trkpt>
      <trkpt lat="43.62376" lon="1.29338">
        <ele>147.8</ele>
        <time>2022-10-26T15:24:37Z</time>
      </trkpt>
      <trkpt lat="43.62377" lon="1.29346">
        <ele>147.8</ele>
        <time>2022-10-26T15:24:38Z</time>
      </trkpt>
      <trkpt lat="43.62379" lon="1.29353">
        <ele>147.8</ele>
        <time>2022-10-26T15:24:39Z</time>
      </trkpt>
      <trkpt lat="43.6238" lon="1.2936">
        <ele>147.8</ele>
        <time>2022-10-26T15:24:40Z</time>
      </trkpt>
      <trkpt lat="43.62381" lon="1.29367">
        <ele>148</ele>
        <time>2022-10-26T15:24:41Z</time>
      </trkpt>
      <trkpt lat="43.62383" lon="1.29374">
        <ele>148</ele>
        <time>2022-10-26T15:24:42Z</time>
      </trkpt>
      <trkpt lat="43.62385" lon="1.29381">
        <ele>148.2</ele>
        <time>2022-10-26T15:24:43Z</time>
      </trkpt>
      <trkpt lat="43.62386" lon="1.29388">
        <ele>148.4</ele>
        <time>2022-10-26T15:24:44Z</time>
      </trkpt>
      <trkpt lat="43.62387" lon="1.29395">
        <ele>148.6</ele>
        <time>2022-10-26T15:24:45Z</time>
      </trkpt>
      <trkpt lat="43.62387" lon="1.29402">
        <ele>148.6</ele>
        <time>2022-10-26T15:24:46Z</time>
      </trkpt>
      <trkpt lat="43.62388" lon="1.29409">
        <ele>148.8</ele>
        <time>2022-10-26T15:24:47Z</time>
      </trkpt>
      <trkpt lat="43.6239" lon="1.29416">
        <ele>149</ele>
        <time>2022-10-26T15:24:48Z</time>
      </trkpt>
      <trkpt lat="43.6239" lon="1.29423">
        <ele>149.2</ele>
        <time>2022-10-26T15:24:49Z</time>
      </trkpt>
      <trkpt lat="43.62392" lon="1.29431">
        <ele>149.6</ele>
        <time>2022-10-26T15:24:50Z</time>
      </trkpt>
      <trkpt lat="43.62394" lon="1.29438">
        <ele>149.6</ele>
        <time>2022-10-26T15:24:51Z</time>
      </trkpt>
      <trkpt lat="43.62396" lon="1.29446">
        <ele>149.8</ele>
        <time>2022-10-26T15:24:52Z</time>
      </trkpt>
      <trkpt lat="43.62398" lon="1.29455">
        <ele>149.8</ele>
        <time>2022-10-26T15:24:53Z</time>
      </trkpt>
      <trkpt lat="43.624" lon="1.29464">
        <ele>149.8</ele>
        <time>2022-10-26T15:24:54Z</time>
      </trkpt>
      <trkpt lat="43.62403" lon="1.29473">
        <ele>150</ele>
        <time>2022-10-26T15:24:55Z</time>
      </trkpt>
      <trkpt lat="43.62407" lon="1.29482">
        <ele>150</ele>
        <time>2022-10-26T15:24:56Z</time>
      </trkpt>
      <trkpt lat="43.6241" lon="1.29491">
        <ele>150.2</ele>
        <time>2022-10-26T15:24:57Z</time>
      </trkpt>
      <trkpt lat="43.62413" lon="1.295">
        <ele>150.2</ele>
        <time>2022-10-26T15:24:58Z</time>
      </trkpt>
      <trkpt lat="43.62417" lon="1.29509">
        <ele>150.2</ele>
        <time>2022-10-26T15:24:59Z</time>
      </trkpt>
      <trkpt lat="43.62421" lon="1.29518">
        <ele>150.2</ele>
        <time>2022-10-26T15:25:00Z</time>
      </trkpt>
      <trkpt lat="43.62425" lon="1.29527">
        <ele>150.2</ele>
        <time>2022-10-26T15:25:01Z</time>
      </trkpt>
      <trkpt lat="43.62425" lon="1.29527">
        <ele>150</ele>
        <time>2022-10-26T15:25:02Z</time>
      </trkpt>
      <trkpt lat="43.62432" lon="1.29546">
        <ele>150</ele>
        <time>2022-10-26T15:25:03Z</time>
      </trkpt>
      <trkpt lat="43.62437" lon="1.29555">
        <ele>149.8</ele>
        <time>2022-10-26T15:25:04Z</time>
      </trkpt>
      <trkpt lat="43.62441" lon="1.29564">
        <ele>149.8</ele>
        <time>2022-10-26T15:25:05Z</time>
      </trkpt>
      <trkpt lat="43.62446" lon="1.29572">
        <ele>149.6</ele>
        <time>2022-10-26T15:25:06Z</time>
      </trkpt>
      <trkpt lat="43.62451" lon="1.29581">
        <ele>149.4</ele>
        <time>2022-10-26T15:25:07Z</time>
      </trkpt>
      <trkpt lat="43.62456" lon="1.2959">
        <ele>149.4</ele>
        <time>2022-10-26T15:25:08Z</time>
      </trkpt>
      <trkpt lat="43.62461" lon="1.29599">
        <ele>149.2</ele>
        <time>2022-10-26T15:25:09Z</time>
      </trkpt>
      <trkpt lat="43.62465" lon="1.29608">
        <ele>149</ele>
        <time>2022-10-26T15:25:10Z</time>
      </trkpt>
      <trkpt lat="43.6247" lon="1.29616">
        <ele>148.8</ele>
        <time>2022-10-26T15:25:11Z</time>
      </trkpt>
      <trkpt lat="43.62476" lon="1.29623">
        <ele>148.6</ele>
        <time>2022-10-26T15:25:12Z</time>
      </trkpt>
      <trkpt lat="43.62481" lon="1.29632">
        <ele>148.4</ele>
        <time>2022-10-26T15:25:13Z</time>
      </trkpt>
      <trkpt lat="43.62486" lon="1.2964">
        <ele>148.2</ele>
        <time>2022-10-26T15:25:14Z</time>
      </trkpt>
      <trkpt lat="43.62491" lon="1.29647">
        <ele>148</ele>
        <time>2022-10-26T15:25:15Z</time>
      </trkpt>
      <trkpt lat="43.62491" lon="1.29647">
        <ele>148</ele>
        <time>2022-10-26T15:25:16Z</time>
      </trkpt>
      <trkpt lat="43.62503" lon="1.29661">
        <ele>147.8</ele>
        <time>2022-10-26T15:25:17Z</time>
      </trkpt>
      <trkpt lat="43.62509" lon="1.29668">
        <ele>147.6</ele>
        <time>2022-10-26T15:25:18Z</time>
      </trkpt>
      <trkpt lat="43.62515" lon="1.29676">
        <ele>147.4</ele>
        <time>2022-10-26T15:25:19Z</time>
      </trkpt>
      <trkpt lat="43.6252" lon="1.29683">
        <ele>147.2</ele>
        <time>2022-10-26T15:25:20Z</time>
      </trkpt>
      <trkpt lat="43.62526" lon="1.2969">
        <ele>147.2</ele>
        <time>2022-10-26T15:25:21Z</time>
      </trkpt>
      <trkpt lat="43.62526" lon="1.2969">
        <ele>147</ele>
        <time>2022-10-26T15:25:22Z</time>
      </trkpt>
      <trkpt lat="43.62538" lon="1.29704">
        <ele>147</ele>
        <time>2022-10-26T15:25:23Z</time>
      </trkpt>
      <trkpt lat="43.62544" lon="1.2971">
        <ele>146.8</ele>
        <time>2022-10-26T15:25:24Z</time>
      </trkpt>
      <trkpt lat="43.6255" lon="1.29717">
        <ele>146.8</ele>
        <time>2022-10-26T15:25:25Z</time>
      </trkpt>
      <trkpt lat="43.62556" lon="1.29723">
        <ele>146.8</ele>
        <time>2022-10-26T15:25:26Z</time>
      </trkpt>
      <trkpt lat="43.62562" lon="1.2973">
        <ele>146.8</ele>
        <time>2022-10-26T15:25:27Z</time>
      </trkpt>
      <trkpt lat="43.62568" lon="1.29736">
        <ele>146.8</ele>
        <time>2022-10-26T15:25:28Z</time>
      </trkpt>
      <trkpt lat="43.62574" lon="1.29742">
        <ele>146.8</ele>
        <time>2022-10-26T15:25:29Z</time>
      </trkpt>
      <trkpt lat="43.6258" lon="1.29748">
        <ele>146.8</ele>
        <time>2022-10-26T15:25:30Z</time>
      </trkpt>
      <trkpt lat="43.62587" lon="1.29754">
        <ele>146.8</ele>
        <time>2022-10-26T15:25:31Z</time>
      </trkpt>
      <trkpt lat="43.62593" lon="1.2976">
        <ele>146.8</ele>
        <time>2022-10-26T15:25:32Z</time>
      </trkpt>
      <trkpt lat="43.626" lon="1.29766">
        <ele>146.8</ele>
        <time>2022-10-26T15:25:33Z</time>
      </trkpt>
      <trkpt lat="43.62606" lon="1.29772">
        <ele>146.8</ele>
        <time>2022-10-26T15:25:34Z</time>
      </trkpt>
      <trkpt lat="43.62613" lon="1.29778">
        <ele>146.8</ele>
        <time>2022-10-26T15:25:35Z</time>
      </trkpt>
      <trkpt lat="43.62619" lon="1.29784">
        <ele>146.6</ele>
        <time>2022-10-26T15:25:36Z</time>
      </trkpt>
      <trkpt lat="43.62626" lon="1.2979">
        <ele>146.4</ele>
        <time>2022-10-26T15:25:37Z</time>
      </trkpt>
      <trkpt lat="43.62632" lon="1.29796">
        <ele>146.4</ele>
        <time>2022-10-26T15:25:38Z</time>
      </trkpt>
      <trkpt lat="43.62639" lon="1.29802">
        <ele>146.4</ele>
        <time>2022-10-26T15:25:39Z</time>
      </trkpt>
      <trkpt lat="43.62645" lon="1.29807">
        <ele>146.2</ele>
        <time>2022-10-26T15:25:40Z</time>
      </trkpt>
      <trkpt lat="43.62652" lon="1.29813">
        <ele>146.2</ele>
        <time>2022-10-26T15:25:41Z</time>
      </trkpt>
      <trkpt lat="43.62659" lon="1.29818">
        <ele>146.2</ele>
        <time>2022-10-26T15:25:42Z</time>
      </trkpt>
      <trkpt lat="43.62666" lon="1.29824">
        <ele>146</ele>
        <time>2022-10-26T15:25:43Z</time>
      </trkpt>
      <trkpt lat="43.62672" lon="1.2983">
        <ele>146</ele>
        <time>2022-10-26T15:25:44Z</time>
      </trkpt>
      <trkpt lat="43.62679" lon="1.29836">
        <ele>146</ele>
        <time>2022-10-26T15:25:45Z</time>
      </trkpt>
      <trkpt lat="43.62685" lon="1.29843">
        <ele>145.6</ele>
        <time>2022-10-26T15:25:46Z</time>
      </trkpt>
      <trkpt lat="43.6269" lon="1.29849">
        <ele>145.6</ele>
        <time>2022-10-26T15:25:47Z</time>
      </trkpt>
      <trkpt lat="43.62697" lon="1.29858">
        <ele>145.4</ele>
        <time>2022-10-26T15:25:48Z</time>
      </trkpt>
      <trkpt lat="43.62702" lon="1.29866">
        <ele>145.4</ele>
        <time>2022-10-26T15:25:49Z</time>
      </trkpt>
      <trkpt lat="43.62708" lon="1.29874">
        <ele>145.2</ele>
        <time>2022-10-26T15:25:50Z</time>
      </trkpt>
      <trkpt lat="43.62713" lon="1.29882">
        <ele>145</ele>
        <time>2022-10-26T15:25:51Z</time>
      </trkpt>
      <trkpt lat="43.62718" lon="1.29888">
        <ele>145</ele>
        <time>2022-10-26T15:25:52Z</time>
      </trkpt>
      <trkpt lat="43.62724" lon="1.29898">
        <ele>145</ele>
        <time>2022-10-26T15:25:53Z</time>
      </trkpt>
      <trkpt lat="43.6273" lon="1.29906">
        <ele>145</ele>
        <time>2022-10-26T15:25:54Z</time>
      </trkpt>
      <trkpt lat="43.62735" lon="1.29914">
        <ele>144.8</ele>
        <time>2022-10-26T15:25:55Z</time>
      </trkpt>
      <trkpt lat="43.6274" lon="1.29922">
        <ele>144.8</ele>
        <time>2022-10-26T15:25:56Z</time>
      </trkpt>
      <trkpt lat="43.62746" lon="1.2993">
        <ele>144.6</ele>
        <time>2022-10-26T15:25:57Z</time>
      </trkpt>
      <trkpt lat="43.62751" lon="1.29938">
        <ele>144.6</ele>
        <time>2022-10-26T15:25:58Z</time>
      </trkpt>
      <trkpt lat="43.62757" lon="1.29946">
        <ele>144.4</ele>
        <time>2022-10-26T15:25:59Z</time>
      </trkpt>
      <trkpt lat="43.62762" lon="1.29954">
        <ele>144.4</ele>
        <time>2022-10-26T15:26:00Z</time>
      </trkpt>
      <trkpt lat="43.62768" lon="1.29961">
        <ele>144.4</ele>
        <time>2022-10-26T15:26:01Z</time>
      </trkpt>
      <trkpt lat="43.62773" lon="1.29969">
        <ele>144.4</ele>
        <time>2022-10-26T15:26:02Z</time>
      </trkpt>
      <trkpt lat="43.62778" lon="1.29977">
        <ele>144.2</ele>
        <time>2022-10-26T15:26:03Z</time>
      </trkpt>
      <trkpt lat="43.62783" lon="1.29984">
        <ele>144.4</ele>
        <time>2022-10-26T15:26:04Z</time>
      </trkpt>
      <trkpt lat="43.62788" lon="1.29991">
        <ele>144.2</ele>
        <time>2022-10-26T15:26:05Z</time>
      </trkpt>
      <trkpt lat="43.62794" lon="1.29997">
        <ele>144.2</ele>
        <time>2022-10-26T15:26:06Z</time>
      </trkpt>
      <trkpt lat="43.62799" lon="1.30004">
        <ele>144.2</ele>
        <time>2022-10-26T15:26:07Z</time>
      </trkpt>
      <trkpt lat="43.62804" lon="1.3001">
        <ele>144</ele>
        <time>2022-10-26T15:26:08Z</time>
      </trkpt>
      <trkpt lat="43.62809" lon="1.30016">
        <ele>144</ele>
        <time>2022-10-26T15:26:09Z</time>
      </trkpt>
      <trkpt lat="43.62814" lon="1.30021">
        <ele>144</ele>
        <time>2022-10-26T15:26:10Z</time>
      </trkpt>
      <trkpt lat="43.62816" lon="1.30028">
        <ele>143.8</ele>
        <time>2022-10-26T15:26:11Z</time>
      </trkpt>
      <trkpt lat="43.62817" lon="1.30034">
        <ele>143.6</ele>
        <time>2022-10-26T15:26:12Z</time>
      </trkpt>
      <trkpt lat="43.62815" lon="1.3004">
        <ele>143.4</ele>
        <time>2022-10-26T15:26:13Z</time>
      </trkpt>
      <trkpt lat="43.62813" lon="1.30046">
        <ele>143</ele>
        <time>2022-10-26T15:26:14Z</time>
      </trkpt>
      <trkpt lat="43.6281" lon="1.30053">
        <ele>143</ele>
        <time>2022-10-26T15:26:15Z</time>
      </trkpt>
      <trkpt lat="43.62806" lon="1.30061">
        <ele>142.8</ele>
        <time>2022-10-26T15:26:16Z</time>
      </trkpt>
      <trkpt lat="43.62804" lon="1.30069">
        <ele>142.6</ele>
        <time>2022-10-26T15:26:17Z</time>
      </trkpt>
      <trkpt lat="43.62801" lon="1.30076">
        <ele>142.4</ele>
        <time>2022-10-26T15:26:18Z</time>
      </trkpt>
      <trkpt lat="43.62798" lon="1.30084">
        <ele>142.2</ele>
        <time>2022-10-26T15:26:19Z</time>
      </trkpt>
      <trkpt lat="43.62795" lon="1.30092">
        <ele>142.2</ele>
        <time>2022-10-26T15:26:20Z</time>
      </trkpt>
      <trkpt lat="43.62792" lon="1.30099">
        <ele>142</ele>
        <time>2022-10-26T15:26:21Z</time>
      </trkpt>
      <trkpt lat="43.62789" lon="1.30107">
        <ele>142</ele>
        <time>2022-10-26T15:26:22Z</time>
      </trkpt>
      <trkpt lat="43.62786" lon="1.30114">
        <ele>141.8</ele>
        <time>2022-10-26T15:26:23Z</time>
      </trkpt>
      <trkpt lat="43.62782" lon="1.30122">
        <ele>141.8</ele>
        <time>2022-10-26T15:26:24Z</time>
      </trkpt>
      <trkpt lat="43.62779" lon="1.30129">
        <ele>141.6</ele>
        <time>2022-10-26T15:26:25Z</time>
      </trkpt>
      <trkpt lat="43.62779" lon="1.30129">
        <ele>141.6</ele>
        <time>2022-10-26T15:26:26Z</time>
      </trkpt>
      <trkpt lat="43.62771" lon="1.30143">
        <ele>141.6</ele>
        <time>2022-10-26T15:26:27Z</time>
      </trkpt>
      <trkpt lat="43.62768" lon="1.30149">
        <ele>141.6</ele>
        <time>2022-10-26T15:26:28Z</time>
      </trkpt>
      <trkpt lat="43.62768" lon="1.30149">
        <ele>141.6</ele>
        <time>2022-10-26T15:26:29Z</time>
      </trkpt>
      <trkpt lat="43.62763" lon="1.30158">
        <ele>141.6</ele>
        <time>2022-10-26T15:26:30Z</time>
      </trkpt>
      <trkpt lat="43.62762" lon="1.30161">
        <ele>141.6</ele>
        <time>2022-10-26T15:26:31Z</time>
      </trkpt>
      <trkpt lat="43.62762" lon="1.30161">
        <ele>141.8</ele>
        <time>2022-10-26T15:26:32Z</time>
      </trkpt>
      <trkpt lat="43.62759" lon="1.30166">
        <ele>142</ele>
        <time>2022-10-26T15:26:33Z</time>
      </trkpt>
      <trkpt lat="43.62757" lon="1.30169">
        <ele>142.2</ele>
        <time>2022-10-26T15:26:34Z</time>
      </trkpt>
      <trkpt lat="43.62755" lon="1.30171">
        <ele>142.2</ele>
        <time>2022-10-26T15:26:35Z</time>
      </trkpt>
      <trkpt lat="43.62752" lon="1.30174">
        <ele>142.4</ele>
        <time>2022-10-26T15:26:36Z</time>
      </trkpt>
      <trkpt lat="43.6275" lon="1.30179">
        <ele>142.4</ele>
        <time>2022-10-26T15:26:37Z</time>
      </trkpt>
      <trkpt lat="43.62746" lon="1.30184">
        <ele>142.6</ele>
        <time>2022-10-26T15:26:38Z</time>
      </trkpt>
      <trkpt lat="43.62743" lon="1.30191">
        <ele>142.6</ele>
        <time>2022-10-26T15:26:39Z</time>
      </trkpt>
      <trkpt lat="43.62739" lon="1.30198">
        <ele>142.6</ele>
        <time>2022-10-26T15:26:40Z</time>
      </trkpt>
      <trkpt lat="43.62736" lon="1.30204">
        <ele>142.6</ele>
        <time>2022-10-26T15:26:41Z</time>
      </trkpt>
      <trkpt lat="43.62733" lon="1.30209">
        <ele>142.6</ele>
        <time>2022-10-26T15:26:42Z</time>
      </trkpt>
      <trkpt lat="43.6273" lon="1.30214">
        <ele>142.6</ele>
        <time>2022-10-26T15:26:43Z</time>
      </trkpt>
      <trkpt lat="43.62727" lon="1.30219">
        <ele>142.6</ele>
        <time>2022-10-26T15:26:44Z</time>
      </trkpt>
      <trkpt lat="43.62724" lon="1.30223">
        <ele>142.6</ele>
        <time>2022-10-26T15:26:45Z</time>
      </trkpt>
      <trkpt lat="43.62722" lon="1.30227">
        <ele>142.6</ele>
        <time>2022-10-26T15:26:46Z</time>
      </trkpt>
      <trkpt lat="43.6272" lon="1.30231">
        <ele>142.6</ele>
        <time>2022-10-26T15:26:47Z</time>
      </trkpt>
      <trkpt lat="43.62718" lon="1.30234">
        <ele>142.6</ele>
        <time>2022-10-26T15:26:48Z</time>
      </trkpt>
      <trkpt lat="43.62716" lon="1.30237">
        <ele>142.6</ele>
        <time>2022-10-26T15:26:49Z</time>
      </trkpt>
      <trkpt lat="43.62714" lon="1.30239">
        <ele>142.6</ele>
        <time>2022-10-26T15:26:50Z</time>
      </trkpt>
      <trkpt lat="43.62712" lon="1.30242">
        <ele>142.6</ele>
        <time>2022-10-26T15:26:51Z</time>
      </trkpt>
      <trkpt lat="43.6271" lon="1.30244">
        <ele>142.8</ele>
        <time>2022-10-26T15:26:52Z</time>
      </trkpt>
      <trkpt lat="43.62708" lon="1.30247">
        <ele>143</ele>
        <time>2022-10-26T15:26:53Z</time>
      </trkpt>
      <trkpt lat="43.62705" lon="1.30249">
        <ele>143.4</ele>
        <time>2022-10-26T15:26:54Z</time>
      </trkpt>
      <trkpt lat="43.62703" lon="1.30252">
        <ele>143.6</ele>
        <time>2022-10-26T15:26:55Z</time>
      </trkpt>
      <trkpt lat="43.62701" lon="1.30254">
        <ele>143.8</ele>
        <time>2022-10-26T15:26:56Z</time>
      </trkpt>
      <trkpt lat="43.62699" lon="1.30256">
        <ele>143.8</ele>
        <time>2022-10-26T15:26:57Z</time>
      </trkpt>
      <trkpt lat="43.62696" lon="1.3026">
        <ele>144.2</ele>
        <time>2022-10-26T15:26:58Z</time>
      </trkpt>
      <trkpt lat="43.62693" lon="1.30264">
        <ele>144.4</ele>
        <time>2022-10-26T15:26:59Z</time>
      </trkpt>
      <trkpt lat="43.6269" lon="1.30268">
        <ele>144.6</ele>
        <time>2022-10-26T15:27:00Z</time>
      </trkpt>
      <trkpt lat="43.62687" lon="1.30271">
        <ele>144.8</ele>
        <time>2022-10-26T15:27:01Z</time>
      </trkpt>
      <trkpt lat="43.62684" lon="1.30275">
        <ele>145</ele>
        <time>2022-10-26T15:27:02Z</time>
      </trkpt>
      <trkpt lat="43.62681" lon="1.30279">
        <ele>145.2</ele>
        <time>2022-10-26T15:27:03Z</time>
      </trkpt>
      <trkpt lat="43.62678" lon="1.30282">
        <ele>145.2</ele>
        <time>2022-10-26T15:27:04Z</time>
      </trkpt>
      <trkpt lat="43.62675" lon="1.30286">
        <ele>145.4</ele>
        <time>2022-10-26T15:27:05Z</time>
      </trkpt>
      <trkpt lat="43.62672" lon="1.30288">
        <ele>145.6</ele>
        <time>2022-10-26T15:27:06Z</time>
      </trkpt>
      <trkpt lat="43.62669" lon="1.30291">
        <ele>145.6</ele>
        <time>2022-10-26T15:27:07Z</time>
      </trkpt>
      <trkpt lat="43.62667" lon="1.30293">
        <ele>145.8</ele>
        <time>2022-10-26T15:27:08Z</time>
      </trkpt>
      <trkpt lat="43.62665" lon="1.30295">
        <ele>146</ele>
        <time>2022-10-26T15:27:09Z</time>
      </trkpt>
      <trkpt lat="43.62662" lon="1.30298">
        <ele>146.4</ele>
        <time>2022-10-26T15:27:10Z</time>
      </trkpt>
      <trkpt lat="43.6266" lon="1.30301">
        <ele>146.4</ele>
        <time>2022-10-26T15:27:11Z</time>
      </trkpt>
      <trkpt lat="43.62658" lon="1.30303">
        <ele>146.6</ele>
        <time>2022-10-26T15:27:12Z</time>
      </trkpt>
      <trkpt lat="43.62658" lon="1.30303">
        <ele>146.8</ele>
        <time>2022-10-26T15:27:13Z</time>
      </trkpt>
      <trkpt lat="43.62654" lon="1.30308">
        <ele>147</ele>
        <time>2022-10-26T15:27:14Z</time>
      </trkpt>
      <trkpt lat="43.62652" lon="1.30311">
        <ele>147.2</ele>
        <time>2022-10-26T15:27:15Z</time>
      </trkpt>
      <trkpt lat="43.62651" lon="1.30313">
        <ele>147.4</ele>
        <time>2022-10-26T15:27:16Z</time>
      </trkpt>
      <trkpt lat="43.62648" lon="1.30315">
        <ele>147.6</ele>
        <time>2022-10-26T15:27:17Z</time>
      </trkpt>
      <trkpt lat="43.62648" lon="1.30315">
        <ele>147.6</ele>
        <time>2022-10-26T15:27:18Z</time>
      </trkpt>
      <trkpt lat="43.62643" lon="1.30314">
        <ele>147.8</ele>
        <time>2022-10-26T15:27:19Z</time>
      </trkpt>
      <trkpt lat="43.62641" lon="1.30313">
        <ele>148</ele>
        <time>2022-10-26T15:27:20Z</time>
      </trkpt>
      <trkpt lat="43.62638" lon="1.30312">
        <ele>148</ele>
        <time>2022-10-26T15:27:21Z</time>
      </trkpt>
      <trkpt lat="43.62636" lon="1.30313">
        <ele>148.2</ele>
        <time>2022-10-26T15:27:22Z</time>
      </trkpt>
      <trkpt lat="43.62633" lon="1.30313">
        <ele>148.4</ele>
        <time>2022-10-26T15:27:23Z</time>
      </trkpt>
      <trkpt lat="43.62631" lon="1.30314">
        <ele>148.6</ele>
        <time>2022-10-26T15:27:24Z</time>
      </trkpt>
      <trkpt lat="43.62629" lon="1.30313">
        <ele>148.8</ele>
        <time>2022-10-26T15:27:25Z</time>
      </trkpt>
      <trkpt lat="43.62626" lon="1.30313">
        <ele>148.8</ele>
        <time>2022-10-26T15:27:26Z</time>
      </trkpt>
      <trkpt lat="43.62624" lon="1.30313">
        <ele>149</ele>
        <time>2022-10-26T15:27:27Z</time>
      </trkpt>
      <trkpt lat="43.62622" lon="1.30314">
        <ele>149</ele>
        <time>2022-10-26T15:27:28Z</time>
      </trkpt>
      <trkpt lat="43.62619" lon="1.30314">
        <ele>149.2</ele>
        <time>2022-10-26T15:27:29Z</time>
      </trkpt>
      <trkpt lat="43.62617" lon="1.30313">
        <ele>149.4</ele>
        <time>2022-10-26T15:27:30Z</time>
      </trkpt>
      <trkpt lat="43.62615" lon="1.30313">
        <ele>149.6</ele>
        <time>2022-10-26T15:27:31Z</time>
      </trkpt>
      <trkpt lat="43.62613" lon="1.30313">
        <ele>149.6</ele>
        <time>2022-10-26T15:27:32Z</time>
      </trkpt>
      <trkpt lat="43.62611" lon="1.30312">
        <ele>149.8</ele>
        <time>2022-10-26T15:27:33Z</time>
      </trkpt>
      <trkpt lat="43.62609" lon="1.30312">
        <ele>150</ele>
        <time>2022-10-26T15:27:34Z</time>
      </trkpt>
      <trkpt lat="43.62607" lon="1.30311">
        <ele>150.2</ele>
        <time>2022-10-26T15:27:35Z</time>
      </trkpt>
      <trkpt lat="43.62604" lon="1.30311">
        <ele>150.4</ele>
        <time>2022-10-26T15:27:36Z</time>
      </trkpt>
      <trkpt lat="43.62602" lon="1.30312">
        <ele>150.6</ele>
        <time>2022-10-26T15:27:37Z</time>
      </trkpt>
      <trkpt lat="43.62599" lon="1.30312">
        <ele>150.8</ele>
        <time>2022-10-26T15:27:38Z</time>
      </trkpt>
      <trkpt lat="43.62597" lon="1.30311">
        <ele>150.8</ele>
        <time>2022-10-26T15:27:39Z</time>
      </trkpt>
      <trkpt lat="43.62595" lon="1.30311">
        <ele>151</ele>
        <time>2022-10-26T15:27:40Z</time>
      </trkpt>
      <trkpt lat="43.62593" lon="1.30312">
        <ele>151.4</ele>
        <time>2022-10-26T15:27:41Z</time>
      </trkpt>
      <trkpt lat="43.62591" lon="1.30312">
        <ele>151.4</ele>
        <time>2022-10-26T15:27:42Z</time>
      </trkpt>
      <trkpt lat="43.62589" lon="1.30311">
        <ele>151.6</ele>
        <time>2022-10-26T15:27:43Z</time>
      </trkpt>
      <trkpt lat="43.62587" lon="1.3031">
        <ele>151.8</ele>
        <time>2022-10-26T15:27:44Z</time>
      </trkpt>
      <trkpt lat="43.62584" lon="1.3031">
        <ele>152.2</ele>
        <time>2022-10-26T15:27:45Z</time>
      </trkpt>
      <trkpt lat="43.62581" lon="1.30309">
        <ele>152.2</ele>
        <time>2022-10-26T15:27:46Z</time>
      </trkpt>
      <trkpt lat="43.62579" lon="1.30308">
        <ele>152.6</ele>
        <time>2022-10-26T15:27:47Z</time>
      </trkpt>
      <trkpt lat="43.62577" lon="1.30307">
        <ele>152.8</ele>
        <time>2022-10-26T15:27:48Z</time>
      </trkpt>
      <trkpt lat="43.62573" lon="1.30307">
        <ele>152.8</ele>
        <time>2022-10-26T15:27:49Z</time>
      </trkpt>
      <trkpt lat="43.62569" lon="1.30307">
        <ele>153.2</ele>
        <time>2022-10-26T15:27:50Z</time>
      </trkpt>
      <trkpt lat="43.62566" lon="1.30307">
        <ele>153.2</ele>
        <time>2022-10-26T15:27:51Z</time>
      </trkpt>
      <trkpt lat="43.62563" lon="1.30306">
        <ele>153.4</ele>
        <time>2022-10-26T15:27:52Z</time>
      </trkpt>
      <trkpt lat="43.62561" lon="1.30306">
        <ele>153.6</ele>
        <time>2022-10-26T15:27:53Z</time>
      </trkpt>
      <trkpt lat="43.62558" lon="1.30306">
        <ele>154</ele>
        <time>2022-10-26T15:27:54Z</time>
      </trkpt>
      <trkpt lat="43.62556" lon="1.30305">
        <ele>154.2</ele>
        <time>2022-10-26T15:27:55Z</time>
      </trkpt>
      <trkpt lat="43.62554" lon="1.30305">
        <ele>154.4</ele>
        <time>2022-10-26T15:27:56Z</time>
      </trkpt>
      <trkpt lat="43.62551" lon="1.30304">
        <ele>154.6</ele>
        <time>2022-10-26T15:27:57Z</time>
      </trkpt>
      <trkpt lat="43.62547" lon="1.30305">
        <ele>154.8</ele>
        <time>2022-10-26T15:27:58Z</time>
      </trkpt>
      <trkpt lat="43.62544" lon="1.30305">
        <ele>155.2</ele>
        <time>2022-10-26T15:27:59Z</time>
      </trkpt>
      <trkpt lat="43.62541" lon="1.30305">
        <ele>155.6</ele>
        <time>2022-10-26T15:28:00Z</time>
      </trkpt>
      <trkpt lat="43.62539" lon="1.30306">
        <ele>156</ele>
        <time>2022-10-26T15:28:01Z</time>
      </trkpt>
      <trkpt lat="43.62537" lon="1.30306">
        <ele>156.4</ele>
        <time>2022-10-26T15:28:02Z</time>
      </trkpt>
      <trkpt lat="43.62534" lon="1.30307">
        <ele>156.8</ele>
        <time>2022-10-26T15:28:03Z</time>
      </trkpt>
      <trkpt lat="43.62533" lon="1.30306">
        <ele>157.2</ele>
        <time>2022-10-26T15:28:04Z</time>
      </trkpt>
      <trkpt lat="43.6253" lon="1.30307">
        <ele>157.4</ele>
        <time>2022-10-26T15:28:05Z</time>
      </trkpt>
      <trkpt lat="43.62528" lon="1.30307">
        <ele>157.8</ele>
        <time>2022-10-26T15:28:06Z</time>
      </trkpt>
      <trkpt lat="43.62526" lon="1.30307">
        <ele>158</ele>
        <time>2022-10-26T15:28:07Z</time>
      </trkpt>
      <trkpt lat="43.62525" lon="1.30307">
        <ele>158.2</ele>
        <time>2022-10-26T15:28:08Z</time>
      </trkpt>
      <trkpt lat="43.62524" lon="1.30307">
        <ele>158.8</ele>
        <time>2022-10-26T15:28:09Z</time>
      </trkpt>
      <trkpt lat="43.62521" lon="1.30308">
        <ele>159</ele>
        <time>2022-10-26T15:28:10Z</time>
      </trkpt>
      <trkpt lat="43.62519" lon="1.30308">
        <ele>159.4</ele>
        <time>2022-10-26T15:28:11Z</time>
      </trkpt>
      <trkpt lat="43.62517" lon="1.30308">
        <ele>159.4</ele>
        <time>2022-10-26T15:28:12Z</time>
      </trkpt>
      <trkpt lat="43.62515" lon="1.30309">
        <ele>159.8</ele>
        <time>2022-10-26T15:28:13Z</time>
      </trkpt>
      <trkpt lat="43.62513" lon="1.30309">
        <ele>159.8</ele>
        <time>2022-10-26T15:28:14Z</time>
      </trkpt>
      <trkpt lat="43.62511" lon="1.30309">
        <ele>160.4</ele>
        <time>2022-10-26T15:28:15Z</time>
      </trkpt>
      <trkpt lat="43.62509" lon="1.30309">
        <ele>160.8</ele>
        <time>2022-10-26T15:28:16Z</time>
      </trkpt>
      <trkpt lat="43.62507" lon="1.30308">
        <ele>161</ele>
        <time>2022-10-26T15:28:17Z</time>
      </trkpt>
      <trkpt lat="43.62505" lon="1.30307">
        <ele>161.6</ele>
        <time>2022-10-26T15:28:18Z</time>
      </trkpt>
      <trkpt lat="43.62503" lon="1.30307">
        <ele>161.8</ele>
        <time>2022-10-26T15:28:19Z</time>
      </trkpt>
      <trkpt lat="43.62501" lon="1.30306">
        <ele>162</ele>
        <time>2022-10-26T15:28:20Z</time>
      </trkpt>
      <trkpt lat="43.62499" lon="1.30305">
        <ele>162.2</ele>
        <time>2022-10-26T15:28:21Z</time>
      </trkpt>
      <trkpt lat="43.62497" lon="1.30304">
        <ele>162.6</ele>
        <time>2022-10-26T15:28:22Z</time>
      </trkpt>
      <trkpt lat="43.62495" lon="1.30302">
        <ele>163</ele>
        <time>2022-10-26T15:28:23Z</time>
      </trkpt>
      <trkpt lat="43.62493" lon="1.30301">
        <ele>163</ele>
        <time>2022-10-26T15:28:24Z</time>
      </trkpt>
      <trkpt lat="43.62491" lon="1.303">
        <ele>163.4</ele>
        <time>2022-10-26T15:28:25Z</time>
      </trkpt>
      <trkpt lat="43.6249" lon="1.30299">
        <ele>163.6</ele>
        <time>2022-10-26T15:28:26Z</time>
      </trkpt>
      <trkpt lat="43.62488" lon="1.30298">
        <ele>163.8</ele>
        <time>2022-10-26T15:28:27Z</time>
      </trkpt>
      <trkpt lat="43.62485" lon="1.30298">
        <ele>164</ele>
        <time>2022-10-26T15:28:28Z</time>
      </trkpt>
      <trkpt lat="43.62482" lon="1.30299">
        <ele>164</ele>
        <time>2022-10-26T15:28:29Z</time>
      </trkpt>
      <trkpt lat="43.6248" lon="1.303">
        <ele>164.6</ele>
        <time>2022-10-26T15:28:30Z</time>
      </trkpt>
      <trkpt lat="43.62478" lon="1.30302">
        <ele>164.6</ele>
        <time>2022-10-26T15:28:31Z</time>
      </trkpt>
      <trkpt lat="43.62476" lon="1.30303">
        <ele>164.8</ele>
        <time>2022-10-26T15:28:32Z</time>
      </trkpt>
      <trkpt lat="43.62474" lon="1.30305">
        <ele>164.8</ele>
        <time>2022-10-26T15:28:33Z</time>
      </trkpt>
      <trkpt lat="43.62472" lon="1.30308">
        <ele>165.2</ele>
        <time>2022-10-26T15:28:34Z</time>
      </trkpt>
      <trkpt lat="43.62471" lon="1.30311">
        <ele>165.4</ele>
        <time>2022-10-26T15:28:35Z</time>
      </trkpt>
      <trkpt lat="43.6247" lon="1.30314">
        <ele>165.6</ele>
        <time>2022-10-26T15:28:36Z</time>
      </trkpt>
      <trkpt lat="43.62468" lon="1.30316">
        <ele>165.8</ele>
        <time>2022-10-26T15:28:37Z</time>
      </trkpt>
      <trkpt lat="43.62466" lon="1.30318">
        <ele>165.8</ele>
        <time>2022-10-26T15:28:38Z</time>
      </trkpt>
      <trkpt lat="43.62464" lon="1.3032">
        <ele>166</ele>
        <time>2022-10-26T15:28:39Z</time>
      </trkpt>
      <trkpt lat="43.62462" lon="1.3032">
        <ele>166</ele>
        <time>2022-10-26T15:28:40Z</time>
      </trkpt>
      <trkpt lat="43.62461" lon="1.3032">
        <ele>166.2</ele>
        <time>2022-10-26T15:28:41Z</time>
      </trkpt>
      <trkpt lat="43.62459" lon="1.30318">
        <ele>166.4</ele>
        <time>2022-10-26T15:28:42Z</time>
      </trkpt>
      <trkpt lat="43.62458" lon="1.30317">
        <ele>166.6</ele>
        <time>2022-10-26T15:28:43Z</time>
      </trkpt>
      <trkpt lat="43.62456" lon="1.30315">
        <ele>166.8</ele>
        <time>2022-10-26T15:28:44Z</time>
      </trkpt>
      <trkpt lat="43.62454" lon="1.30312">
        <ele>166.8</ele>
        <time>2022-10-26T15:28:45Z</time>
      </trkpt>
      <trkpt lat="43.62452" lon="1.30309">
        <ele>166.8</ele>
        <time>2022-10-26T15:28:46Z</time>
      </trkpt>
      <trkpt lat="43.62449" lon="1.30306">
        <ele>167</ele>
        <time>2022-10-26T15:28:47Z</time>
      </trkpt>
      <trkpt lat="43.62449" lon="1.30306">
        <ele>167.2</ele>
        <time>2022-10-26T15:28:48Z</time>
      </trkpt>
      <trkpt lat="43.62443" lon="1.30299">
        <ele>167.2</ele>
        <time>2022-10-26T15:28:49Z</time>
      </trkpt>
      <trkpt lat="43.6244" lon="1.30296">
        <ele>167.4</ele>
        <time>2022-10-26T15:28:50Z</time>
      </trkpt>
      <trkpt lat="43.62437" lon="1.30292">
        <ele>167.4</ele>
        <time>2022-10-26T15:28:51Z</time>
      </trkpt>
      <trkpt lat="43.62434" lon="1.30289">
        <ele>167.6</ele>
        <time>2022-10-26T15:28:52Z</time>
      </trkpt>
      <trkpt lat="43.62431" lon="1.30286">
        <ele>167.6</ele>
        <time>2022-10-26T15:28:53Z</time>
      </trkpt>
      <trkpt lat="43.62428" lon="1.30283">
        <ele>167.8</ele>
        <time>2022-10-26T15:28:54Z</time>
      </trkpt>
      <trkpt lat="43.62425" lon="1.3028">
        <ele>167.8</ele>
        <time>2022-10-26T15:28:55Z</time>
      </trkpt>
      <trkpt lat="43.62422" lon="1.30276">
        <ele>167.8</ele>
        <time>2022-10-26T15:28:56Z</time>
      </trkpt>
      <trkpt lat="43.62419" lon="1.30272">
        <ele>168</ele>
        <time>2022-10-26T15:28:57Z</time>
      </trkpt>
      <trkpt lat="43.62416" lon="1.30268">
        <ele>168</ele>
        <time>2022-10-26T15:28:58Z</time>
      </trkpt>
      <trkpt lat="43.62412" lon="1.30265">
        <ele>168</ele>
        <time>2022-10-26T15:28:59Z</time>
      </trkpt>
      <trkpt lat="43.6241" lon="1.30262">
        <ele>168.2</ele>
        <time>2022-10-26T15:29:00Z</time>
      </trkpt>
      <trkpt lat="43.62407" lon="1.30258">
        <ele>168.2</ele>
        <time>2022-10-26T15:29:01Z</time>
      </trkpt>
      <trkpt lat="43.62403" lon="1.30254">
        <ele>168.2</ele>
        <time>2022-10-26T15:29:02Z</time>
      </trkpt>
      <trkpt lat="43.62399" lon="1.3025">
        <ele>168.2</ele>
        <time>2022-10-26T15:29:03Z</time>
      </trkpt>
      <trkpt lat="43.62396" lon="1.30245">
        <ele>168.4</ele>
        <time>2022-10-26T15:29:04Z</time>
      </trkpt>
      <trkpt lat="43.62394" lon="1.30239">
        <ele>168.6</ele>
        <time>2022-10-26T15:29:05Z</time>
      </trkpt>
      <trkpt lat="43.62391" lon="1.30233">
        <ele>168.6</ele>
        <time>2022-10-26T15:29:06Z</time>
      </trkpt>
      <trkpt lat="43.62387" lon="1.30228">
        <ele>168.6</ele>
        <time>2022-10-26T15:29:07Z</time>
      </trkpt>
      <trkpt lat="43.62383" lon="1.30224">
        <ele>168.8</ele>
        <time>2022-10-26T15:29:08Z</time>
      </trkpt>
      <trkpt lat="43.6238" lon="1.3022">
        <ele>169</ele>
        <time>2022-10-26T15:29:09Z</time>
      </trkpt>
      <trkpt lat="43.62376" lon="1.30217">
        <ele>169</ele>
        <time>2022-10-26T15:29:10Z</time>
      </trkpt>
      <trkpt lat="43.62373" lon="1.30214">
        <ele>169</ele>
        <time>2022-10-26T15:29:11Z</time>
      </trkpt>
      <trkpt lat="43.62369" lon="1.30211">
        <ele>169.2</ele>
        <time>2022-10-26T15:29:12Z</time>
      </trkpt>
      <trkpt lat="43.62366" lon="1.30206">
        <ele>169.2</ele>
        <time>2022-10-26T15:29:13Z</time>
      </trkpt>
      <trkpt lat="43.62362" lon="1.30203">
        <ele>169.2</ele>
        <time>2022-10-26T15:29:14Z</time>
      </trkpt>
      <trkpt lat="43.62358" lon="1.30199">
        <ele>169.2</ele>
        <time>2022-10-26T15:29:15Z</time>
      </trkpt>
      <trkpt lat="43.62354" lon="1.30195">
        <ele>169.2</ele>
        <time>2022-10-26T15:29:16Z</time>
      </trkpt>
      <trkpt lat="43.62349" lon="1.30191">
        <ele>169.2</ele>
        <time>2022-10-26T15:29:17Z</time>
      </trkpt>
      <trkpt lat="43.62345" lon="1.30186">
        <ele>169.2</ele>
        <time>2022-10-26T15:29:18Z</time>
      </trkpt>
      <trkpt lat="43.62341" lon="1.30182">
        <ele>169.2</ele>
        <time>2022-10-26T15:29:19Z</time>
      </trkpt>
      <trkpt lat="43.62337" lon="1.30177">
        <ele>169.4</ele>
        <time>2022-10-26T15:29:20Z</time>
      </trkpt>
      <trkpt lat="43.62333" lon="1.30172">
        <ele>169.4</ele>
        <time>2022-10-26T15:29:21Z</time>
      </trkpt>
      <trkpt lat="43.62329" lon="1.30168">
        <ele>169.4</ele>
        <time>2022-10-26T15:29:22Z</time>
      </trkpt>
      <trkpt lat="43.62325" lon="1.30165">
        <ele>169.4</ele>
        <time>2022-10-26T15:29:23Z</time>
      </trkpt>
      <trkpt lat="43.62321" lon="1.3016">
        <ele>169.2</ele>
        <time>2022-10-26T15:29:24Z</time>
      </trkpt>
      <trkpt lat="43.62316" lon="1.30157">
        <ele>169.2</ele>
        <time>2022-10-26T15:29:25Z</time>
      </trkpt>
      <trkpt lat="43.62312" lon="1.30153">
        <ele>169.2</ele>
        <time>2022-10-26T15:29:26Z</time>
      </trkpt>
      <trkpt lat="43.62307" lon="1.30144">
        <ele>169.2</ele>
        <time>2022-10-26T15:29:27Z</time>
      </trkpt>
      <trkpt lat="43.62303" lon="1.30136">
        <ele>169</ele>
        <time>2022-10-26T15:29:28Z</time>
      </trkpt>
      <trkpt lat="43.62301" lon="1.30127">
        <ele>168.8</ele>
        <time>2022-10-26T15:29:29Z</time>
      </trkpt>
      <trkpt lat="43.623" lon="1.30119">
        <ele>168.6</ele>
        <time>2022-10-26T15:29:30Z</time>
      </trkpt>
      <trkpt lat="43.62299" lon="1.30112">
        <ele>168.6</ele>
        <time>2022-10-26T15:29:31Z</time>
      </trkpt>
      <trkpt lat="43.62298" lon="1.30105">
        <ele>168.4</ele>
        <time>2022-10-26T15:29:32Z</time>
      </trkpt>
      <trkpt lat="43.62297" lon="1.30097">
        <ele>168.2</ele>
        <time>2022-10-26T15:29:33Z</time>
      </trkpt>
      <trkpt lat="43.62295" lon="1.30088">
        <ele>168</ele>
        <time>2022-10-26T15:29:34Z</time>
      </trkpt>
      <trkpt lat="43.62293" lon="1.30081">
        <ele>167.6</ele>
        <time>2022-10-26T15:29:35Z</time>
      </trkpt>
      <trkpt lat="43.62291" lon="1.30076">
        <ele>167.4</ele>
        <time>2022-10-26T15:29:36Z</time>
      </trkpt>
      <trkpt lat="43.6229" lon="1.3007">
        <ele>167</ele>
        <time>2022-10-26T15:29:37Z</time>
      </trkpt>
      <trkpt lat="43.62289" lon="1.30067">
        <ele>166.6</ele>
        <time>2022-10-26T15:29:38Z</time>
      </trkpt>
      <trkpt lat="43.62288" lon="1.30064">
        <ele>166.4</ele>
        <time>2022-10-26T15:29:39Z</time>
      </trkpt>
      <trkpt lat="43.62286" lon="1.30062">
        <ele>166</ele>
        <time>2022-10-26T15:29:40Z</time>
      </trkpt>
      <trkpt lat="43.62283" lon="1.3006">
        <ele>166</ele>
        <time>2022-10-26T15:29:41Z</time>
      </trkpt>
      <trkpt lat="43.62281" lon="1.30056">
        <ele>166</ele>
        <time>2022-10-26T15:29:42Z</time>
      </trkpt>
      <trkpt lat="43.62278" lon="1.30053">
        <ele>166</ele>
        <time>2022-10-26T15:29:43Z</time>
      </trkpt>
      <trkpt lat="43.62277" lon="1.30051">
        <ele>165.8</ele>
        <time>2022-10-26T15:29:44Z</time>
      </trkpt>
      <trkpt lat="43.62275" lon="1.30048">
        <ele>165.8</ele>
        <time>2022-10-26T15:29:45Z</time>
      </trkpt>
      <trkpt lat="43.62273" lon="1.30044">
        <ele>166</ele>
        <time>2022-10-26T15:29:46Z</time>
      </trkpt>
      <trkpt lat="43.62272" lon="1.30038">
        <ele>166</ele>
        <time>2022-10-26T15:29:47Z</time>
      </trkpt>
      <trkpt lat="43.62268" lon="1.30032">
        <ele>165.8</ele>
        <time>2022-10-26T15:29:48Z</time>
      </trkpt>
      <trkpt lat="43.62265" lon="1.30028">
        <ele>166.2</ele>
        <time>2022-10-26T15:29:49Z</time>
      </trkpt>
      <trkpt lat="43.62263" lon="1.30022">
        <ele>166.2</ele>
        <time>2022-10-26T15:29:50Z</time>
      </trkpt>
      <trkpt lat="43.6226" lon="1.30015">
        <ele>166.4</ele>
        <time>2022-10-26T15:29:51Z</time>
      </trkpt>
      <trkpt lat="43.62257" lon="1.30009">
        <ele>166.4</ele>
        <time>2022-10-26T15:29:52Z</time>
      </trkpt>
      <trkpt lat="43.62254" lon="1.30004">
        <ele>166.6</ele>
        <time>2022-10-26T15:29:53Z</time>
      </trkpt>
      <trkpt lat="43.62251" lon="1.3">
        <ele>166.6</ele>
        <time>2022-10-26T15:29:54Z</time>
      </trkpt>
      <trkpt lat="43.62249" lon="1.29995">
        <ele>166.6</ele>
        <time>2022-10-26T15:29:55Z</time>
      </trkpt>
      <trkpt lat="43.62247" lon="1.29993">
        <ele>166.8</ele>
        <time>2022-10-26T15:29:56Z</time>
      </trkpt>
      <trkpt lat="43.62244" lon="1.2999">
        <ele>166.8</ele>
        <time>2022-10-26T15:29:57Z</time>
      </trkpt>
      <trkpt lat="43.62243" lon="1.29986">
        <ele>167</ele>
        <time>2022-10-26T15:29:58Z</time>
      </trkpt>
      <trkpt lat="43.62242" lon="1.29981">
        <ele>167</ele>
        <time>2022-10-26T15:29:59Z</time>
      </trkpt>
      <trkpt lat="43.62242" lon="1.29978">
        <ele>167</ele>
        <time>2022-10-26T15:30:00Z</time>
      </trkpt>
      <trkpt lat="43.6224" lon="1.29974">
        <ele>167.2</ele>
        <time>2022-10-26T15:30:01Z</time>
      </trkpt>
      <trkpt lat="43.62237" lon="1.29971">
        <ele>167.2</ele>
        <time>2022-10-26T15:30:02Z</time>
      </trkpt>
      <trkpt lat="43.62234" lon="1.29969">
        <ele>167.2</ele>
        <time>2022-10-26T15:30:03Z</time>
      </trkpt>
      <trkpt lat="43.6223" lon="1.29967">
        <ele>167.2</ele>
        <time>2022-10-26T15:30:04Z</time>
      </trkpt>
      <trkpt lat="43.62228" lon="1.29966">
        <ele>167.4</ele>
        <time>2022-10-26T15:30:05Z</time>
      </trkpt>
      <trkpt lat="43.62224" lon="1.29965">
        <ele>167.6</ele>
        <time>2022-10-26T15:30:06Z</time>
      </trkpt>
      <trkpt lat="43.62221" lon="1.29966">
        <ele>167.8</ele>
        <time>2022-10-26T15:30:07Z</time>
      </trkpt>
      <trkpt lat="43.62218" lon="1.29969">
        <ele>168</ele>
        <time>2022-10-26T15:30:08Z</time>
      </trkpt>
      <trkpt lat="43.62216" lon="1.29973">
        <ele>168</ele>
        <time>2022-10-26T15:30:09Z</time>
      </trkpt>
      <trkpt lat="43.62214" lon="1.29975">
        <ele>168</ele>
        <time>2022-10-26T15:30:10Z</time>
      </trkpt>
      <trkpt lat="43.62212" lon="1.2998">
        <ele>168.4</ele>
        <time>2022-10-26T15:30:11Z</time>
      </trkpt>
      <trkpt lat="43.6221" lon="1.29984">
        <ele>168.4</ele>
        <time>2022-10-26T15:30:12Z</time>
      </trkpt>
      <trkpt lat="43.62208" lon="1.29988">
        <ele>168.6</ele>
        <time>2022-10-26T15:30:13Z</time>
      </trkpt>
      <trkpt lat="43.62206" lon="1.29991">
        <ele>168.8</ele>
        <time>2022-10-26T15:30:14Z</time>
      </trkpt>
      <trkpt lat="43.62203" lon="1.29993">
        <ele>168.8</ele>
        <time>2022-10-26T15:30:15Z</time>
      </trkpt>
      <trkpt lat="43.62201" lon="1.29994">
        <ele>169</ele>
        <time>2022-10-26T15:30:16Z</time>
      </trkpt>
      <trkpt lat="43.62199" lon="1.29994">
        <ele>169</ele>
        <time>2022-10-26T15:30:17Z</time>
      </trkpt>
      <trkpt lat="43.62196" lon="1.29994">
        <ele>169.2</ele>
        <time>2022-10-26T15:30:18Z</time>
      </trkpt>
      <trkpt lat="43.62193" lon="1.29995">
        <ele>169.2</ele>
        <time>2022-10-26T15:30:19Z</time>
      </trkpt>
      <trkpt lat="43.6219" lon="1.29996">
        <ele>169.2</ele>
        <time>2022-10-26T15:30:20Z</time>
      </trkpt>
      <trkpt lat="43.62187" lon="1.29998">
        <ele>169.2</ele>
        <time>2022-10-26T15:30:21Z</time>
      </trkpt>
      <trkpt lat="43.62183" lon="1.3">
        <ele>169.2</ele>
        <time>2022-10-26T15:30:22Z</time>
      </trkpt>
      <trkpt lat="43.62179" lon="1.30002">
        <ele>169.4</ele>
        <time>2022-10-26T15:30:23Z</time>
      </trkpt>
      <trkpt lat="43.62175" lon="1.30006">
        <ele>169.4</ele>
        <time>2022-10-26T15:30:24Z</time>
      </trkpt>
      <trkpt lat="43.62173" lon="1.30009">
        <ele>169.4</ele>
        <time>2022-10-26T15:30:25Z</time>
      </trkpt>
      <trkpt lat="43.6217" lon="1.30011">
        <ele>169.4</ele>
        <time>2022-10-26T15:30:26Z</time>
      </trkpt>
      <trkpt lat="43.62166" lon="1.30013">
        <ele>169.4</ele>
        <time>2022-10-26T15:30:27Z</time>
      </trkpt>
      <trkpt lat="43.62161" lon="1.30016">
        <ele>169.4</ele>
        <time>2022-10-26T15:30:28Z</time>
      </trkpt>
      <trkpt lat="43.62158" lon="1.30019">
        <ele>169.4</ele>
        <time>2022-10-26T15:30:29Z</time>
      </trkpt>
      <trkpt lat="43.62155" lon="1.30021">
        <ele>169.2</ele>
        <time>2022-10-26T15:30:30Z</time>
      </trkpt>
      <trkpt lat="43.62151" lon="1.30023">
        <ele>169.2</ele>
        <time>2022-10-26T15:30:31Z</time>
      </trkpt>
      <trkpt lat="43.62147" lon="1.30026">
        <ele>169.2</ele>
        <time>2022-10-26T15:30:32Z</time>
      </trkpt>
      <trkpt lat="43.62145" lon="1.30029">
        <ele>169.2</ele>
        <time>2022-10-26T15:30:33Z</time>
      </trkpt>
      <trkpt lat="43.62142" lon="1.30033">
        <ele>169.2</ele>
        <time>2022-10-26T15:30:34Z</time>
      </trkpt>
      <trkpt lat="43.62139" lon="1.30036">
        <ele>169.2</ele>
        <time>2022-10-26T15:30:35Z</time>
      </trkpt>
      <trkpt lat="43.62138" lon="1.30037">
        <ele>169.2</ele>
        <time>2022-10-26T15:30:36Z</time>
      </trkpt>
      <trkpt lat="43.62135" lon="1.3004">
        <ele>169.4</ele>
        <time>2022-10-26T15:30:37Z</time>
      </trkpt>
      <trkpt lat="43.62132" lon="1.30042">
        <ele>169.4</ele>
        <time>2022-10-26T15:30:38Z</time>
      </trkpt>
      <trkpt lat="43.62129" lon="1.30045">
        <ele>169.4</ele>
        <time>2022-10-26T15:30:39Z</time>
      </trkpt>
      <trkpt lat="43.62126" lon="1.30048">
        <ele>169.6</ele>
        <time>2022-10-26T15:30:40Z</time>
      </trkpt>
      <trkpt lat="43.62123" lon="1.3005">
        <ele>169.8</ele>
        <time>2022-10-26T15:30:41Z</time>
      </trkpt>
      <trkpt lat="43.62119" lon="1.30053">
        <ele>169.8</ele>
        <time>2022-10-26T15:30:42Z</time>
      </trkpt>
      <trkpt lat="43.62116" lon="1.30054">
        <ele>169.8</ele>
        <time>2022-10-26T15:30:43Z</time>
      </trkpt>
      <trkpt lat="43.62112" lon="1.30056">
        <ele>169.8</ele>
        <time>2022-10-26T15:30:44Z</time>
      </trkpt>
      <trkpt lat="43.62106" lon="1.30057">
        <ele>169.8</ele>
        <time>2022-10-26T15:30:45Z</time>
      </trkpt>
      <trkpt lat="43.621" lon="1.30058">
        <ele>169.8</ele>
        <time>2022-10-26T15:30:46Z</time>
      </trkpt>
      <trkpt lat="43.62094" lon="1.30058">
        <ele>169.8</ele>
        <time>2022-10-26T15:30:47Z</time>
      </trkpt>
      <trkpt lat="43.62089" lon="1.30061">
        <ele>169.6</ele>
        <time>2022-10-26T15:30:48Z</time>
      </trkpt>
      <trkpt lat="43.62086" lon="1.30062">
        <ele>169.4</ele>
        <time>2022-10-26T15:30:49Z</time>
      </trkpt>
      <trkpt lat="43.62081" lon="1.30064">
        <ele>169.2</ele>
        <time>2022-10-26T15:30:50Z</time>
      </trkpt>
      <trkpt lat="43.62076" lon="1.30065">
        <ele>169</ele>
        <time>2022-10-26T15:30:51Z</time>
      </trkpt>
      <trkpt lat="43.62072" lon="1.30064">
        <ele>168.4</ele>
        <time>2022-10-26T15:30:52Z</time>
      </trkpt>
      <trkpt lat="43.62068" lon="1.30064">
        <ele>168</ele>
        <time>2022-10-26T15:30:53Z</time>
      </trkpt>
      <trkpt lat="43.62064" lon="1.30064">
        <ele>167.6</ele>
        <time>2022-10-26T15:30:54Z</time>
      </trkpt>
      <trkpt lat="43.6206" lon="1.30064">
        <ele>167.2</ele>
        <time>2022-10-26T15:30:55Z</time>
      </trkpt>
      <trkpt lat="43.62057" lon="1.30064">
        <ele>166.8</ele>
        <time>2022-10-26T15:30:56Z</time>
      </trkpt>
      <trkpt lat="43.62054" lon="1.30064">
        <ele>165.8</ele>
        <time>2022-10-26T15:30:57Z</time>
      </trkpt>
      <trkpt lat="43.62051" lon="1.30063">
        <ele>165.2</ele>
        <time>2022-10-26T15:30:58Z</time>
      </trkpt>
      <trkpt lat="43.62049" lon="1.30064">
        <ele>164.6</ele>
        <time>2022-10-26T15:30:59Z</time>
      </trkpt>
      <trkpt lat="43.62048" lon="1.30065">
        <ele>164.2</ele>
        <time>2022-10-26T15:31:00Z</time>
      </trkpt>
      <trkpt lat="43.62047" lon="1.30067">
        <ele>163.8</ele>
        <time>2022-10-26T15:31:01Z</time>
      </trkpt>
      <trkpt lat="43.62046" lon="1.30068">
        <ele>163</ele>
        <time>2022-10-26T15:31:02Z</time>
      </trkpt>
      <trkpt lat="43.62045" lon="1.30069">
        <ele>162.8</ele>
        <time>2022-10-26T15:31:03Z</time>
      </trkpt>
      <trkpt lat="43.62044" lon="1.30071">
        <ele>162.2</ele>
        <time>2022-10-26T15:31:04Z</time>
      </trkpt>
      <trkpt lat="43.62043" lon="1.30072">
        <ele>162</ele>
        <time>2022-10-26T15:31:05Z</time>
      </trkpt>
      <trkpt lat="43.62042" lon="1.30073">
        <ele>161.6</ele>
        <time>2022-10-26T15:31:06Z</time>
      </trkpt>
      <trkpt lat="43.6204" lon="1.30075">
        <ele>161.6</ele>
        <time>2022-10-26T15:31:07Z</time>
      </trkpt>
      <trkpt lat="43.6204" lon="1.30076">
        <ele>161.6</ele>
        <time>2022-10-26T15:31:08Z</time>
      </trkpt>
      <trkpt lat="43.62038" lon="1.30077">
        <ele>161.6</ele>
        <time>2022-10-26T15:31:09Z</time>
      </trkpt>
      <trkpt lat="43.62037" lon="1.30079">
        <ele>161.6</ele>
        <time>2022-10-26T15:31:10Z</time>
      </trkpt>
      <trkpt lat="43.62036" lon="1.3008">
        <ele>161.6</ele>
        <time>2022-10-26T15:31:11Z</time>
      </trkpt>
      <trkpt lat="43.62034" lon="1.30082">
        <ele>161.6</ele>
        <time>2022-10-26T15:31:12Z</time>
      </trkpt>
      <trkpt lat="43.62032" lon="1.30084">
        <ele>161.8</ele>
        <time>2022-10-26T15:31:13Z</time>
      </trkpt>
      <trkpt lat="43.62031" lon="1.30086">
        <ele>161.8</ele>
        <time>2022-10-26T15:31:14Z</time>
      </trkpt>
      <trkpt lat="43.62029" lon="1.30087">
        <ele>162</ele>
        <time>2022-10-26T15:31:15Z</time>
      </trkpt>
      <trkpt lat="43.62028" lon="1.30089">
        <ele>162.4</ele>
        <time>2022-10-26T15:31:16Z</time>
      </trkpt>
      <trkpt lat="43.62027" lon="1.30091">
        <ele>162.4</ele>
        <time>2022-10-26T15:31:17Z</time>
      </trkpt>
      <trkpt lat="43.62026" lon="1.30093">
        <ele>162.6</ele>
        <time>2022-10-26T15:31:18Z</time>
      </trkpt>
      <trkpt lat="43.62026" lon="1.30094">
        <ele>163</ele>
        <time>2022-10-26T15:31:19Z</time>
      </trkpt>
      <trkpt lat="43.62024" lon="1.30097">
        <ele>163.2</ele>
        <time>2022-10-26T15:31:20Z</time>
      </trkpt>
      <trkpt lat="43.62024" lon="1.30097">
        <ele>163.6</ele>
        <time>2022-10-26T15:31:21Z</time>
      </trkpt>
      <trkpt lat="43.62024" lon="1.30099">
        <ele>163.8</ele>
        <time>2022-10-26T15:31:22Z</time>
      </trkpt>
      <trkpt lat="43.62024" lon="1.30101">
        <ele>164.4</ele>
        <time>2022-10-26T15:31:23Z</time>
      </trkpt>
      <trkpt lat="43.62023" lon="1.30103">
        <ele>164.6</ele>
        <time>2022-10-26T15:31:24Z</time>
      </trkpt>
      <trkpt lat="43.62022" lon="1.30105">
        <ele>165</ele>
        <time>2022-10-26T15:31:25Z</time>
      </trkpt>
      <trkpt lat="43.62022" lon="1.30108">
        <ele>165.2</ele>
        <time>2022-10-26T15:31:26Z</time>
      </trkpt>
      <trkpt lat="43.62022" lon="1.30111">
        <ele>166</ele>
        <time>2022-10-26T15:31:27Z</time>
      </trkpt>
      <trkpt lat="43.62021" lon="1.30113">
        <ele>166.2</ele>
        <time>2022-10-26T15:31:28Z</time>
      </trkpt>
      <trkpt lat="43.6202" lon="1.30116">
        <ele>166.6</ele>
        <time>2022-10-26T15:31:29Z</time>
      </trkpt>
      <trkpt lat="43.6202" lon="1.30118">
        <ele>167</ele>
        <time>2022-10-26T15:31:30Z</time>
      </trkpt>
      <trkpt lat="43.6202" lon="1.3012">
        <ele>167.2</ele>
        <time>2022-10-26T15:31:31Z</time>
      </trkpt>
      <trkpt lat="43.62021" lon="1.30122">
        <ele>167.4</ele>
        <time>2022-10-26T15:31:32Z</time>
      </trkpt>
      <trkpt lat="43.6202" lon="1.30125">
        <ele>167.8</ele>
        <time>2022-10-26T15:31:33Z</time>
      </trkpt>
      <trkpt lat="43.62021" lon="1.30128">
        <ele>168</ele>
        <time>2022-10-26T15:31:34Z</time>
      </trkpt>
      <trkpt lat="43.62022" lon="1.3013">
        <ele>168.6</ele>
        <time>2022-10-26T15:31:35Z</time>
      </trkpt>
      <trkpt lat="43.62022" lon="1.30133">
        <ele>168.8</ele>
        <time>2022-10-26T15:31:36Z</time>
      </trkpt>
      <trkpt lat="43.62022" lon="1.30136">
        <ele>169.2</ele>
        <time>2022-10-26T15:31:37Z</time>
      </trkpt>
      <trkpt lat="43.62022" lon="1.3014">
        <ele>169.4</ele>
        <time>2022-10-26T15:31:38Z</time>
      </trkpt>
      <trkpt lat="43.62022" lon="1.30143">
        <ele>169.8</ele>
        <time>2022-10-26T15:31:39Z</time>
      </trkpt>
      <trkpt lat="43.62022" lon="1.30146">
        <ele>170</ele>
        <time>2022-10-26T15:31:40Z</time>
      </trkpt>
      <trkpt lat="43.62023" lon="1.3015">
        <ele>170.4</ele>
        <time>2022-10-26T15:31:41Z</time>
      </trkpt>
      <trkpt lat="43.62022" lon="1.30154">
        <ele>170.4</ele>
        <time>2022-10-26T15:31:42Z</time>
      </trkpt>
      <trkpt lat="43.62023" lon="1.30159">
        <ele>170.4</ele>
        <time>2022-10-26T15:31:43Z</time>
      </trkpt>
      <trkpt lat="43.62023" lon="1.30162">
        <ele>170.6</ele>
        <time>2022-10-26T15:31:44Z</time>
      </trkpt>
      <trkpt lat="43.62024" lon="1.30167">
        <ele>170.6</ele>
        <time>2022-10-26T15:31:45Z</time>
      </trkpt>
      <trkpt lat="43.62025" lon="1.30171">
        <ele>170.6</ele>
        <time>2022-10-26T15:31:46Z</time>
      </trkpt>
      <trkpt lat="43.62026" lon="1.30176">
        <ele>171</ele>
        <time>2022-10-26T15:31:47Z</time>
      </trkpt>
      <trkpt lat="43.62027" lon="1.30179">
        <ele>170.8</ele>
        <time>2022-10-26T15:31:48Z</time>
      </trkpt>
      <trkpt lat="43.62027" lon="1.30184">
        <ele>171.2</ele>
        <time>2022-10-26T15:31:49Z</time>
      </trkpt>
      <trkpt lat="43.62026" lon="1.30189">
        <ele>171.4</ele>
        <time>2022-10-26T15:31:50Z</time>
      </trkpt>
      <trkpt lat="43.62024" lon="1.30193">
        <ele>171.6</ele>
        <time>2022-10-26T15:31:51Z</time>
      </trkpt>
      <trkpt lat="43.62023" lon="1.30197">
        <ele>171.6</ele>
        <time>2022-10-26T15:31:52Z</time>
      </trkpt>
      <trkpt lat="43.62021" lon="1.30202">
        <ele>171.8</ele>
        <time>2022-10-26T15:31:53Z</time>
      </trkpt>
      <trkpt lat="43.62019" lon="1.30207">
        <ele>171.8</ele>
        <time>2022-10-26T15:31:54Z</time>
      </trkpt>
      <trkpt lat="43.62018" lon="1.30212">
        <ele>172</ele>
        <time>2022-10-26T15:31:55Z</time>
      </trkpt>
      <trkpt lat="43.62018" lon="1.30217">
        <ele>172</ele>
        <time>2022-10-26T15:31:56Z</time>
      </trkpt>
      <trkpt lat="43.62018" lon="1.30223">
        <ele>172</ele>
        <time>2022-10-26T15:31:57Z</time>
      </trkpt>
      <trkpt lat="43.62018" lon="1.3023">
        <ele>172</ele>
        <time>2022-10-26T15:31:58Z</time>
      </trkpt>
      <trkpt lat="43.6202" lon="1.30235">
        <ele>172</ele>
        <time>2022-10-26T15:31:59Z</time>
      </trkpt>
      <trkpt lat="43.62021" lon="1.30241">
        <ele>171.8</ele>
        <time>2022-10-26T15:32:00Z</time>
      </trkpt>
      <trkpt lat="43.62022" lon="1.30246">
        <ele>171.8</ele>
        <time>2022-10-26T15:32:01Z</time>
      </trkpt>
      <trkpt lat="43.62023" lon="1.30252">
        <ele>171.8</ele>
        <time>2022-10-26T15:32:02Z</time>
      </trkpt>
      <trkpt lat="43.62025" lon="1.30257">
        <ele>171.8</ele>
        <time>2022-10-26T15:32:03Z</time>
      </trkpt>
      <trkpt lat="43.62026" lon="1.30263">
        <ele>172</ele>
        <time>2022-10-26T15:32:04Z</time>
      </trkpt>
      <trkpt lat="43.62028" lon="1.30268">
        <ele>171.8</ele>
        <time>2022-10-26T15:32:05Z</time>
      </trkpt>
      <trkpt lat="43.62029" lon="1.30274">
        <ele>171.8</ele>
        <time>2022-10-26T15:32:06Z</time>
      </trkpt>
      <trkpt lat="43.62031" lon="1.30281">
        <ele>172</ele>
        <time>2022-10-26T15:32:07Z</time>
      </trkpt>
      <trkpt lat="43.62033" lon="1.30288">
        <ele>171.8</ele>
        <time>2022-10-26T15:32:08Z</time>
      </trkpt>
      <trkpt lat="43.62034" lon="1.30294">
        <ele>171.8</ele>
        <time>2022-10-26T15:32:09Z</time>
      </trkpt>
      <trkpt lat="43.62035" lon="1.30299">
        <ele>171.8</ele>
        <time>2022-10-26T15:32:10Z</time>
      </trkpt>
      <trkpt lat="43.62037" lon="1.30305">
        <ele>171.6</ele>
        <time>2022-10-26T15:32:11Z</time>
      </trkpt>
      <trkpt lat="43.62038" lon="1.30311">
        <ele>171.6</ele>
        <time>2022-10-26T15:32:12Z</time>
      </trkpt>
      <trkpt lat="43.62039" lon="1.30319">
        <ele>171.6</ele>
        <time>2022-10-26T15:32:13Z</time>
      </trkpt>
      <trkpt lat="43.6204" lon="1.30324">
        <ele>171.6</ele>
        <time>2022-10-26T15:32:14Z</time>
      </trkpt>
      <trkpt lat="43.62041" lon="1.3033">
        <ele>171.6</ele>
        <time>2022-10-26T15:32:15Z</time>
      </trkpt>
      <trkpt lat="43.62042" lon="1.30338">
        <ele>171.6</ele>
        <time>2022-10-26T15:32:16Z</time>
      </trkpt>
      <trkpt lat="43.62042" lon="1.30344">
        <ele>171.6</ele>
        <time>2022-10-26T15:32:17Z</time>
      </trkpt>
      <trkpt lat="43.62043" lon="1.30351">
        <ele>171.6</ele>
        <time>2022-10-26T15:32:18Z</time>
      </trkpt>
      <trkpt lat="43.62043" lon="1.30358">
        <ele>171.6</ele>
        <time>2022-10-26T15:32:19Z</time>
      </trkpt>
      <trkpt lat="43.62043" lon="1.30365">
        <ele>171.6</ele>
        <time>2022-10-26T15:32:20Z</time>
      </trkpt>
      <trkpt lat="43.62043" lon="1.30373">
        <ele>171.6</ele>
        <time>2022-10-26T15:32:21Z</time>
      </trkpt>
      <trkpt lat="43.62044" lon="1.3038">
        <ele>171.6</ele>
        <time>2022-10-26T15:32:22Z</time>
      </trkpt>
      <trkpt lat="43.62045" lon="1.30387">
        <ele>171.6</ele>
        <time>2022-10-26T15:32:23Z</time>
      </trkpt>
      <trkpt lat="43.62046" lon="1.30392">
        <ele>171.6</ele>
        <time>2022-10-26T15:32:24Z</time>
      </trkpt>
      <trkpt lat="43.62047" lon="1.30398">
        <ele>171.6</ele>
        <time>2022-10-26T15:32:25Z</time>
      </trkpt>
      <trkpt lat="43.62048" lon="1.30404">
        <ele>171.4</ele>
        <time>2022-10-26T15:32:26Z</time>
      </trkpt>
      <trkpt lat="43.6205" lon="1.3041">
        <ele>171.4</ele>
        <time>2022-10-26T15:32:27Z</time>
      </trkpt>
      <trkpt lat="43.62051" lon="1.30414">
        <ele>171.4</ele>
        <time>2022-10-26T15:32:28Z</time>
      </trkpt>
      <trkpt lat="43.62049" lon="1.30418">
        <ele>171.4</ele>
        <time>2022-10-26T15:32:29Z</time>
      </trkpt>
      <trkpt lat="43.62047" lon="1.30422">
        <ele>171.4</ele>
        <time>2022-10-26T15:32:30Z</time>
      </trkpt>
      <trkpt lat="43.62043" lon="1.30423">
        <ele>171.4</ele>
        <time>2022-10-26T15:32:31Z</time>
      </trkpt>
      <trkpt lat="43.62039" lon="1.30422">
        <ele>171.4</ele>
        <time>2022-10-26T15:32:32Z</time>
      </trkpt>
      <trkpt lat="43.62036" lon="1.30421">
        <ele>171.4</ele>
        <time>2022-10-26T15:32:33Z</time>
      </trkpt>
      <trkpt lat="43.62032" lon="1.30419">
        <ele>171.4</ele>
        <time>2022-10-26T15:32:34Z</time>
      </trkpt>
      <trkpt lat="43.62028" lon="1.30417">
        <ele>171.4</ele>
        <time>2022-10-26T15:32:35Z</time>
      </trkpt>
      <trkpt lat="43.62023" lon="1.30413">
        <ele>171.2</ele>
        <time>2022-10-26T15:32:36Z</time>
      </trkpt>
      <trkpt lat="43.62019" lon="1.3041">
        <ele>171.2</ele>
        <time>2022-10-26T15:32:37Z</time>
      </trkpt>
      <trkpt lat="43.62016" lon="1.30407">
        <ele>171.2</ele>
        <time>2022-10-26T15:32:38Z</time>
      </trkpt>
      <trkpt lat="43.62012" lon="1.30404">
        <ele>171.2</ele>
        <time>2022-10-26T15:32:39Z</time>
      </trkpt>
      <trkpt lat="43.62008" lon="1.304">
        <ele>171.2</ele>
        <time>2022-10-26T15:32:40Z</time>
      </trkpt>
      <trkpt lat="43.62004" lon="1.30397">
        <ele>171.2</ele>
        <time>2022-10-26T15:32:41Z</time>
      </trkpt>
      <trkpt lat="43.62" lon="1.30394">
        <ele>171.2</ele>
        <time>2022-10-26T15:32:42Z</time>
      </trkpt>
      <trkpt lat="43.61997" lon="1.30392">
        <ele>171.2</ele>
        <time>2022-10-26T15:32:43Z</time>
      </trkpt>
      <trkpt lat="43.61993" lon="1.30392">
        <ele>171.2</ele>
        <time>2022-10-26T15:32:44Z</time>
      </trkpt>
      <trkpt lat="43.61991" lon="1.30394">
        <ele>171.2</ele>
        <time>2022-10-26T15:32:45Z</time>
      </trkpt>
      <trkpt lat="43.6199" lon="1.30398">
        <ele>171.2</ele>
        <time>2022-10-26T15:32:46Z</time>
      </trkpt>
      <trkpt lat="43.61991" lon="1.30402">
        <ele>171.2</ele>
        <time>2022-10-26T15:32:47Z</time>
      </trkpt>
      <trkpt lat="43.61991" lon="1.30407">
        <ele>171.2</ele>
        <time>2022-10-26T15:32:48Z</time>
      </trkpt>
      <trkpt lat="43.61991" lon="1.30415">
        <ele>171.2</ele>
        <time>2022-10-26T15:32:49Z</time>
      </trkpt>
      <trkpt lat="43.6199" lon="1.30421">
        <ele>171</ele>
        <time>2022-10-26T15:32:50Z</time>
      </trkpt>
      <trkpt lat="43.6199" lon="1.30427">
        <ele>171</ele>
        <time>2022-10-26T15:32:51Z</time>
      </trkpt>
      <trkpt lat="43.61989" lon="1.30432">
        <ele>171</ele>
        <time>2022-10-26T15:32:52Z</time>
      </trkpt>
      <trkpt lat="43.61988" lon="1.30439">
        <ele>171</ele>
        <time>2022-10-26T15:32:53Z</time>
      </trkpt>
      <trkpt lat="43.61986" lon="1.30447">
        <ele>171</ele>
        <time>2022-10-26T15:32:54Z</time>
      </trkpt>
      <trkpt lat="43.61985" lon="1.30454">
        <ele>171</ele>
        <time>2022-10-26T15:32:55Z</time>
      </trkpt>
      <trkpt lat="43.61983" lon="1.30461">
        <ele>170.8</ele>
        <time>2022-10-26T15:32:56Z</time>
      </trkpt>
      <trkpt lat="43.61981" lon="1.30467">
        <ele>170.8</ele>
        <time>2022-10-26T15:32:57Z</time>
      </trkpt>
      <trkpt lat="43.61979" lon="1.30473">
        <ele>170.8</ele>
        <time>2022-10-26T15:32:58Z</time>
      </trkpt>
      <trkpt lat="43.61976" lon="1.30481">
        <ele>170.8</ele>
        <time>2022-10-26T15:32:59Z</time>
      </trkpt>
      <trkpt lat="43.61974" lon="1.30488">
        <ele>170.8</ele>
        <time>2022-10-26T15:33:00Z</time>
      </trkpt>
      <trkpt lat="43.61973" lon="1.30493">
        <ele>171</ele>
        <time>2022-10-26T15:33:01Z</time>
      </trkpt>
      <trkpt lat="43.6197" lon="1.305">
        <ele>171</ele>
        <time>2022-10-26T15:33:02Z</time>
      </trkpt>
      <trkpt lat="43.61968" lon="1.30506">
        <ele>171</ele>
        <time>2022-10-26T15:33:03Z</time>
      </trkpt>
      <trkpt lat="43.61965" lon="1.30513">
        <ele>171</ele>
        <time>2022-10-26T15:33:04Z</time>
      </trkpt>
      <trkpt lat="43.61962" lon="1.30519">
        <ele>171</ele>
        <time>2022-10-26T15:33:05Z</time>
      </trkpt>
      <trkpt lat="43.61959" lon="1.30526">
        <ele>171</ele>
        <time>2022-10-26T15:33:06Z</time>
      </trkpt>
      <trkpt lat="43.61956" lon="1.30533">
        <ele>171</ele>
        <time>2022-10-26T15:33:07Z</time>
      </trkpt>
      <trkpt lat="43.61953" lon="1.30537">
        <ele>171.2</ele>
        <time>2022-10-26T15:33:08Z</time>
      </trkpt>
      <trkpt lat="43.6195" lon="1.30545">
        <ele>171.2</ele>
        <time>2022-10-26T15:33:09Z</time>
      </trkpt>
      <trkpt lat="43.61947" lon="1.30551">
        <ele>171.2</ele>
        <time>2022-10-26T15:33:10Z</time>
      </trkpt>
      <trkpt lat="43.61944" lon="1.30557">
        <ele>171.2</ele>
        <time>2022-10-26T15:33:11Z</time>
      </trkpt>
      <trkpt lat="43.6194" lon="1.30563">
        <ele>171.2</ele>
        <time>2022-10-26T15:33:12Z</time>
      </trkpt>
      <trkpt lat="43.61937" lon="1.30569">
        <ele>171.2</ele>
        <time>2022-10-26T15:33:13Z</time>
      </trkpt>
      <trkpt lat="43.61933" lon="1.30575">
        <ele>171.2</ele>
        <time>2022-10-26T15:33:14Z</time>
      </trkpt>
      <trkpt lat="43.6193" lon="1.3058">
        <ele>171.2</ele>
        <time>2022-10-26T15:33:15Z</time>
      </trkpt>
      <trkpt lat="43.61926" lon="1.30587">
        <ele>171.4</ele>
        <time>2022-10-26T15:33:16Z</time>
      </trkpt>
      <trkpt lat="43.61922" lon="1.30595">
        <ele>171.4</ele>
        <time>2022-10-26T15:33:17Z</time>
      </trkpt>
      <trkpt lat="43.61919" lon="1.306">
        <ele>171.4</ele>
        <time>2022-10-26T15:33:18Z</time>
      </trkpt>
      <trkpt lat="43.61915" lon="1.30609">
        <ele>171.4</ele>
        <time>2022-10-26T15:33:19Z</time>
      </trkpt>
      <trkpt lat="43.61911" lon="1.30614">
        <ele>171.4</ele>
        <time>2022-10-26T15:33:20Z</time>
      </trkpt>
      <trkpt lat="43.61908" lon="1.30621">
        <ele>171.4</ele>
        <time>2022-10-26T15:33:21Z</time>
      </trkpt>
      <trkpt lat="43.61903" lon="1.30628">
        <ele>171.4</ele>
        <time>2022-10-26T15:33:22Z</time>
      </trkpt>
      <trkpt lat="43.619" lon="1.30635">
        <ele>171.4</ele>
        <time>2022-10-26T15:33:23Z</time>
      </trkpt>
      <trkpt lat="43.61896" lon="1.30641">
        <ele>171.4</ele>
        <time>2022-10-26T15:33:24Z</time>
      </trkpt>
      <trkpt lat="43.61892" lon="1.30647">
        <ele>171.4</ele>
        <time>2022-10-26T15:33:25Z</time>
      </trkpt>
      <trkpt lat="43.61888" lon="1.30653">
        <ele>171.6</ele>
        <time>2022-10-26T15:33:26Z</time>
      </trkpt>
      <trkpt lat="43.61884" lon="1.30662">
        <ele>171.6</ele>
        <time>2022-10-26T15:33:27Z</time>
      </trkpt>
      <trkpt lat="43.6188" lon="1.30669">
        <ele>171.6</ele>
        <time>2022-10-26T15:33:28Z</time>
      </trkpt>
      <trkpt lat="43.61878" lon="1.30674">
        <ele>171.6</ele>
        <time>2022-10-26T15:33:29Z</time>
      </trkpt>
      <trkpt lat="43.61875" lon="1.30681">
        <ele>171.6</ele>
        <time>2022-10-26T15:33:30Z</time>
      </trkpt>
      <trkpt lat="43.61871" lon="1.3069">
        <ele>171.6</ele>
        <time>2022-10-26T15:33:31Z</time>
      </trkpt>
      <trkpt lat="43.61867" lon="1.30699">
        <ele>171.8</ele>
        <time>2022-10-26T15:33:32Z</time>
      </trkpt>
      <trkpt lat="43.61864" lon="1.30707">
        <ele>171.8</ele>
        <time>2022-10-26T15:33:33Z</time>
      </trkpt>
      <trkpt lat="43.61862" lon="1.30714">
        <ele>171.8</ele>
        <time>2022-10-26T15:33:34Z</time>
      </trkpt>
      <trkpt lat="43.61859" lon="1.30723">
        <ele>171.8</ele>
        <time>2022-10-26T15:33:35Z</time>
      </trkpt>
      <trkpt lat="43.61856" lon="1.30731">
        <ele>171.6</ele>
        <time>2022-10-26T15:33:36Z</time>
      </trkpt>
      <trkpt lat="43.61853" lon="1.30741">
        <ele>171.6</ele>
        <time>2022-10-26T15:33:37Z</time>
      </trkpt>
      <trkpt lat="43.61851" lon="1.3075">
        <ele>171.6</ele>
        <time>2022-10-26T15:33:38Z</time>
      </trkpt>
      <trkpt lat="43.61849" lon="1.30757">
        <ele>171.6</ele>
        <time>2022-10-26T15:33:39Z</time>
      </trkpt>
      <trkpt lat="43.61846" lon="1.30767">
        <ele>171.6</ele>
        <time>2022-10-26T15:33:40Z</time>
      </trkpt>
      <trkpt lat="43.61844" lon="1.30776">
        <ele>171.6</ele>
        <time>2022-10-26T15:33:41Z</time>
      </trkpt>
      <trkpt lat="43.61842" lon="1.30783">
        <ele>171.4</ele>
        <time>2022-10-26T15:33:42Z</time>
      </trkpt>
      <trkpt lat="43.6184" lon="1.30794">
        <ele>171.6</ele>
        <time>2022-10-26T15:33:43Z</time>
      </trkpt>
      <trkpt lat="43.61839" lon="1.30802">
        <ele>171.6</ele>
        <time>2022-10-26T15:33:44Z</time>
      </trkpt>
      <trkpt lat="43.61838" lon="1.3081">
        <ele>171.8</ele>
        <time>2022-10-26T15:33:45Z</time>
      </trkpt>
      <trkpt lat="43.61836" lon="1.30819">
        <ele>171.8</ele>
        <time>2022-10-26T15:33:46Z</time>
      </trkpt>
      <trkpt lat="43.61835" lon="1.30827">
        <ele>171.8</ele>
        <time>2022-10-26T15:33:47Z</time>
      </trkpt>
      <trkpt lat="43.61834" lon="1.30835">
        <ele>171.8</ele>
        <time>2022-10-26T15:33:48Z</time>
      </trkpt>
      <trkpt lat="43.61833" lon="1.30844">
        <ele>171.8</ele>
        <time>2022-10-26T15:33:49Z</time>
      </trkpt>
      <trkpt lat="43.61832" lon="1.30852">
        <ele>172</ele>
        <time>2022-10-26T15:33:50Z</time>
      </trkpt>
      <trkpt lat="43.61831" lon="1.30862">
        <ele>172</ele>
        <time>2022-10-26T15:33:51Z</time>
      </trkpt>
      <trkpt lat="43.6183" lon="1.30869">
        <ele>172</ele>
        <time>2022-10-26T15:33:52Z</time>
      </trkpt>
      <trkpt lat="43.61829" lon="1.30877">
        <ele>172</ele>
        <time>2022-10-26T15:33:53Z</time>
      </trkpt>
      <trkpt lat="43.61828" lon="1.30886">
        <ele>172</ele>
        <time>2022-10-26T15:33:54Z</time>
      </trkpt>
      <trkpt lat="43.61826" lon="1.30893">
        <ele>172</ele>
        <time>2022-10-26T15:33:55Z</time>
      </trkpt>
      <trkpt lat="43.61823" lon="1.30898">
        <ele>172</ele>
        <time>2022-10-26T15:33:56Z</time>
      </trkpt>
      <trkpt lat="43.61818" lon="1.30902">
        <ele>172</ele>
        <time>2022-10-26T15:33:57Z</time>
      </trkpt>
      <trkpt lat="43.61814" lon="1.30903">
        <ele>172</ele>
        <time>2022-10-26T15:33:58Z</time>
      </trkpt>
      <trkpt lat="43.61808" lon="1.30901">
        <ele>172</ele>
        <time>2022-10-26T15:33:59Z</time>
      </trkpt>
      <trkpt lat="43.61803" lon="1.30898">
        <ele>172</ele>
        <time>2022-10-26T15:34:00Z</time>
      </trkpt>
      <trkpt lat="43.61797" lon="1.30895">
        <ele>172</ele>
        <time>2022-10-26T15:34:01Z</time>
      </trkpt>
      <trkpt lat="43.61792" lon="1.30893">
        <ele>172</ele>
        <time>2022-10-26T15:34:02Z</time>
      </trkpt>
      <trkpt lat="43.61785" lon="1.30889">
        <ele>172</ele>
        <time>2022-10-26T15:34:03Z</time>
      </trkpt>
      <trkpt lat="43.61781" lon="1.30887">
        <ele>172</ele>
        <time>2022-10-26T15:34:04Z</time>
      </trkpt>
      <trkpt lat="43.61775" lon="1.30884">
        <ele>172</ele>
        <time>2022-10-26T15:34:05Z</time>
      </trkpt>
      <trkpt lat="43.61769" lon="1.30881">
        <ele>172</ele>
        <time>2022-10-26T15:34:06Z</time>
      </trkpt>
      <trkpt lat="43.61763" lon="1.30878">
        <ele>172</ele>
        <time>2022-10-26T15:34:07Z</time>
      </trkpt>
      <trkpt lat="43.61756" lon="1.30874">
        <ele>172</ele>
        <time>2022-10-26T15:34:08Z</time>
      </trkpt>
      <trkpt lat="43.6175" lon="1.30871">
        <ele>172</ele>
        <time>2022-10-26T15:34:09Z</time>
      </trkpt>
      <trkpt lat="43.61744" lon="1.30869">
        <ele>172</ele>
        <time>2022-10-26T15:34:10Z</time>
      </trkpt>
      <trkpt lat="43.6174" lon="1.30867">
        <ele>172</ele>
        <time>2022-10-26T15:34:11Z</time>
      </trkpt>
      <trkpt lat="43.61735" lon="1.30863">
        <ele>172</ele>
        <time>2022-10-26T15:34:12Z</time>
      </trkpt>
      <trkpt lat="43.6173" lon="1.3086">
        <ele>172</ele>
        <time>2022-10-26T15:34:13Z</time>
      </trkpt>
      <trkpt lat="43.61725" lon="1.30855">
        <ele>172.2</ele>
        <time>2022-10-26T15:34:14Z</time>
      </trkpt>
      <trkpt lat="43.61722" lon="1.30851">
        <ele>172.2</ele>
        <time>2022-10-26T15:34:15Z</time>
      </trkpt>
      <trkpt lat="43.61716" lon="1.30847">
        <ele>172.2</ele>
        <time>2022-10-26T15:34:16Z</time>
      </trkpt>
      <trkpt lat="43.61713" lon="1.30848">
        <ele>172.2</ele>
        <time>2022-10-26T15:34:17Z</time>
      </trkpt>
      <trkpt lat="43.61709" lon="1.30853">
        <ele>172.2</ele>
        <time>2022-10-26T15:34:18Z</time>
      </trkpt>
      <trkpt lat="43.61706" lon="1.3086">
        <ele>172.4</ele>
        <time>2022-10-26T15:34:19Z</time>
      </trkpt>
      <trkpt lat="43.61704" lon="1.30866">
        <ele>172.4</ele>
        <time>2022-10-26T15:34:20Z</time>
      </trkpt>
      <trkpt lat="43.61703" lon="1.30873">
        <ele>172.4</ele>
        <time>2022-10-26T15:34:21Z</time>
      </trkpt>
      <trkpt lat="43.61701" lon="1.30882">
        <ele>172.4</ele>
        <time>2022-10-26T15:34:22Z</time>
      </trkpt>
      <trkpt lat="43.61699" lon="1.3089">
        <ele>172.6</ele>
        <time>2022-10-26T15:34:23Z</time>
      </trkpt>
      <trkpt lat="43.61698" lon="1.30897">
        <ele>172.6</ele>
        <time>2022-10-26T15:34:24Z</time>
      </trkpt>
      <trkpt lat="43.61696" lon="1.30903">
        <ele>172.6</ele>
        <time>2022-10-26T15:34:25Z</time>
      </trkpt>
      <trkpt lat="43.61694" lon="1.30911">
        <ele>172.6</ele>
        <time>2022-10-26T15:34:26Z</time>
      </trkpt>
      <trkpt lat="43.61692" lon="1.30918">
        <ele>172.6</ele>
        <time>2022-10-26T15:34:27Z</time>
      </trkpt>
      <trkpt lat="43.6169" lon="1.30925">
        <ele>172.6</ele>
        <time>2022-10-26T15:34:28Z</time>
      </trkpt>
      <trkpt lat="43.61688" lon="1.30933">
        <ele>172.6</ele>
        <time>2022-10-26T15:34:29Z</time>
      </trkpt>
      <trkpt lat="43.61686" lon="1.3094">
        <ele>172.6</ele>
        <time>2022-10-26T15:34:30Z</time>
      </trkpt>
      <trkpt lat="43.61684" lon="1.30948">
        <ele>172.6</ele>
        <time>2022-10-26T15:34:31Z</time>
      </trkpt>
      <trkpt lat="43.61682" lon="1.30957">
        <ele>172.6</ele>
        <time>2022-10-26T15:34:32Z</time>
      </trkpt>
      <trkpt lat="43.61679" lon="1.30965">
        <ele>172.6</ele>
        <time>2022-10-26T15:34:33Z</time>
      </trkpt>
      <trkpt lat="43.61677" lon="1.30973">
        <ele>172.6</ele>
        <time>2022-10-26T15:34:34Z</time>
      </trkpt>
      <trkpt lat="43.61675" lon="1.30979">
        <ele>172.6</ele>
        <time>2022-10-26T15:34:35Z</time>
      </trkpt>
      <trkpt lat="43.61673" lon="1.30988">
        <ele>172.4</ele>
        <time>2022-10-26T15:34:36Z</time>
      </trkpt>
      <trkpt lat="43.61671" lon="1.30995">
        <ele>172.4</ele>
        <time>2022-10-26T15:34:37Z</time>
      </trkpt>
      <trkpt lat="43.61669" lon="1.31002">
        <ele>172.4</ele>
        <time>2022-10-26T15:34:38Z</time>
      </trkpt>
      <trkpt lat="43.61667" lon="1.31008">
        <ele>172.4</ele>
        <time>2022-10-26T15:34:39Z</time>
      </trkpt>
      <trkpt lat="43.61665" lon="1.31015">
        <ele>172.4</ele>
        <time>2022-10-26T15:34:40Z</time>
      </trkpt>
      <trkpt lat="43.61663" lon="1.31023">
        <ele>172.4</ele>
        <time>2022-10-26T15:34:41Z</time>
      </trkpt>
      <trkpt lat="43.61663" lon="1.31023">
        <ele>172.4</ele>
        <time>2022-10-26T15:34:42Z</time>
      </trkpt>
      <trkpt lat="43.6166" lon="1.31037">
        <ele>172.4</ele>
        <time>2022-10-26T15:34:43Z</time>
      </trkpt>
      <trkpt lat="43.61658" lon="1.31043">
        <ele>172.4</ele>
        <time>2022-10-26T15:34:44Z</time>
      </trkpt>
      <trkpt lat="43.61655" lon="1.31051">
        <ele>172.4</ele>
        <time>2022-10-26T15:34:45Z</time>
      </trkpt>
      <trkpt lat="43.61652" lon="1.3106">
        <ele>172.4</ele>
        <time>2022-10-26T15:34:46Z</time>
      </trkpt>
      <trkpt lat="43.61649" lon="1.31066">
        <ele>172.6</ele>
        <time>2022-10-26T15:34:47Z</time>
      </trkpt>
      <trkpt lat="43.61646" lon="1.31073">
        <ele>172.6</ele>
        <time>2022-10-26T15:34:48Z</time>
      </trkpt>
      <trkpt lat="43.61643" lon="1.3108">
        <ele>172.6</ele>
        <time>2022-10-26T15:34:49Z</time>
      </trkpt>
      <trkpt lat="43.61639" lon="1.31086">
        <ele>172.6</ele>
        <time>2022-10-26T15:34:50Z</time>
      </trkpt>
      <trkpt lat="43.61635" lon="1.31091">
        <ele>172.6</ele>
        <time>2022-10-26T15:34:51Z</time>
      </trkpt>
      <trkpt lat="43.6163" lon="1.31093">
        <ele>172.6</ele>
        <time>2022-10-26T15:34:52Z</time>
      </trkpt>
      <trkpt lat="43.61626" lon="1.31094">
        <ele>172.6</ele>
        <time>2022-10-26T15:34:53Z</time>
      </trkpt>
      <trkpt lat="43.61624" lon="1.31094">
        <ele>172.4</ele>
        <time>2022-10-26T15:34:54Z</time>
      </trkpt>
      <trkpt lat="43.61621" lon="1.31095">
        <ele>172.4</ele>
        <time>2022-10-26T15:34:55Z</time>
      </trkpt>
      <trkpt lat="43.6162" lon="1.31095">
        <ele>172.4</ele>
        <time>2022-10-26T15:34:56Z</time>
      </trkpt>
      <trkpt lat="43.61619" lon="1.31096">
        <ele>172.4</ele>
        <time>2022-10-26T15:34:57Z</time>
      </trkpt>
      <trkpt lat="43.61619" lon="1.31098">
        <ele>172.2</ele>
        <time>2022-10-26T15:34:58Z</time>
      </trkpt>
      <trkpt lat="43.61619" lon="1.311">
        <ele>172.2</ele>
        <time>2022-10-26T15:34:59Z</time>
      </trkpt>
      <trkpt lat="43.61618" lon="1.31103">
        <ele>172.2</ele>
        <time>2022-10-26T15:35:00Z</time>
      </trkpt>
      <trkpt lat="43.61616" lon="1.31105">
        <ele>172.2</ele>
        <time>2022-10-26T15:35:01Z</time>
      </trkpt>
      <trkpt lat="43.61614" lon="1.31106">
        <ele>172.2</ele>
        <time>2022-10-26T15:35:02Z</time>
      </trkpt>
      <trkpt lat="43.61612" lon="1.31106">
        <ele>172</ele>
        <time>2022-10-26T15:35:03Z</time>
      </trkpt>
      <trkpt lat="43.61608" lon="1.31104">
        <ele>172</ele>
        <time>2022-10-26T15:35:04Z</time>
      </trkpt>
      <trkpt lat="43.61605" lon="1.31102">
        <ele>172</ele>
        <time>2022-10-26T15:35:05Z</time>
      </trkpt>
      <trkpt lat="43.61602" lon="1.311">
        <ele>172</ele>
        <time>2022-10-26T15:35:06Z</time>
      </trkpt>
      <trkpt lat="43.61599" lon="1.31098">
        <ele>171.8</ele>
        <time>2022-10-26T15:35:07Z</time>
      </trkpt>
      <trkpt lat="43.61595" lon="1.31096">
        <ele>171.8</ele>
        <time>2022-10-26T15:35:08Z</time>
      </trkpt>
      <trkpt lat="43.61591" lon="1.31093">
        <ele>171.8</ele>
        <time>2022-10-26T15:35:09Z</time>
      </trkpt>
      <trkpt lat="43.61586" lon="1.31091">
        <ele>171.8</ele>
        <time>2022-10-26T15:35:10Z</time>
      </trkpt>
      <trkpt lat="43.61582" lon="1.31089">
        <ele>171.8</ele>
        <time>2022-10-26T15:35:11Z</time>
      </trkpt>
      <trkpt lat="43.61576" lon="1.31086">
        <ele>171.8</ele>
        <time>2022-10-26T15:35:12Z</time>
      </trkpt>
      <trkpt lat="43.61571" lon="1.31083">
        <ele>171.8</ele>
        <time>2022-10-26T15:35:13Z</time>
      </trkpt>
      <trkpt lat="43.61565" lon="1.31079">
        <ele>171.8</ele>
        <time>2022-10-26T15:35:14Z</time>
      </trkpt>
      <trkpt lat="43.6156" lon="1.31076">
        <ele>172</ele>
        <time>2022-10-26T15:35:15Z</time>
      </trkpt>
      <trkpt lat="43.61553" lon="1.31073">
        <ele>172</ele>
        <time>2022-10-26T15:35:16Z</time>
      </trkpt>
      <trkpt lat="43.61547" lon="1.31069">
        <ele>172</ele>
        <time>2022-10-26T15:35:17Z</time>
      </trkpt>
      <trkpt lat="43.61542" lon="1.31067">
        <ele>172</ele>
        <time>2022-10-26T15:35:18Z</time>
      </trkpt>
      <trkpt lat="43.61534" lon="1.31063">
        <ele>172.2</ele>
        <time>2022-10-26T15:35:19Z</time>
      </trkpt>
      <trkpt lat="43.61528" lon="1.31059">
        <ele>172.2</ele>
        <time>2022-10-26T15:35:20Z</time>
      </trkpt>
      <trkpt lat="43.61523" lon="1.31055">
        <ele>172.2</ele>
        <time>2022-10-26T15:35:21Z</time>
      </trkpt>
      <trkpt lat="43.61517" lon="1.31052">
        <ele>172.2</ele>
        <time>2022-10-26T15:35:22Z</time>
      </trkpt>
      <trkpt lat="43.6151" lon="1.31048">
        <ele>172.4</ele>
        <time>2022-10-26T15:35:23Z</time>
      </trkpt>
      <trkpt lat="43.61504" lon="1.31045">
        <ele>172.4</ele>
        <time>2022-10-26T15:35:24Z</time>
      </trkpt>
      <trkpt lat="43.61497" lon="1.31042">
        <ele>172.4</ele>
        <time>2022-10-26T15:35:25Z</time>
      </trkpt>
      <trkpt lat="43.61492" lon="1.31039">
        <ele>172.4</ele>
        <time>2022-10-26T15:35:26Z</time>
      </trkpt>
      <trkpt lat="43.61487" lon="1.31036">
        <ele>172.4</ele>
        <time>2022-10-26T15:35:27Z</time>
      </trkpt>
      <trkpt lat="43.61481" lon="1.31033">
        <ele>172.4</ele>
        <time>2022-10-26T15:35:28Z</time>
      </trkpt>
      <trkpt lat="43.61475" lon="1.3103">
        <ele>172.4</ele>
        <time>2022-10-26T15:35:29Z</time>
      </trkpt>
      <trkpt lat="43.6147" lon="1.31026">
        <ele>172.6</ele>
        <time>2022-10-26T15:35:30Z</time>
      </trkpt>
      <trkpt lat="43.61464" lon="1.31023">
        <ele>172.6</ele>
        <time>2022-10-26T15:35:31Z</time>
      </trkpt>
      <trkpt lat="43.61459" lon="1.3102">
        <ele>172.6</ele>
        <time>2022-10-26T15:35:32Z</time>
      </trkpt>
      <trkpt lat="43.61452" lon="1.31017">
        <ele>172.6</ele>
        <time>2022-10-26T15:35:33Z</time>
      </trkpt>
      <trkpt lat="43.61447" lon="1.31017">
        <ele>172.6</ele>
        <time>2022-10-26T15:35:34Z</time>
      </trkpt>
      <trkpt lat="43.61442" lon="1.31019">
        <ele>172.6</ele>
        <time>2022-10-26T15:35:35Z</time>
      </trkpt>
      <trkpt lat="43.61438" lon="1.31021">
        <ele>172.6</ele>
        <time>2022-10-26T15:35:36Z</time>
      </trkpt>
      <trkpt lat="43.61433" lon="1.31021">
        <ele>172.6</ele>
        <time>2022-10-26T15:35:37Z</time>
      </trkpt>
      <trkpt lat="43.61427" lon="1.31021">
        <ele>172.6</ele>
        <time>2022-10-26T15:35:38Z</time>
      </trkpt>
      <trkpt lat="43.61423" lon="1.31019">
        <ele>172.6</ele>
        <time>2022-10-26T15:35:39Z</time>
      </trkpt>
      <trkpt lat="43.6142" lon="1.31016">
        <ele>172.6</ele>
        <time>2022-10-26T15:35:40Z</time>
      </trkpt>
      <trkpt lat="43.61417" lon="1.3101">
        <ele>172.6</ele>
        <time>2022-10-26T15:35:41Z</time>
      </trkpt>
      <trkpt lat="43.61413" lon="1.31004">
        <ele>172.6</ele>
        <time>2022-10-26T15:35:42Z</time>
      </trkpt>
      <trkpt lat="43.61409" lon="1.31">
        <ele>172.6</ele>
        <time>2022-10-26T15:35:43Z</time>
      </trkpt>
      <trkpt lat="43.61405" lon="1.30997">
        <ele>172.6</ele>
        <time>2022-10-26T15:35:44Z</time>
      </trkpt>
      <trkpt lat="43.614" lon="1.30994">
        <ele>172.6</ele>
        <time>2022-10-26T15:35:45Z</time>
      </trkpt>
      <trkpt lat="43.61395" lon="1.3099">
        <ele>172.6</ele>
        <time>2022-10-26T15:35:46Z</time>
      </trkpt>
      <trkpt lat="43.6139" lon="1.30987">
        <ele>172.6</ele>
        <time>2022-10-26T15:35:47Z</time>
      </trkpt>
      <trkpt lat="43.61384" lon="1.30984">
        <ele>172.6</ele>
        <time>2022-10-26T15:35:48Z</time>
      </trkpt>
      <trkpt lat="43.61379" lon="1.30982">
        <ele>172.6</ele>
        <time>2022-10-26T15:35:49Z</time>
      </trkpt>
      <trkpt lat="43.61374" lon="1.3098">
        <ele>172.6</ele>
        <time>2022-10-26T15:35:50Z</time>
      </trkpt>
      <trkpt lat="43.61368" lon="1.30981">
        <ele>172.6</ele>
        <time>2022-10-26T15:35:51Z</time>
      </trkpt>
      <trkpt lat="43.61363" lon="1.30982">
        <ele>172.6</ele>
        <time>2022-10-26T15:35:52Z</time>
      </trkpt>
      <trkpt lat="43.61358" lon="1.30985">
        <ele>172.6</ele>
        <time>2022-10-26T15:35:53Z</time>
      </trkpt>
      <trkpt lat="43.61353" lon="1.30988">
        <ele>172.6</ele>
        <time>2022-10-26T15:35:54Z</time>
      </trkpt>
      <trkpt lat="43.61349" lon="1.30991">
        <ele>172.6</ele>
        <time>2022-10-26T15:35:55Z</time>
      </trkpt>
      <trkpt lat="43.61345" lon="1.30994">
        <ele>172.6</ele>
        <time>2022-10-26T15:35:56Z</time>
      </trkpt>
      <trkpt lat="43.61342" lon="1.30995">
        <ele>172.6</ele>
        <time>2022-10-26T15:35:57Z</time>
      </trkpt>
      <trkpt lat="43.61338" lon="1.30998">
        <ele>172.6</ele>
        <time>2022-10-26T15:35:58Z</time>
      </trkpt>
      <trkpt lat="43.61334" lon="1.31">
        <ele>172.6</ele>
        <time>2022-10-26T15:35:59Z</time>
      </trkpt>
      <trkpt lat="43.6133" lon="1.31002">
        <ele>172.6</ele>
        <time>2022-10-26T15:36:00Z</time>
      </trkpt>
      <trkpt lat="43.61326" lon="1.31006">
        <ele>172.6</ele>
        <time>2022-10-26T15:36:01Z</time>
      </trkpt>
      <trkpt lat="43.61322" lon="1.31009">
        <ele>172.4</ele>
        <time>2022-10-26T15:36:02Z</time>
      </trkpt>
      <trkpt lat="43.61315" lon="1.31013">
        <ele>172.4</ele>
        <time>2022-10-26T15:36:03Z</time>
      </trkpt>
      <trkpt lat="43.61309" lon="1.31015">
        <ele>172.4</ele>
        <time>2022-10-26T15:36:04Z</time>
      </trkpt>
      <trkpt lat="43.61304" lon="1.31016">
        <ele>172.4</ele>
        <time>2022-10-26T15:36:05Z</time>
      </trkpt>
      <trkpt lat="43.61298" lon="1.31017">
        <ele>172.2</ele>
        <time>2022-10-26T15:36:06Z</time>
      </trkpt>
      <trkpt lat="43.61291" lon="1.31019">
        <ele>172.2</ele>
        <time>2022-10-26T15:36:07Z</time>
      </trkpt>
      <trkpt lat="43.61285" lon="1.31021">
        <ele>172</ele>
        <time>2022-10-26T15:36:08Z</time>
      </trkpt>
      <trkpt lat="43.6128" lon="1.31022">
        <ele>171.8</ele>
        <time>2022-10-26T15:36:09Z</time>
      </trkpt>
      <trkpt lat="43.61274" lon="1.31025">
        <ele>171.8</ele>
        <time>2022-10-26T15:36:10Z</time>
      </trkpt>
      <trkpt lat="43.61269" lon="1.3103">
        <ele>171.6</ele>
        <time>2022-10-26T15:36:11Z</time>
      </trkpt>
      <trkpt lat="43.61266" lon="1.31034">
        <ele>171.4</ele>
        <time>2022-10-26T15:36:12Z</time>
      </trkpt>
      <trkpt lat="43.61262" lon="1.31041">
        <ele>171.2</ele>
        <time>2022-10-26T15:36:13Z</time>
      </trkpt>
      <trkpt lat="43.61259" lon="1.31047">
        <ele>171</ele>
        <time>2022-10-26T15:36:14Z</time>
      </trkpt>
      <trkpt lat="43.61256" lon="1.31055">
        <ele>171</ele>
        <time>2022-10-26T15:36:15Z</time>
      </trkpt>
      <trkpt lat="43.61253" lon="1.31064">
        <ele>170.8</ele>
        <time>2022-10-26T15:36:16Z</time>
      </trkpt>
      <trkpt lat="43.61251" lon="1.31074">
        <ele>170.8</ele>
        <time>2022-10-26T15:36:17Z</time>
      </trkpt>
      <trkpt lat="43.6125" lon="1.31082">
        <ele>170.6</ele>
        <time>2022-10-26T15:36:18Z</time>
      </trkpt>
      <trkpt lat="43.61249" lon="1.31091">
        <ele>170.6</ele>
        <time>2022-10-26T15:36:19Z</time>
      </trkpt>
      <trkpt lat="43.61248" lon="1.31098">
        <ele>170.4</ele>
        <time>2022-10-26T15:36:20Z</time>
      </trkpt>
      <trkpt lat="43.61248" lon="1.31103">
        <ele>170.4</ele>
        <time>2022-10-26T15:36:21Z</time>
      </trkpt>
      <trkpt lat="43.61247" lon="1.31108">
        <ele>170.4</ele>
        <time>2022-10-26T15:36:22Z</time>
      </trkpt>
      <trkpt lat="43.61246" lon="1.31113">
        <ele>170.4</ele>
        <time>2022-10-26T15:36:23Z</time>
      </trkpt>
      <trkpt lat="43.61246" lon="1.31118">
        <ele>170.4</ele>
        <time>2022-10-26T15:36:24Z</time>
      </trkpt>
      <trkpt lat="43.61246" lon="1.31123">
        <ele>170.2</ele>
        <time>2022-10-26T15:36:25Z</time>
      </trkpt>
      <trkpt lat="43.61246" lon="1.31131">
        <ele>170.2</ele>
        <time>2022-10-26T15:36:26Z</time>
      </trkpt>
      <trkpt lat="43.61246" lon="1.31138">
        <ele>170.2</ele>
        <time>2022-10-26T15:36:27Z</time>
      </trkpt>
      <trkpt lat="43.61246" lon="1.31143">
        <ele>170.2</ele>
        <time>2022-10-26T15:36:28Z</time>
      </trkpt>
      <trkpt lat="43.61246" lon="1.3115">
        <ele>170.2</ele>
        <time>2022-10-26T15:36:29Z</time>
      </trkpt>
      <trkpt lat="43.61244" lon="1.31157">
        <ele>170.2</ele>
        <time>2022-10-26T15:36:30Z</time>
      </trkpt>
      <trkpt lat="43.61241" lon="1.31162">
        <ele>170.2</ele>
        <time>2022-10-26T15:36:31Z</time>
      </trkpt>
      <trkpt lat="43.61239" lon="1.31164">
        <ele>170.2</ele>
        <time>2022-10-26T15:36:32Z</time>
      </trkpt>
      <trkpt lat="43.61236" lon="1.31165">
        <ele>170.2</ele>
        <time>2022-10-26T15:36:33Z</time>
      </trkpt>
      <trkpt lat="43.61233" lon="1.31164">
        <ele>170.2</ele>
        <time>2022-10-26T15:36:34Z</time>
      </trkpt>
      <trkpt lat="43.61231" lon="1.31163">
        <ele>170.2</ele>
        <time>2022-10-26T15:36:35Z</time>
      </trkpt>
      <trkpt lat="43.61227" lon="1.31162">
        <ele>170.2</ele>
        <time>2022-10-26T15:36:36Z</time>
      </trkpt>
      <trkpt lat="43.61224" lon="1.31162">
        <ele>170.2</ele>
        <time>2022-10-26T15:36:37Z</time>
      </trkpt>
      <trkpt lat="43.61221" lon="1.31161">
        <ele>170.2</ele>
        <time>2022-10-26T15:36:38Z</time>
      </trkpt>
      <trkpt lat="43.61217" lon="1.31161">
        <ele>170.2</ele>
        <time>2022-10-26T15:36:39Z</time>
      </trkpt>
      <trkpt lat="43.61212" lon="1.31159">
        <ele>170.2</ele>
        <time>2022-10-26T15:36:40Z</time>
      </trkpt>
      <trkpt lat="43.61209" lon="1.31158">
        <ele>170.2</ele>
        <time>2022-10-26T15:36:41Z</time>
      </trkpt>
      <trkpt lat="43.61206" lon="1.31156">
        <ele>170.4</ele>
        <time>2022-10-26T15:36:42Z</time>
      </trkpt>
      <trkpt lat="43.61203" lon="1.31154">
        <ele>170.4</ele>
        <time>2022-10-26T15:36:43Z</time>
      </trkpt>
      <trkpt lat="43.61201" lon="1.31152">
        <ele>170.6</ele>
        <time>2022-10-26T15:36:44Z</time>
      </trkpt>
      <trkpt lat="43.61198" lon="1.31149">
        <ele>170.6</ele>
        <time>2022-10-26T15:36:45Z</time>
      </trkpt>
      <trkpt lat="43.61195" lon="1.31148">
        <ele>171</ele>
        <time>2022-10-26T15:36:46Z</time>
      </trkpt>
      <trkpt lat="43.61192" lon="1.31147">
        <ele>171.2</ele>
        <time>2022-10-26T15:36:47Z</time>
      </trkpt>
      <trkpt lat="43.6119" lon="1.31146">
        <ele>171.4</ele>
        <time>2022-10-26T15:36:48Z</time>
      </trkpt>
      <trkpt lat="43.61186" lon="1.31146">
        <ele>171.6</ele>
        <time>2022-10-26T15:36:49Z</time>
      </trkpt>
      <trkpt lat="43.61182" lon="1.31145">
        <ele>171.6</ele>
        <time>2022-10-26T15:36:50Z</time>
      </trkpt>
      <trkpt lat="43.61179" lon="1.31145">
        <ele>171.6</ele>
        <time>2022-10-26T15:36:51Z</time>
      </trkpt>
      <trkpt lat="43.61176" lon="1.31145">
        <ele>171.8</ele>
        <time>2022-10-26T15:36:52Z</time>
      </trkpt>
      <trkpt lat="43.61172" lon="1.31145">
        <ele>171.8</ele>
        <time>2022-10-26T15:36:53Z</time>
      </trkpt>
      <trkpt lat="43.61168" lon="1.31145">
        <ele>172</ele>
        <time>2022-10-26T15:36:54Z</time>
      </trkpt>
      <trkpt lat="43.61164" lon="1.31146">
        <ele>172.2</ele>
        <time>2022-10-26T15:36:55Z</time>
      </trkpt>
      <trkpt lat="43.61161" lon="1.31147">
        <ele>172.4</ele>
        <time>2022-10-26T15:36:56Z</time>
      </trkpt>
      <trkpt lat="43.61158" lon="1.31149">
        <ele>172.6</ele>
        <time>2022-10-26T15:36:57Z</time>
      </trkpt>
      <trkpt lat="43.61155" lon="1.3115">
        <ele>173</ele>
        <time>2022-10-26T15:36:58Z</time>
      </trkpt>
      <trkpt lat="43.61151" lon="1.31152">
        <ele>173.2</ele>
        <time>2022-10-26T15:36:59Z</time>
      </trkpt>
      <trkpt lat="43.61149" lon="1.31153">
        <ele>173.8</ele>
        <time>2022-10-26T15:37:00Z</time>
      </trkpt>
      <trkpt lat="43.61146" lon="1.31154">
        <ele>174.2</ele>
        <time>2022-10-26T15:37:01Z</time>
      </trkpt>
      <trkpt lat="43.61142" lon="1.31154">
        <ele>174.4</ele>
        <time>2022-10-26T15:37:02Z</time>
      </trkpt>
      <trkpt lat="43.61139" lon="1.31155">
        <ele>174.6</ele>
        <time>2022-10-26T15:37:03Z</time>
      </trkpt>
      <trkpt lat="43.61135" lon="1.31155">
        <ele>174.8</ele>
        <time>2022-10-26T15:37:04Z</time>
      </trkpt>
      <trkpt lat="43.61132" lon="1.31155">
        <ele>175</ele>
        <time>2022-10-26T15:37:05Z</time>
      </trkpt>
      <trkpt lat="43.61129" lon="1.31154">
        <ele>175.2</ele>
        <time>2022-10-26T15:37:06Z</time>
      </trkpt>
      <trkpt lat="43.61124" lon="1.31153">
        <ele>175.4</ele>
        <time>2022-10-26T15:37:07Z</time>
      </trkpt>
      <trkpt lat="43.61121" lon="1.31151">
        <ele>175.6</ele>
        <time>2022-10-26T15:37:08Z</time>
      </trkpt>
      <trkpt lat="43.61117" lon="1.31149">
        <ele>176.2</ele>
        <time>2022-10-26T15:37:09Z</time>
      </trkpt>
      <trkpt lat="43.61113" lon="1.31148">
        <ele>176.6</ele>
        <time>2022-10-26T15:37:10Z</time>
      </trkpt>
      <trkpt lat="43.61109" lon="1.31146">
        <ele>176.6</ele>
        <time>2022-10-26T15:37:11Z</time>
      </trkpt>
      <trkpt lat="43.61105" lon="1.31145">
        <ele>176.8</ele>
        <time>2022-10-26T15:37:12Z</time>
      </trkpt>
      <trkpt lat="43.61099" lon="1.31143">
        <ele>177</ele>
        <time>2022-10-26T15:37:13Z</time>
      </trkpt>
      <trkpt lat="43.61094" lon="1.31141">
        <ele>177.2</ele>
        <time>2022-10-26T15:37:14Z</time>
      </trkpt>
      <trkpt lat="43.6109" lon="1.31141">
        <ele>177.2</ele>
        <time>2022-10-26T15:37:15Z</time>
      </trkpt>
      <trkpt lat="43.61085" lon="1.31141">
        <ele>177.4</ele>
        <time>2022-10-26T15:37:16Z</time>
      </trkpt>
      <trkpt lat="43.6108" lon="1.31142">
        <ele>177.4</ele>
        <time>2022-10-26T15:37:17Z</time>
      </trkpt>
      <trkpt lat="43.61075" lon="1.31144">
        <ele>177.4</ele>
        <time>2022-10-26T15:37:18Z</time>
      </trkpt>
      <trkpt lat="43.6107" lon="1.31146">
        <ele>177.6</ele>
        <time>2022-10-26T15:37:19Z</time>
      </trkpt>
      <trkpt lat="43.61066" lon="1.31149">
        <ele>177.6</ele>
        <time>2022-10-26T15:37:20Z</time>
      </trkpt>
      <trkpt lat="43.61062" lon="1.31153">
        <ele>177.6</ele>
        <time>2022-10-26T15:37:21Z</time>
      </trkpt>
      <trkpt lat="43.61058" lon="1.31158">
        <ele>177.8</ele>
        <time>2022-10-26T15:37:22Z</time>
      </trkpt>
      <trkpt lat="43.61054" lon="1.31163">
        <ele>177.8</ele>
        <time>2022-10-26T15:37:23Z</time>
      </trkpt>
      <trkpt lat="43.61051" lon="1.31167">
        <ele>178</ele>
        <time>2022-10-26T15:37:24Z</time>
      </trkpt>
      <trkpt lat="43.61047" lon="1.31173">
        <ele>178</ele>
        <time>2022-10-26T15:37:25Z</time>
      </trkpt>
      <trkpt lat="43.61043" lon="1.31179">
        <ele>178</ele>
        <time>2022-10-26T15:37:26Z</time>
      </trkpt>
      <trkpt lat="43.61039" lon="1.31185">
        <ele>178</ele>
        <time>2022-10-26T15:37:27Z</time>
      </trkpt>
      <trkpt lat="43.61036" lon="1.31189">
        <ele>178.2</ele>
        <time>2022-10-26T15:37:28Z</time>
      </trkpt>
      <trkpt lat="43.61032" lon="1.31195">
        <ele>178.2</ele>
        <time>2022-10-26T15:37:29Z</time>
      </trkpt>
      <trkpt lat="43.61028" lon="1.31201">
        <ele>178.2</ele>
        <time>2022-10-26T15:37:30Z</time>
      </trkpt>
      <trkpt lat="43.61024" lon="1.31206">
        <ele>178.4</ele>
        <time>2022-10-26T15:37:31Z</time>
      </trkpt>
      <trkpt lat="43.6102" lon="1.31212">
        <ele>178.4</ele>
        <time>2022-10-26T15:37:32Z</time>
      </trkpt>
      <trkpt lat="43.61016" lon="1.31217">
        <ele>178.4</ele>
        <time>2022-10-26T15:37:33Z</time>
      </trkpt>
      <trkpt lat="43.61013" lon="1.31222">
        <ele>178.4</ele>
        <time>2022-10-26T15:37:34Z</time>
      </trkpt>
      <trkpt lat="43.61008" lon="1.31228">
        <ele>178.6</ele>
        <time>2022-10-26T15:37:35Z</time>
      </trkpt>
      <trkpt lat="43.61005" lon="1.31234">
        <ele>178.6</ele>
        <time>2022-10-26T15:37:36Z</time>
      </trkpt>
      <trkpt lat="43.61002" lon="1.31239">
        <ele>178.6</ele>
        <time>2022-10-26T15:37:37Z</time>
      </trkpt>
      <trkpt lat="43.60999" lon="1.31245">
        <ele>178.6</ele>
        <time>2022-10-26T15:37:38Z</time>
      </trkpt>
      <trkpt lat="43.60996" lon="1.3125">
        <ele>178.6</ele>
        <time>2022-10-26T15:37:39Z</time>
      </trkpt>
      <trkpt lat="43.60992" lon="1.31256">
        <ele>178.6</ele>
        <time>2022-10-26T15:37:40Z</time>
      </trkpt>
      <trkpt lat="43.60987" lon="1.31263">
        <ele>178.6</ele>
        <time>2022-10-26T15:37:41Z</time>
      </trkpt>
      <trkpt lat="43.60984" lon="1.31267">
        <ele>178.6</ele>
        <time>2022-10-26T15:37:42Z</time>
      </trkpt>
      <trkpt lat="43.60979" lon="1.31274">
        <ele>178.6</ele>
        <time>2022-10-26T15:37:43Z</time>
      </trkpt>
      <trkpt lat="43.60976" lon="1.31278">
        <ele>178.8</ele>
        <time>2022-10-26T15:37:44Z</time>
      </trkpt>
      <trkpt lat="43.60972" lon="1.31283">
        <ele>178.8</ele>
        <time>2022-10-26T15:37:45Z</time>
      </trkpt>
      <trkpt lat="43.60967" lon="1.31288">
        <ele>178.8</ele>
        <time>2022-10-26T15:37:46Z</time>
      </trkpt>
      <trkpt lat="43.60963" lon="1.31292">
        <ele>178.6</ele>
        <time>2022-10-26T15:37:47Z</time>
      </trkpt>
      <trkpt lat="43.6096" lon="1.31296">
        <ele>178.6</ele>
        <time>2022-10-26T15:37:48Z</time>
      </trkpt>
      <trkpt lat="43.60957" lon="1.31299">
        <ele>178.6</ele>
        <time>2022-10-26T15:37:49Z</time>
      </trkpt>
      <trkpt lat="43.60953" lon="1.31302">
        <ele>178.6</ele>
        <time>2022-10-26T15:37:50Z</time>
      </trkpt>
      <trkpt lat="43.60948" lon="1.31303">
        <ele>178.4</ele>
        <time>2022-10-26T15:37:51Z</time>
      </trkpt>
      <trkpt lat="43.60944" lon="1.31304">
        <ele>178.4</ele>
        <time>2022-10-26T15:37:52Z</time>
      </trkpt>
      <trkpt lat="43.60939" lon="1.31305">
        <ele>178.6</ele>
        <time>2022-10-26T15:37:53Z</time>
      </trkpt>
      <trkpt lat="43.60932" lon="1.31305">
        <ele>178.4</ele>
        <time>2022-10-26T15:37:54Z</time>
      </trkpt>
      <trkpt lat="43.60927" lon="1.31304">
        <ele>178.4</ele>
        <time>2022-10-26T15:37:55Z</time>
      </trkpt>
      <trkpt lat="43.60922" lon="1.31305">
        <ele>178.2</ele>
        <time>2022-10-26T15:37:56Z</time>
      </trkpt>
      <trkpt lat="43.60916" lon="1.31308">
        <ele>178</ele>
        <time>2022-10-26T15:37:57Z</time>
      </trkpt>
      <trkpt lat="43.60908" lon="1.3131">
        <ele>178</ele>
        <time>2022-10-26T15:37:58Z</time>
      </trkpt>
      <trkpt lat="43.60901" lon="1.31309">
        <ele>177.4</ele>
        <time>2022-10-26T15:37:59Z</time>
      </trkpt>
      <trkpt lat="43.60895" lon="1.31308">
        <ele>177.2</ele>
        <time>2022-10-26T15:38:00Z</time>
      </trkpt>
      <trkpt lat="43.60888" lon="1.31305">
        <ele>177</ele>
        <time>2022-10-26T15:38:01Z</time>
      </trkpt>
      <trkpt lat="43.60883" lon="1.31304">
        <ele>176.6</ele>
        <time>2022-10-26T15:38:02Z</time>
      </trkpt>
      <trkpt lat="43.60879" lon="1.31303">
        <ele>175.8</ele>
        <time>2022-10-26T15:38:03Z</time>
      </trkpt>
      <trkpt lat="43.60874" lon="1.31304">
        <ele>175.2</ele>
        <time>2022-10-26T15:38:04Z</time>
      </trkpt>
      <trkpt lat="43.60871" lon="1.31307">
        <ele>174.8</ele>
        <time>2022-10-26T15:38:05Z</time>
      </trkpt>
      <trkpt lat="43.60869" lon="1.31309">
        <ele>174.2</ele>
        <time>2022-10-26T15:38:06Z</time>
      </trkpt>
      <trkpt lat="43.60867" lon="1.31311">
        <ele>173.8</ele>
        <time>2022-10-26T15:38:07Z</time>
      </trkpt>
      <trkpt lat="43.60865" lon="1.3131">
        <ele>173.4</ele>
        <time>2022-10-26T15:38:08Z</time>
      </trkpt>
      <trkpt lat="43.60863" lon="1.31309">
        <ele>173</ele>
        <time>2022-10-26T15:38:09Z</time>
      </trkpt>
      <trkpt lat="43.60861" lon="1.31308">
        <ele>172.2</ele>
        <time>2022-10-26T15:38:10Z</time>
      </trkpt>
      <trkpt lat="43.60858" lon="1.31306">
        <ele>171.8</ele>
        <time>2022-10-26T15:38:11Z</time>
      </trkpt>
      <trkpt lat="43.60856" lon="1.31304">
        <ele>171.8</ele>
        <time>2022-10-26T15:38:12Z</time>
      </trkpt>
      <trkpt lat="43.60854" lon="1.31301">
        <ele>171.4</ele>
        <time>2022-10-26T15:38:13Z</time>
      </trkpt>
      <trkpt lat="43.6085" lon="1.31297">
        <ele>171.4</ele>
        <time>2022-10-26T15:38:14Z</time>
      </trkpt>
      <trkpt lat="43.60846" lon="1.31295">
        <ele>171</ele>
        <time>2022-10-26T15:38:15Z</time>
      </trkpt>
      <trkpt lat="43.60843" lon="1.31293">
        <ele>170.8</ele>
        <time>2022-10-26T15:38:16Z</time>
      </trkpt>
      <trkpt lat="43.6084" lon="1.31291">
        <ele>170.4</ele>
        <time>2022-10-26T15:38:17Z</time>
      </trkpt>
      <trkpt lat="43.60836" lon="1.31288">
        <ele>170.2</ele>
        <time>2022-10-26T15:38:18Z</time>
      </trkpt>
      <trkpt lat="43.60832" lon="1.31285">
        <ele>170.2</ele>
        <time>2022-10-26T15:38:19Z</time>
      </trkpt>
      <trkpt lat="43.60829" lon="1.31283">
        <ele>170</ele>
        <time>2022-10-26T15:38:20Z</time>
      </trkpt>
      <trkpt lat="43.60825" lon="1.31281">
        <ele>170</ele>
        <time>2022-10-26T15:38:21Z</time>
      </trkpt>
      <trkpt lat="43.6082" lon="1.31279">
        <ele>169.8</ele>
        <time>2022-10-26T15:38:22Z</time>
      </trkpt>
      <trkpt lat="43.60816" lon="1.31277">
        <ele>169.8</ele>
        <time>2022-10-26T15:38:23Z</time>
      </trkpt>
      <trkpt lat="43.60811" lon="1.31274">
        <ele>169.8</ele>
        <time>2022-10-26T15:38:24Z</time>
      </trkpt>
      <trkpt lat="43.60806" lon="1.31271">
        <ele>169.8</ele>
        <time>2022-10-26T15:38:25Z</time>
      </trkpt>
      <trkpt lat="43.60802" lon="1.31269">
        <ele>169.8</ele>
        <time>2022-10-26T15:38:26Z</time>
      </trkpt>
      <trkpt lat="43.60797" lon="1.31265">
        <ele>169.8</ele>
        <time>2022-10-26T15:38:27Z</time>
      </trkpt>
      <trkpt lat="43.60794" lon="1.31263">
        <ele>169.8</ele>
        <time>2022-10-26T15:38:28Z</time>
      </trkpt>
      <trkpt lat="43.60789" lon="1.31259">
        <ele>169.8</ele>
        <time>2022-10-26T15:38:29Z</time>
      </trkpt>
      <trkpt lat="43.60786" lon="1.31257">
        <ele>169.8</ele>
        <time>2022-10-26T15:38:30Z</time>
      </trkpt>
      <trkpt lat="43.6078" lon="1.31254">
        <ele>169.8</ele>
        <time>2022-10-26T15:38:31Z</time>
      </trkpt>
      <trkpt lat="43.60776" lon="1.31253">
        <ele>169.8</ele>
        <time>2022-10-26T15:38:32Z</time>
      </trkpt>
      <trkpt lat="43.60771" lon="1.31252">
        <ele>169.8</ele>
        <time>2022-10-26T15:38:33Z</time>
      </trkpt>
      <trkpt lat="43.60766" lon="1.31249">
        <ele>170</ele>
        <time>2022-10-26T15:38:34Z</time>
      </trkpt>
      <trkpt lat="43.6076" lon="1.31246">
        <ele>170</ele>
        <time>2022-10-26T15:38:35Z</time>
      </trkpt>
      <trkpt lat="43.60754" lon="1.31243">
        <ele>170</ele>
        <time>2022-10-26T15:38:36Z</time>
      </trkpt>
      <trkpt lat="43.60749" lon="1.3124">
        <ele>170</ele>
        <time>2022-10-26T15:38:37Z</time>
      </trkpt>
      <trkpt lat="43.60744" lon="1.31236">
        <ele>170</ele>
        <time>2022-10-26T15:38:38Z</time>
      </trkpt>
      <trkpt lat="43.6074" lon="1.31234">
        <ele>170</ele>
        <time>2022-10-26T15:38:39Z</time>
      </trkpt>
      <trkpt lat="43.60735" lon="1.31231">
        <ele>170.2</ele>
        <time>2022-10-26T15:38:40Z</time>
      </trkpt>
      <trkpt lat="43.60728" lon="1.31228">
        <ele>170.2</ele>
        <time>2022-10-26T15:38:41Z</time>
      </trkpt>
      <trkpt lat="43.60723" lon="1.31226">
        <ele>170.2</ele>
        <time>2022-10-26T15:38:42Z</time>
      </trkpt>
      <trkpt lat="43.60717" lon="1.31224">
        <ele>170.2</ele>
        <time>2022-10-26T15:38:43Z</time>
      </trkpt>
      <trkpt lat="43.60711" lon="1.31222">
        <ele>170.2</ele>
        <time>2022-10-26T15:38:44Z</time>
      </trkpt>
      <trkpt lat="43.60706" lon="1.31219">
        <ele>170.2</ele>
        <time>2022-10-26T15:38:45Z</time>
      </trkpt>
      <trkpt lat="43.60702" lon="1.31216">
        <ele>170.2</ele>
        <time>2022-10-26T15:38:46Z</time>
      </trkpt>
      <trkpt lat="43.60696" lon="1.31215">
        <ele>170.2</ele>
        <time>2022-10-26T15:38:47Z</time>
      </trkpt>
      <trkpt lat="43.6069" lon="1.31214">
        <ele>170.2</ele>
        <time>2022-10-26T15:38:48Z</time>
      </trkpt>
      <trkpt lat="43.60685" lon="1.31214">
        <ele>170.2</ele>
        <time>2022-10-26T15:38:49Z</time>
      </trkpt>
      <trkpt lat="43.60681" lon="1.31216">
        <ele>170.2</ele>
        <time>2022-10-26T15:38:50Z</time>
      </trkpt>
      <trkpt lat="43.60677" lon="1.31222">
        <ele>170.4</ele>
        <time>2022-10-26T15:38:51Z</time>
      </trkpt>
      <trkpt lat="43.60675" lon="1.31229">
        <ele>170.4</ele>
        <time>2022-10-26T15:38:52Z</time>
      </trkpt>
      <trkpt lat="43.60674" lon="1.31233">
        <ele>170.4</ele>
        <time>2022-10-26T15:38:53Z</time>
      </trkpt>
      <trkpt lat="43.60674" lon="1.31236">
        <ele>170.6</ele>
        <time>2022-10-26T15:38:54Z</time>
      </trkpt>
      <trkpt lat="43.60673" lon="1.31241">
        <ele>170.8</ele>
        <time>2022-10-26T15:38:55Z</time>
      </trkpt>
      <trkpt lat="43.60672" lon="1.31244">
        <ele>171</ele>
        <time>2022-10-26T15:38:56Z</time>
      </trkpt>
      <trkpt lat="43.60672" lon="1.3125">
        <ele>171.2</ele>
        <time>2022-10-26T15:38:57Z</time>
      </trkpt>
      <trkpt lat="43.60673" lon="1.31253">
        <ele>171.2</ele>
        <time>2022-10-26T15:38:58Z</time>
      </trkpt>
      <trkpt lat="43.60673" lon="1.31259">
        <ele>171.4</ele>
        <time>2022-10-26T15:38:59Z</time>
      </trkpt>
      <trkpt lat="43.60673" lon="1.31263">
        <ele>171.6</ele>
        <time>2022-10-26T15:39:00Z</time>
      </trkpt>
      <trkpt lat="43.60675" lon="1.31267">
        <ele>171.8</ele>
        <time>2022-10-26T15:39:01Z</time>
      </trkpt>
      <trkpt lat="43.60677" lon="1.31269">
        <ele>171.8</ele>
        <time>2022-10-26T15:39:02Z</time>
      </trkpt>
      <trkpt lat="43.60681" lon="1.31271">
        <ele>172</ele>
        <time>2022-10-26T15:39:03Z</time>
      </trkpt>
      <trkpt lat="43.60685" lon="1.31273">
        <ele>172.4</ele>
        <time>2022-10-26T15:39:04Z</time>
      </trkpt>
      <trkpt lat="43.60689" lon="1.31274">
        <ele>172.4</ele>
        <time>2022-10-26T15:39:05Z</time>
      </trkpt>
      <trkpt lat="43.60695" lon="1.31277">
        <ele>172.8</ele>
        <time>2022-10-26T15:39:06Z</time>
      </trkpt>
      <trkpt lat="43.60699" lon="1.31278">
        <ele>172.8</ele>
        <time>2022-10-26T15:39:07Z</time>
      </trkpt>
      <trkpt lat="43.60704" lon="1.31281">
        <ele>173</ele>
        <time>2022-10-26T15:39:08Z</time>
      </trkpt>
      <trkpt lat="43.60709" lon="1.31284">
        <ele>173</ele>
        <time>2022-10-26T15:39:09Z</time>
      </trkpt>
      <trkpt lat="43.60714" lon="1.31286">
        <ele>173</ele>
        <time>2022-10-26T15:39:10Z</time>
      </trkpt>
      <trkpt lat="43.60719" lon="1.31288">
        <ele>173</ele>
        <time>2022-10-26T15:39:11Z</time>
      </trkpt>
      <trkpt lat="43.60723" lon="1.3129">
        <ele>172.8</ele>
        <time>2022-10-26T15:39:12Z</time>
      </trkpt>
      <trkpt lat="43.60727" lon="1.31293">
        <ele>172.8</ele>
        <time>2022-10-26T15:39:13Z</time>
      </trkpt>
      <trkpt lat="43.60731" lon="1.31299">
        <ele>172.6</ele>
        <time>2022-10-26T15:39:14Z</time>
      </trkpt>
      <trkpt lat="43.60732" lon="1.31305">
        <ele>172.6</ele>
        <time>2022-10-26T15:39:15Z</time>
      </trkpt>
      <trkpt lat="43.60731" lon="1.31311">
        <ele>172.6</ele>
        <time>2022-10-26T15:39:16Z</time>
      </trkpt>
      <trkpt lat="43.60729" lon="1.31318">
        <ele>172.6</ele>
        <time>2022-10-26T15:39:17Z</time>
      </trkpt>
      <trkpt lat="43.60727" lon="1.31324">
        <ele>172.6</ele>
        <time>2022-10-26T15:39:18Z</time>
      </trkpt>
      <trkpt lat="43.60726" lon="1.31332">
        <ele>172.6</ele>
        <time>2022-10-26T15:39:19Z</time>
      </trkpt>
      <trkpt lat="43.60724" lon="1.31339">
        <ele>172.6</ele>
        <time>2022-10-26T15:39:20Z</time>
      </trkpt>
      <trkpt lat="43.60721" lon="1.31344">
        <ele>172.4</ele>
        <time>2022-10-26T15:39:21Z</time>
      </trkpt>
      <trkpt lat="43.60719" lon="1.3135">
        <ele>172.4</ele>
        <time>2022-10-26T15:39:22Z</time>
      </trkpt>
      <trkpt lat="43.60716" lon="1.31353">
        <ele>172.4</ele>
        <time>2022-10-26T15:39:23Z</time>
      </trkpt>
      <trkpt lat="43.60711" lon="1.31354">
        <ele>172.4</ele>
        <time>2022-10-26T15:39:24Z</time>
      </trkpt>
      <trkpt lat="43.60705" lon="1.31354">
        <ele>172.4</ele>
        <time>2022-10-26T15:39:25Z</time>
      </trkpt>
      <trkpt lat="43.607" lon="1.31353">
        <ele>172.4</ele>
        <time>2022-10-26T15:39:26Z</time>
      </trkpt>
      <trkpt lat="43.60696" lon="1.31351">
        <ele>172.4</ele>
        <time>2022-10-26T15:39:27Z</time>
      </trkpt>
      <trkpt lat="43.60692" lon="1.31348">
        <ele>172.4</ele>
        <time>2022-10-26T15:39:28Z</time>
      </trkpt>
      <trkpt lat="43.6069" lon="1.31344">
        <ele>172.4</ele>
        <time>2022-10-26T15:39:29Z</time>
      </trkpt>
      <trkpt lat="43.60689" lon="1.31337">
        <ele>172.6</ele>
        <time>2022-10-26T15:39:30Z</time>
      </trkpt>
      <trkpt lat="43.6069" lon="1.31331">
        <ele>172.6</ele>
        <time>2022-10-26T15:39:31Z</time>
      </trkpt>
      <trkpt lat="43.6069" lon="1.31324">
        <ele>172.6</ele>
        <time>2022-10-26T15:39:32Z</time>
      </trkpt>
      <trkpt lat="43.60689" lon="1.31315">
        <ele>172.6</ele>
        <time>2022-10-26T15:39:33Z</time>
      </trkpt>
      <trkpt lat="43.60688" lon="1.3131">
        <ele>172.6</ele>
        <time>2022-10-26T15:39:34Z</time>
      </trkpt>
      <trkpt lat="43.60682" lon="1.31305">
        <ele>172.6</ele>
        <time>2022-10-26T15:39:35Z</time>
      </trkpt>
      <trkpt lat="43.60678" lon="1.31305">
        <ele>172.4</ele>
        <time>2022-10-26T15:39:36Z</time>
      </trkpt>
      <trkpt lat="43.60672" lon="1.31305">
        <ele>172.2</ele>
        <time>2022-10-26T15:39:37Z</time>
      </trkpt>
      <trkpt lat="43.60664" lon="1.31306">
        <ele>172.4</ele>
        <time>2022-10-26T15:39:38Z</time>
      </trkpt>
      <trkpt lat="43.60659" lon="1.31306">
        <ele>172.2</ele>
        <time>2022-10-26T15:39:39Z</time>
      </trkpt>
      <trkpt lat="43.60631" lon="1.3131">
        <ele>171.6</ele>
        <time>2022-10-26T15:39:44Z</time>
      </trkpt>
      <trkpt lat="43.6063" lon="1.31307">
        <ele>171.4</ele>
        <time>2022-10-26T15:39:45Z</time>
      </trkpt>
      <trkpt lat="43.60627" lon="1.31308">
        <ele>171.4</ele>
        <time>2022-10-26T15:39:46Z</time>
      </trkpt>
      <trkpt lat="43.60626" lon="1.31307">
        <ele>171.4</ele>
        <time>2022-10-26T15:39:47Z</time>
      </trkpt>
      <trkpt lat="43.60625" lon="1.31305">
        <ele>171.4</ele>
        <time>2022-10-26T15:39:48Z</time>
      </trkpt>
      <trkpt lat="43.60624" lon="1.31301">
        <ele>171.4</ele>
        <time>2022-10-26T15:39:49Z</time>
      </trkpt>
      <trkpt lat="43.60622" lon="1.31298">
        <ele>171.4</ele>
        <time>2022-10-26T15:39:50Z</time>
      </trkpt>
      <trkpt lat="43.60618" lon="1.31297">
        <ele>171.4</ele>
        <time>2022-10-26T15:39:51Z</time>
      </trkpt>
      <trkpt lat="43.60613" lon="1.31296">
        <ele>171.4</ele>
        <time>2022-10-26T15:39:52Z</time>
      </trkpt>
      <trkpt lat="43.60607" lon="1.31297">
        <ele>171.6</ele>
        <time>2022-10-26T15:39:53Z</time>
      </trkpt>
      <trkpt lat="43.60602" lon="1.31296">
        <ele>171.6</ele>
        <time>2022-10-26T15:39:54Z</time>
      </trkpt>
      <trkpt lat="43.60597" lon="1.31296">
        <ele>171.6</ele>
        <time>2022-10-26T15:39:55Z</time>
      </trkpt>
      <trkpt lat="43.60593" lon="1.31296">
        <ele>171.8</ele>
        <time>2022-10-26T15:39:56Z</time>
      </trkpt>
      <trkpt lat="43.60588" lon="1.31295">
        <ele>171.8</ele>
        <time>2022-10-26T15:39:57Z</time>
      </trkpt>
      <trkpt lat="43.60584" lon="1.31294">
        <ele>171.8</ele>
        <time>2022-10-26T15:39:58Z</time>
      </trkpt>
      <trkpt lat="43.60578" lon="1.31292">
        <ele>172</ele>
        <time>2022-10-26T15:39:59Z</time>
      </trkpt>
      <trkpt lat="43.60574" lon="1.31289">
        <ele>172.2</ele>
        <time>2022-10-26T15:40:00Z</time>
      </trkpt>
      <trkpt lat="43.60571" lon="1.31287">
        <ele>172.2</ele>
        <time>2022-10-26T15:40:01Z</time>
      </trkpt>
      <trkpt lat="43.60568" lon="1.31284">
        <ele>172.2</ele>
        <time>2022-10-26T15:40:02Z</time>
      </trkpt>
      <trkpt lat="43.60564" lon="1.31281">
        <ele>172.2</ele>
        <time>2022-10-26T15:40:03Z</time>
      </trkpt>
      <trkpt lat="43.60559" lon="1.31277">
        <ele>172.2</ele>
        <time>2022-10-26T15:40:04Z</time>
      </trkpt>
      <trkpt lat="43.60556" lon="1.31275">
        <ele>172.2</ele>
        <time>2022-10-26T15:40:05Z</time>
      </trkpt>
      <trkpt lat="43.60553" lon="1.31271">
        <ele>172.2</ele>
        <time>2022-10-26T15:40:06Z</time>
      </trkpt>
      <trkpt lat="43.6055" lon="1.31267">
        <ele>172.2</ele>
        <time>2022-10-26T15:40:07Z</time>
      </trkpt>
      <trkpt lat="43.60547" lon="1.31262">
        <ele>172.2</ele>
        <time>2022-10-26T15:40:08Z</time>
      </trkpt>
      <trkpt lat="43.60544" lon="1.31256">
        <ele>172.2</ele>
        <time>2022-10-26T15:40:09Z</time>
      </trkpt>
      <trkpt lat="43.60542" lon="1.3125">
        <ele>172.2</ele>
        <time>2022-10-26T15:40:10Z</time>
      </trkpt>
      <trkpt lat="43.6054" lon="1.31244">
        <ele>172.4</ele>
        <time>2022-10-26T15:40:11Z</time>
      </trkpt>
      <trkpt lat="43.60537" lon="1.31238">
        <ele>172.4</ele>
        <time>2022-10-26T15:40:12Z</time>
      </trkpt>
      <trkpt lat="43.60534" lon="1.31232">
        <ele>172.6</ele>
        <time>2022-10-26T15:40:13Z</time>
      </trkpt>
      <trkpt lat="43.6053" lon="1.31227">
        <ele>172.6</ele>
        <time>2022-10-26T15:40:14Z</time>
      </trkpt>
      <trkpt lat="43.60525" lon="1.31225">
        <ele>172.6</ele>
        <time>2022-10-26T15:40:15Z</time>
      </trkpt>
      <trkpt lat="43.6052" lon="1.31225">
        <ele>172.6</ele>
        <time>2022-10-26T15:40:16Z</time>
      </trkpt>
      <trkpt lat="43.60514" lon="1.31227">
        <ele>172.6</ele>
        <time>2022-10-26T15:40:17Z</time>
      </trkpt>
      <trkpt lat="43.6051" lon="1.3123">
        <ele>172.8</ele>
        <time>2022-10-26T15:40:18Z</time>
      </trkpt>
      <trkpt lat="43.60506" lon="1.31234">
        <ele>172.8</ele>
        <time>2022-10-26T15:40:19Z</time>
      </trkpt>
      <trkpt lat="43.60501" lon="1.31239">
        <ele>172.8</ele>
        <time>2022-10-26T15:40:20Z</time>
      </trkpt>
      <trkpt lat="43.60497" lon="1.31244">
        <ele>173</ele>
        <time>2022-10-26T15:40:21Z</time>
      </trkpt>
      <trkpt lat="43.60492" lon="1.3125">
        <ele>173</ele>
        <time>2022-10-26T15:40:22Z</time>
      </trkpt>
      <trkpt lat="43.60487" lon="1.31255">
        <ele>173</ele>
        <time>2022-10-26T15:40:23Z</time>
      </trkpt>
      <trkpt lat="43.60484" lon="1.31259">
        <ele>173.2</ele>
        <time>2022-10-26T15:40:24Z</time>
      </trkpt>
      <trkpt lat="43.60479" lon="1.31264">
        <ele>173.2</ele>
        <time>2022-10-26T15:40:25Z</time>
      </trkpt>
      <trkpt lat="43.60475" lon="1.31269">
        <ele>173.4</ele>
        <time>2022-10-26T15:40:26Z</time>
      </trkpt>
      <trkpt lat="43.6047" lon="1.31276">
        <ele>173.4</ele>
        <time>2022-10-26T15:40:27Z</time>
      </trkpt>
      <trkpt lat="43.60467" lon="1.3128">
        <ele>173.4</ele>
        <time>2022-10-26T15:40:28Z</time>
      </trkpt>
      <trkpt lat="43.60462" lon="1.31286">
        <ele>173.6</ele>
        <time>2022-10-26T15:40:29Z</time>
      </trkpt>
      <trkpt lat="43.60458" lon="1.31292">
        <ele>173.6</ele>
        <time>2022-10-26T15:40:30Z</time>
      </trkpt>
      <trkpt lat="43.60454" lon="1.31297">
        <ele>173.6</ele>
        <time>2022-10-26T15:40:31Z</time>
      </trkpt>
      <trkpt lat="43.60449" lon="1.31303">
        <ele>173.6</ele>
        <time>2022-10-26T15:40:32Z</time>
      </trkpt>
      <trkpt lat="43.60446" lon="1.31307">
        <ele>173.8</ele>
        <time>2022-10-26T15:40:33Z</time>
      </trkpt>
      <trkpt lat="43.60441" lon="1.31313">
        <ele>173.8</ele>
        <time>2022-10-26T15:40:34Z</time>
      </trkpt>
      <trkpt lat="43.60438" lon="1.31318">
        <ele>173.8</ele>
        <time>2022-10-26T15:40:35Z</time>
      </trkpt>
      <trkpt lat="43.60433" lon="1.31323">
        <ele>174</ele>
        <time>2022-10-26T15:40:36Z</time>
      </trkpt>
      <trkpt lat="43.60429" lon="1.31328">
        <ele>174</ele>
        <time>2022-10-26T15:40:37Z</time>
      </trkpt>
      <trkpt lat="43.60424" lon="1.31334">
        <ele>174</ele>
        <time>2022-10-26T15:40:38Z</time>
      </trkpt>
      <trkpt lat="43.60421" lon="1.31339">
        <ele>174</ele>
        <time>2022-10-26T15:40:39Z</time>
      </trkpt>
      <trkpt lat="43.60418" lon="1.31342">
        <ele>174.2</ele>
        <time>2022-10-26T15:40:40Z</time>
      </trkpt>
      <trkpt lat="43.60414" lon="1.31347">
        <ele>174.2</ele>
        <time>2022-10-26T15:40:41Z</time>
      </trkpt>
      <trkpt lat="43.6041" lon="1.31351">
        <ele>174.4</ele>
        <time>2022-10-26T15:40:42Z</time>
      </trkpt>
      <trkpt lat="43.60406" lon="1.31355">
        <ele>174.6</ele>
        <time>2022-10-26T15:40:43Z</time>
      </trkpt>
      <trkpt lat="43.60403" lon="1.3136">
        <ele>174.6</ele>
        <time>2022-10-26T15:40:44Z</time>
      </trkpt>
      <trkpt lat="43.60399" lon="1.31364">
        <ele>174.6</ele>
        <time>2022-10-26T15:40:45Z</time>
      </trkpt>
      <trkpt lat="43.60395" lon="1.31368">
        <ele>174.8</ele>
        <time>2022-10-26T15:40:46Z</time>
      </trkpt>
      <trkpt lat="43.6039" lon="1.31372">
        <ele>174.8</ele>
        <time>2022-10-26T15:40:47Z</time>
      </trkpt>
      <trkpt lat="43.60385" lon="1.31375">
        <ele>174.8</ele>
        <time>2022-10-26T15:40:48Z</time>
      </trkpt>
      <trkpt lat="43.60381" lon="1.31377">
        <ele>174.8</ele>
        <time>2022-10-26T15:40:49Z</time>
      </trkpt>
      <trkpt lat="43.60376" lon="1.31377">
        <ele>174.8</ele>
        <time>2022-10-26T15:40:50Z</time>
      </trkpt>
      <trkpt lat="43.6037" lon="1.31376">
        <ele>174.8</ele>
        <time>2022-10-26T15:40:51Z</time>
      </trkpt>
      <trkpt lat="43.60365" lon="1.31374">
        <ele>174.6</ele>
        <time>2022-10-26T15:40:52Z</time>
      </trkpt>
      <trkpt lat="43.6036" lon="1.31371">
        <ele>174.6</ele>
        <time>2022-10-26T15:40:53Z</time>
      </trkpt>
      <trkpt lat="43.60355" lon="1.31367">
        <ele>174.6</ele>
        <time>2022-10-26T15:40:54Z</time>
      </trkpt>
      <trkpt lat="43.60351" lon="1.31361">
        <ele>174.6</ele>
        <time>2022-10-26T15:40:55Z</time>
      </trkpt>
      <trkpt lat="43.60348" lon="1.31354">
        <ele>174.4</ele>
        <time>2022-10-26T15:40:56Z</time>
      </trkpt>
      <trkpt lat="43.60345" lon="1.31346">
        <ele>174.4</ele>
        <time>2022-10-26T15:40:57Z</time>
      </trkpt>
      <trkpt lat="43.60343" lon="1.31338">
        <ele>174.4</ele>
        <time>2022-10-26T15:40:58Z</time>
      </trkpt>
      <trkpt lat="43.60341" lon="1.3133">
        <ele>174.4</ele>
        <time>2022-10-26T15:40:59Z</time>
      </trkpt>
      <trkpt lat="43.60338" lon="1.31322">
        <ele>174.4</ele>
        <time>2022-10-26T15:41:00Z</time>
      </trkpt>
      <trkpt lat="43.60336" lon="1.31314">
        <ele>174.4</ele>
        <time>2022-10-26T15:41:01Z</time>
      </trkpt>
      <trkpt lat="43.60333" lon="1.31306">
        <ele>174.4</ele>
        <time>2022-10-26T15:41:02Z</time>
      </trkpt>
      <trkpt lat="43.60331" lon="1.31298">
        <ele>174.2</ele>
        <time>2022-10-26T15:41:03Z</time>
      </trkpt>
      <trkpt lat="43.60329" lon="1.3129">
        <ele>174.2</ele>
        <time>2022-10-26T15:41:04Z</time>
      </trkpt>
      <trkpt lat="43.60326" lon="1.31283">
        <ele>174.2</ele>
        <time>2022-10-26T15:41:05Z</time>
      </trkpt>
      <trkpt lat="43.60323" lon="1.31275">
        <ele>174.2</ele>
        <time>2022-10-26T15:41:06Z</time>
      </trkpt>
      <trkpt lat="43.60321" lon="1.31266">
        <ele>174.2</ele>
        <time>2022-10-26T15:41:07Z</time>
      </trkpt>
      <trkpt lat="43.60318" lon="1.31258">
        <ele>174.2</ele>
        <time>2022-10-26T15:41:08Z</time>
      </trkpt>
      <trkpt lat="43.60315" lon="1.3125">
        <ele>174.2</ele>
        <time>2022-10-26T15:41:09Z</time>
      </trkpt>
      <trkpt lat="43.60312" lon="1.31242">
        <ele>174.2</ele>
        <time>2022-10-26T15:41:10Z</time>
      </trkpt>
      <trkpt lat="43.6031" lon="1.31234">
        <ele>174.2</ele>
        <time>2022-10-26T15:41:11Z</time>
      </trkpt>
      <trkpt lat="43.60307" lon="1.31226">
        <ele>174.2</ele>
        <time>2022-10-26T15:41:12Z</time>
      </trkpt>
      <trkpt lat="43.60304" lon="1.31217">
        <ele>174.2</ele>
        <time>2022-10-26T15:41:13Z</time>
      </trkpt>
      <trkpt lat="43.60301" lon="1.31209">
        <ele>174.2</ele>
        <time>2022-10-26T15:41:14Z</time>
      </trkpt>
      <trkpt lat="43.60298" lon="1.312">
        <ele>174.2</ele>
        <time>2022-10-26T15:41:15Z</time>
      </trkpt>
      <trkpt lat="43.60296" lon="1.31192">
        <ele>174.2</ele>
        <time>2022-10-26T15:41:16Z</time>
      </trkpt>
      <trkpt lat="43.60293" lon="1.31183">
        <ele>174.2</ele>
        <time>2022-10-26T15:41:17Z</time>
      </trkpt>
      <trkpt lat="43.6029" lon="1.31175">
        <ele>174.2</ele>
        <time>2022-10-26T15:41:18Z</time>
      </trkpt>
      <trkpt lat="43.60288" lon="1.31166">
        <ele>174.2</ele>
        <time>2022-10-26T15:41:19Z</time>
      </trkpt>
      <trkpt lat="43.60285" lon="1.31158">
        <ele>174.2</ele>
        <time>2022-10-26T15:41:20Z</time>
      </trkpt>
      <trkpt lat="43.60283" lon="1.31149">
        <ele>174.2</ele>
        <time>2022-10-26T15:41:21Z</time>
      </trkpt>
      <trkpt lat="43.6028" lon="1.3114">
        <ele>174.2</ele>
        <time>2022-10-26T15:41:22Z</time>
      </trkpt>
      <trkpt lat="43.60277" lon="1.31131">
        <ele>174.4</ele>
        <time>2022-10-26T15:41:23Z</time>
      </trkpt>
      <trkpt lat="43.60275" lon="1.31122">
        <ele>174.4</ele>
        <time>2022-10-26T15:41:24Z</time>
      </trkpt>
      <trkpt lat="43.60272" lon="1.31113">
        <ele>174.4</ele>
        <time>2022-10-26T15:41:25Z</time>
      </trkpt>
      <trkpt lat="43.60269" lon="1.31105">
        <ele>174.4</ele>
        <time>2022-10-26T15:41:26Z</time>
      </trkpt>
      <trkpt lat="43.60266" lon="1.31096">
        <ele>174.4</ele>
        <time>2022-10-26T15:41:27Z</time>
      </trkpt>
      <trkpt lat="43.60263" lon="1.31087">
        <ele>174.4</ele>
        <time>2022-10-26T15:41:28Z</time>
      </trkpt>
      <trkpt lat="43.6026" lon="1.31078">
        <ele>174.4</ele>
        <time>2022-10-26T15:41:29Z</time>
      </trkpt>
      <trkpt lat="43.60257" lon="1.31069">
        <ele>174.4</ele>
        <time>2022-10-26T15:41:30Z</time>
      </trkpt>
      <trkpt lat="43.60254" lon="1.31059">
        <ele>174.4</ele>
        <time>2022-10-26T15:41:31Z</time>
      </trkpt>
      <trkpt lat="43.60251" lon="1.3105">
        <ele>174.4</ele>
        <time>2022-10-26T15:41:32Z</time>
      </trkpt>
      <trkpt lat="43.60248" lon="1.31039">
        <ele>174.4</ele>
        <time>2022-10-26T15:41:33Z</time>
      </trkpt>
      <trkpt lat="43.60245" lon="1.3103">
        <ele>174.4</ele>
        <time>2022-10-26T15:41:34Z</time>
      </trkpt>
      <trkpt lat="43.60242" lon="1.31021">
        <ele>174.4</ele>
        <time>2022-10-26T15:41:35Z</time>
      </trkpt>
      <trkpt lat="43.60239" lon="1.31012">
        <ele>174.4</ele>
        <time>2022-10-26T15:41:36Z</time>
      </trkpt>
      <trkpt lat="43.60236" lon="1.31002">
        <ele>174.4</ele>
        <time>2022-10-26T15:41:37Z</time>
      </trkpt>
      <trkpt lat="43.60233" lon="1.30993">
        <ele>174.4</ele>
        <time>2022-10-26T15:41:38Z</time>
      </trkpt>
      <trkpt lat="43.6023" lon="1.30984">
        <ele>174.4</ele>
        <time>2022-10-26T15:41:39Z</time>
      </trkpt>
      <trkpt lat="43.60227" lon="1.30975">
        <ele>174.6</ele>
        <time>2022-10-26T15:41:40Z</time>
      </trkpt>
      <trkpt lat="43.60224" lon="1.30965">
        <ele>174.6</ele>
        <time>2022-10-26T15:41:41Z</time>
      </trkpt>
      <trkpt lat="43.60221" lon="1.30956">
        <ele>174.6</ele>
        <time>2022-10-26T15:41:42Z</time>
      </trkpt>
      <trkpt lat="43.60218" lon="1.30947">
        <ele>174.6</ele>
        <time>2022-10-26T15:41:43Z</time>
      </trkpt>
      <trkpt lat="43.60215" lon="1.30938">
        <ele>174.6</ele>
        <time>2022-10-26T15:41:44Z</time>
      </trkpt>
      <trkpt lat="43.60212" lon="1.30929">
        <ele>174.6</ele>
        <time>2022-10-26T15:41:45Z</time>
      </trkpt>
      <trkpt lat="43.60209" lon="1.3092">
        <ele>174.6</ele>
        <time>2022-10-26T15:41:46Z</time>
      </trkpt>
      <trkpt lat="43.60207" lon="1.30911">
        <ele>174.6</ele>
        <time>2022-10-26T15:41:47Z</time>
      </trkpt>
      <trkpt lat="43.60204" lon="1.30902">
        <ele>174.6</ele>
        <time>2022-10-26T15:41:48Z</time>
      </trkpt>
      <trkpt lat="43.60201" lon="1.30893">
        <ele>174.6</ele>
        <time>2022-10-26T15:41:49Z</time>
      </trkpt>
      <trkpt lat="43.60198" lon="1.30884">
        <ele>174.6</ele>
        <time>2022-10-26T15:41:50Z</time>
      </trkpt>
      <trkpt lat="43.60195" lon="1.30875">
        <ele>174.6</ele>
        <time>2022-10-26T15:41:51Z</time>
      </trkpt>
      <trkpt lat="43.60193" lon="1.30866">
        <ele>174.6</ele>
        <time>2022-10-26T15:41:52Z</time>
      </trkpt>
      <trkpt lat="43.6019" lon="1.30857">
        <ele>174.6</ele>
        <time>2022-10-26T15:41:53Z</time>
      </trkpt>
      <trkpt lat="43.60187" lon="1.30849">
        <ele>174.6</ele>
        <time>2022-10-26T15:41:54Z</time>
      </trkpt>
      <trkpt lat="43.60184" lon="1.3084">
        <ele>174.6</ele>
        <time>2022-10-26T15:41:55Z</time>
      </trkpt>
      <trkpt lat="43.60181" lon="1.30831">
        <ele>174.6</ele>
        <time>2022-10-26T15:41:56Z</time>
      </trkpt>
      <trkpt lat="43.60179" lon="1.30823">
        <ele>174.6</ele>
        <time>2022-10-26T15:41:57Z</time>
      </trkpt>
      <trkpt lat="43.60176" lon="1.30815">
        <ele>174.6</ele>
        <time>2022-10-26T15:41:58Z</time>
      </trkpt>
      <trkpt lat="43.60173" lon="1.30806">
        <ele>174.6</ele>
        <time>2022-10-26T15:41:59Z</time>
      </trkpt>
      <trkpt lat="43.6017" lon="1.30798">
        <ele>174.6</ele>
        <time>2022-10-26T15:42:00Z</time>
      </trkpt>
      <trkpt lat="43.60167" lon="1.30789">
        <ele>174.6</ele>
        <time>2022-10-26T15:42:01Z</time>
      </trkpt>
      <trkpt lat="43.60164" lon="1.30781">
        <ele>174.6</ele>
        <time>2022-10-26T15:42:02Z</time>
      </trkpt>
      <trkpt lat="43.60162" lon="1.30772">
        <ele>174.6</ele>
        <time>2022-10-26T15:42:03Z</time>
      </trkpt>
      <trkpt lat="43.60159" lon="1.30764">
        <ele>174.6</ele>
        <time>2022-10-26T15:42:04Z</time>
      </trkpt>
      <trkpt lat="43.60156" lon="1.30756">
        <ele>174.6</ele>
        <time>2022-10-26T15:42:05Z</time>
      </trkpt>
      <trkpt lat="43.60154" lon="1.30747">
        <ele>174.6</ele>
        <time>2022-10-26T15:42:06Z</time>
      </trkpt>
      <trkpt lat="43.60151" lon="1.30739">
        <ele>174.6</ele>
        <time>2022-10-26T15:42:07Z</time>
      </trkpt>
      <trkpt lat="43.60149" lon="1.3073">
        <ele>174.6</ele>
        <time>2022-10-26T15:42:08Z</time>
      </trkpt>
      <trkpt lat="43.60146" lon="1.30721">
        <ele>174.6</ele>
        <time>2022-10-26T15:42:09Z</time>
      </trkpt>
      <trkpt lat="43.60143" lon="1.30713">
        <ele>174.6</ele>
        <time>2022-10-26T15:42:10Z</time>
      </trkpt>
      <trkpt lat="43.6014" lon="1.30704">
        <ele>174.6</ele>
        <time>2022-10-26T15:42:11Z</time>
      </trkpt>
      <trkpt lat="43.60137" lon="1.30695">
        <ele>174.6</ele>
        <time>2022-10-26T15:42:12Z</time>
      </trkpt>
      <trkpt lat="43.60135" lon="1.30686">
        <ele>174.6</ele>
        <time>2022-10-26T15:42:13Z</time>
      </trkpt>
      <trkpt lat="43.60132" lon="1.30678">
        <ele>174.6</ele>
        <time>2022-10-26T15:42:14Z</time>
      </trkpt>
      <trkpt lat="43.60129" lon="1.30669">
        <ele>174.8</ele>
        <time>2022-10-26T15:42:15Z</time>
      </trkpt>
      <trkpt lat="43.60126" lon="1.3066">
        <ele>174.8</ele>
        <time>2022-10-26T15:42:16Z</time>
      </trkpt>
      <trkpt lat="43.60123" lon="1.30652">
        <ele>174.8</ele>
        <time>2022-10-26T15:42:17Z</time>
      </trkpt>
      <trkpt lat="43.60119" lon="1.30644">
        <ele>174.8</ele>
        <time>2022-10-26T15:42:18Z</time>
      </trkpt>
      <trkpt lat="43.60115" lon="1.30637">
        <ele>174.8</ele>
        <time>2022-10-26T15:42:19Z</time>
      </trkpt>
      <trkpt lat="43.6011" lon="1.3063">
        <ele>174.8</ele>
        <time>2022-10-26T15:42:20Z</time>
      </trkpt>
      <trkpt lat="43.60104" lon="1.30625">
        <ele>174.8</ele>
        <time>2022-10-26T15:42:21Z</time>
      </trkpt>
      <trkpt lat="43.60099" lon="1.3062">
        <ele>174.8</ele>
        <time>2022-10-26T15:42:22Z</time>
      </trkpt>
      <trkpt lat="43.60094" lon="1.30616">
        <ele>174.8</ele>
        <time>2022-10-26T15:42:23Z</time>
      </trkpt>
      <trkpt lat="43.6009" lon="1.30612">
        <ele>174.8</ele>
        <time>2022-10-26T15:42:24Z</time>
      </trkpt>
      <trkpt lat="43.60086" lon="1.30609">
        <ele>174.8</ele>
        <time>2022-10-26T15:42:25Z</time>
      </trkpt>
      <trkpt lat="43.60084" lon="1.30607">
        <ele>174.8</ele>
        <time>2022-10-26T15:42:26Z</time>
      </trkpt>
      <trkpt lat="43.60082" lon="1.30605">
        <ele>174.8</ele>
        <time>2022-10-26T15:42:27Z</time>
      </trkpt>
      <trkpt lat="43.6008" lon="1.30605">
        <ele>174.8</ele>
        <time>2022-10-26T15:42:28Z</time>
      </trkpt>
      <trkpt lat="43.60077" lon="1.30605">
        <ele>174.8</ele>
        <time>2022-10-26T15:42:29Z</time>
      </trkpt>
      <trkpt lat="43.60075" lon="1.30607">
        <ele>174.8</ele>
        <time>2022-10-26T15:42:30Z</time>
      </trkpt>
      <trkpt lat="43.60073" lon="1.30611">
        <ele>174.8</ele>
        <time>2022-10-26T15:42:31Z</time>
      </trkpt>
      <trkpt lat="43.60071" lon="1.30616">
        <ele>174.8</ele>
        <time>2022-10-26T15:42:32Z</time>
      </trkpt>
      <trkpt lat="43.6007" lon="1.30621">
        <ele>174.8</ele>
        <time>2022-10-26T15:42:33Z</time>
      </trkpt>
      <trkpt lat="43.60069" lon="1.30627">
        <ele>174.8</ele>
        <time>2022-10-26T15:42:34Z</time>
      </trkpt>
      <trkpt lat="43.60068" lon="1.30633">
        <ele>174.8</ele>
        <time>2022-10-26T15:42:35Z</time>
      </trkpt>
      <trkpt lat="43.60067" lon="1.3064">
        <ele>174.8</ele>
        <time>2022-10-26T15:42:36Z</time>
      </trkpt>
      <trkpt lat="43.60066" lon="1.30647">
        <ele>174.6</ele>
        <time>2022-10-26T15:42:37Z</time>
      </trkpt>
      <trkpt lat="43.60065" lon="1.30653">
        <ele>174.6</ele>
        <time>2022-10-26T15:42:38Z</time>
      </trkpt>
      <trkpt lat="43.60064" lon="1.3066">
        <ele>174.6</ele>
        <time>2022-10-26T15:42:39Z</time>
      </trkpt>
      <trkpt lat="43.60062" lon="1.30667">
        <ele>174.6</ele>
        <time>2022-10-26T15:42:40Z</time>
      </trkpt>
      <trkpt lat="43.60061" lon="1.30674">
        <ele>174.6</ele>
        <time>2022-10-26T15:42:41Z</time>
      </trkpt>
      <trkpt lat="43.60059" lon="1.30681">
        <ele>174.6</ele>
        <time>2022-10-26T15:42:42Z</time>
      </trkpt>
      <trkpt lat="43.60058" lon="1.30688">
        <ele>174.6</ele>
        <time>2022-10-26T15:42:43Z</time>
      </trkpt>
      <trkpt lat="43.60057" lon="1.30696">
        <ele>174.8</ele>
        <time>2022-10-26T15:42:44Z</time>
      </trkpt>
      <trkpt lat="43.60056" lon="1.30703">
        <ele>174.8</ele>
        <time>2022-10-26T15:42:45Z</time>
      </trkpt>
      <trkpt lat="43.60054" lon="1.3071">
        <ele>175</ele>
        <time>2022-10-26T15:42:46Z</time>
      </trkpt>
      <trkpt lat="43.60053" lon="1.30718">
        <ele>175</ele>
        <time>2022-10-26T15:42:47Z</time>
      </trkpt>
      <trkpt lat="43.60052" lon="1.30725">
        <ele>175</ele>
        <time>2022-10-26T15:42:48Z</time>
      </trkpt>
      <trkpt lat="43.6005" lon="1.30731">
        <ele>175</ele>
        <time>2022-10-26T15:42:49Z</time>
      </trkpt>
      <trkpt lat="43.60049" lon="1.30738">
        <ele>175.2</ele>
        <time>2022-10-26T15:42:50Z</time>
      </trkpt>
      <trkpt lat="43.60047" lon="1.30744">
        <ele>175.2</ele>
        <time>2022-10-26T15:42:51Z</time>
      </trkpt>
      <trkpt lat="43.60046" lon="1.30748">
        <ele>175.2</ele>
        <time>2022-10-26T15:42:52Z</time>
      </trkpt>
      <trkpt lat="43.60044" lon="1.30753">
        <ele>175.4</ele>
        <time>2022-10-26T15:42:53Z</time>
      </trkpt>
      <trkpt lat="43.60042" lon="1.30758">
        <ele>175.4</ele>
        <time>2022-10-26T15:42:54Z</time>
      </trkpt>
      <trkpt lat="43.60041" lon="1.30764">
        <ele>175.4</ele>
        <time>2022-10-26T15:42:55Z</time>
      </trkpt>
      <trkpt lat="43.60039" lon="1.30769">
        <ele>175.6</ele>
        <time>2022-10-26T15:42:56Z</time>
      </trkpt>
      <trkpt lat="43.60037" lon="1.30775">
        <ele>175.6</ele>
        <time>2022-10-26T15:42:57Z</time>
      </trkpt>
      <trkpt lat="43.60036" lon="1.30782">
        <ele>175.6</ele>
        <time>2022-10-26T15:42:58Z</time>
      </trkpt>
      <trkpt lat="43.60035" lon="1.30788">
        <ele>175.6</ele>
        <time>2022-10-26T15:42:59Z</time>
      </trkpt>
      <trkpt lat="43.60034" lon="1.30796">
        <ele>175.6</ele>
        <time>2022-10-26T15:43:00Z</time>
      </trkpt>
      <trkpt lat="43.60035" lon="1.30804">
        <ele>175.6</ele>
        <time>2022-10-26T15:43:01Z</time>
      </trkpt>
      <trkpt lat="43.60035" lon="1.30811">
        <ele>175.6</ele>
        <time>2022-10-26T15:43:02Z</time>
      </trkpt>
      <trkpt lat="43.60035" lon="1.30819">
        <ele>175.6</ele>
        <time>2022-10-26T15:43:03Z</time>
      </trkpt>
      <trkpt lat="43.60034" lon="1.30827">
        <ele>175.6</ele>
        <time>2022-10-26T15:43:04Z</time>
      </trkpt>
      <trkpt lat="43.60034" lon="1.30833">
        <ele>175.6</ele>
        <time>2022-10-26T15:43:05Z</time>
      </trkpt>
      <trkpt lat="43.60032" lon="1.30842">
        <ele>175.6</ele>
        <time>2022-10-26T15:43:06Z</time>
      </trkpt>
      <trkpt lat="43.60031" lon="1.30849">
        <ele>175.6</ele>
        <time>2022-10-26T15:43:07Z</time>
      </trkpt>
      <trkpt lat="43.6003" lon="1.30857">
        <ele>175.6</ele>
        <time>2022-10-26T15:43:08Z</time>
      </trkpt>
      <trkpt lat="43.60028" lon="1.30865">
        <ele>175.8</ele>
        <time>2022-10-26T15:43:09Z</time>
      </trkpt>
      <trkpt lat="43.60027" lon="1.30872">
        <ele>175.8</ele>
        <time>2022-10-26T15:43:10Z</time>
      </trkpt>
      <trkpt lat="43.60026" lon="1.30878">
        <ele>175.8</ele>
        <time>2022-10-26T15:43:11Z</time>
      </trkpt>
      <trkpt lat="43.60024" lon="1.30888">
        <ele>175.8</ele>
        <time>2022-10-26T15:43:12Z</time>
      </trkpt>
      <trkpt lat="43.60023" lon="1.30896">
        <ele>175.8</ele>
        <time>2022-10-26T15:43:13Z</time>
      </trkpt>
      <trkpt lat="43.60022" lon="1.30902">
        <ele>175.8</ele>
        <time>2022-10-26T15:43:14Z</time>
      </trkpt>
      <trkpt lat="43.6002" lon="1.3091">
        <ele>175.8</ele>
        <time>2022-10-26T15:43:15Z</time>
      </trkpt>
      <trkpt lat="43.60018" lon="1.3092">
        <ele>175.8</ele>
        <time>2022-10-26T15:43:16Z</time>
      </trkpt>
      <trkpt lat="43.60017" lon="1.30928">
        <ele>175.8</ele>
        <time>2022-10-26T15:43:17Z</time>
      </trkpt>
      <trkpt lat="43.60015" lon="1.30936">
        <ele>175.8</ele>
        <time>2022-10-26T15:43:18Z</time>
      </trkpt>
      <trkpt lat="43.60014" lon="1.30944">
        <ele>175.8</ele>
        <time>2022-10-26T15:43:19Z</time>
      </trkpt>
      <trkpt lat="43.60013" lon="1.30951">
        <ele>175.8</ele>
        <time>2022-10-26T15:43:20Z</time>
      </trkpt>
      <trkpt lat="43.60011" lon="1.30961">
        <ele>175.8</ele>
        <time>2022-10-26T15:43:21Z</time>
      </trkpt>
      <trkpt lat="43.60009" lon="1.30969">
        <ele>175.8</ele>
        <time>2022-10-26T15:43:22Z</time>
      </trkpt>
      <trkpt lat="43.60007" lon="1.30977">
        <ele>175.8</ele>
        <time>2022-10-26T15:43:23Z</time>
      </trkpt>
      <trkpt lat="43.60006" lon="1.30984">
        <ele>175.8</ele>
        <time>2022-10-26T15:43:24Z</time>
      </trkpt>
      <trkpt lat="43.60005" lon="1.30993">
        <ele>175.8</ele>
        <time>2022-10-26T15:43:25Z</time>
      </trkpt>
      <trkpt lat="43.60003" lon="1.31003">
        <ele>175.8</ele>
        <time>2022-10-26T15:43:26Z</time>
      </trkpt>
      <trkpt lat="43.60001" lon="1.31011">
        <ele>175.8</ele>
        <time>2022-10-26T15:43:27Z</time>
      </trkpt>
      <trkpt lat="43.6" lon="1.3102">
        <ele>175.8</ele>
        <time>2022-10-26T15:43:28Z</time>
      </trkpt>
      <trkpt lat="43.59998" lon="1.31027">
        <ele>175.8</ele>
        <time>2022-10-26T15:43:29Z</time>
      </trkpt>
      <trkpt lat="43.59996" lon="1.31038">
        <ele>175.8</ele>
        <time>2022-10-26T15:43:30Z</time>
      </trkpt>
      <trkpt lat="43.59995" lon="1.31046">
        <ele>175.8</ele>
        <time>2022-10-26T15:43:31Z</time>
      </trkpt>
      <trkpt lat="43.59994" lon="1.31055">
        <ele>175.8</ele>
        <time>2022-10-26T15:43:32Z</time>
      </trkpt>
      <trkpt lat="43.59992" lon="1.31064">
        <ele>175.8</ele>
        <time>2022-10-26T15:43:33Z</time>
      </trkpt>
      <trkpt lat="43.59991" lon="1.31071">
        <ele>175.8</ele>
        <time>2022-10-26T15:43:34Z</time>
      </trkpt>
      <trkpt lat="43.59989" lon="1.31081">
        <ele>175.6</ele>
        <time>2022-10-26T15:43:35Z</time>
      </trkpt>
      <trkpt lat="43.59987" lon="1.31089">
        <ele>175.6</ele>
        <time>2022-10-26T15:43:36Z</time>
      </trkpt>
      <trkpt lat="43.59986" lon="1.31098">
        <ele>175.6</ele>
        <time>2022-10-26T15:43:37Z</time>
      </trkpt>
      <trkpt lat="43.59984" lon="1.31105">
        <ele>175.6</ele>
        <time>2022-10-26T15:43:38Z</time>
      </trkpt>
      <trkpt lat="43.59983" lon="1.31113">
        <ele>175.6</ele>
        <time>2022-10-26T15:43:39Z</time>
      </trkpt>
      <trkpt lat="43.59981" lon="1.31124">
        <ele>175.4</ele>
        <time>2022-10-26T15:43:40Z</time>
      </trkpt>
      <trkpt lat="43.59979" lon="1.31133">
        <ele>175.4</ele>
        <time>2022-10-26T15:43:41Z</time>
      </trkpt>
      <trkpt lat="43.59978" lon="1.31142">
        <ele>175.4</ele>
        <time>2022-10-26T15:43:42Z</time>
      </trkpt>
      <trkpt lat="43.59977" lon="1.31148">
        <ele>175.4</ele>
        <time>2022-10-26T15:43:43Z</time>
      </trkpt>
      <trkpt lat="43.59975" lon="1.31157">
        <ele>175.4</ele>
        <time>2022-10-26T15:43:44Z</time>
      </trkpt>
      <trkpt lat="43.59973" lon="1.31167">
        <ele>175.2</ele>
        <time>2022-10-26T15:43:45Z</time>
      </trkpt>
      <trkpt lat="43.59971" lon="1.31176">
        <ele>175.2</ele>
        <time>2022-10-26T15:43:46Z</time>
      </trkpt>
      <trkpt lat="43.59969" lon="1.31184">
        <ele>175.2</ele>
        <time>2022-10-26T15:43:47Z</time>
      </trkpt>
      <trkpt lat="43.59965" lon="1.3119">
        <ele>175.2</ele>
        <time>2022-10-26T15:43:48Z</time>
      </trkpt>
      <trkpt lat="43.59961" lon="1.31194">
        <ele>175.2</ele>
        <time>2022-10-26T15:43:49Z</time>
      </trkpt>
      <trkpt lat="43.59954" lon="1.31198">
        <ele>175.2</ele>
        <time>2022-10-26T15:43:50Z</time>
      </trkpt>
      <trkpt lat="43.59948" lon="1.31199">
        <ele>175.2</ele>
        <time>2022-10-26T15:43:51Z</time>
      </trkpt>
      <trkpt lat="43.59941" lon="1.31198">
        <ele>175</ele>
        <time>2022-10-26T15:43:52Z</time>
      </trkpt>
      <trkpt lat="43.59936" lon="1.31196">
        <ele>175</ele>
        <time>2022-10-26T15:43:53Z</time>
      </trkpt>
      <trkpt lat="43.59929" lon="1.31191">
        <ele>175</ele>
        <time>2022-10-26T15:43:54Z</time>
      </trkpt>
      <trkpt lat="43.59923" lon="1.31185">
        <ele>175</ele>
        <time>2022-10-26T15:43:55Z</time>
      </trkpt>
      <trkpt lat="43.59918" lon="1.3118">
        <ele>175</ele>
        <time>2022-10-26T15:43:56Z</time>
      </trkpt>
      <trkpt lat="43.59913" lon="1.31176">
        <ele>175</ele>
        <time>2022-10-26T15:43:57Z</time>
      </trkpt>
      <trkpt lat="43.59908" lon="1.31171">
        <ele>175</ele>
        <time>2022-10-26T15:43:58Z</time>
      </trkpt>
      <trkpt lat="43.59901" lon="1.31164">
        <ele>175</ele>
        <time>2022-10-26T15:43:59Z</time>
      </trkpt>
      <trkpt lat="43.59896" lon="1.31159">
        <ele>175</ele>
        <time>2022-10-26T15:44:00Z</time>
      </trkpt>
      <trkpt lat="43.59891" lon="1.31154">
        <ele>175</ele>
        <time>2022-10-26T15:44:01Z</time>
      </trkpt>
      <trkpt lat="43.59887" lon="1.3115">
        <ele>175</ele>
        <time>2022-10-26T15:44:02Z</time>
      </trkpt>
      <trkpt lat="43.59881" lon="1.31144">
        <ele>175</ele>
        <time>2022-10-26T15:44:03Z</time>
      </trkpt>
      <trkpt lat="43.59875" lon="1.31138">
        <ele>175</ele>
        <time>2022-10-26T15:44:04Z</time>
      </trkpt>
      <trkpt lat="43.5987" lon="1.31133">
        <ele>175</ele>
        <time>2022-10-26T15:44:05Z</time>
      </trkpt>
      <trkpt lat="43.59865" lon="1.31128">
        <ele>175</ele>
        <time>2022-10-26T15:44:06Z</time>
      </trkpt>
      <trkpt lat="43.5986" lon="1.31123">
        <ele>175</ele>
        <time>2022-10-26T15:44:07Z</time>
      </trkpt>
      <trkpt lat="43.59855" lon="1.31118">
        <ele>175</ele>
        <time>2022-10-26T15:44:08Z</time>
      </trkpt>
      <trkpt lat="43.5985" lon="1.31112">
        <ele>175</ele>
        <time>2022-10-26T15:44:09Z</time>
      </trkpt>
      <trkpt lat="43.59845" lon="1.31107">
        <ele>175</ele>
        <time>2022-10-26T15:44:10Z</time>
      </trkpt>
      <trkpt lat="43.59841" lon="1.31103">
        <ele>175</ele>
        <time>2022-10-26T15:44:11Z</time>
      </trkpt>
      <trkpt lat="43.59836" lon="1.31098">
        <ele>175</ele>
        <time>2022-10-26T15:44:12Z</time>
      </trkpt>
      <trkpt lat="43.59829" lon="1.31091">
        <ele>175</ele>
        <time>2022-10-26T15:44:13Z</time>
      </trkpt>
      <trkpt lat="43.59824" lon="1.31086">
        <ele>175</ele>
        <time>2022-10-26T15:44:14Z</time>
      </trkpt>
      <trkpt lat="43.59819" lon="1.31081">
        <ele>175</ele>
        <time>2022-10-26T15:44:15Z</time>
      </trkpt>
      <trkpt lat="43.59815" lon="1.31077">
        <ele>175</ele>
        <time>2022-10-26T15:44:16Z</time>
      </trkpt>
      <trkpt lat="43.59809" lon="1.3107">
        <ele>175</ele>
        <time>2022-10-26T15:44:17Z</time>
      </trkpt>
      <trkpt lat="43.59803" lon="1.31065">
        <ele>175</ele>
        <time>2022-10-26T15:44:18Z</time>
      </trkpt>
      <trkpt lat="43.59798" lon="1.3106">
        <ele>175</ele>
        <time>2022-10-26T15:44:19Z</time>
      </trkpt>
      <trkpt lat="43.59793" lon="1.31055">
        <ele>175</ele>
        <time>2022-10-26T15:44:20Z</time>
      </trkpt>
      <trkpt lat="43.59789" lon="1.3105">
        <ele>175</ele>
        <time>2022-10-26T15:44:21Z</time>
      </trkpt>
      <trkpt lat="43.59783" lon="1.31045">
        <ele>175</ele>
        <time>2022-10-26T15:44:22Z</time>
      </trkpt>
      <trkpt lat="43.59777" lon="1.31039">
        <ele>175</ele>
        <time>2022-10-26T15:44:23Z</time>
      </trkpt>
      <trkpt lat="43.59772" lon="1.31034">
        <ele>175.2</ele>
        <time>2022-10-26T15:44:24Z</time>
      </trkpt>
      <trkpt lat="43.59766" lon="1.31028">
        <ele>175.2</ele>
        <time>2022-10-26T15:44:25Z</time>
      </trkpt>
      <trkpt lat="43.59761" lon="1.31023">
        <ele>175.2</ele>
        <time>2022-10-26T15:44:26Z</time>
      </trkpt>
      <trkpt lat="43.59756" lon="1.31018">
        <ele>175.2</ele>
        <time>2022-10-26T15:44:27Z</time>
      </trkpt>
      <trkpt lat="43.5975" lon="1.31012">
        <ele>175.2</ele>
        <time>2022-10-26T15:44:28Z</time>
      </trkpt>
      <trkpt lat="43.59745" lon="1.31007">
        <ele>175.2</ele>
        <time>2022-10-26T15:44:29Z</time>
      </trkpt>
      <trkpt lat="43.5974" lon="1.31002">
        <ele>175.2</ele>
        <time>2022-10-26T15:44:30Z</time>
      </trkpt>
      <trkpt lat="43.59735" lon="1.30999">
        <ele>175.2</ele>
        <time>2022-10-26T15:44:31Z</time>
      </trkpt>
      <trkpt lat="43.59729" lon="1.30993">
        <ele>175.2</ele>
        <time>2022-10-26T15:44:32Z</time>
      </trkpt>
      <trkpt lat="43.59723" lon="1.30988">
        <ele>175.2</ele>
        <time>2022-10-26T15:44:33Z</time>
      </trkpt>
      <trkpt lat="43.59718" lon="1.30983">
        <ele>175.2</ele>
        <time>2022-10-26T15:44:34Z</time>
      </trkpt>
      <trkpt lat="43.59713" lon="1.30978">
        <ele>175.2</ele>
        <time>2022-10-26T15:44:35Z</time>
      </trkpt>
      <trkpt lat="43.59708" lon="1.30973">
        <ele>175.2</ele>
        <time>2022-10-26T15:44:36Z</time>
      </trkpt>
      <trkpt lat="43.59703" lon="1.30968">
        <ele>175.2</ele>
        <time>2022-10-26T15:44:37Z</time>
      </trkpt>
      <trkpt lat="43.59697" lon="1.30963">
        <ele>175.2</ele>
        <time>2022-10-26T15:44:38Z</time>
      </trkpt>
      <trkpt lat="43.59692" lon="1.30958">
        <ele>175.2</ele>
        <time>2022-10-26T15:44:39Z</time>
      </trkpt>
      <trkpt lat="43.59687" lon="1.30954">
        <ele>175.4</ele>
        <time>2022-10-26T15:44:40Z</time>
      </trkpt>
      <trkpt lat="43.59681" lon="1.30948">
        <ele>175.4</ele>
        <time>2022-10-26T15:44:41Z</time>
      </trkpt>
      <trkpt lat="43.59676" lon="1.30943">
        <ele>175.4</ele>
        <time>2022-10-26T15:44:42Z</time>
      </trkpt>
      <trkpt lat="43.59671" lon="1.30938">
        <ele>175.4</ele>
        <time>2022-10-26T15:44:43Z</time>
      </trkpt>
      <trkpt lat="43.59665" lon="1.30934">
        <ele>175.4</ele>
        <time>2022-10-26T15:44:44Z</time>
      </trkpt>
      <trkpt lat="43.5966" lon="1.30931">
        <ele>175.4</ele>
        <time>2022-10-26T15:44:45Z</time>
      </trkpt>
      <trkpt lat="43.59653" lon="1.30927">
        <ele>175.4</ele>
        <time>2022-10-26T15:44:46Z</time>
      </trkpt>
      <trkpt lat="43.59647" lon="1.30925">
        <ele>175.6</ele>
        <time>2022-10-26T15:44:47Z</time>
      </trkpt>
      <trkpt lat="43.5964" lon="1.30924">
        <ele>175.6</ele>
        <time>2022-10-26T15:44:48Z</time>
      </trkpt>
      <trkpt lat="43.59635" lon="1.30923">
        <ele>175.6</ele>
        <time>2022-10-26T15:44:49Z</time>
      </trkpt>
      <trkpt lat="43.59627" lon="1.30921">
        <ele>175.6</ele>
        <time>2022-10-26T15:44:50Z</time>
      </trkpt>
      <trkpt lat="43.5962" lon="1.3092">
        <ele>175.6</ele>
        <time>2022-10-26T15:44:51Z</time>
      </trkpt>
      <trkpt lat="43.59613" lon="1.30919">
        <ele>175.6</ele>
        <time>2022-10-26T15:44:52Z</time>
      </trkpt>
      <trkpt lat="43.59606" lon="1.30918">
        <ele>175.6</ele>
        <time>2022-10-26T15:44:53Z</time>
      </trkpt>
      <trkpt lat="43.59601" lon="1.30917">
        <ele>175.6</ele>
        <time>2022-10-26T15:44:54Z</time>
      </trkpt>
      <trkpt lat="43.59594" lon="1.30916">
        <ele>175.6</ele>
        <time>2022-10-26T15:44:55Z</time>
      </trkpt>
      <trkpt lat="43.59586" lon="1.30915">
        <ele>175.6</ele>
        <time>2022-10-26T15:44:56Z</time>
      </trkpt>
      <trkpt lat="43.59579" lon="1.30914">
        <ele>175.6</ele>
        <time>2022-10-26T15:44:57Z</time>
      </trkpt>
      <trkpt lat="43.59573" lon="1.30913">
        <ele>175.6</ele>
        <time>2022-10-26T15:44:58Z</time>
      </trkpt>
      <trkpt lat="43.59568" lon="1.30912">
        <ele>175.6</ele>
        <time>2022-10-26T15:44:59Z</time>
      </trkpt>
      <trkpt lat="43.5956" lon="1.30911">
        <ele>175.4</ele>
        <time>2022-10-26T15:45:00Z</time>
      </trkpt>
      <trkpt lat="43.59554" lon="1.3091">
        <ele>175.4</ele>
        <time>2022-10-26T15:45:01Z</time>
      </trkpt>
      <trkpt lat="43.5955" lon="1.30909">
        <ele>175.4</ele>
        <time>2022-10-26T15:45:02Z</time>
      </trkpt>
      <trkpt lat="43.59544" lon="1.30908">
        <ele>175.4</ele>
        <time>2022-10-26T15:45:03Z</time>
      </trkpt>
      <trkpt lat="43.59536" lon="1.30906">
        <ele>175.4</ele>
        <time>2022-10-26T15:45:04Z</time>
      </trkpt>
      <trkpt lat="43.5953" lon="1.30905">
        <ele>175.4</ele>
        <time>2022-10-26T15:45:05Z</time>
      </trkpt>
      <trkpt lat="43.59525" lon="1.30904">
        <ele>175.4</ele>
        <time>2022-10-26T15:45:06Z</time>
      </trkpt>
      <trkpt lat="43.59519" lon="1.30903">
        <ele>175.4</ele>
        <time>2022-10-26T15:45:07Z</time>
      </trkpt>
      <trkpt lat="43.59514" lon="1.30902">
        <ele>175.4</ele>
        <time>2022-10-26T15:45:08Z</time>
      </trkpt>
      <trkpt lat="43.5951" lon="1.30901">
        <ele>175.4</ele>
        <time>2022-10-26T15:45:09Z</time>
      </trkpt>
      <trkpt lat="43.59506" lon="1.309">
        <ele>175.4</ele>
        <time>2022-10-26T15:45:10Z</time>
      </trkpt>
      <trkpt lat="43.59503" lon="1.309">
        <ele>175.4</ele>
        <time>2022-10-26T15:45:11Z</time>
      </trkpt>
      <trkpt lat="43.595" lon="1.309">
        <ele>175.4</ele>
        <time>2022-10-26T15:45:12Z</time>
      </trkpt>
      <trkpt lat="43.59496" lon="1.309">
        <ele>175.4</ele>
        <time>2022-10-26T15:45:13Z</time>
      </trkpt>
      <trkpt lat="43.59495" lon="1.30903">
        <ele>175.4</ele>
        <time>2022-10-26T15:45:14Z</time>
      </trkpt>
      <trkpt lat="43.59495" lon="1.30906">
        <ele>175.4</ele>
        <time>2022-10-26T15:45:15Z</time>
      </trkpt>
      <trkpt lat="43.59497" lon="1.30908">
        <ele>175.4</ele>
        <time>2022-10-26T15:45:16Z</time>
      </trkpt>
      <trkpt lat="43.595" lon="1.3091">
        <ele>175.4</ele>
        <time>2022-10-26T15:45:17Z</time>
      </trkpt>
      <trkpt lat="43.59503" lon="1.30913">
        <ele>175.4</ele>
        <time>2022-10-26T15:45:18Z</time>
      </trkpt>
      <trkpt lat="43.59504" lon="1.30917">
        <ele>175.4</ele>
        <time>2022-10-26T15:45:19Z</time>
      </trkpt>
      <trkpt lat="43.59505" lon="1.30921">
        <ele>175.4</ele>
        <time>2022-10-26T15:45:20Z</time>
      </trkpt>
      <trkpt lat="43.59505" lon="1.30927">
        <ele>175.4</ele>
        <time>2022-10-26T15:45:21Z</time>
      </trkpt>
      <trkpt lat="43.59505" lon="1.30933">
        <ele>175.6</ele>
        <time>2022-10-26T15:45:22Z</time>
      </trkpt>
      <trkpt lat="43.59505" lon="1.30939">
        <ele>175.6</ele>
        <time>2022-10-26T15:45:23Z</time>
      </trkpt>
      <trkpt lat="43.59505" lon="1.30946">
        <ele>175.6</ele>
        <time>2022-10-26T15:45:24Z</time>
      </trkpt>
      <trkpt lat="43.59505" lon="1.30952">
        <ele>175.6</ele>
        <time>2022-10-26T15:45:25Z</time>
      </trkpt>
      <trkpt lat="43.59505" lon="1.30959">
        <ele>175.6</ele>
        <time>2022-10-26T15:45:26Z</time>
      </trkpt>
      <trkpt lat="43.59505" lon="1.30966">
        <ele>175.6</ele>
        <time>2022-10-26T15:45:27Z</time>
      </trkpt>
      <trkpt lat="43.59505" lon="1.30973">
        <ele>175.6</ele>
        <time>2022-10-26T15:45:28Z</time>
      </trkpt>
      <trkpt lat="43.59505" lon="1.30981">
        <ele>175.6</ele>
        <time>2022-10-26T15:45:29Z</time>
      </trkpt>
      <trkpt lat="43.59504" lon="1.30988">
        <ele>175.6</ele>
        <time>2022-10-26T15:45:30Z</time>
      </trkpt>
      <trkpt lat="43.59504" lon="1.30995">
        <ele>175.6</ele>
        <time>2022-10-26T15:45:31Z</time>
      </trkpt>
      <trkpt lat="43.59503" lon="1.31002">
        <ele>175.6</ele>
        <time>2022-10-26T15:45:32Z</time>
      </trkpt>
      <trkpt lat="43.59501" lon="1.31009">
        <ele>175.6</ele>
        <time>2022-10-26T15:45:33Z</time>
      </trkpt>
      <trkpt lat="43.595" lon="1.31016">
        <ele>175.6</ele>
        <time>2022-10-26T15:45:34Z</time>
      </trkpt>
      <trkpt lat="43.59499" lon="1.31023">
        <ele>175.6</ele>
        <time>2022-10-26T15:45:35Z</time>
      </trkpt>
      <trkpt lat="43.59498" lon="1.31031">
        <ele>175.8</ele>
        <time>2022-10-26T15:45:36Z</time>
      </trkpt>
      <trkpt lat="43.59498" lon="1.31038">
        <ele>175.8</ele>
        <time>2022-10-26T15:45:37Z</time>
      </trkpt>
      <trkpt lat="43.59497" lon="1.31047">
        <ele>176.2</ele>
        <time>2022-10-26T15:45:38Z</time>
      </trkpt>
      <trkpt lat="43.59497" lon="1.31055">
        <ele>176.2</ele>
        <time>2022-10-26T15:45:39Z</time>
      </trkpt>
      <trkpt lat="43.59496" lon="1.31063">
        <ele>176.4</ele>
        <time>2022-10-26T15:45:40Z</time>
      </trkpt>
      <trkpt lat="43.59496" lon="1.31071">
        <ele>176.4</ele>
        <time>2022-10-26T15:45:41Z</time>
      </trkpt>
      <trkpt lat="43.59496" lon="1.31079">
        <ele>176.4</ele>
        <time>2022-10-26T15:45:42Z</time>
      </trkpt>
      <trkpt lat="43.59496" lon="1.31087">
        <ele>176.4</ele>
        <time>2022-10-26T15:45:43Z</time>
      </trkpt>
      <trkpt lat="43.59496" lon="1.31096">
        <ele>176.4</ele>
        <time>2022-10-26T15:45:44Z</time>
      </trkpt>
      <trkpt lat="43.59495" lon="1.31104">
        <ele>176.4</ele>
        <time>2022-10-26T15:45:45Z</time>
      </trkpt>
      <trkpt lat="43.59495" lon="1.31113">
        <ele>176.4</ele>
        <time>2022-10-26T15:45:46Z</time>
      </trkpt>
      <trkpt lat="43.59495" lon="1.31121">
        <ele>176.4</ele>
        <time>2022-10-26T15:45:47Z</time>
      </trkpt>
      <trkpt lat="43.59495" lon="1.3113">
        <ele>176.4</ele>
        <time>2022-10-26T15:45:48Z</time>
      </trkpt>
      <trkpt lat="43.59495" lon="1.31138">
        <ele>176.4</ele>
        <time>2022-10-26T15:45:49Z</time>
      </trkpt>
      <trkpt lat="43.59495" lon="1.31147">
        <ele>176.4</ele>
        <time>2022-10-26T15:45:50Z</time>
      </trkpt>
      <trkpt lat="43.59495" lon="1.31155">
        <ele>176.4</ele>
        <time>2022-10-26T15:45:51Z</time>
      </trkpt>
      <trkpt lat="43.59495" lon="1.31164">
        <ele>176.4</ele>
        <time>2022-10-26T15:45:52Z</time>
      </trkpt>
      <trkpt lat="43.59495" lon="1.31172">
        <ele>176.4</ele>
        <time>2022-10-26T15:45:53Z</time>
      </trkpt>
      <trkpt lat="43.59494" lon="1.31181">
        <ele>176.4</ele>
        <time>2022-10-26T15:45:54Z</time>
      </trkpt>
      <trkpt lat="43.59494" lon="1.3119">
        <ele>176.4</ele>
        <time>2022-10-26T15:45:55Z</time>
      </trkpt>
      <trkpt lat="43.59494" lon="1.31199">
        <ele>176.4</ele>
        <time>2022-10-26T15:45:56Z</time>
      </trkpt>
      <trkpt lat="43.59494" lon="1.31208">
        <ele>176.4</ele>
        <time>2022-10-26T15:45:57Z</time>
      </trkpt>
      <trkpt lat="43.59493" lon="1.31216">
        <ele>176.6</ele>
        <time>2022-10-26T15:45:58Z</time>
      </trkpt>
      <trkpt lat="43.59493" lon="1.31225">
        <ele>176.6</ele>
        <time>2022-10-26T15:45:59Z</time>
      </trkpt>
      <trkpt lat="43.59494" lon="1.31233">
        <ele>176.8</ele>
        <time>2022-10-26T15:46:00Z</time>
      </trkpt>
      <trkpt lat="43.59493" lon="1.31242">
        <ele>177</ele>
        <time>2022-10-26T15:46:01Z</time>
      </trkpt>
      <trkpt lat="43.59493" lon="1.3125">
        <ele>177</ele>
        <time>2022-10-26T15:46:02Z</time>
      </trkpt>
      <trkpt lat="43.59493" lon="1.31258">
        <ele>177</ele>
        <time>2022-10-26T15:46:03Z</time>
      </trkpt>
      <trkpt lat="43.59493" lon="1.31266">
        <ele>177</ele>
        <time>2022-10-26T15:46:04Z</time>
      </trkpt>
      <trkpt lat="43.59492" lon="1.31275">
        <ele>176.8</ele>
        <time>2022-10-26T15:46:05Z</time>
      </trkpt>
      <trkpt lat="43.59492" lon="1.31283">
        <ele>176.8</ele>
        <time>2022-10-26T15:46:06Z</time>
      </trkpt>
      <trkpt lat="43.59492" lon="1.31291">
        <ele>176.6</ele>
        <time>2022-10-26T15:46:07Z</time>
      </trkpt>
      <trkpt lat="43.59492" lon="1.313">
        <ele>176.6</ele>
        <time>2022-10-26T15:46:08Z</time>
      </trkpt>
      <trkpt lat="43.59491" lon="1.31308">
        <ele>176.4</ele>
        <time>2022-10-26T15:46:09Z</time>
      </trkpt>
      <trkpt lat="43.59491" lon="1.31317">
        <ele>176.4</ele>
        <time>2022-10-26T15:46:10Z</time>
      </trkpt>
      <trkpt lat="43.59491" lon="1.31325">
        <ele>176.4</ele>
        <time>2022-10-26T15:46:11Z</time>
      </trkpt>
      <trkpt lat="43.59491" lon="1.31333">
        <ele>176.4</ele>
        <time>2022-10-26T15:46:12Z</time>
      </trkpt>
      <trkpt lat="43.59491" lon="1.31342">
        <ele>176.4</ele>
        <time>2022-10-26T15:46:13Z</time>
      </trkpt>
      <trkpt lat="43.59491" lon="1.31349">
        <ele>176.4</ele>
        <time>2022-10-26T15:46:14Z</time>
      </trkpt>
      <trkpt lat="43.59491" lon="1.31359">
        <ele>176.4</ele>
        <time>2022-10-26T15:46:15Z</time>
      </trkpt>
      <trkpt lat="43.59491" lon="1.31365">
        <ele>176.4</ele>
        <time>2022-10-26T15:46:16Z</time>
      </trkpt>
      <trkpt lat="43.59491" lon="1.31373">
        <ele>176.4</ele>
        <time>2022-10-26T15:46:17Z</time>
      </trkpt>
      <trkpt lat="43.59491" lon="1.31383">
        <ele>176.4</ele>
        <time>2022-10-26T15:46:18Z</time>
      </trkpt>
      <trkpt lat="43.59491" lon="1.31391">
        <ele>176.4</ele>
        <time>2022-10-26T15:46:19Z</time>
      </trkpt>
      <trkpt lat="43.59491" lon="1.31398">
        <ele>176.4</ele>
        <time>2022-10-26T15:46:20Z</time>
      </trkpt>
      <trkpt lat="43.59491" lon="1.31406">
        <ele>176.4</ele>
        <time>2022-10-26T15:46:21Z</time>
      </trkpt>
      <trkpt lat="43.59491" lon="1.31414">
        <ele>176.4</ele>
        <time>2022-10-26T15:46:22Z</time>
      </trkpt>
      <trkpt lat="43.59491" lon="1.31424">
        <ele>176.4</ele>
        <time>2022-10-26T15:46:23Z</time>
      </trkpt>
      <trkpt lat="43.5949" lon="1.3143">
        <ele>176.4</ele>
        <time>2022-10-26T15:46:24Z</time>
      </trkpt>
      <trkpt lat="43.59489" lon="1.31437">
        <ele>176.4</ele>
        <time>2022-10-26T15:46:25Z</time>
      </trkpt>
      <trkpt lat="43.59486" lon="1.31443">
        <ele>176.4</ele>
        <time>2022-10-26T15:46:26Z</time>
      </trkpt>
      <trkpt lat="43.59482" lon="1.31448">
        <ele>176.4</ele>
        <time>2022-10-26T15:46:27Z</time>
      </trkpt>
      <trkpt lat="43.59477" lon="1.31451">
        <ele>176.2</ele>
        <time>2022-10-26T15:46:28Z</time>
      </trkpt>
      <trkpt lat="43.5947" lon="1.31453">
        <ele>176.2</ele>
        <time>2022-10-26T15:46:29Z</time>
      </trkpt>
      <trkpt lat="43.59466" lon="1.31454">
        <ele>176.2</ele>
        <time>2022-10-26T15:46:30Z</time>
      </trkpt>
      <trkpt lat="43.59461" lon="1.31455">
        <ele>176.2</ele>
        <time>2022-10-26T15:46:31Z</time>
      </trkpt>
      <trkpt lat="43.59456" lon="1.31457">
        <ele>176.2</ele>
        <time>2022-10-26T15:46:32Z</time>
      </trkpt>
      <trkpt lat="43.59452" lon="1.31459">
        <ele>176</ele>
        <time>2022-10-26T15:46:33Z</time>
      </trkpt>
      <trkpt lat="43.59449" lon="1.31462">
        <ele>176</ele>
        <time>2022-10-26T15:46:34Z</time>
      </trkpt>
      <trkpt lat="43.59448" lon="1.31463">
        <ele>176</ele>
        <time>2022-10-26T15:46:35Z</time>
      </trkpt>
      <trkpt lat="43.59446" lon="1.31463">
        <ele>175.8</ele>
        <time>2022-10-26T15:46:36Z</time>
      </trkpt>
      <trkpt lat="43.59444" lon="1.31462">
        <ele>175.8</ele>
        <time>2022-10-26T15:46:37Z</time>
      </trkpt>
      <trkpt lat="43.59442" lon="1.31462">
        <ele>175.6</ele>
        <time>2022-10-26T15:46:38Z</time>
      </trkpt>
      <trkpt lat="43.59439" lon="1.31462">
        <ele>175.6</ele>
        <time>2022-10-26T15:46:39Z</time>
      </trkpt>
      <trkpt lat="43.59436" lon="1.31464">
        <ele>175.6</ele>
        <time>2022-10-26T15:46:40Z</time>
      </trkpt>
      <trkpt lat="43.59433" lon="1.31466">
        <ele>175.6</ele>
        <time>2022-10-26T15:46:41Z</time>
      </trkpt>
      <trkpt lat="43.59429" lon="1.31468">
        <ele>175.4</ele>
        <time>2022-10-26T15:46:42Z</time>
      </trkpt>
      <trkpt lat="43.59425" lon="1.3147">
        <ele>175.4</ele>
        <time>2022-10-26T15:46:43Z</time>
      </trkpt>
      <trkpt lat="43.59421" lon="1.31472">
        <ele>175.4</ele>
        <time>2022-10-26T15:46:44Z</time>
      </trkpt>
      <trkpt lat="43.59417" lon="1.31474">
        <ele>175.4</ele>
        <time>2022-10-26T15:46:45Z</time>
      </trkpt>
      <trkpt lat="43.59412" lon="1.31475">
        <ele>175.4</ele>
        <time>2022-10-26T15:46:46Z</time>
      </trkpt>
      <trkpt lat="43.59407" lon="1.31477">
        <ele>175.2</ele>
        <time>2022-10-26T15:46:47Z</time>
      </trkpt>
      <trkpt lat="43.59402" lon="1.3148">
        <ele>175.2</ele>
        <time>2022-10-26T15:46:48Z</time>
      </trkpt>
      <trkpt lat="43.59397" lon="1.31483">
        <ele>175.2</ele>
        <time>2022-10-26T15:46:49Z</time>
      </trkpt>
      <trkpt lat="43.59392" lon="1.31485">
        <ele>175.2</ele>
        <time>2022-10-26T15:46:50Z</time>
      </trkpt>
      <trkpt lat="43.59387" lon="1.31487">
        <ele>175.2</ele>
        <time>2022-10-26T15:46:51Z</time>
      </trkpt>
      <trkpt lat="43.59382" lon="1.3149">
        <ele>175.2</ele>
        <time>2022-10-26T15:46:52Z</time>
      </trkpt>
      <trkpt lat="43.59375" lon="1.31493">
        <ele>175.2</ele>
        <time>2022-10-26T15:46:53Z</time>
      </trkpt>
      <trkpt lat="43.59371" lon="1.31495">
        <ele>175.4</ele>
        <time>2022-10-26T15:46:54Z</time>
      </trkpt>
      <trkpt lat="43.59366" lon="1.31497">
        <ele>175.4</ele>
        <time>2022-10-26T15:46:55Z</time>
      </trkpt>
      <trkpt lat="43.59361" lon="1.31499">
        <ele>175.4</ele>
        <time>2022-10-26T15:46:56Z</time>
      </trkpt>
      <trkpt lat="43.59356" lon="1.31502">
        <ele>175.4</ele>
        <time>2022-10-26T15:46:57Z</time>
      </trkpt>
      <trkpt lat="43.59351" lon="1.31504">
        <ele>175.4</ele>
        <time>2022-10-26T15:46:58Z</time>
      </trkpt>
      <trkpt lat="43.59346" lon="1.31507">
        <ele>175.4</ele>
        <time>2022-10-26T15:46:59Z</time>
      </trkpt>
      <trkpt lat="43.59341" lon="1.31509">
        <ele>175.4</ele>
        <time>2022-10-26T15:47:00Z</time>
      </trkpt>
      <trkpt lat="43.59336" lon="1.31511">
        <ele>175.6</ele>
        <time>2022-10-26T15:47:01Z</time>
      </trkpt>
      <trkpt lat="43.5933" lon="1.31514">
        <ele>175.6</ele>
        <time>2022-10-26T15:47:02Z</time>
      </trkpt>
      <trkpt lat="43.59325" lon="1.31516">
        <ele>175.6</ele>
        <time>2022-10-26T15:47:03Z</time>
      </trkpt>
      <trkpt lat="43.5932" lon="1.31519">
        <ele>175.6</ele>
        <time>2022-10-26T15:47:04Z</time>
      </trkpt>
      <trkpt lat="43.59314" lon="1.31521">
        <ele>175.6</ele>
        <time>2022-10-26T15:47:05Z</time>
      </trkpt>
      <trkpt lat="43.5931" lon="1.31523">
        <ele>175.6</ele>
        <time>2022-10-26T15:47:06Z</time>
      </trkpt>
      <trkpt lat="43.59305" lon="1.31525">
        <ele>175.6</ele>
        <time>2022-10-26T15:47:07Z</time>
      </trkpt>
      <trkpt lat="43.59301" lon="1.31527">
        <ele>175.6</ele>
        <time>2022-10-26T15:47:08Z</time>
      </trkpt>
      <trkpt lat="43.59299" lon="1.31527">
        <ele>175.6</ele>
        <time>2022-10-26T15:47:09Z</time>
      </trkpt>
      <trkpt lat="43.59299" lon="1.31527">
        <ele>175.6</ele>
        <time>2022-10-26T15:47:10Z</time>
      </trkpt>
      <trkpt lat="43.59298" lon="1.31526">
        <ele>175.6</ele>
        <time>2022-10-26T15:47:11Z</time>
      </trkpt>
      <trkpt lat="43.59297" lon="1.31525">
        <ele>175.6</ele>
        <time>2022-10-26T15:47:12Z</time>
      </trkpt>
      <trkpt lat="43.59295" lon="1.31526">
        <ele>175.4</ele>
        <time>2022-10-26T15:47:13Z</time>
      </trkpt>
      <trkpt lat="43.59292" lon="1.31527">
        <ele>175.4</ele>
        <time>2022-10-26T15:47:14Z</time>
      </trkpt>
      <trkpt lat="43.5929" lon="1.3153">
        <ele>175.4</ele>
        <time>2022-10-26T15:47:15Z</time>
      </trkpt>
      <trkpt lat="43.59285" lon="1.31533">
        <ele>175.4</ele>
        <time>2022-10-26T15:47:16Z</time>
      </trkpt>
      <trkpt lat="43.59282" lon="1.31535">
        <ele>175.4</ele>
        <time>2022-10-26T15:47:17Z</time>
      </trkpt>
      <trkpt lat="43.59278" lon="1.31538">
        <ele>175.4</ele>
        <time>2022-10-26T15:47:18Z</time>
      </trkpt>
      <trkpt lat="43.59272" lon="1.3154">
        <ele>175.4</ele>
        <time>2022-10-26T15:47:19Z</time>
      </trkpt>
      <trkpt lat="43.59268" lon="1.31542">
        <ele>175.4</ele>
        <time>2022-10-26T15:47:20Z</time>
      </trkpt>
      <trkpt lat="43.59264" lon="1.31544">
        <ele>175.4</ele>
        <time>2022-10-26T15:47:21Z</time>
      </trkpt>
      <trkpt lat="43.59259" lon="1.31546">
        <ele>175.4</ele>
        <time>2022-10-26T15:47:22Z</time>
      </trkpt>
      <trkpt lat="43.59254" lon="1.31549">
        <ele>175.4</ele>
        <time>2022-10-26T15:47:23Z</time>
      </trkpt>
      <trkpt lat="43.59247" lon="1.31552">
        <ele>175.4</ele>
        <time>2022-10-26T15:47:24Z</time>
      </trkpt>
      <trkpt lat="43.59243" lon="1.31554">
        <ele>175.4</ele>
        <time>2022-10-26T15:47:25Z</time>
      </trkpt>
      <trkpt lat="43.59238" lon="1.31557">
        <ele>175.4</ele>
        <time>2022-10-26T15:47:26Z</time>
      </trkpt>
      <trkpt lat="43.59232" lon="1.3156">
        <ele>175.4</ele>
        <time>2022-10-26T15:47:27Z</time>
      </trkpt>
      <trkpt lat="43.59227" lon="1.31563">
        <ele>175.4</ele>
        <time>2022-10-26T15:47:28Z</time>
      </trkpt>
      <trkpt lat="43.59222" lon="1.31566">
        <ele>175.4</ele>
        <time>2022-10-26T15:47:29Z</time>
      </trkpt>
      <trkpt lat="43.59216" lon="1.3157">
        <ele>175.4</ele>
        <time>2022-10-26T15:47:30Z</time>
      </trkpt>
      <trkpt lat="43.59212" lon="1.31572">
        <ele>175.4</ele>
        <time>2022-10-26T15:47:31Z</time>
      </trkpt>
      <trkpt lat="43.59206" lon="1.31575">
        <ele>175.4</ele>
        <time>2022-10-26T15:47:32Z</time>
      </trkpt>
      <trkpt lat="43.59201" lon="1.31578">
        <ele>175.4</ele>
        <time>2022-10-26T15:47:33Z</time>
      </trkpt>
      <trkpt lat="43.59195" lon="1.3158">
        <ele>175.4</ele>
        <time>2022-10-26T15:47:34Z</time>
      </trkpt>
      <trkpt lat="43.59188" lon="1.31584">
        <ele>175.4</ele>
        <time>2022-10-26T15:47:35Z</time>
      </trkpt>
      <trkpt lat="43.59184" lon="1.31587">
        <ele>175.4</ele>
        <time>2022-10-26T15:47:36Z</time>
      </trkpt>
      <trkpt lat="43.59179" lon="1.3159">
        <ele>175.4</ele>
        <time>2022-10-26T15:47:37Z</time>
      </trkpt>
      <trkpt lat="43.59172" lon="1.31594">
        <ele>175.4</ele>
        <time>2022-10-26T15:47:38Z</time>
      </trkpt>
      <trkpt lat="43.59167" lon="1.31596">
        <ele>175.4</ele>
        <time>2022-10-26T15:47:39Z</time>
      </trkpt>
      <trkpt lat="43.59161" lon="1.316">
        <ele>175.4</ele>
        <time>2022-10-26T15:47:40Z</time>
      </trkpt>
      <trkpt lat="43.59157" lon="1.31602">
        <ele>175.4</ele>
        <time>2022-10-26T15:47:41Z</time>
      </trkpt>
      <trkpt lat="43.59151" lon="1.31605">
        <ele>175.4</ele>
        <time>2022-10-26T15:47:42Z</time>
      </trkpt>
      <trkpt lat="43.59146" lon="1.31608">
        <ele>175.4</ele>
        <time>2022-10-26T15:47:43Z</time>
      </trkpt>
      <trkpt lat="43.5914" lon="1.31611">
        <ele>175.4</ele>
        <time>2022-10-26T15:47:44Z</time>
      </trkpt>
      <trkpt lat="43.59135" lon="1.31614">
        <ele>175.4</ele>
        <time>2022-10-26T15:47:45Z</time>
      </trkpt>
      <trkpt lat="43.59129" lon="1.31617">
        <ele>175.6</ele>
        <time>2022-10-26T15:47:46Z</time>
      </trkpt>
      <trkpt lat="43.59124" lon="1.3162">
        <ele>175.6</ele>
        <time>2022-10-26T15:47:47Z</time>
      </trkpt>
      <trkpt lat="43.59118" lon="1.31623">
        <ele>175.4</ele>
        <time>2022-10-26T15:47:48Z</time>
      </trkpt>
      <trkpt lat="43.59113" lon="1.31626">
        <ele>175.4</ele>
        <time>2022-10-26T15:47:49Z</time>
      </trkpt>
      <trkpt lat="43.59107" lon="1.31629">
        <ele>175.4</ele>
        <time>2022-10-26T15:47:50Z</time>
      </trkpt>
      <trkpt lat="43.59101" lon="1.31632">
        <ele>175.4</ele>
        <time>2022-10-26T15:47:51Z</time>
      </trkpt>
      <trkpt lat="43.59096" lon="1.31636">
        <ele>175.4</ele>
        <time>2022-10-26T15:47:52Z</time>
      </trkpt>
      <trkpt lat="43.59089" lon="1.3164">
        <ele>175.4</ele>
        <time>2022-10-26T15:47:53Z</time>
      </trkpt>
      <trkpt lat="43.59084" lon="1.31643">
        <ele>175.4</ele>
        <time>2022-10-26T15:47:54Z</time>
      </trkpt>
      <trkpt lat="43.59078" lon="1.31646">
        <ele>175.4</ele>
        <time>2022-10-26T15:47:55Z</time>
      </trkpt>
      <trkpt lat="43.59073" lon="1.31649">
        <ele>175.4</ele>
        <time>2022-10-26T15:47:56Z</time>
      </trkpt>
      <trkpt lat="43.59067" lon="1.31652">
        <ele>175.6</ele>
        <time>2022-10-26T15:47:57Z</time>
      </trkpt>
      <trkpt lat="43.5906" lon="1.31657">
        <ele>175.6</ele>
        <time>2022-10-26T15:47:58Z</time>
      </trkpt>
      <trkpt lat="43.59055" lon="1.31659">
        <ele>175.6</ele>
        <time>2022-10-26T15:47:59Z</time>
      </trkpt>
      <trkpt lat="43.59049" lon="1.31662">
        <ele>175.6</ele>
        <time>2022-10-26T15:48:00Z</time>
      </trkpt>
      <trkpt lat="43.59044" lon="1.31665">
        <ele>175.6</ele>
        <time>2022-10-26T15:48:01Z</time>
      </trkpt>
      <trkpt lat="43.59039" lon="1.31668">
        <ele>175.6</ele>
        <time>2022-10-26T15:48:02Z</time>
      </trkpt>
      <trkpt lat="43.59033" lon="1.31671">
        <ele>175.6</ele>
        <time>2022-10-26T15:48:03Z</time>
      </trkpt>
      <trkpt lat="43.59027" lon="1.31674">
        <ele>175.6</ele>
        <time>2022-10-26T15:48:04Z</time>
      </trkpt>
      <trkpt lat="43.59022" lon="1.31678">
        <ele>175.6</ele>
        <time>2022-10-26T15:48:05Z</time>
      </trkpt>
      <trkpt lat="43.59016" lon="1.31681">
        <ele>175.6</ele>
        <time>2022-10-26T15:48:06Z</time>
      </trkpt>
      <trkpt lat="43.5901" lon="1.31684">
        <ele>175.6</ele>
        <time>2022-10-26T15:48:07Z</time>
      </trkpt>
      <trkpt lat="43.59004" lon="1.31688">
        <ele>175.6</ele>
        <time>2022-10-26T15:48:08Z</time>
      </trkpt>
      <trkpt lat="43.59" lon="1.31691">
        <ele>175.6</ele>
        <time>2022-10-26T15:48:09Z</time>
      </trkpt>
      <trkpt lat="43.58994" lon="1.31694">
        <ele>175.6</ele>
        <time>2022-10-26T15:48:10Z</time>
      </trkpt>
      <trkpt lat="43.58988" lon="1.31697">
        <ele>175.6</ele>
        <time>2022-10-26T15:48:11Z</time>
      </trkpt>
      <trkpt lat="43.58983" lon="1.317">
        <ele>175.6</ele>
        <time>2022-10-26T15:48:12Z</time>
      </trkpt>
      <trkpt lat="43.58977" lon="1.31704">
        <ele>175.6</ele>
        <time>2022-10-26T15:48:13Z</time>
      </trkpt>
      <trkpt lat="43.58972" lon="1.31707">
        <ele>175.6</ele>
        <time>2022-10-26T15:48:14Z</time>
      </trkpt>
      <trkpt lat="43.58966" lon="1.3171">
        <ele>175.8</ele>
        <time>2022-10-26T15:48:15Z</time>
      </trkpt>
      <trkpt lat="43.58961" lon="1.31713">
        <ele>175.8</ele>
        <time>2022-10-26T15:48:16Z</time>
      </trkpt>
      <trkpt lat="43.58955" lon="1.31717">
        <ele>175.8</ele>
        <time>2022-10-26T15:48:17Z</time>
      </trkpt>
      <trkpt lat="43.5895" lon="1.31719">
        <ele>176</ele>
        <time>2022-10-26T15:48:18Z</time>
      </trkpt>
      <trkpt lat="43.58945" lon="1.31722">
        <ele>176</ele>
        <time>2022-10-26T15:48:19Z</time>
      </trkpt>
      <trkpt lat="43.58939" lon="1.31725">
        <ele>176</ele>
        <time>2022-10-26T15:48:20Z</time>
      </trkpt>
      <trkpt lat="43.58934" lon="1.31728">
        <ele>176</ele>
        <time>2022-10-26T15:48:21Z</time>
      </trkpt>
      <trkpt lat="43.58928" lon="1.31731">
        <ele>176</ele>
        <time>2022-10-26T15:48:22Z</time>
      </trkpt>
      <trkpt lat="43.58923" lon="1.31734">
        <ele>176</ele>
        <time>2022-10-26T15:48:23Z</time>
      </trkpt>
      <trkpt lat="43.58917" lon="1.31737">
        <ele>176</ele>
        <time>2022-10-26T15:48:24Z</time>
      </trkpt>
      <trkpt lat="43.58912" lon="1.3174">
        <ele>176</ele>
        <time>2022-10-26T15:48:25Z</time>
      </trkpt>
      <trkpt lat="43.58906" lon="1.31744">
        <ele>176</ele>
        <time>2022-10-26T15:48:26Z</time>
      </trkpt>
      <trkpt lat="43.58901" lon="1.31747">
        <ele>176</ele>
        <time>2022-10-26T15:48:27Z</time>
      </trkpt>
      <trkpt lat="43.58895" lon="1.3175">
        <ele>176</ele>
        <time>2022-10-26T15:48:28Z</time>
      </trkpt>
      <trkpt lat="43.5889" lon="1.31752">
        <ele>176</ele>
        <time>2022-10-26T15:48:29Z</time>
      </trkpt>
      <trkpt lat="43.58885" lon="1.31755">
        <ele>176</ele>
        <time>2022-10-26T15:48:30Z</time>
      </trkpt>
      <trkpt lat="43.5888" lon="1.31758">
        <ele>176</ele>
        <time>2022-10-26T15:48:31Z</time>
      </trkpt>
      <trkpt lat="43.58874" lon="1.31759">
        <ele>176</ele>
        <time>2022-10-26T15:48:32Z</time>
      </trkpt>
      <trkpt lat="43.58869" lon="1.31758">
        <ele>176</ele>
        <time>2022-10-26T15:48:33Z</time>
      </trkpt>
      <trkpt lat="43.58863" lon="1.31756">
        <ele>176</ele>
        <time>2022-10-26T15:48:34Z</time>
      </trkpt>
      <trkpt lat="43.58858" lon="1.31751">
        <ele>176.2</ele>
        <time>2022-10-26T15:48:35Z</time>
      </trkpt>
      <trkpt lat="43.58854" lon="1.31745">
        <ele>176.2</ele>
        <time>2022-10-26T15:48:36Z</time>
      </trkpt>
      <trkpt lat="43.58849" lon="1.31739">
        <ele>176.2</ele>
        <time>2022-10-26T15:48:37Z</time>
      </trkpt>
      <trkpt lat="43.58844" lon="1.31732">
        <ele>176.2</ele>
        <time>2022-10-26T15:48:38Z</time>
      </trkpt>
      <trkpt lat="43.5884" lon="1.31727">
        <ele>176.2</ele>
        <time>2022-10-26T15:48:39Z</time>
      </trkpt>
      <trkpt lat="43.58835" lon="1.31721">
        <ele>176.2</ele>
        <time>2022-10-26T15:48:40Z</time>
      </trkpt>
      <trkpt lat="43.5883" lon="1.31713">
        <ele>176.2</ele>
        <time>2022-10-26T15:48:41Z</time>
      </trkpt>
      <trkpt lat="43.58826" lon="1.31708">
        <ele>176.2</ele>
        <time>2022-10-26T15:48:42Z</time>
      </trkpt>
      <trkpt lat="43.58822" lon="1.31702">
        <ele>176.2</ele>
        <time>2022-10-26T15:48:43Z</time>
      </trkpt>
      <trkpt lat="43.58817" lon="1.31696">
        <ele>176.2</ele>
        <time>2022-10-26T15:48:44Z</time>
      </trkpt>
      <trkpt lat="43.58811" lon="1.31689">
        <ele>176.4</ele>
        <time>2022-10-26T15:48:45Z</time>
      </trkpt>
      <trkpt lat="43.58808" lon="1.31685">
        <ele>176.2</ele>
        <time>2022-10-26T15:48:46Z</time>
      </trkpt>
      <trkpt lat="43.58803" lon="1.31679">
        <ele>176.2</ele>
        <time>2022-10-26T15:48:47Z</time>
      </trkpt>
      <trkpt lat="43.58799" lon="1.31674">
        <ele>176.2</ele>
        <time>2022-10-26T15:48:48Z</time>
      </trkpt>
      <trkpt lat="43.58794" lon="1.31669">
        <ele>176.2</ele>
        <time>2022-10-26T15:48:49Z</time>
      </trkpt>
      <trkpt lat="43.58789" lon="1.31665">
        <ele>176.2</ele>
        <time>2022-10-26T15:48:50Z</time>
      </trkpt>
      <trkpt lat="43.58783" lon="1.31663">
        <ele>176.2</ele>
        <time>2022-10-26T15:48:51Z</time>
      </trkpt>
      <trkpt lat="43.58778" lon="1.31663">
        <ele>176.2</ele>
        <time>2022-10-26T15:48:52Z</time>
      </trkpt>
      <trkpt lat="43.58773" lon="1.31666">
        <ele>176.2</ele>
        <time>2022-10-26T15:48:53Z</time>
      </trkpt>
      <trkpt lat="43.5877" lon="1.31671">
        <ele>176.2</ele>
        <time>2022-10-26T15:48:54Z</time>
      </trkpt>
      <trkpt lat="43.58766" lon="1.31677">
        <ele>176.2</ele>
        <time>2022-10-26T15:48:55Z</time>
      </trkpt>
      <trkpt lat="43.58762" lon="1.31683">
        <ele>176.2</ele>
        <time>2022-10-26T15:48:56Z</time>
      </trkpt>
      <trkpt lat="43.58758" lon="1.31689">
        <ele>176</ele>
        <time>2022-10-26T15:48:57Z</time>
      </trkpt>
      <trkpt lat="43.58754" lon="1.31697">
        <ele>176</ele>
        <time>2022-10-26T15:48:58Z</time>
      </trkpt>
      <trkpt lat="43.5875" lon="1.31702">
        <ele>176</ele>
        <time>2022-10-26T15:48:59Z</time>
      </trkpt>
      <trkpt lat="43.58746" lon="1.31709">
        <ele>176</ele>
        <time>2022-10-26T15:49:00Z</time>
      </trkpt>
      <trkpt lat="43.58742" lon="1.31715">
        <ele>176.2</ele>
        <time>2022-10-26T15:49:01Z</time>
      </trkpt>
      <trkpt lat="43.58738" lon="1.31721">
        <ele>176.2</ele>
        <time>2022-10-26T15:49:02Z</time>
      </trkpt>
      <trkpt lat="43.58734" lon="1.31728">
        <ele>176</ele>
        <time>2022-10-26T15:49:03Z</time>
      </trkpt>
      <trkpt lat="43.5873" lon="1.31735">
        <ele>176</ele>
        <time>2022-10-26T15:49:04Z</time>
      </trkpt>
      <trkpt lat="43.58726" lon="1.31742">
        <ele>176</ele>
        <time>2022-10-26T15:49:05Z</time>
      </trkpt>
      <trkpt lat="43.58722" lon="1.31749">
        <ele>176</ele>
        <time>2022-10-26T15:49:06Z</time>
      </trkpt>
      <trkpt lat="43.58718" lon="1.31756">
        <ele>176</ele>
        <time>2022-10-26T15:49:07Z</time>
      </trkpt>
      <trkpt lat="43.58715" lon="1.31763">
        <ele>176.2</ele>
        <time>2022-10-26T15:49:08Z</time>
      </trkpt>
      <trkpt lat="43.5871" lon="1.31771">
        <ele>176</ele>
        <time>2022-10-26T15:49:09Z</time>
      </trkpt>
      <trkpt lat="43.58707" lon="1.31777">
        <ele>176</ele>
        <time>2022-10-26T15:49:10Z</time>
      </trkpt>
      <trkpt lat="43.58703" lon="1.31784">
        <ele>176</ele>
        <time>2022-10-26T15:49:11Z</time>
      </trkpt>
      <trkpt lat="43.58698" lon="1.31792">
        <ele>176</ele>
        <time>2022-10-26T15:49:12Z</time>
      </trkpt>
      <trkpt lat="43.58695" lon="1.31799">
        <ele>176</ele>
        <time>2022-10-26T15:49:13Z</time>
      </trkpt>
      <trkpt lat="43.58692" lon="1.31805">
        <ele>176</ele>
        <time>2022-10-26T15:49:14Z</time>
      </trkpt>
      <trkpt lat="43.58689" lon="1.31812">
        <ele>176</ele>
        <time>2022-10-26T15:49:15Z</time>
      </trkpt>
      <trkpt lat="43.58686" lon="1.31818">
        <ele>176</ele>
        <time>2022-10-26T15:49:16Z</time>
      </trkpt>
      <trkpt lat="43.58683" lon="1.31825">
        <ele>176</ele>
        <time>2022-10-26T15:49:17Z</time>
      </trkpt>
      <trkpt lat="43.58679" lon="1.31832">
        <ele>176</ele>
        <time>2022-10-26T15:49:18Z</time>
      </trkpt>
      <trkpt lat="43.58676" lon="1.31837">
        <ele>176</ele>
        <time>2022-10-26T15:49:19Z</time>
      </trkpt>
      <trkpt lat="43.58672" lon="1.31843">
        <ele>176</ele>
        <time>2022-10-26T15:49:20Z</time>
      </trkpt>
      <trkpt lat="43.5867" lon="1.31849">
        <ele>176</ele>
        <time>2022-10-26T15:49:21Z</time>
      </trkpt>
      <trkpt lat="43.58668" lon="1.31858">
        <ele>176</ele>
        <time>2022-10-26T15:49:22Z</time>
      </trkpt>
      <trkpt lat="43.58668" lon="1.31865">
        <ele>176</ele>
        <time>2022-10-26T15:49:23Z</time>
      </trkpt>
      <trkpt lat="43.58668" lon="1.31873">
        <ele>176</ele>
        <time>2022-10-26T15:49:24Z</time>
      </trkpt>
      <trkpt lat="43.58668" lon="1.31881">
        <ele>176</ele>
        <time>2022-10-26T15:49:25Z</time>
      </trkpt>
      <trkpt lat="43.58669" lon="1.31888">
        <ele>175.8</ele>
        <time>2022-10-26T15:49:26Z</time>
      </trkpt>
      <trkpt lat="43.5867" lon="1.31896">
        <ele>175.8</ele>
        <time>2022-10-26T15:49:27Z</time>
      </trkpt>
      <trkpt lat="43.58671" lon="1.31904">
        <ele>175.8</ele>
        <time>2022-10-26T15:49:28Z</time>
      </trkpt>
      <trkpt lat="43.58673" lon="1.31912">
        <ele>175.6</ele>
        <time>2022-10-26T15:49:29Z</time>
      </trkpt>
      <trkpt lat="43.58674" lon="1.31919">
        <ele>175.6</ele>
        <time>2022-10-26T15:49:30Z</time>
      </trkpt>
      <trkpt lat="43.58676" lon="1.31926">
        <ele>175.6</ele>
        <time>2022-10-26T15:49:31Z</time>
      </trkpt>
      <trkpt lat="43.58676" lon="1.31931">
        <ele>175.4</ele>
        <time>2022-10-26T15:49:32Z</time>
      </trkpt>
      <trkpt lat="43.58676" lon="1.31935">
        <ele>175.4</ele>
        <time>2022-10-26T15:49:33Z</time>
      </trkpt>
      <trkpt lat="43.58675" lon="1.31937">
        <ele>175.4</ele>
        <time>2022-10-26T15:49:34Z</time>
      </trkpt>
      <trkpt lat="43.58673" lon="1.31939">
        <ele>175.2</ele>
        <time>2022-10-26T15:49:35Z</time>
      </trkpt>
      <trkpt lat="43.58671" lon="1.31942">
        <ele>175.2</ele>
        <time>2022-10-26T15:49:36Z</time>
      </trkpt>
      <trkpt lat="43.58669" lon="1.31945">
        <ele>175.2</ele>
        <time>2022-10-26T15:49:37Z</time>
      </trkpt>
      <trkpt lat="43.58667" lon="1.31949">
        <ele>175</ele>
        <time>2022-10-26T15:49:38Z</time>
      </trkpt>
      <trkpt lat="43.58665" lon="1.31954">
        <ele>175</ele>
        <time>2022-10-26T15:49:39Z</time>
      </trkpt>
      <trkpt lat="43.58664" lon="1.31958">
        <ele>175</ele>
        <time>2022-10-26T15:49:40Z</time>
      </trkpt>
      <trkpt lat="43.58664" lon="1.31962">
        <ele>175</ele>
        <time>2022-10-26T15:49:41Z</time>
      </trkpt>
      <trkpt lat="43.58666" lon="1.31966">
        <ele>174.8</ele>
        <time>2022-10-26T15:49:42Z</time>
      </trkpt>
      <trkpt lat="43.58668" lon="1.3197">
        <ele>174.8</ele>
        <time>2022-10-26T15:49:43Z</time>
      </trkpt>
      <trkpt lat="43.58672" lon="1.31974">
        <ele>174.8</ele>
        <time>2022-10-26T15:49:44Z</time>
      </trkpt>
      <trkpt lat="43.58675" lon="1.31979">
        <ele>174.8</ele>
        <time>2022-10-26T15:49:45Z</time>
      </trkpt>
      <trkpt lat="43.58678" lon="1.31985">
        <ele>174.6</ele>
        <time>2022-10-26T15:49:46Z</time>
      </trkpt>
      <trkpt lat="43.5868" lon="1.31991">
        <ele>174.6</ele>
        <time>2022-10-26T15:49:47Z</time>
      </trkpt>
      <trkpt lat="43.58681" lon="1.31999">
        <ele>174.6</ele>
        <time>2022-10-26T15:49:48Z</time>
      </trkpt>
      <trkpt lat="43.58683" lon="1.32006">
        <ele>174.6</ele>
        <time>2022-10-26T15:49:49Z</time>
      </trkpt>
      <trkpt lat="43.58684" lon="1.32014">
        <ele>174.4</ele>
        <time>2022-10-26T15:49:50Z</time>
      </trkpt>
      <trkpt lat="43.58684" lon="1.32022">
        <ele>174.4</ele>
        <time>2022-10-26T15:49:51Z</time>
      </trkpt>
      <trkpt lat="43.58685" lon="1.3203">
        <ele>174.4</ele>
        <time>2022-10-26T15:49:52Z</time>
      </trkpt>
      <trkpt lat="43.58686" lon="1.32037">
        <ele>174.4</ele>
        <time>2022-10-26T15:49:53Z</time>
      </trkpt>
      <trkpt lat="43.58686" lon="1.32045">
        <ele>174.4</ele>
        <time>2022-10-26T15:49:54Z</time>
      </trkpt>
      <trkpt lat="43.58687" lon="1.32054">
        <ele>174.4</ele>
        <time>2022-10-26T15:49:55Z</time>
      </trkpt>
      <trkpt lat="43.58687" lon="1.32062">
        <ele>174.4</ele>
        <time>2022-10-26T15:49:56Z</time>
      </trkpt>
      <trkpt lat="43.58687" lon="1.3207">
        <ele>174.4</ele>
        <time>2022-10-26T15:49:57Z</time>
      </trkpt>
      <trkpt lat="43.58687" lon="1.32077">
        <ele>174.2</ele>
        <time>2022-10-26T15:49:58Z</time>
      </trkpt>
      <trkpt lat="43.58686" lon="1.32085">
        <ele>174.2</ele>
        <time>2022-10-26T15:49:59Z</time>
      </trkpt>
      <trkpt lat="43.58686" lon="1.32093">
        <ele>174.2</ele>
        <time>2022-10-26T15:50:00Z</time>
      </trkpt>
      <trkpt lat="43.58686" lon="1.32101">
        <ele>174</ele>
        <time>2022-10-26T15:50:01Z</time>
      </trkpt>
      <trkpt lat="43.58686" lon="1.32109">
        <ele>174</ele>
        <time>2022-10-26T15:50:02Z</time>
      </trkpt>
      <trkpt lat="43.58685" lon="1.32117">
        <ele>174</ele>
        <time>2022-10-26T15:50:03Z</time>
      </trkpt>
      <trkpt lat="43.58684" lon="1.32124">
        <ele>174</ele>
        <time>2022-10-26T15:50:04Z</time>
      </trkpt>
      <trkpt lat="43.58684" lon="1.32131">
        <ele>174</ele>
        <time>2022-10-26T15:50:05Z</time>
      </trkpt>
      <trkpt lat="43.58683" lon="1.32138">
        <ele>174</ele>
        <time>2022-10-26T15:50:06Z</time>
      </trkpt>
      <trkpt lat="43.58683" lon="1.32145">
        <ele>174.2</ele>
        <time>2022-10-26T15:50:07Z</time>
      </trkpt>
      <trkpt lat="43.58683" lon="1.32153">
        <ele>174.2</ele>
        <time>2022-10-26T15:50:08Z</time>
      </trkpt>
      <trkpt lat="43.58682" lon="1.32161">
        <ele>174.2</ele>
        <time>2022-10-26T15:50:09Z</time>
      </trkpt>
      <trkpt lat="43.58681" lon="1.32169">
        <ele>174.2</ele>
        <time>2022-10-26T15:50:10Z</time>
      </trkpt>
      <trkpt lat="43.58681" lon="1.32175">
        <ele>174.4</ele>
        <time>2022-10-26T15:50:11Z</time>
      </trkpt>
      <trkpt lat="43.5868" lon="1.32183">
        <ele>174.4</ele>
        <time>2022-10-26T15:50:12Z</time>
      </trkpt>
      <trkpt lat="43.5868" lon="1.3219">
        <ele>174.4</ele>
        <time>2022-10-26T15:50:13Z</time>
      </trkpt>
      <trkpt lat="43.58679" lon="1.32197">
        <ele>174.4</ele>
        <time>2022-10-26T15:50:14Z</time>
      </trkpt>
      <trkpt lat="43.58678" lon="1.32204">
        <ele>174.4</ele>
        <time>2022-10-26T15:50:15Z</time>
      </trkpt>
      <trkpt lat="43.58677" lon="1.32211">
        <ele>174.6</ele>
        <time>2022-10-26T15:50:16Z</time>
      </trkpt>
      <trkpt lat="43.58677" lon="1.32217">
        <ele>174.6</ele>
        <time>2022-10-26T15:50:17Z</time>
      </trkpt>
      <trkpt lat="43.58676" lon="1.32224">
        <ele>174.6</ele>
        <time>2022-10-26T15:50:18Z</time>
      </trkpt>
      <trkpt lat="43.58676" lon="1.32229">
        <ele>174.6</ele>
        <time>2022-10-26T15:50:19Z</time>
      </trkpt>
      <trkpt lat="43.58676" lon="1.32232">
        <ele>174.4</ele>
        <time>2022-10-26T15:50:20Z</time>
      </trkpt>
      <trkpt lat="43.58677" lon="1.32234">
        <ele>174.4</ele>
        <time>2022-10-26T15:50:21Z</time>
      </trkpt>
      <trkpt lat="43.58678" lon="1.32234">
        <ele>174.4</ele>
        <time>2022-10-26T15:50:22Z</time>
      </trkpt>
      <trkpt lat="43.58678" lon="1.32233">
        <ele>174.4</ele>
        <time>2022-10-26T15:50:23Z</time>
      </trkpt>
      <trkpt lat="43.58678" lon="1.32232">
        <ele>174.4</ele>
        <time>2022-10-26T15:50:24Z</time>
      </trkpt>
      <trkpt lat="43.58678" lon="1.32231">
        <ele>174.2</ele>
        <time>2022-10-26T15:50:25Z</time>
      </trkpt>
      <trkpt lat="43.58678" lon="1.32231">
        <ele>174.2</ele>
        <time>2022-10-26T15:50:26Z</time>
      </trkpt>
      <trkpt lat="43.58678" lon="1.32231">
        <ele>174</ele>
        <time>2022-10-26T15:50:27Z</time>
      </trkpt>
      <trkpt lat="43.58678" lon="1.32231">
        <ele>174</ele>
        <time>2022-10-26T15:50:28Z</time>
      </trkpt>
    </trkseg>
  </trk>
</gpx>